<?xml version='1.0' encoding='UTF-8'?><gpx version="1.1" creator="JPX - https://github.com/jenetics/jpx" xmlns="http://www.topografix.com/GPX/1/1"><trk><trkseg><trkpt lat="38.5872118" lon="-0.310395"><ele>445.0</ele><time>2026-04-05T09:41:26.061Z</time></trkpt><trkpt lat="38.5871749" lon="-0.310472"><ele>445.0</ele><time>2026-04-05T09:41:33.017Z</time></trkpt><trkpt lat="38.5871356" lon="-0.3105373"><ele>445.0</ele><time>2026-04-05T09:41:39.016Z</time></trkpt><trkpt lat="38.5871202" lon="-0.3106171"><ele>445.0</ele><time>2026-04-05T09:41:46.998Z</time></trkpt><trkpt lat="38.5871309" lon="-0.3106996"><ele>445.0</ele><time>2026-04-05T09:41:54.016Z</time></trkpt><trkpt lat="38.5871351" lon="-0.3106057"><ele>445.0</ele><time>2026-04-05T09:45:49.017Z</time></trkpt><trkpt lat="38.5871863" lon="-0.3105464"><ele>445.0</ele><time>2026-04-05T09:45:56.017Z</time></trkpt><trkpt lat="38.5872123" lon="-0.3104582"><ele>445.00000000000006</ele><time>2026-04-05T09:46:27.016Z</time></trkpt><trkpt lat="38.5872834" lon="-0.3102958"><ele>445.0</ele><time>2026-04-05T09:46:30.016Z</time></trkpt><trkpt lat="38.5873059" lon="-0.3101942"><ele>445.0</ele><time>2026-04-05T09:46:31.016Z</time></trkpt><trkpt lat="38.5873346" lon="-0.3101173"><ele>445.0</ele><time>2026-04-05T09:46:32.016Z</time></trkpt><trkpt lat="38.5873701" lon="-0.3100473"><ele>445.00000000000006</ele><time>2026-04-05T09:46:33.017Z</time></trkpt><trkpt lat="38.5874104" lon="-0.3099824"><ele>445.0</ele><time>2026-04-05T09:46:35.016Z</time></trkpt><trkpt lat="38.5874593" lon="-0.3099257"><ele>445.0</ele><time>2026-04-05T09:46:39.016Z</time></trkpt><trkpt lat="38.5875321" lon="-0.3098848"><ele>445.0</ele><time>2026-04-05T09:46:41.017Z</time></trkpt><trkpt lat="38.5875894" lon="-0.3098122"><ele>445.0</ele><time>2026-04-05T09:46:43.016Z</time></trkpt><trkpt lat="38.5876285" lon="-0.3097262"><ele>445.0</ele><time>2026-04-05T09:46:45.016Z</time></trkpt><trkpt lat="38.5876359" lon="-0.3096423"><ele>445.0</ele><time>2026-04-05T09:46:47.017Z</time></trkpt><trkpt lat="38.5876599" lon="-0.3095625"><ele>445.0</ele><time>2026-04-05T09:46:49.016Z</time></trkpt><trkpt lat="38.5876953" lon="-0.309474"><ele>445.0</ele><time>2026-04-05T09:46:51.017Z</time></trkpt><trkpt lat="38.587704" lon="-0.3093801"><ele>445.50000000000006</ele><time>2026-04-05T09:46:53.017Z</time></trkpt><trkpt lat="38.5876953" lon="-0.3092771"><ele>446.0</ele><time>2026-04-05T09:46:55.016Z</time></trkpt><trkpt lat="38.587701" lon="-0.3091663"><ele>446.5</ele><time>2026-04-05T09:46:57.016Z</time></trkpt><trkpt lat="38.5877168" lon="-0.3090594"><ele>447.0</ele><time>2026-04-05T09:46:59.016Z</time></trkpt><trkpt lat="38.5877673" lon="-0.3089851"><ele>447.50000000000006</ele><time>2026-04-05T09:47:01.017Z</time></trkpt><trkpt lat="38.5878343" lon="-0.3089643"><ele>448.0</ele><time>2026-04-05T09:47:03.017Z</time></trkpt><trkpt lat="38.5879169" lon="-0.3089579"><ele>448.00000000000006</ele><time>2026-04-05T09:47:05.017Z</time></trkpt><trkpt lat="38.5879964" lon="-0.308961"><ele>448.0</ele><time>2026-04-05T09:47:07.016Z</time></trkpt><trkpt lat="38.5880826" lon="-0.3089331"><ele>448.0</ele><time>2026-04-05T09:47:09.016Z</time></trkpt><trkpt lat="38.588187" lon="-0.308878"><ele>448.0</ele><time>2026-04-05T09:47:11.016Z</time></trkpt><trkpt lat="38.5882517" lon="-0.3088412"><ele>448.00000000000006</ele><time>2026-04-05T09:47:12.017Z</time></trkpt><trkpt lat="38.5883285" lon="-0.3087961"><ele>448.0</ele><time>2026-04-05T09:47:13.016Z</time></trkpt><trkpt lat="38.5884166" lon="-0.3087535"><ele>446.2</ele><time>2026-04-05T09:47:14.016Z</time></trkpt><trkpt lat="38.5885033" lon="-0.3087021"><ele>444.4</ele><time>2026-04-05T09:47:15.016Z</time></trkpt><trkpt lat="38.5886002" lon="-0.3086504"><ele>442.59999999999997</ele><time>2026-04-05T09:47:16.017Z</time></trkpt><trkpt lat="38.5887035" lon="-0.3085957"><ele>440.79999999999995</ele><time>2026-04-05T09:47:17.016Z</time></trkpt><trkpt lat="38.5888222" lon="-0.3085273"><ele>439.0</ele><time>2026-04-05T09:47:18.016Z</time></trkpt><trkpt lat="38.5889556" lon="-0.3084513"><ele>439.0</ele><time>2026-04-05T09:47:19.016Z</time></trkpt><trkpt lat="38.589077" lon="-0.3083876"><ele>439.0</ele><time>2026-04-05T09:47:20.016Z</time></trkpt><trkpt lat="38.5891858" lon="-0.3083256"><ele>439.0</ele><time>2026-04-05T09:47:21.016Z</time></trkpt><trkpt lat="38.5892802" lon="-0.30827"><ele>439.0</ele><time>2026-04-05T09:47:22.017Z</time></trkpt><trkpt lat="38.5893642" lon="-0.3082245"><ele>439.0</ele><time>2026-04-05T09:47:23.016Z</time></trkpt><trkpt lat="38.5894381" lon="-0.3081822"><ele>439.00000000000006</ele><time>2026-04-05T09:47:24.016Z</time></trkpt><trkpt lat="38.5895076" lon="-0.3081389"><ele>439.0</ele><time>2026-04-05T09:47:25.017Z</time></trkpt><trkpt lat="38.5895754" lon="-0.3080962"><ele>439.0</ele><time>2026-04-05T09:47:26.017Z</time></trkpt><trkpt lat="38.5896429" lon="-0.3080404"><ele>439.0</ele><time>2026-04-05T09:47:27.016Z</time></trkpt><trkpt lat="38.5897096" lon="-0.3079689"><ele>439.00000000000006</ele><time>2026-04-05T09:47:28.017Z</time></trkpt><trkpt lat="38.5897692" lon="-0.3078836"><ele>439.0</ele><time>2026-04-05T09:47:29.016Z</time></trkpt><trkpt lat="38.589821" lon="-0.3077808"><ele>439.0</ele><time>2026-04-05T09:47:30.016Z</time></trkpt><trkpt lat="38.5898657" lon="-0.3076615"><ele>439.0</ele><time>2026-04-05T09:47:31.016Z</time></trkpt><trkpt lat="38.589896" lon="-0.3075256"><ele>439.0</ele><time>2026-04-05T09:47:32.017Z</time></trkpt><trkpt lat="38.5899087" lon="-0.3073831"><ele>439.0</ele><time>2026-04-05T09:47:33.016Z</time></trkpt><trkpt lat="38.5898871" lon="-0.3072388"><ele>439.0</ele><time>2026-04-05T09:47:34.017Z</time></trkpt><trkpt lat="38.5898359" lon="-0.3071067"><ele>438.6</ele><time>2026-04-05T09:47:35.017Z</time></trkpt><trkpt lat="38.5897559" lon="-0.3069938"><ele>438.2</ele><time>2026-04-05T09:47:36.017Z</time></trkpt><trkpt lat="38.5896708" lon="-0.3068978"><ele>437.80000000000007</ele><time>2026-04-05T09:47:37.016Z</time></trkpt><trkpt lat="38.5895796" lon="-0.3068319"><ele>437.40000000000003</ele><time>2026-04-05T09:47:38.017Z</time></trkpt><trkpt lat="38.5895023" lon="-0.3067566"><ele>437.0</ele><time>2026-04-05T09:47:39.016Z</time></trkpt><trkpt lat="38.5894523" lon="-0.3066575"><ele>435.20000000000005</ele><time>2026-04-05T09:47:40.016Z</time></trkpt><trkpt lat="38.5894373" lon="-0.3065405"><ele>433.40000000000003</ele><time>2026-04-05T09:47:41.017Z</time></trkpt><trkpt lat="38.5894609" lon="-0.3064205"><ele>431.59999999999997</ele><time>2026-04-05T09:47:42.016Z</time></trkpt><trkpt lat="38.5895205" lon="-0.3063151"><ele>429.79999999999995</ele><time>2026-04-05T09:47:43.017Z</time></trkpt><trkpt lat="38.589598" lon="-0.3062202"><ele>428.0</ele><time>2026-04-05T09:47:44.016Z</time></trkpt><trkpt lat="38.5897025" lon="-0.3061572"><ele>428.0</ele><time>2026-04-05T09:47:45.017Z</time></trkpt><trkpt lat="38.5898127" lon="-0.3061006"><ele>428.0</ele><time>2026-04-05T09:47:46.016Z</time></trkpt><trkpt lat="38.589932" lon="-0.3060588"><ele>428.0</ele><time>2026-04-05T09:47:47.017Z</time></trkpt><trkpt lat="38.5900576" lon="-0.3060345"><ele>428.0</ele><time>2026-04-05T09:47:48.016Z</time></trkpt><trkpt lat="38.5901924" lon="-0.3060504"><ele>428.0</ele><time>2026-04-05T09:47:49.017Z</time></trkpt><trkpt lat="38.590322" lon="-0.3061006"><ele>428.0</ele><time>2026-04-05T09:47:50.016Z</time></trkpt><trkpt lat="38.5904472" lon="-0.3061736"><ele>428.0</ele><time>2026-04-05T09:47:51.017Z</time></trkpt><trkpt lat="38.5905625" lon="-0.3062278"><ele>428.0</ele><time>2026-04-05T09:47:52.017Z</time></trkpt><trkpt lat="38.590669" lon="-0.3062384"><ele>429.5</ele><time>2026-04-05T09:47:53.016Z</time></trkpt><trkpt lat="38.5907536" lon="-0.3061861"><ele>431.0</ele><time>2026-04-05T09:47:54.016Z</time></trkpt><trkpt lat="38.5908293" lon="-0.3061145"><ele>432.5</ele><time>2026-04-05T09:47:55.016Z</time></trkpt><trkpt lat="38.590855" lon="-0.3059491"><ele>434.0</ele><time>2026-04-05T09:47:56.017Z</time></trkpt><trkpt lat="38.5908511" lon="-0.305774"><ele>434.0</ele><time>2026-04-05T09:47:57.017Z</time></trkpt><trkpt lat="38.5908025" lon="-0.3055901"><ele>434.0</ele><time>2026-04-05T09:47:58.017Z</time></trkpt><trkpt lat="38.5907452" lon="-0.3054054"><ele>434.0</ele><time>2026-04-05T09:47:59.016Z</time></trkpt><trkpt lat="38.5907319" lon="-0.3052181"><ele>434.0</ele><time>2026-04-05T09:48:00.016Z</time></trkpt><trkpt lat="38.5907334" lon="-0.3050375"><ele>434.0</ele><time>2026-04-05T09:48:01.017Z</time></trkpt><trkpt lat="38.590798" lon="-0.3047986"><ele>434.0</ele><time>2026-04-05T09:48:02.017Z</time></trkpt><trkpt lat="38.590882" lon="-0.3045684"><ele>433.66666666666663</ele><time>2026-04-05T09:48:03.016Z</time></trkpt><trkpt lat="38.5909598" lon="-0.3043493"><ele>433.33333333333337</ele><time>2026-04-05T09:48:04.016Z</time></trkpt><trkpt lat="38.5910485" lon="-0.3041422"><ele>433.0</ele><time>2026-04-05T09:48:05.016Z</time></trkpt><trkpt lat="38.5911362" lon="-0.3039865"><ele>436.25</ele><time>2026-04-05T09:48:06.016Z</time></trkpt><trkpt lat="38.5912243" lon="-0.303862"><ele>439.5</ele><time>2026-04-05T09:48:07.017Z</time></trkpt><trkpt lat="38.5913245" lon="-0.3037445"><ele>442.75</ele><time>2026-04-05T09:48:08.016Z</time></trkpt><trkpt lat="38.5914219" lon="-0.3036277"><ele>446.0</ele><time>2026-04-05T09:48:09.016Z</time></trkpt><trkpt lat="38.5915041" lon="-0.3035231"><ele>446.0</ele><time>2026-04-05T09:48:10.016Z</time></trkpt><trkpt lat="38.5915595" lon="-0.303408"><ele>446.0</ele><time>2026-04-05T09:48:11.016Z</time></trkpt><trkpt lat="38.5915698" lon="-0.3032884"><ele>446.0</ele><time>2026-04-05T09:48:12.016Z</time></trkpt><trkpt lat="38.591542" lon="-0.3031626"><ele>446.0</ele><time>2026-04-05T09:48:13.016Z</time></trkpt><trkpt lat="38.5914709" lon="-0.3030702"><ele>446.0</ele><time>2026-04-05T09:48:14.017Z</time></trkpt><trkpt lat="38.5913881" lon="-0.3030215"><ele>445.49999999999994</ele><time>2026-04-05T09:48:15.017Z</time></trkpt><trkpt lat="38.5913087" lon="-0.3029965"><ele>445.0</ele><time>2026-04-05T09:48:16.016Z</time></trkpt><trkpt lat="38.5912194" lon="-0.3029933"><ele>444.5</ele><time>2026-04-05T09:48:17.016Z</time></trkpt><trkpt lat="38.5911445" lon="-0.3029948"><ele>444.0</ele><time>2026-04-05T09:48:18.016Z</time></trkpt><trkpt lat="38.5910654" lon="-0.3029759"><ele>443.49999999999994</ele><time>2026-04-05T09:48:19.016Z</time></trkpt><trkpt lat="38.5909872" lon="-0.3029304"><ele>443.0</ele><time>2026-04-05T09:48:20.016Z</time></trkpt><trkpt lat="38.5909085" lon="-0.3028722"><ele>443.0</ele><time>2026-04-05T09:48:21.016Z</time></trkpt><trkpt lat="38.5908258" lon="-0.302802"><ele>443.0</ele><time>2026-04-05T09:48:22.016Z</time></trkpt><trkpt lat="38.5907556" lon="-0.302696"><ele>443.0</ele><time>2026-04-05T09:48:23.016Z</time></trkpt><trkpt lat="38.5907063" lon="-0.3025463"><ele>443.0</ele><time>2026-04-05T09:48:24.017Z</time></trkpt><trkpt lat="38.5906741" lon="-0.3023599"><ele>443.3333333333333</ele><time>2026-04-05T09:48:25.016Z</time></trkpt><trkpt lat="38.5906469" lon="-0.3021526"><ele>443.66666666666663</ele><time>2026-04-05T09:48:26.016Z</time></trkpt><trkpt lat="38.5906173" lon="-0.3019532"><ele>444.0</ele><time>2026-04-05T09:48:27.016Z</time></trkpt><trkpt lat="38.5905908" lon="-0.3017688"><ele>444.0</ele><time>2026-04-05T09:48:28.017Z</time></trkpt><trkpt lat="38.5905696" lon="-0.3015989"><ele>444.0</ele><time>2026-04-05T09:48:29.016Z</time></trkpt><trkpt lat="38.5905523" lon="-0.301438"><ele>444.0</ele><time>2026-04-05T09:48:30.016Z</time></trkpt><trkpt lat="38.5905483" lon="-0.3012755"><ele>444.0</ele><time>2026-04-05T09:48:31.017Z</time></trkpt><trkpt lat="38.5905711" lon="-0.30111"><ele>442.75</ele><time>2026-04-05T09:48:32.017Z</time></trkpt><trkpt lat="38.5906258" lon="-0.3009733"><ele>441.5</ele><time>2026-04-05T09:48:33.016Z</time></trkpt><trkpt lat="38.5906977" lon="-0.3008454"><ele>440.25</ele><time>2026-04-05T09:48:34.016Z</time></trkpt><trkpt lat="38.5907811" lon="-0.3007104"><ele>439.0</ele><time>2026-04-05T09:48:35.016Z</time></trkpt><trkpt lat="38.5908461" lon="-0.3005469"><ele>439.0</ele><time>2026-04-05T09:48:36.017Z</time></trkpt><trkpt lat="38.5908826" lon="-0.3003823"><ele>439.0</ele><time>2026-04-05T09:48:37.016Z</time></trkpt><trkpt lat="38.5908462" lon="-0.3001863"><ele>439.0</ele><time>2026-04-05T09:48:38.017Z</time></trkpt><trkpt lat="38.5908182" lon="-0.3000094"><ele>439.0</ele><time>2026-04-05T09:48:39.016Z</time></trkpt><trkpt lat="38.5908031" lon="-0.2998454"><ele>437.2</ele><time>2026-04-05T09:48:40.016Z</time></trkpt><trkpt lat="38.5908054" lon="-0.2996986"><ele>435.4</ele><time>2026-04-05T09:48:41.016Z</time></trkpt><trkpt lat="38.5908343" lon="-0.2995687"><ele>433.6</ele><time>2026-04-05T09:48:42.016Z</time></trkpt><trkpt lat="38.5908967" lon="-0.2994558"><ele>431.8</ele><time>2026-04-05T09:48:43.017Z</time></trkpt><trkpt lat="38.5909955" lon="-0.2993692"><ele>430.0</ele><time>2026-04-05T09:48:44.016Z</time></trkpt><trkpt lat="38.5911129" lon="-0.2992887"><ele>433.75</ele><time>2026-04-05T09:48:45.017Z</time></trkpt><trkpt lat="38.5912412" lon="-0.2992135"><ele>437.5</ele><time>2026-04-05T09:48:46.016Z</time></trkpt><trkpt lat="38.5913593" lon="-0.2991439"><ele>441.25</ele><time>2026-04-05T09:48:47.016Z</time></trkpt><trkpt lat="38.591469" lon="-0.2990565"><ele>445.0</ele><time>2026-04-05T09:48:48.016Z</time></trkpt><trkpt lat="38.5915502" lon="-0.2989357"><ele>444.0</ele><time>2026-04-05T09:48:49.017Z</time></trkpt><trkpt lat="38.5915856" lon="-0.2987911"><ele>443.0</ele><time>2026-04-05T09:48:50.016Z</time></trkpt><trkpt lat="38.5915772" lon="-0.298654"><ele>442.0</ele><time>2026-04-05T09:48:51.016Z</time></trkpt><trkpt lat="38.5915448" lon="-0.2985224"><ele>441.0</ele><time>2026-04-05T09:48:52.016Z</time></trkpt><trkpt lat="38.5915326" lon="-0.2983838"><ele>440.0</ele><time>2026-04-05T09:48:53.016Z</time></trkpt><trkpt lat="38.591557" lon="-0.2982548"><ele>440.0</ele><time>2026-04-05T09:48:54.016Z</time></trkpt><trkpt lat="38.5916129" lon="-0.2981489"><ele>440.0</ele><time>2026-04-05T09:48:55.017Z</time></trkpt><trkpt lat="38.5916886" lon="-0.2980698"><ele>440.0</ele><time>2026-04-05T09:48:56.016Z</time></trkpt><trkpt lat="38.5917894" lon="-0.2979655"><ele>440.0</ele><time>2026-04-05T09:48:57.016Z</time></trkpt><trkpt lat="38.5918817" lon="-0.2978628"><ele>440.4</ele><time>2026-04-05T09:48:58.016Z</time></trkpt><trkpt lat="38.5919756" lon="-0.297778"><ele>440.8</ele><time>2026-04-05T09:48:59.016Z</time></trkpt><trkpt lat="38.592075" lon="-0.2977227"><ele>441.20000000000005</ele><time>2026-04-05T09:49:00.017Z</time></trkpt><trkpt lat="38.5921866" lon="-0.2977174"><ele>441.6</ele><time>2026-04-05T09:49:01.017Z</time></trkpt><trkpt lat="38.5922934" lon="-0.2977641"><ele>442.0</ele><time>2026-04-05T09:49:02.016Z</time></trkpt><trkpt lat="38.5923992" lon="-0.29781"><ele>442.0</ele><time>2026-04-05T09:49:03.016Z</time></trkpt><trkpt lat="38.5925066" lon="-0.2978291"><ele>442.00000000000006</ele><time>2026-04-05T09:49:04.017Z</time></trkpt><trkpt lat="38.5925999" lon="-0.2978182"><ele>442.00000000000006</ele><time>2026-04-05T09:49:05.016Z</time></trkpt><trkpt lat="38.5926248" lon="-0.2976539"><ele>442.0</ele><time>2026-04-05T09:49:06.017Z</time></trkpt><trkpt lat="38.5926386" lon="-0.2975107"><ele>442.0</ele><time>2026-04-05T09:49:07.017Z</time></trkpt><trkpt lat="38.5926303" lon="-0.297334"><ele>444.25</ele><time>2026-04-05T09:49:08.017Z</time></trkpt><trkpt lat="38.5926226" lon="-0.2971334"><ele>446.5</ele><time>2026-04-05T09:49:09.017Z</time></trkpt><trkpt lat="38.5926304" lon="-0.2969333"><ele>448.75</ele><time>2026-04-05T09:49:10.016Z</time></trkpt><trkpt lat="38.5926324" lon="-0.2967742"><ele>451.0</ele><time>2026-04-05T09:49:11.016Z</time></trkpt><trkpt lat="38.5926033" lon="-0.2966691"><ele>451.0</ele><time>2026-04-05T09:49:12.016Z</time></trkpt><trkpt lat="38.5925374" lon="-0.2966044"><ele>451.0</ele><time>2026-04-05T09:49:13.016Z</time></trkpt><trkpt lat="38.5924596" lon="-0.2966023"><ele>451.0</ele><time>2026-04-05T09:49:14.016Z</time></trkpt><trkpt lat="38.5923783" lon="-0.2966464"><ele>451.0</ele><time>2026-04-05T09:49:15.016Z</time></trkpt><trkpt lat="38.5922817" lon="-0.2967155"><ele>451.0</ele><time>2026-04-05T09:49:16.016Z</time></trkpt><trkpt lat="38.592167" lon="-0.2967849"><ele>451.0</ele><time>2026-04-05T09:49:17.017Z</time></trkpt><trkpt lat="38.5920601" lon="-0.2968217"><ele>451.0</ele><time>2026-04-05T09:49:18.017Z</time></trkpt><trkpt lat="38.5919104" lon="-0.2967623"><ele>451.0</ele><time>2026-04-05T09:49:19.016Z</time></trkpt><trkpt lat="38.5917764" lon="-0.2966853"><ele>451.0</ele><time>2026-04-05T09:49:20.017Z</time></trkpt><trkpt lat="38.5916387" lon="-0.2966773"><ele>449.25</ele><time>2026-04-05T09:49:21.016Z</time></trkpt><trkpt lat="38.5914986" lon="-0.296693"><ele>447.5</ele><time>2026-04-05T09:49:22.016Z</time></trkpt><trkpt lat="38.5913617" lon="-0.296691"><ele>445.75</ele><time>2026-04-05T09:49:23.017Z</time></trkpt><trkpt lat="38.5912473" lon="-0.2966452"><ele>444.0</ele><time>2026-04-05T09:49:24.017Z</time></trkpt><trkpt lat="38.5911482" lon="-0.2965701"><ele>443.0</ele><time>2026-04-05T09:49:25.017Z</time></trkpt><trkpt lat="38.5910969" lon="-0.296437"><ele>442.0</ele><time>2026-04-05T09:49:26.017Z</time></trkpt><trkpt lat="38.5910736" lon="-0.2962869"><ele>441.0</ele><time>2026-04-05T09:49:27.016Z</time></trkpt><trkpt lat="38.5910596" lon="-0.2961155"><ele>440.0</ele><time>2026-04-05T09:49:28.016Z</time></trkpt><trkpt lat="38.5910237" lon="-0.2959457"><ele>440.0</ele><time>2026-04-05T09:49:29.016Z</time></trkpt><trkpt lat="38.5909464" lon="-0.2957928"><ele>440.0</ele><time>2026-04-05T09:49:30.017Z</time></trkpt><trkpt lat="38.590835" lon="-0.2956652"><ele>440.0</ele><time>2026-04-05T09:49:31.017Z</time></trkpt><trkpt lat="38.590705" lon="-0.2955713"><ele>440.0</ele><time>2026-04-05T09:49:32.016Z</time></trkpt><trkpt lat="38.5905488" lon="-0.295504"><ele>438.0</ele><time>2026-04-05T09:49:33.016Z</time></trkpt><trkpt lat="38.5903917" lon="-0.2954465"><ele>436.0</ele><time>2026-04-05T09:49:34.016Z</time></trkpt><trkpt lat="38.5902542" lon="-0.2953693"><ele>434.0</ele><time>2026-04-05T09:49:35.017Z</time></trkpt><trkpt lat="38.5901532" lon="-0.2952683"><ele>432.0</ele><time>2026-04-05T09:49:36.016Z</time></trkpt><trkpt lat="38.5900795" lon="-0.2951304"><ele>432.0</ele><time>2026-04-05T09:49:37.016Z</time></trkpt><trkpt lat="38.5900081" lon="-0.2949847"><ele>432.0</ele><time>2026-04-05T09:49:38.017Z</time></trkpt><trkpt lat="38.5899426" lon="-0.2947821"><ele>432.0</ele><time>2026-04-05T09:49:39.016Z</time></trkpt><trkpt lat="38.5898564" lon="-0.2946055"><ele>430.0</ele><time>2026-04-05T09:49:40.016Z</time></trkpt><trkpt lat="38.5897654" lon="-0.2944354"><ele>428.0</ele><time>2026-04-05T09:49:41.016Z</time></trkpt><trkpt lat="38.5895845" lon="-0.2942177"><ele>426.0</ele><time>2026-04-05T09:49:42.017Z</time></trkpt><trkpt lat="38.5894275" lon="-0.2939927"><ele>429.66666666666663</ele><time>2026-04-05T09:49:43.016Z</time></trkpt><trkpt lat="38.5892932" lon="-0.2937648"><ele>433.3333333333333</ele><time>2026-04-05T09:49:44.017Z</time></trkpt><trkpt lat="38.5891828" lon="-0.2935443"><ele>437.0</ele><time>2026-04-05T09:49:45.016Z</time></trkpt><trkpt lat="38.589083" lon="-0.2933443"><ele>437.0</ele><time>2026-04-05T09:49:46.016Z</time></trkpt><trkpt lat="38.5890014" lon="-0.2931503"><ele>437.0</ele><time>2026-04-05T09:49:47.017Z</time></trkpt><trkpt lat="38.5889533" lon="-0.2929429"><ele>437.0</ele><time>2026-04-05T09:49:48.016Z</time></trkpt><trkpt lat="38.5889515" lon="-0.2927084"><ele>437.0</ele><time>2026-04-05T09:49:49.017Z</time></trkpt><trkpt lat="38.5889729" lon="-0.2924586"><ele>437.0</ele><time>2026-04-05T09:49:50.017Z</time></trkpt><trkpt lat="38.5889941" lon="-0.2922113"><ele>437.0</ele><time>2026-04-05T09:49:51.016Z</time></trkpt><trkpt lat="38.5890225" lon="-0.2919891"><ele>437.0</ele><time>2026-04-05T09:49:52.016Z</time></trkpt><trkpt lat="38.5890433" lon="-0.2917984"><ele>437.0</ele><time>2026-04-05T09:49:53.016Z</time></trkpt><trkpt lat="38.5890393" lon="-0.2916318"><ele>437.0</ele><time>2026-04-05T09:49:54.016Z</time></trkpt><trkpt lat="38.588991" lon="-0.2915045"><ele>437.0</ele><time>2026-04-05T09:49:55.016Z</time></trkpt><trkpt lat="38.5889187" lon="-0.2914018"><ele>437.8</ele><time>2026-04-05T09:49:56.016Z</time></trkpt><trkpt lat="38.5888395" lon="-0.2913178"><ele>438.6</ele><time>2026-04-05T09:49:57.017Z</time></trkpt><trkpt lat="38.5887619" lon="-0.2912398"><ele>439.40000000000003</ele><time>2026-04-05T09:49:58.017Z</time></trkpt><trkpt lat="38.5886946" lon="-0.2911559"><ele>440.20000000000005</ele><time>2026-04-05T09:49:59.016Z</time></trkpt><trkpt lat="38.5886429" lon="-0.2910593"><ele>441.0</ele><time>2026-04-05T09:50:00.017Z</time></trkpt><trkpt lat="38.5886148" lon="-0.2909322"><ele>440.75</ele><time>2026-04-05T09:50:01.016Z</time></trkpt><trkpt lat="38.588625" lon="-0.290781"><ele>440.5</ele><time>2026-04-05T09:50:02.017Z</time></trkpt><trkpt lat="38.5886683" lon="-0.2906214"><ele>440.25</ele><time>2026-04-05T09:50:03.017Z</time></trkpt><trkpt lat="38.5886987" lon="-0.2904462"><ele>440.0</ele><time>2026-04-05T09:50:04.017Z</time></trkpt><trkpt lat="38.5887108" lon="-0.2902582"><ele>440.0</ele><time>2026-04-05T09:50:05.017Z</time></trkpt><trkpt lat="38.5887039" lon="-0.2900528"><ele>440.0</ele><time>2026-04-05T09:50:06.016Z</time></trkpt><trkpt lat="38.5887132" lon="-0.2898733"><ele>440.0</ele><time>2026-04-05T09:50:07.017Z</time></trkpt><trkpt lat="38.5886818" lon="-0.2897122"><ele>440.0</ele><time>2026-04-05T09:50:08.017Z</time></trkpt><trkpt lat="38.5886094" lon="-0.2895709"><ele>435.5</ele><time>2026-04-05T09:50:09.016Z</time></trkpt><trkpt lat="38.5885151" lon="-0.2894348"><ele>431.0</ele><time>2026-04-05T09:50:10.016Z</time></trkpt><trkpt lat="38.588441" lon="-0.289303"><ele>426.5</ele><time>2026-04-05T09:50:11.017Z</time></trkpt><trkpt lat="38.5883892" lon="-0.2891604"><ele>422.0</ele><time>2026-04-05T09:50:12.017Z</time></trkpt><trkpt lat="38.588363" lon="-0.289014"><ele>422.0</ele><time>2026-04-05T09:50:13.017Z</time></trkpt><trkpt lat="38.5883625" lon="-0.2888684"><ele>422.0</ele><time>2026-04-05T09:50:14.016Z</time></trkpt><trkpt lat="38.5883875" lon="-0.2887279"><ele>422.0</ele><time>2026-04-05T09:50:15.016Z</time></trkpt><trkpt lat="38.5884083" lon="-0.2885828"><ele>422.0</ele><time>2026-04-05T09:50:16.017Z</time></trkpt><trkpt lat="38.5883998" lon="-0.2884192"><ele>422.0</ele><time>2026-04-05T09:50:17.017Z</time></trkpt><trkpt lat="38.5883642" lon="-0.2882596"><ele>422.0</ele><time>2026-04-05T09:50:18.017Z</time></trkpt><trkpt lat="38.5883136" lon="-0.2880967"><ele>422.0</ele><time>2026-04-05T09:50:19.016Z</time></trkpt><trkpt lat="38.5882558" lon="-0.2879429"><ele>422.0</ele><time>2026-04-05T09:50:20.017Z</time></trkpt><trkpt lat="38.5881921" lon="-0.2878074"><ele>424.25</ele><time>2026-04-05T09:50:21.017Z</time></trkpt><trkpt lat="38.5881206" lon="-0.2876779"><ele>426.5</ele><time>2026-04-05T09:50:22.017Z</time></trkpt><trkpt lat="38.5880376" lon="-0.2875664"><ele>428.75</ele><time>2026-04-05T09:50:23.016Z</time></trkpt><trkpt lat="38.5879364" lon="-0.2874758"><ele>431.0</ele><time>2026-04-05T09:50:24.017Z</time></trkpt><trkpt lat="38.5878393" lon="-0.2873869"><ele>426.25</ele><time>2026-04-05T09:50:25.016Z</time></trkpt><trkpt lat="38.5877515" lon="-0.2872756"><ele>421.5</ele><time>2026-04-05T09:50:26.017Z</time></trkpt><trkpt lat="38.5876791" lon="-0.2871463"><ele>416.75</ele><time>2026-04-05T09:50:27.016Z</time></trkpt><trkpt lat="38.5876238" lon="-0.2870131"><ele>412.0</ele><time>2026-04-05T09:50:28.016Z</time></trkpt><trkpt lat="38.5875814" lon="-0.2868754"><ele>412.0</ele><time>2026-04-05T09:50:29.017Z</time></trkpt><trkpt lat="38.5875508" lon="-0.2867319"><ele>412.0</ele><time>2026-04-05T09:50:30.016Z</time></trkpt><trkpt lat="38.5875343" lon="-0.2865877"><ele>412.0</ele><time>2026-04-05T09:50:31.016Z</time></trkpt><trkpt lat="38.5875286" lon="-0.2864383"><ele>412.0</ele><time>2026-04-05T09:50:32.016Z</time></trkpt><trkpt lat="38.5875253" lon="-0.2862841"><ele>412.0</ele><time>2026-04-05T09:50:33.016Z</time></trkpt><trkpt lat="38.5875125" lon="-0.2861291"><ele>412.0</ele><time>2026-04-05T09:50:34.017Z</time></trkpt><trkpt lat="38.5874654" lon="-0.2859939"><ele>412.0</ele><time>2026-04-05T09:50:35.017Z</time></trkpt><trkpt lat="38.5873672" lon="-0.2858787"><ele>412.0</ele><time>2026-04-05T09:50:36.016Z</time></trkpt><trkpt lat="38.5872379" lon="-0.2858039"><ele>412.0</ele><time>2026-04-05T09:50:37.016Z</time></trkpt><trkpt lat="38.587106" lon="-0.2857691"><ele>412.0</ele><time>2026-04-05T09:50:38.016Z</time></trkpt><trkpt lat="38.5869868" lon="-0.28574"><ele>412.0</ele><time>2026-04-05T09:50:39.016Z</time></trkpt><trkpt lat="38.5868952" lon="-0.2856757"><ele>412.0</ele><time>2026-04-05T09:50:40.017Z</time></trkpt><trkpt lat="38.5868318" lon="-0.2855869"><ele>410.33333333333337</ele><time>2026-04-05T09:50:41.016Z</time></trkpt><trkpt lat="38.5867995" lon="-0.285467"><ele>408.6666666666667</ele><time>2026-04-05T09:50:42.017Z</time></trkpt><trkpt lat="38.5867845" lon="-0.2853552"><ele>407.0</ele><time>2026-04-05T09:50:43.017Z</time></trkpt><trkpt lat="38.5867812" lon="-0.2852479"><ele>405.33333333333337</ele><time>2026-04-05T09:50:44.017Z</time></trkpt><trkpt lat="38.5867796" lon="-0.2851386"><ele>403.6666666666667</ele><time>2026-04-05T09:50:45.017Z</time></trkpt><trkpt lat="38.5867781" lon="-0.2850269"><ele>402.0</ele><time>2026-04-05T09:50:46.016Z</time></trkpt><trkpt lat="38.5867638" lon="-0.2849135"><ele>402.0</ele><time>2026-04-05T09:50:47.017Z</time></trkpt><trkpt lat="38.5867296" lon="-0.2847947"><ele>402.0</ele><time>2026-04-05T09:50:48.017Z</time></trkpt><trkpt lat="38.5866707" lon="-0.284693"><ele>402.0</ele><time>2026-04-05T09:50:49.016Z</time></trkpt><trkpt lat="38.5865917" lon="-0.2846139"><ele>402.0</ele><time>2026-04-05T09:50:50.017Z</time></trkpt><trkpt lat="38.5864954" lon="-0.2845547"><ele>402.0</ele><time>2026-04-05T09:50:51.017Z</time></trkpt><trkpt lat="38.5863891" lon="-0.2845034"><ele>401.5</ele><time>2026-04-05T09:50:52.017Z</time></trkpt><trkpt lat="38.5862699" lon="-0.2844806"><ele>401.0</ele><time>2026-04-05T09:50:53.016Z</time></trkpt><trkpt lat="38.5861495" lon="-0.284504"><ele>400.5</ele><time>2026-04-05T09:50:54.016Z</time></trkpt><trkpt lat="38.5860316" lon="-0.284548"><ele>400.0</ele><time>2026-04-05T09:50:55.016Z</time></trkpt><trkpt lat="38.5859131" lon="-0.2845899"><ele>399.25</ele><time>2026-04-05T09:50:56.016Z</time></trkpt><trkpt lat="38.5857885" lon="-0.2845982"><ele>398.5</ele><time>2026-04-05T09:50:57.016Z</time></trkpt><trkpt lat="38.5856608" lon="-0.284573"><ele>397.75</ele><time>2026-04-05T09:50:58.016Z</time></trkpt><trkpt lat="38.5855461" lon="-0.2845298"><ele>397.0</ele><time>2026-04-05T09:50:59.017Z</time></trkpt><trkpt lat="38.5854366" lon="-0.2845095"><ele>396.0</ele><time>2026-04-05T09:51:00.016Z</time></trkpt><trkpt lat="38.5853312" lon="-0.2845408"><ele>395.0</ele><time>2026-04-05T09:51:01.016Z</time></trkpt><trkpt lat="38.5852398" lon="-0.2846059"><ele>394.0</ele><time>2026-04-05T09:51:02.016Z</time></trkpt><trkpt lat="38.5851584" lon="-0.2847106"><ele>393.0</ele><time>2026-04-05T09:51:03.017Z</time></trkpt><trkpt lat="38.5850734" lon="-0.2848073"><ele>392.0</ele><time>2026-04-05T09:51:04.016Z</time></trkpt><trkpt lat="38.5849634" lon="-0.2848874"><ele>392.0</ele><time>2026-04-05T09:51:05.017Z</time></trkpt><trkpt lat="38.5848355" lon="-0.2849374"><ele>392.0</ele><time>2026-04-05T09:51:06.016Z</time></trkpt><trkpt lat="38.5847008" lon="-0.2849791"><ele>392.0</ele><time>2026-04-05T09:51:07.017Z</time></trkpt><trkpt lat="38.584569" lon="-0.2850124"><ele>392.0</ele><time>2026-04-05T09:51:08.016Z</time></trkpt><trkpt lat="38.5844417" lon="-0.285052"><ele>391.0</ele><time>2026-04-05T09:51:09.017Z</time></trkpt><trkpt lat="38.584314" lon="-0.2850952"><ele>390.0</ele><time>2026-04-05T09:51:10.017Z</time></trkpt><trkpt lat="38.5841889" lon="-0.2851365"><ele>389.0</ele><time>2026-04-05T09:51:11.017Z</time></trkpt><trkpt lat="38.5840674" lon="-0.2851693"><ele>388.0</ele><time>2026-04-05T09:51:12.016Z</time></trkpt><trkpt lat="38.5839481" lon="-0.2851727"><ele>388.0</ele><time>2026-04-05T09:51:13.016Z</time></trkpt><trkpt lat="38.5838271" lon="-0.2851524"><ele>388.0</ele><time>2026-04-05T09:51:14.016Z</time></trkpt><trkpt lat="38.5837143" lon="-0.2850608"><ele>388.0</ele><time>2026-04-05T09:51:15.017Z</time></trkpt><trkpt lat="38.5835997" lon="-0.2849418"><ele>388.0</ele><time>2026-04-05T09:51:16.016Z</time></trkpt><trkpt lat="38.583483" lon="-0.2847918"><ele>386.33333333333337</ele><time>2026-04-05T09:51:17.016Z</time></trkpt><trkpt lat="38.5833784" lon="-0.2846343"><ele>384.6666666666667</ele><time>2026-04-05T09:51:18.016Z</time></trkpt><trkpt lat="38.5832759" lon="-0.2844789"><ele>383.0</ele><time>2026-04-05T09:51:19.016Z</time></trkpt><trkpt lat="38.5831799" lon="-0.2843234"><ele>383.0</ele><time>2026-04-05T09:51:20.016Z</time></trkpt><trkpt lat="38.5830818" lon="-0.2841689"><ele>383.0</ele><time>2026-04-05T09:51:21.017Z</time></trkpt><trkpt lat="38.5829819" lon="-0.2840163"><ele>383.0</ele><time>2026-04-05T09:51:22.017Z</time></trkpt><trkpt lat="38.5828862" lon="-0.2838641"><ele>379.33333333333337</ele><time>2026-04-05T09:51:23.016Z</time></trkpt><trkpt lat="38.5827927" lon="-0.2837088"><ele>375.6666666666667</ele><time>2026-04-05T09:51:24.016Z</time></trkpt><trkpt lat="38.5826953" lon="-0.2835477"><ele>372.0</ele><time>2026-04-05T09:51:25.016Z</time></trkpt><trkpt lat="38.5825963" lon="-0.2833902"><ele>372.0</ele><time>2026-04-05T09:51:26.017Z</time></trkpt><trkpt lat="38.5824972" lon="-0.2832302"><ele>372.0</ele><time>2026-04-05T09:51:27.017Z</time></trkpt><trkpt lat="38.5823961" lon="-0.283071"><ele>372.0</ele><time>2026-04-05T09:51:28.016Z</time></trkpt><trkpt lat="38.5822925" lon="-0.282914"><ele>372.0</ele><time>2026-04-05T09:51:29.016Z</time></trkpt><trkpt lat="38.5821889" lon="-0.2827546"><ele>372.0</ele><time>2026-04-05T09:51:30.016Z</time></trkpt><trkpt lat="38.5820938" lon="-0.2825971"><ele>372.0</ele><time>2026-04-05T09:51:31.017Z</time></trkpt><trkpt lat="38.5819968" lon="-0.2824512"><ele>371.0</ele><time>2026-04-05T09:51:32.016Z</time></trkpt><trkpt lat="38.5818871" lon="-0.2823215"><ele>370.0</ele><time>2026-04-05T09:51:33.017Z</time></trkpt><trkpt lat="38.5817555" lon="-0.2822233"><ele>369.0</ele><time>2026-04-05T09:51:34.016Z</time></trkpt><trkpt lat="38.5816064" lon="-0.2821598"><ele>367.3333333333333</ele><time>2026-04-05T09:51:35.016Z</time></trkpt><trkpt lat="38.5814441" lon="-0.2821269"><ele>365.66666666666663</ele><time>2026-04-05T09:51:36.016Z</time></trkpt><trkpt lat="38.581282" lon="-0.2821085"><ele>364.0</ele><time>2026-04-05T09:51:37.016Z</time></trkpt><trkpt lat="38.5811203" lon="-0.2820944"><ele>363.66666666666663</ele><time>2026-04-05T09:51:38.016Z</time></trkpt><trkpt lat="38.5809541" lon="-0.2820756"><ele>363.3333333333333</ele><time>2026-04-05T09:51:39.017Z</time></trkpt><trkpt lat="38.5807774" lon="-0.2820534"><ele>363.0</ele><time>2026-04-05T09:51:40.016Z</time></trkpt><trkpt lat="38.5805837" lon="-0.2820281"><ele>363.0</ele><time>2026-04-05T09:51:41.016Z</time></trkpt><trkpt lat="38.5803527" lon="-0.2819867"><ele>363.0</ele><time>2026-04-05T09:51:42.017Z</time></trkpt><trkpt lat="38.5800922" lon="-0.2819341"><ele>363.5</ele><time>2026-04-05T09:51:43.017Z</time></trkpt><trkpt lat="38.579831" lon="-0.281894"><ele>364.0</ele><time>2026-04-05T09:51:44.016Z</time></trkpt><trkpt lat="38.5795999" lon="-0.2818781"><ele>364.66666666666663</ele><time>2026-04-05T09:51:45.016Z</time></trkpt><trkpt lat="38.5793946" lon="-0.2818673"><ele>365.3333333333333</ele><time>2026-04-05T09:51:46.017Z</time></trkpt><trkpt lat="38.579204" lon="-0.2818508"><ele>366.0</ele><time>2026-04-05T09:51:47.016Z</time></trkpt><trkpt lat="38.5790333" lon="-0.2818128"><ele>366.0</ele><time>2026-04-05T09:51:48.016Z</time></trkpt><trkpt lat="38.5788909" lon="-0.2817341"><ele>366.0</ele><time>2026-04-05T09:51:49.017Z</time></trkpt><trkpt lat="38.5787678" lon="-0.2816351"><ele>366.0</ele><time>2026-04-05T09:51:50.016Z</time></trkpt><trkpt lat="38.5786741" lon="-0.2815171"><ele>366.0</ele><time>2026-04-05T09:51:51.017Z</time></trkpt><trkpt lat="38.5785749" lon="-0.2814003"><ele>365.5</ele><time>2026-04-05T09:51:52.016Z</time></trkpt><trkpt lat="38.5784607" lon="-0.2813166"><ele>365.0</ele><time>2026-04-05T09:51:53.016Z</time></trkpt><trkpt lat="38.5783372" lon="-0.2812725"><ele>364.5</ele><time>2026-04-05T09:51:54.017Z</time></trkpt><trkpt lat="38.5782142" lon="-0.2812695"><ele>364.0</ele><time>2026-04-05T09:51:55.017Z</time></trkpt><trkpt lat="38.5781002" lon="-0.2812663"><ele>364.0</ele><time>2026-04-05T09:51:56.017Z</time></trkpt><trkpt lat="38.5779844" lon="-0.2812106"><ele>364.0</ele><time>2026-04-05T09:51:57.017Z</time></trkpt><trkpt lat="38.5778818" lon="-0.2810954"><ele>364.0</ele><time>2026-04-05T09:51:58.016Z</time></trkpt><trkpt lat="38.5777882" lon="-0.2809406"><ele>364.0</ele><time>2026-04-05T09:51:59.016Z</time></trkpt><trkpt lat="38.577715" lon="-0.2807737"><ele>364.0</ele><time>2026-04-05T09:52:00.016Z</time></trkpt><trkpt lat="38.5776601" lon="-0.2806075"><ele>364.0</ele><time>2026-04-05T09:52:01.017Z</time></trkpt><trkpt lat="38.5776406" lon="-0.2803963"><ele>364.0</ele><time>2026-04-05T09:52:02.016Z</time></trkpt><trkpt lat="38.5776385" lon="-0.2801738"><ele>364.0</ele><time>2026-04-05T09:52:03.016Z</time></trkpt><trkpt lat="38.5776482" lon="-0.2799158"><ele>364.0</ele><time>2026-04-05T09:52:04.017Z</time></trkpt><trkpt lat="38.5776489" lon="-0.2796402"><ele>364.0</ele><time>2026-04-05T09:52:05.016Z</time></trkpt><trkpt lat="38.5776319" lon="-0.279369"><ele>364.66666666666663</ele><time>2026-04-05T09:52:06.016Z</time></trkpt><trkpt lat="38.5776074" lon="-0.279094"><ele>365.3333333333333</ele><time>2026-04-05T09:52:07.017Z</time></trkpt><trkpt lat="38.5775819" lon="-0.2788191"><ele>366.0</ele><time>2026-04-05T09:52:08.017Z</time></trkpt><trkpt lat="38.5775598" lon="-0.278546"><ele>366.0</ele><time>2026-04-05T09:52:09.016Z</time></trkpt><trkpt lat="38.5775312" lon="-0.2782955"><ele>366.0</ele><time>2026-04-05T09:52:10.016Z</time></trkpt><trkpt lat="38.5775062" lon="-0.2780545"><ele>366.0</ele><time>2026-04-05T09:52:11.017Z</time></trkpt><trkpt lat="38.5774951" lon="-0.2778253"><ele>365.0</ele><time>2026-04-05T09:52:12.016Z</time></trkpt><trkpt lat="38.5774955" lon="-0.2776174"><ele>364.0</ele><time>2026-04-05T09:52:13.017Z</time></trkpt><trkpt lat="38.5775114" lon="-0.2774278"><ele>363.0</ele><time>2026-04-05T09:52:14.016Z</time></trkpt><trkpt lat="38.5775161" lon="-0.2772265"><ele>362.25</ele><time>2026-04-05T09:52:15.017Z</time></trkpt><trkpt lat="38.5775068" lon="-0.2770438"><ele>361.5</ele><time>2026-04-05T09:52:16.017Z</time></trkpt><trkpt lat="38.5774997" lon="-0.276864"><ele>360.75</ele><time>2026-04-05T09:52:17.017Z</time></trkpt><trkpt lat="38.5775108" lon="-0.2766782"><ele>360.0</ele><time>2026-04-05T09:52:18.017Z</time></trkpt><trkpt lat="38.5775327" lon="-0.276491"><ele>359.5</ele><time>2026-04-05T09:52:19.017Z</time></trkpt><trkpt lat="38.5775571" lon="-0.2763007"><ele>359.0</ele><time>2026-04-05T09:52:20.016Z</time></trkpt><trkpt lat="38.5775735" lon="-0.2761151"><ele>358.5</ele><time>2026-04-05T09:52:21.017Z</time></trkpt><trkpt lat="38.5775979" lon="-0.2759377"><ele>358.0</ele><time>2026-04-05T09:52:22.016Z</time></trkpt><trkpt lat="38.5776114" lon="-0.2757594"><ele>356.0</ele><time>2026-04-05T09:52:23.016Z</time></trkpt><trkpt lat="38.5776363" lon="-0.2755884"><ele>354.0</ele><time>2026-04-05T09:52:24.017Z</time></trkpt><trkpt lat="38.5776659" lon="-0.275423"><ele>352.0</ele><time>2026-04-05T09:52:25.017Z</time></trkpt><trkpt lat="38.5777006" lon="-0.2752621"><ele>350.0</ele><time>2026-04-05T09:52:26.016Z</time></trkpt><trkpt lat="38.5777373" lon="-0.2751049"><ele>350.0</ele><time>2026-04-05T09:52:27.017Z</time></trkpt><trkpt lat="38.5777753" lon="-0.2749504"><ele>350.0</ele><time>2026-04-05T09:52:28.017Z</time></trkpt><trkpt lat="38.5778055" lon="-0.2748079"><ele>350.0</ele><time>2026-04-05T09:52:29.017Z</time></trkpt><trkpt lat="38.5778269" lon="-0.2746828"><ele>350.0</ele><time>2026-04-05T09:52:30.016Z</time></trkpt><trkpt lat="38.5778222" lon="-0.2745632"><ele>350.0</ele><time>2026-04-05T09:52:31.016Z</time></trkpt><trkpt lat="38.5777847" lon="-0.2744536"><ele>346.25</ele><time>2026-04-05T09:52:32.016Z</time></trkpt><trkpt lat="38.57772" lon="-0.2743497"><ele>342.5</ele><time>2026-04-05T09:52:33.017Z</time></trkpt><trkpt lat="38.5776342" lon="-0.2742533"><ele>338.75</ele><time>2026-04-05T09:52:34.016Z</time></trkpt><trkpt lat="38.5775378" lon="-0.2741518"><ele>335.0</ele><time>2026-04-05T09:52:35.016Z</time></trkpt><trkpt lat="38.5774614" lon="-0.2740383"><ele>332.5</ele><time>2026-04-05T09:52:36.016Z</time></trkpt><trkpt lat="38.5773777" lon="-0.2738978"><ele>330.0</ele><time>2026-04-05T09:52:37.016Z</time></trkpt><trkpt lat="38.577301" lon="-0.2737854"><ele>327.5</ele><time>2026-04-05T09:52:38.016Z</time></trkpt><trkpt lat="38.5772369" lon="-0.2736804"><ele>325.0</ele><time>2026-04-05T09:52:39.017Z</time></trkpt><trkpt lat="38.5771709" lon="-0.2735531"><ele>325.0</ele><time>2026-04-05T09:52:40.017Z</time></trkpt><trkpt lat="38.5771216" lon="-0.2734123"><ele>325.0</ele><time>2026-04-05T09:52:41.017Z</time></trkpt><trkpt lat="38.5770882" lon="-0.2732685"><ele>325.0</ele><time>2026-04-05T09:52:42.017Z</time></trkpt><trkpt lat="38.5770569" lon="-0.2731068"><ele>325.0</ele><time>2026-04-05T09:52:43.016Z</time></trkpt><trkpt lat="38.577027" lon="-0.2729337"><ele>324.75</ele><time>2026-04-05T09:52:44.017Z</time></trkpt><trkpt lat="38.5770018" lon="-0.2727585"><ele>324.5</ele><time>2026-04-05T09:52:45.016Z</time></trkpt><trkpt lat="38.5769976" lon="-0.2725837"><ele>324.25</ele><time>2026-04-05T09:52:46.017Z</time></trkpt><trkpt lat="38.577019" lon="-0.2724179"><ele>324.0</ele><time>2026-04-05T09:52:47.017Z</time></trkpt><trkpt lat="38.5770881" lon="-0.2722734"><ele>325.25</ele><time>2026-04-05T09:52:48.017Z</time></trkpt><trkpt lat="38.5771641" lon="-0.27213"><ele>326.5</ele><time>2026-04-05T09:52:49.017Z</time></trkpt><trkpt lat="38.5772425" lon="-0.2719893"><ele>327.75</ele><time>2026-04-05T09:52:50.017Z</time></trkpt><trkpt lat="38.5773335" lon="-0.2718342"><ele>329.0</ele><time>2026-04-05T09:52:51.016Z</time></trkpt><trkpt lat="38.5774243" lon="-0.2716769"><ele>329.0</ele><time>2026-04-05T09:52:52.016Z</time></trkpt><trkpt lat="38.5775176" lon="-0.271529"><ele>329.0</ele><time>2026-04-05T09:52:53.016Z</time></trkpt><trkpt lat="38.5776132" lon="-0.2713878"><ele>329.0</ele><time>2026-04-05T09:52:54.016Z</time></trkpt><trkpt lat="38.5777245" lon="-0.2712592"><ele>329.0</ele><time>2026-04-05T09:52:55.017Z</time></trkpt><trkpt lat="38.5778635" lon="-0.2711474"><ele>326.5</ele><time>2026-04-05T09:52:56.017Z</time></trkpt><trkpt lat="38.5779992" lon="-0.2710333"><ele>324.0</ele><time>2026-04-05T09:52:57.016Z</time></trkpt><trkpt lat="38.578099" lon="-0.270952"><ele>321.5</ele><time>2026-04-05T09:52:58.016Z</time></trkpt><trkpt lat="38.5782134" lon="-0.2708615"><ele>319.0</ele><time>2026-04-05T09:52:59.016Z</time></trkpt><trkpt lat="38.5783327" lon="-0.2707648"><ele>319.0</ele><time>2026-04-05T09:53:00.016Z</time></trkpt><trkpt lat="38.5784592" lon="-0.2706703"><ele>319.0</ele><time>2026-04-05T09:53:01.016Z</time></trkpt><trkpt lat="38.5785872" lon="-0.2705724"><ele>319.0</ele><time>2026-04-05T09:53:02.017Z</time></trkpt><trkpt lat="38.5787175" lon="-0.2704747"><ele>319.0</ele><time>2026-04-05T09:53:03.017Z</time></trkpt><trkpt lat="38.5788504" lon="-0.2703758"><ele>317.5</ele><time>2026-04-05T09:53:04.017Z</time></trkpt><trkpt lat="38.5789649" lon="-0.2702816"><ele>316.0</ele><time>2026-04-05T09:53:05.017Z</time></trkpt><trkpt lat="38.5790679" lon="-0.2701892"><ele>314.5</ele><time>2026-04-05T09:53:06.016Z</time></trkpt><trkpt lat="38.5791785" lon="-0.2701052"><ele>313.0</ele><time>2026-04-05T09:53:07.016Z</time></trkpt><trkpt lat="38.5792569" lon="-0.2700632"><ele>313.0</ele><time>2026-04-05T09:53:08.016Z</time></trkpt><trkpt lat="38.5793492" lon="-0.2700434"><ele>313.0</ele><time>2026-04-05T09:53:09.016Z</time></trkpt><trkpt lat="38.5794329" lon="-0.2700624"><ele>313.0</ele><time>2026-04-05T09:53:10.017Z</time></trkpt><trkpt lat="38.579519" lon="-0.2701159"><ele>313.0</ele><time>2026-04-05T09:53:11.016Z</time></trkpt><trkpt lat="38.5796033" lon="-0.2701931"><ele>313.0</ele><time>2026-04-05T09:53:12.016Z</time></trkpt><trkpt lat="38.5796825" lon="-0.2702782"><ele>314.0</ele><time>2026-04-05T09:53:13.016Z</time></trkpt><trkpt lat="38.5797667" lon="-0.2703689"><ele>315.0</ele><time>2026-04-05T09:53:14.017Z</time></trkpt><trkpt lat="38.5798474" lon="-0.2704563"><ele>316.0</ele><time>2026-04-05T09:53:15.017Z</time></trkpt><trkpt lat="38.5799345" lon="-0.2705306"><ele>317.0</ele><time>2026-04-05T09:53:16.016Z</time></trkpt><trkpt lat="38.5800267" lon="-0.270583"><ele>318.0</ele><time>2026-04-05T09:53:17.016Z</time></trkpt><trkpt lat="38.5801328" lon="-0.2705591"><ele>318.0</ele><time>2026-04-05T09:53:18.016Z</time></trkpt><trkpt lat="38.5802447" lon="-0.270499"><ele>318.0</ele><time>2026-04-05T09:53:19.016Z</time></trkpt><trkpt lat="38.5803435" lon="-0.2704032"><ele>318.0</ele><time>2026-04-05T09:53:20.017Z</time></trkpt><trkpt lat="38.5804448" lon="-0.2702886"><ele>318.0</ele><time>2026-04-05T09:53:21.016Z</time></trkpt><trkpt lat="38.5805412" lon="-0.2701857"><ele>318.0</ele><time>2026-04-05T09:53:22.017Z</time></trkpt><trkpt lat="38.5806478" lon="-0.2701017"><ele>318.0</ele><time>2026-04-05T09:53:23.017Z</time></trkpt><trkpt lat="38.5807548" lon="-0.2700627"><ele>318.0</ele><time>2026-04-05T09:53:24.016Z</time></trkpt><trkpt lat="38.580902" lon="-0.2700922"><ele>318.0</ele><time>2026-04-05T09:53:25.016Z</time></trkpt><trkpt lat="38.5810471" lon="-0.2700682"><ele>318.0</ele><time>2026-04-05T09:53:26.016Z</time></trkpt><trkpt lat="38.5811879" lon="-0.269983"><ele>318.0</ele><time>2026-04-05T09:53:27.016Z</time></trkpt><trkpt lat="38.5813198" lon="-0.2698858"><ele>318.0</ele><time>2026-04-05T09:53:28.016Z</time></trkpt><trkpt lat="38.5814573" lon="-0.2697908"><ele>309.25</ele><time>2026-04-05T09:53:29.017Z</time></trkpt><trkpt lat="38.5815765" lon="-0.2697558"><ele>300.5</ele><time>2026-04-05T09:53:30.016Z</time></trkpt><trkpt lat="38.5817013" lon="-0.2696826"><ele>291.75</ele><time>2026-04-05T09:53:31.016Z</time></trkpt><trkpt lat="38.5818154" lon="-0.2696014"><ele>283.0</ele><time>2026-04-05T09:53:32.016Z</time></trkpt><trkpt lat="38.581883" lon="-0.2695121"><ele>283.0</ele><time>2026-04-05T09:53:33.016Z</time></trkpt><trkpt lat="38.581944" lon="-0.2694126"><ele>283.0</ele><time>2026-04-05T09:53:34.017Z</time></trkpt><trkpt lat="38.5819976" lon="-0.2692985"><ele>283.0</ele><time>2026-04-05T09:53:35.017Z</time></trkpt><trkpt lat="38.5820445" lon="-0.2691804"><ele>283.0</ele><time>2026-04-05T09:53:36.016Z</time></trkpt><trkpt lat="38.5820846" lon="-0.2690599"><ele>283.0</ele><time>2026-04-05T09:53:37.016Z</time></trkpt><trkpt lat="38.5821196" lon="-0.268941"><ele>286.2</ele><time>2026-04-05T09:53:38.017Z</time></trkpt><trkpt lat="38.5821553" lon="-0.2688299"><ele>289.4</ele><time>2026-04-05T09:53:39.017Z</time></trkpt><trkpt lat="38.5822217" lon="-0.2687054"><ele>292.59999999999997</ele><time>2026-04-05T09:53:40.016Z</time></trkpt><trkpt lat="38.5822912" lon="-0.2686131"><ele>295.8</ele><time>2026-04-05T09:53:41.016Z</time></trkpt><trkpt lat="38.5823713" lon="-0.2685339"><ele>299.0</ele><time>2026-04-05T09:53:42.017Z</time></trkpt><trkpt lat="38.5824608" lon="-0.2684478"><ele>299.0</ele><time>2026-04-05T09:53:43.016Z</time></trkpt><trkpt lat="38.5825355" lon="-0.2683531"><ele>299.0</ele><time>2026-04-05T09:53:44.016Z</time></trkpt><trkpt lat="38.5825893" lon="-0.2682361"><ele>299.0</ele><time>2026-04-05T09:53:45.016Z</time></trkpt><trkpt lat="38.5826264" lon="-0.2681086"><ele>299.0</ele><time>2026-04-05T09:53:46.016Z</time></trkpt><trkpt lat="38.582659" lon="-0.2679897"><ele>299.0</ele><time>2026-04-05T09:53:47.017Z</time></trkpt><trkpt lat="38.5827015" lon="-0.2678787"><ele>297.75</ele><time>2026-04-05T09:53:48.017Z</time></trkpt><trkpt lat="38.5827812" lon="-0.2677974"><ele>296.5</ele><time>2026-04-05T09:53:49.016Z</time></trkpt><trkpt lat="38.582896" lon="-0.2677507"><ele>295.25</ele><time>2026-04-05T09:53:50.016Z</time></trkpt><trkpt lat="38.5830046" lon="-0.2677241"><ele>294.0</ele><time>2026-04-05T09:53:51.016Z</time></trkpt><trkpt lat="38.5831206" lon="-0.2677444"><ele>294.0</ele><time>2026-04-05T09:53:52.016Z</time></trkpt><trkpt lat="38.5832272" lon="-0.2677218"><ele>294.0</ele><time>2026-04-05T09:53:53.016Z</time></trkpt><trkpt lat="38.5833183" lon="-0.2676556"><ele>294.0</ele><time>2026-04-05T09:53:54.017Z</time></trkpt><trkpt lat="38.5833816" lon="-0.2675453"><ele>294.0</ele><time>2026-04-05T09:53:55.017Z</time></trkpt><trkpt lat="38.5834426" lon="-0.2674321"><ele>294.0</ele><time>2026-04-05T09:53:56.017Z</time></trkpt><trkpt lat="38.5835189" lon="-0.2673388"><ele>292.59999999999997</ele><time>2026-04-05T09:53:57.017Z</time></trkpt><trkpt lat="38.5836078" lon="-0.2672728"><ele>291.2</ele><time>2026-04-05T09:53:58.016Z</time></trkpt><trkpt lat="38.5837011" lon="-0.2672362"><ele>289.79999999999995</ele><time>2026-04-05T09:53:59.017Z</time></trkpt><trkpt lat="38.5837965" lon="-0.2672057"><ele>288.4</ele><time>2026-04-05T09:54:00.016Z</time></trkpt><trkpt lat="38.5838941" lon="-0.2671814"><ele>287.0</ele><time>2026-04-05T09:54:01.016Z</time></trkpt><trkpt lat="38.5839905" lon="-0.2671449"><ele>287.0</ele><time>2026-04-05T09:54:02.017Z</time></trkpt><trkpt lat="38.5840787" lon="-0.2671012"><ele>287.0</ele><time>2026-04-05T09:54:03.017Z</time></trkpt><trkpt lat="38.5841654" lon="-0.2670475"><ele>287.0</ele><time>2026-04-05T09:54:04.016Z</time></trkpt><trkpt lat="38.5842467" lon="-0.2669766"><ele>287.0</ele><time>2026-04-05T09:54:05.017Z</time></trkpt><trkpt lat="38.5843148" lon="-0.2668973"><ele>287.0</ele><time>2026-04-05T09:54:06.017Z</time></trkpt><trkpt lat="38.5843833" lon="-0.266806"><ele>287.0</ele><time>2026-04-05T09:54:07.016Z</time></trkpt><trkpt lat="38.5844463" lon="-0.2667008"><ele>287.0</ele><time>2026-04-05T09:54:08.017Z</time></trkpt><trkpt lat="38.5844933" lon="-0.2665886"><ele>287.0</ele><time>2026-04-05T09:54:09.017Z</time></trkpt><trkpt lat="38.5845294" lon="-0.2664623"><ele>287.0</ele><time>2026-04-05T09:54:10.017Z</time></trkpt><trkpt lat="38.5845619" lon="-0.2663354"><ele>287.0</ele><time>2026-04-05T09:54:11.017Z</time></trkpt><trkpt lat="38.5845984" lon="-0.2662161"><ele>285.83333333333337</ele><time>2026-04-05T09:54:12.017Z</time></trkpt><trkpt lat="38.5846447" lon="-0.266111"><ele>284.6666666666667</ele><time>2026-04-05T09:54:13.017Z</time></trkpt><trkpt lat="38.5847004" lon="-0.2660208"><ele>283.5</ele><time>2026-04-05T09:54:14.017Z</time></trkpt><trkpt lat="38.5847621" lon="-0.2659449"><ele>282.3333333333333</ele><time>2026-04-05T09:54:15.016Z</time></trkpt><trkpt lat="38.5848378" lon="-0.2658897"><ele>281.16666666666663</ele><time>2026-04-05T09:54:16.017Z</time></trkpt><trkpt lat="38.5849249" lon="-0.2658627"><ele>280.0</ele><time>2026-04-05T09:54:17.017Z</time></trkpt><trkpt lat="38.5850219" lon="-0.2658586"><ele>280.0</ele><time>2026-04-05T09:54:18.017Z</time></trkpt><trkpt lat="38.5851137" lon="-0.2658582"><ele>280.0</ele><time>2026-04-05T09:54:19.017Z</time></trkpt><trkpt lat="38.5852127" lon="-0.2658478"><ele>280.0</ele><time>2026-04-05T09:54:20.016Z</time></trkpt><trkpt lat="38.585312" lon="-0.2658436"><ele>280.0</ele><time>2026-04-05T09:54:21.017Z</time></trkpt><trkpt lat="38.585413" lon="-0.2658594"><ele>280.0</ele><time>2026-04-05T09:54:22.017Z</time></trkpt><trkpt lat="38.5855125" lon="-0.2658998"><ele>278.2</ele><time>2026-04-05T09:54:23.017Z</time></trkpt><trkpt lat="38.5856068" lon="-0.2659701"><ele>276.4</ele><time>2026-04-05T09:54:24.016Z</time></trkpt><trkpt lat="38.585695" lon="-0.2660415"><ele>274.6</ele><time>2026-04-05T09:54:25.016Z</time></trkpt><trkpt lat="38.5857791" lon="-0.2661012"><ele>272.8</ele><time>2026-04-05T09:54:26.017Z</time></trkpt><trkpt lat="38.5858682" lon="-0.2661442"><ele>271.0</ele><time>2026-04-05T09:54:27.016Z</time></trkpt><trkpt lat="38.5859583" lon="-0.2661597"><ele>271.0</ele><time>2026-04-05T09:54:28.017Z</time></trkpt><trkpt lat="38.5860491" lon="-0.2661702"><ele>271.0</ele><time>2026-04-05T09:54:29.016Z</time></trkpt><trkpt lat="38.5861407" lon="-0.2661924"><ele>271.0</ele><time>2026-04-05T09:54:30.017Z</time></trkpt><trkpt lat="38.5862224" lon="-0.2662426"><ele>271.0</ele><time>2026-04-05T09:54:31.016Z</time></trkpt><trkpt lat="38.5862912" lon="-0.2663167"><ele>271.0</ele><time>2026-04-05T09:54:32.017Z</time></trkpt><trkpt lat="38.5863451" lon="-0.2664036"><ele>272.5</ele><time>2026-04-05T09:54:33.016Z</time></trkpt><trkpt lat="38.5863886" lon="-0.2664981"><ele>274.0</ele><time>2026-04-05T09:54:34.016Z</time></trkpt><trkpt lat="38.5864356" lon="-0.2665849"><ele>275.5</ele><time>2026-04-05T09:54:35.017Z</time></trkpt><trkpt lat="38.5864909" lon="-0.2666497"><ele>277.0</ele><time>2026-04-05T09:54:36.016Z</time></trkpt><trkpt lat="38.5865506" lon="-0.2666893"><ele>278.5</ele><time>2026-04-05T09:54:37.016Z</time></trkpt><trkpt lat="38.5866154" lon="-0.2667128"><ele>280.0</ele><time>2026-04-05T09:54:38.017Z</time></trkpt><trkpt lat="38.5867113" lon="-0.2666787"><ele>280.0</ele><time>2026-04-05T09:54:40.017Z</time></trkpt><trkpt lat="38.5867723" lon="-0.2666219"><ele>280.0</ele><time>2026-04-05T09:54:42.016Z</time></trkpt><trkpt lat="38.5868246" lon="-0.2665581"><ele>280.0</ele><time>2026-04-05T09:55:04.016Z</time></trkpt><trkpt lat="38.5868914" lon="-0.266545"><ele>280.0</ele><time>2026-04-05T09:55:06.016Z</time></trkpt><trkpt lat="38.58697" lon="-0.2665724"><ele>280.0</ele><time>2026-04-05T09:55:08.016Z</time></trkpt><trkpt lat="38.5870362" lon="-0.2665948"><ele>280.0</ele><time>2026-04-05T09:55:11.016Z</time></trkpt><trkpt lat="38.5871295" lon="-0.2666904"><ele>276.8</ele><time>2026-04-05T09:55:44.017Z</time></trkpt><trkpt lat="38.587204" lon="-0.2667511"><ele>273.6</ele><time>2026-04-05T09:55:45.016Z</time></trkpt><trkpt lat="38.587305" lon="-0.266828"><ele>270.4</ele><time>2026-04-05T09:55:46.017Z</time></trkpt><trkpt lat="38.5874137" lon="-0.2669118"><ele>267.2</ele><time>2026-04-05T09:55:47.017Z</time></trkpt><trkpt lat="38.5875132" lon="-0.2669782"><ele>264.0</ele><time>2026-04-05T09:55:48.016Z</time></trkpt><trkpt lat="38.587607" lon="-0.2670307"><ele>264.0</ele><time>2026-04-05T09:55:49.016Z</time></trkpt><trkpt lat="38.5876888" lon="-0.267073"><ele>264.0</ele><time>2026-04-05T09:55:50.016Z</time></trkpt><trkpt lat="38.5877801" lon="-0.2671181"><ele>264.0</ele><time>2026-04-05T09:55:51.017Z</time></trkpt><trkpt lat="38.5878768" lon="-0.2671653"><ele>264.0</ele><time>2026-04-05T09:55:52.016Z</time></trkpt><trkpt lat="38.587983" lon="-0.2672151"><ele>264.0</ele><time>2026-04-05T09:55:53.017Z</time></trkpt><trkpt lat="38.5881037" lon="-0.2672745"><ele>268.0</ele><time>2026-04-05T09:55:54.017Z</time></trkpt><trkpt lat="38.5882268" lon="-0.2673313"><ele>272.0</ele><time>2026-04-05T09:55:55.016Z</time></trkpt><trkpt lat="38.5883499" lon="-0.2673903"><ele>276.0</ele><time>2026-04-05T09:55:56.016Z</time></trkpt><trkpt lat="38.5884704" lon="-0.2674572"><ele>280.0</ele><time>2026-04-05T09:55:57.017Z</time></trkpt><trkpt lat="38.5885934" lon="-0.2675268"><ele>276.3333333333333</ele><time>2026-04-05T09:55:58.016Z</time></trkpt><trkpt lat="38.5887209" lon="-0.2675996"><ele>272.6666666666667</ele><time>2026-04-05T09:55:59.016Z</time></trkpt><trkpt lat="38.5888602" lon="-0.2676932"><ele>269.0</ele><time>2026-04-05T09:56:00.017Z</time></trkpt><trkpt lat="38.5890158" lon="-0.2678155"><ele>269.0</ele><time>2026-04-05T09:56:01.016Z</time></trkpt><trkpt lat="38.5891914" lon="-0.2679408"><ele>269.0</ele><time>2026-04-05T09:56:02.017Z</time></trkpt><trkpt lat="38.589391" lon="-0.2680892"><ele>269.0</ele><time>2026-04-05T09:56:03.016Z</time></trkpt><trkpt lat="38.5895555" lon="-0.2682233"><ele>270.0</ele><time>2026-04-05T09:56:04.016Z</time></trkpt><trkpt lat="38.5896986" lon="-0.2683518"><ele>271.0</ele><time>2026-04-05T09:56:05.017Z</time></trkpt><trkpt lat="38.5898369" lon="-0.2684852"><ele>272.0</ele><time>2026-04-05T09:56:06.017Z</time></trkpt><trkpt lat="38.5899748" lon="-0.2686263"><ele>272.0</ele><time>2026-04-05T09:56:07.016Z</time></trkpt><trkpt lat="38.5901069" lon="-0.2687755"><ele>272.0</ele><time>2026-04-05T09:56:08.016Z</time></trkpt><trkpt lat="38.5902458" lon="-0.2689302"><ele>272.0</ele><time>2026-04-05T09:56:09.017Z</time></trkpt><trkpt lat="38.5903669" lon="-0.2690759"><ele>273.33333333333337</ele><time>2026-04-05T09:56:10.016Z</time></trkpt><trkpt lat="38.5904785" lon="-0.2692175"><ele>274.6666666666667</ele><time>2026-04-05T09:56:11.017Z</time></trkpt><trkpt lat="38.5906007" lon="-0.2693742"><ele>276.0</ele><time>2026-04-05T09:56:12.016Z</time></trkpt><trkpt lat="38.5907214" lon="-0.2695725"><ele>278.6666666666667</ele><time>2026-04-05T09:56:13.016Z</time></trkpt><trkpt lat="38.5908287" lon="-0.2698142"><ele>281.33333333333337</ele><time>2026-04-05T09:56:14.017Z</time></trkpt><trkpt lat="38.5909371" lon="-0.2700642"><ele>284.0</ele><time>2026-04-05T09:56:15.016Z</time></trkpt><trkpt lat="38.5910449" lon="-0.2703183"><ele>284.0</ele><time>2026-04-05T09:56:16.017Z</time></trkpt><trkpt lat="38.5911504" lon="-0.2705568"><ele>284.0</ele><time>2026-04-05T09:56:17.016Z</time></trkpt><trkpt lat="38.5912557" lon="-0.270797"><ele>284.0</ele><time>2026-04-05T09:56:18.016Z</time></trkpt><trkpt lat="38.5913619" lon="-0.2710403"><ele>282.6666666666667</ele><time>2026-04-05T09:56:19.016Z</time></trkpt><trkpt lat="38.5914638" lon="-0.2712799"><ele>281.3333333333333</ele><time>2026-04-05T09:56:20.016Z</time></trkpt><trkpt lat="38.5915592" lon="-0.2715282"><ele>280.0</ele><time>2026-04-05T09:56:21.016Z</time></trkpt><trkpt lat="38.5916394" lon="-0.2717969"><ele>284.0</ele><time>2026-04-05T09:56:22.016Z</time></trkpt><trkpt lat="38.5917085" lon="-0.2720697"><ele>288.0</ele><time>2026-04-05T09:56:23.017Z</time></trkpt><trkpt lat="38.5917612" lon="-0.2723383"><ele>292.0</ele><time>2026-04-05T09:56:24.017Z</time></trkpt><trkpt lat="38.5918109" lon="-0.27259"><ele>291.66666666666663</ele><time>2026-04-05T09:56:25.017Z</time></trkpt><trkpt lat="38.5918657" lon="-0.2728164"><ele>291.3333333333333</ele><time>2026-04-05T09:56:26.016Z</time></trkpt><trkpt lat="38.5919454" lon="-0.2730314"><ele>291.0</ele><time>2026-04-05T09:56:27.016Z</time></trkpt><trkpt lat="38.5920383" lon="-0.2732405"><ele>291.0</ele><time>2026-04-05T09:56:28.017Z</time></trkpt><trkpt lat="38.5921562" lon="-0.2734211"><ele>291.0</ele><time>2026-04-05T09:56:29.017Z</time></trkpt><trkpt lat="38.592295" lon="-0.273573"><ele>291.0</ele><time>2026-04-05T09:56:30.016Z</time></trkpt><trkpt lat="38.592452" lon="-0.2736964"><ele>291.0</ele><time>2026-04-05T09:56:31.016Z</time></trkpt><trkpt lat="38.5926206" lon="-0.2737937"><ele>291.0</ele><time>2026-04-05T09:56:32.016Z</time></trkpt><trkpt lat="38.5928073" lon="-0.2738529"><ele>291.0</ele><time>2026-04-05T09:56:33.016Z</time></trkpt><trkpt lat="38.5929956" lon="-0.2738874"><ele>292.6666666666667</ele><time>2026-04-05T09:56:34.016Z</time></trkpt><trkpt lat="38.5931835" lon="-0.2739113"><ele>294.33333333333337</ele><time>2026-04-05T09:56:35.016Z</time></trkpt><trkpt lat="38.5934292" lon="-0.2739232"><ele>296.0</ele><time>2026-04-05T09:56:36.016Z</time></trkpt><trkpt lat="38.5936824" lon="-0.2739439"><ele>303.0</ele><time>2026-04-05T09:56:37.016Z</time></trkpt><trkpt lat="38.5939378" lon="-0.2739797"><ele>310.0</ele><time>2026-04-05T09:56:38.016Z</time></trkpt><trkpt lat="38.5941934" lon="-0.2740223"><ele>310.0</ele><time>2026-04-05T09:56:39.016Z</time></trkpt><trkpt lat="38.594437" lon="-0.274082"><ele>310.0</ele><time>2026-04-05T09:56:40.016Z</time></trkpt><trkpt lat="38.5946936" lon="-0.2741389"><ele>314.66666666666663</ele><time>2026-04-05T09:56:41.016Z</time></trkpt><trkpt lat="38.5949096" lon="-0.2742064"><ele>319.3333333333333</ele><time>2026-04-05T09:56:42.016Z</time></trkpt><trkpt lat="38.5950213" lon="-0.2742228"><ele>324.0</ele><time>2026-04-05T09:56:43.017Z</time></trkpt><trkpt lat="38.5951735" lon="-0.2742717"><ele>324.0</ele><time>2026-04-05T09:56:44.016Z</time></trkpt><trkpt lat="38.5953213" lon="-0.2742975"><ele>324.0</ele><time>2026-04-05T09:56:45.016Z</time></trkpt><trkpt lat="38.5954699" lon="-0.2742728"><ele>324.0</ele><time>2026-04-05T09:56:46.016Z</time></trkpt><trkpt lat="38.5956164" lon="-0.2742073"><ele>326.3333333333333</ele><time>2026-04-05T09:56:47.017Z</time></trkpt><trkpt lat="38.5957444" lon="-0.2741221"><ele>328.66666666666663</ele><time>2026-04-05T09:56:48.016Z</time></trkpt><trkpt lat="38.5958725" lon="-0.2740233"><ele>331.0</ele><time>2026-04-05T09:56:49.016Z</time></trkpt><trkpt lat="38.5960175" lon="-0.2739114"><ele>331.3333333333333</ele><time>2026-04-05T09:56:50.017Z</time></trkpt><trkpt lat="38.59618" lon="-0.2737858"><ele>331.6666666666667</ele><time>2026-04-05T09:56:51.016Z</time></trkpt><trkpt lat="38.5963495" lon="-0.2736511"><ele>332.0</ele><time>2026-04-05T09:56:52.017Z</time></trkpt><trkpt lat="38.5965125" lon="-0.2735211"><ele>332.0</ele><time>2026-04-05T09:56:53.016Z</time></trkpt><trkpt lat="38.5966648" lon="-0.273399"><ele>332.0</ele><time>2026-04-05T09:56:54.017Z</time></trkpt><trkpt lat="38.5967887" lon="-0.2732787"><ele>332.0</ele><time>2026-04-05T09:56:55.017Z</time></trkpt><trkpt lat="38.5969059" lon="-0.2731331"><ele>331.0</ele><time>2026-04-05T09:56:56.016Z</time></trkpt><trkpt lat="38.5969858" lon="-0.2729745"><ele>330.0</ele><time>2026-04-05T09:56:57.017Z</time></trkpt><trkpt lat="38.5970473" lon="-0.2728198"><ele>329.0</ele><time>2026-04-05T09:56:58.017Z</time></trkpt><trkpt lat="38.5970971" lon="-0.2726662"><ele>328.0</ele><time>2026-04-05T09:56:59.016Z</time></trkpt><trkpt lat="38.5971452" lon="-0.2725004"><ele>326.75</ele><time>2026-04-05T09:57:00.016Z</time></trkpt><trkpt lat="38.5972005" lon="-0.2723304"><ele>325.5</ele><time>2026-04-05T09:57:01.017Z</time></trkpt><trkpt lat="38.5972536" lon="-0.2721649"><ele>324.25</ele><time>2026-04-05T09:57:02.016Z</time></trkpt><trkpt lat="38.597309" lon="-0.2720227"><ele>323.0</ele><time>2026-04-05T09:57:03.017Z</time></trkpt><trkpt lat="38.5973725" lon="-0.2719172"><ele>323.0</ele><time>2026-04-05T09:57:04.017Z</time></trkpt><trkpt lat="38.5974413" lon="-0.2718456"><ele>323.0</ele><time>2026-04-05T09:57:05.017Z</time></trkpt><trkpt lat="38.5975404" lon="-0.271832"><ele>323.0</ele><time>2026-04-05T09:57:06.017Z</time></trkpt><trkpt lat="38.5976364" lon="-0.2718533"><ele>323.0</ele><time>2026-04-05T09:57:07.017Z</time></trkpt><trkpt lat="38.5977485" lon="-0.2718913"><ele>323.0</ele><time>2026-04-05T09:57:08.016Z</time></trkpt><trkpt lat="38.5978633" lon="-0.2719396"><ele>326.25</ele><time>2026-04-05T09:57:09.017Z</time></trkpt><trkpt lat="38.5979748" lon="-0.2720126"><ele>329.5</ele><time>2026-04-05T09:57:10.016Z</time></trkpt><trkpt lat="38.5980693" lon="-0.2721097"><ele>332.75</ele><time>2026-04-05T09:57:11.017Z</time></trkpt><trkpt lat="38.5981548" lon="-0.2722262"><ele>336.0</ele><time>2026-04-05T09:57:12.016Z</time></trkpt><trkpt lat="38.5982246" lon="-0.2723545"><ele>336.0</ele><time>2026-04-05T09:57:13.016Z</time></trkpt><trkpt lat="38.5982781" lon="-0.272501"><ele>336.0</ele><time>2026-04-05T09:57:14.016Z</time></trkpt><trkpt lat="38.5983292" lon="-0.2726432"><ele>336.0</ele><time>2026-04-05T09:57:15.016Z</time></trkpt><trkpt lat="38.59838" lon="-0.2727841"><ele>336.0</ele><time>2026-04-05T09:57:16.016Z</time></trkpt><trkpt lat="38.5984314" lon="-0.2729057"><ele>336.0</ele><time>2026-04-05T09:57:17.017Z</time></trkpt><trkpt lat="38.5984809" lon="-0.2730158"><ele>336.0</ele><time>2026-04-05T09:57:18.017Z</time></trkpt><trkpt lat="38.598532" lon="-0.2731246"><ele>336.0</ele><time>2026-04-05T09:57:19.017Z</time></trkpt><trkpt lat="38.5985927" lon="-0.2732323"><ele>336.0</ele><time>2026-04-05T09:57:20.017Z</time></trkpt><trkpt lat="38.5986711" lon="-0.2733357"><ele>336.0</ele><time>2026-04-05T09:57:21.017Z</time></trkpt><trkpt lat="38.5987622" lon="-0.273421"><ele>339.75</ele><time>2026-04-05T09:57:22.016Z</time></trkpt><trkpt lat="38.5988928" lon="-0.2734799"><ele>343.5</ele><time>2026-04-05T09:57:23.016Z</time></trkpt><trkpt lat="38.5990278" lon="-0.2735044"><ele>347.25</ele><time>2026-04-05T09:57:24.016Z</time></trkpt><trkpt lat="38.599158" lon="-0.2735043"><ele>351.0</ele><time>2026-04-05T09:57:25.017Z</time></trkpt><trkpt lat="38.5992927" lon="-0.2734653"><ele>351.0</ele><time>2026-04-05T09:57:26.016Z</time></trkpt><trkpt lat="38.5994288" lon="-0.2733882"><ele>351.0</ele><time>2026-04-05T09:57:27.016Z</time></trkpt><trkpt lat="38.599571" lon="-0.2733073"><ele>351.0</ele><time>2026-04-05T09:57:28.017Z</time></trkpt><trkpt lat="38.5997088" lon="-0.2732008"><ele>351.6666666666667</ele><time>2026-04-05T09:57:29.016Z</time></trkpt><trkpt lat="38.5998505" lon="-0.2730917"><ele>352.33333333333337</ele><time>2026-04-05T09:57:30.017Z</time></trkpt><trkpt lat="38.599982" lon="-0.2729568"><ele>353.0</ele><time>2026-04-05T09:57:31.017Z</time></trkpt><trkpt lat="38.6000886" lon="-0.2728038"><ele>353.0</ele><time>2026-04-05T09:57:32.016Z</time></trkpt><trkpt lat="38.6001792" lon="-0.2726423"><ele>353.0</ele><time>2026-04-05T09:57:33.016Z</time></trkpt><trkpt lat="38.600274" lon="-0.2724938"><ele>353.0</ele><time>2026-04-05T09:57:34.017Z</time></trkpt><trkpt lat="38.6003533" lon="-0.2723405"><ele>353.0</ele><time>2026-04-05T09:57:35.016Z</time></trkpt><trkpt lat="38.6004311" lon="-0.272198"><ele>357.0</ele><time>2026-04-05T09:57:36.016Z</time></trkpt><trkpt lat="38.6005084" lon="-0.272038"><ele>361.0</ele><time>2026-04-05T09:57:37.017Z</time></trkpt><trkpt lat="38.6005659" lon="-0.2718582"><ele>365.0</ele><time>2026-04-05T09:57:38.017Z</time></trkpt><trkpt lat="38.6006119" lon="-0.2716862"><ele>369.0</ele><time>2026-04-05T09:57:39.017Z</time></trkpt><trkpt lat="38.6006492" lon="-0.271518"><ele>366.25</ele><time>2026-04-05T09:57:40.016Z</time></trkpt><trkpt lat="38.6006894" lon="-0.2713633"><ele>363.5</ele><time>2026-04-05T09:57:41.016Z</time></trkpt><trkpt lat="38.600731" lon="-0.2712121"><ele>360.75</ele><time>2026-04-05T09:57:42.017Z</time></trkpt><trkpt lat="38.6007631" lon="-0.2710759"><ele>358.0</ele><time>2026-04-05T09:57:43.016Z</time></trkpt><trkpt lat="38.600796" lon="-0.2709438"><ele>358.0</ele><time>2026-04-05T09:57:44.016Z</time></trkpt><trkpt lat="38.6008282" lon="-0.270811"><ele>358.0</ele><time>2026-04-05T09:57:45.017Z</time></trkpt><trkpt lat="38.6008709" lon="-0.2706828"><ele>358.0</ele><time>2026-04-05T09:57:46.016Z</time></trkpt><trkpt lat="38.6009385" lon="-0.2705699"><ele>358.0</ele><time>2026-04-05T09:57:47.016Z</time></trkpt><trkpt lat="38.6010334" lon="-0.2704951"><ele>358.0</ele><time>2026-04-05T09:57:48.016Z</time></trkpt><trkpt lat="38.6011405" lon="-0.27047"><ele>356.25</ele><time>2026-04-05T09:57:49.017Z</time></trkpt><trkpt lat="38.6012488" lon="-0.2705124"><ele>354.5</ele><time>2026-04-05T09:57:50.017Z</time></trkpt><trkpt lat="38.6013435" lon="-0.2705968"><ele>352.75</ele><time>2026-04-05T09:57:51.016Z</time></trkpt><trkpt lat="38.6014182" lon="-0.270719"><ele>351.0</ele><time>2026-04-05T09:57:52.016Z</time></trkpt><trkpt lat="38.6014757" lon="-0.270866"><ele>351.0</ele><time>2026-04-05T09:57:53.016Z</time></trkpt><trkpt lat="38.6015228" lon="-0.2710277"><ele>351.0</ele><time>2026-04-05T09:57:54.016Z</time></trkpt><trkpt lat="38.6015659" lon="-0.2712033"><ele>351.0</ele><time>2026-04-05T09:57:55.016Z</time></trkpt><trkpt lat="38.6016107" lon="-0.271392"><ele>351.0</ele><time>2026-04-05T09:57:56.017Z</time></trkpt><trkpt lat="38.6016579" lon="-0.2715851"><ele>354.5</ele><time>2026-04-05T09:57:57.016Z</time></trkpt><trkpt lat="38.6017019" lon="-0.2717765"><ele>358.0</ele><time>2026-04-05T09:57:58.017Z</time></trkpt><trkpt lat="38.6017435" lon="-0.2719564"><ele>361.5</ele><time>2026-04-05T09:57:59.017Z</time></trkpt><trkpt lat="38.601782" lon="-0.2721287"><ele>365.0</ele><time>2026-04-05T09:58:00.017Z</time></trkpt><trkpt lat="38.6018188" lon="-0.2722853"><ele>368.5</ele><time>2026-04-05T09:58:01.016Z</time></trkpt><trkpt lat="38.6018548" lon="-0.2724263"><ele>372.0</ele><time>2026-04-05T09:58:02.016Z</time></trkpt><trkpt lat="38.6018965" lon="-0.2725541"><ele>375.5</ele><time>2026-04-05T09:58:03.016Z</time></trkpt><trkpt lat="38.6019492" lon="-0.2726834"><ele>379.0</ele><time>2026-04-05T09:58:04.016Z</time></trkpt><trkpt lat="38.6020156" lon="-0.2728133"><ele>376.75</ele><time>2026-04-05T09:58:05.016Z</time></trkpt><trkpt lat="38.6020976" lon="-0.2729483"><ele>374.5</ele><time>2026-04-05T09:58:06.016Z</time></trkpt><trkpt lat="38.6021875" lon="-0.2730834"><ele>372.25</ele><time>2026-04-05T09:58:07.016Z</time></trkpt><trkpt lat="38.6022866" lon="-0.2732019"><ele>370.0</ele><time>2026-04-05T09:58:08.017Z</time></trkpt><trkpt lat="38.6024104" lon="-0.2732854"><ele>370.0</ele><time>2026-04-05T09:58:09.016Z</time></trkpt><trkpt lat="38.602545" lon="-0.273345"><ele>370.0</ele><time>2026-04-05T09:58:10.017Z</time></trkpt><trkpt lat="38.6026694" lon="-0.2734003"><ele>370.0</ele><time>2026-04-05T09:58:11.016Z</time></trkpt><trkpt lat="38.6027945" lon="-0.2734436"><ele>370.0</ele><time>2026-04-05T09:58:12.017Z</time></trkpt><trkpt lat="38.602922" lon="-0.2734728"><ele>369.5</ele><time>2026-04-05T09:58:13.017Z</time></trkpt><trkpt lat="38.6030444" lon="-0.2734756"><ele>369.0</ele><time>2026-04-05T09:58:14.016Z</time></trkpt><trkpt lat="38.6031674" lon="-0.2734435"><ele>368.5</ele><time>2026-04-05T09:58:15.017Z</time></trkpt><trkpt lat="38.6032846" lon="-0.2733827"><ele>368.0</ele><time>2026-04-05T09:58:16.017Z</time></trkpt><trkpt lat="38.6033989" lon="-0.2733047"><ele>368.0</ele><time>2026-04-05T09:58:17.017Z</time></trkpt><trkpt lat="38.6035101" lon="-0.2732201"><ele>368.0</ele><time>2026-04-05T09:58:18.017Z</time></trkpt><trkpt lat="38.6036238" lon="-0.2731434"><ele>368.0</ele><time>2026-04-05T09:58:19.017Z</time></trkpt><trkpt lat="38.6037414" lon="-0.2730664"><ele>368.0</ele><time>2026-04-05T09:58:20.017Z</time></trkpt><trkpt lat="38.6038594" lon="-0.2729936"><ele>367.5</ele><time>2026-04-05T09:58:21.017Z</time></trkpt><trkpt lat="38.6039874" lon="-0.272917"><ele>367.0</ele><time>2026-04-05T09:58:22.016Z</time></trkpt><trkpt lat="38.6041215" lon="-0.2728442"><ele>366.5</ele><time>2026-04-05T09:58:23.016Z</time></trkpt><trkpt lat="38.6042567" lon="-0.2727784"><ele>366.0</ele><time>2026-04-05T09:58:24.017Z</time></trkpt><trkpt lat="38.6043923" lon="-0.2727181"><ele>366.75</ele><time>2026-04-05T09:58:25.016Z</time></trkpt><trkpt lat="38.604516" lon="-0.2726689"><ele>367.5</ele><time>2026-04-05T09:58:26.017Z</time></trkpt><trkpt lat="38.6046341" lon="-0.2726349"><ele>368.25</ele><time>2026-04-05T09:58:27.017Z</time></trkpt><trkpt lat="38.6047474" lon="-0.2726149"><ele>369.0</ele><time>2026-04-05T09:58:28.017Z</time></trkpt><trkpt lat="38.6048594" lon="-0.2726038"><ele>369.0</ele><time>2026-04-05T09:58:29.017Z</time></trkpt><trkpt lat="38.6049656" lon="-0.2726088"><ele>369.0</ele><time>2026-04-05T09:58:30.017Z</time></trkpt><trkpt lat="38.6050666" lon="-0.2726307"><ele>369.0</ele><time>2026-04-05T09:58:31.016Z</time></trkpt><trkpt lat="38.6051635" lon="-0.2726649"><ele>369.0</ele><time>2026-04-05T09:58:32.017Z</time></trkpt><trkpt lat="38.6052596" lon="-0.2727135"><ele>369.0</ele><time>2026-04-05T09:58:33.017Z</time></trkpt><trkpt lat="38.6053548" lon="-0.2727721"><ele>368.6</ele><time>2026-04-05T09:58:34.016Z</time></trkpt><trkpt lat="38.6054447" lon="-0.2728378"><ele>368.2</ele><time>2026-04-05T09:58:35.017Z</time></trkpt><trkpt lat="38.6055243" lon="-0.2729094"><ele>367.8</ele><time>2026-04-05T09:58:36.016Z</time></trkpt><trkpt lat="38.6055999" lon="-0.2729785"><ele>367.40000000000003</ele><time>2026-04-05T09:58:37.017Z</time></trkpt><trkpt lat="38.6056712" lon="-0.2730454"><ele>367.0</ele><time>2026-04-05T09:58:38.017Z</time></trkpt><trkpt lat="38.6057414" lon="-0.2731069"><ele>368.66666666666663</ele><time>2026-04-05T09:58:39.016Z</time></trkpt><trkpt lat="38.6058077" lon="-0.2731534"><ele>370.3333333333333</ele><time>2026-04-05T09:58:40.017Z</time></trkpt><trkpt lat="38.6058736" lon="-0.2731974"><ele>372.0</ele><time>2026-04-05T09:58:41.016Z</time></trkpt><trkpt lat="38.6059379" lon="-0.2732464"><ele>373.6666666666667</ele><time>2026-04-05T09:58:42.017Z</time></trkpt><trkpt lat="38.60601" lon="-0.2732923"><ele>375.33333333333337</ele><time>2026-04-05T09:58:43.016Z</time></trkpt><trkpt lat="38.6060824" lon="-0.2733375"><ele>377.0</ele><time>2026-04-05T09:58:44.016Z</time></trkpt><trkpt lat="38.6061566" lon="-0.2733779"><ele>376.1666666666667</ele><time>2026-04-05T09:58:45.016Z</time></trkpt><trkpt lat="38.6062313" lon="-0.2734183"><ele>375.33333333333337</ele><time>2026-04-05T09:58:46.017Z</time></trkpt><trkpt lat="38.6063063" lon="-0.2734584"><ele>374.5</ele><time>2026-04-05T09:58:47.016Z</time></trkpt><trkpt lat="38.6063788" lon="-0.273488"><ele>373.6666666666667</ele><time>2026-04-05T09:58:48.017Z</time></trkpt><trkpt lat="38.6064543" lon="-0.2735225"><ele>372.8333333333333</ele><time>2026-04-05T09:58:50.017Z</time></trkpt><trkpt lat="38.6065219" lon="-0.2735506"><ele>372.0</ele><time>2026-04-05T09:58:55.016Z</time></trkpt><trkpt lat="38.6066217" lon="-0.2735667"><ele>372.0</ele><time>2026-04-05T09:59:08.016Z</time></trkpt><trkpt lat="38.606724" lon="-0.2735414"><ele>372.0</ele><time>2026-04-05T09:59:10.016Z</time></trkpt><trkpt lat="38.606818" lon="-0.2734735"><ele>372.0</ele><time>2026-04-05T09:59:12.017Z</time></trkpt><trkpt lat="38.6068812" lon="-0.2734033"><ele>372.0</ele><time>2026-04-05T09:59:14.017Z</time></trkpt><trkpt lat="38.6069374" lon="-0.2733452"><ele>372.0</ele><time>2026-04-05T09:59:16.017Z</time></trkpt><trkpt lat="38.6069864" lon="-0.2732868"><ele>372.0</ele><time>2026-04-05T09:59:18.017Z</time></trkpt><trkpt lat="38.6070336" lon="-0.2732303"><ele>373.8</ele><time>2026-04-05T09:59:21.016Z</time></trkpt><trkpt lat="38.6070849" lon="-0.2731709"><ele>375.6</ele><time>2026-04-05T09:59:23.017Z</time></trkpt><trkpt lat="38.6071528" lon="-0.2730641"><ele>377.40000000000003</ele><time>2026-04-05T09:59:25.017Z</time></trkpt><trkpt lat="38.6071382" lon="-0.2729355"><ele>379.20000000000005</ele><time>2026-04-05T09:59:27.016Z</time></trkpt><trkpt lat="38.6070586" lon="-0.2728048"><ele>381.0</ele><time>2026-04-05T09:59:29.016Z</time></trkpt><trkpt lat="38.6070065" lon="-0.2727356"><ele>379.20000000000005</ele><time>2026-04-05T09:59:30.017Z</time></trkpt><trkpt lat="38.6069128" lon="-0.2726643"><ele>377.40000000000003</ele><time>2026-04-05T09:59:31.017Z</time></trkpt><trkpt lat="38.6068381" lon="-0.2726133"><ele>375.6</ele><time>2026-04-05T09:59:32.016Z</time></trkpt><trkpt lat="38.606758" lon="-0.2725357"><ele>373.8</ele><time>2026-04-05T09:59:33.016Z</time></trkpt><trkpt lat="38.6066925" lon="-0.2724505"><ele>372.0</ele><time>2026-04-05T09:59:34.016Z</time></trkpt><trkpt lat="38.6066363" lon="-0.2723537"><ele>373.6666666666667</ele><time>2026-04-05T09:59:35.017Z</time></trkpt><trkpt lat="38.606594" lon="-0.2722493"><ele>375.3333333333333</ele><time>2026-04-05T09:59:36.017Z</time></trkpt><trkpt lat="38.6065703" lon="-0.2721309"><ele>377.0</ele><time>2026-04-05T09:59:37.016Z</time></trkpt><trkpt lat="38.6065602" lon="-0.2720205"><ele>378.66666666666663</ele><time>2026-04-05T09:59:38.017Z</time></trkpt><trkpt lat="38.6065579" lon="-0.2719146"><ele>380.3333333333333</ele><time>2026-04-05T09:59:39.017Z</time></trkpt><trkpt lat="38.6065598" lon="-0.2718112"><ele>382.0</ele><time>2026-04-05T09:59:40.017Z</time></trkpt><trkpt lat="38.6065614" lon="-0.2717018"><ele>382.0</ele><time>2026-04-05T09:59:41.016Z</time></trkpt><trkpt lat="38.6065643" lon="-0.2715816"><ele>382.0</ele><time>2026-04-05T09:59:42.017Z</time></trkpt><trkpt lat="38.6065673" lon="-0.2714578"><ele>382.0</ele><time>2026-04-05T09:59:43.016Z</time></trkpt><trkpt lat="38.6065702" lon="-0.2713357"><ele>382.0</ele><time>2026-04-05T09:59:44.016Z</time></trkpt><trkpt lat="38.6065773" lon="-0.2712195"><ele>382.0</ele><time>2026-04-05T09:59:45.017Z</time></trkpt><trkpt lat="38.6065879" lon="-0.2711129"><ele>381.66666666666663</ele><time>2026-04-05T09:59:46.016Z</time></trkpt><trkpt lat="38.6066018" lon="-0.2710164"><ele>381.3333333333333</ele><time>2026-04-05T09:59:47.016Z</time></trkpt><trkpt lat="38.6066211" lon="-0.270925"><ele>381.0</ele><time>2026-04-05T09:59:48.016Z</time></trkpt><trkpt lat="38.6066466" lon="-0.2708431"><ele>380.6666666666667</ele><time>2026-04-05T09:59:49.016Z</time></trkpt><trkpt lat="38.6066973" lon="-0.2707695"><ele>380.33333333333337</ele><time>2026-04-05T09:59:50.017Z</time></trkpt><trkpt lat="38.6067699" lon="-0.2707004"><ele>380.0</ele><time>2026-04-05T09:59:51.016Z</time></trkpt><trkpt lat="38.6068626" lon="-0.2706642"><ele>380.0</ele><time>2026-04-05T09:59:52.017Z</time></trkpt><trkpt lat="38.6069482" lon="-0.2706589"><ele>380.0</ele><time>2026-04-05T09:59:53.017Z</time></trkpt><trkpt lat="38.6070363" lon="-0.2706739"><ele>380.0</ele><time>2026-04-05T09:59:54.017Z</time></trkpt><trkpt lat="38.6071226" lon="-0.2707015"><ele>380.0</ele><time>2026-04-05T09:59:55.017Z</time></trkpt><trkpt lat="38.6072039" lon="-0.2707288"><ele>380.0</ele><time>2026-04-05T09:59:56.017Z</time></trkpt><trkpt lat="38.6072879" lon="-0.2707548"><ele>380.0</ele><time>2026-04-05T09:59:57.016Z</time></trkpt><trkpt lat="38.6073633" lon="-0.2707754"><ele>382.0</ele><time>2026-04-05T09:59:58.016Z</time></trkpt><trkpt lat="38.6074364" lon="-0.2707929"><ele>384.0</ele><time>2026-04-05T09:59:59.017Z</time></trkpt><trkpt lat="38.6075057" lon="-0.2708123"><ele>386.0</ele><time>2026-04-05T10:00:00.016Z</time></trkpt><trkpt lat="38.6075798" lon="-0.2708398"><ele>388.0</ele><time>2026-04-05T10:00:01.016Z</time></trkpt><trkpt lat="38.6076613" lon="-0.2708404"><ele>389.99999999999994</ele><time>2026-04-05T10:00:02.017Z</time></trkpt><trkpt lat="38.6077494" lon="-0.2708053"><ele>392.0</ele><time>2026-04-05T10:00:03.017Z</time></trkpt><trkpt lat="38.6078234" lon="-0.2707597"><ele>391.3333333333333</ele><time>2026-04-05T10:00:04.017Z</time></trkpt><trkpt lat="38.607886" lon="-0.2707064"><ele>390.66666666666663</ele><time>2026-04-05T10:00:05.016Z</time></trkpt><trkpt lat="38.6079788" lon="-0.270622"><ele>390.0</ele><time>2026-04-05T10:00:07.016Z</time></trkpt><trkpt lat="38.6080942" lon="-0.2706075"><ele>389.33333333333337</ele><time>2026-04-05T10:00:09.017Z</time></trkpt><trkpt lat="38.6081526" lon="-0.270641"><ele>388.6666666666667</ele><time>2026-04-05T10:00:10.016Z</time></trkpt><trkpt lat="38.6081894" lon="-0.2707104"><ele>388.0</ele><time>2026-04-05T10:00:11.017Z</time></trkpt><trkpt lat="38.6082262" lon="-0.2707771"><ele>388.79999999999995</ele><time>2026-04-05T10:00:12.017Z</time></trkpt><trkpt lat="38.6081452" lon="-0.2709422"><ele>389.6</ele><time>2026-04-05T10:00:14.017Z</time></trkpt><trkpt lat="38.6080734" lon="-0.2709886"><ele>390.4</ele><time>2026-04-05T10:00:15.017Z</time></trkpt><trkpt lat="38.607988" lon="-0.2710242"><ele>391.20000000000005</ele><time>2026-04-05T10:00:16.017Z</time></trkpt><trkpt lat="38.6078942" lon="-0.2710596"><ele>392.0</ele><time>2026-04-05T10:00:17.016Z</time></trkpt><trkpt lat="38.6077943" lon="-0.2711004"><ele>392.0</ele><time>2026-04-05T10:00:18.016Z</time></trkpt><trkpt lat="38.6076906" lon="-0.2711451"><ele>392.0</ele><time>2026-04-05T10:00:19.017Z</time></trkpt><trkpt lat="38.6076119" lon="-0.2711976"><ele>392.0</ele><time>2026-04-05T10:00:20.017Z</time></trkpt><trkpt lat="38.6075578" lon="-0.2712521"><ele>392.0</ele><time>2026-04-05T10:00:21.017Z</time></trkpt><trkpt lat="38.6075093" lon="-0.2713134"><ele>392.0</ele><time>2026-04-05T10:00:22.017Z</time></trkpt><trkpt lat="38.6074785" lon="-0.2714631"><ele>393.8333333333333</ele><time>2026-04-05T10:00:24.016Z</time></trkpt><trkpt lat="38.6074822" lon="-0.2715553"><ele>395.66666666666663</ele><time>2026-04-05T10:00:25.016Z</time></trkpt><trkpt lat="38.6074845" lon="-0.2716583"><ele>397.5</ele><time>2026-04-05T10:00:26.017Z</time></trkpt><trkpt lat="38.607486" lon="-0.2717747"><ele>399.33333333333337</ele><time>2026-04-05T10:00:27.017Z</time></trkpt><trkpt lat="38.6074863" lon="-0.2718965"><ele>401.1666666666667</ele><time>2026-04-05T10:00:28.016Z</time></trkpt><trkpt lat="38.6074888" lon="-0.2720141"><ele>403.0</ele><time>2026-04-05T10:00:29.016Z</time></trkpt><trkpt lat="38.6074946" lon="-0.2721248"><ele>403.00000000000006</ele><time>2026-04-05T10:00:30.017Z</time></trkpt><trkpt lat="38.6074936" lon="-0.2722167"><ele>403.0</ele><time>2026-04-05T10:00:31.016Z</time></trkpt><trkpt lat="38.6074962" lon="-0.2723197"><ele>403.0</ele><time>2026-04-05T10:00:32.016Z</time></trkpt><trkpt lat="38.607498" lon="-0.2724222"><ele>403.0</ele><time>2026-04-05T10:00:33.016Z</time></trkpt><trkpt lat="38.6074959" lon="-0.2725264"><ele>403.00000000000006</ele><time>2026-04-05T10:00:34.017Z</time></trkpt><trkpt lat="38.6075009" lon="-0.2726417"><ele>403.0</ele><time>2026-04-05T10:00:35.016Z</time></trkpt><trkpt lat="38.6075088" lon="-0.2727451"><ele>402.2</ele><time>2026-04-05T10:00:36.016Z</time></trkpt><trkpt lat="38.6075317" lon="-0.2728532"><ele>401.4</ele><time>2026-04-05T10:00:37.017Z</time></trkpt><trkpt lat="38.607583" lon="-0.2729532"><ele>400.59999999999997</ele><time>2026-04-05T10:00:38.016Z</time></trkpt><trkpt lat="38.6076524" lon="-0.2730505"><ele>399.79999999999995</ele><time>2026-04-05T10:00:39.017Z</time></trkpt><trkpt lat="38.6077347" lon="-0.27314"><ele>399.0</ele><time>2026-04-05T10:00:40.017Z</time></trkpt><trkpt lat="38.6078118" lon="-0.2732394"><ele>402.2</ele><time>2026-04-05T10:00:41.017Z</time></trkpt><trkpt lat="38.6078943" lon="-0.2733455"><ele>405.4</ele><time>2026-04-05T10:00:42.016Z</time></trkpt><trkpt lat="38.6079781" lon="-0.2734479"><ele>408.6</ele><time>2026-04-05T10:00:43.016Z</time></trkpt><trkpt lat="38.6080514" lon="-0.2735498"><ele>411.8</ele><time>2026-04-05T10:00:44.017Z</time></trkpt><trkpt lat="38.6081133" lon="-0.2736464"><ele>415.0</ele><time>2026-04-05T10:00:45.016Z</time></trkpt><trkpt lat="38.6081603" lon="-0.2737129"><ele>415.0</ele><time>2026-04-05T10:00:46.016Z</time></trkpt><trkpt lat="38.6082173" lon="-0.2737636"><ele>415.0</ele><time>2026-04-05T10:00:48.017Z</time></trkpt><trkpt lat="38.6082939" lon="-0.2737942"><ele>415.0</ele><time>2026-04-05T10:00:52.017Z</time></trkpt><trkpt lat="38.608433" lon="-0.2738338"><ele>415.0</ele><time>2026-04-05T10:00:56.023Z</time></trkpt><trkpt lat="38.6085315" lon="-0.2738507"><ele>415.0</ele><time>2026-04-05T10:00:58.024Z</time></trkpt><trkpt lat="38.6086461" lon="-0.2738622"><ele>417.2</ele><time>2026-04-05T10:01:00.024Z</time></trkpt><trkpt lat="38.608749" lon="-0.2738691"><ele>419.4</ele><time>2026-04-05T10:01:02.025Z</time></trkpt><trkpt lat="38.6088709" lon="-0.2738602"><ele>421.6</ele><time>2026-04-05T10:01:04.025Z</time></trkpt><trkpt lat="38.6089469" lon="-0.2738439"><ele>423.8</ele><time>2026-04-05T10:01:05.024Z</time></trkpt><trkpt lat="38.6090233" lon="-0.2738118"><ele>426.0</ele><time>2026-04-05T10:01:06.024Z</time></trkpt><trkpt lat="38.6090918" lon="-0.2737681"><ele>426.0</ele><time>2026-04-05T10:01:07.024Z</time></trkpt><trkpt lat="38.6091552" lon="-0.2737196"><ele>426.0</ele><time>2026-04-05T10:01:08.024Z</time></trkpt><trkpt lat="38.6092135" lon="-0.2736765"><ele>426.0</ele><time>2026-04-05T10:01:09.025Z</time></trkpt><trkpt lat="38.6092728" lon="-0.2736466"><ele>426.0</ele><time>2026-04-05T10:01:10.024Z</time></trkpt><trkpt lat="38.609339" lon="-0.2736311"><ele>426.0</ele><time>2026-04-05T10:01:11.025Z</time></trkpt><trkpt lat="38.6094448" lon="-0.2736931"><ele>426.0</ele><time>2026-04-05T10:01:13.024Z</time></trkpt><trkpt lat="38.6095057" lon="-0.2738268"><ele>427.3333333333333</ele><time>2026-04-05T10:01:15.025Z</time></trkpt><trkpt lat="38.6095416" lon="-0.2739062"><ele>428.66666666666663</ele><time>2026-04-05T10:01:16.024Z</time></trkpt><trkpt lat="38.6095841" lon="-0.2739814"><ele>430.0</ele><time>2026-04-05T10:01:17.025Z</time></trkpt><trkpt lat="38.6096233" lon="-0.2740792"><ele>431.3333333333333</ele><time>2026-04-05T10:01:18.025Z</time></trkpt><trkpt lat="38.6096624" lon="-0.2741804"><ele>432.66666666666663</ele><time>2026-04-05T10:01:19.025Z</time></trkpt><trkpt lat="38.6096712" lon="-0.2742979"><ele>434.0</ele><time>2026-04-05T10:01:20.025Z</time></trkpt><trkpt lat="38.6096648" lon="-0.2744047"><ele>433.99999999999994</ele><time>2026-04-05T10:01:21.025Z</time></trkpt><trkpt lat="38.609646" lon="-0.2745035"><ele>434.0</ele><time>2026-04-05T10:01:22.024Z</time></trkpt><trkpt lat="38.6096244" lon="-0.2746094"><ele>434.0</ele><time>2026-04-05T10:01:23.025Z</time></trkpt><trkpt lat="38.609601" lon="-0.2747276"><ele>434.0</ele><time>2026-04-05T10:01:24.025Z</time></trkpt><trkpt lat="38.6095728" lon="-0.2748464"><ele>433.99999999999994</ele><time>2026-04-05T10:01:25.024Z</time></trkpt><trkpt lat="38.6095454" lon="-0.2749571"><ele>434.0</ele><time>2026-04-05T10:01:26.025Z</time></trkpt><trkpt lat="38.6095236" lon="-0.2750558"><ele>435.79999999999995</ele><time>2026-04-05T10:01:27.024Z</time></trkpt><trkpt lat="38.6095036" lon="-0.2751455"><ele>437.59999999999997</ele><time>2026-04-05T10:01:28.024Z</time></trkpt><trkpt lat="38.6094648" lon="-0.2752954"><ele>439.4</ele><time>2026-04-05T10:01:30.025Z</time></trkpt><trkpt lat="38.6094305" lon="-0.2754509"><ele>441.2</ele><time>2026-04-05T10:01:32.024Z</time></trkpt><trkpt lat="38.6094239" lon="-0.2755908"><ele>443.0</ele><time>2026-04-05T10:01:34.024Z</time></trkpt><trkpt lat="38.6094262" lon="-0.2757277"><ele>435.0</ele><time>2026-04-05T10:01:36.024Z</time></trkpt><trkpt lat="38.609435" lon="-0.2758728"><ele>427.0</ele><time>2026-04-05T10:01:38.024Z</time></trkpt><trkpt lat="38.6094433" lon="-0.2760269"><ele>419.0</ele><time>2026-04-05T10:01:40.024Z</time></trkpt><trkpt lat="38.6094502" lon="-0.27617"><ele>411.0</ele><time>2026-04-05T10:01:42.024Z</time></trkpt><trkpt lat="38.6094592" lon="-0.2763237"><ele>411.0</ele><time>2026-04-05T10:01:44.024Z</time></trkpt><trkpt lat="38.6094755" lon="-0.2764232"><ele>411.0</ele><time>2026-04-05T10:01:45.025Z</time></trkpt><trkpt lat="38.6095066" lon="-0.2765313"><ele>411.0</ele><time>2026-04-05T10:01:46.025Z</time></trkpt><trkpt lat="38.6095489" lon="-0.2766395"><ele>411.0</ele><time>2026-04-05T10:01:47.024Z</time></trkpt><trkpt lat="38.6096017" lon="-0.276738"><ele>411.0</ele><time>2026-04-05T10:01:48.025Z</time></trkpt><trkpt lat="38.6096564" lon="-0.2768269"><ele>411.0</ele><time>2026-04-05T10:01:49.024Z</time></trkpt><trkpt lat="38.6096991" lon="-0.2769076"><ele>415.8333333333333</ele><time>2026-04-05T10:01:50.024Z</time></trkpt><trkpt lat="38.6097338" lon="-0.2769882"><ele>420.66666666666663</ele><time>2026-04-05T10:01:51.024Z</time></trkpt><trkpt lat="38.6097618" lon="-0.2770763"><ele>425.5</ele><time>2026-04-05T10:01:52.025Z</time></trkpt><trkpt lat="38.6097729" lon="-0.2771764"><ele>430.3333333333333</ele><time>2026-04-05T10:01:53.024Z</time></trkpt><trkpt lat="38.6097635" lon="-0.2772939"><ele>435.16666666666663</ele><time>2026-04-05T10:01:54.024Z</time></trkpt><trkpt lat="38.6097301" lon="-0.2774057"><ele>440.0</ele><time>2026-04-05T10:01:55.025Z</time></trkpt><trkpt lat="38.6096905" lon="-0.2774985"><ele>440.1428571428571</ele><time>2026-04-05T10:01:56.024Z</time></trkpt><trkpt lat="38.6096522" lon="-0.2775739"><ele>440.2857142857143</ele><time>2026-04-05T10:01:57.024Z</time></trkpt><trkpt lat="38.6096199" lon="-0.2776519"><ele>440.42857142857144</ele><time>2026-04-05T10:01:58.025Z</time></trkpt><trkpt lat="38.6095857" lon="-0.2777328"><ele>440.57142857142856</ele><time>2026-04-05T10:01:59.025Z</time></trkpt><trkpt lat="38.6095549" lon="-0.2778197"><ele>440.7142857142857</ele><time>2026-04-05T10:02:00.025Z</time></trkpt><trkpt lat="38.6095386" lon="-0.2779075"><ele>440.85714285714283</ele><time>2026-04-05T10:02:01.025Z</time></trkpt><trkpt lat="38.6095302" lon="-0.2779965"><ele>441.0</ele><time>2026-04-05T10:02:02.024Z</time></trkpt><trkpt lat="38.6095284" lon="-0.2780846"><ele>441.0</ele><time>2026-04-05T10:02:03.024Z</time></trkpt><trkpt lat="38.6095336" lon="-0.2781783"><ele>441.0</ele><time>2026-04-05T10:02:04.024Z</time></trkpt><trkpt lat="38.6095494" lon="-0.2782793"><ele>441.0</ele><time>2026-04-05T10:02:05.025Z</time></trkpt><trkpt lat="38.6095774" lon="-0.2783807"><ele>441.0</ele><time>2026-04-05T10:02:06.025Z</time></trkpt><trkpt lat="38.6096149" lon="-0.2784754"><ele>441.0</ele><time>2026-04-05T10:02:07.024Z</time></trkpt><trkpt lat="38.6096627" lon="-0.2785747"><ele>441.0</ele><time>2026-04-05T10:02:08.025Z</time></trkpt><trkpt lat="38.6097224" lon="-0.2786933"><ele>441.0</ele><time>2026-04-05T10:02:09.025Z</time></trkpt><trkpt lat="38.6097979" lon="-0.2788294"><ele>441.0</ele><time>2026-04-05T10:02:10.025Z</time></trkpt><trkpt lat="38.6098582" lon="-0.2789471"><ele>441.0</ele><time>2026-04-05T10:02:11.025Z</time></trkpt><trkpt lat="38.6099195" lon="-0.2790429"><ele>441.0</ele><time>2026-04-05T10:02:12.025Z</time></trkpt><trkpt lat="38.6099912" lon="-0.2791134"><ele>441.0</ele><time>2026-04-05T10:02:13.025Z</time></trkpt><trkpt lat="38.6100792" lon="-0.2791462"><ele>439.20000000000005</ele><time>2026-04-05T10:02:14.024Z</time></trkpt><trkpt lat="38.6101673" lon="-0.2791576"><ele>437.40000000000003</ele><time>2026-04-05T10:02:15.024Z</time></trkpt><trkpt lat="38.6102613" lon="-0.279139"><ele>435.6</ele><time>2026-04-05T10:02:16.024Z</time></trkpt><trkpt lat="38.6103675" lon="-0.2790961"><ele>433.8</ele><time>2026-04-05T10:02:17.025Z</time></trkpt><trkpt lat="38.6104767" lon="-0.27904"><ele>432.0</ele><time>2026-04-05T10:02:18.025Z</time></trkpt><trkpt lat="38.6105946" lon="-0.2789813"><ele>439.25</ele><time>2026-04-05T10:02:19.024Z</time></trkpt><trkpt lat="38.6107232" lon="-0.2789154"><ele>446.5</ele><time>2026-04-05T10:02:20.024Z</time></trkpt><trkpt lat="38.6108707" lon="-0.2788447"><ele>453.75</ele><time>2026-04-05T10:02:21.024Z</time></trkpt><trkpt lat="38.6110083" lon="-0.2787858"><ele>461.0</ele><time>2026-04-05T10:02:22.025Z</time></trkpt><trkpt lat="38.611153" lon="-0.2787391"><ele>464.5</ele><time>2026-04-05T10:02:23.024Z</time></trkpt><trkpt lat="38.6112997" lon="-0.278706"><ele>468.0</ele><time>2026-04-05T10:02:24.025Z</time></trkpt><trkpt lat="38.6114404" lon="-0.2786885"><ele>471.5</ele><time>2026-04-05T10:02:25.025Z</time></trkpt><trkpt lat="38.611565" lon="-0.2786814"><ele>475.0</ele><time>2026-04-05T10:02:26.024Z</time></trkpt><trkpt lat="38.6116749" lon="-0.2786846"><ele>475.0</ele><time>2026-04-05T10:02:27.024Z</time></trkpt><trkpt lat="38.6117743" lon="-0.2786987"><ele>475.0</ele><time>2026-04-05T10:02:28.025Z</time></trkpt><trkpt lat="38.611872" lon="-0.2787343"><ele>475.0</ele><time>2026-04-05T10:02:29.025Z</time></trkpt><trkpt lat="38.6119682" lon="-0.278767"><ele>475.0</ele><time>2026-04-05T10:02:30.025Z</time></trkpt><trkpt lat="38.612063" lon="-0.2787588"><ele>475.0</ele><time>2026-04-05T10:02:31.024Z</time></trkpt><trkpt lat="38.6121479" lon="-0.2787206"><ele>474.83333333333337</ele><time>2026-04-05T10:02:32.024Z</time></trkpt><trkpt lat="38.6122247" lon="-0.2786603"><ele>474.6666666666667</ele><time>2026-04-05T10:02:33.024Z</time></trkpt><trkpt lat="38.6122989" lon="-0.2785918"><ele>474.5</ele><time>2026-04-05T10:02:34.025Z</time></trkpt><trkpt lat="38.6123618" lon="-0.2785327"><ele>474.33333333333337</ele><time>2026-04-05T10:02:35.025Z</time></trkpt><trkpt lat="38.6124252" lon="-0.2784841"><ele>474.1666666666667</ele><time>2026-04-05T10:02:36.024Z</time></trkpt><trkpt lat="38.6124982" lon="-0.2784575"><ele>474.0</ele><time>2026-04-05T10:02:37.024Z</time></trkpt><trkpt lat="38.6125744" lon="-0.278463"><ele>474.0</ele><time>2026-04-05T10:02:38.025Z</time></trkpt><trkpt lat="38.6126389" lon="-0.2784907"><ele>474.0</ele><time>2026-04-05T10:02:39.024Z</time></trkpt><trkpt lat="38.6127095" lon="-0.2785032"><ele>474.0</ele><time>2026-04-05T10:02:40.024Z</time></trkpt><trkpt lat="38.6127857" lon="-0.2784848"><ele>474.0</ele><time>2026-04-05T10:02:41.024Z</time></trkpt><trkpt lat="38.6128647" lon="-0.2784323"><ele>474.0</ele><time>2026-04-05T10:02:42.024Z</time></trkpt><trkpt lat="38.6129503" lon="-0.2783463"><ele>474.0</ele><time>2026-04-05T10:02:43.024Z</time></trkpt><trkpt lat="38.6130437" lon="-0.2782321"><ele>474.4</ele><time>2026-04-05T10:02:44.024Z</time></trkpt><trkpt lat="38.6131223" lon="-0.2781396"><ele>474.79999999999995</ele><time>2026-04-05T10:02:45.025Z</time></trkpt><trkpt lat="38.6132049" lon="-0.2780929"><ele>475.20000000000005</ele><time>2026-04-05T10:02:46.025Z</time></trkpt><trkpt lat="38.6132914" lon="-0.2781077"><ele>475.6</ele><time>2026-04-05T10:02:47.024Z</time></trkpt><trkpt lat="38.6133684" lon="-0.2781297"><ele>476.0</ele><time>2026-04-05T10:02:48.024Z</time></trkpt><trkpt lat="38.6134301" lon="-0.2782205"><ele>476.0</ele><time>2026-04-05T10:02:49.025Z</time></trkpt><trkpt lat="38.6134224" lon="-0.2784674"><ele>476.0</ele><time>2026-04-05T10:02:50.024Z</time></trkpt><trkpt lat="38.6134241" lon="-0.2786959"><ele>476.0</ele><time>2026-04-05T10:02:51.024Z</time></trkpt><trkpt lat="38.6134224" lon="-0.278907"><ele>473.0</ele><time>2026-04-05T10:02:52.024Z</time></trkpt><trkpt lat="38.6134449" lon="-0.2790834"><ele>470.0</ele><time>2026-04-05T10:02:53.025Z</time></trkpt><trkpt lat="38.6135043" lon="-0.279254"><ele>467.0</ele><time>2026-04-05T10:02:54.025Z</time></trkpt><trkpt lat="38.6135897" lon="-0.2794228"><ele>464.0</ele><time>2026-04-05T10:02:55.024Z</time></trkpt><trkpt lat="38.6136419" lon="-0.2796385"><ele>461.3333333333333</ele><time>2026-04-05T10:02:56.025Z</time></trkpt><trkpt lat="38.6136805" lon="-0.2798655"><ele>458.66666666666663</ele><time>2026-04-05T10:02:57.025Z</time></trkpt><trkpt lat="38.6136965" lon="-0.2801247"><ele>456.0</ele><time>2026-04-05T10:02:58.024Z</time></trkpt><trkpt lat="38.6136116" lon="-0.2804684"><ele>459.0</ele><time>2026-04-05T10:02:59.025Z</time></trkpt><trkpt lat="38.6135299" lon="-0.2807415"><ele>462.0</ele><time>2026-04-05T10:03:00.024Z</time></trkpt><trkpt lat="38.6134404" lon="-0.28099"><ele>465.0</ele><time>2026-04-05T10:03:01.025Z</time></trkpt><trkpt lat="38.6133213" lon="-0.2812049"><ele>465.0</ele><time>2026-04-05T10:03:02.025Z</time></trkpt><trkpt lat="38.6131955" lon="-0.2813814"><ele>465.0</ele><time>2026-04-05T10:03:03.025Z</time></trkpt><trkpt lat="38.6130858" lon="-0.2815167"><ele>465.0</ele><time>2026-04-05T10:03:04.025Z</time></trkpt><trkpt lat="38.613013" lon="-0.2816251"><ele>466.3333333333333</ele><time>2026-04-05T10:03:05.024Z</time></trkpt><trkpt lat="38.612972" lon="-0.2817279"><ele>467.66666666666663</ele><time>2026-04-05T10:03:06.025Z</time></trkpt><trkpt lat="38.6129708" lon="-0.2818332"><ele>469.0</ele><time>2026-04-05T10:03:07.024Z</time></trkpt><trkpt lat="38.613007" lon="-0.281929"><ele>470.3333333333333</ele><time>2026-04-05T10:03:08.024Z</time></trkpt><trkpt lat="38.6130714" lon="-0.2819896"><ele>471.66666666666663</ele><time>2026-04-05T10:03:09.025Z</time></trkpt><trkpt lat="38.6131502" lon="-0.282007"><ele>473.0</ele><time>2026-04-05T10:03:10.025Z</time></trkpt><trkpt lat="38.6132486" lon="-0.2819823"><ele>472.99999999999994</ele><time>2026-04-05T10:03:11.025Z</time></trkpt><trkpt lat="38.6133413" lon="-0.281944"><ele>473.0</ele><time>2026-04-05T10:03:12.024Z</time></trkpt><trkpt lat="38.6134237" lon="-0.2818993"><ele>473.0</ele><time>2026-04-05T10:03:13.024Z</time></trkpt><trkpt lat="38.6135001" lon="-0.2818551"><ele>473.0</ele><time>2026-04-05T10:03:14.025Z</time></trkpt><trkpt lat="38.6135714" lon="-0.2818066"><ele>472.99999999999994</ele><time>2026-04-05T10:03:15.025Z</time></trkpt><trkpt lat="38.6136422" lon="-0.2817557"><ele>473.0</ele><time>2026-04-05T10:03:16.025Z</time></trkpt><trkpt lat="38.6137046" lon="-0.2817115"><ele>475.49999999999994</ele><time>2026-04-05T10:03:17.024Z</time></trkpt><trkpt lat="38.6137728" lon="-0.2816746"><ele>478.0</ele><time>2026-04-05T10:03:18.024Z</time></trkpt><trkpt lat="38.6138476" lon="-0.2816573"><ele>480.5</ele><time>2026-04-05T10:03:19.025Z</time></trkpt><trkpt lat="38.613933" lon="-0.2816678"><ele>483.0</ele><time>2026-04-05T10:03:20.024Z</time></trkpt><trkpt lat="38.6140237" lon="-0.2817028"><ele>485.49999999999994</ele><time>2026-04-05T10:03:21.025Z</time></trkpt><trkpt lat="38.6141042" lon="-0.2817812"><ele>488.0</ele><time>2026-04-05T10:03:22.025Z</time></trkpt><trkpt lat="38.6141771" lon="-0.2818784"><ele>488.0</ele><time>2026-04-05T10:03:23.024Z</time></trkpt><trkpt lat="38.6141896" lon="-0.281989"><ele>487.99999999999994</ele><time>2026-04-05T10:03:24.025Z</time></trkpt><trkpt lat="38.614174" lon="-0.2821419"><ele>487.99999999999994</ele><time>2026-04-05T10:03:25.024Z</time></trkpt><trkpt lat="38.6141538" lon="-0.2822898"><ele>488.0</ele><time>2026-04-05T10:03:26.025Z</time></trkpt><trkpt lat="38.6141198" lon="-0.2824069"><ele>488.0</ele><time>2026-04-05T10:03:27.024Z</time></trkpt><trkpt lat="38.6140906" lon="-0.2825263"><ele>487.2</ele><time>2026-04-05T10:03:28.024Z</time></trkpt><trkpt lat="38.614091" lon="-0.2826426"><ele>486.4</ele><time>2026-04-05T10:03:29.024Z</time></trkpt><trkpt lat="38.6141187" lon="-0.2827528"><ele>485.59999999999997</ele><time>2026-04-05T10:03:30.025Z</time></trkpt><trkpt lat="38.6141766" lon="-0.2828457"><ele>484.79999999999995</ele><time>2026-04-05T10:03:31.025Z</time></trkpt><trkpt lat="38.6142553" lon="-0.2829254"><ele>484.0</ele><time>2026-04-05T10:03:32.025Z</time></trkpt><trkpt lat="38.6143384" lon="-0.2830012"><ele>484.0</ele><time>2026-04-05T10:03:33.025Z</time></trkpt><trkpt lat="38.6144413" lon="-0.2830486"><ele>484.0</ele><time>2026-04-05T10:03:34.024Z</time></trkpt><trkpt lat="38.6145604" lon="-0.2830783"><ele>484.0</ele><time>2026-04-05T10:03:35.025Z</time></trkpt><trkpt lat="38.6146797" lon="-0.2831358"><ele>484.0</ele><time>2026-04-05T10:03:36.024Z</time></trkpt><trkpt lat="38.614774" lon="-0.2832357"><ele>489.25</ele><time>2026-04-05T10:03:37.024Z</time></trkpt><trkpt lat="38.6148718" lon="-0.2833802"><ele>494.5</ele><time>2026-04-05T10:03:38.025Z</time></trkpt><trkpt lat="38.6149491" lon="-0.2835381"><ele>499.75</ele><time>2026-04-05T10:03:39.024Z</time></trkpt><trkpt lat="38.6150253" lon="-0.2837"><ele>505.0</ele><time>2026-04-05T10:03:40.025Z</time></trkpt><trkpt lat="38.615101" lon="-0.2838565"><ele>500.25</ele><time>2026-04-05T10:03:41.024Z</time></trkpt><trkpt lat="38.6151762" lon="-0.2840069"><ele>495.5</ele><time>2026-04-05T10:03:42.025Z</time></trkpt><trkpt lat="38.6152509" lon="-0.2841507"><ele>490.75</ele><time>2026-04-05T10:03:43.024Z</time></trkpt><trkpt lat="38.6153214" lon="-0.2842918"><ele>486.0</ele><time>2026-04-05T10:03:44.025Z</time></trkpt><trkpt lat="38.615385" lon="-0.284434"><ele>493.8</ele><time>2026-04-05T10:03:45.025Z</time></trkpt><trkpt lat="38.6154348" lon="-0.2845611"><ele>501.6</ele><time>2026-04-05T10:03:46.024Z</time></trkpt><trkpt lat="38.6154746" lon="-0.2846862"><ele>509.4</ele><time>2026-04-05T10:03:47.025Z</time></trkpt><trkpt lat="38.6155021" lon="-0.2848006"><ele>517.2</ele><time>2026-04-05T10:03:48.024Z</time></trkpt><trkpt lat="38.615518" lon="-0.2849311"><ele>525.0</ele><time>2026-04-05T10:03:49.025Z</time></trkpt><trkpt lat="38.6155144" lon="-0.2850781"><ele>525.0</ele><time>2026-04-05T10:03:50.024Z</time></trkpt><trkpt lat="38.6154794" lon="-0.2852558"><ele>525.0</ele><time>2026-04-05T10:03:51.025Z</time></trkpt><trkpt lat="38.6154333" lon="-0.2854158"><ele>525.0</ele><time>2026-04-05T10:03:52.024Z</time></trkpt><trkpt lat="38.6153864" lon="-0.2855689"><ele>525.0</ele><time>2026-04-05T10:03:53.024Z</time></trkpt><trkpt lat="38.6153431" lon="-0.2857231"><ele>526.75</ele><time>2026-04-05T10:03:54.024Z</time></trkpt><trkpt lat="38.6153254" lon="-0.2858895"><ele>528.5</ele><time>2026-04-05T10:03:55.024Z</time></trkpt><trkpt lat="38.615316" lon="-0.2860568"><ele>530.25</ele><time>2026-04-05T10:03:56.025Z</time></trkpt><trkpt lat="38.6153051" lon="-0.2862195"><ele>532.0</ele><time>2026-04-05T10:03:57.024Z</time></trkpt><trkpt lat="38.6152964" lon="-0.2863875"><ele>524.5</ele><time>2026-04-05T10:03:58.025Z</time></trkpt><trkpt lat="38.6152788" lon="-0.2865589"><ele>517.0</ele><time>2026-04-05T10:03:59.024Z</time></trkpt><trkpt lat="38.6152599" lon="-0.2867192"><ele>509.5</ele><time>2026-04-05T10:04:00.025Z</time></trkpt><trkpt lat="38.6152443" lon="-0.2868686"><ele>502.0</ele><time>2026-04-05T10:04:01.025Z</time></trkpt><trkpt lat="38.6152448" lon="-0.287014"><ele>502.0</ele><time>2026-04-05T10:04:02.025Z</time></trkpt><trkpt lat="38.6152677" lon="-0.2871531"><ele>502.00000000000006</ele><time>2026-04-05T10:04:03.025Z</time></trkpt><trkpt lat="38.6153092" lon="-0.2872837"><ele>502.00000000000006</ele><time>2026-04-05T10:04:04.025Z</time></trkpt><trkpt lat="38.6153522" lon="-0.2874108"><ele>502.0</ele><time>2026-04-05T10:04:05.025Z</time></trkpt><trkpt lat="38.6153805" lon="-0.2875466"><ele>502.0</ele><time>2026-04-05T10:04:06.024Z</time></trkpt><trkpt lat="38.61538" lon="-0.2876955"><ele>503.75</ele><time>2026-04-05T10:04:07.024Z</time></trkpt><trkpt lat="38.6153411" lon="-0.2878399"><ele>505.5</ele><time>2026-04-05T10:04:08.025Z</time></trkpt><trkpt lat="38.6152847" lon="-0.2879727"><ele>507.25</ele><time>2026-04-05T10:04:09.025Z</time></trkpt><trkpt lat="38.6152047" lon="-0.2880864"><ele>509.0</ele><time>2026-04-05T10:04:10.024Z</time></trkpt><trkpt lat="38.6151099" lon="-0.2881725"><ele>511.2</ele><time>2026-04-05T10:04:11.025Z</time></trkpt><trkpt lat="38.6150209" lon="-0.2882354"><ele>513.4</ele><time>2026-04-05T10:04:12.024Z</time></trkpt><trkpt lat="38.6149326" lon="-0.2882823"><ele>515.6</ele><time>2026-04-05T10:04:13.025Z</time></trkpt><trkpt lat="38.6148464" lon="-0.2883071"><ele>517.8</ele><time>2026-04-05T10:04:14.025Z</time></trkpt><trkpt lat="38.6147572" lon="-0.2883446"><ele>520.0</ele><time>2026-04-05T10:04:15.025Z</time></trkpt><trkpt lat="38.6146698" lon="-0.2883887"><ele>520.0</ele><time>2026-04-05T10:04:16.024Z</time></trkpt><trkpt lat="38.6146444" lon="-0.2885028"><ele>520.0</ele><time>2026-04-05T10:04:17.024Z</time></trkpt><trkpt lat="38.6146551" lon="-0.2886023"><ele>520.0</ele><time>2026-04-05T10:04:18.025Z</time></trkpt><trkpt lat="38.6146978" lon="-0.2886879"><ele>520.0</ele><time>2026-04-05T10:04:19.025Z</time></trkpt><trkpt lat="38.6147583" lon="-0.2887456"><ele>520.0</ele><time>2026-04-05T10:04:20.025Z</time></trkpt><trkpt lat="38.6148373" lon="-0.2887879"><ele>520.0</ele><time>2026-04-05T10:04:21.024Z</time></trkpt><trkpt lat="38.6149327" lon="-0.2888345"><ele>520.0</ele><time>2026-04-05T10:04:22.025Z</time></trkpt><trkpt lat="38.6150409" lon="-0.2888899"><ele>520.0</ele><time>2026-04-05T10:04:23.025Z</time></trkpt><trkpt lat="38.6151526" lon="-0.288959"><ele>520.0</ele><time>2026-04-05T10:04:24.025Z</time></trkpt><trkpt lat="38.615263" lon="-0.2890319"><ele>520.0</ele><time>2026-04-05T10:04:25.024Z</time></trkpt><trkpt lat="38.6153631" lon="-0.2891116"><ele>526.75</ele><time>2026-04-05T10:04:26.024Z</time></trkpt><trkpt lat="38.6154581" lon="-0.289196"><ele>533.5</ele><time>2026-04-05T10:04:27.025Z</time></trkpt><trkpt lat="38.6155375" lon="-0.2893047"><ele>540.25</ele><time>2026-04-05T10:04:28.025Z</time></trkpt><trkpt lat="38.6155951" lon="-0.289441"><ele>547.0</ele><time>2026-04-05T10:04:29.024Z</time></trkpt><trkpt lat="38.6156212" lon="-0.2896068"><ele>546.25</ele><time>2026-04-05T10:04:30.025Z</time></trkpt><trkpt lat="38.6156231" lon="-0.2897767"><ele>545.5</ele><time>2026-04-05T10:04:31.025Z</time></trkpt><trkpt lat="38.6156134" lon="-0.289946"><ele>544.75</ele><time>2026-04-05T10:04:32.024Z</time></trkpt><trkpt lat="38.6156058" lon="-0.290098"><ele>544.0</ele><time>2026-04-05T10:04:33.024Z</time></trkpt><trkpt lat="38.6156006" lon="-0.2902389"><ele>544.0</ele><time>2026-04-05T10:04:34.024Z</time></trkpt><trkpt lat="38.6156092" lon="-0.290375"><ele>544.0</ele><time>2026-04-05T10:04:35.024Z</time></trkpt><trkpt lat="38.6156356" lon="-0.2905199"><ele>544.0</ele><time>2026-04-05T10:04:36.024Z</time></trkpt><trkpt lat="38.6156814" lon="-0.2906576"><ele>544.0</ele><time>2026-04-05T10:04:37.025Z</time></trkpt><trkpt lat="38.6157454" lon="-0.2907822"><ele>541.8</ele><time>2026-04-05T10:04:38.024Z</time></trkpt><trkpt lat="38.6158132" lon="-0.2908945"><ele>539.5999999999999</ele><time>2026-04-05T10:04:39.024Z</time></trkpt><trkpt lat="38.6158788" lon="-0.2910076"><ele>537.4</ele><time>2026-04-05T10:04:40.024Z</time></trkpt><trkpt lat="38.6159503" lon="-0.2911201"><ele>535.1999999999999</ele><time>2026-04-05T10:04:41.025Z</time></trkpt><trkpt lat="38.6160242" lon="-0.291232"><ele>533.0</ele><time>2026-04-05T10:04:42.025Z</time></trkpt><trkpt lat="38.6160983" lon="-0.2913205"><ele>536.1666666666666</ele><time>2026-04-05T10:04:43.025Z</time></trkpt><trkpt lat="38.61617" lon="-0.2913889"><ele>539.3333333333333</ele><time>2026-04-05T10:04:44.025Z</time></trkpt><trkpt lat="38.6162428" lon="-0.2914539"><ele>542.5</ele><time>2026-04-05T10:04:45.024Z</time></trkpt><trkpt lat="38.6163013" lon="-0.2915319"><ele>545.6666666666666</ele><time>2026-04-05T10:04:46.025Z</time></trkpt><trkpt lat="38.616338" lon="-0.2916288"><ele>548.8333333333334</ele><time>2026-04-05T10:04:47.024Z</time></trkpt><trkpt lat="38.6163391" lon="-0.2917498"><ele>552.0</ele><time>2026-04-05T10:04:48.024Z</time></trkpt><trkpt lat="38.6163073" lon="-0.2918647"><ele>552.0</ele><time>2026-04-05T10:04:49.024Z</time></trkpt><trkpt lat="38.6162626" lon="-0.2919613"><ele>552.0</ele><time>2026-04-05T10:04:50.025Z</time></trkpt><trkpt lat="38.6161513" lon="-0.2920199"><ele>552.0</ele><time>2026-04-05T10:04:51.025Z</time></trkpt><trkpt lat="38.6160591" lon="-0.2920849"><ele>552.0</ele><time>2026-04-05T10:04:52.025Z</time></trkpt><trkpt lat="38.6159909" lon="-0.2921822"><ele>552.0</ele><time>2026-04-05T10:04:53.025Z</time></trkpt><trkpt lat="38.6159353" lon="-0.2922935"><ele>549.0</ele><time>2026-04-05T10:04:54.025Z</time></trkpt><trkpt lat="38.6159018" lon="-0.2924208"><ele>546.0</ele><time>2026-04-05T10:04:55.024Z</time></trkpt><trkpt lat="38.6158968" lon="-0.2925564"><ele>543.0</ele><time>2026-04-05T10:04:56.025Z</time></trkpt><trkpt lat="38.6159129" lon="-0.2926995"><ele>540.0</ele><time>2026-04-05T10:04:57.024Z</time></trkpt><trkpt lat="38.6159261" lon="-0.2928529"><ele>537.0</ele><time>2026-04-05T10:04:58.024Z</time></trkpt><trkpt lat="38.6159264" lon="-0.2930297"><ele>538.0</ele><time>2026-04-05T10:04:59.024Z</time></trkpt><trkpt lat="38.6159145" lon="-0.2931857"><ele>539.0</ele><time>2026-04-05T10:05:00.024Z</time></trkpt><trkpt lat="38.6159136" lon="-0.2933224"><ele>540.0</ele><time>2026-04-05T10:05:01.024Z</time></trkpt><trkpt lat="38.6159276" lon="-0.2934455"><ele>541.0</ele><time>2026-04-05T10:05:02.024Z</time></trkpt><trkpt lat="38.6159535" lon="-0.2935743"><ele>542.0</ele><time>2026-04-05T10:05:03.025Z</time></trkpt><trkpt lat="38.6159933" lon="-0.2937081"><ele>542.0</ele><time>2026-04-05T10:05:04.024Z</time></trkpt><trkpt lat="38.6160507" lon="-0.293828"><ele>542.0</ele><time>2026-04-05T10:05:05.025Z</time></trkpt><trkpt lat="38.6161233" lon="-0.2939298"><ele>542.0</ele><time>2026-04-05T10:05:06.025Z</time></trkpt><trkpt lat="38.6162003" lon="-0.2940453"><ele>542.0</ele><time>2026-04-05T10:05:07.025Z</time></trkpt><trkpt lat="38.616252" lon="-0.2941851"><ele>548.5</ele><time>2026-04-05T10:05:08.025Z</time></trkpt><trkpt lat="38.6162876" lon="-0.2943343"><ele>555.0</ele><time>2026-04-05T10:05:09.025Z</time></trkpt><trkpt lat="38.6163256" lon="-0.2944831"><ele>561.5</ele><time>2026-04-05T10:05:10.024Z</time></trkpt><trkpt lat="38.6163812" lon="-0.2946182"><ele>568.0</ele><time>2026-04-05T10:05:11.024Z</time></trkpt><trkpt lat="38.6164379" lon="-0.2947329"><ele>565.4</ele><time>2026-04-05T10:05:12.024Z</time></trkpt><trkpt lat="38.6164965" lon="-0.2948346"><ele>562.8</ele><time>2026-04-05T10:05:13.024Z</time></trkpt><trkpt lat="38.6165565" lon="-0.2949373"><ele>560.2</ele><time>2026-04-05T10:05:14.025Z</time></trkpt><trkpt lat="38.616616" lon="-0.2950373"><ele>557.6</ele><time>2026-04-05T10:05:15.025Z</time></trkpt><trkpt lat="38.61667" lon="-0.2951401"><ele>555.0</ele><time>2026-04-05T10:05:16.024Z</time></trkpt><trkpt lat="38.6166991" lon="-0.2952602"><ele>555.0</ele><time>2026-04-05T10:05:17.025Z</time></trkpt><trkpt lat="38.6166782" lon="-0.2953982"><ele>555.0</ele><time>2026-04-05T10:05:18.024Z</time></trkpt><trkpt lat="38.6166275" lon="-0.2955217"><ele>555.0</ele><time>2026-04-05T10:05:19.025Z</time></trkpt><trkpt lat="38.6165741" lon="-0.2956347"><ele>555.0</ele><time>2026-04-05T10:05:20.024Z</time></trkpt><trkpt lat="38.6165428" lon="-0.2957608"><ele>555.0</ele><time>2026-04-05T10:05:21.024Z</time></trkpt><trkpt lat="38.6165392" lon="-0.2958946"><ele>555.5</ele><time>2026-04-05T10:05:22.025Z</time></trkpt><trkpt lat="38.6165623" lon="-0.2960414"><ele>556.0</ele><time>2026-04-05T10:05:23.025Z</time></trkpt><trkpt lat="38.6165943" lon="-0.2961946"><ele>556.5</ele><time>2026-04-05T10:05:24.024Z</time></trkpt><trkpt lat="38.6166255" lon="-0.2963455"><ele>557.0</ele><time>2026-04-05T10:05:25.025Z</time></trkpt><trkpt lat="38.6166538" lon="-0.2964856"><ele>557.0</ele><time>2026-04-05T10:05:26.024Z</time></trkpt><trkpt lat="38.6166773" lon="-0.2966111"><ele>557.0</ele><time>2026-04-05T10:05:27.025Z</time></trkpt><trkpt lat="38.6166986" lon="-0.2967265"><ele>557.0</ele><time>2026-04-05T10:05:28.024Z</time></trkpt><trkpt lat="38.6167204" lon="-0.2968397"><ele>557.0</ele><time>2026-04-05T10:05:29.024Z</time></trkpt><trkpt lat="38.6167484" lon="-0.2969501"><ele>557.0</ele><time>2026-04-05T10:05:30.024Z</time></trkpt><trkpt lat="38.6167937" lon="-0.2970588"><ele>557.0</ele><time>2026-04-05T10:05:31.024Z</time></trkpt><trkpt lat="38.6168544" lon="-0.297163"><ele>557.0</ele><time>2026-04-05T10:05:32.025Z</time></trkpt><trkpt lat="38.616934" lon="-0.2972498"><ele>557.0</ele><time>2026-04-05T10:05:33.025Z</time></trkpt><trkpt lat="38.6170201" lon="-0.2973357"><ele>557.0</ele><time>2026-04-05T10:05:34.025Z</time></trkpt><trkpt lat="38.6171025" lon="-0.2974221"><ele>557.0</ele><time>2026-04-05T10:05:35.024Z</time></trkpt><trkpt lat="38.6171813" lon="-0.2975202"><ele>560.0</ele><time>2026-04-05T10:05:36.024Z</time></trkpt><trkpt lat="38.6172446" lon="-0.2976362"><ele>563.0</ele><time>2026-04-05T10:05:37.024Z</time></trkpt><trkpt lat="38.6172768" lon="-0.2977673"><ele>566.0</ele><time>2026-04-05T10:05:38.024Z</time></trkpt><trkpt lat="38.6172872" lon="-0.2979014"><ele>569.0</ele><time>2026-04-05T10:05:39.024Z</time></trkpt><trkpt lat="38.6172861" lon="-0.2980192"><ele>572.0</ele><time>2026-04-05T10:05:40.024Z</time></trkpt><trkpt lat="38.6172927" lon="-0.2981288"><ele>572.0</ele><time>2026-04-05T10:05:41.024Z</time></trkpt><trkpt lat="38.6173121" lon="-0.2982395"><ele>572.0</ele><time>2026-04-05T10:05:42.025Z</time></trkpt><trkpt lat="38.6173531" lon="-0.2983545"><ele>572.0</ele><time>2026-04-05T10:05:43.024Z</time></trkpt><trkpt lat="38.6174112" lon="-0.2984633"><ele>572.0</ele><time>2026-04-05T10:05:44.025Z</time></trkpt><trkpt lat="38.6174948" lon="-0.2985618"><ele>572.0</ele><time>2026-04-05T10:05:45.025Z</time></trkpt><trkpt lat="38.6175996" lon="-0.298649"><ele>572.0</ele><time>2026-04-05T10:05:46.025Z</time></trkpt><trkpt lat="38.6177109" lon="-0.2987298"><ele>572.0</ele><time>2026-04-05T10:05:47.024Z</time></trkpt><trkpt lat="38.6178298" lon="-0.2988045"><ele>572.0</ele><time>2026-04-05T10:05:48.025Z</time></trkpt><trkpt lat="38.6179525" lon="-0.2988739"><ele>572.0</ele><time>2026-04-05T10:05:49.024Z</time></trkpt><trkpt lat="38.6180684" lon="-0.2989317"><ele>568.25</ele><time>2026-04-05T10:05:50.024Z</time></trkpt><trkpt lat="38.6181875" lon="-0.2989801"><ele>564.5</ele><time>2026-04-05T10:05:51.024Z</time></trkpt><trkpt lat="38.618303" lon="-0.299021"><ele>560.75</ele><time>2026-04-05T10:05:52.025Z</time></trkpt><trkpt lat="38.6184208" lon="-0.2990453"><ele>557.0</ele><time>2026-04-05T10:05:53.025Z</time></trkpt><trkpt lat="38.6185435" lon="-0.2990597"><ele>556.6666666666666</ele><time>2026-04-05T10:05:54.025Z</time></trkpt><trkpt lat="38.6186798" lon="-0.2990674"><ele>556.3333333333334</ele><time>2026-04-05T10:05:55.025Z</time></trkpt><trkpt lat="38.6188439" lon="-0.2990653"><ele>556.0</ele><time>2026-04-05T10:05:56.025Z</time></trkpt><trkpt lat="38.6190066" lon="-0.299047"><ele>556.0</ele><time>2026-04-05T10:05:57.024Z</time></trkpt><trkpt lat="38.6191639" lon="-0.2990106"><ele>556.0</ele><time>2026-04-05T10:05:58.024Z</time></trkpt><trkpt lat="38.6193241" lon="-0.2989692"><ele>556.0</ele><time>2026-04-05T10:05:59.024Z</time></trkpt><trkpt lat="38.6194969" lon="-0.2989175"><ele>566.6666666666667</ele><time>2026-04-05T10:06:00.025Z</time></trkpt><trkpt lat="38.6196765" lon="-0.2988629"><ele>577.3333333333334</ele><time>2026-04-05T10:06:01.024Z</time></trkpt><trkpt lat="38.6198463" lon="-0.298811"><ele>588.0</ele><time>2026-04-05T10:06:02.024Z</time></trkpt><trkpt lat="38.620026" lon="-0.298726"><ele>588.0</ele><time>2026-04-05T10:06:03.025Z</time></trkpt><trkpt lat="38.620225" lon="-0.2986171"><ele>588.0</ele><time>2026-04-05T10:06:04.025Z</time></trkpt><trkpt lat="38.6204433" lon="-0.2985077"><ele>579.6666666666666</ele><time>2026-04-05T10:06:05.025Z</time></trkpt><trkpt lat="38.6206491" lon="-0.2983879"><ele>571.3333333333333</ele><time>2026-04-05T10:06:06.025Z</time></trkpt><trkpt lat="38.6208294" lon="-0.2982618"><ele>563.0</ele><time>2026-04-05T10:06:07.025Z</time></trkpt><trkpt lat="38.6210072" lon="-0.2981324"><ele>572.3333333333333</ele><time>2026-04-05T10:06:08.025Z</time></trkpt><trkpt lat="38.6211838" lon="-0.2980137"><ele>581.6666666666666</ele><time>2026-04-05T10:06:09.024Z</time></trkpt><trkpt lat="38.6213517" lon="-0.2979094"><ele>591.0</ele><time>2026-04-05T10:06:10.024Z</time></trkpt><trkpt lat="38.621498" lon="-0.2978003"><ele>591.0</ele><time>2026-04-05T10:06:11.025Z</time></trkpt><trkpt lat="38.6216399" lon="-0.2976947"><ele>591.0</ele><time>2026-04-05T10:06:12.024Z</time></trkpt><trkpt lat="38.6217867" lon="-0.2975951"><ele>591.0</ele><time>2026-04-05T10:06:13.025Z</time></trkpt><trkpt lat="38.6219297" lon="-0.2975146"><ele>585.75</ele><time>2026-04-05T10:06:14.024Z</time></trkpt><trkpt lat="38.6220632" lon="-0.2974485"><ele>580.5</ele><time>2026-04-05T10:06:15.025Z</time></trkpt><trkpt lat="38.6221875" lon="-0.297401"><ele>575.25</ele><time>2026-04-05T10:06:16.024Z</time></trkpt><trkpt lat="38.6223011" lon="-0.2973746"><ele>570.0</ele><time>2026-04-05T10:06:17.024Z</time></trkpt><trkpt lat="38.6224088" lon="-0.2973563"><ele>570.0</ele><time>2026-04-05T10:06:18.025Z</time></trkpt><trkpt lat="38.622508" lon="-0.2973502"><ele>570.0</ele><time>2026-04-05T10:06:19.024Z</time></trkpt><trkpt lat="38.6226028" lon="-0.2973579"><ele>570.0</ele><time>2026-04-05T10:06:20.024Z</time></trkpt><trkpt lat="38.6226931" lon="-0.2973773"><ele>570.0</ele><time>2026-04-05T10:06:21.024Z</time></trkpt><trkpt lat="38.6227853" lon="-0.2973879"><ele>570.0</ele><time>2026-04-05T10:06:22.024Z</time></trkpt><trkpt lat="38.6228729" lon="-0.2973797"><ele>569.4</ele><time>2026-04-05T10:06:23.024Z</time></trkpt><trkpt lat="38.6229689" lon="-0.2973657"><ele>568.8</ele><time>2026-04-05T10:06:24.025Z</time></trkpt><trkpt lat="38.6230595" lon="-0.2973524"><ele>568.2</ele><time>2026-04-05T10:06:25.025Z</time></trkpt><trkpt lat="38.6231386" lon="-0.2973067"><ele>567.6</ele><time>2026-04-05T10:06:26.024Z</time></trkpt><trkpt lat="38.6232034" lon="-0.2972319"><ele>567.0</ele><time>2026-04-05T10:06:27.025Z</time></trkpt><trkpt lat="38.6232538" lon="-0.297138"><ele>570.0</ele><time>2026-04-05T10:06:28.025Z</time></trkpt><trkpt lat="38.6233077" lon="-0.297051"><ele>573.0</ele><time>2026-04-05T10:06:29.025Z</time></trkpt><trkpt lat="38.6233759" lon="-0.2969694"><ele>576.0</ele><time>2026-04-05T10:06:30.025Z</time></trkpt><trkpt lat="38.62344" lon="-0.2969003"><ele>579.0</ele><time>2026-04-05T10:06:31.025Z</time></trkpt><trkpt lat="38.6234992" lon="-0.296839"><ele>582.0</ele><time>2026-04-05T10:06:32.025Z</time></trkpt><trkpt lat="38.6235572" lon="-0.2967853"><ele>585.0</ele><time>2026-04-05T10:06:33.025Z</time></trkpt><trkpt lat="38.6236075" lon="-0.2967349"><ele>585.1666666666666</ele><time>2026-04-05T10:06:34.024Z</time></trkpt><trkpt lat="38.6236637" lon="-0.2966788"><ele>585.3333333333334</ele><time>2026-04-05T10:06:35.024Z</time></trkpt><trkpt lat="38.623723" lon="-0.2966301"><ele>585.5</ele><time>2026-04-05T10:06:36.024Z</time></trkpt><trkpt lat="38.6237921" lon="-0.2965797"><ele>585.6666666666667</ele><time>2026-04-05T10:06:37.024Z</time></trkpt><trkpt lat="38.6238625" lon="-0.2965515"><ele>585.8333333333334</ele><time>2026-04-05T10:06:38.025Z</time></trkpt><trkpt lat="38.6239217" lon="-0.2965209"><ele>586.0</ele><time>2026-04-05T10:06:39.024Z</time></trkpt><trkpt lat="38.6240403" lon="-0.2964923"><ele>586.0</ele><time>2026-04-05T10:06:41.025Z</time></trkpt><trkpt lat="38.6241443" lon="-0.2965201"><ele>586.0</ele><time>2026-04-05T10:06:43.025Z</time></trkpt><trkpt lat="38.6242243" lon="-0.2965985"><ele>586.0</ele><time>2026-04-05T10:06:45.024Z</time></trkpt><trkpt lat="38.6242985" lon="-0.2966964"><ele>586.0</ele><time>2026-04-05T10:06:47.024Z</time></trkpt><trkpt lat="38.6243496" lon="-0.2967767"><ele>586.0</ele><time>2026-04-05T10:06:49.024Z</time></trkpt><trkpt lat="38.6244232" lon="-0.2968786"><ele>586.0</ele><time>2026-04-05T10:06:51.024Z</time></trkpt><trkpt lat="38.6244715" lon="-0.296943"><ele>586.0</ele><time>2026-04-05T10:06:52.024Z</time></trkpt><trkpt lat="38.6245382" lon="-0.2969986"><ele>586.0</ele><time>2026-04-05T10:06:53.025Z</time></trkpt><trkpt lat="38.6246158" lon="-0.2970477"><ele>586.0</ele><time>2026-04-05T10:06:54.025Z</time></trkpt><trkpt lat="38.6246997" lon="-0.2971013"><ele>586.0</ele><time>2026-04-05T10:06:55.025Z</time></trkpt><trkpt lat="38.6247848" lon="-0.297158"><ele>586.0</ele><time>2026-04-05T10:06:56.025Z</time></trkpt><trkpt lat="38.6248566" lon="-0.2972162"><ele>587.2</ele><time>2026-04-05T10:06:57.024Z</time></trkpt><trkpt lat="38.6249132" lon="-0.2972739"><ele>588.4000000000001</ele><time>2026-04-05T10:06:58.025Z</time></trkpt><trkpt lat="38.6250124" lon="-0.2973734"><ele>589.6</ele><time>2026-04-05T10:07:00.025Z</time></trkpt><trkpt lat="38.6251019" lon="-0.29747"><ele>590.8000000000001</ele><time>2026-04-05T10:07:02.024Z</time></trkpt><trkpt lat="38.6251471" lon="-0.2975278"><ele>592.0</ele><time>2026-04-05T10:07:03.024Z</time></trkpt><trkpt lat="38.6251968" lon="-0.2975983"><ele>592.0</ele><time>2026-04-05T10:07:04.025Z</time></trkpt><trkpt lat="38.6252437" lon="-0.2976897"><ele>592.0</ele><time>2026-04-05T10:07:05.024Z</time></trkpt><trkpt lat="38.6252741" lon="-0.2978014"><ele>592.0</ele><time>2026-04-05T10:07:06.024Z</time></trkpt><trkpt lat="38.6253018" lon="-0.2979161"><ele>592.0</ele><time>2026-04-05T10:07:07.024Z</time></trkpt><trkpt lat="38.6253322" lon="-0.2980388"><ele>592.0</ele><time>2026-04-05T10:07:08.025Z</time></trkpt><trkpt lat="38.6253657" lon="-0.2981671"><ele>594.2</ele><time>2026-04-05T10:07:09.025Z</time></trkpt><trkpt lat="38.6254058" lon="-0.298303"><ele>596.4000000000001</ele><time>2026-04-05T10:07:10.025Z</time></trkpt><trkpt lat="38.6254517" lon="-0.2984349"><ele>598.5999999999999</ele><time>2026-04-05T10:07:11.025Z</time></trkpt><trkpt lat="38.6254983" lon="-0.298563"><ele>600.8</ele><time>2026-04-05T10:07:12.025Z</time></trkpt><trkpt lat="38.6255476" lon="-0.2986877"><ele>603.0</ele><time>2026-04-05T10:07:13.025Z</time></trkpt><trkpt lat="38.6256138" lon="-0.2987968"><ele>603.0</ele><time>2026-04-05T10:07:14.025Z</time></trkpt><trkpt lat="38.6256985" lon="-0.2988864"><ele>603.0</ele><time>2026-04-05T10:07:15.024Z</time></trkpt><trkpt lat="38.6257974" lon="-0.29896"><ele>603.0</ele><time>2026-04-05T10:07:16.025Z</time></trkpt><trkpt lat="38.6259104" lon="-0.299008"><ele>603.0</ele><time>2026-04-05T10:07:17.024Z</time></trkpt><trkpt lat="38.6260202" lon="-0.2990373"><ele>601.0</ele><time>2026-04-05T10:07:18.024Z</time></trkpt><trkpt lat="38.6261227" lon="-0.2990532"><ele>599.0</ele><time>2026-04-05T10:07:19.025Z</time></trkpt><trkpt lat="38.6262225" lon="-0.2990587"><ele>597.0</ele><time>2026-04-05T10:07:20.024Z</time></trkpt><trkpt lat="38.6263241" lon="-0.2990434"><ele>595.0</ele><time>2026-04-05T10:07:21.025Z</time></trkpt><trkpt lat="38.6264094" lon="-0.2990233"><ele>593.0</ele><time>2026-04-05T10:07:22.025Z</time></trkpt><trkpt lat="38.6264875" lon="-0.2989701"><ele>593.0</ele><time>2026-04-05T10:07:23.025Z</time></trkpt><trkpt lat="38.6265543" lon="-0.298901"><ele>593.0</ele><time>2026-04-05T10:07:24.025Z</time></trkpt><trkpt lat="38.62662" lon="-0.2988465"><ele>593.0</ele><time>2026-04-05T10:07:25.024Z</time></trkpt><trkpt lat="38.6266837" lon="-0.2988301"><ele>593.0</ele><time>2026-04-05T10:07:26.025Z</time></trkpt><trkpt lat="38.6267532" lon="-0.2988663"><ele>593.0</ele><time>2026-04-05T10:07:27.024Z</time></trkpt><trkpt lat="38.6268056" lon="-0.2989348"><ele>593.0</ele><time>2026-04-05T10:07:28.024Z</time></trkpt><trkpt lat="38.6268173" lon="-0.2990295"><ele>593.0</ele><time>2026-04-05T10:07:29.024Z</time></trkpt><trkpt lat="38.6268012" lon="-0.299122"><ele>593.0</ele><time>2026-04-05T10:07:30.025Z</time></trkpt><trkpt lat="38.6267705" lon="-0.2992084"><ele>593.0</ele><time>2026-04-05T10:07:31.024Z</time></trkpt><trkpt lat="38.6267004" lon="-0.2993119"><ele>593.0</ele><time>2026-04-05T10:07:32.025Z</time></trkpt><trkpt lat="38.6266495" lon="-0.299433"><ele>593.0</ele><time>2026-04-05T10:07:33.024Z</time></trkpt><trkpt lat="38.6266121" lon="-0.2995879"><ele>595.5</ele><time>2026-04-05T10:07:34.025Z</time></trkpt><trkpt lat="38.6266093" lon="-0.2997612"><ele>598.0</ele><time>2026-04-05T10:07:35.025Z</time></trkpt><trkpt lat="38.6266356" lon="-0.2999398"><ele>600.5</ele><time>2026-04-05T10:07:36.025Z</time></trkpt><trkpt lat="38.6266745" lon="-0.300109"><ele>603.0</ele><time>2026-04-05T10:07:37.025Z</time></trkpt><trkpt lat="38.6267143" lon="-0.3002936"><ele>603.0</ele><time>2026-04-05T10:07:38.024Z</time></trkpt><trkpt lat="38.6267608" lon="-0.3004977"><ele>603.0</ele><time>2026-04-05T10:07:39.025Z</time></trkpt><trkpt lat="38.626787" lon="-0.3007357"><ele>603.0</ele><time>2026-04-05T10:07:40.025Z</time></trkpt><trkpt lat="38.6268087" lon="-0.3009599"><ele>604.0</ele><time>2026-04-05T10:07:41.024Z</time></trkpt><trkpt lat="38.6268316" lon="-0.3011742"><ele>605.0</ele><time>2026-04-05T10:07:42.025Z</time></trkpt><trkpt lat="38.6268614" lon="-0.3013762"><ele>606.0</ele><time>2026-04-05T10:07:43.025Z</time></trkpt><trkpt lat="38.6268968" lon="-0.3015584"><ele>606.25</ele><time>2026-04-05T10:07:44.024Z</time></trkpt><trkpt lat="38.6269423" lon="-0.3017227"><ele>606.5</ele><time>2026-04-05T10:07:45.024Z</time></trkpt><trkpt lat="38.6270096" lon="-0.3018673"><ele>606.75</ele><time>2026-04-05T10:07:46.024Z</time></trkpt><trkpt lat="38.6270972" lon="-0.3019822"><ele>607.0</ele><time>2026-04-05T10:07:47.025Z</time></trkpt><trkpt lat="38.6272037" lon="-0.3020708"><ele>608.75</ele><time>2026-04-05T10:07:48.024Z</time></trkpt><trkpt lat="38.6273186" lon="-0.3021487"><ele>610.5</ele><time>2026-04-05T10:07:49.025Z</time></trkpt><trkpt lat="38.6274293" lon="-0.3022111"><ele>612.25</ele><time>2026-04-05T10:07:50.025Z</time></trkpt><trkpt lat="38.6275362" lon="-0.3022622"><ele>614.0</ele><time>2026-04-05T10:07:51.025Z</time></trkpt><trkpt lat="38.6276471" lon="-0.3022773"><ele>614.0</ele><time>2026-04-05T10:07:52.024Z</time></trkpt><trkpt lat="38.6277492" lon="-0.3022553"><ele>614.0</ele><time>2026-04-05T10:07:53.024Z</time></trkpt><trkpt lat="38.6278491" lon="-0.3022168"><ele>614.0</ele><time>2026-04-05T10:07:54.025Z</time></trkpt><trkpt lat="38.6279413" lon="-0.3021686"><ele>614.0</ele><time>2026-04-05T10:07:55.025Z</time></trkpt><trkpt lat="38.6280371" lon="-0.3021054"><ele>614.0</ele><time>2026-04-05T10:07:56.025Z</time></trkpt><trkpt lat="38.628136" lon="-0.3020351"><ele>618.6666666666666</ele><time>2026-04-05T10:07:57.024Z</time></trkpt><trkpt lat="38.6282264" lon="-0.3019754"><ele>623.3333333333333</ele><time>2026-04-05T10:07:58.024Z</time></trkpt><trkpt lat="38.6283123" lon="-0.3019277"><ele>628.0</ele><time>2026-04-05T10:07:59.025Z</time></trkpt><trkpt lat="38.6283896" lon="-0.3019067"><ele>632.6666666666666</ele><time>2026-04-05T10:08:00.025Z</time></trkpt><trkpt lat="38.6284682" lon="-0.3018875"><ele>637.3333333333334</ele><time>2026-04-05T10:08:01.025Z</time></trkpt><trkpt lat="38.6285355" lon="-0.3019169"><ele>642.0</ele><time>2026-04-05T10:08:02.025Z</time></trkpt><trkpt lat="38.6285859" lon="-0.3019731"><ele>642.0</ele><time>2026-04-05T10:08:03.024Z</time></trkpt><trkpt lat="38.6286087" lon="-0.3020597"><ele>642.0</ele><time>2026-04-05T10:08:04.024Z</time></trkpt><trkpt lat="38.6286165" lon="-0.30214"><ele>642.0</ele><time>2026-04-05T10:08:05.024Z</time></trkpt><trkpt lat="38.6284799" lon="-0.3022907"><ele>642.0</ele><time>2026-04-05T10:08:07.024Z</time></trkpt><trkpt lat="38.628392" lon="-0.3023412"><ele>642.0</ele><time>2026-04-05T10:08:08.024Z</time></trkpt><trkpt lat="38.628312" lon="-0.3024059"><ele>639.2</ele><time>2026-04-05T10:08:09.025Z</time></trkpt><trkpt lat="38.6282411" lon="-0.3025042"><ele>636.4000000000001</ele><time>2026-04-05T10:08:10.025Z</time></trkpt><trkpt lat="38.6281822" lon="-0.3026236"><ele>633.5999999999999</ele><time>2026-04-05T10:08:11.024Z</time></trkpt><trkpt lat="38.6281433" lon="-0.3027481"><ele>630.8</ele><time>2026-04-05T10:08:12.024Z</time></trkpt><trkpt lat="38.6281333" lon="-0.3028676"><ele>628.0</ele><time>2026-04-05T10:08:13.025Z</time></trkpt><trkpt lat="38.6281595" lon="-0.3029865"><ele>629.0</ele><time>2026-04-05T10:08:14.024Z</time></trkpt><trkpt lat="38.6282086" lon="-0.30311"><ele>630.0</ele><time>2026-04-05T10:08:15.024Z</time></trkpt><trkpt lat="38.6282715" lon="-0.303242"><ele>631.0</ele><time>2026-04-05T10:08:16.024Z</time></trkpt><trkpt lat="38.6283389" lon="-0.3033808"><ele>632.0</ele><time>2026-04-05T10:08:17.024Z</time></trkpt><trkpt lat="38.6284008" lon="-0.3035079"><ele>632.0</ele><time>2026-04-05T10:08:18.024Z</time></trkpt><trkpt lat="38.6284661" lon="-0.3036452"><ele>632.0</ele><time>2026-04-05T10:08:19.024Z</time></trkpt><trkpt lat="38.628514" lon="-0.3037865"><ele>632.0</ele><time>2026-04-05T10:08:20.024Z</time></trkpt><trkpt lat="38.628537" lon="-0.3039598"><ele>632.0</ele><time>2026-04-05T10:08:21.024Z</time></trkpt><trkpt lat="38.6285486" lon="-0.3041263"><ele>632.5</ele><time>2026-04-05T10:08:22.025Z</time></trkpt><trkpt lat="38.6285275" lon="-0.3042965"><ele>633.0</ele><time>2026-04-05T10:08:23.024Z</time></trkpt><trkpt lat="38.6284749" lon="-0.3044645"><ele>633.5</ele><time>2026-04-05T10:08:24.024Z</time></trkpt><trkpt lat="38.6284102" lon="-0.3046042"><ele>634.0</ele><time>2026-04-05T10:08:25.024Z</time></trkpt><trkpt lat="38.6283383" lon="-0.3047181"><ele>638.0</ele><time>2026-04-05T10:08:26.025Z</time></trkpt><trkpt lat="38.6282599" lon="-0.3048338"><ele>642.0</ele><time>2026-04-05T10:08:27.025Z</time></trkpt><trkpt lat="38.6281623" lon="-0.3049363"><ele>646.0</ele><time>2026-04-05T10:08:28.025Z</time></trkpt><trkpt lat="38.6280632" lon="-0.3050172"><ele>650.0</ele><time>2026-04-05T10:08:29.024Z</time></trkpt><trkpt lat="38.6279699" lon="-0.3050734"><ele>650.0</ele><time>2026-04-05T10:08:30.025Z</time></trkpt><trkpt lat="38.627883" lon="-0.305103"><ele>650.0</ele><time>2026-04-05T10:08:31.024Z</time></trkpt><trkpt lat="38.627788" lon="-0.3051193"><ele>650.0</ele><time>2026-04-05T10:08:32.025Z</time></trkpt><trkpt lat="38.6276873" lon="-0.3051241"><ele>650.0</ele><time>2026-04-05T10:08:33.024Z</time></trkpt><trkpt lat="38.627592" lon="-0.3051211"><ele>650.0</ele><time>2026-04-05T10:08:34.025Z</time></trkpt><trkpt lat="38.6275129" lon="-0.3051245"><ele>649.6666666666666</ele><time>2026-04-05T10:08:35.024Z</time></trkpt><trkpt lat="38.6274412" lon="-0.3051662"><ele>649.3333333333333</ele><time>2026-04-05T10:08:36.024Z</time></trkpt><trkpt lat="38.6273861" lon="-0.3052281"><ele>649.0</ele><time>2026-04-05T10:08:37.025Z</time></trkpt><trkpt lat="38.6273597" lon="-0.3053258"><ele>648.6666666666666</ele><time>2026-04-05T10:08:38.024Z</time></trkpt><trkpt lat="38.6273584" lon="-0.30545"><ele>648.3333333333334</ele><time>2026-04-05T10:08:39.024Z</time></trkpt><trkpt lat="38.6273875" lon="-0.3055864"><ele>648.0</ele><time>2026-04-05T10:08:40.024Z</time></trkpt><trkpt lat="38.6274226" lon="-0.3057326"><ele>648.0</ele><time>2026-04-05T10:08:41.025Z</time></trkpt><trkpt lat="38.627483" lon="-0.3058759"><ele>648.0</ele><time>2026-04-05T10:08:42.024Z</time></trkpt><trkpt lat="38.6275723" lon="-0.3059991"><ele>648.0</ele><time>2026-04-05T10:08:43.025Z</time></trkpt><trkpt lat="38.627686" lon="-0.3061184"><ele>648.0</ele><time>2026-04-05T10:08:44.025Z</time></trkpt><trkpt lat="38.627823" lon="-0.3062291"><ele>651.6666666666666</ele><time>2026-04-05T10:08:45.025Z</time></trkpt><trkpt lat="38.6279687" lon="-0.3063722"><ele>655.3333333333333</ele><time>2026-04-05T10:08:46.024Z</time></trkpt><trkpt lat="38.6281267" lon="-0.3064961"><ele>659.0</ele><time>2026-04-05T10:08:47.025Z</time></trkpt><trkpt lat="38.6282861" lon="-0.3066079"><ele>659.0</ele><time>2026-04-05T10:08:48.025Z</time></trkpt><trkpt lat="38.6284333" lon="-0.3066899"><ele>659.0</ele><time>2026-04-05T10:08:49.024Z</time></trkpt><trkpt lat="38.6285607" lon="-0.3067863"><ele>659.0</ele><time>2026-04-05T10:08:50.025Z</time></trkpt><trkpt lat="38.6286748" lon="-0.3068782"><ele>659.0</ele><time>2026-04-05T10:08:51.025Z</time></trkpt><trkpt lat="38.6287777" lon="-0.3069546"><ele>662.5</ele><time>2026-04-05T10:08:52.025Z</time></trkpt><trkpt lat="38.6288659" lon="-0.3070435"><ele>666.0</ele><time>2026-04-05T10:08:53.025Z</time></trkpt><trkpt lat="38.6289274" lon="-0.3071553"><ele>669.5</ele><time>2026-04-05T10:08:54.025Z</time></trkpt><trkpt lat="38.6289425" lon="-0.3073374"><ele>673.0</ele><time>2026-04-05T10:08:55.025Z</time></trkpt><trkpt lat="38.6289592" lon="-0.3074989"><ele>673.0</ele><time>2026-04-05T10:08:56.025Z</time></trkpt><trkpt lat="38.6289723" lon="-0.3076892"><ele>673.0</ele><time>2026-04-05T10:08:57.024Z</time></trkpt><trkpt lat="38.6289583" lon="-0.3078856"><ele>673.0</ele><time>2026-04-05T10:08:58.024Z</time></trkpt><trkpt lat="38.6289365" lon="-0.3080736"><ele>671.25</ele><time>2026-04-05T10:08:59.025Z</time></trkpt><trkpt lat="38.6289336" lon="-0.308234"><ele>669.5</ele><time>2026-04-05T10:09:00.024Z</time></trkpt><trkpt lat="38.6289537" lon="-0.3083767"><ele>667.75</ele><time>2026-04-05T10:09:01.024Z</time></trkpt><trkpt lat="38.6290103" lon="-0.3084944"><ele>666.0</ele><time>2026-04-05T10:09:02.025Z</time></trkpt><trkpt lat="38.6290978" lon="-0.3085928"><ele>666.0</ele><time>2026-04-05T10:09:03.025Z</time></trkpt><trkpt lat="38.6292017" lon="-0.3086818"><ele>666.0</ele><time>2026-04-05T10:09:04.024Z</time></trkpt><trkpt lat="38.6293432" lon="-0.3087663"><ele>666.0</ele><time>2026-04-05T10:09:05.024Z</time></trkpt><trkpt lat="38.6294745" lon="-0.3088677"><ele>666.0</ele><time>2026-04-05T10:09:06.024Z</time></trkpt><trkpt lat="38.6295932" lon="-0.309006"><ele>670.25</ele><time>2026-04-05T10:09:07.024Z</time></trkpt><trkpt lat="38.629685" lon="-0.3091498"><ele>674.5</ele><time>2026-04-05T10:09:08.025Z</time></trkpt><trkpt lat="38.6297513" lon="-0.3092995"><ele>678.75</ele><time>2026-04-05T10:09:09.024Z</time></trkpt><trkpt lat="38.6297889" lon="-0.3094621"><ele>683.0</ele><time>2026-04-05T10:09:10.024Z</time></trkpt><trkpt lat="38.6297786" lon="-0.3096407"><ele>684.0</ele><time>2026-04-05T10:09:11.024Z</time></trkpt><trkpt lat="38.6297377" lon="-0.3098196"><ele>685.0</ele><time>2026-04-05T10:09:12.024Z</time></trkpt><trkpt lat="38.6296653" lon="-0.3099674"><ele>686.0</ele><time>2026-04-05T10:09:13.024Z</time></trkpt><trkpt lat="38.6295753" lon="-0.310072"><ele>687.0</ele><time>2026-04-05T10:09:14.024Z</time></trkpt><trkpt lat="38.629465" lon="-0.310144"><ele>683.75</ele><time>2026-04-05T10:09:15.024Z</time></trkpt><trkpt lat="38.6293468" lon="-0.3101525"><ele>680.5</ele><time>2026-04-05T10:09:16.024Z</time></trkpt><trkpt lat="38.6292329" lon="-0.3101385"><ele>677.25</ele><time>2026-04-05T10:09:17.024Z</time></trkpt><trkpt lat="38.6291244" lon="-0.3100686"><ele>674.0</ele><time>2026-04-05T10:09:18.025Z</time></trkpt><trkpt lat="38.6290007" lon="-0.3100516"><ele>674.0</ele><time>2026-04-05T10:09:19.025Z</time></trkpt><trkpt lat="38.6288858" lon="-0.3100772"><ele>674.0</ele><time>2026-04-05T10:09:20.024Z</time></trkpt><trkpt lat="38.6287929" lon="-0.3101202"><ele>674.0</ele><time>2026-04-05T10:09:21.024Z</time></trkpt><trkpt lat="38.6287096" lon="-0.3102201"><ele>674.0</ele><time>2026-04-05T10:09:22.024Z</time></trkpt><trkpt lat="38.6286631" lon="-0.3103384"><ele>674.0</ele><time>2026-04-05T10:09:23.024Z</time></trkpt><trkpt lat="38.6286377" lon="-0.3104645"><ele>677.0</ele><time>2026-04-05T10:09:24.025Z</time></trkpt><trkpt lat="38.6285877" lon="-0.3106377"><ele>680.0</ele><time>2026-04-05T10:09:25.024Z</time></trkpt><trkpt lat="38.6285117" lon="-0.3107763"><ele>683.0</ele><time>2026-04-05T10:09:26.024Z</time></trkpt><trkpt lat="38.6284397" lon="-0.3108801"><ele>686.0</ele><time>2026-04-05T10:09:27.024Z</time></trkpt><trkpt lat="38.6283612" lon="-0.31096"><ele>686.0</ele><time>2026-04-05T10:09:28.024Z</time></trkpt><trkpt lat="38.6282869" lon="-0.3109745"><ele>686.0</ele><time>2026-04-05T10:09:29.025Z</time></trkpt><trkpt lat="38.6281447" lon="-0.310912"><ele>686.0</ele><time>2026-04-05T10:09:30.024Z</time></trkpt><trkpt lat="38.628019" lon="-0.3108799"><ele>686.0</ele><time>2026-04-05T10:09:31.025Z</time></trkpt><trkpt lat="38.6278847" lon="-0.3108961"><ele>687.25</ele><time>2026-04-05T10:09:32.025Z</time></trkpt><trkpt lat="38.627732" lon="-0.3109465"><ele>688.5</ele><time>2026-04-05T10:09:33.025Z</time></trkpt><trkpt lat="38.6276083" lon="-0.3109992"><ele>689.75</ele><time>2026-04-05T10:09:34.025Z</time></trkpt><trkpt lat="38.6274969" lon="-0.3110214"><ele>691.0</ele><time>2026-04-05T10:09:35.025Z</time></trkpt><trkpt lat="38.6273974" lon="-0.3110256"><ele>691.0</ele><time>2026-04-05T10:09:36.024Z</time></trkpt><trkpt lat="38.62732" lon="-0.3109457"><ele>691.0</ele><time>2026-04-05T10:09:37.024Z</time></trkpt><trkpt lat="38.6272462" lon="-0.3108871"><ele>691.0</ele><time>2026-04-05T10:09:38.024Z</time></trkpt><trkpt lat="38.6271439" lon="-0.3107815"><ele>691.0</ele><time>2026-04-05T10:09:39.025Z</time></trkpt><trkpt lat="38.6270511" lon="-0.3107449"><ele>691.0</ele><time>2026-04-05T10:09:40.024Z</time></trkpt><trkpt lat="38.6269626" lon="-0.3107564"><ele>693.5999999999999</ele><time>2026-04-05T10:09:41.024Z</time></trkpt><trkpt lat="38.6268968" lon="-0.3107949"><ele>696.2</ele><time>2026-04-05T10:09:42.024Z</time></trkpt><trkpt lat="38.626849" lon="-0.3108702"><ele>698.8</ele><time>2026-04-05T10:09:43.025Z</time></trkpt><trkpt lat="38.6268398" lon="-0.3109829"><ele>701.4000000000001</ele><time>2026-04-05T10:09:44.024Z</time></trkpt><trkpt lat="38.6268607" lon="-0.3112234"><ele>704.0</ele><time>2026-04-05T10:09:45.024Z</time></trkpt><trkpt lat="38.6269109" lon="-0.3114124"><ele>703.2</ele><time>2026-04-05T10:09:46.024Z</time></trkpt><trkpt lat="38.6269674" lon="-0.3115668"><ele>702.4000000000001</ele><time>2026-04-05T10:09:47.025Z</time></trkpt><trkpt lat="38.6270179" lon="-0.3116681"><ele>701.6</ele><time>2026-04-05T10:09:48.025Z</time></trkpt><trkpt lat="38.6271091" lon="-0.3117273"><ele>700.8</ele><time>2026-04-05T10:09:49.024Z</time></trkpt><trkpt lat="38.6271869" lon="-0.3117233"><ele>700.0</ele><time>2026-04-05T10:09:50.024Z</time></trkpt><trkpt lat="38.6272748" lon="-0.3116485"><ele>700.0</ele><time>2026-04-05T10:09:51.024Z</time></trkpt><trkpt lat="38.6273419" lon="-0.3115364"><ele>700.0</ele><time>2026-04-05T10:09:52.024Z</time></trkpt><trkpt lat="38.6273796" lon="-0.3114385"><ele>700.0</ele><time>2026-04-05T10:09:53.024Z</time></trkpt><trkpt lat="38.6274262" lon="-0.3113398"><ele>700.0</ele><time>2026-04-05T10:09:54.024Z</time></trkpt><trkpt lat="38.6275009" lon="-0.3112786"><ele>700.0</ele><time>2026-04-05T10:09:55.025Z</time></trkpt><trkpt lat="38.6275761" lon="-0.3112581"><ele>700.0</ele><time>2026-04-05T10:09:56.024Z</time></trkpt><trkpt lat="38.6276673" lon="-0.3113263"><ele>700.0</ele><time>2026-04-05T10:09:57.025Z</time></trkpt><trkpt lat="38.6277406" lon="-0.3114171"><ele>700.0</ele><time>2026-04-05T10:09:58.024Z</time></trkpt><trkpt lat="38.6278206" lon="-0.3115303"><ele>700.0</ele><time>2026-04-05T10:09:59.024Z</time></trkpt><trkpt lat="38.627907" lon="-0.3116381"><ele>700.0</ele><time>2026-04-05T10:10:00.025Z</time></trkpt><trkpt lat="38.6280362" lon="-0.311761"><ele>701.3333333333334</ele><time>2026-04-05T10:10:01.025Z</time></trkpt><trkpt lat="38.6281885" lon="-0.3118767"><ele>702.6666666666666</ele><time>2026-04-05T10:10:02.024Z</time></trkpt><trkpt lat="38.6283363" lon="-0.3119012"><ele>704.0</ele><time>2026-04-05T10:10:03.025Z</time></trkpt><trkpt lat="38.6284789" lon="-0.3119008"><ele>704.0</ele><time>2026-04-05T10:10:04.025Z</time></trkpt><trkpt lat="38.6286185" lon="-0.3118666"><ele>704.0</ele><time>2026-04-05T10:10:05.025Z</time></trkpt><trkpt lat="38.6287389" lon="-0.3117778"><ele>704.0</ele><time>2026-04-05T10:10:06.025Z</time></trkpt><trkpt lat="38.6288471" lon="-0.3116998"><ele>704.0</ele><time>2026-04-05T10:10:07.025Z</time></trkpt><trkpt lat="38.6289521" lon="-0.3116595"><ele>704.2</ele><time>2026-04-05T10:10:08.025Z</time></trkpt><trkpt lat="38.6290448" lon="-0.3116718"><ele>704.4000000000001</ele><time>2026-04-05T10:10:09.025Z</time></trkpt><trkpt lat="38.6291326" lon="-0.3117329"><ele>704.6</ele><time>2026-04-05T10:10:10.024Z</time></trkpt><trkpt lat="38.6292174" lon="-0.3118208"><ele>704.8</ele><time>2026-04-05T10:10:11.024Z</time></trkpt><trkpt lat="38.6293218" lon="-0.3119338"><ele>705.0</ele><time>2026-04-05T10:10:12.024Z</time></trkpt><trkpt lat="38.6294708" lon="-0.3120817"><ele>700.3333333333334</ele><time>2026-04-05T10:10:13.025Z</time></trkpt><trkpt lat="38.6296187" lon="-0.3122207"><ele>695.6666666666667</ele><time>2026-04-05T10:10:14.024Z</time></trkpt><trkpt lat="38.6298589" lon="-0.3123662"><ele>691.0</ele><time>2026-04-05T10:10:15.025Z</time></trkpt><trkpt lat="38.6300673" lon="-0.3124863"><ele>697.6666666666667</ele><time>2026-04-05T10:10:16.025Z</time></trkpt><trkpt lat="38.630252" lon="-0.3126117"><ele>704.3333333333334</ele><time>2026-04-05T10:10:17.025Z</time></trkpt><trkpt lat="38.6304262" lon="-0.3127408"><ele>711.0</ele><time>2026-04-05T10:10:18.025Z</time></trkpt><trkpt lat="38.630614" lon="-0.3128508"><ele>711.0</ele><time>2026-04-05T10:10:19.025Z</time></trkpt><trkpt lat="38.6308211" lon="-0.3129443"><ele>711.0</ele><time>2026-04-05T10:10:20.025Z</time></trkpt><trkpt lat="38.6310249" lon="-0.3130447"><ele>711.0</ele><time>2026-04-05T10:10:21.024Z</time></trkpt><trkpt lat="38.6312308" lon="-0.3131206"><ele>719.0</ele><time>2026-04-05T10:10:22.024Z</time></trkpt><trkpt lat="38.631445" lon="-0.3132229"><ele>727.0</ele><time>2026-04-05T10:10:23.024Z</time></trkpt><trkpt lat="38.6316504" lon="-0.3132845"><ele>735.0</ele><time>2026-04-05T10:10:24.025Z</time></trkpt><trkpt lat="38.6318632" lon="-0.3133582"><ele>734.0</ele><time>2026-04-05T10:10:25.024Z</time></trkpt><trkpt lat="38.6320748" lon="-0.3134126"><ele>733.0</ele><time>2026-04-05T10:10:26.024Z</time></trkpt><trkpt lat="38.6322865" lon="-0.3134623"><ele>732.0</ele><time>2026-04-05T10:10:27.024Z</time></trkpt><trkpt lat="38.6324546" lon="-0.3135005"><ele>732.0</ele><time>2026-04-05T10:10:28.024Z</time></trkpt><trkpt lat="38.6326117" lon="-0.3135402"><ele>732.0</ele><time>2026-04-05T10:10:29.025Z</time></trkpt><trkpt lat="38.632758" lon="-0.313598"><ele>732.0</ele><time>2026-04-05T10:10:30.024Z</time></trkpt><trkpt lat="38.6328815" lon="-0.3136263"><ele>732.0</ele><time>2026-04-05T10:10:31.024Z</time></trkpt><trkpt lat="38.6330051" lon="-0.3136157"><ele>734.5</ele><time>2026-04-05T10:10:32.024Z</time></trkpt><trkpt lat="38.6331144" lon="-0.3135526"><ele>737.0</ele><time>2026-04-05T10:10:33.024Z</time></trkpt><trkpt lat="38.6332115" lon="-0.3134598"><ele>739.5</ele><time>2026-04-05T10:10:34.024Z</time></trkpt><trkpt lat="38.6333173" lon="-0.3133588"><ele>742.0</ele><time>2026-04-05T10:10:35.024Z</time></trkpt><trkpt lat="38.6334491" lon="-0.3132695"><ele>742.0</ele><time>2026-04-05T10:10:36.024Z</time></trkpt><trkpt lat="38.6336099" lon="-0.313218"><ele>742.0</ele><time>2026-04-05T10:10:37.024Z</time></trkpt><trkpt lat="38.633735" lon="-0.3131787"><ele>742.0</ele><time>2026-04-05T10:10:38.024Z</time></trkpt><trkpt lat="38.6338613" lon="-0.3131649"><ele>742.0</ele><time>2026-04-05T10:10:39.025Z</time></trkpt><trkpt lat="38.6339932" lon="-0.3132011"><ele>742.25</ele><time>2026-04-05T10:10:40.024Z</time></trkpt><trkpt lat="38.6341027" lon="-0.3132859"><ele>742.5</ele><time>2026-04-05T10:10:41.025Z</time></trkpt><trkpt lat="38.634218" lon="-0.3133953"><ele>742.75</ele><time>2026-04-05T10:10:42.024Z</time></trkpt><trkpt lat="38.6343385" lon="-0.3135078"><ele>743.0</ele><time>2026-04-05T10:10:43.025Z</time></trkpt><trkpt lat="38.6345034" lon="-0.3136081"><ele>741.6666666666666</ele><time>2026-04-05T10:10:44.024Z</time></trkpt><trkpt lat="38.6346649" lon="-0.3137126"><ele>740.3333333333334</ele><time>2026-04-05T10:10:45.024Z</time></trkpt><trkpt lat="38.6347985" lon="-0.3138868"><ele>739.0</ele><time>2026-04-05T10:10:46.024Z</time></trkpt><trkpt lat="38.6349148" lon="-0.3140294"><ele>743.25</ele><time>2026-04-05T10:10:47.025Z</time></trkpt><trkpt lat="38.6350313" lon="-0.314144"><ele>747.5</ele><time>2026-04-05T10:10:48.025Z</time></trkpt><trkpt lat="38.6351573" lon="-0.3142053"><ele>751.75</ele><time>2026-04-05T10:10:49.025Z</time></trkpt><trkpt lat="38.6352664" lon="-0.3142693"><ele>756.0</ele><time>2026-04-05T10:10:50.025Z</time></trkpt><trkpt lat="38.635364" lon="-0.3143528"><ele>756.0</ele><time>2026-04-05T10:10:51.025Z</time></trkpt><trkpt lat="38.6354534" lon="-0.3144478"><ele>756.0</ele><time>2026-04-05T10:10:52.024Z</time></trkpt><trkpt lat="38.6355242" lon="-0.3145437"><ele>756.0</ele><time>2026-04-05T10:10:53.025Z</time></trkpt><trkpt lat="38.6355721" lon="-0.314671"><ele>756.0</ele><time>2026-04-05T10:10:54.025Z</time></trkpt><trkpt lat="38.6356268" lon="-0.3147819"><ele>756.0</ele><time>2026-04-05T10:10:55.024Z</time></trkpt><trkpt lat="38.6356869" lon="-0.3148624"><ele>758.1666666666666</ele><time>2026-04-05T10:10:56.024Z</time></trkpt><trkpt lat="38.6357489" lon="-0.3149301"><ele>760.3333333333333</ele><time>2026-04-05T10:10:57.025Z</time></trkpt><trkpt lat="38.6358062" lon="-0.3149941"><ele>762.5</ele><time>2026-04-05T10:10:58.025Z</time></trkpt><trkpt lat="38.6358575" lon="-0.3150502"><ele>764.6666666666666</ele><time>2026-04-05T10:10:59.024Z</time></trkpt><trkpt lat="38.6359129" lon="-0.3151059"><ele>766.8333333333333</ele><time>2026-04-05T10:11:00.024Z</time></trkpt><trkpt lat="38.6359785" lon="-0.3151687"><ele>769.0</ele><time>2026-04-05T10:11:01.025Z</time></trkpt><trkpt lat="38.6360607" lon="-0.3152233"><ele>767.6</ele><time>2026-04-05T10:11:02.024Z</time></trkpt><trkpt lat="38.6361492" lon="-0.3152706"><ele>766.2</ele><time>2026-04-05T10:11:03.024Z</time></trkpt><trkpt lat="38.6362566" lon="-0.3153216"><ele>764.8000000000001</ele><time>2026-04-05T10:11:04.025Z</time></trkpt><trkpt lat="38.6363786" lon="-0.3153714"><ele>763.4000000000001</ele><time>2026-04-05T10:11:05.025Z</time></trkpt><trkpt lat="38.6364835" lon="-0.3154145"><ele>762.0</ele><time>2026-04-05T10:11:06.024Z</time></trkpt><trkpt lat="38.6365755" lon="-0.3154616"><ele>762.0</ele><time>2026-04-05T10:11:07.024Z</time></trkpt><trkpt lat="38.6366603" lon="-0.3155045"><ele>762.0</ele><time>2026-04-05T10:11:08.025Z</time></trkpt><trkpt lat="38.6367339" lon="-0.3155548"><ele>762.0</ele><time>2026-04-05T10:11:09.025Z</time></trkpt><trkpt lat="38.6368016" lon="-0.3156069"><ele>762.0</ele><time>2026-04-05T10:11:10.025Z</time></trkpt><trkpt lat="38.6368655" lon="-0.3156582"><ele>762.0</ele><time>2026-04-05T10:11:11.024Z</time></trkpt><trkpt lat="38.636924" lon="-0.315722"><ele>762.0</ele><time>2026-04-05T10:11:12.025Z</time></trkpt><trkpt lat="38.6369796" lon="-0.3158263"><ele>765.0</ele><time>2026-04-05T10:11:13.025Z</time></trkpt><trkpt lat="38.6370216" lon="-0.315917"><ele>768.0</ele><time>2026-04-05T10:11:14.025Z</time></trkpt><trkpt lat="38.6370664" lon="-0.316024"><ele>771.0</ele><time>2026-04-05T10:11:15.024Z</time></trkpt><trkpt lat="38.6371036" lon="-0.3161328"><ele>774.0</ele><time>2026-04-05T10:11:16.025Z</time></trkpt><trkpt lat="38.6371291" lon="-0.316217"><ele>777.0</ele><time>2026-04-05T10:11:17.025Z</time></trkpt><trkpt lat="38.6371448" lon="-0.3163642"><ele>777.0</ele><time>2026-04-05T10:11:19.025Z</time></trkpt><trkpt lat="38.6371586" lon="-0.3164862"><ele>777.0</ele><time>2026-04-05T10:11:21.025Z</time></trkpt><trkpt lat="38.637251" lon="-0.3165398"><ele>777.0</ele><time>2026-04-05T10:11:23.024Z</time></trkpt><trkpt lat="38.6373513" lon="-0.3164728"><ele>777.0</ele><time>2026-04-05T10:11:25.024Z</time></trkpt><trkpt lat="38.637387" lon="-0.31637"><ele>777.0</ele><time>2026-04-05T10:11:26.024Z</time></trkpt><trkpt lat="38.6374115" lon="-0.3162848"><ele>777.0</ele><time>2026-04-05T10:11:27.025Z</time></trkpt><trkpt lat="38.6374255" lon="-0.3162022"><ele>777.0</ele><time>2026-04-05T10:11:28.025Z</time></trkpt><trkpt lat="38.6374331" lon="-0.3161208"><ele>777.0</ele><time>2026-04-05T10:11:29.024Z</time></trkpt><trkpt lat="38.637454" lon="-0.3160411"><ele>777.0</ele><time>2026-04-05T10:11:30.024Z</time></trkpt><trkpt lat="38.6374941" lon="-0.3159657"><ele>777.0</ele><time>2026-04-05T10:11:31.025Z</time></trkpt><trkpt lat="38.6375593" lon="-0.3159323"><ele>777.0</ele><time>2026-04-05T10:11:32.025Z</time></trkpt><trkpt lat="38.6376295" lon="-0.315929"><ele>777.0</ele><time>2026-04-05T10:11:33.025Z</time></trkpt><trkpt lat="38.6376951" lon="-0.3159368"><ele>777.0</ele><time>2026-04-05T10:11:34.025Z</time></trkpt><trkpt lat="38.6377636" lon="-0.315953"><ele>777.0</ele><time>2026-04-05T10:11:35.024Z</time></trkpt><trkpt lat="38.6378937" lon="-0.3159657"><ele>777.0</ele><time>2026-04-05T10:11:37.025Z</time></trkpt><trkpt lat="38.6379587" lon="-0.315965"><ele>777.0</ele><time>2026-04-05T10:11:38.025Z</time></trkpt><trkpt lat="38.6380875" lon="-0.3159631"><ele>777.0</ele><time>2026-04-05T10:11:40.025Z</time></trkpt><trkpt lat="38.6381679" lon="-0.315951"><ele>779.0</ele><time>2026-04-05T10:11:41.024Z</time></trkpt><trkpt lat="38.6382633" lon="-0.3159382"><ele>781.0</ele><time>2026-04-05T10:11:42.024Z</time></trkpt><trkpt lat="38.6383523" lon="-0.3159129"><ele>783.0</ele><time>2026-04-05T10:11:43.025Z</time></trkpt><trkpt lat="38.6384329" lon="-0.3158852"><ele>785.0</ele><time>2026-04-05T10:11:44.024Z</time></trkpt><trkpt lat="38.6385093" lon="-0.3158624"><ele>787.0</ele><time>2026-04-05T10:11:45.024Z</time></trkpt><trkpt lat="38.6385749" lon="-0.3158418"><ele>789.0</ele><time>2026-04-05T10:11:46.024Z</time></trkpt><trkpt lat="38.6386912" lon="-0.3158438"><ele>791.4000000000001</ele><time>2026-04-05T10:11:48.025Z</time></trkpt><trkpt lat="38.6388175" lon="-0.3158511"><ele>793.8</ele><time>2026-04-05T10:11:50.024Z</time></trkpt><trkpt lat="38.6389047" lon="-0.3157978"><ele>796.2</ele><time>2026-04-05T10:11:52.024Z</time></trkpt><trkpt lat="38.638955" lon="-0.3156909"><ele>798.5999999999999</ele><time>2026-04-05T10:11:54.025Z</time></trkpt><trkpt lat="38.6389542" lon="-0.3155559"><ele>801.0</ele><time>2026-04-05T10:11:56.024Z</time></trkpt><trkpt lat="38.6389216" lon="-0.3154855"><ele>801.0</ele><time>2026-04-05T10:11:57.025Z</time></trkpt><trkpt lat="38.6388431" lon="-0.3153881"><ele>801.0</ele><time>2026-04-05T10:11:59.024Z</time></trkpt><trkpt lat="38.6387986" lon="-0.3152881"><ele>801.0</ele><time>2026-04-05T10:12:01.025Z</time></trkpt><trkpt lat="38.6388418" lon="-0.3151805"><ele>801.0</ele><time>2026-04-05T10:12:03.025Z</time></trkpt><trkpt lat="38.6389016" lon="-0.315153"><ele>801.0</ele><time>2026-04-05T10:12:04.025Z</time></trkpt><trkpt lat="38.6389675" lon="-0.3151534"><ele>801.0</ele><time>2026-04-05T10:12:05.024Z</time></trkpt><trkpt lat="38.6390631" lon="-0.3152024"><ele>801.0</ele><time>2026-04-05T10:12:06.025Z</time></trkpt><trkpt lat="38.6391521" lon="-0.3152534"><ele>801.0</ele><time>2026-04-05T10:12:07.024Z</time></trkpt><trkpt lat="38.6392402" lon="-0.315301"><ele>801.0</ele><time>2026-04-05T10:12:08.025Z</time></trkpt><trkpt lat="38.6393221" lon="-0.3153668"><ele>801.0</ele><time>2026-04-05T10:12:09.024Z</time></trkpt><trkpt lat="38.6393947" lon="-0.3154764"><ele>801.0</ele><time>2026-04-05T10:12:10.025Z</time></trkpt><trkpt lat="38.6394667" lon="-0.3155883"><ele>804.5</ele><time>2026-04-05T10:12:11.024Z</time></trkpt><trkpt lat="38.6395204" lon="-0.3157411"><ele>808.0</ele><time>2026-04-05T10:12:12.025Z</time></trkpt><trkpt lat="38.6395649" lon="-0.3159133"><ele>811.5</ele><time>2026-04-05T10:12:13.025Z</time></trkpt><trkpt lat="38.6395964" lon="-0.3160895"><ele>815.0</ele><time>2026-04-05T10:12:14.024Z</time></trkpt><trkpt lat="38.6396315" lon="-0.3162363"><ele>815.0</ele><time>2026-04-05T10:12:15.025Z</time></trkpt><trkpt lat="38.6396648" lon="-0.3163758"><ele>815.0</ele><time>2026-04-05T10:12:16.024Z</time></trkpt><trkpt lat="38.6396915" lon="-0.3164997"><ele>815.0</ele><time>2026-04-05T10:12:17.024Z</time></trkpt><trkpt lat="38.6397347" lon="-0.3166055"><ele>815.0</ele><time>2026-04-05T10:12:18.024Z</time></trkpt><trkpt lat="38.6397781" lon="-0.3166872"><ele>815.0</ele><time>2026-04-05T10:12:19.025Z</time></trkpt><trkpt lat="38.6398376" lon="-0.3167658"><ele>815.5714285714286</ele><time>2026-04-05T10:12:20.025Z</time></trkpt><trkpt lat="38.6398875" lon="-0.3168406"><ele>816.1428571428571</ele><time>2026-04-05T10:12:21.024Z</time></trkpt><trkpt lat="38.6399246" lon="-0.3169246"><ele>816.7142857142858</ele><time>2026-04-05T10:12:22.025Z</time></trkpt><trkpt lat="38.6399405" lon="-0.3170149"><ele>817.2857142857142</ele><time>2026-04-05T10:12:23.024Z</time></trkpt><trkpt lat="38.63992" lon="-0.3171028"><ele>817.8571428571429</ele><time>2026-04-05T10:12:24.025Z</time></trkpt><trkpt lat="38.6398809" lon="-0.3171719"><ele>818.4285714285714</ele><time>2026-04-05T10:12:25.025Z</time></trkpt><trkpt lat="38.6398011" lon="-0.3171823"><ele>819.0</ele><time>2026-04-05T10:12:26.024Z</time></trkpt><trkpt lat="38.6397264" lon="-0.317187"><ele>819.0</ele><time>2026-04-05T10:12:27.025Z</time></trkpt><trkpt lat="38.6396591" lon="-0.3171995"><ele>819.0</ele><time>2026-04-05T10:12:28.025Z</time></trkpt><trkpt lat="38.6395464" lon="-0.3172784"><ele>819.0</ele><time>2026-04-05T10:12:30.024Z</time></trkpt><trkpt lat="38.6395026" lon="-0.317346"><ele>819.0</ele><time>2026-04-05T10:12:31.024Z</time></trkpt><trkpt lat="38.6394637" lon="-0.3174201"><ele>819.0</ele><time>2026-04-05T10:12:32.024Z</time></trkpt><trkpt lat="38.6394338" lon="-0.3175011"><ele>819.0</ele><time>2026-04-05T10:12:33.025Z</time></trkpt><trkpt lat="38.6394138" lon="-0.3175975"><ele>818.2</ele><time>2026-04-05T10:12:34.025Z</time></trkpt><trkpt lat="38.6394012" lon="-0.3176912"><ele>817.4000000000001</ele><time>2026-04-05T10:12:35.024Z</time></trkpt><trkpt lat="38.6393981" lon="-0.3177759"><ele>816.6</ele><time>2026-04-05T10:12:36.025Z</time></trkpt><trkpt lat="38.6393954" lon="-0.3178632"><ele>815.8</ele><time>2026-04-05T10:12:37.025Z</time></trkpt><trkpt lat="38.6393928" lon="-0.3179959"><ele>815.0</ele><time>2026-04-05T10:12:38.024Z</time></trkpt><trkpt lat="38.6393952" lon="-0.3181754"><ele>818.3333333333334</ele><time>2026-04-05T10:12:39.025Z</time></trkpt><trkpt lat="38.6394121" lon="-0.318393"><ele>821.6666666666667</ele><time>2026-04-05T10:12:40.025Z</time></trkpt><trkpt lat="38.6394196" lon="-0.3186319"><ele>825.0</ele><time>2026-04-05T10:12:41.024Z</time></trkpt><trkpt lat="38.6394222" lon="-0.3188696"><ele>830.5</ele><time>2026-04-05T10:12:42.025Z</time></trkpt><trkpt lat="38.6393466" lon="-0.3191619"><ele>836.0</ele><time>2026-04-05T10:12:43.024Z</time></trkpt><trkpt lat="38.639241" lon="-0.3194377"><ele>836.0</ele><time>2026-04-05T10:12:44.025Z</time></trkpt><trkpt lat="38.6391445" lon="-0.3196997"><ele>836.0</ele><time>2026-04-05T10:12:45.024Z</time></trkpt><trkpt lat="38.6390579" lon="-0.3199919"><ele>841.5</ele><time>2026-04-05T10:12:46.024Z</time></trkpt><trkpt lat="38.6389892" lon="-0.3202966"><ele>847.0</ele><time>2026-04-05T10:12:47.024Z</time></trkpt><trkpt lat="38.6389305" lon="-0.3205803"><ele>848.0</ele><time>2026-04-05T10:12:48.024Z</time></trkpt><trkpt lat="38.6388998" lon="-0.3208438"><ele>849.0</ele><time>2026-04-05T10:12:49.024Z</time></trkpt><trkpt lat="38.6389357" lon="-0.3210395"><ele>850.0</ele><time>2026-04-05T10:12:50.024Z</time></trkpt><trkpt lat="38.6389606" lon="-0.3212282"><ele>850.0</ele><time>2026-04-05T10:12:51.024Z</time></trkpt><trkpt lat="38.6390256" lon="-0.3213673"><ele>850.0</ele><time>2026-04-05T10:12:52.024Z</time></trkpt><trkpt lat="38.6390925" lon="-0.3214786"><ele>850.0</ele><time>2026-04-05T10:12:53.024Z</time></trkpt><trkpt lat="38.6392174" lon="-0.3215203"><ele>850.0</ele><time>2026-04-05T10:12:54.024Z</time></trkpt><trkpt lat="38.6393257" lon="-0.3215645"><ele>849.6</ele><time>2026-04-05T10:12:55.025Z</time></trkpt><trkpt lat="38.6394295" lon="-0.3215761"><ele>849.2</ele><time>2026-04-05T10:12:56.024Z</time></trkpt><trkpt lat="38.639526" lon="-0.3216191"><ele>848.8</ele><time>2026-04-05T10:12:57.025Z</time></trkpt><trkpt lat="38.639619" lon="-0.3216585"><ele>848.4</ele><time>2026-04-05T10:12:58.025Z</time></trkpt><trkpt lat="38.6396655" lon="-0.3217446"><ele>848.0</ele><time>2026-04-05T10:12:59.024Z</time></trkpt><trkpt lat="38.6396933" lon="-0.3219083"><ele>861.0</ele><time>2026-04-05T10:13:00.024Z</time></trkpt><trkpt lat="38.6397175" lon="-0.3221757"><ele>874.0</ele><time>2026-04-05T10:13:01.025Z</time></trkpt><trkpt lat="38.6396965" lon="-0.3224891"><ele>874.3333333333333</ele><time>2026-04-05T10:13:02.024Z</time></trkpt><trkpt lat="38.6396928" lon="-0.3227381"><ele>874.6666666666667</ele><time>2026-04-05T10:13:03.025Z</time></trkpt><trkpt lat="38.6397158" lon="-0.322949"><ele>875.0</ele><time>2026-04-05T10:13:04.025Z</time></trkpt><trkpt lat="38.639775" lon="-0.3230779"><ele>874.4</ele><time>2026-04-05T10:13:05.024Z</time></trkpt><trkpt lat="38.6398832" lon="-0.3231843"><ele>873.8</ele><time>2026-04-05T10:13:06.024Z</time></trkpt><trkpt lat="38.6399361" lon="-0.3232959"><ele>873.2</ele><time>2026-04-05T10:13:07.024Z</time></trkpt><trkpt lat="38.6399831" lon="-0.323409"><ele>872.6</ele><time>2026-04-05T10:13:08.024Z</time></trkpt><trkpt lat="38.6400324" lon="-0.3234943"><ele>872.0</ele><time>2026-04-05T10:13:09.024Z</time></trkpt><trkpt lat="38.6400944" lon="-0.3235616"><ele>872.0</ele><time>2026-04-05T10:13:10.025Z</time></trkpt><trkpt lat="38.6401405" lon="-0.3233915"><ele>872.0</ele><time>2026-04-05T10:13:12.024Z</time></trkpt><trkpt lat="38.6401389" lon="-0.3232802"><ele>872.0</ele><time>2026-04-05T10:13:13.024Z</time></trkpt><trkpt lat="38.6400829" lon="-0.3231694"><ele>872.0</ele><time>2026-04-05T10:13:14.024Z</time></trkpt><trkpt lat="38.6399887" lon="-0.3230781"><ele>872.0</ele><time>2026-04-05T10:13:15.024Z</time></trkpt><trkpt lat="38.6399263" lon="-0.3229824"><ele>872.75</ele><time>2026-04-05T10:13:16.025Z</time></trkpt><trkpt lat="38.6398994" lon="-0.3228589"><ele>873.5</ele><time>2026-04-05T10:13:17.025Z</time></trkpt><trkpt lat="38.6399113" lon="-0.3227032"><ele>874.25</ele><time>2026-04-05T10:13:18.024Z</time></trkpt><trkpt lat="38.6399406" lon="-0.3225453"><ele>875.0</ele><time>2026-04-05T10:13:19.025Z</time></trkpt><trkpt lat="38.6399899" lon="-0.3223477"><ele>874.6666666666667</ele><time>2026-04-05T10:13:20.024Z</time></trkpt><trkpt lat="38.640019" lon="-0.3221156"><ele>874.3333333333333</ele><time>2026-04-05T10:13:21.025Z</time></trkpt><trkpt lat="38.6400643" lon="-0.3219126"><ele>874.0</ele><time>2026-04-05T10:13:22.024Z</time></trkpt><trkpt lat="38.6400995" lon="-0.321739"><ele>874.0</ele><time>2026-04-05T10:13:23.024Z</time></trkpt><trkpt lat="38.6401296" lon="-0.3215752"><ele>874.0</ele><time>2026-04-05T10:13:24.024Z</time></trkpt><trkpt lat="38.6401689" lon="-0.3214147"><ele>874.0</ele><time>2026-04-05T10:13:25.025Z</time></trkpt><trkpt lat="38.6402042" lon="-0.3212609"><ele>874.0</ele><time>2026-04-05T10:13:26.025Z</time></trkpt><trkpt lat="38.6402412" lon="-0.3211072"><ele>874.5</ele><time>2026-04-05T10:13:27.025Z</time></trkpt><trkpt lat="38.640273" lon="-0.3209498"><ele>875.0</ele><time>2026-04-05T10:13:28.024Z</time></trkpt><trkpt lat="38.64031" lon="-0.3207958"><ele>875.5</ele><time>2026-04-05T10:13:29.024Z</time></trkpt><trkpt lat="38.640366" lon="-0.320649"><ele>876.0</ele><time>2026-04-05T10:13:30.024Z</time></trkpt><trkpt lat="38.6404538" lon="-0.3204997"><ele>878.5</ele><time>2026-04-05T10:13:31.025Z</time></trkpt><trkpt lat="38.6405531" lon="-0.3203578"><ele>881.0</ele><time>2026-04-05T10:13:32.024Z</time></trkpt><trkpt lat="38.640634" lon="-0.3202233"><ele>883.5</ele><time>2026-04-05T10:13:33.025Z</time></trkpt><trkpt lat="38.6406988" lon="-0.3200932"><ele>886.0</ele><time>2026-04-05T10:13:34.024Z</time></trkpt><trkpt lat="38.6407633" lon="-0.3199931"><ele>886.0</ele><time>2026-04-05T10:13:35.024Z</time></trkpt><trkpt lat="38.6408463" lon="-0.3199281"><ele>885.9999999999999</ele><time>2026-04-05T10:13:36.024Z</time></trkpt><trkpt lat="38.6409375" lon="-0.319888"><ele>885.9999999999999</ele><time>2026-04-05T10:13:37.025Z</time></trkpt><trkpt lat="38.6410591" lon="-0.3199395"><ele>886.0</ele><time>2026-04-05T10:13:38.024Z</time></trkpt><trkpt lat="38.6411602" lon="-0.3199984"><ele>886.0</ele><time>2026-04-05T10:13:39.024Z</time></trkpt><trkpt lat="38.6412737" lon="-0.320027"><ele>888.6666666666666</ele><time>2026-04-05T10:13:40.024Z</time></trkpt><trkpt lat="38.6414437" lon="-0.3200646"><ele>891.3333333333333</ele><time>2026-04-05T10:13:41.025Z</time></trkpt><trkpt lat="38.641588" lon="-0.320125"><ele>894.0</ele><time>2026-04-05T10:13:42.025Z</time></trkpt><trkpt lat="38.6417191" lon="-0.3201976"><ele>894.0</ele><time>2026-04-05T10:13:43.025Z</time></trkpt><trkpt lat="38.6418361" lon="-0.3202458"><ele>894.0</ele><time>2026-04-05T10:13:44.024Z</time></trkpt><trkpt lat="38.6419619" lon="-0.3202693"><ele>894.0</ele><time>2026-04-05T10:13:45.025Z</time></trkpt><trkpt lat="38.6420866" lon="-0.3202549"><ele>894.0</ele><time>2026-04-05T10:13:46.025Z</time></trkpt><trkpt lat="38.642212" lon="-0.320175"><ele>898.0</ele><time>2026-04-05T10:13:47.025Z</time></trkpt><trkpt lat="38.6423074" lon="-0.3201007"><ele>902.0</ele><time>2026-04-05T10:13:48.025Z</time></trkpt><trkpt lat="38.6423746" lon="-0.3200049"><ele>906.0</ele><time>2026-04-05T10:13:49.024Z</time></trkpt><trkpt lat="38.6423988" lon="-0.3198689"><ele>910.0</ele><time>2026-04-05T10:13:50.024Z</time></trkpt><trkpt lat="38.6423813" lon="-0.3197038"><ele>911.0</ele><time>2026-04-05T10:13:51.025Z</time></trkpt><trkpt lat="38.6423393" lon="-0.3195256"><ele>912.0</ele><time>2026-04-05T10:13:52.025Z</time></trkpt><trkpt lat="38.6423223" lon="-0.3193181"><ele>913.0</ele><time>2026-04-05T10:13:53.025Z</time></trkpt><trkpt lat="38.6423235" lon="-0.3190863"><ele>914.25</ele><time>2026-04-05T10:13:54.025Z</time></trkpt><trkpt lat="38.6423354" lon="-0.3188821"><ele>915.5</ele><time>2026-04-05T10:13:55.025Z</time></trkpt><trkpt lat="38.6423377" lon="-0.3187033"><ele>916.75</ele><time>2026-04-05T10:13:56.024Z</time></trkpt><trkpt lat="38.6423336" lon="-0.3185413"><ele>918.0</ele><time>2026-04-05T10:13:57.024Z</time></trkpt><trkpt lat="38.642303" lon="-0.3184069"><ele>918.0</ele><time>2026-04-05T10:13:58.024Z</time></trkpt><trkpt lat="38.6422475" lon="-0.3183065"><ele>918.0</ele><time>2026-04-05T10:13:59.025Z</time></trkpt><trkpt lat="38.6421992" lon="-0.3182113"><ele>918.0</ele><time>2026-04-05T10:14:00.024Z</time></trkpt><trkpt lat="38.6421824" lon="-0.3180997"><ele>918.0</ele><time>2026-04-05T10:14:01.025Z</time></trkpt><trkpt lat="38.6421837" lon="-0.3179932"><ele>918.0</ele><time>2026-04-05T10:14:02.024Z</time></trkpt><trkpt lat="38.642262" lon="-0.3179477"><ele>918.0</ele><time>2026-04-05T10:14:03.025Z</time></trkpt><trkpt lat="38.6423256" lon="-0.3179521"><ele>918.0</ele><time>2026-04-05T10:14:04.024Z</time></trkpt><trkpt lat="38.6424181" lon="-0.3181094"><ele>918.0</ele><time>2026-04-05T10:14:06.025Z</time></trkpt><trkpt lat="38.6424558" lon="-0.3182712"><ele>918.0</ele><time>2026-04-05T10:14:07.024Z</time></trkpt><trkpt lat="38.6424903" lon="-0.318449"><ele>918.0</ele><time>2026-04-05T10:14:08.024Z</time></trkpt><trkpt lat="38.6425307" lon="-0.3185941"><ele>918.0</ele><time>2026-04-05T10:14:09.024Z</time></trkpt><trkpt lat="38.6425804" lon="-0.3187459"><ele>918.0</ele><time>2026-04-05T10:14:10.024Z</time></trkpt><trkpt lat="38.6426385" lon="-0.3188875"><ele>918.0</ele><time>2026-04-05T10:14:11.025Z</time></trkpt><trkpt lat="38.6426964" lon="-0.3190801"><ele>918.0</ele><time>2026-04-05T10:14:12.024Z</time></trkpt><trkpt lat="38.6427483" lon="-0.3192445"><ele>923.75</ele><time>2026-04-05T10:14:13.024Z</time></trkpt><trkpt lat="38.6428233" lon="-0.3193962"><ele>929.5</ele><time>2026-04-05T10:14:14.024Z</time></trkpt><trkpt lat="38.6429092" lon="-0.3195253"><ele>935.25</ele><time>2026-04-05T10:14:15.025Z</time></trkpt><trkpt lat="38.642983" lon="-0.319665"><ele>941.0</ele><time>2026-04-05T10:14:16.024Z</time></trkpt><trkpt lat="38.6430207" lon="-0.3198445"><ele>941.0</ele><time>2026-04-05T10:14:17.025Z</time></trkpt><trkpt lat="38.6430289" lon="-0.3200357"><ele>941.0</ele><time>2026-04-05T10:14:18.024Z</time></trkpt><trkpt lat="38.6430068" lon="-0.3202373"><ele>941.0</ele><time>2026-04-05T10:14:19.025Z</time></trkpt><trkpt lat="38.6429833" lon="-0.3204075"><ele>941.0</ele><time>2026-04-05T10:14:20.025Z</time></trkpt><trkpt lat="38.6429377" lon="-0.3205653"><ele>944.0</ele><time>2026-04-05T10:14:21.025Z</time></trkpt><trkpt lat="38.6428733" lon="-0.3206918"><ele>947.0</ele><time>2026-04-05T10:14:22.024Z</time></trkpt><trkpt lat="38.6427316" lon="-0.320828"><ele>950.0</ele><time>2026-04-05T10:14:23.025Z</time></trkpt><trkpt lat="38.6426168" lon="-0.3209663"><ele>943.0</ele><time>2026-04-05T10:14:24.025Z</time></trkpt><trkpt lat="38.6424682" lon="-0.3210538"><ele>936.0</ele><time>2026-04-05T10:14:25.024Z</time></trkpt><trkpt lat="38.6423226" lon="-0.3211126"><ele>929.0</ele><time>2026-04-05T10:14:26.024Z</time></trkpt><trkpt lat="38.6421593" lon="-0.3211731"><ele>929.0</ele><time>2026-04-05T10:14:27.024Z</time></trkpt><trkpt lat="38.6420145" lon="-0.3212379"><ele>929.0</ele><time>2026-04-05T10:14:28.025Z</time></trkpt><trkpt lat="38.6418764" lon="-0.3212737"><ele>929.0</ele><time>2026-04-05T10:14:29.024Z</time></trkpt><trkpt lat="38.641759" lon="-0.3212687"><ele>929.0</ele><time>2026-04-05T10:14:30.025Z</time></trkpt><trkpt lat="38.6416667" lon="-0.3212375"><ele>930.1666666666667</ele><time>2026-04-05T10:14:31.025Z</time></trkpt><trkpt lat="38.6415965" lon="-0.3212508"><ele>931.3333333333334</ele><time>2026-04-05T10:14:32.024Z</time></trkpt><trkpt lat="38.6415506" lon="-0.3213078"><ele>932.5</ele><time>2026-04-05T10:14:33.024Z</time></trkpt><trkpt lat="38.6415159" lon="-0.3214101"><ele>933.6666666666667</ele><time>2026-04-05T10:14:34.025Z</time></trkpt><trkpt lat="38.6414832" lon="-0.3215421"><ele>934.8333333333334</ele><time>2026-04-05T10:14:35.024Z</time></trkpt><trkpt lat="38.641486" lon="-0.3216726"><ele>936.0</ele><time>2026-04-05T10:14:36.025Z</time></trkpt><trkpt lat="38.6414992" lon="-0.3218002"><ele>936.0</ele><time>2026-04-05T10:14:37.024Z</time></trkpt><trkpt lat="38.6415313" lon="-0.321936"><ele>936.0</ele><time>2026-04-05T10:14:38.025Z</time></trkpt><trkpt lat="38.6415691" lon="-0.3220761"><ele>936.0</ele><time>2026-04-05T10:14:39.025Z</time></trkpt><trkpt lat="38.6416812" lon="-0.3222602"><ele>936.0</ele><time>2026-04-05T10:14:40.024Z</time></trkpt><trkpt lat="38.6417617" lon="-0.322423"><ele>934.75</ele><time>2026-04-05T10:14:41.024Z</time></trkpt><trkpt lat="38.6418878" lon="-0.3225647"><ele>933.5</ele><time>2026-04-05T10:14:42.025Z</time></trkpt><trkpt lat="38.6419562" lon="-0.3226875"><ele>932.25</ele><time>2026-04-05T10:14:43.024Z</time></trkpt><trkpt lat="38.642037" lon="-0.3228279"><ele>931.0</ele><time>2026-04-05T10:14:44.025Z</time></trkpt><trkpt lat="38.6420952" lon="-0.3228978"><ele>936.0</ele><time>2026-04-05T10:14:45.024Z</time></trkpt><trkpt lat="38.6421932" lon="-0.3228533"><ele>940.9999999999999</ele><time>2026-04-05T10:14:47.025Z</time></trkpt><trkpt lat="38.6422473" lon="-0.3227216"><ele>945.9999999999999</ele><time>2026-04-05T10:14:49.024Z</time></trkpt><trkpt lat="38.6422023" lon="-0.3226199"><ele>951.0</ele><time>2026-04-05T10:14:50.025Z</time></trkpt><trkpt lat="38.6421553" lon="-0.3225031"><ele>956.0</ele><time>2026-04-05T10:14:51.024Z</time></trkpt><trkpt lat="38.6421009" lon="-0.3223633"><ele>956.0</ele><time>2026-04-05T10:14:52.025Z</time></trkpt><trkpt lat="38.6420606" lon="-0.3222345"><ele>955.9999999999999</ele><time>2026-04-05T10:14:53.025Z</time></trkpt><trkpt lat="38.6420496" lon="-0.322095"><ele>955.9999999999999</ele><time>2026-04-05T10:14:54.025Z</time></trkpt><trkpt lat="38.6420839" lon="-0.3219525"><ele>956.0</ele><time>2026-04-05T10:14:55.024Z</time></trkpt><trkpt lat="38.6421367" lon="-0.3218338"><ele>956.0</ele><time>2026-04-05T10:14:56.024Z</time></trkpt><trkpt lat="38.6422099" lon="-0.3217226"><ele>955.0</ele><time>2026-04-05T10:14:57.024Z</time></trkpt><trkpt lat="38.6423844" lon="-0.3216967"><ele>954.0</ele><time>2026-04-05T10:14:58.025Z</time></trkpt><trkpt lat="38.642523" lon="-0.321663"><ele>953.0</ele><time>2026-04-05T10:14:59.024Z</time></trkpt><trkpt lat="38.6426578" lon="-0.3216373"><ele>953.0</ele><time>2026-04-05T10:15:00.025Z</time></trkpt><trkpt lat="38.6427853" lon="-0.3216103"><ele>953.0</ele><time>2026-04-05T10:15:01.025Z</time></trkpt><trkpt lat="38.6429083" lon="-0.3215465"><ele>953.0</ele><time>2026-04-05T10:15:02.024Z</time></trkpt><trkpt lat="38.6430373" lon="-0.3214335"><ele>953.0</ele><time>2026-04-05T10:15:03.025Z</time></trkpt><trkpt lat="38.6431646" lon="-0.3213137"><ele>952.0</ele><time>2026-04-05T10:15:04.024Z</time></trkpt><trkpt lat="38.6433069" lon="-0.3211302"><ele>951.0</ele><time>2026-04-05T10:15:05.025Z</time></trkpt><trkpt lat="38.6434237" lon="-0.320957"><ele>950.0</ele><time>2026-04-05T10:15:06.025Z</time></trkpt><trkpt lat="38.6435254" lon="-0.3207995"><ele>950.0</ele><time>2026-04-05T10:15:07.024Z</time></trkpt><trkpt lat="38.6436091" lon="-0.320627"><ele>950.0</ele><time>2026-04-05T10:15:08.024Z</time></trkpt><trkpt lat="38.643675" lon="-0.3204515"><ele>950.0</ele><time>2026-04-05T10:15:09.024Z</time></trkpt><trkpt lat="38.6437392" lon="-0.3202494"><ele>957.3333333333334</ele><time>2026-04-05T10:15:10.024Z</time></trkpt><trkpt lat="38.6437971" lon="-0.3200174"><ele>964.6666666666667</ele><time>2026-04-05T10:15:11.025Z</time></trkpt><trkpt lat="38.6438369" lon="-0.3198063"><ele>972.0</ele><time>2026-04-05T10:15:12.025Z</time></trkpt><trkpt lat="38.6438651" lon="-0.3196122"><ele>972.0</ele><time>2026-04-05T10:15:13.024Z</time></trkpt><trkpt lat="38.6438811" lon="-0.319442"><ele>972.0</ele><time>2026-04-05T10:15:14.025Z</time></trkpt><trkpt lat="38.6438912" lon="-0.3192915"><ele>972.0</ele><time>2026-04-05T10:15:15.025Z</time></trkpt><trkpt lat="38.6439044" lon="-0.3191527"><ele>972.0</ele><time>2026-04-05T10:15:16.024Z</time></trkpt><trkpt lat="38.6439385" lon="-0.3190383"><ele>972.0</ele><time>2026-04-05T10:15:17.025Z</time></trkpt><trkpt lat="38.6439848" lon="-0.3189432"><ele>972.0</ele><time>2026-04-05T10:15:18.024Z</time></trkpt><trkpt lat="38.6440809" lon="-0.3189095"><ele>972.0</ele><time>2026-04-05T10:15:19.025Z</time></trkpt><trkpt lat="38.6441474" lon="-0.3188886"><ele>972.0</ele><time>2026-04-05T10:15:20.025Z</time></trkpt><trkpt lat="38.6442196" lon="-0.3189576"><ele>972.0</ele><time>2026-04-05T10:15:21.024Z</time></trkpt><trkpt lat="38.6442879" lon="-0.3190482"><ele>972.0</ele><time>2026-04-05T10:15:22.024Z</time></trkpt><trkpt lat="38.6443644" lon="-0.3192036"><ele>972.0</ele><time>2026-04-05T10:15:23.024Z</time></trkpt><trkpt lat="38.6444552" lon="-0.3193652"><ele>972.0</ele><time>2026-04-05T10:15:24.025Z</time></trkpt><trkpt lat="38.6445542" lon="-0.3195789"><ele>972.0</ele><time>2026-04-05T10:15:25.024Z</time></trkpt><trkpt lat="38.6446448" lon="-0.3197842"><ele>971.6666666666667</ele><time>2026-04-05T10:15:26.024Z</time></trkpt><trkpt lat="38.6447342" lon="-0.3199958"><ele>971.3333333333334</ele><time>2026-04-05T10:15:27.025Z</time></trkpt><trkpt lat="38.6448304" lon="-0.3202225"><ele>971.0</ele><time>2026-04-05T10:15:28.024Z</time></trkpt><trkpt lat="38.6449236" lon="-0.3204569"><ele>976.0</ele><time>2026-04-05T10:15:29.024Z</time></trkpt><trkpt lat="38.645025" lon="-0.3206863"><ele>981.0</ele><time>2026-04-05T10:15:30.024Z</time></trkpt><trkpt lat="38.6451208" lon="-0.3209258"><ele>986.0</ele><time>2026-04-05T10:15:31.025Z</time></trkpt><trkpt lat="38.645201" lon="-0.3211423"><ele>986.0</ele><time>2026-04-05T10:15:32.024Z</time></trkpt><trkpt lat="38.6452935" lon="-0.3213795"><ele>986.0</ele><time>2026-04-05T10:15:33.025Z</time></trkpt><trkpt lat="38.645409" lon="-0.3216211"><ele>986.0</ele><time>2026-04-05T10:15:34.025Z</time></trkpt><trkpt lat="38.6455208" lon="-0.3218326"><ele>984.3333333333334</ele><time>2026-04-05T10:15:35.025Z</time></trkpt><trkpt lat="38.6456219" lon="-0.3220399"><ele>982.6666666666667</ele><time>2026-04-05T10:15:36.025Z</time></trkpt><trkpt lat="38.6457073" lon="-0.3222118"><ele>981.0</ele><time>2026-04-05T10:15:37.025Z</time></trkpt><trkpt lat="38.6457799" lon="-0.3223791"><ele>986.0</ele><time>2026-04-05T10:15:38.024Z</time></trkpt><trkpt lat="38.6458467" lon="-0.3225676"><ele>991.0</ele><time>2026-04-05T10:15:39.024Z</time></trkpt><trkpt lat="38.6458974" lon="-0.3227786"><ele>996.0</ele><time>2026-04-05T10:15:40.024Z</time></trkpt><trkpt lat="38.6459465" lon="-0.3229743"><ele>994.0</ele><time>2026-04-05T10:15:41.024Z</time></trkpt><trkpt lat="38.6460273" lon="-0.3231387"><ele>992.0</ele><time>2026-04-05T10:15:42.024Z</time></trkpt><trkpt lat="38.646101" lon="-0.3233304"><ele>990.0</ele><time>2026-04-05T10:15:43.024Z</time></trkpt><trkpt lat="38.6461485" lon="-0.3235394"><ele>990.0</ele><time>2026-04-05T10:15:44.024Z</time></trkpt><trkpt lat="38.6461955" lon="-0.3237226"><ele>990.0</ele><time>2026-04-05T10:15:45.025Z</time></trkpt><trkpt lat="38.6462536" lon="-0.3238846"><ele>990.0</ele><time>2026-04-05T10:15:46.025Z</time></trkpt><trkpt lat="38.6463348" lon="-0.3240227"><ele>990.0</ele><time>2026-04-05T10:15:47.025Z</time></trkpt><trkpt lat="38.6463858" lon="-0.3241534"><ele>993.2</ele><time>2026-04-05T10:15:48.024Z</time></trkpt><trkpt lat="38.6464212" lon="-0.3242642"><ele>996.4</ele><time>2026-04-05T10:15:49.025Z</time></trkpt><trkpt lat="38.6464681" lon="-0.3243656"><ele>999.5999999999999</ele><time>2026-04-05T10:15:50.025Z</time></trkpt><trkpt lat="38.6465419" lon="-0.3244202"><ele>1002.8</ele><time>2026-04-05T10:15:51.024Z</time></trkpt><trkpt lat="38.6466285" lon="-0.3244258"><ele>1006.0</ele><time>2026-04-05T10:15:52.025Z</time></trkpt><trkpt lat="38.6467197" lon="-0.3243705"><ele>1006.0</ele><time>2026-04-05T10:15:53.024Z</time></trkpt><trkpt lat="38.6467982" lon="-0.3242639"><ele>1006.0</ele><time>2026-04-05T10:15:54.025Z</time></trkpt><trkpt lat="38.6468676" lon="-0.3241285"><ele>1006.0</ele><time>2026-04-05T10:15:55.025Z</time></trkpt><trkpt lat="38.6469408" lon="-0.3240151"><ele>1006.0</ele><time>2026-04-05T10:15:56.025Z</time></trkpt><trkpt lat="38.6470362" lon="-0.3239408"><ele>1009.0</ele><time>2026-04-05T10:15:57.025Z</time></trkpt><trkpt lat="38.6471531" lon="-0.3239007"><ele>1012.0</ele><time>2026-04-05T10:15:58.025Z</time></trkpt><trkpt lat="38.6472844" lon="-0.3238849"><ele>1015.0</ele><time>2026-04-05T10:15:59.025Z</time></trkpt><trkpt lat="38.6474576" lon="-0.3238823"><ele>1018.0</ele><time>2026-04-05T10:16:00.024Z</time></trkpt><trkpt lat="38.6475994" lon="-0.323886"><ele>1018.75</ele><time>2026-04-05T10:16:01.024Z</time></trkpt><trkpt lat="38.6477451" lon="-0.3238898"><ele>1019.5</ele><time>2026-04-05T10:16:02.024Z</time></trkpt><trkpt lat="38.6478864" lon="-0.3238985"><ele>1020.25</ele><time>2026-04-05T10:16:03.025Z</time></trkpt><trkpt lat="38.6480208" lon="-0.3239035"><ele>1021.0</ele><time>2026-04-05T10:16:04.024Z</time></trkpt><trkpt lat="38.6481609" lon="-0.3239385"><ele>1021.0</ele><time>2026-04-05T10:16:05.025Z</time></trkpt><trkpt lat="38.6483295" lon="-0.3240055"><ele>1021.0</ele><time>2026-04-05T10:16:06.024Z</time></trkpt><trkpt lat="38.6484999" lon="-0.3240927"><ele>1021.0</ele><time>2026-04-05T10:16:07.025Z</time></trkpt><trkpt lat="38.648672" lon="-0.324187"><ele>1022.3333333333333</ele><time>2026-04-05T10:16:08.025Z</time></trkpt><trkpt lat="38.6488299" lon="-0.3242797"><ele>1023.6666666666667</ele><time>2026-04-05T10:16:09.024Z</time></trkpt><trkpt lat="38.6489769" lon="-0.3243652"><ele>1025.0</ele><time>2026-04-05T10:16:10.025Z</time></trkpt><trkpt lat="38.6491393" lon="-0.3244574"><ele>1025.0</ele><time>2026-04-05T10:16:11.024Z</time></trkpt><trkpt lat="38.6492868" lon="-0.3245342"><ele>1025.0</ele><time>2026-04-05T10:16:12.024Z</time></trkpt><trkpt lat="38.6494392" lon="-0.3246086"><ele>1025.0</ele><time>2026-04-05T10:16:13.025Z</time></trkpt><trkpt lat="38.6495629" lon="-0.3246676"><ele>1025.6</ele><time>2026-04-05T10:16:14.025Z</time></trkpt><trkpt lat="38.6496783" lon="-0.3247068"><ele>1026.2</ele><time>2026-04-05T10:16:15.024Z</time></trkpt><trkpt lat="38.649787" lon="-0.3247325"><ele>1026.8</ele><time>2026-04-05T10:16:16.024Z</time></trkpt><trkpt lat="38.6498857" lon="-0.3247436"><ele>1027.4</ele><time>2026-04-05T10:16:17.025Z</time></trkpt><trkpt lat="38.6499741" lon="-0.324754"><ele>1028.0</ele><time>2026-04-05T10:16:18.024Z</time></trkpt><trkpt lat="38.6500389" lon="-0.3247588"><ele>1028.0</ele><time>2026-04-05T10:16:19.025Z</time></trkpt><trkpt lat="38.6501211" lon="-0.3247162"><ele>1028.0</ele><time>2026-04-05T10:16:21.025Z</time></trkpt><trkpt lat="38.6502059" lon="-0.3247047"><ele>1028.0</ele><time>2026-04-05T10:16:24.025Z</time></trkpt><trkpt lat="38.6502438" lon="-0.3248005"><ele>1028.0</ele><time>2026-04-05T10:19:07.024Z</time></trkpt><trkpt lat="38.6503933" lon="-0.3248257"><ele>1028.0</ele><time>2026-04-05T10:19:09.024Z</time></trkpt><trkpt lat="38.6504895" lon="-0.3248148"><ele>1025.8</ele><time>2026-04-05T10:19:10.024Z</time></trkpt><trkpt lat="38.6505887" lon="-0.3247927"><ele>1023.5999999999999</ele><time>2026-04-05T10:19:11.024Z</time></trkpt><trkpt lat="38.6506933" lon="-0.3247472"><ele>1021.4000000000001</ele><time>2026-04-05T10:19:12.025Z</time></trkpt><trkpt lat="38.6508005" lon="-0.3246955"><ele>1019.2</ele><time>2026-04-05T10:19:13.024Z</time></trkpt><trkpt lat="38.6509073" lon="-0.3246383"><ele>1017.0</ele><time>2026-04-05T10:19:14.025Z</time></trkpt><trkpt lat="38.6510186" lon="-0.3245715"><ele>1016.25</ele><time>2026-04-05T10:19:15.024Z</time></trkpt><trkpt lat="38.6511343" lon="-0.324492"><ele>1015.5</ele><time>2026-04-05T10:19:16.025Z</time></trkpt><trkpt lat="38.6512519" lon="-0.3244016"><ele>1014.75</ele><time>2026-04-05T10:19:17.025Z</time></trkpt><trkpt lat="38.6513739" lon="-0.3243033"><ele>1014.0</ele><time>2026-04-05T10:19:18.025Z</time></trkpt><trkpt lat="38.6514967" lon="-0.3241945"><ele>1014.0</ele><time>2026-04-05T10:19:19.024Z</time></trkpt><trkpt lat="38.6516205" lon="-0.324073"><ele>1014.0</ele><time>2026-04-05T10:19:20.024Z</time></trkpt><trkpt lat="38.6517454" lon="-0.3239279"><ele>1014.0</ele><time>2026-04-05T10:19:21.025Z</time></trkpt><trkpt lat="38.651872" lon="-0.3237692"><ele>1009.3333333333333</ele><time>2026-04-05T10:19:22.024Z</time></trkpt><trkpt lat="38.6520001" lon="-0.3235958"><ele>1004.6666666666666</ele><time>2026-04-05T10:19:23.024Z</time></trkpt><trkpt lat="38.6521323" lon="-0.3234128"><ele>1000.0</ele><time>2026-04-05T10:19:24.024Z</time></trkpt><trkpt lat="38.6522597" lon="-0.3232327"><ele>1007.3333333333333</ele><time>2026-04-05T10:19:25.025Z</time></trkpt><trkpt lat="38.6523776" lon="-0.323063"><ele>1014.6666666666667</ele><time>2026-04-05T10:19:26.024Z</time></trkpt><trkpt lat="38.6524718" lon="-0.3228906"><ele>1022.0</ele><time>2026-04-05T10:19:27.025Z</time></trkpt><trkpt lat="38.6525674" lon="-0.3227313"><ele>1022.0</ele><time>2026-04-05T10:19:28.025Z</time></trkpt><trkpt lat="38.6526594" lon="-0.3225945"><ele>1022.0</ele><time>2026-04-05T10:19:29.024Z</time></trkpt><trkpt lat="38.6527723" lon="-0.3224889"><ele>1022.0</ele><time>2026-04-05T10:19:30.024Z</time></trkpt><trkpt lat="38.6528813" lon="-0.3224048"><ele>1022.0</ele><time>2026-04-05T10:19:31.025Z</time></trkpt><trkpt lat="38.6529929" lon="-0.3223393"><ele>1017.25</ele><time>2026-04-05T10:19:32.024Z</time></trkpt><trkpt lat="38.6531117" lon="-0.3222938"><ele>1012.5</ele><time>2026-04-05T10:19:33.025Z</time></trkpt><trkpt lat="38.6532479" lon="-0.3222831"><ele>1007.75</ele><time>2026-04-05T10:19:34.024Z</time></trkpt><trkpt lat="38.6533847" lon="-0.3222618"><ele>1003.0</ele><time>2026-04-05T10:19:35.025Z</time></trkpt><trkpt lat="38.6535333" lon="-0.3222355"><ele>1005.0</ele><time>2026-04-05T10:19:36.025Z</time></trkpt><trkpt lat="38.6536962" lon="-0.3221928"><ele>1007.0</ele><time>2026-04-05T10:19:37.024Z</time></trkpt><trkpt lat="38.6538861" lon="-0.322146"><ele>1009.0</ele><time>2026-04-05T10:19:38.025Z</time></trkpt><trkpt lat="38.654075" lon="-0.3220883"><ele>1009.0</ele><time>2026-04-05T10:19:39.024Z</time></trkpt><trkpt lat="38.6542557" lon="-0.3220309"><ele>1009.0</ele><time>2026-04-05T10:19:40.025Z</time></trkpt><trkpt lat="38.6544303" lon="-0.3219762"><ele>1009.0</ele><time>2026-04-05T10:19:41.024Z</time></trkpt><trkpt lat="38.6545977" lon="-0.3219077"><ele>1004.6666666666666</ele><time>2026-04-05T10:19:42.025Z</time></trkpt><trkpt lat="38.6547549" lon="-0.3218526"><ele>1000.3333333333333</ele><time>2026-04-05T10:19:43.025Z</time></trkpt><trkpt lat="38.6548956" lon="-0.3217653"><ele>996.0</ele><time>2026-04-05T10:19:44.025Z</time></trkpt><trkpt lat="38.6550233" lon="-0.3216463"><ele>996.0</ele><time>2026-04-05T10:19:45.025Z</time></trkpt><trkpt lat="38.6551321" lon="-0.321532"><ele>996.0</ele><time>2026-04-05T10:19:46.024Z</time></trkpt><trkpt lat="38.6552193" lon="-0.3214187"><ele>996.0</ele><time>2026-04-05T10:19:47.024Z</time></trkpt><trkpt lat="38.6552975" lon="-0.3212901"><ele>996.0</ele><time>2026-04-05T10:19:48.024Z</time></trkpt><trkpt lat="38.655375" lon="-0.3211953"><ele>996.0</ele><time>2026-04-05T10:19:49.024Z</time></trkpt><trkpt lat="38.6554716" lon="-0.3211333"><ele>996.0</ele><time>2026-04-05T10:19:50.025Z</time></trkpt><trkpt lat="38.6555702" lon="-0.3211055"><ele>996.0</ele><time>2026-04-05T10:19:51.024Z</time></trkpt><trkpt lat="38.6557138" lon="-0.321133"><ele>996.0</ele><time>2026-04-05T10:19:52.025Z</time></trkpt><trkpt lat="38.6558512" lon="-0.3211928"><ele>996.0</ele><time>2026-04-05T10:19:53.024Z</time></trkpt><trkpt lat="38.6560214" lon="-0.321259"><ele>996.0</ele><time>2026-04-05T10:19:54.024Z</time></trkpt><trkpt lat="38.6561614" lon="-0.3212787"><ele>996.0</ele><time>2026-04-05T10:19:55.025Z</time></trkpt><trkpt lat="38.6563057" lon="-0.3212683"><ele>994.25</ele><time>2026-04-05T10:19:56.024Z</time></trkpt><trkpt lat="38.656451" lon="-0.3212419"><ele>992.5</ele><time>2026-04-05T10:19:57.024Z</time></trkpt><trkpt lat="38.6565948" lon="-0.3212249"><ele>990.75</ele><time>2026-04-05T10:19:58.024Z</time></trkpt><trkpt lat="38.6567514" lon="-0.3212174"><ele>989.0</ele><time>2026-04-05T10:19:59.025Z</time></trkpt><trkpt lat="38.6569016" lon="-0.3212348"><ele>984.6666666666667</ele><time>2026-04-05T10:20:00.024Z</time></trkpt><trkpt lat="38.6570596" lon="-0.3212844"><ele>980.3333333333333</ele><time>2026-04-05T10:20:01.024Z</time></trkpt><trkpt lat="38.6572094" lon="-0.3213308"><ele>976.0</ele><time>2026-04-05T10:20:02.025Z</time></trkpt><trkpt lat="38.6573559" lon="-0.3213525"><ele>976.0</ele><time>2026-04-05T10:20:03.024Z</time></trkpt><trkpt lat="38.6574802" lon="-0.3213642"><ele>975.9999999999999</ele><time>2026-04-05T10:20:04.025Z</time></trkpt><trkpt lat="38.6575918" lon="-0.3213666"><ele>975.9999999999999</ele><time>2026-04-05T10:20:05.025Z</time></trkpt><trkpt lat="38.657681" lon="-0.3213892"><ele>976.0</ele><time>2026-04-05T10:20:06.025Z</time></trkpt><trkpt lat="38.6577436" lon="-0.3214394"><ele>976.0</ele><time>2026-04-05T10:20:07.024Z</time></trkpt><trkpt lat="38.6577723" lon="-0.3215143"><ele>974.5999999999999</ele><time>2026-04-05T10:20:08.024Z</time></trkpt><trkpt lat="38.6577566" lon="-0.3216115"><ele>973.1999999999999</ele><time>2026-04-05T10:20:09.024Z</time></trkpt><trkpt lat="38.6576991" lon="-0.3216967"><ele>971.8000000000001</ele><time>2026-04-05T10:20:10.025Z</time></trkpt><trkpt lat="38.6576208" lon="-0.3217865"><ele>970.4000000000001</ele><time>2026-04-05T10:20:11.024Z</time></trkpt><trkpt lat="38.657521" lon="-0.3219021"><ele>969.0</ele><time>2026-04-05T10:20:12.025Z</time></trkpt><trkpt lat="38.6574235" lon="-0.3220418"><ele>969.0</ele><time>2026-04-05T10:20:13.024Z</time></trkpt><trkpt lat="38.6573324" lon="-0.3221796"><ele>969.0</ele><time>2026-04-05T10:20:14.024Z</time></trkpt><trkpt lat="38.6572436" lon="-0.3222967"><ele>969.0</ele><time>2026-04-05T10:20:15.025Z</time></trkpt><trkpt lat="38.6571324" lon="-0.3223824"><ele>969.0</ele><time>2026-04-05T10:20:16.025Z</time></trkpt><trkpt lat="38.6570056" lon="-0.3224493"><ele>966.5</ele><time>2026-04-05T10:20:17.024Z</time></trkpt><trkpt lat="38.6568657" lon="-0.3225138"><ele>964.0</ele><time>2026-04-05T10:20:18.024Z</time></trkpt><trkpt lat="38.6567291" lon="-0.3225574"><ele>961.5</ele><time>2026-04-05T10:20:19.025Z</time></trkpt><trkpt lat="38.6566121" lon="-0.3226027"><ele>959.0</ele><time>2026-04-05T10:20:20.024Z</time></trkpt><trkpt lat="38.6565175" lon="-0.3226375"><ele>959.0000000000001</ele><time>2026-04-05T10:20:21.024Z</time></trkpt><trkpt lat="38.6564361" lon="-0.3226804"><ele>959.0</ele><time>2026-04-05T10:20:22.024Z</time></trkpt><trkpt lat="38.6563693" lon="-0.3227285"><ele>959.0</ele><time>2026-04-05T10:20:23.024Z</time></trkpt><trkpt lat="38.656386" lon="-0.3228286"><ele>959.0</ele><time>2026-04-05T10:20:24.024Z</time></trkpt><trkpt lat="38.6564306" lon="-0.3229164"><ele>959.0000000000001</ele><time>2026-04-05T10:20:25.024Z</time></trkpt><trkpt lat="38.6565128" lon="-0.3229882"><ele>959.0</ele><time>2026-04-05T10:20:26.025Z</time></trkpt><trkpt lat="38.6566185" lon="-0.3230609"><ele>955.6666666666667</ele><time>2026-04-05T10:20:27.025Z</time></trkpt><trkpt lat="38.6567278" lon="-0.3231351"><ele>952.3333333333333</ele><time>2026-04-05T10:20:28.025Z</time></trkpt><trkpt lat="38.656906" lon="-0.3232595"><ele>949.0</ele><time>2026-04-05T10:20:29.024Z</time></trkpt><trkpt lat="38.6570415" lon="-0.3233696"><ele>948.25</ele><time>2026-04-05T10:20:30.024Z</time></trkpt><trkpt lat="38.6571668" lon="-0.3234803"><ele>947.5</ele><time>2026-04-05T10:20:31.025Z</time></trkpt><trkpt lat="38.6572759" lon="-0.3235921"><ele>946.75</ele><time>2026-04-05T10:20:32.025Z</time></trkpt><trkpt lat="38.6573771" lon="-0.3236913"><ele>946.0</ele><time>2026-04-05T10:20:33.025Z</time></trkpt><trkpt lat="38.6574705" lon="-0.3237627"><ele>946.0</ele><time>2026-04-05T10:20:34.024Z</time></trkpt><trkpt lat="38.6575601" lon="-0.3237946"><ele>945.9999999999999</ele><time>2026-04-05T10:20:35.024Z</time></trkpt><trkpt lat="38.6576504" lon="-0.3237765"><ele>945.9999999999999</ele><time>2026-04-05T10:20:36.025Z</time></trkpt><trkpt lat="38.6577425" lon="-0.3237025"><ele>946.0</ele><time>2026-04-05T10:20:37.024Z</time></trkpt><trkpt lat="38.6578301" lon="-0.3235895"><ele>946.0</ele><time>2026-04-05T10:20:38.024Z</time></trkpt><trkpt lat="38.6579249" lon="-0.3234764"><ele>945.0</ele><time>2026-04-05T10:20:39.025Z</time></trkpt><trkpt lat="38.6580418" lon="-0.3233973"><ele>944.0</ele><time>2026-04-05T10:20:40.025Z</time></trkpt><trkpt lat="38.6581775" lon="-0.3233541"><ele>943.0</ele><time>2026-04-05T10:20:41.024Z</time></trkpt><trkpt lat="38.6583198" lon="-0.3233445"><ele>942.0</ele><time>2026-04-05T10:20:42.024Z</time></trkpt><trkpt lat="38.6584607" lon="-0.3233552"><ele>942.0</ele><time>2026-04-05T10:20:43.024Z</time></trkpt><trkpt lat="38.6585882" lon="-0.3233857"><ele>942.0</ele><time>2026-04-05T10:20:44.025Z</time></trkpt><trkpt lat="38.658697" lon="-0.323426"><ele>942.0</ele><time>2026-04-05T10:20:45.025Z</time></trkpt><trkpt lat="38.6587906" lon="-0.3234859"><ele>942.0</ele><time>2026-04-05T10:20:46.024Z</time></trkpt><trkpt lat="38.6588593" lon="-0.3235767"><ele>942.0</ele><time>2026-04-05T10:20:47.025Z</time></trkpt><trkpt lat="38.6588964" lon="-0.3237035"><ele>939.25</ele><time>2026-04-05T10:20:48.025Z</time></trkpt><trkpt lat="38.6588989" lon="-0.3238703"><ele>936.5</ele><time>2026-04-05T10:20:49.025Z</time></trkpt><trkpt lat="38.6588822" lon="-0.3240444"><ele>933.75</ele><time>2026-04-05T10:20:50.025Z</time></trkpt><trkpt lat="38.6588327" lon="-0.3242134"><ele>931.0</ele><time>2026-04-05T10:20:51.025Z</time></trkpt><trkpt lat="38.6587837" lon="-0.3243622"><ele>929.4</ele><time>2026-04-05T10:20:52.024Z</time></trkpt><trkpt lat="38.6587508" lon="-0.3244911"><ele>927.8</ele><time>2026-04-05T10:20:53.025Z</time></trkpt><trkpt lat="38.6587331" lon="-0.3246113"><ele>926.1999999999999</ele><time>2026-04-05T10:20:54.024Z</time></trkpt><trkpt lat="38.6587517" lon="-0.324706"><ele>924.5999999999999</ele><time>2026-04-05T10:20:55.024Z</time></trkpt><trkpt lat="38.6588464" lon="-0.3247267"><ele>923.0</ele><time>2026-04-05T10:20:56.024Z</time></trkpt><trkpt lat="38.6589302" lon="-0.3247301"><ele>923.0</ele><time>2026-04-05T10:20:57.025Z</time></trkpt><trkpt lat="38.6590068" lon="-0.3247146"><ele>923.0</ele><time>2026-04-05T10:20:58.024Z</time></trkpt><trkpt lat="38.6590973" lon="-0.3246694"><ele>923.0</ele><time>2026-04-05T10:20:59.025Z</time></trkpt><trkpt lat="38.6591821" lon="-0.3245747"><ele>923.0</ele><time>2026-04-05T10:21:00.024Z</time></trkpt><trkpt lat="38.6592472" lon="-0.3244506"><ele>923.0</ele><time>2026-04-05T10:21:01.024Z</time></trkpt><trkpt lat="38.6593032" lon="-0.3243063"><ele>923.0</ele><time>2026-04-05T10:21:02.024Z</time></trkpt><trkpt lat="38.6593154" lon="-0.3241152"><ele>923.0</ele><time>2026-04-05T10:21:03.025Z</time></trkpt><trkpt lat="38.659334" lon="-0.3239183"><ele>923.0</ele><time>2026-04-05T10:21:04.025Z</time></trkpt><trkpt lat="38.6593566" lon="-0.3237227"><ele>925.6666666666667</ele><time>2026-04-05T10:21:05.025Z</time></trkpt><trkpt lat="38.6593874" lon="-0.3235019"><ele>928.3333333333333</ele><time>2026-04-05T10:21:06.024Z</time></trkpt><trkpt lat="38.6594424" lon="-0.3232886"><ele>931.0</ele><time>2026-04-05T10:21:07.025Z</time></trkpt><trkpt lat="38.6595271" lon="-0.3230839"><ele>922.3333333333333</ele><time>2026-04-05T10:21:08.024Z</time></trkpt><trkpt lat="38.6596122" lon="-0.3228675"><ele>913.6666666666667</ele><time>2026-04-05T10:21:09.024Z</time></trkpt><trkpt lat="38.659671" lon="-0.322656"><ele>905.0</ele><time>2026-04-05T10:21:10.024Z</time></trkpt><trkpt lat="38.6597217" lon="-0.3224417"><ele>905.0</ele><time>2026-04-05T10:21:11.025Z</time></trkpt><trkpt lat="38.6597386" lon="-0.3222603"><ele>905.0</ele><time>2026-04-05T10:21:12.025Z</time></trkpt><trkpt lat="38.6597491" lon="-0.3220812"><ele>905.0</ele><time>2026-04-05T10:21:13.024Z</time></trkpt><trkpt lat="38.6597336" lon="-0.3219415"><ele>905.0</ele><time>2026-04-05T10:21:14.025Z</time></trkpt><trkpt lat="38.6597189" lon="-0.3218044"><ele>905.6</ele><time>2026-04-05T10:21:15.025Z</time></trkpt><trkpt lat="38.6597317" lon="-0.3216792"><ele>906.2</ele><time>2026-04-05T10:21:16.025Z</time></trkpt><trkpt lat="38.6597928" lon="-0.3215723"><ele>906.8</ele><time>2026-04-05T10:21:17.025Z</time></trkpt><trkpt lat="38.6598609" lon="-0.321484"><ele>907.4</ele><time>2026-04-05T10:21:18.025Z</time></trkpt><trkpt lat="38.6599496" lon="-0.3214458"><ele>908.0</ele><time>2026-04-05T10:21:19.024Z</time></trkpt><trkpt lat="38.6600737" lon="-0.3214497"><ele>908.0</ele><time>2026-04-05T10:21:20.024Z</time></trkpt><trkpt lat="38.6601867" lon="-0.3214198"><ele>908.0</ele><time>2026-04-05T10:21:21.025Z</time></trkpt><trkpt lat="38.6603518" lon="-0.3213473"><ele>908.0</ele><time>2026-04-05T10:21:22.024Z</time></trkpt><trkpt lat="38.6604705" lon="-0.3212794"><ele>908.0</ele><time>2026-04-05T10:21:23.024Z</time></trkpt><trkpt lat="38.6605564" lon="-0.3211437"><ele>907.25</ele><time>2026-04-05T10:21:24.024Z</time></trkpt><trkpt lat="38.6606259" lon="-0.3210074"><ele>906.5</ele><time>2026-04-05T10:21:25.025Z</time></trkpt><trkpt lat="38.6606623" lon="-0.3208369"><ele>905.75</ele><time>2026-04-05T10:21:26.024Z</time></trkpt><trkpt lat="38.6607195" lon="-0.3206741"><ele>905.0</ele><time>2026-04-05T10:21:27.025Z</time></trkpt><trkpt lat="38.660789" lon="-0.320526"><ele>905.25</ele><time>2026-04-05T10:21:28.024Z</time></trkpt><trkpt lat="38.6608884" lon="-0.3203994"><ele>905.5</ele><time>2026-04-05T10:21:29.025Z</time></trkpt><trkpt lat="38.6610267" lon="-0.3202974"><ele>905.75</ele><time>2026-04-05T10:21:30.024Z</time></trkpt><trkpt lat="38.6611655" lon="-0.320238"><ele>906.0</ele><time>2026-04-05T10:21:31.025Z</time></trkpt><trkpt lat="38.6613047" lon="-0.3202195"><ele>906.0</ele><time>2026-04-05T10:21:32.024Z</time></trkpt><trkpt lat="38.6614671" lon="-0.3202435"><ele>906.0</ele><time>2026-04-05T10:21:33.025Z</time></trkpt><trkpt lat="38.6616435" lon="-0.3202686"><ele>906.0</ele><time>2026-04-05T10:21:34.024Z</time></trkpt><trkpt lat="38.6617937" lon="-0.3202882"><ele>900.0</ele><time>2026-04-05T10:21:35.024Z</time></trkpt><trkpt lat="38.6619527" lon="-0.3202606"><ele>894.0</ele><time>2026-04-05T10:21:36.025Z</time></trkpt><trkpt lat="38.6621187" lon="-0.320203"><ele>888.0</ele><time>2026-04-05T10:21:37.024Z</time></trkpt><trkpt lat="38.6622672" lon="-0.3201294"><ele>888.0</ele><time>2026-04-05T10:21:38.024Z</time></trkpt><trkpt lat="38.6624051" lon="-0.3200524"><ele>888.0</ele><time>2026-04-05T10:21:39.024Z</time></trkpt><trkpt lat="38.6625132" lon="-0.3199792"><ele>888.0</ele><time>2026-04-05T10:21:40.025Z</time></trkpt><trkpt lat="38.6626076" lon="-0.3199036"><ele>888.0</ele><time>2026-04-05T10:21:41.025Z</time></trkpt><trkpt lat="38.6626656" lon="-0.319786"><ele>890.8</ele><time>2026-04-05T10:21:42.024Z</time></trkpt><trkpt lat="38.6627129" lon="-0.3196632"><ele>893.5999999999999</ele><time>2026-04-05T10:21:43.024Z</time></trkpt><trkpt lat="38.6627349" lon="-0.3195039"><ele>896.4000000000001</ele><time>2026-04-05T10:21:44.025Z</time></trkpt><trkpt lat="38.6627544" lon="-0.319373"><ele>899.2</ele><time>2026-04-05T10:21:45.024Z</time></trkpt><trkpt lat="38.6627929" lon="-0.3192681"><ele>902.0</ele><time>2026-04-05T10:21:46.025Z</time></trkpt><trkpt lat="38.6628277" lon="-0.3191912"><ele>893.5</ele><time>2026-04-05T10:21:47.024Z</time></trkpt><trkpt lat="38.6628959" lon="-0.3191529"><ele>885.0</ele><time>2026-04-05T10:21:48.024Z</time></trkpt><trkpt lat="38.6629964" lon="-0.3192571"><ele>876.5</ele><time>2026-04-05T10:21:50.025Z</time></trkpt><trkpt lat="38.6629632" lon="-0.319489"><ele>868.0</ele><time>2026-04-05T10:21:52.025Z</time></trkpt><trkpt lat="38.6629294" lon="-0.3196555"><ele>865.0</ele><time>2026-04-05T10:21:53.024Z</time></trkpt><trkpt lat="38.6629088" lon="-0.3198198"><ele>862.0</ele><time>2026-04-05T10:21:54.025Z</time></trkpt><trkpt lat="38.6628792" lon="-0.3199763"><ele>859.0</ele><time>2026-04-05T10:21:55.024Z</time></trkpt><trkpt lat="38.6628039" lon="-0.3201182"><ele>856.0</ele><time>2026-04-05T10:21:56.024Z</time></trkpt><trkpt lat="38.662708" lon="-0.3202237"><ele>859.3333333333333</ele><time>2026-04-05T10:21:57.024Z</time></trkpt><trkpt lat="38.6625849" lon="-0.3203412"><ele>862.6666666666667</ele><time>2026-04-05T10:21:58.025Z</time></trkpt><trkpt lat="38.6624564" lon="-0.3204581"><ele>866.0</ele><time>2026-04-05T10:21:59.025Z</time></trkpt><trkpt lat="38.6623242" lon="-0.3205796"><ele>866.0</ele><time>2026-04-05T10:22:00.024Z</time></trkpt><trkpt lat="38.6621954" lon="-0.3206843"><ele>866.0</ele><time>2026-04-05T10:22:01.025Z</time></trkpt><trkpt lat="38.6620633" lon="-0.3207771"><ele>866.0</ele><time>2026-04-05T10:22:02.024Z</time></trkpt><trkpt lat="38.6619447" lon="-0.3208546"><ele>866.0</ele><time>2026-04-05T10:22:03.024Z</time></trkpt><trkpt lat="38.6618312" lon="-0.3209116"><ele>866.1999999999999</ele><time>2026-04-05T10:22:04.024Z</time></trkpt><trkpt lat="38.6617309" lon="-0.3209731"><ele>866.3999999999999</ele><time>2026-04-05T10:22:05.024Z</time></trkpt><trkpt lat="38.6616675" lon="-0.3210709"><ele>866.6</ele><time>2026-04-05T10:22:06.024Z</time></trkpt><trkpt lat="38.6616334" lon="-0.3211991"><ele>866.8</ele><time>2026-04-05T10:22:07.024Z</time></trkpt><trkpt lat="38.6616396" lon="-0.3213548"><ele>867.0</ele><time>2026-04-05T10:22:08.025Z</time></trkpt><trkpt lat="38.6616572" lon="-0.3215243"><ele>867.0</ele><time>2026-04-05T10:22:09.024Z</time></trkpt><trkpt lat="38.6617103" lon="-0.3216851"><ele>867.0</ele><time>2026-04-05T10:22:10.024Z</time></trkpt><trkpt lat="38.6617795" lon="-0.3218359"><ele>867.0</ele><time>2026-04-05T10:22:11.024Z</time></trkpt><trkpt lat="38.6618458" lon="-0.3219929"><ele>867.0</ele><time>2026-04-05T10:22:12.025Z</time></trkpt><trkpt lat="38.6618849" lon="-0.3221554"><ele>864.3333333333333</ele><time>2026-04-05T10:22:13.024Z</time></trkpt><trkpt lat="38.6618558" lon="-0.3223628"><ele>861.6666666666666</ele><time>2026-04-05T10:22:14.024Z</time></trkpt><trkpt lat="38.6618123" lon="-0.3225751"><ele>859.0</ele><time>2026-04-05T10:22:15.025Z</time></trkpt><trkpt lat="38.6617781" lon="-0.3227876"><ele>859.0</ele><time>2026-04-05T10:22:16.025Z</time></trkpt><trkpt lat="38.6617556" lon="-0.3229962"><ele>859.0</ele><time>2026-04-05T10:22:17.025Z</time></trkpt><trkpt lat="38.6617477" lon="-0.3231807"><ele>859.0</ele><time>2026-04-05T10:22:18.025Z</time></trkpt><trkpt lat="38.6617494" lon="-0.3233407"><ele>859.0</ele><time>2026-04-05T10:22:19.024Z</time></trkpt><trkpt lat="38.6617777" lon="-0.3234683"><ele>858.2</ele><time>2026-04-05T10:22:20.024Z</time></trkpt><trkpt lat="38.6618454" lon="-0.3235552"><ele>857.4000000000001</ele><time>2026-04-05T10:22:21.024Z</time></trkpt><trkpt lat="38.661943" lon="-0.3236085"><ele>856.6</ele><time>2026-04-05T10:22:22.024Z</time></trkpt><trkpt lat="38.6620584" lon="-0.3236298"><ele>855.8</ele><time>2026-04-05T10:22:23.025Z</time></trkpt><trkpt lat="38.6621873" lon="-0.3236339"><ele>855.0</ele><time>2026-04-05T10:22:24.024Z</time></trkpt><trkpt lat="38.6623365" lon="-0.3236177"><ele>852.3333333333333</ele><time>2026-04-05T10:22:25.025Z</time></trkpt><trkpt lat="38.6624969" lon="-0.3235866"><ele>849.6666666666666</ele><time>2026-04-05T10:22:26.025Z</time></trkpt><trkpt lat="38.6626678" lon="-0.3235464"><ele>847.0</ele><time>2026-04-05T10:22:27.025Z</time></trkpt><trkpt lat="38.6628392" lon="-0.3235041"><ele>847.0</ele><time>2026-04-05T10:22:28.024Z</time></trkpt><trkpt lat="38.6629999" lon="-0.3234176"><ele>847.0</ele><time>2026-04-05T10:22:29.025Z</time></trkpt><trkpt lat="38.6631599" lon="-0.3232878"><ele>847.0</ele><time>2026-04-05T10:22:30.025Z</time></trkpt><trkpt lat="38.6633062" lon="-0.3231665"><ele>844.6666666666666</ele><time>2026-04-05T10:22:31.024Z</time></trkpt><trkpt lat="38.6634515" lon="-0.3230234"><ele>842.3333333333333</ele><time>2026-04-05T10:22:32.024Z</time></trkpt><trkpt lat="38.663574" lon="-0.3228498"><ele>840.0</ele><time>2026-04-05T10:22:33.025Z</time></trkpt><trkpt lat="38.6637212" lon="-0.3227232"><ele>840.0</ele><time>2026-04-05T10:22:34.025Z</time></trkpt><trkpt lat="38.6638891" lon="-0.3226213"><ele>840.0</ele><time>2026-04-05T10:22:35.024Z</time></trkpt><trkpt lat="38.6640554" lon="-0.3225349"><ele>840.0</ele><time>2026-04-05T10:22:36.024Z</time></trkpt><trkpt lat="38.6642239" lon="-0.3224619"><ele>840.0</ele><time>2026-04-05T10:22:37.024Z</time></trkpt><trkpt lat="38.6643981" lon="-0.3223804"><ele>840.0</ele><time>2026-04-05T10:22:38.025Z</time></trkpt><trkpt lat="38.6645445" lon="-0.3223202"><ele>840.0</ele><time>2026-04-05T10:22:39.024Z</time></trkpt><trkpt lat="38.6646894" lon="-0.3222821"><ele>838.3333333333333</ele><time>2026-04-05T10:22:40.024Z</time></trkpt><trkpt lat="38.6648345" lon="-0.3222991"><ele>836.6666666666666</ele><time>2026-04-05T10:22:41.024Z</time></trkpt><trkpt lat="38.6649798" lon="-0.3223668"><ele>835.0</ele><time>2026-04-05T10:22:42.025Z</time></trkpt><trkpt lat="38.6651397" lon="-0.3224494"><ele>825.3333333333333</ele><time>2026-04-05T10:22:43.024Z</time></trkpt><trkpt lat="38.6652998" lon="-0.3225438"><ele>815.6666666666667</ele><time>2026-04-05T10:22:44.024Z</time></trkpt><trkpt lat="38.6654525" lon="-0.3226568"><ele>806.0</ele><time>2026-04-05T10:22:45.025Z</time></trkpt><trkpt lat="38.6656053" lon="-0.3227916"><ele>806.0</ele><time>2026-04-05T10:22:46.024Z</time></trkpt><trkpt lat="38.66575" lon="-0.322943"><ele>806.0</ele><time>2026-04-05T10:22:47.025Z</time></trkpt><trkpt lat="38.6658849" lon="-0.3230921"><ele>806.0</ele><time>2026-04-05T10:22:48.024Z</time></trkpt><trkpt lat="38.6660117" lon="-0.3232287"><ele>809.0</ele><time>2026-04-05T10:22:49.024Z</time></trkpt><trkpt lat="38.6661238" lon="-0.3233478"><ele>812.0</ele><time>2026-04-05T10:22:50.024Z</time></trkpt><trkpt lat="38.666248" lon="-0.3234321"><ele>815.0</ele><time>2026-04-05T10:22:51.025Z</time></trkpt><trkpt lat="38.6663886" lon="-0.3234611"><ele>818.0</ele><time>2026-04-05T10:22:52.025Z</time></trkpt><trkpt lat="38.6665222" lon="-0.3234707"><ele>818.0</ele><time>2026-04-05T10:22:53.025Z</time></trkpt><trkpt lat="38.6666543" lon="-0.3234547"><ele>818.0</ele><time>2026-04-05T10:22:54.024Z</time></trkpt><trkpt lat="38.6667703" lon="-0.3234533"><ele>818.0</ele><time>2026-04-05T10:22:55.024Z</time></trkpt><trkpt lat="38.666875" lon="-0.3234747"><ele>818.0</ele><time>2026-04-05T10:22:56.024Z</time></trkpt><trkpt lat="38.6669635" lon="-0.3235624"><ele>813.3333333333334</ele><time>2026-04-05T10:22:57.024Z</time></trkpt><trkpt lat="38.6670385" lon="-0.3236787"><ele>808.6666666666667</ele><time>2026-04-05T10:22:58.025Z</time></trkpt><trkpt lat="38.6671021" lon="-0.3238156"><ele>804.0</ele><time>2026-04-05T10:22:59.024Z</time></trkpt><trkpt lat="38.6671731" lon="-0.324073"><ele>804.0</ele><time>2026-04-05T10:23:00.025Z</time></trkpt><trkpt lat="38.6672428" lon="-0.3242756"><ele>804.0</ele><time>2026-04-05T10:23:01.025Z</time></trkpt><trkpt lat="38.6673235" lon="-0.3244758"><ele>804.0</ele><time>2026-04-05T10:23:02.025Z</time></trkpt><trkpt lat="38.6673927" lon="-0.3246753"><ele>804.25</ele><time>2026-04-05T10:23:03.025Z</time></trkpt><trkpt lat="38.6674367" lon="-0.3248111"><ele>804.5</ele><time>2026-04-05T10:23:04.024Z</time></trkpt><trkpt lat="38.6674649" lon="-0.3249681"><ele>804.75</ele><time>2026-04-05T10:23:05.024Z</time></trkpt><trkpt lat="38.6674635" lon="-0.3251159"><ele>805.0</ele><time>2026-04-05T10:23:06.024Z</time></trkpt><trkpt lat="38.6674049" lon="-0.3252755"><ele>805.0</ele><time>2026-04-05T10:23:07.024Z</time></trkpt><trkpt lat="38.6673335" lon="-0.3254169"><ele>805.0</ele><time>2026-04-05T10:23:08.024Z</time></trkpt><trkpt lat="38.6672265" lon="-0.3255728"><ele>805.0</ele><time>2026-04-05T10:23:09.025Z</time></trkpt><trkpt lat="38.6671221" lon="-0.3257295"><ele>807.3333333333333</ele><time>2026-04-05T10:23:10.025Z</time></trkpt><trkpt lat="38.6670252" lon="-0.3258962"><ele>809.6666666666667</ele><time>2026-04-05T10:23:11.024Z</time></trkpt><trkpt lat="38.6669557" lon="-0.3260766"><ele>812.0</ele><time>2026-04-05T10:23:12.024Z</time></trkpt><trkpt lat="38.6669053" lon="-0.3262591"><ele>809.5</ele><time>2026-04-05T10:23:13.025Z</time></trkpt><trkpt lat="38.6668573" lon="-0.3264444"><ele>807.0</ele><time>2026-04-05T10:23:14.024Z</time></trkpt><trkpt lat="38.6668378" lon="-0.3266168"><ele>804.5</ele><time>2026-04-05T10:23:15.025Z</time></trkpt><trkpt lat="38.6668247" lon="-0.3267751"><ele>802.0</ele><time>2026-04-05T10:23:16.024Z</time></trkpt><trkpt lat="38.6668238" lon="-0.3269082"><ele>802.0</ele><time>2026-04-05T10:23:17.025Z</time></trkpt><trkpt lat="38.6668545" lon="-0.3270286"><ele>802.0</ele><time>2026-04-05T10:23:18.025Z</time></trkpt><trkpt lat="38.6669271" lon="-0.3271161"><ele>802.0</ele><time>2026-04-05T10:23:19.024Z</time></trkpt><trkpt lat="38.6670284" lon="-0.3271772"><ele>802.0</ele><time>2026-04-05T10:23:20.024Z</time></trkpt><trkpt lat="38.6671305" lon="-0.3272229"><ele>802.0</ele><time>2026-04-05T10:23:21.024Z</time></trkpt><trkpt lat="38.6672774" lon="-0.3271537"><ele>798.25</ele><time>2026-04-05T10:23:22.024Z</time></trkpt><trkpt lat="38.667393" lon="-0.3270608"><ele>794.5</ele><time>2026-04-05T10:23:23.024Z</time></trkpt><trkpt lat="38.6674878" lon="-0.3269217"><ele>790.75</ele><time>2026-04-05T10:23:24.025Z</time></trkpt><trkpt lat="38.6675811" lon="-0.3267803"><ele>787.0</ele><time>2026-04-05T10:23:25.024Z</time></trkpt><trkpt lat="38.6677066" lon="-0.3266603"><ele>787.6666666666666</ele><time>2026-04-05T10:23:26.024Z</time></trkpt><trkpt lat="38.6678473" lon="-0.3265535"><ele>788.3333333333333</ele><time>2026-04-05T10:23:27.025Z</time></trkpt><trkpt lat="38.6679692" lon="-0.3264535"><ele>789.0</ele><time>2026-04-05T10:23:28.025Z</time></trkpt><trkpt lat="38.6680895" lon="-0.326356"><ele>789.0</ele><time>2026-04-05T10:23:29.024Z</time></trkpt><trkpt lat="38.668194" lon="-0.3262839"><ele>789.0</ele><time>2026-04-05T10:23:30.024Z</time></trkpt><trkpt lat="38.6682849" lon="-0.3262455"><ele>789.0</ele><time>2026-04-05T10:23:31.025Z</time></trkpt><trkpt lat="38.6683797" lon="-0.3262621"><ele>789.0</ele><time>2026-04-05T10:23:32.024Z</time></trkpt><trkpt lat="38.6684768" lon="-0.3263"><ele>789.0</ele><time>2026-04-05T10:23:33.024Z</time></trkpt><trkpt lat="38.6685683" lon="-0.3263968"><ele>778.0</ele><time>2026-04-05T10:23:34.024Z</time></trkpt><trkpt lat="38.6686507" lon="-0.3265559"><ele>767.0</ele><time>2026-04-05T10:23:35.025Z</time></trkpt><trkpt lat="38.6686909" lon="-0.326777"><ele>756.0</ele><time>2026-04-05T10:23:36.024Z</time></trkpt><trkpt lat="38.6687412" lon="-0.3269619"><ele>756.0</ele><time>2026-04-05T10:23:37.025Z</time></trkpt><trkpt lat="38.6688086" lon="-0.3271332"><ele>756.0</ele><time>2026-04-05T10:23:38.024Z</time></trkpt><trkpt lat="38.6688858" lon="-0.3272898"><ele>756.0</ele><time>2026-04-05T10:23:39.024Z</time></trkpt><trkpt lat="38.6689497" lon="-0.3274565"><ele>756.0</ele><time>2026-04-05T10:23:40.025Z</time></trkpt><trkpt lat="38.6690185" lon="-0.3276114"><ele>757.25</ele><time>2026-04-05T10:23:41.024Z</time></trkpt><trkpt lat="38.6690881" lon="-0.3277643"><ele>758.5</ele><time>2026-04-05T10:23:42.024Z</time></trkpt><trkpt lat="38.6691587" lon="-0.3279132"><ele>759.75</ele><time>2026-04-05T10:23:43.024Z</time></trkpt><trkpt lat="38.6692342" lon="-0.3280667"><ele>761.0</ele><time>2026-04-05T10:23:44.024Z</time></trkpt><trkpt lat="38.6692828" lon="-0.3282092"><ele>762.75</ele><time>2026-04-05T10:23:45.025Z</time></trkpt><trkpt lat="38.6693269" lon="-0.328358"><ele>764.5</ele><time>2026-04-05T10:23:46.025Z</time></trkpt><trkpt lat="38.6693716" lon="-0.3285089"><ele>766.25</ele><time>2026-04-05T10:23:47.024Z</time></trkpt><trkpt lat="38.6694261" lon="-0.3286628"><ele>768.0</ele><time>2026-04-05T10:23:48.025Z</time></trkpt><trkpt lat="38.6694872" lon="-0.3288094"><ele>762.0</ele><time>2026-04-05T10:23:49.025Z</time></trkpt><trkpt lat="38.6695475" lon="-0.3289609"><ele>756.0</ele><time>2026-04-05T10:23:50.024Z</time></trkpt><trkpt lat="38.6695829" lon="-0.329126"><ele>750.0</ele><time>2026-04-05T10:23:51.025Z</time></trkpt><trkpt lat="38.6696213" lon="-0.3293166"><ele>744.0</ele><time>2026-04-05T10:23:52.024Z</time></trkpt><trkpt lat="38.6696708" lon="-0.3294931"><ele>744.0</ele><time>2026-04-05T10:23:53.025Z</time></trkpt><trkpt lat="38.6697132" lon="-0.3296525"><ele>744.0</ele><time>2026-04-05T10:23:54.025Z</time></trkpt><trkpt lat="38.6697168" lon="-0.3298112"><ele>744.0</ele><time>2026-04-05T10:23:55.025Z</time></trkpt><trkpt lat="38.6696796" lon="-0.3299817"><ele>744.0</ele><time>2026-04-05T10:23:56.024Z</time></trkpt><trkpt lat="38.6696055" lon="-0.330171"><ele>744.6666666666666</ele><time>2026-04-05T10:23:57.025Z</time></trkpt><trkpt lat="38.6695035" lon="-0.3303446"><ele>745.3333333333333</ele><time>2026-04-05T10:23:58.024Z</time></trkpt><trkpt lat="38.6693856" lon="-0.3304854"><ele>746.0</ele><time>2026-04-05T10:23:59.024Z</time></trkpt><trkpt lat="38.6692601" lon="-0.3306007"><ele>746.0</ele><time>2026-04-05T10:24:00.025Z</time></trkpt><trkpt lat="38.6691344" lon="-0.3306993"><ele>746.0</ele><time>2026-04-05T10:24:01.024Z</time></trkpt><trkpt lat="38.6690274" lon="-0.330774"><ele>746.0</ele><time>2026-04-05T10:24:02.024Z</time></trkpt><trkpt lat="38.6689344" lon="-0.3308379"><ele>746.0</ele><time>2026-04-05T10:24:03.024Z</time></trkpt><trkpt lat="38.6688571" lon="-0.3309029"><ele>746.0</ele><time>2026-04-05T10:24:04.025Z</time></trkpt><trkpt lat="38.6688103" lon="-0.3309873"><ele>746.0</ele><time>2026-04-05T10:24:05.024Z</time></trkpt><trkpt lat="38.6687967" lon="-0.3310865"><ele>746.0</ele><time>2026-04-05T10:24:06.024Z</time></trkpt><trkpt lat="38.6687991" lon="-0.3311801"><ele>746.0</ele><time>2026-04-05T10:24:07.025Z</time></trkpt><trkpt lat="38.668845" lon="-0.3312384"><ele>746.0</ele><time>2026-04-05T10:24:08.024Z</time></trkpt><trkpt lat="38.6689134" lon="-0.331297"><ele>746.0</ele><time>2026-04-05T10:24:09.025Z</time></trkpt><trkpt lat="38.669036" lon="-0.3313382"><ele>746.0</ele><time>2026-04-05T10:24:10.025Z</time></trkpt><trkpt lat="38.6692019" lon="-0.3313732"><ele>746.0</ele><time>2026-04-05T10:24:11.024Z</time></trkpt><trkpt lat="38.6693219" lon="-0.3313521"><ele>746.0</ele><time>2026-04-05T10:24:12.025Z</time></trkpt><trkpt lat="38.6694475" lon="-0.3313062"><ele>746.0</ele><time>2026-04-05T10:24:13.025Z</time></trkpt><trkpt lat="38.6695786" lon="-0.3312333"><ele>744.0</ele><time>2026-04-05T10:24:14.025Z</time></trkpt><trkpt lat="38.669726" lon="-0.3311573"><ele>742.0</ele><time>2026-04-05T10:24:15.024Z</time></trkpt><trkpt lat="38.6698752" lon="-0.3310864"><ele>740.0</ele><time>2026-04-05T10:24:16.024Z</time></trkpt><trkpt lat="38.6700237" lon="-0.3310372"><ele>740.0</ele><time>2026-04-05T10:24:17.025Z</time></trkpt><trkpt lat="38.6701529" lon="-0.3309899"><ele>740.0</ele><time>2026-04-05T10:24:18.025Z</time></trkpt><trkpt lat="38.6702652" lon="-0.3309454"><ele>740.0</ele><time>2026-04-05T10:24:19.024Z</time></trkpt><trkpt lat="38.6703771" lon="-0.3309437"><ele>740.0</ele><time>2026-04-05T10:24:20.025Z</time></trkpt><trkpt lat="38.6704834" lon="-0.3309941"><ele>739.4</ele><time>2026-04-05T10:24:21.024Z</time></trkpt><trkpt lat="38.6705859" lon="-0.3310646"><ele>738.8</ele><time>2026-04-05T10:24:22.024Z</time></trkpt><trkpt lat="38.6706757" lon="-0.3311208"><ele>738.2</ele><time>2026-04-05T10:24:23.025Z</time></trkpt><trkpt lat="38.6707563" lon="-0.331137"><ele>737.6</ele><time>2026-04-05T10:24:24.024Z</time></trkpt><trkpt lat="38.6708287" lon="-0.3311057"><ele>737.0</ele><time>2026-04-05T10:24:25.024Z</time></trkpt><trkpt lat="38.6708918" lon="-0.3310501"><ele>737.0</ele><time>2026-04-05T10:24:26.024Z</time></trkpt><trkpt lat="38.6709599" lon="-0.3309563"><ele>737.0</ele><time>2026-04-05T10:24:27.024Z</time></trkpt><trkpt lat="38.6710391" lon="-0.3308919"><ele>737.0</ele><time>2026-04-05T10:24:28.025Z</time></trkpt><trkpt lat="38.6711336" lon="-0.3308863"><ele>737.0</ele><time>2026-04-05T10:24:29.024Z</time></trkpt><trkpt lat="38.6712624" lon="-0.3309518"><ele>737.0</ele><time>2026-04-05T10:24:30.024Z</time></trkpt><trkpt lat="38.671398" lon="-0.3309592"><ele>736.75</ele><time>2026-04-05T10:24:31.025Z</time></trkpt><trkpt lat="38.6715118" lon="-0.3309079"><ele>736.5</ele><time>2026-04-05T10:24:32.024Z</time></trkpt><trkpt lat="38.6716208" lon="-0.3308576"><ele>736.25</ele><time>2026-04-05T10:24:33.024Z</time></trkpt><trkpt lat="38.6717468" lon="-0.3307943"><ele>736.0</ele><time>2026-04-05T10:24:34.024Z</time></trkpt><trkpt lat="38.6718905" lon="-0.3307278"><ele>736.0</ele><time>2026-04-05T10:24:35.024Z</time></trkpt><trkpt lat="38.6720335" lon="-0.3306577"><ele>736.0</ele><time>2026-04-05T10:24:36.024Z</time></trkpt><trkpt lat="38.6721734" lon="-0.3305918"><ele>736.0</ele><time>2026-04-05T10:24:37.024Z</time></trkpt><trkpt lat="38.6723269" lon="-0.3305638"><ele>736.0</ele><time>2026-04-05T10:24:38.024Z</time></trkpt><trkpt lat="38.6724799" lon="-0.3305711"><ele>736.0</ele><time>2026-04-05T10:24:39.024Z</time></trkpt><trkpt lat="38.6726208" lon="-0.3305976"><ele>736.0</ele><time>2026-04-05T10:24:40.024Z</time></trkpt><trkpt lat="38.6727433" lon="-0.330645"><ele>736.0</ele><time>2026-04-05T10:24:41.025Z</time></trkpt><trkpt lat="38.6728481" lon="-0.330726"><ele>734.4</ele><time>2026-04-05T10:24:42.024Z</time></trkpt><trkpt lat="38.6729384" lon="-0.3308242"><ele>732.8</ele><time>2026-04-05T10:24:43.025Z</time></trkpt><trkpt lat="38.6729987" lon="-0.3309407"><ele>731.1999999999999</ele><time>2026-04-05T10:24:44.024Z</time></trkpt><trkpt lat="38.6730551" lon="-0.3310354"><ele>729.5999999999999</ele><time>2026-04-05T10:24:45.024Z</time></trkpt><trkpt lat="38.6731238" lon="-0.3311015"><ele>728.0</ele><time>2026-04-05T10:24:46.024Z</time></trkpt><trkpt lat="38.6731931" lon="-0.3311361"><ele>728.0</ele><time>2026-04-05T10:24:47.025Z</time></trkpt><trkpt lat="38.6732873" lon="-0.3311033"><ele>728.0</ele><time>2026-04-05T10:24:48.025Z</time></trkpt><trkpt lat="38.6733789" lon="-0.3310813"><ele>728.0</ele><time>2026-04-05T10:24:49.025Z</time></trkpt><trkpt lat="38.6734659" lon="-0.33107"><ele>728.0</ele><time>2026-04-05T10:24:50.024Z</time></trkpt><trkpt lat="38.6735506" lon="-0.3310537"><ele>728.0</ele><time>2026-04-05T10:24:51.025Z</time></trkpt><trkpt lat="38.6736428" lon="-0.331042"><ele>730.0</ele><time>2026-04-05T10:24:52.024Z</time></trkpt><trkpt lat="38.6737354" lon="-0.3310292"><ele>732.0</ele><time>2026-04-05T10:24:53.025Z</time></trkpt><trkpt lat="38.6738389" lon="-0.3310234"><ele>734.0</ele><time>2026-04-05T10:24:54.025Z</time></trkpt><trkpt lat="38.6739467" lon="-0.3310142"><ele>736.0</ele><time>2026-04-05T10:24:55.025Z</time></trkpt><trkpt lat="38.6740521" lon="-0.3310044"><ele>738.0</ele><time>2026-04-05T10:24:56.025Z</time></trkpt><trkpt lat="38.6741485" lon="-0.3309875"><ele>738.0</ele><time>2026-04-05T10:24:57.024Z</time></trkpt><trkpt lat="38.6742279" lon="-0.3309577"><ele>738.0</ele><time>2026-04-05T10:24:58.025Z</time></trkpt><trkpt lat="38.6742914" lon="-0.3309103"><ele>738.0</ele><time>2026-04-05T10:24:59.025Z</time></trkpt><trkpt lat="38.6743491" lon="-0.3308528"><ele>738.0</ele><time>2026-04-05T10:25:00.025Z</time></trkpt><trkpt lat="38.6744014" lon="-0.3307917"><ele>738.0</ele><time>2026-04-05T10:25:01.025Z</time></trkpt><trkpt lat="38.6745024" lon="-0.3307256"><ele>738.0</ele><time>2026-04-05T10:25:03.024Z</time></trkpt><trkpt lat="38.6746151" lon="-0.3307938"><ele>737.6666666666666</ele><time>2026-04-05T10:25:05.025Z</time></trkpt><trkpt lat="38.6746603" lon="-0.3308684"><ele>737.3333333333334</ele><time>2026-04-05T10:25:06.025Z</time></trkpt><trkpt lat="38.6746823" lon="-0.3309739"><ele>737.0</ele><time>2026-04-05T10:25:07.024Z</time></trkpt><trkpt lat="38.6747064" lon="-0.3310607"><ele>736.6666666666667</ele><time>2026-04-05T10:25:08.024Z</time></trkpt><trkpt lat="38.6747521" lon="-0.3311768"><ele>736.3333333333334</ele><time>2026-04-05T10:25:10.024Z</time></trkpt><trkpt lat="38.6748602" lon="-0.3311925"><ele>736.0</ele><time>2026-04-05T10:25:12.025Z</time></trkpt><trkpt lat="38.6749686" lon="-0.3312246"><ele>736.0</ele><time>2026-04-05T10:25:14.025Z</time></trkpt><trkpt lat="38.6750402" lon="-0.3312283"><ele>736.0</ele><time>2026-04-05T10:25:15.025Z</time></trkpt><trkpt lat="38.675108" lon="-0.3312519"><ele>736.0</ele><time>2026-04-05T10:25:16.024Z</time></trkpt><trkpt lat="38.6751796" lon="-0.3312682"><ele>736.0</ele><time>2026-04-05T10:25:17.025Z</time></trkpt><trkpt lat="38.6752455" lon="-0.3312926"><ele>736.0</ele><time>2026-04-05T10:25:18.024Z</time></trkpt><trkpt lat="38.6753228" lon="-0.3312992"><ele>736.0</ele><time>2026-04-05T10:25:19.024Z</time></trkpt><trkpt lat="38.6753953" lon="-0.3312707"><ele>736.0</ele><time>2026-04-05T10:25:20.025Z</time></trkpt><trkpt lat="38.675462" lon="-0.3312492"><ele>736.1999999999999</ele><time>2026-04-05T10:25:21.025Z</time></trkpt><trkpt lat="38.6755816" lon="-0.3312067"><ele>736.4</ele><time>2026-04-05T10:25:23.024Z</time></trkpt><trkpt lat="38.6756917" lon="-0.3312041"><ele>736.6</ele><time>2026-04-05T10:25:25.024Z</time></trkpt><trkpt lat="38.6757612" lon="-0.3312408"><ele>736.8</ele><time>2026-04-05T10:25:26.024Z</time></trkpt><trkpt lat="38.6758349" lon="-0.3312762"><ele>737.0</ele><time>2026-04-05T10:25:27.024Z</time></trkpt><trkpt lat="38.6759055" lon="-0.3313072"><ele>737.0</ele><time>2026-04-05T10:25:28.024Z</time></trkpt><trkpt lat="38.67596" lon="-0.3313642"><ele>737.0</ele><time>2026-04-05T10:25:29.024Z</time></trkpt><trkpt lat="38.6760091" lon="-0.331433"><ele>737.0</ele><time>2026-04-05T10:25:30.025Z</time></trkpt><trkpt lat="38.6760465" lon="-0.3315335"><ele>737.0</ele><time>2026-04-05T10:25:31.025Z</time></trkpt><trkpt lat="38.6760878" lon="-0.3316399"><ele>737.0</ele><time>2026-04-05T10:25:32.024Z</time></trkpt><trkpt lat="38.6761298" lon="-0.3317274"><ele>737.0</ele><time>2026-04-05T10:25:33.025Z</time></trkpt><trkpt lat="38.6761533" lon="-0.3318567"><ele>733.8</ele><time>2026-04-05T10:25:34.024Z</time></trkpt><trkpt lat="38.676171" lon="-0.3319977"><ele>730.6</ele><time>2026-04-05T10:25:35.024Z</time></trkpt><trkpt lat="38.6761606" lon="-0.3321433"><ele>727.4</ele><time>2026-04-05T10:25:36.024Z</time></trkpt><trkpt lat="38.6761511" lon="-0.3322851"><ele>724.1999999999999</ele><time>2026-04-05T10:25:37.025Z</time></trkpt><trkpt lat="38.6761413" lon="-0.3324178"><ele>721.0</ele><time>2026-04-05T10:25:38.024Z</time></trkpt><trkpt lat="38.6761412" lon="-0.3325589"><ele>719.25</ele><time>2026-04-05T10:25:39.025Z</time></trkpt><trkpt lat="38.6761598" lon="-0.3327222"><ele>717.5</ele><time>2026-04-05T10:25:40.025Z</time></trkpt><trkpt lat="38.6761983" lon="-0.3328804"><ele>715.75</ele><time>2026-04-05T10:25:41.024Z</time></trkpt><trkpt lat="38.6762745" lon="-0.3330357"><ele>714.0</ele><time>2026-04-05T10:25:42.025Z</time></trkpt><trkpt lat="38.6763429" lon="-0.3331716"><ele>716.5</ele><time>2026-04-05T10:25:43.025Z</time></trkpt><trkpt lat="38.6764088" lon="-0.3332721"><ele>719.0</ele><time>2026-04-05T10:25:44.024Z</time></trkpt><trkpt lat="38.676453" lon="-0.3333383"><ele>721.5</ele><time>2026-04-05T10:25:45.024Z</time></trkpt><trkpt lat="38.6765227" lon="-0.3334263"><ele>724.0</ele><time>2026-04-05T10:25:47.025Z</time></trkpt><trkpt lat="38.6765705" lon="-0.3334979"><ele>726.5</ele><time>2026-04-05T10:25:49.025Z</time></trkpt><trkpt lat="38.6766134" lon="-0.3335602"><ele>729.0</ele><time>2026-04-05T10:25:52.024Z</time></trkpt><trkpt lat="38.6766493" lon="-0.3336677"><ele>729.0</ele><time>2026-04-05T10:27:29.025Z</time></trkpt><trkpt lat="38.676694" lon="-0.3337539"><ele>729.0</ele><time>2026-04-05T10:27:31.024Z</time></trkpt><trkpt lat="38.6767449" lon="-0.3338475"><ele>729.0</ele><time>2026-04-05T10:27:33.024Z</time></trkpt><trkpt lat="38.6767957" lon="-0.3339483"><ele>729.0</ele><time>2026-04-05T10:27:35.025Z</time></trkpt><trkpt lat="38.6768544" lon="-0.3340588"><ele>729.0</ele><time>2026-04-05T10:27:37.024Z</time></trkpt><trkpt lat="38.6769039" lon="-0.3341855"><ele>729.0</ele><time>2026-04-05T10:27:39.024Z</time></trkpt><trkpt lat="38.6769263" lon="-0.3342637"><ele>729.0</ele><time>2026-04-05T10:27:40.025Z</time></trkpt><trkpt lat="38.6769474" lon="-0.3343684"><ele>729.0</ele><time>2026-04-05T10:27:41.025Z</time></trkpt><trkpt lat="38.6769713" lon="-0.3344713"><ele>729.0</ele><time>2026-04-05T10:27:42.024Z</time></trkpt><trkpt lat="38.6770033" lon="-0.3345876"><ele>729.0</ele><time>2026-04-05T10:27:43.025Z</time></trkpt><trkpt lat="38.6770399" lon="-0.3346992"><ele>729.0</ele><time>2026-04-05T10:27:44.024Z</time></trkpt><trkpt lat="38.6771135" lon="-0.3349105"><ele>729.0</ele><time>2026-04-05T10:27:46.028Z</time></trkpt><trkpt lat="38.6771547" lon="-0.3350201"><ele>729.0</ele><time>2026-04-05T10:27:47.031Z</time></trkpt><trkpt lat="38.6771952" lon="-0.3351252"><ele>729.0</ele><time>2026-04-05T10:27:48.027Z</time></trkpt><trkpt lat="38.6772352" lon="-0.3352345"><ele>729.0</ele><time>2026-04-05T10:27:49.028Z</time></trkpt><trkpt lat="38.6772779" lon="-0.3353381"><ele>729.0</ele><time>2026-04-05T10:27:50.028Z</time></trkpt><trkpt lat="38.6773258" lon="-0.3354396"><ele>729.0</ele><time>2026-04-05T10:27:51.03Z</time></trkpt><trkpt lat="38.677385" lon="-0.3355259"><ele>729.0</ele><time>2026-04-05T10:27:52.03Z</time></trkpt><trkpt lat="38.6774728" lon="-0.335583"><ele>729.0</ele><time>2026-04-05T10:27:53.03Z</time></trkpt><trkpt lat="38.6775788" lon="-0.3355987"><ele>729.0</ele><time>2026-04-05T10:27:54.031Z</time></trkpt><trkpt lat="38.6776866" lon="-0.3355924"><ele>729.0</ele><time>2026-04-05T10:27:55.031Z</time></trkpt><trkpt lat="38.6777951" lon="-0.3355703"><ele>727.6</ele><time>2026-04-05T10:27:56.031Z</time></trkpt><trkpt lat="38.6779017" lon="-0.3355348"><ele>726.2</ele><time>2026-04-05T10:27:57.03Z</time></trkpt><trkpt lat="38.6779983" lon="-0.3354894"><ele>724.8000000000001</ele><time>2026-04-05T10:27:58.03Z</time></trkpt><trkpt lat="38.6780918" lon="-0.3354285"><ele>723.4000000000001</ele><time>2026-04-05T10:27:59.031Z</time></trkpt><trkpt lat="38.6781917" lon="-0.335367"><ele>722.0</ele><time>2026-04-05T10:28:00.03Z</time></trkpt><trkpt lat="38.6782897" lon="-0.3353053"><ele>722.0</ele><time>2026-04-05T10:28:01.03Z</time></trkpt><trkpt lat="38.6783902" lon="-0.3352483"><ele>722.0</ele><time>2026-04-05T10:28:02.031Z</time></trkpt><trkpt lat="38.6784968" lon="-0.3351903"><ele>722.0</ele><time>2026-04-05T10:28:03.031Z</time></trkpt><trkpt lat="38.67862" lon="-0.3351468"><ele>722.0</ele><time>2026-04-05T10:28:04.031Z</time></trkpt><trkpt lat="38.6787604" lon="-0.3351222"><ele>722.6666666666666</ele><time>2026-04-05T10:28:05.031Z</time></trkpt><trkpt lat="38.6789081" lon="-0.3351113"><ele>723.3333333333334</ele><time>2026-04-05T10:28:06.03Z</time></trkpt><trkpt lat="38.6790621" lon="-0.3351033"><ele>724.0</ele><time>2026-04-05T10:28:07.031Z</time></trkpt><trkpt lat="38.6792276" lon="-0.3350949"><ele>724.0</ele><time>2026-04-05T10:28:08.03Z</time></trkpt><trkpt lat="38.6793936" lon="-0.3350852"><ele>724.0</ele><time>2026-04-05T10:28:09.03Z</time></trkpt><trkpt lat="38.6795638" lon="-0.3350745"><ele>724.0</ele><time>2026-04-05T10:28:10.031Z</time></trkpt><trkpt lat="38.6797355" lon="-0.3350443"><ele>723.6666666666667</ele><time>2026-04-05T10:28:11.031Z</time></trkpt><trkpt lat="38.6799023" lon="-0.3349909"><ele>723.3333333333334</ele><time>2026-04-05T10:28:12.03Z</time></trkpt><trkpt lat="38.6800635" lon="-0.3349149"><ele>723.0</ele><time>2026-04-05T10:28:13.03Z</time></trkpt><trkpt lat="38.680218" lon="-0.3348398"><ele>720.6666666666666</ele><time>2026-04-05T10:28:14.03Z</time></trkpt><trkpt lat="38.6803649" lon="-0.3347731"><ele>718.3333333333333</ele><time>2026-04-05T10:28:15.03Z</time></trkpt><trkpt lat="38.680516" lon="-0.3347192"><ele>716.0</ele><time>2026-04-05T10:28:16.031Z</time></trkpt><trkpt lat="38.6806599" lon="-0.3346755"><ele>715.1999999999999</ele><time>2026-04-05T10:28:17.03Z</time></trkpt><trkpt lat="38.6807926" lon="-0.3346373"><ele>714.4</ele><time>2026-04-05T10:28:18.031Z</time></trkpt><trkpt lat="38.6809037" lon="-0.3346153"><ele>713.6</ele><time>2026-04-05T10:28:19.031Z</time></trkpt><trkpt lat="38.6809978" lon="-0.3346173"><ele>712.8</ele><time>2026-04-05T10:28:20.031Z</time></trkpt><trkpt lat="38.6810812" lon="-0.3346478"><ele>712.0</ele><time>2026-04-05T10:28:21.03Z</time></trkpt><trkpt lat="38.6811007" lon="-0.3347834"><ele>713.0</ele><time>2026-04-05T10:28:22.03Z</time></trkpt><trkpt lat="38.6811056" lon="-0.3349054"><ele>714.0</ele><time>2026-04-05T10:28:23.031Z</time></trkpt><trkpt lat="38.6810643" lon="-0.3350291"><ele>715.0</ele><time>2026-04-05T10:28:24.031Z</time></trkpt><trkpt lat="38.6810003" lon="-0.3351584"><ele>716.0</ele><time>2026-04-05T10:28:25.03Z</time></trkpt><trkpt lat="38.6809361" lon="-0.3353052"><ele>716.0</ele><time>2026-04-05T10:28:26.03Z</time></trkpt><trkpt lat="38.6808807" lon="-0.3354736"><ele>716.0</ele><time>2026-04-05T10:28:27.031Z</time></trkpt><trkpt lat="38.6808295" lon="-0.3356512"><ele>716.0</ele><time>2026-04-05T10:28:28.03Z</time></trkpt><trkpt lat="38.680794" lon="-0.3358265"><ele>716.0</ele><time>2026-04-05T10:28:29.031Z</time></trkpt><trkpt lat="38.6807648" lon="-0.3359866"><ele>715.25</ele><time>2026-04-05T10:28:30.03Z</time></trkpt><trkpt lat="38.6807339" lon="-0.3361396"><ele>714.5</ele><time>2026-04-05T10:28:31.03Z</time></trkpt><trkpt lat="38.6806954" lon="-0.3363077"><ele>713.75</ele><time>2026-04-05T10:28:32.03Z</time></trkpt><trkpt lat="38.6806524" lon="-0.336479"><ele>713.0</ele><time>2026-04-05T10:28:33.031Z</time></trkpt><trkpt lat="38.6806129" lon="-0.3366484"><ele>713.0</ele><time>2026-04-05T10:28:34.031Z</time></trkpt><trkpt lat="38.6805679" lon="-0.3368122"><ele>713.0</ele><time>2026-04-05T10:28:35.03Z</time></trkpt><trkpt lat="38.6805308" lon="-0.3369819"><ele>713.0</ele><time>2026-04-05T10:28:36.03Z</time></trkpt><trkpt lat="38.680524" lon="-0.3371446"><ele>713.0</ele><time>2026-04-05T10:28:37.031Z</time></trkpt><trkpt lat="38.6805641" lon="-0.3373024"><ele>713.0</ele><time>2026-04-05T10:28:38.031Z</time></trkpt><trkpt lat="38.6806503" lon="-0.3374377"><ele>713.0</ele><time>2026-04-05T10:28:39.03Z</time></trkpt><trkpt lat="38.6807659" lon="-0.3375572"><ele>713.0</ele><time>2026-04-05T10:28:40.031Z</time></trkpt><trkpt lat="38.6808962" lon="-0.3376757"><ele>713.0</ele><time>2026-04-05T10:28:41.031Z</time></trkpt><trkpt lat="38.6810373" lon="-0.3378004"><ele>709.3333333333333</ele><time>2026-04-05T10:28:42.03Z</time></trkpt><trkpt lat="38.6811636" lon="-0.3379479"><ele>705.6666666666666</ele><time>2026-04-05T10:28:43.031Z</time></trkpt><trkpt lat="38.6812722" lon="-0.3381141"><ele>702.0</ele><time>2026-04-05T10:28:44.031Z</time></trkpt><trkpt lat="38.6813737" lon="-0.3382926"><ele>702.0</ele><time>2026-04-05T10:28:45.031Z</time></trkpt><trkpt lat="38.6814443" lon="-0.3384227"><ele>702.0</ele><time>2026-04-05T10:28:46.03Z</time></trkpt><trkpt lat="38.6815042" lon="-0.3385842"><ele>702.0</ele><time>2026-04-05T10:28:47.03Z</time></trkpt><trkpt lat="38.6815323" lon="-0.3387697"><ele>702.0</ele><time>2026-04-05T10:28:48.031Z</time></trkpt><trkpt lat="38.6815346" lon="-0.338963"><ele>702.25</ele><time>2026-04-05T10:28:49.03Z</time></trkpt><trkpt lat="38.6815152" lon="-0.3391394"><ele>702.5</ele><time>2026-04-05T10:28:50.031Z</time></trkpt><trkpt lat="38.6814704" lon="-0.3393146"><ele>702.75</ele><time>2026-04-05T10:28:51.03Z</time></trkpt><trkpt lat="38.6813962" lon="-0.3394885"><ele>703.0</ele><time>2026-04-05T10:28:52.031Z</time></trkpt><trkpt lat="38.6813033" lon="-0.339668"><ele>707.0</ele><time>2026-04-05T10:28:53.03Z</time></trkpt><trkpt lat="38.6812007" lon="-0.339844"><ele>711.0</ele><time>2026-04-05T10:28:54.031Z</time></trkpt><trkpt lat="38.6810961" lon="-0.3400112"><ele>715.0</ele><time>2026-04-05T10:28:55.03Z</time></trkpt><trkpt lat="38.6809823" lon="-0.3401662"><ele>715.0</ele><time>2026-04-05T10:28:56.03Z</time></trkpt><trkpt lat="38.6808613" lon="-0.3403183"><ele>715.0</ele><time>2026-04-05T10:28:57.031Z</time></trkpt><trkpt lat="38.6807415" lon="-0.3404664"><ele>715.0</ele><time>2026-04-05T10:28:58.03Z</time></trkpt><trkpt lat="38.6806218" lon="-0.3406247"><ele>709.6666666666667</ele><time>2026-04-05T10:28:59.031Z</time></trkpt><trkpt lat="38.6805028" lon="-0.3407921"><ele>704.3333333333334</ele><time>2026-04-05T10:29:00.031Z</time></trkpt><trkpt lat="38.6803946" lon="-0.3409824"><ele>699.0</ele><time>2026-04-05T10:29:01.031Z</time></trkpt><trkpt lat="38.6803073" lon="-0.3411949"><ele>702.0</ele><time>2026-04-05T10:29:02.03Z</time></trkpt><trkpt lat="38.6802326" lon="-0.3414206"><ele>705.0</ele><time>2026-04-05T10:29:03.03Z</time></trkpt><trkpt lat="38.680163" lon="-0.341662"><ele>708.0</ele><time>2026-04-05T10:29:04.03Z</time></trkpt><trkpt lat="38.6801005" lon="-0.3419115"><ele>708.0</ele><time>2026-04-05T10:29:05.03Z</time></trkpt><trkpt lat="38.6800459" lon="-0.3421613"><ele>708.0</ele><time>2026-04-05T10:29:06.031Z</time></trkpt><trkpt lat="38.6799994" lon="-0.3424045"><ele>708.0</ele><time>2026-04-05T10:29:07.031Z</time></trkpt><trkpt lat="38.6799615" lon="-0.3426487"><ele>705.3333333333334</ele><time>2026-04-05T10:29:08.031Z</time></trkpt><trkpt lat="38.6799541" lon="-0.3429028"><ele>702.6666666666667</ele><time>2026-04-05T10:29:09.031Z</time></trkpt><trkpt lat="38.6799731" lon="-0.3431488"><ele>700.0</ele><time>2026-04-05T10:29:10.031Z</time></trkpt><trkpt lat="38.6800073" lon="-0.3433792"><ele>700.3333333333334</ele><time>2026-04-05T10:29:11.03Z</time></trkpt><trkpt lat="38.6800431" lon="-0.3436083"><ele>700.6666666666666</ele><time>2026-04-05T10:29:12.031Z</time></trkpt><trkpt lat="38.6801203" lon="-0.3437718"><ele>701.0</ele><time>2026-04-05T10:29:13.031Z</time></trkpt><trkpt lat="38.6802217" lon="-0.3439079"><ele>698.25</ele><time>2026-04-05T10:29:14.031Z</time></trkpt><trkpt lat="38.6803352" lon="-0.3440067"><ele>695.5</ele><time>2026-04-05T10:29:15.031Z</time></trkpt><trkpt lat="38.6804366" lon="-0.3440962"><ele>692.75</ele><time>2026-04-05T10:29:16.03Z</time></trkpt><trkpt lat="38.6805124" lon="-0.3442043"><ele>690.0</ele><time>2026-04-05T10:29:17.031Z</time></trkpt><trkpt lat="38.6805515" lon="-0.3443437"><ele>690.0</ele><time>2026-04-05T10:29:18.03Z</time></trkpt><trkpt lat="38.6805529" lon="-0.3445036"><ele>690.0</ele><time>2026-04-05T10:29:19.031Z</time></trkpt><trkpt lat="38.680522" lon="-0.3446822"><ele>690.0</ele><time>2026-04-05T10:29:20.031Z</time></trkpt><trkpt lat="38.6804692" lon="-0.3448737"><ele>690.0</ele><time>2026-04-05T10:29:21.03Z</time></trkpt><trkpt lat="38.6804094" lon="-0.345073"><ele>691.0</ele><time>2026-04-05T10:29:22.031Z</time></trkpt><trkpt lat="38.6803437" lon="-0.3452759"><ele>692.0</ele><time>2026-04-05T10:29:23.031Z</time></trkpt><trkpt lat="38.680286" lon="-0.3454926"><ele>693.0</ele><time>2026-04-05T10:29:24.031Z</time></trkpt><trkpt lat="38.6802348" lon="-0.3457144"><ele>689.3333333333334</ele><time>2026-04-05T10:29:25.031Z</time></trkpt><trkpt lat="38.6802424" lon="-0.3459597"><ele>685.6666666666667</ele><time>2026-04-05T10:29:26.03Z</time></trkpt><trkpt lat="38.6802552" lon="-0.3462058"><ele>682.0</ele><time>2026-04-05T10:29:27.031Z</time></trkpt><trkpt lat="38.6802699" lon="-0.3464625"><ele>682.0</ele><time>2026-04-05T10:29:28.03Z</time></trkpt><trkpt lat="38.6802946" lon="-0.3467357"><ele>682.0</ele><time>2026-04-05T10:29:29.03Z</time></trkpt><trkpt lat="38.6803498" lon="-0.347001"><ele>682.0</ele><time>2026-04-05T10:29:30.031Z</time></trkpt><trkpt lat="38.6804289" lon="-0.347252"><ele>683.6666666666667</ele><time>2026-04-05T10:29:31.031Z</time></trkpt><trkpt lat="38.6805098" lon="-0.3474775"><ele>685.3333333333334</ele><time>2026-04-05T10:29:32.031Z</time></trkpt><trkpt lat="38.6805914" lon="-0.3476939"><ele>687.0</ele><time>2026-04-05T10:29:33.03Z</time></trkpt><trkpt lat="38.6806733" lon="-0.3478971"><ele>688.0</ele><time>2026-04-05T10:29:34.03Z</time></trkpt><trkpt lat="38.6807453" lon="-0.3480896"><ele>689.0</ele><time>2026-04-05T10:29:35.03Z</time></trkpt><trkpt lat="38.6807935" lon="-0.3482718"><ele>690.0</ele><time>2026-04-05T10:29:36.03Z</time></trkpt><trkpt lat="38.6808109" lon="-0.3484955"><ele>690.0</ele><time>2026-04-05T10:29:37.03Z</time></trkpt><trkpt lat="38.680797" lon="-0.348747"><ele>690.0</ele><time>2026-04-05T10:29:38.031Z</time></trkpt><trkpt lat="38.680791" lon="-0.3490157"><ele>690.0</ele><time>2026-04-05T10:29:39.031Z</time></trkpt><trkpt lat="38.6808219" lon="-0.3492855"><ele>691.6666666666666</ele><time>2026-04-05T10:29:40.03Z</time></trkpt><trkpt lat="38.6808963" lon="-0.349537"><ele>693.3333333333333</ele><time>2026-04-05T10:29:41.03Z</time></trkpt><trkpt lat="38.6809941" lon="-0.3497686"><ele>695.0</ele><time>2026-04-05T10:29:42.03Z</time></trkpt><trkpt lat="38.6810911" lon="-0.3499789"><ele>689.3333333333333</ele><time>2026-04-05T10:29:43.031Z</time></trkpt><trkpt lat="38.6811797" lon="-0.3501746"><ele>683.6666666666666</ele><time>2026-04-05T10:29:44.03Z</time></trkpt><trkpt lat="38.6812604" lon="-0.3503553"><ele>678.0</ele><time>2026-04-05T10:29:45.03Z</time></trkpt><trkpt lat="38.6813354" lon="-0.3505292"><ele>681.0</ele><time>2026-04-05T10:29:46.03Z</time></trkpt><trkpt lat="38.6813961" lon="-0.3507137"><ele>684.0</ele><time>2026-04-05T10:29:47.03Z</time></trkpt><trkpt lat="38.6814249" lon="-0.3509311"><ele>687.0</ele><time>2026-04-05T10:29:48.03Z</time></trkpt><trkpt lat="38.6814307" lon="-0.3511559"><ele>685.3333333333334</ele><time>2026-04-05T10:29:49.031Z</time></trkpt><trkpt lat="38.6814107" lon="-0.351411"><ele>683.6666666666667</ele><time>2026-04-05T10:29:50.031Z</time></trkpt><trkpt lat="38.6813892" lon="-0.3516779"><ele>682.0</ele><time>2026-04-05T10:29:51.031Z</time></trkpt><trkpt lat="38.6813454" lon="-0.351986"><ele>681.6666666666667</ele><time>2026-04-05T10:29:52.031Z</time></trkpt><trkpt lat="38.6813143" lon="-0.3522712"><ele>681.3333333333334</ele><time>2026-04-05T10:29:53.03Z</time></trkpt><trkpt lat="38.6812929" lon="-0.3525378"><ele>681.0</ele><time>2026-04-05T10:29:54.03Z</time></trkpt><trkpt lat="38.6812758" lon="-0.3527942"><ele>681.0</ele><time>2026-04-05T10:29:55.03Z</time></trkpt><trkpt lat="38.6812599" lon="-0.3530421"><ele>681.0</ele><time>2026-04-05T10:29:56.031Z</time></trkpt><trkpt lat="38.6812478" lon="-0.3532718"><ele>681.0</ele><time>2026-04-05T10:29:57.03Z</time></trkpt><trkpt lat="38.6812413" lon="-0.3534944"><ele>681.0</ele><time>2026-04-05T10:29:58.03Z</time></trkpt><trkpt lat="38.6812641" lon="-0.3537084"><ele>681.0</ele><time>2026-04-05T10:29:59.03Z</time></trkpt><trkpt lat="38.6813149" lon="-0.3539175"><ele>681.0</ele><time>2026-04-05T10:30:00.03Z</time></trkpt><trkpt lat="38.6813857" lon="-0.3541138"><ele>682.75</ele><time>2026-04-05T10:30:01.031Z</time></trkpt><trkpt lat="38.6814581" lon="-0.3542902"><ele>684.5</ele><time>2026-04-05T10:30:02.031Z</time></trkpt><trkpt lat="38.6815286" lon="-0.3544447"><ele>686.25</ele><time>2026-04-05T10:30:03.03Z</time></trkpt><trkpt lat="38.6815981" lon="-0.3545958"><ele>688.0</ele><time>2026-04-05T10:30:04.03Z</time></trkpt><trkpt lat="38.681646" lon="-0.3547676"><ele>689.6666666666667</ele><time>2026-04-05T10:30:05.031Z</time></trkpt><trkpt lat="38.6816599" lon="-0.35497"><ele>691.3333333333334</ele><time>2026-04-05T10:30:06.031Z</time></trkpt><trkpt lat="38.6816453" lon="-0.3551758"><ele>693.0</ele><time>2026-04-05T10:30:07.031Z</time></trkpt><trkpt lat="38.6816096" lon="-0.3553619"><ele>693.0</ele><time>2026-04-05T10:30:08.031Z</time></trkpt><trkpt lat="38.6815525" lon="-0.3555171"><ele>693.0</ele><time>2026-04-05T10:30:09.03Z</time></trkpt><trkpt lat="38.681465" lon="-0.3556359"><ele>693.0</ele><time>2026-04-05T10:30:10.03Z</time></trkpt><trkpt lat="38.6813387" lon="-0.3557222"><ele>693.0</ele><time>2026-04-05T10:30:11.031Z</time></trkpt><trkpt lat="38.6811986" lon="-0.355791"><ele>694.3333333333334</ele><time>2026-04-05T10:30:12.031Z</time></trkpt><trkpt lat="38.681041" lon="-0.3558592"><ele>695.6666666666667</ele><time>2026-04-05T10:30:13.03Z</time></trkpt><trkpt lat="38.6808996" lon="-0.3559584"><ele>697.0</ele><time>2026-04-05T10:30:14.03Z</time></trkpt><trkpt lat="38.6807706" lon="-0.3560965"><ele>697.0</ele><time>2026-04-05T10:30:15.03Z</time></trkpt><trkpt lat="38.6806563" lon="-0.3562623"><ele>697.0</ele><time>2026-04-05T10:30:16.031Z</time></trkpt><trkpt lat="38.6805545" lon="-0.3564202"><ele>697.0</ele><time>2026-04-05T10:30:17.031Z</time></trkpt><trkpt lat="38.6804538" lon="-0.3565664"><ele>699.0</ele><time>2026-04-05T10:30:18.03Z</time></trkpt><trkpt lat="38.680343" lon="-0.356706"><ele>701.0</ele><time>2026-04-05T10:30:19.031Z</time></trkpt><trkpt lat="38.6802235" lon="-0.3568351"><ele>703.0</ele><time>2026-04-05T10:30:20.03Z</time></trkpt><trkpt lat="38.6800715" lon="-0.3569342"><ele>703.0</ele><time>2026-04-05T10:30:21.03Z</time></trkpt><trkpt lat="38.6799196" lon="-0.3570303"><ele>703.0</ele><time>2026-04-05T10:30:22.03Z</time></trkpt><trkpt lat="38.6797629" lon="-0.3571153"><ele>703.0</ele><time>2026-04-05T10:30:23.031Z</time></trkpt><trkpt lat="38.6795881" lon="-0.3571767"><ele>698.3333333333334</ele><time>2026-04-05T10:30:24.031Z</time></trkpt><trkpt lat="38.6794002" lon="-0.3572274"><ele>693.6666666666666</ele><time>2026-04-05T10:30:25.031Z</time></trkpt><trkpt lat="38.6792061" lon="-0.3572774"><ele>689.0</ele><time>2026-04-05T10:30:26.03Z</time></trkpt><trkpt lat="38.6790198" lon="-0.3573218"><ele>689.0</ele><time>2026-04-05T10:30:27.03Z</time></trkpt><trkpt lat="38.6788443" lon="-0.357364"><ele>689.0</ele><time>2026-04-05T10:30:28.03Z</time></trkpt><trkpt lat="38.6786648" lon="-0.3574039"><ele>689.0</ele><time>2026-04-05T10:30:29.03Z</time></trkpt><trkpt lat="38.6784837" lon="-0.357435"><ele>692.0</ele><time>2026-04-05T10:30:30.03Z</time></trkpt><trkpt lat="38.6783184" lon="-0.3574931"><ele>695.0</ele><time>2026-04-05T10:30:31.03Z</time></trkpt><trkpt lat="38.6781556" lon="-0.357558"><ele>698.0</ele><time>2026-04-05T10:30:32.03Z</time></trkpt><trkpt lat="38.6780306" lon="-0.3576499"><ele>698.0</ele><time>2026-04-05T10:30:33.031Z</time></trkpt><trkpt lat="38.6779141" lon="-0.3577372"><ele>698.0</ele><time>2026-04-05T10:30:34.03Z</time></trkpt><trkpt lat="38.6778213" lon="-0.3578094"><ele>698.0</ele><time>2026-04-05T10:30:35.031Z</time></trkpt><trkpt lat="38.6777542" lon="-0.3578802"><ele>698.0</ele><time>2026-04-05T10:30:36.031Z</time></trkpt><trkpt lat="38.6777197" lon="-0.3579602"><ele>698.0</ele><time>2026-04-05T10:30:37.031Z</time></trkpt><trkpt lat="38.6777189" lon="-0.3580507"><ele>699.4</ele><time>2026-04-05T10:30:38.031Z</time></trkpt><trkpt lat="38.6777534" lon="-0.3581561"><ele>700.8</ele><time>2026-04-05T10:30:39.031Z</time></trkpt><trkpt lat="38.6778173" lon="-0.3582789"><ele>702.2</ele><time>2026-04-05T10:30:40.03Z</time></trkpt><trkpt lat="38.6778869" lon="-0.3583925"><ele>703.6</ele><time>2026-04-05T10:30:41.03Z</time></trkpt><trkpt lat="38.6779678" lon="-0.3584991"><ele>705.0</ele><time>2026-04-05T10:30:42.031Z</time></trkpt><trkpt lat="38.67804" lon="-0.3585908"><ele>703.5</ele><time>2026-04-05T10:30:43.031Z</time></trkpt><trkpt lat="38.6781083" lon="-0.3586782"><ele>702.0</ele><time>2026-04-05T10:30:44.031Z</time></trkpt><trkpt lat="38.6781698" lon="-0.3587733"><ele>700.5</ele><time>2026-04-05T10:30:45.031Z</time></trkpt><trkpt lat="38.6781909" lon="-0.3588918"><ele>699.0</ele><time>2026-04-05T10:30:46.03Z</time></trkpt><trkpt lat="38.6782018" lon="-0.359"><ele>697.5</ele><time>2026-04-05T10:30:47.031Z</time></trkpt><trkpt lat="38.6782047" lon="-0.3590975"><ele>696.0</ele><time>2026-04-05T10:30:48.03Z</time></trkpt><trkpt lat="38.6782029" lon="-0.3591875"><ele>696.0</ele><time>2026-04-05T10:30:49.03Z</time></trkpt><trkpt lat="38.6782051" lon="-0.3592758"><ele>696.0</ele><time>2026-04-05T10:30:50.031Z</time></trkpt><trkpt lat="38.6782223" lon="-0.3594198"><ele>696.0</ele><time>2026-04-05T10:30:51.031Z</time></trkpt><trkpt lat="38.6782263" lon="-0.3595516"><ele>696.0</ele><time>2026-04-05T10:30:52.031Z</time></trkpt><trkpt lat="38.6782124" lon="-0.3596871"><ele>696.0</ele><time>2026-04-05T10:30:53.03Z</time></trkpt><trkpt lat="38.6781982" lon="-0.3598053"><ele>696.5</ele><time>2026-04-05T10:30:54.031Z</time></trkpt><trkpt lat="38.6781829" lon="-0.3599101"><ele>697.0</ele><time>2026-04-05T10:30:55.03Z</time></trkpt><trkpt lat="38.6781723" lon="-0.3600006"><ele>697.5</ele><time>2026-04-05T10:30:56.031Z</time></trkpt><trkpt lat="38.6781556" lon="-0.3600911"><ele>698.0</ele><time>2026-04-05T10:30:57.031Z</time></trkpt><trkpt lat="38.6781255" lon="-0.3602248"><ele>698.5</ele><time>2026-04-05T10:30:59.03Z</time></trkpt><trkpt lat="38.6781142" lon="-0.3603249"><ele>699.0</ele><time>2026-04-05T10:31:01.03Z</time></trkpt><trkpt lat="38.6781835" lon="-0.3603879"><ele>699.0</ele><time>2026-04-05T10:31:04.03Z</time></trkpt><trkpt lat="38.6782338" lon="-0.3603001"><ele>699.0</ele><time>2026-04-05T10:31:06.031Z</time></trkpt><trkpt lat="38.6782871" lon="-0.3601544"><ele>699.0</ele><time>2026-04-05T10:31:08.03Z</time></trkpt><trkpt lat="38.67833" lon="-0.3600689"><ele>699.0</ele><time>2026-04-05T10:31:09.03Z</time></trkpt><trkpt lat="38.6783694" lon="-0.3599698"><ele>699.0</ele><time>2026-04-05T10:31:10.031Z</time></trkpt><trkpt lat="38.6784192" lon="-0.3598705"><ele>699.0</ele><time>2026-04-05T10:31:11.031Z</time></trkpt><trkpt lat="38.6784838" lon="-0.3597966"><ele>699.0</ele><time>2026-04-05T10:31:12.031Z</time></trkpt><trkpt lat="38.6785612" lon="-0.3597625"><ele>699.0</ele><time>2026-04-05T10:31:13.03Z</time></trkpt><trkpt lat="38.678647" lon="-0.359772"><ele>699.0</ele><time>2026-04-05T10:31:14.03Z</time></trkpt><trkpt lat="38.6787284" lon="-0.3598328"><ele>699.0</ele><time>2026-04-05T10:31:15.03Z</time></trkpt><trkpt lat="38.6787888" lon="-0.3599325"><ele>699.0</ele><time>2026-04-05T10:31:16.031Z</time></trkpt><trkpt lat="38.6788174" lon="-0.3600603"><ele>696.0</ele><time>2026-04-05T10:31:17.03Z</time></trkpt><trkpt lat="38.6787907" lon="-0.3602026"><ele>693.0</ele><time>2026-04-05T10:31:18.03Z</time></trkpt><trkpt lat="38.6787432" lon="-0.3603401"><ele>690.0</ele><time>2026-04-05T10:31:19.03Z</time></trkpt><trkpt lat="38.678687" lon="-0.3604794"><ele>687.0</ele><time>2026-04-05T10:31:20.031Z</time></trkpt><trkpt lat="38.6786332" lon="-0.3606109"><ele>688.0</ele><time>2026-04-05T10:31:21.03Z</time></trkpt><trkpt lat="38.6785791" lon="-0.3607414"><ele>689.0</ele><time>2026-04-05T10:31:22.03Z</time></trkpt><trkpt lat="38.6785293" lon="-0.3608635"><ele>690.0</ele><time>2026-04-05T10:31:23.03Z</time></trkpt><trkpt lat="38.6784858" lon="-0.3609757"><ele>691.0</ele><time>2026-04-05T10:31:24.03Z</time></trkpt><trkpt lat="38.6784429" lon="-0.3610799"><ele>692.0</ele><time>2026-04-05T10:31:25.03Z</time></trkpt><trkpt lat="38.6784007" lon="-0.3611795"><ele>692.0</ele><time>2026-04-05T10:31:26.031Z</time></trkpt><trkpt lat="38.6783652" lon="-0.3612703"><ele>692.0</ele><time>2026-04-05T10:31:27.03Z</time></trkpt><trkpt lat="38.6783253" lon="-0.3613696"><ele>692.0</ele><time>2026-04-05T10:31:28.03Z</time></trkpt><trkpt lat="38.6782797" lon="-0.3614754"><ele>692.0</ele><time>2026-04-05T10:31:29.031Z</time></trkpt><trkpt lat="38.6782362" lon="-0.3615866"><ele>692.0</ele><time>2026-04-05T10:31:30.031Z</time></trkpt><trkpt lat="38.6781875" lon="-0.3617001"><ele>689.6666666666666</ele><time>2026-04-05T10:31:31.031Z</time></trkpt><trkpt lat="38.6781439" lon="-0.3618097"><ele>687.3333333333333</ele><time>2026-04-05T10:31:32.03Z</time></trkpt><trkpt lat="38.678101" lon="-0.3619116"><ele>685.0</ele><time>2026-04-05T10:31:33.031Z</time></trkpt><trkpt lat="38.6780609" lon="-0.3620065"><ele>682.6666666666666</ele><time>2026-04-05T10:31:34.031Z</time></trkpt><trkpt lat="38.6780255" lon="-0.3620966"><ele>680.3333333333334</ele><time>2026-04-05T10:31:35.03Z</time></trkpt><trkpt lat="38.677986" lon="-0.3621842"><ele>678.0</ele><time>2026-04-05T10:31:36.031Z</time></trkpt><trkpt lat="38.677948" lon="-0.3622781"><ele>677.1666666666666</ele><time>2026-04-05T10:31:37.031Z</time></trkpt><trkpt lat="38.6779209" lon="-0.3623794"><ele>676.3333333333334</ele><time>2026-04-05T10:31:38.03Z</time></trkpt><trkpt lat="38.6779188" lon="-0.3624852"><ele>675.5</ele><time>2026-04-05T10:31:39.031Z</time></trkpt><trkpt lat="38.6779424" lon="-0.3625852"><ele>674.6666666666667</ele><time>2026-04-05T10:31:40.03Z</time></trkpt><trkpt lat="38.6779837" lon="-0.3626833"><ele>673.8333333333334</ele><time>2026-04-05T10:31:41.03Z</time></trkpt><trkpt lat="38.6780561" lon="-0.3627691"><ele>673.0</ele><time>2026-04-05T10:31:42.031Z</time></trkpt><trkpt lat="38.678151" lon="-0.3627872"><ele>673.0</ele><time>2026-04-05T10:31:43.031Z</time></trkpt><trkpt lat="38.678255" lon="-0.3627672"><ele>673.0</ele><time>2026-04-05T10:31:44.031Z</time></trkpt><trkpt lat="38.6783587" lon="-0.3627187"><ele>673.0</ele><time>2026-04-05T10:31:45.031Z</time></trkpt><trkpt lat="38.678459" lon="-0.362636"><ele>673.0</ele><time>2026-04-05T10:31:46.031Z</time></trkpt><trkpt lat="38.678559" lon="-0.3625342"><ele>673.0</ele><time>2026-04-05T10:31:47.03Z</time></trkpt><trkpt lat="38.6786408" lon="-0.3624138"><ele>673.0</ele><time>2026-04-05T10:31:48.03Z</time></trkpt><trkpt lat="38.6787065" lon="-0.3622859"><ele>673.0</ele><time>2026-04-05T10:31:49.03Z</time></trkpt><trkpt lat="38.6787653" lon="-0.3621648"><ele>673.0</ele><time>2026-04-05T10:31:50.03Z</time></trkpt><trkpt lat="38.6788273" lon="-0.3620627"><ele>671.25</ele><time>2026-04-05T10:31:51.03Z</time></trkpt><trkpt lat="38.678926" lon="-0.3619804"><ele>669.5</ele><time>2026-04-05T10:31:52.03Z</time></trkpt><trkpt lat="38.6790461" lon="-0.3619385"><ele>667.75</ele><time>2026-04-05T10:31:53.031Z</time></trkpt><trkpt lat="38.6791691" lon="-0.3619313"><ele>666.0</ele><time>2026-04-05T10:31:54.031Z</time></trkpt><trkpt lat="38.6793085" lon="-0.361936"><ele>665.0</ele><time>2026-04-05T10:31:55.031Z</time></trkpt><trkpt lat="38.6794622" lon="-0.3619722"><ele>664.0</ele><time>2026-04-05T10:31:56.031Z</time></trkpt><trkpt lat="38.679623" lon="-0.3620464"><ele>663.0</ele><time>2026-04-05T10:31:57.03Z</time></trkpt><trkpt lat="38.6797662" lon="-0.3621466"><ele>664.5</ele><time>2026-04-05T10:31:58.03Z</time></trkpt><trkpt lat="38.6798911" lon="-0.3622451"><ele>666.0</ele><time>2026-04-05T10:31:59.03Z</time></trkpt><trkpt lat="38.6800034" lon="-0.3623541"><ele>667.5</ele><time>2026-04-05T10:32:00.03Z</time></trkpt><trkpt lat="38.6801036" lon="-0.3624917"><ele>669.0</ele><time>2026-04-05T10:32:01.03Z</time></trkpt><trkpt lat="38.6801855" lon="-0.3626422"><ele>669.0</ele><time>2026-04-05T10:32:02.03Z</time></trkpt><trkpt lat="38.6802589" lon="-0.3628268"><ele>669.0</ele><time>2026-04-05T10:32:03.03Z</time></trkpt><trkpt lat="38.6803267" lon="-0.3630197"><ele>669.0</ele><time>2026-04-05T10:32:04.03Z</time></trkpt><trkpt lat="38.6803866" lon="-0.3632105"><ele>666.6666666666666</ele><time>2026-04-05T10:32:05.031Z</time></trkpt><trkpt lat="38.6804471" lon="-0.363407"><ele>664.3333333333333</ele><time>2026-04-05T10:32:06.03Z</time></trkpt><trkpt lat="38.6805037" lon="-0.3636057"><ele>662.0</ele><time>2026-04-05T10:32:07.03Z</time></trkpt><trkpt lat="38.6805623" lon="-0.3638075"><ele>665.0</ele><time>2026-04-05T10:32:08.03Z</time></trkpt><trkpt lat="38.6806171" lon="-0.3640122"><ele>668.0</ele><time>2026-04-05T10:32:09.031Z</time></trkpt><trkpt lat="38.6806633" lon="-0.3642224"><ele>671.0</ele><time>2026-04-05T10:32:10.03Z</time></trkpt><trkpt lat="38.680698" lon="-0.364432"><ele>671.0</ele><time>2026-04-05T10:32:11.03Z</time></trkpt><trkpt lat="38.6807273" lon="-0.3646305"><ele>671.0</ele><time>2026-04-05T10:32:12.03Z</time></trkpt><trkpt lat="38.6807516" lon="-0.3648261"><ele>671.0</ele><time>2026-04-05T10:32:13.03Z</time></trkpt><trkpt lat="38.6807781" lon="-0.3650155"><ele>673.0</ele><time>2026-04-05T10:32:14.031Z</time></trkpt><trkpt lat="38.6808016" lon="-0.3651956"><ele>675.0</ele><time>2026-04-05T10:32:15.031Z</time></trkpt><trkpt lat="38.6808268" lon="-0.3653569"><ele>677.0</ele><time>2026-04-05T10:32:16.031Z</time></trkpt><trkpt lat="38.6808498" lon="-0.3655097"><ele>679.0</ele><time>2026-04-05T10:32:17.031Z</time></trkpt><trkpt lat="38.6808673" lon="-0.3656564"><ele>680.0</ele><time>2026-04-05T10:32:18.03Z</time></trkpt><trkpt lat="38.680883" lon="-0.3658043"><ele>681.0</ele><time>2026-04-05T10:32:19.03Z</time></trkpt><trkpt lat="38.6808949" lon="-0.3659514"><ele>682.0</ele><time>2026-04-05T10:32:20.031Z</time></trkpt><trkpt lat="38.6808947" lon="-0.3660976"><ele>683.0</ele><time>2026-04-05T10:32:21.03Z</time></trkpt><trkpt lat="38.6808821" lon="-0.3662466"><ele>684.5999999999999</ele><time>2026-04-05T10:32:22.03Z</time></trkpt><trkpt lat="38.6808873" lon="-0.3663895"><ele>686.1999999999999</ele><time>2026-04-05T10:32:23.031Z</time></trkpt><trkpt lat="38.6809007" lon="-0.3665306"><ele>687.8</ele><time>2026-04-05T10:32:24.031Z</time></trkpt><trkpt lat="38.6808818" lon="-0.3666601"><ele>689.4</ele><time>2026-04-05T10:32:25.03Z</time></trkpt><trkpt lat="38.680831" lon="-0.3667794"><ele>691.0</ele><time>2026-04-05T10:32:26.03Z</time></trkpt><trkpt lat="38.6807572" lon="-0.3668748"><ele>691.0</ele><time>2026-04-05T10:32:27.03Z</time></trkpt><trkpt lat="38.680684" lon="-0.366971"><ele>691.0</ele><time>2026-04-05T10:32:28.03Z</time></trkpt><trkpt lat="38.680635" lon="-0.3670851"><ele>691.0</ele><time>2026-04-05T10:32:29.031Z</time></trkpt><trkpt lat="38.6805878" lon="-0.3671998"><ele>691.0</ele><time>2026-04-05T10:32:30.031Z</time></trkpt><trkpt lat="38.6805289" lon="-0.3672954"><ele>691.0</ele><time>2026-04-05T10:32:31.031Z</time></trkpt><trkpt lat="38.680467" lon="-0.3673861"><ele>690.5</ele><time>2026-04-05T10:32:32.031Z</time></trkpt><trkpt lat="38.6804035" lon="-0.3674932"><ele>690.0</ele><time>2026-04-05T10:32:33.031Z</time></trkpt><trkpt lat="38.6803463" lon="-0.3676212"><ele>689.5</ele><time>2026-04-05T10:32:34.03Z</time></trkpt><trkpt lat="38.6802993" lon="-0.3677716"><ele>689.0</ele><time>2026-04-05T10:32:35.03Z</time></trkpt><trkpt lat="38.6802619" lon="-0.3679524"><ele>691.0</ele><time>2026-04-05T10:32:36.031Z</time></trkpt><trkpt lat="38.6802274" lon="-0.3681578"><ele>693.0</ele><time>2026-04-05T10:32:37.03Z</time></trkpt><trkpt lat="38.680199" lon="-0.3683598"><ele>695.0</ele><time>2026-04-05T10:32:38.03Z</time></trkpt><trkpt lat="38.6801659" lon="-0.36856"><ele>695.0</ele><time>2026-04-05T10:32:39.031Z</time></trkpt><trkpt lat="38.6801337" lon="-0.3687614"><ele>695.0</ele><time>2026-04-05T10:32:40.03Z</time></trkpt><trkpt lat="38.6800988" lon="-0.3689685"><ele>695.0</ele><time>2026-04-05T10:32:41.03Z</time></trkpt><trkpt lat="38.6800711" lon="-0.3691512"><ele>695.0</ele><time>2026-04-05T10:32:42.03Z</time></trkpt><trkpt lat="38.6800497" lon="-0.3693169"><ele>695.0</ele><time>2026-04-05T10:32:43.031Z</time></trkpt><trkpt lat="38.6800294" lon="-0.3694665"><ele>695.0</ele><time>2026-04-05T10:32:44.031Z</time></trkpt><trkpt lat="38.6800062" lon="-0.369604"><ele>695.0</ele><time>2026-04-05T10:32:45.031Z</time></trkpt><trkpt lat="38.6799741" lon="-0.369749"><ele>694.5</ele><time>2026-04-05T10:32:46.03Z</time></trkpt><trkpt lat="38.6799372" lon="-0.3699043"><ele>694.0</ele><time>2026-04-05T10:32:47.031Z</time></trkpt><trkpt lat="38.6798965" lon="-0.3700575"><ele>693.5</ele><time>2026-04-05T10:32:48.03Z</time></trkpt><trkpt lat="38.6798498" lon="-0.3702212"><ele>693.0</ele><time>2026-04-05T10:32:49.03Z</time></trkpt><trkpt lat="38.679798" lon="-0.3703834"><ele>692.75</ele><time>2026-04-05T10:32:50.03Z</time></trkpt><trkpt lat="38.679739" lon="-0.3705423"><ele>692.5</ele><time>2026-04-05T10:32:51.03Z</time></trkpt><trkpt lat="38.6796814" lon="-0.3707085"><ele>692.25</ele><time>2026-04-05T10:32:52.03Z</time></trkpt><trkpt lat="38.6796137" lon="-0.3708866"><ele>692.0</ele><time>2026-04-05T10:32:53.03Z</time></trkpt><trkpt lat="38.679545" lon="-0.3710693"><ele>692.0</ele><time>2026-04-05T10:32:54.031Z</time></trkpt><trkpt lat="38.6794777" lon="-0.3712625"><ele>692.0</ele><time>2026-04-05T10:32:55.031Z</time></trkpt><trkpt lat="38.679412" lon="-0.3714596"><ele>692.0</ele><time>2026-04-05T10:32:56.03Z</time></trkpt><trkpt lat="38.6793359" lon="-0.3716608"><ele>692.3333333333333</ele><time>2026-04-05T10:32:57.031Z</time></trkpt><trkpt lat="38.6792481" lon="-0.3718665"><ele>692.6666666666666</ele><time>2026-04-05T10:32:58.031Z</time></trkpt><trkpt lat="38.6790935" lon="-0.3720502"><ele>693.0</ele><time>2026-04-05T10:32:59.03Z</time></trkpt><trkpt lat="38.6789807" lon="-0.372253"><ele>693.0</ele><time>2026-04-05T10:33:00.031Z</time></trkpt><trkpt lat="38.6788986" lon="-0.3724819"><ele>693.0</ele><time>2026-04-05T10:33:01.03Z</time></trkpt><trkpt lat="38.6788275" lon="-0.3727291"><ele>693.0</ele><time>2026-04-05T10:33:02.03Z</time></trkpt><trkpt lat="38.6787387" lon="-0.3730041"><ele>693.0</ele><time>2026-04-05T10:33:03.03Z</time></trkpt><trkpt lat="38.6786469" lon="-0.373329"><ele>693.0</ele><time>2026-04-05T10:33:04.03Z</time></trkpt><trkpt lat="38.6785684" lon="-0.3736525"><ele>700.0</ele><time>2026-04-05T10:33:05.031Z</time></trkpt><trkpt lat="38.6784891" lon="-0.3739539"><ele>707.0</ele><time>2026-04-05T10:33:06.031Z</time></trkpt><trkpt lat="38.6784064" lon="-0.3742266"><ele>707.0</ele><time>2026-04-05T10:33:07.031Z</time></trkpt><trkpt lat="38.678307" lon="-0.37447"><ele>707.0</ele><time>2026-04-05T10:33:08.031Z</time></trkpt><trkpt lat="38.6782192" lon="-0.3746823"><ele>707.0</ele><time>2026-04-05T10:33:09.03Z</time></trkpt><trkpt lat="38.6781543" lon="-0.3748681"><ele>704.75</ele><time>2026-04-05T10:33:10.03Z</time></trkpt><trkpt lat="38.6780971" lon="-0.3750225"><ele>702.5</ele><time>2026-04-05T10:33:11.031Z</time></trkpt><trkpt lat="38.6780417" lon="-0.3751543"><ele>700.25</ele><time>2026-04-05T10:33:12.03Z</time></trkpt><trkpt lat="38.6779782" lon="-0.3752755"><ele>698.0</ele><time>2026-04-05T10:33:13.031Z</time></trkpt><trkpt lat="38.6778951" lon="-0.3753684"><ele>698.0</ele><time>2026-04-05T10:33:14.031Z</time></trkpt><trkpt lat="38.6777836" lon="-0.3754312"><ele>698.0</ele><time>2026-04-05T10:33:15.031Z</time></trkpt><trkpt lat="38.6776433" lon="-0.3754426"><ele>698.0</ele><time>2026-04-05T10:33:16.03Z</time></trkpt><trkpt lat="38.6774761" lon="-0.3754109"><ele>698.0</ele><time>2026-04-05T10:33:17.03Z</time></trkpt><trkpt lat="38.6773168" lon="-0.3753707"><ele>698.25</ele><time>2026-04-05T10:33:18.03Z</time></trkpt><trkpt lat="38.6771841" lon="-0.3753476"><ele>698.5</ele><time>2026-04-05T10:33:19.03Z</time></trkpt><trkpt lat="38.677046" lon="-0.3753401"><ele>698.75</ele><time>2026-04-05T10:33:20.031Z</time></trkpt><trkpt lat="38.6769218" lon="-0.3753698"><ele>699.0</ele><time>2026-04-05T10:33:21.031Z</time></trkpt><trkpt lat="38.6768156" lon="-0.3754611"><ele>695.25</ele><time>2026-04-05T10:33:22.03Z</time></trkpt><trkpt lat="38.6767441" lon="-0.3756056"><ele>691.5</ele><time>2026-04-05T10:33:23.03Z</time></trkpt><trkpt lat="38.6766988" lon="-0.3757812"><ele>687.75</ele><time>2026-04-05T10:33:24.031Z</time></trkpt><trkpt lat="38.6766606" lon="-0.3759557"><ele>684.0</ele><time>2026-04-05T10:33:25.031Z</time></trkpt><trkpt lat="38.6766144" lon="-0.3761241"><ele>684.0</ele><time>2026-04-05T10:33:26.03Z</time></trkpt><trkpt lat="38.6765567" lon="-0.376279"><ele>684.0</ele><time>2026-04-05T10:33:27.031Z</time></trkpt><trkpt lat="38.6764128" lon="-0.3764724"><ele>684.0</ele><time>2026-04-05T10:33:28.03Z</time></trkpt><trkpt lat="38.6762815" lon="-0.3766438"><ele>686.3333333333334</ele><time>2026-04-05T10:33:29.03Z</time></trkpt><trkpt lat="38.6761491" lon="-0.3768025"><ele>688.6666666666667</ele><time>2026-04-05T10:33:30.03Z</time></trkpt><trkpt lat="38.676023" lon="-0.376955"><ele>691.0</ele><time>2026-04-05T10:33:31.03Z</time></trkpt><trkpt lat="38.6758884" lon="-0.3771107"><ele>687.6666666666667</ele><time>2026-04-05T10:33:32.031Z</time></trkpt><trkpt lat="38.6757761" lon="-0.3772981"><ele>684.3333333333334</ele><time>2026-04-05T10:33:33.03Z</time></trkpt><trkpt lat="38.6757114" lon="-0.3775067"><ele>681.0</ele><time>2026-04-05T10:33:34.03Z</time></trkpt><trkpt lat="38.6756817" lon="-0.3777109"><ele>681.0</ele><time>2026-04-05T10:33:35.031Z</time></trkpt><trkpt lat="38.6756554" lon="-0.3779145"><ele>681.0</ele><time>2026-04-05T10:33:36.03Z</time></trkpt><trkpt lat="38.675606" lon="-0.3781313"><ele>681.0</ele><time>2026-04-05T10:33:37.031Z</time></trkpt><trkpt lat="38.6755337" lon="-0.378354"><ele>681.3333333333334</ele><time>2026-04-05T10:33:38.031Z</time></trkpt><trkpt lat="38.6754485" lon="-0.3785737"><ele>681.6666666666667</ele><time>2026-04-05T10:33:39.03Z</time></trkpt><trkpt lat="38.6753477" lon="-0.3787864"><ele>682.0</ele><time>2026-04-05T10:33:40.03Z</time></trkpt><trkpt lat="38.6752466" lon="-0.3790006"><ele>682.0</ele><time>2026-04-05T10:33:41.03Z</time></trkpt><trkpt lat="38.6751531" lon="-0.3792084"><ele>682.0</ele><time>2026-04-05T10:33:42.03Z</time></trkpt><trkpt lat="38.6750702" lon="-0.3794087"><ele>682.0</ele><time>2026-04-05T10:33:43.03Z</time></trkpt><trkpt lat="38.6750023" lon="-0.3796099"><ele>679.25</ele><time>2026-04-05T10:33:44.03Z</time></trkpt><trkpt lat="38.6749592" lon="-0.3798064"><ele>676.5</ele><time>2026-04-05T10:33:45.031Z</time></trkpt><trkpt lat="38.6749216" lon="-0.379978"><ele>673.75</ele><time>2026-04-05T10:33:46.03Z</time></trkpt><trkpt lat="38.6748882" lon="-0.3801218"><ele>671.0</ele><time>2026-04-05T10:33:47.03Z</time></trkpt><trkpt lat="38.6748497" lon="-0.3802327"><ele>671.0</ele><time>2026-04-05T10:33:48.03Z</time></trkpt><trkpt lat="38.6747852" lon="-0.3803287"><ele>671.0</ele><time>2026-04-05T10:33:49.031Z</time></trkpt><trkpt lat="38.6746924" lon="-0.3804042"><ele>671.0</ele><time>2026-04-05T10:33:50.031Z</time></trkpt><trkpt lat="38.6745492" lon="-0.3804229"><ele>671.0</ele><time>2026-04-05T10:33:51.031Z</time></trkpt><trkpt lat="38.6744133" lon="-0.3804347"><ele>675.5</ele><time>2026-04-05T10:33:52.03Z</time></trkpt><trkpt lat="38.6742861" lon="-0.3804485"><ele>680.0</ele><time>2026-04-05T10:33:53.031Z</time></trkpt><trkpt lat="38.6741594" lon="-0.3804631"><ele>684.5</ele><time>2026-04-05T10:33:54.031Z</time></trkpt><trkpt lat="38.67404" lon="-0.3804774"><ele>689.0</ele><time>2026-04-05T10:33:55.031Z</time></trkpt><trkpt lat="38.6739311" lon="-0.3804912"><ele>681.75</ele><time>2026-04-05T10:33:56.03Z</time></trkpt><trkpt lat="38.6738355" lon="-0.3805355"><ele>674.5</ele><time>2026-04-05T10:33:57.031Z</time></trkpt><trkpt lat="38.6737652" lon="-0.3806422"><ele>667.25</ele><time>2026-04-05T10:33:58.031Z</time></trkpt><trkpt lat="38.6737048" lon="-0.3807788"><ele>660.0</ele><time>2026-04-05T10:33:59.031Z</time></trkpt><trkpt lat="38.6736489" lon="-0.3809234"><ele>662.4</ele><time>2026-04-05T10:34:00.03Z</time></trkpt><trkpt lat="38.673601" lon="-0.3810557"><ele>664.8</ele><time>2026-04-05T10:34:01.031Z</time></trkpt><trkpt lat="38.6735548" lon="-0.3811789"><ele>667.2</ele><time>2026-04-05T10:34:02.03Z</time></trkpt><trkpt lat="38.6735198" lon="-0.3812949"><ele>669.6</ele><time>2026-04-05T10:34:03.031Z</time></trkpt><trkpt lat="38.6735039" lon="-0.3814124"><ele>672.0</ele><time>2026-04-05T10:34:04.03Z</time></trkpt><trkpt lat="38.6735404" lon="-0.3815128"><ele>671.5</ele><time>2026-04-05T10:34:05.031Z</time></trkpt><trkpt lat="38.6736136" lon="-0.3816043"><ele>671.0</ele><time>2026-04-05T10:34:06.03Z</time></trkpt><trkpt lat="38.6737449" lon="-0.3816094"><ele>670.5</ele><time>2026-04-05T10:34:07.031Z</time></trkpt><trkpt lat="38.6738778" lon="-0.3815913"><ele>670.0</ele><time>2026-04-05T10:34:08.031Z</time></trkpt><trkpt lat="38.6740239" lon="-0.3815616"><ele>670.0</ele><time>2026-04-05T10:34:09.031Z</time></trkpt><trkpt lat="38.6741851" lon="-0.3815692"><ele>670.0</ele><time>2026-04-05T10:34:10.03Z</time></trkpt><trkpt lat="38.6743458" lon="-0.3816249"><ele>670.0</ele><time>2026-04-05T10:34:11.03Z</time></trkpt><trkpt lat="38.6744928" lon="-0.381702"><ele>670.5</ele><time>2026-04-05T10:34:12.031Z</time></trkpt><trkpt lat="38.6746399" lon="-0.3817558"><ele>671.0</ele><time>2026-04-05T10:34:13.031Z</time></trkpt><trkpt lat="38.6747862" lon="-0.3817651"><ele>671.5</ele><time>2026-04-05T10:34:14.03Z</time></trkpt><trkpt lat="38.6749132" lon="-0.3817434"><ele>672.0</ele><time>2026-04-05T10:34:15.03Z</time></trkpt><trkpt lat="38.6750069" lon="-0.3816888"><ele>672.0</ele><time>2026-04-05T10:34:16.031Z</time></trkpt><trkpt lat="38.6750782" lon="-0.3816435"><ele>672.0</ele><time>2026-04-05T10:34:17.031Z</time></trkpt><trkpt lat="38.6751371" lon="-0.3816073"><ele>672.0</ele><time>2026-04-05T10:34:18.03Z</time></trkpt><trkpt lat="38.6752571" lon="-0.3816391"><ele>672.0</ele><time>2026-04-05T10:34:20.031Z</time></trkpt><trkpt lat="38.6752713" lon="-0.3817863"><ele>672.0</ele><time>2026-04-05T10:34:22.03Z</time></trkpt><trkpt lat="38.6752149" lon="-0.3818565"><ele>672.0</ele><time>2026-04-05T10:34:23.031Z</time></trkpt><trkpt lat="38.6751164" lon="-0.3819194"><ele>672.0</ele><time>2026-04-05T10:34:24.03Z</time></trkpt><trkpt lat="38.6749876" lon="-0.382004"><ele>672.0</ele><time>2026-04-05T10:34:25.031Z</time></trkpt><trkpt lat="38.6748648" lon="-0.3820945"><ele>672.0</ele><time>2026-04-05T10:34:26.03Z</time></trkpt><trkpt lat="38.6747528" lon="-0.382208"><ele>675.3333333333334</ele><time>2026-04-05T10:34:27.031Z</time></trkpt><trkpt lat="38.6746501" lon="-0.3823492"><ele>678.6666666666667</ele><time>2026-04-05T10:34:28.03Z</time></trkpt><trkpt lat="38.6745341" lon="-0.3825296"><ele>682.0</ele><time>2026-04-05T10:34:29.03Z</time></trkpt><trkpt lat="38.6744116" lon="-0.3827135"><ele>682.0</ele><time>2026-04-05T10:34:30.031Z</time></trkpt><trkpt lat="38.6742907" lon="-0.3828683"><ele>682.0</ele><time>2026-04-05T10:34:31.03Z</time></trkpt><trkpt lat="38.6741682" lon="-0.3830209"><ele>682.0</ele><time>2026-04-05T10:34:32.031Z</time></trkpt><trkpt lat="38.674054" lon="-0.3831684"><ele>680.6666666666667</ele><time>2026-04-05T10:34:33.03Z</time></trkpt><trkpt lat="38.6739497" lon="-0.3833444"><ele>679.3333333333334</ele><time>2026-04-05T10:34:34.031Z</time></trkpt><trkpt lat="38.6738821" lon="-0.3835325"><ele>678.0</ele><time>2026-04-05T10:34:35.03Z</time></trkpt><trkpt lat="38.6738361" lon="-0.3837194"><ele>676.6666666666666</ele><time>2026-04-05T10:34:36.031Z</time></trkpt><trkpt lat="38.6737949" lon="-0.383918"><ele>675.3333333333333</ele><time>2026-04-05T10:34:37.031Z</time></trkpt><trkpt lat="38.6737454" lon="-0.3841144"><ele>674.0</ele><time>2026-04-05T10:34:38.03Z</time></trkpt><trkpt lat="38.673702" lon="-0.3842938"><ele>674.0</ele><time>2026-04-05T10:34:39.031Z</time></trkpt><trkpt lat="38.6736602" lon="-0.3844555"><ele>674.0</ele><time>2026-04-05T10:34:40.03Z</time></trkpt><trkpt lat="38.6736169" lon="-0.3846236"><ele>674.0</ele><time>2026-04-05T10:34:41.031Z</time></trkpt><trkpt lat="38.6735725" lon="-0.3847997"><ele>674.0</ele><time>2026-04-05T10:34:42.03Z</time></trkpt><trkpt lat="38.6735275" lon="-0.3849875"><ele>676.3333333333333</ele><time>2026-04-05T10:34:43.03Z</time></trkpt><trkpt lat="38.6734794" lon="-0.3852064"><ele>678.6666666666666</ele><time>2026-04-05T10:34:44.03Z</time></trkpt><trkpt lat="38.6734373" lon="-0.3854212"><ele>681.0</ele><time>2026-04-05T10:34:45.03Z</time></trkpt><trkpt lat="38.6733903" lon="-0.385615"><ele>681.0</ele><time>2026-04-05T10:34:46.03Z</time></trkpt><trkpt lat="38.6733295" lon="-0.3858"><ele>681.0</ele><time>2026-04-05T10:34:47.031Z</time></trkpt><trkpt lat="38.67325" lon="-0.3859829"><ele>681.0</ele><time>2026-04-05T10:34:48.031Z</time></trkpt><trkpt lat="38.6731498" lon="-0.3861677"><ele>681.0</ele><time>2026-04-05T10:34:49.031Z</time></trkpt><trkpt lat="38.67304" lon="-0.3863423"><ele>681.0</ele><time>2026-04-05T10:34:50.031Z</time></trkpt><trkpt lat="38.6729274" lon="-0.3865123"><ele>681.0</ele><time>2026-04-05T10:34:51.03Z</time></trkpt><trkpt lat="38.6728042" lon="-0.3866884"><ele>682.3333333333334</ele><time>2026-04-05T10:34:52.03Z</time></trkpt><trkpt lat="38.6726702" lon="-0.386877"><ele>683.6666666666667</ele><time>2026-04-05T10:34:53.03Z</time></trkpt><trkpt lat="38.6725557" lon="-0.3870677"><ele>685.0</ele><time>2026-04-05T10:34:54.031Z</time></trkpt><trkpt lat="38.6724377" lon="-0.3872459"><ele>682.3333333333334</ele><time>2026-04-05T10:34:55.03Z</time></trkpt><trkpt lat="38.6723181" lon="-0.3874188"><ele>679.6666666666666</ele><time>2026-04-05T10:34:56.03Z</time></trkpt><trkpt lat="38.6721951" lon="-0.3875923"><ele>677.0</ele><time>2026-04-05T10:34:57.031Z</time></trkpt><trkpt lat="38.6720678" lon="-0.3877783"><ele>677.5</ele><time>2026-04-05T10:34:58.031Z</time></trkpt><trkpt lat="38.6719203" lon="-0.3879845"><ele>678.0</ele><time>2026-04-05T10:34:59.03Z</time></trkpt><trkpt lat="38.6717458" lon="-0.3882334"><ele>678.0</ele><time>2026-04-05T10:35:00.031Z</time></trkpt><trkpt lat="38.6715604" lon="-0.3885046"><ele>678.0</ele><time>2026-04-05T10:35:01.03Z</time></trkpt><trkpt lat="38.6713895" lon="-0.3887579"><ele>677.0</ele><time>2026-04-05T10:35:02.03Z</time></trkpt><trkpt lat="38.6712306" lon="-0.3889864"><ele>676.0</ele><time>2026-04-05T10:35:03.031Z</time></trkpt><trkpt lat="38.6710863" lon="-0.3891972"><ele>678.6666666666667</ele><time>2026-04-05T10:35:04.031Z</time></trkpt><trkpt lat="38.6709556" lon="-0.3893855"><ele>681.3333333333334</ele><time>2026-04-05T10:35:05.031Z</time></trkpt><trkpt lat="38.6708302" lon="-0.3895655"><ele>684.0</ele><time>2026-04-05T10:35:06.03Z</time></trkpt><trkpt lat="38.6707062" lon="-0.3897444"><ele>685.3333333333334</ele><time>2026-04-05T10:35:07.03Z</time></trkpt><trkpt lat="38.6705804" lon="-0.3899363"><ele>686.6666666666667</ele><time>2026-04-05T10:35:08.031Z</time></trkpt><trkpt lat="38.670458" lon="-0.3901396"><ele>688.0</ele><time>2026-04-05T10:35:09.031Z</time></trkpt><trkpt lat="38.670367" lon="-0.3903331"><ele>688.0</ele><time>2026-04-05T10:35:10.03Z</time></trkpt><trkpt lat="38.6703063" lon="-0.3905022"><ele>688.0</ele><time>2026-04-05T10:35:11.031Z</time></trkpt><trkpt lat="38.6702928" lon="-0.3906725"><ele>688.0</ele><time>2026-04-05T10:35:12.03Z</time></trkpt><trkpt lat="38.6702976" lon="-0.3908546"><ele>688.0</ele><time>2026-04-05T10:35:13.03Z</time></trkpt><trkpt lat="38.670334" lon="-0.3910354"><ele>684.0</ele><time>2026-04-05T10:35:14.031Z</time></trkpt><trkpt lat="38.6704486" lon="-0.3913502"><ele>680.0</ele><time>2026-04-05T10:35:15.03Z</time></trkpt><trkpt lat="38.6705333" lon="-0.3915815"><ele>680.0</ele><time>2026-04-05T10:35:16.03Z</time></trkpt><trkpt lat="38.6706326" lon="-0.391779"><ele>680.0</ele><time>2026-04-05T10:35:17.03Z</time></trkpt><trkpt lat="38.6707293" lon="-0.3919344"><ele>680.0</ele><time>2026-04-05T10:35:18.031Z</time></trkpt><trkpt lat="38.6708062" lon="-0.3920928"><ele>682.0</ele><time>2026-04-05T10:35:19.03Z</time></trkpt><trkpt lat="38.6708535" lon="-0.3922449"><ele>684.0</ele><time>2026-04-05T10:35:20.03Z</time></trkpt><trkpt lat="38.6707928" lon="-0.3923894"><ele>686.0</ele><time>2026-04-05T10:35:21.03Z</time></trkpt><trkpt lat="38.6707185" lon="-0.3925268"><ele>688.0</ele><time>2026-04-05T10:35:22.03Z</time></trkpt><trkpt lat="38.6706361" lon="-0.3926537"><ele>688.0</ele><time>2026-04-05T10:35:23.031Z</time></trkpt><trkpt lat="38.6704587" lon="-0.3928071"><ele>688.0</ele><time>2026-04-05T10:35:24.031Z</time></trkpt><trkpt lat="38.6702924" lon="-0.3929543"><ele>688.0</ele><time>2026-04-05T10:35:25.03Z</time></trkpt><trkpt lat="38.6701163" lon="-0.393096"><ele>688.0</ele><time>2026-04-05T10:35:26.03Z</time></trkpt><trkpt lat="38.6699481" lon="-0.3932191"><ele>688.0</ele><time>2026-04-05T10:35:27.031Z</time></trkpt><trkpt lat="38.6697714" lon="-0.3933569"><ele>688.0</ele><time>2026-04-05T10:35:28.03Z</time></trkpt><trkpt lat="38.6696258" lon="-0.3934738"><ele>688.0</ele><time>2026-04-05T10:35:29.03Z</time></trkpt><trkpt lat="38.6694694" lon="-0.3936171"><ele>688.0</ele><time>2026-04-05T10:35:30.03Z</time></trkpt><trkpt lat="38.6693097" lon="-0.3937784"><ele>688.0</ele><time>2026-04-05T10:35:31.031Z</time></trkpt><trkpt lat="38.6691448" lon="-0.3939895"><ele>687.0</ele><time>2026-04-05T10:35:32.03Z</time></trkpt><trkpt lat="38.6689596" lon="-0.3942083"><ele>686.0</ele><time>2026-04-05T10:35:33.031Z</time></trkpt><trkpt lat="38.6687782" lon="-0.394447"><ele>688.5</ele><time>2026-04-05T10:35:34.03Z</time></trkpt><trkpt lat="38.6685835" lon="-0.3946999"><ele>691.0</ele><time>2026-04-05T10:35:35.03Z</time></trkpt><trkpt lat="38.6683825" lon="-0.3949294"><ele>691.0</ele><time>2026-04-05T10:35:36.03Z</time></trkpt><trkpt lat="38.6681839" lon="-0.395134"><ele>691.0</ele><time>2026-04-05T10:35:37.03Z</time></trkpt><trkpt lat="38.6679704" lon="-0.3953283"><ele>696.5</ele><time>2026-04-05T10:35:38.03Z</time></trkpt><trkpt lat="38.6677639" lon="-0.3955193"><ele>702.0</ele><time>2026-04-05T10:35:39.031Z</time></trkpt><trkpt lat="38.6675731" lon="-0.3957056"><ele>702.0</ele><time>2026-04-05T10:35:40.03Z</time></trkpt><trkpt lat="38.6673835" lon="-0.3958807"><ele>702.0</ele><time>2026-04-05T10:35:41.031Z</time></trkpt><trkpt lat="38.6672011" lon="-0.3960472"><ele>702.0</ele><time>2026-04-05T10:35:42.03Z</time></trkpt><trkpt lat="38.6670248" lon="-0.3961967"><ele>702.0</ele><time>2026-04-05T10:35:43.03Z</time></trkpt><trkpt lat="38.6668547" lon="-0.396341"><ele>702.0</ele><time>2026-04-05T10:35:44.031Z</time></trkpt><trkpt lat="38.6666862" lon="-0.3964942"><ele>704.0</ele><time>2026-04-05T10:35:45.031Z</time></trkpt><trkpt lat="38.6665228" lon="-0.3966704"><ele>706.0</ele><time>2026-04-05T10:35:46.03Z</time></trkpt><trkpt lat="38.6663637" lon="-0.3968653"><ele>708.0</ele><time>2026-04-05T10:35:47.031Z</time></trkpt><trkpt lat="38.6662083" lon="-0.3970716"><ele>711.0</ele><time>2026-04-05T10:35:48.03Z</time></trkpt><trkpt lat="38.6660499" lon="-0.3972805"><ele>714.0</ele><time>2026-04-05T10:35:49.03Z</time></trkpt><trkpt lat="38.6658935" lon="-0.3974933"><ele>714.0</ele><time>2026-04-05T10:35:50.03Z</time></trkpt><trkpt lat="38.6657315" lon="-0.39771"><ele>714.0</ele><time>2026-04-05T10:35:51.031Z</time></trkpt><trkpt lat="38.66557" lon="-0.3979258"><ele>717.0</ele><time>2026-04-05T10:35:52.031Z</time></trkpt><trkpt lat="38.6654086" lon="-0.3981421"><ele>720.0</ele><time>2026-04-05T10:35:53.031Z</time></trkpt><trkpt lat="38.665249" lon="-0.3983502"><ele>720.0</ele><time>2026-04-05T10:35:54.03Z</time></trkpt><trkpt lat="38.6650873" lon="-0.3985553"><ele>720.0</ele><time>2026-04-05T10:35:55.031Z</time></trkpt><trkpt lat="38.6649344" lon="-0.3987537"><ele>720.0</ele><time>2026-04-05T10:35:56.031Z</time></trkpt><trkpt lat="38.664793" lon="-0.3989498"><ele>722.0</ele><time>2026-04-05T10:35:57.03Z</time></trkpt><trkpt lat="38.6646685" lon="-0.3991533"><ele>724.0</ele><time>2026-04-05T10:35:58.031Z</time></trkpt><trkpt lat="38.6645508" lon="-0.3993613"><ele>726.0</ele><time>2026-04-05T10:35:59.03Z</time></trkpt><trkpt lat="38.6644742" lon="-0.3995361"><ele>725.75</ele><time>2026-04-05T10:36:00.031Z</time></trkpt><trkpt lat="38.664386" lon="-0.3997132"><ele>725.5</ele><time>2026-04-05T10:36:01.031Z</time></trkpt><trkpt lat="38.6643084" lon="-0.3998712"><ele>725.25</ele><time>2026-04-05T10:36:02.03Z</time></trkpt><trkpt lat="38.6642349" lon="-0.4000063"><ele>725.0</ele><time>2026-04-05T10:36:03.03Z</time></trkpt><trkpt lat="38.6641674" lon="-0.4001316"><ele>725.0</ele><time>2026-04-05T10:36:04.031Z</time></trkpt><trkpt lat="38.664098" lon="-0.4002399"><ele>725.0</ele><time>2026-04-05T10:36:05.03Z</time></trkpt><trkpt lat="38.6640326" lon="-0.4003257"><ele>725.0</ele><time>2026-04-05T10:36:06.031Z</time></trkpt><trkpt lat="38.6639532" lon="-0.400417"><ele>725.0</ele><time>2026-04-05T10:36:07.03Z</time></trkpt><trkpt lat="38.6638482" lon="-0.4004964"><ele>725.0</ele><time>2026-04-05T10:36:08.031Z</time></trkpt><trkpt lat="38.6637365" lon="-0.4005577"><ele>723.5</ele><time>2026-04-05T10:36:09.031Z</time></trkpt><trkpt lat="38.663613" lon="-0.4005967"><ele>722.0</ele><time>2026-04-05T10:36:10.031Z</time></trkpt><trkpt lat="38.6634852" lon="-0.4006136"><ele>720.5</ele><time>2026-04-05T10:36:11.031Z</time></trkpt><trkpt lat="38.66337" lon="-0.4006182"><ele>719.0</ele><time>2026-04-05T10:36:12.031Z</time></trkpt><trkpt lat="38.6632637" lon="-0.4006137"><ele>719.0</ele><time>2026-04-05T10:36:13.03Z</time></trkpt><trkpt lat="38.6631633" lon="-0.4006156"><ele>719.0</ele><time>2026-04-05T10:36:14.03Z</time></trkpt><trkpt lat="38.663059" lon="-0.4006116"><ele>719.0</ele><time>2026-04-05T10:36:15.031Z</time></trkpt><trkpt lat="38.6629387" lon="-0.4006085"><ele>719.0</ele><time>2026-04-05T10:36:16.03Z</time></trkpt><trkpt lat="38.662816" lon="-0.4006204"><ele>719.0</ele><time>2026-04-05T10:36:17.03Z</time></trkpt><trkpt lat="38.6627059" lon="-0.4006378"><ele>720.0</ele><time>2026-04-05T10:36:18.03Z</time></trkpt><trkpt lat="38.6626132" lon="-0.4006662"><ele>721.0</ele><time>2026-04-05T10:36:19.03Z</time></trkpt><trkpt lat="38.662527" lon="-0.4007056"><ele>722.0</ele><time>2026-04-05T10:36:20.031Z</time></trkpt><trkpt lat="38.6624375" lon="-0.4007715"><ele>723.0</ele><time>2026-04-05T10:36:21.031Z</time></trkpt><trkpt lat="38.6623571" lon="-0.4008756"><ele>724.0</ele><time>2026-04-05T10:36:22.031Z</time></trkpt><trkpt lat="38.6622833" lon="-0.4010262"><ele>724.0</ele><time>2026-04-05T10:36:23.03Z</time></trkpt><trkpt lat="38.6622097" lon="-0.4012004"><ele>724.0</ele><time>2026-04-05T10:36:24.031Z</time></trkpt><trkpt lat="38.6621552" lon="-0.4013591"><ele>724.0</ele><time>2026-04-05T10:36:25.03Z</time></trkpt><trkpt lat="38.6621243" lon="-0.4015083"><ele>724.0</ele><time>2026-04-05T10:36:26.031Z</time></trkpt><trkpt lat="38.6621152" lon="-0.4016577"><ele>724.0</ele><time>2026-04-05T10:36:27.031Z</time></trkpt><trkpt lat="38.6621217" lon="-0.4018138"><ele>724.0</ele><time>2026-04-05T10:36:28.03Z</time></trkpt><trkpt lat="38.662138" lon="-0.4019709"><ele>724.0</ele><time>2026-04-05T10:36:29.031Z</time></trkpt><trkpt lat="38.6621683" lon="-0.4021342"><ele>724.0</ele><time>2026-04-05T10:36:30.03Z</time></trkpt><trkpt lat="38.6622107" lon="-0.4023315"><ele>725.0</ele><time>2026-04-05T10:36:31.031Z</time></trkpt><trkpt lat="38.6622586" lon="-0.4025513"><ele>726.0</ele><time>2026-04-05T10:36:32.03Z</time></trkpt><trkpt lat="38.6623082" lon="-0.4027681"><ele>727.0</ele><time>2026-04-05T10:36:33.031Z</time></trkpt><trkpt lat="38.6623543" lon="-0.4029681"><ele>726.6666666666667</ele><time>2026-04-05T10:36:34.03Z</time></trkpt><trkpt lat="38.6623996" lon="-0.4031537"><ele>726.3333333333334</ele><time>2026-04-05T10:36:35.031Z</time></trkpt><trkpt lat="38.6624389" lon="-0.4033396"><ele>726.0</ele><time>2026-04-05T10:36:36.03Z</time></trkpt><trkpt lat="38.6624652" lon="-0.4035538"><ele>726.0</ele><time>2026-04-05T10:36:37.03Z</time></trkpt><trkpt lat="38.6624676" lon="-0.4037979"><ele>726.0</ele><time>2026-04-05T10:36:38.031Z</time></trkpt><trkpt lat="38.6624437" lon="-0.4040443"><ele>726.0</ele><time>2026-04-05T10:36:39.03Z</time></trkpt><trkpt lat="38.6624044" lon="-0.404272"><ele>727.3333333333334</ele><time>2026-04-05T10:36:40.031Z</time></trkpt><trkpt lat="38.6623605" lon="-0.4044988"><ele>728.6666666666667</ele><time>2026-04-05T10:36:41.03Z</time></trkpt><trkpt lat="38.6623147" lon="-0.404728"><ele>730.0</ele><time>2026-04-05T10:36:42.03Z</time></trkpt><trkpt lat="38.6622696" lon="-0.404947"><ele>730.0</ele><time>2026-04-05T10:36:43.03Z</time></trkpt><trkpt lat="38.6622313" lon="-0.4051508"><ele>730.0</ele><time>2026-04-05T10:36:44.03Z</time></trkpt><trkpt lat="38.6621926" lon="-0.4053475"><ele>730.0</ele><time>2026-04-05T10:36:45.03Z</time></trkpt><trkpt lat="38.6621312" lon="-0.4055517"><ele>727.3333333333334</ele><time>2026-04-05T10:36:46.03Z</time></trkpt><trkpt lat="38.6620357" lon="-0.4057525"><ele>724.6666666666666</ele><time>2026-04-05T10:36:47.03Z</time></trkpt><trkpt lat="38.6619209" lon="-0.4059164"><ele>722.0</ele><time>2026-04-05T10:36:48.031Z</time></trkpt><trkpt lat="38.6617891" lon="-0.4060367"><ele>727.6666666666666</ele><time>2026-04-05T10:36:49.03Z</time></trkpt><trkpt lat="38.6616442" lon="-0.4061274"><ele>733.3333333333334</ele><time>2026-04-05T10:36:50.03Z</time></trkpt><trkpt lat="38.6614841" lon="-0.4061979"><ele>739.0</ele><time>2026-04-05T10:36:51.03Z</time></trkpt><trkpt lat="38.6613175" lon="-0.4062625"><ele>737.0</ele><time>2026-04-05T10:36:52.031Z</time></trkpt><trkpt lat="38.6611575" lon="-0.4063453"><ele>735.0</ele><time>2026-04-05T10:36:53.03Z</time></trkpt><trkpt lat="38.6610087" lon="-0.406466"><ele>733.0</ele><time>2026-04-05T10:36:54.031Z</time></trkpt><trkpt lat="38.6608652" lon="-0.4066053"><ele>733.0</ele><time>2026-04-05T10:36:55.031Z</time></trkpt><trkpt lat="38.660732" lon="-0.4067494"><ele>733.0</ele><time>2026-04-05T10:36:56.03Z</time></trkpt><trkpt lat="38.6606104" lon="-0.4068906"><ele>733.0</ele><time>2026-04-05T10:36:57.031Z</time></trkpt><trkpt lat="38.660496" lon="-0.4070258"><ele>733.0</ele><time>2026-04-05T10:36:58.03Z</time></trkpt><trkpt lat="38.6603777" lon="-0.4071579"><ele>733.0</ele><time>2026-04-05T10:36:59.031Z</time></trkpt><trkpt lat="38.6602664" lon="-0.4072858"><ele>733.0</ele><time>2026-04-05T10:37:00.03Z</time></trkpt><trkpt lat="38.6601583" lon="-0.4074014"><ele>733.0</ele><time>2026-04-05T10:37:01.03Z</time></trkpt><trkpt lat="38.6600737" lon="-0.4074948"><ele>731.8</ele><time>2026-04-05T10:37:02.03Z</time></trkpt><trkpt lat="38.6600027" lon="-0.4075901"><ele>730.5999999999999</ele><time>2026-04-05T10:37:03.031Z</time></trkpt><trkpt lat="38.6599796" lon="-0.407703"><ele>729.4000000000001</ele><time>2026-04-05T10:37:04.031Z</time></trkpt><trkpt lat="38.6600075" lon="-0.4078231"><ele>728.2</ele><time>2026-04-05T10:37:05.031Z</time></trkpt><trkpt lat="38.6600822" lon="-0.407924"><ele>727.0</ele><time>2026-04-05T10:37:06.03Z</time></trkpt><trkpt lat="38.6601896" lon="-0.4079881"><ele>727.6666666666667</ele><time>2026-04-05T10:37:07.03Z</time></trkpt><trkpt lat="38.6603349" lon="-0.4080311"><ele>728.3333333333334</ele><time>2026-04-05T10:37:08.031Z</time></trkpt><trkpt lat="38.6604728" lon="-0.4080747"><ele>729.0</ele><time>2026-04-05T10:37:09.03Z</time></trkpt><trkpt lat="38.6606567" lon="-0.408117"><ele>729.0</ele><time>2026-04-05T10:37:10.03Z</time></trkpt><trkpt lat="38.6608249" lon="-0.4082162"><ele>729.0</ele><time>2026-04-05T10:37:11.03Z</time></trkpt><trkpt lat="38.6609799" lon="-0.4083393"><ele>729.0</ele><time>2026-04-05T10:37:12.03Z</time></trkpt><trkpt lat="38.6611185" lon="-0.4084475"><ele>729.0</ele><time>2026-04-05T10:37:13.03Z</time></trkpt><trkpt lat="38.661247" lon="-0.4085636"><ele>729.0</ele><time>2026-04-05T10:37:14.03Z</time></trkpt><trkpt lat="38.6613624" lon="-0.4087058"><ele>729.0</ele><time>2026-04-05T10:37:15.03Z</time></trkpt><trkpt lat="38.661463" lon="-0.4088971"><ele>729.0</ele><time>2026-04-05T10:37:16.03Z</time></trkpt><trkpt lat="38.6615513" lon="-0.4091218"><ele>729.0</ele><time>2026-04-05T10:37:17.031Z</time></trkpt><trkpt lat="38.6616308" lon="-0.4093438"><ele>729.0</ele><time>2026-04-05T10:37:18.031Z</time></trkpt><trkpt lat="38.6617011" lon="-0.4095521"><ele>731.0</ele><time>2026-04-05T10:37:19.03Z</time></trkpt><trkpt lat="38.6617658" lon="-0.4097417"><ele>733.0</ele><time>2026-04-05T10:37:20.03Z</time></trkpt><trkpt lat="38.6618254" lon="-0.4099215"><ele>735.0</ele><time>2026-04-05T10:37:21.031Z</time></trkpt><trkpt lat="38.6618727" lon="-0.4100989"><ele>735.0</ele><time>2026-04-05T10:37:22.031Z</time></trkpt><trkpt lat="38.6618941" lon="-0.4102852"><ele>735.0</ele><time>2026-04-05T10:37:23.031Z</time></trkpt><trkpt lat="38.661878" lon="-0.4104602"><ele>735.0</ele><time>2026-04-05T10:37:24.031Z</time></trkpt><trkpt lat="38.6618428" lon="-0.4106198"><ele>735.0</ele><time>2026-04-05T10:37:25.03Z</time></trkpt><trkpt lat="38.6618159" lon="-0.4107679"><ele>736.5</ele><time>2026-04-05T10:37:26.03Z</time></trkpt><trkpt lat="38.6618196" lon="-0.4109065"><ele>738.0</ele><time>2026-04-05T10:37:27.03Z</time></trkpt><trkpt lat="38.6618659" lon="-0.411043"><ele>739.5</ele><time>2026-04-05T10:37:28.031Z</time></trkpt><trkpt lat="38.6619274" lon="-0.4111603"><ele>741.0</ele><time>2026-04-05T10:37:29.031Z</time></trkpt><trkpt lat="38.6620793" lon="-0.4111898"><ele>738.6666666666666</ele><time>2026-04-05T10:37:30.03Z</time></trkpt><trkpt lat="38.6622128" lon="-0.4112614"><ele>736.3333333333333</ele><time>2026-04-05T10:37:31.031Z</time></trkpt><trkpt lat="38.6623376" lon="-0.4113743"><ele>734.0</ele><time>2026-04-05T10:37:32.031Z</time></trkpt><trkpt lat="38.6624389" lon="-0.411522"><ele>734.0</ele><time>2026-04-05T10:37:33.03Z</time></trkpt><trkpt lat="38.662489" lon="-0.4117637"><ele>734.0</ele><time>2026-04-05T10:37:34.03Z</time></trkpt><trkpt lat="38.6625458" lon="-0.4119788"><ele>734.0</ele><time>2026-04-05T10:37:35.031Z</time></trkpt><trkpt lat="38.6626012" lon="-0.4121724"><ele>733.0</ele><time>2026-04-05T10:37:36.031Z</time></trkpt><trkpt lat="38.6626525" lon="-0.4123442"><ele>732.0</ele><time>2026-04-05T10:37:37.031Z</time></trkpt><trkpt lat="38.6627091" lon="-0.4124907"><ele>731.0</ele><time>2026-04-05T10:37:38.031Z</time></trkpt><trkpt lat="38.6627798" lon="-0.4126108"><ele>730.0</ele><time>2026-04-05T10:37:39.03Z</time></trkpt><trkpt lat="38.662877" lon="-0.4126929"><ele>730.0</ele><time>2026-04-05T10:37:40.031Z</time></trkpt><trkpt lat="38.663001" lon="-0.4127377"><ele>730.0</ele><time>2026-04-05T10:37:41.03Z</time></trkpt><trkpt lat="38.6631375" lon="-0.4127645"><ele>730.0</ele><time>2026-04-05T10:37:42.03Z</time></trkpt><trkpt lat="38.6632719" lon="-0.4128275"><ele>730.0</ele><time>2026-04-05T10:37:43.031Z</time></trkpt><trkpt lat="38.6633897" lon="-0.412946"><ele>729.3333333333334</ele><time>2026-04-05T10:37:44.03Z</time></trkpt><trkpt lat="38.6634875" lon="-0.4131046"><ele>728.6666666666666</ele><time>2026-04-05T10:37:45.031Z</time></trkpt><trkpt lat="38.6635943" lon="-0.4132717"><ele>728.0</ele><time>2026-04-05T10:37:46.031Z</time></trkpt><trkpt lat="38.6637298" lon="-0.4133909"><ele>728.0</ele><time>2026-04-05T10:37:47.031Z</time></trkpt><trkpt lat="38.6638878" lon="-0.4134802"><ele>728.0</ele><time>2026-04-05T10:37:48.03Z</time></trkpt><trkpt lat="38.6640736" lon="-0.4135536"><ele>728.0</ele><time>2026-04-05T10:37:49.03Z</time></trkpt><trkpt lat="38.6642567" lon="-0.4136156"><ele>728.0</ele><time>2026-04-05T10:37:50.031Z</time></trkpt><trkpt lat="38.6644276" lon="-0.4136835"><ele>728.0</ele><time>2026-04-05T10:37:51.03Z</time></trkpt><trkpt lat="38.6645863" lon="-0.4137507"><ele>728.0</ele><time>2026-04-05T10:37:52.03Z</time></trkpt><trkpt lat="38.6647463" lon="-0.4138512"><ele>728.6666666666666</ele><time>2026-04-05T10:37:53.03Z</time></trkpt><trkpt lat="38.6649064" lon="-0.4139924"><ele>729.3333333333334</ele><time>2026-04-05T10:37:54.031Z</time></trkpt><trkpt lat="38.6650623" lon="-0.4141633"><ele>730.0</ele><time>2026-04-05T10:37:55.03Z</time></trkpt><trkpt lat="38.6652154" lon="-0.4143621"><ele>726.0</ele><time>2026-04-05T10:37:56.03Z</time></trkpt><trkpt lat="38.6653662" lon="-0.4145909"><ele>722.0</ele><time>2026-04-05T10:37:57.03Z</time></trkpt><trkpt lat="38.6655145" lon="-0.4148366"><ele>722.0</ele><time>2026-04-05T10:37:58.03Z</time></trkpt><trkpt lat="38.6656575" lon="-0.4150913"><ele>722.0</ele><time>2026-04-05T10:37:59.031Z</time></trkpt><trkpt lat="38.6657984" lon="-0.415346"><ele>722.0</ele><time>2026-04-05T10:38:00.03Z</time></trkpt><trkpt lat="38.6659416" lon="-0.4156065"><ele>722.0</ele><time>2026-04-05T10:38:01.03Z</time></trkpt><trkpt lat="38.6660886" lon="-0.4158693"><ele>721.5</ele><time>2026-04-05T10:38:02.031Z</time></trkpt><trkpt lat="38.6662399" lon="-0.4161369"><ele>721.0</ele><time>2026-04-05T10:38:03.031Z</time></trkpt><trkpt lat="38.6663894" lon="-0.4163963"><ele>721.0</ele><time>2026-04-05T10:38:04.03Z</time></trkpt><trkpt lat="38.6665269" lon="-0.4166481"><ele>721.0</ele><time>2026-04-05T10:38:05.03Z</time></trkpt><trkpt lat="38.6666556" lon="-0.4168839"><ele>721.0</ele><time>2026-04-05T10:38:06.031Z</time></trkpt><trkpt lat="38.6667764" lon="-0.4171003"><ele>721.0</ele><time>2026-04-05T10:38:07.031Z</time></trkpt><trkpt lat="38.6668764" lon="-0.4172811"><ele>721.0</ele><time>2026-04-05T10:38:08.03Z</time></trkpt><trkpt lat="38.6669519" lon="-0.4174518"><ele>719.0</ele><time>2026-04-05T10:38:09.031Z</time></trkpt><trkpt lat="38.6669969" lon="-0.4176332"><ele>717.0</ele><time>2026-04-05T10:38:10.03Z</time></trkpt><trkpt lat="38.6669921" lon="-0.4178248"><ele>715.0</ele><time>2026-04-05T10:38:11.03Z</time></trkpt><trkpt lat="38.6669567" lon="-0.4179973"><ele>713.0</ele><time>2026-04-05T10:38:12.03Z</time></trkpt><trkpt lat="38.6669045" lon="-0.4181415"><ele>713.0</ele><time>2026-04-05T10:38:13.031Z</time></trkpt><trkpt lat="38.6668312" lon="-0.4182614"><ele>713.0</ele><time>2026-04-05T10:38:14.03Z</time></trkpt><trkpt lat="38.6667294" lon="-0.4183495"><ele>713.0</ele><time>2026-04-05T10:38:15.031Z</time></trkpt><trkpt lat="38.6666182" lon="-0.4184109"><ele>713.0</ele><time>2026-04-05T10:38:16.03Z</time></trkpt><trkpt lat="38.6665153" lon="-0.4184065"><ele>713.0</ele><time>2026-04-05T10:38:17.03Z</time></trkpt><trkpt lat="38.6664265" lon="-0.4184219"><ele>713.0</ele><time>2026-04-05T10:38:18.03Z</time></trkpt><trkpt lat="38.6663602" lon="-0.4184889"><ele>713.0</ele><time>2026-04-05T10:38:19.031Z</time></trkpt><trkpt lat="38.6663067" lon="-0.4185861"><ele>713.0</ele><time>2026-04-05T10:38:20.031Z</time></trkpt><trkpt lat="38.666293" lon="-0.4187672"><ele>713.0</ele><time>2026-04-05T10:38:21.03Z</time></trkpt><trkpt lat="38.6662989" lon="-0.418951"><ele>711.75</ele><time>2026-04-05T10:38:22.031Z</time></trkpt><trkpt lat="38.6663177" lon="-0.4191268"><ele>710.5</ele><time>2026-04-05T10:38:23.03Z</time></trkpt><trkpt lat="38.6663828" lon="-0.4192893"><ele>709.25</ele><time>2026-04-05T10:38:24.031Z</time></trkpt><trkpt lat="38.6664794" lon="-0.4194277"><ele>708.0</ele><time>2026-04-05T10:38:25.03Z</time></trkpt><trkpt lat="38.6666069" lon="-0.4195393"><ele>708.0</ele><time>2026-04-05T10:38:26.03Z</time></trkpt><trkpt lat="38.6667635" lon="-0.4196334"><ele>708.0</ele><time>2026-04-05T10:38:27.03Z</time></trkpt><trkpt lat="38.6669409" lon="-0.4197193"><ele>708.0</ele><time>2026-04-05T10:38:28.03Z</time></trkpt><trkpt lat="38.6671233" lon="-0.4198219"><ele>710.6666666666666</ele><time>2026-04-05T10:38:29.031Z</time></trkpt><trkpt lat="38.6672872" lon="-0.4199248"><ele>713.3333333333333</ele><time>2026-04-05T10:38:30.03Z</time></trkpt><trkpt lat="38.6674454" lon="-0.4199982"><ele>716.0</ele><time>2026-04-05T10:38:31.031Z</time></trkpt><trkpt lat="38.6676069" lon="-0.4200166"><ele>715.6666666666666</ele><time>2026-04-05T10:38:32.03Z</time></trkpt><trkpt lat="38.6677807" lon="-0.420004"><ele>715.3333333333334</ele><time>2026-04-05T10:38:33.031Z</time></trkpt><trkpt lat="38.6679586" lon="-0.4200089"><ele>715.0</ele><time>2026-04-05T10:38:34.03Z</time></trkpt><trkpt lat="38.6681363" lon="-0.4200635"><ele>715.0</ele><time>2026-04-05T10:38:35.03Z</time></trkpt><trkpt lat="38.6683214" lon="-0.4201593"><ele>715.0</ele><time>2026-04-05T10:38:36.03Z</time></trkpt><trkpt lat="38.6684901" lon="-0.4202737"><ele>715.0</ele><time>2026-04-05T10:38:37.031Z</time></trkpt><trkpt lat="38.6686416" lon="-0.4203823"><ele>718.3333333333334</ele><time>2026-04-05T10:38:38.031Z</time></trkpt><trkpt lat="38.6687696" lon="-0.4204962"><ele>721.6666666666666</ele><time>2026-04-05T10:38:39.03Z</time></trkpt><trkpt lat="38.6688885" lon="-0.4206383"><ele>725.0</ele><time>2026-04-05T10:38:40.03Z</time></trkpt><trkpt lat="38.6689822" lon="-0.4208667"><ele>725.0</ele><time>2026-04-05T10:38:41.031Z</time></trkpt><trkpt lat="38.6690564" lon="-0.4211094"><ele>725.0</ele><time>2026-04-05T10:38:42.031Z</time></trkpt><trkpt lat="38.6691044" lon="-0.4213851"><ele>725.0</ele><time>2026-04-05T10:38:43.031Z</time></trkpt><trkpt lat="38.6691313" lon="-0.421647"><ele>726.6666666666666</ele><time>2026-04-05T10:38:44.03Z</time></trkpt><trkpt lat="38.6691325" lon="-0.4219116"><ele>728.3333333333334</ele><time>2026-04-05T10:38:45.031Z</time></trkpt><trkpt lat="38.6691001" lon="-0.422154"><ele>730.0</ele><time>2026-04-05T10:38:46.03Z</time></trkpt><trkpt lat="38.6690398" lon="-0.4223631"><ele>730.6666666666667</ele><time>2026-04-05T10:38:47.03Z</time></trkpt><trkpt lat="38.6689574" lon="-0.4225576"><ele>731.3333333333334</ele><time>2026-04-05T10:38:48.03Z</time></trkpt><trkpt lat="38.6688683" lon="-0.4227539"><ele>732.0</ele><time>2026-04-05T10:38:49.03Z</time></trkpt><trkpt lat="38.6687784" lon="-0.4229462"><ele>730.3333333333334</ele><time>2026-04-05T10:38:50.03Z</time></trkpt><trkpt lat="38.6686949" lon="-0.4231497"><ele>728.6666666666667</ele><time>2026-04-05T10:38:51.031Z</time></trkpt><trkpt lat="38.6686088" lon="-0.4233364"><ele>727.0</ele><time>2026-04-05T10:38:52.03Z</time></trkpt><trkpt lat="38.6685284" lon="-0.4235198"><ele>729.6666666666667</ele><time>2026-04-05T10:38:53.031Z</time></trkpt><trkpt lat="38.668463" lon="-0.4237137"><ele>732.3333333333334</ele><time>2026-04-05T10:38:54.03Z</time></trkpt><trkpt lat="38.6684339" lon="-0.4239274"><ele>735.0</ele><time>2026-04-05T10:38:55.031Z</time></trkpt><trkpt lat="38.6684384" lon="-0.4241552"><ele>735.0</ele><time>2026-04-05T10:38:56.03Z</time></trkpt><trkpt lat="38.6684694" lon="-0.4244134"><ele>735.0</ele><time>2026-04-05T10:38:57.031Z</time></trkpt><trkpt lat="38.6685115" lon="-0.4246868"><ele>735.0</ele><time>2026-04-05T10:38:58.031Z</time></trkpt><trkpt lat="38.6685769" lon="-0.4249566"><ele>734.3333333333334</ele><time>2026-04-05T10:38:59.031Z</time></trkpt><trkpt lat="38.6686642" lon="-0.4252017"><ele>733.6666666666667</ele><time>2026-04-05T10:39:00.031Z</time></trkpt><trkpt lat="38.6687622" lon="-0.4254302"><ele>733.0</ele><time>2026-04-05T10:39:01.031Z</time></trkpt><trkpt lat="38.668867" lon="-0.4256574"><ele>736.3333333333334</ele><time>2026-04-05T10:39:02.03Z</time></trkpt><trkpt lat="38.6689693" lon="-0.4258787"><ele>739.6666666666666</ele><time>2026-04-05T10:39:03.03Z</time></trkpt><trkpt lat="38.6690695" lon="-0.426089"><ele>743.0</ele><time>2026-04-05T10:39:04.03Z</time></trkpt><trkpt lat="38.6691551" lon="-0.4262886"><ele>745.6666666666666</ele><time>2026-04-05T10:39:05.03Z</time></trkpt><trkpt lat="38.6692271" lon="-0.426475"><ele>748.3333333333334</ele><time>2026-04-05T10:39:06.031Z</time></trkpt><trkpt lat="38.6692801" lon="-0.4266662"><ele>751.0</ele><time>2026-04-05T10:39:07.03Z</time></trkpt><trkpt lat="38.6692968" lon="-0.4268606"><ele>751.0</ele><time>2026-04-05T10:39:08.031Z</time></trkpt><trkpt lat="38.6692636" lon="-0.4270669"><ele>751.0</ele><time>2026-04-05T10:39:09.03Z</time></trkpt><trkpt lat="38.6692405" lon="-0.4272528"><ele>751.0</ele><time>2026-04-05T10:39:10.03Z</time></trkpt><trkpt lat="38.669187" lon="-0.4274044"><ele>751.0</ele><time>2026-04-05T10:39:11.03Z</time></trkpt><trkpt lat="38.6691203" lon="-0.4275542"><ele>751.6666666666667</ele><time>2026-04-05T10:39:12.03Z</time></trkpt><trkpt lat="38.6690191" lon="-0.4276898"><ele>752.3333333333334</ele><time>2026-04-05T10:39:13.03Z</time></trkpt><trkpt lat="38.6688734" lon="-0.4278049"><ele>753.0</ele><time>2026-04-05T10:39:14.031Z</time></trkpt><trkpt lat="38.6687541" lon="-0.4279448"><ele>753.6666666666666</ele><time>2026-04-05T10:39:15.031Z</time></trkpt><trkpt lat="38.6686674" lon="-0.4281"><ele>754.3333333333333</ele><time>2026-04-05T10:39:16.031Z</time></trkpt><trkpt lat="38.6685849" lon="-0.4283038"><ele>755.0</ele><time>2026-04-05T10:39:17.031Z</time></trkpt><trkpt lat="38.668546" lon="-0.4285743"><ele>755.0</ele><time>2026-04-05T10:39:18.03Z</time></trkpt><trkpt lat="38.6684989" lon="-0.4288039"><ele>755.0</ele><time>2026-04-05T10:39:19.03Z</time></trkpt><trkpt lat="38.6684458" lon="-0.4290189"><ele>755.0</ele><time>2026-04-05T10:39:20.03Z</time></trkpt><trkpt lat="38.6683579" lon="-0.4292233"><ele>752.6666666666666</ele><time>2026-04-05T10:39:21.03Z</time></trkpt><trkpt lat="38.6682634" lon="-0.4294047"><ele>750.3333333333334</ele><time>2026-04-05T10:39:22.03Z</time></trkpt><trkpt lat="38.6681498" lon="-0.4295633"><ele>748.0</ele><time>2026-04-05T10:39:23.03Z</time></trkpt><trkpt lat="38.6680653" lon="-0.4297668"><ele>746.3333333333334</ele><time>2026-04-05T10:39:24.031Z</time></trkpt><trkpt lat="38.6679933" lon="-0.429998"><ele>744.6666666666666</ele><time>2026-04-05T10:39:25.03Z</time></trkpt><trkpt lat="38.6679485" lon="-0.4302568"><ele>743.0</ele><time>2026-04-05T10:39:26.031Z</time></trkpt><trkpt lat="38.6679293" lon="-0.4305385"><ele>743.0</ele><time>2026-04-05T10:39:27.031Z</time></trkpt><trkpt lat="38.6678898" lon="-0.4308051"><ele>743.0</ele><time>2026-04-05T10:39:28.031Z</time></trkpt><trkpt lat="38.6678301" lon="-0.431092"><ele>743.0</ele><time>2026-04-05T10:39:29.031Z</time></trkpt><trkpt lat="38.6677648" lon="-0.4313937"><ele>755.0</ele><time>2026-04-05T10:39:30.031Z</time></trkpt><trkpt lat="38.6676823" lon="-0.431701"><ele>767.0</ele><time>2026-04-05T10:39:31.031Z</time></trkpt><trkpt lat="38.6676105" lon="-0.4320035"><ele>766.3333333333333</ele><time>2026-04-05T10:39:32.03Z</time></trkpt><trkpt lat="38.6675423" lon="-0.4322816"><ele>765.6666666666666</ele><time>2026-04-05T10:39:33.031Z</time></trkpt><trkpt lat="38.6674867" lon="-0.4325328"><ele>765.0</ele><time>2026-04-05T10:39:34.031Z</time></trkpt><trkpt lat="38.6674429" lon="-0.4327424"><ele>765.0</ele><time>2026-04-05T10:39:35.031Z</time></trkpt><trkpt lat="38.6674069" lon="-0.4329384"><ele>765.0</ele><time>2026-04-05T10:39:36.03Z</time></trkpt><trkpt lat="38.6673722" lon="-0.4331299"><ele>765.0</ele><time>2026-04-05T10:39:37.03Z</time></trkpt><trkpt lat="38.6673488" lon="-0.4333103"><ele>764.5</ele><time>2026-04-05T10:39:38.03Z</time></trkpt><trkpt lat="38.6673257" lon="-0.4334817"><ele>764.0</ele><time>2026-04-05T10:39:39.03Z</time></trkpt><trkpt lat="38.6673159" lon="-0.4336395"><ele>763.5</ele><time>2026-04-05T10:39:40.03Z</time></trkpt><trkpt lat="38.6673324" lon="-0.4337903"><ele>763.0</ele><time>2026-04-05T10:39:41.03Z</time></trkpt><trkpt lat="38.6673857" lon="-0.4339297"><ele>764.5</ele><time>2026-04-05T10:39:42.031Z</time></trkpt><trkpt lat="38.6674579" lon="-0.4340428"><ele>766.0</ele><time>2026-04-05T10:39:43.03Z</time></trkpt><trkpt lat="38.6675597" lon="-0.434148"><ele>767.5</ele><time>2026-04-05T10:39:44.031Z</time></trkpt><trkpt lat="38.6676616" lon="-0.4342404"><ele>769.0</ele><time>2026-04-05T10:39:45.031Z</time></trkpt><trkpt lat="38.6677294" lon="-0.4343887"><ele>770.6666666666666</ele><time>2026-04-05T10:39:46.03Z</time></trkpt><trkpt lat="38.6677929" lon="-0.4345292"><ele>772.3333333333333</ele><time>2026-04-05T10:39:47.031Z</time></trkpt><trkpt lat="38.6677557" lon="-0.4347376"><ele>774.0</ele><time>2026-04-05T10:39:48.03Z</time></trkpt><trkpt lat="38.6677244" lon="-0.4349344"><ele>774.0</ele><time>2026-04-05T10:39:49.031Z</time></trkpt><trkpt lat="38.667634" lon="-0.4351779"><ele>774.0</ele><time>2026-04-05T10:39:50.031Z</time></trkpt><trkpt lat="38.6675465" lon="-0.4354273"><ele>774.0</ele><time>2026-04-05T10:39:51.03Z</time></trkpt><trkpt lat="38.6674632" lon="-0.4356668"><ele>770.3333333333334</ele><time>2026-04-05T10:39:52.03Z</time></trkpt><trkpt lat="38.6673779" lon="-0.4359153"><ele>766.6666666666667</ele><time>2026-04-05T10:39:53.031Z</time></trkpt><trkpt lat="38.6673154" lon="-0.4361567"><ele>763.0</ele><time>2026-04-05T10:39:54.03Z</time></trkpt><trkpt lat="38.6672594" lon="-0.4363833"><ele>762.6666666666667</ele><time>2026-04-05T10:39:55.03Z</time></trkpt><trkpt lat="38.6672011" lon="-0.4365972"><ele>762.3333333333334</ele><time>2026-04-05T10:39:56.03Z</time></trkpt><trkpt lat="38.6671349" lon="-0.436777"><ele>762.0</ele><time>2026-04-05T10:39:57.03Z</time></trkpt><trkpt lat="38.667053" lon="-0.4369429"><ele>762.0</ele><time>2026-04-05T10:39:58.031Z</time></trkpt><trkpt lat="38.666967" lon="-0.4370787"><ele>762.0</ele><time>2026-04-05T10:39:59.03Z</time></trkpt><trkpt lat="38.666887" lon="-0.4372031"><ele>762.0</ele><time>2026-04-05T10:40:00.031Z</time></trkpt><trkpt lat="38.6668353" lon="-0.4373522"><ele>762.0</ele><time>2026-04-05T10:40:01.03Z</time></trkpt><trkpt lat="38.6668443" lon="-0.4375102"><ele>765.5</ele><time>2026-04-05T10:40:02.031Z</time></trkpt><trkpt lat="38.6668732" lon="-0.4376741"><ele>769.0</ele><time>2026-04-05T10:40:03.031Z</time></trkpt><trkpt lat="38.6669242" lon="-0.437811"><ele>772.5</ele><time>2026-04-05T10:40:04.03Z</time></trkpt><trkpt lat="38.6669818" lon="-0.4379998"><ele>776.0</ele><time>2026-04-05T10:40:05.031Z</time></trkpt><trkpt lat="38.6670536" lon="-0.4382797"><ele>776.0</ele><time>2026-04-05T10:40:06.03Z</time></trkpt><trkpt lat="38.667088" lon="-0.4385356"><ele>776.0</ele><time>2026-04-05T10:40:07.03Z</time></trkpt><trkpt lat="38.6671363" lon="-0.438775"><ele>776.0</ele><time>2026-04-05T10:40:08.031Z</time></trkpt><trkpt lat="38.6672123" lon="-0.438986"><ele>778.6666666666667</ele><time>2026-04-05T10:40:09.03Z</time></trkpt><trkpt lat="38.6672844" lon="-0.4392028"><ele>781.3333333333333</ele><time>2026-04-05T10:40:10.03Z</time></trkpt><trkpt lat="38.6673598" lon="-0.4394405"><ele>784.0</ele><time>2026-04-05T10:40:11.03Z</time></trkpt><trkpt lat="38.6674228" lon="-0.4396971"><ele>785.3333333333333</ele><time>2026-04-05T10:40:12.03Z</time></trkpt><trkpt lat="38.667486" lon="-0.4399653"><ele>786.6666666666667</ele><time>2026-04-05T10:40:13.031Z</time></trkpt><trkpt lat="38.6675431" lon="-0.4402184"><ele>788.0</ele><time>2026-04-05T10:40:14.03Z</time></trkpt><trkpt lat="38.6675845" lon="-0.4404658"><ele>789.6666666666667</ele><time>2026-04-05T10:40:15.03Z</time></trkpt><trkpt lat="38.6676014" lon="-0.4406963"><ele>791.3333333333333</ele><time>2026-04-05T10:40:16.031Z</time></trkpt><trkpt lat="38.6675951" lon="-0.4409164"><ele>793.0</ele><time>2026-04-05T10:40:17.03Z</time></trkpt><trkpt lat="38.6675726" lon="-0.4411278"><ele>793.6666666666666</ele><time>2026-04-05T10:40:18.031Z</time></trkpt><trkpt lat="38.6675757" lon="-0.4413244"><ele>794.3333333333333</ele><time>2026-04-05T10:40:19.031Z</time></trkpt><trkpt lat="38.6676167" lon="-0.4415227"><ele>795.0</ele><time>2026-04-05T10:40:20.031Z</time></trkpt><trkpt lat="38.6677094" lon="-0.441695"><ele>792.0</ele><time>2026-04-05T10:40:21.031Z</time></trkpt><trkpt lat="38.6678286" lon="-0.4418618"><ele>789.0</ele><time>2026-04-05T10:40:22.031Z</time></trkpt><trkpt lat="38.6679645" lon="-0.4420343"><ele>786.0</ele><time>2026-04-05T10:40:23.03Z</time></trkpt><trkpt lat="38.66811" lon="-0.4422125"><ele>786.0</ele><time>2026-04-05T10:40:24.031Z</time></trkpt><trkpt lat="38.6682558" lon="-0.4423844"><ele>786.0</ele><time>2026-04-05T10:40:25.031Z</time></trkpt><trkpt lat="38.6683814" lon="-0.4425705"><ele>786.0</ele><time>2026-04-05T10:40:26.031Z</time></trkpt><trkpt lat="38.6685161" lon="-0.4427273"><ele>785.3333333333333</ele><time>2026-04-05T10:40:27.03Z</time></trkpt><trkpt lat="38.668646" lon="-0.4428983"><ele>784.6666666666666</ele><time>2026-04-05T10:40:28.03Z</time></trkpt><trkpt lat="38.6687804" lon="-0.4430441"><ele>784.0</ele><time>2026-04-05T10:40:29.031Z</time></trkpt><trkpt lat="38.6689262" lon="-0.4431802"><ele>784.0</ele><time>2026-04-05T10:40:30.031Z</time></trkpt><trkpt lat="38.6690968" lon="-0.4433116"><ele>784.0</ele><time>2026-04-05T10:40:31.03Z</time></trkpt><trkpt lat="38.6692919" lon="-0.4434446"><ele>784.0</ele><time>2026-04-05T10:40:32.031Z</time></trkpt><trkpt lat="38.6695091" lon="-0.4435709"><ele>780.3333333333333</ele><time>2026-04-05T10:40:33.031Z</time></trkpt><trkpt lat="38.6697162" lon="-0.443686"><ele>776.6666666666667</ele><time>2026-04-05T10:40:34.03Z</time></trkpt><trkpt lat="38.669914" lon="-0.4437488"><ele>773.0</ele><time>2026-04-05T10:40:35.031Z</time></trkpt><trkpt lat="38.6701178" lon="-0.4437631"><ele>772.6666666666667</ele><time>2026-04-05T10:40:36.03Z</time></trkpt><trkpt lat="38.6703122" lon="-0.4437431"><ele>772.3333333333333</ele><time>2026-04-05T10:40:37.03Z</time></trkpt><trkpt lat="38.6704935" lon="-0.4436875"><ele>772.0</ele><time>2026-04-05T10:40:38.031Z</time></trkpt><trkpt lat="38.6706623" lon="-0.4436151"><ele>772.0</ele><time>2026-04-05T10:40:39.03Z</time></trkpt><trkpt lat="38.6708267" lon="-0.443561"><ele>772.0</ele><time>2026-04-05T10:40:40.03Z</time></trkpt><trkpt lat="38.6709893" lon="-0.4435422"><ele>772.0</ele><time>2026-04-05T10:40:41.031Z</time></trkpt><trkpt lat="38.6711584" lon="-0.443582"><ele>770.3333333333333</ele><time>2026-04-05T10:40:42.03Z</time></trkpt><trkpt lat="38.6713276" lon="-0.4436779"><ele>768.6666666666666</ele><time>2026-04-05T10:40:43.031Z</time></trkpt><trkpt lat="38.671497" lon="-0.4437252"><ele>767.0</ele><time>2026-04-05T10:40:44.03Z</time></trkpt><trkpt lat="38.671665" lon="-0.4437257"><ele>767.0</ele><time>2026-04-05T10:40:45.03Z</time></trkpt><trkpt lat="38.6718211" lon="-0.4437216"><ele>767.0</ele><time>2026-04-05T10:40:46.03Z</time></trkpt><trkpt lat="38.6719649" lon="-0.4437447"><ele>767.0</ele><time>2026-04-05T10:40:47.03Z</time></trkpt><trkpt lat="38.6720875" lon="-0.4438189"><ele>767.0</ele><time>2026-04-05T10:40:48.03Z</time></trkpt><trkpt lat="38.6721955" lon="-0.4439488"><ele>765.0</ele><time>2026-04-05T10:40:49.031Z</time></trkpt><trkpt lat="38.6722925" lon="-0.4441159"><ele>763.0</ele><time>2026-04-05T10:40:50.031Z</time></trkpt><trkpt lat="38.6723906" lon="-0.4443136"><ele>761.0</ele><time>2026-04-05T10:40:51.031Z</time></trkpt><trkpt lat="38.6724937" lon="-0.4445259"><ele>761.0</ele><time>2026-04-05T10:40:52.031Z</time></trkpt><trkpt lat="38.6725863" lon="-0.4447402"><ele>761.0</ele><time>2026-04-05T10:40:53.03Z</time></trkpt><trkpt lat="38.672668" lon="-0.4449598"><ele>761.0</ele><time>2026-04-05T10:40:54.03Z</time></trkpt><trkpt lat="38.6727396" lon="-0.4451639"><ele>761.0</ele><time>2026-04-05T10:40:55.03Z</time></trkpt><trkpt lat="38.6727657" lon="-0.4453389"><ele>761.0</ele><time>2026-04-05T10:40:56.031Z</time></trkpt><trkpt lat="38.6728074" lon="-0.4455279"><ele>761.0</ele><time>2026-04-05T10:40:57.031Z</time></trkpt><trkpt lat="38.672874" lon="-0.445696"><ele>761.0</ele><time>2026-04-05T10:40:58.031Z</time></trkpt><trkpt lat="38.6729631" lon="-0.4458608"><ele>756.25</ele><time>2026-04-05T10:40:59.03Z</time></trkpt><trkpt lat="38.6730658" lon="-0.4460104"><ele>751.5</ele><time>2026-04-05T10:41:00.03Z</time></trkpt><trkpt lat="38.6731716" lon="-0.4461608"><ele>746.75</ele><time>2026-04-05T10:41:01.031Z</time></trkpt><trkpt lat="38.6732292" lon="-0.4462921"><ele>742.0</ele><time>2026-04-05T10:41:02.03Z</time></trkpt><trkpt lat="38.6732759" lon="-0.4464226"><ele>741.5</ele><time>2026-04-05T10:41:03.031Z</time></trkpt><trkpt lat="38.6732859" lon="-0.4465556"><ele>741.0</ele><time>2026-04-05T10:41:04.031Z</time></trkpt><trkpt lat="38.6732486" lon="-0.4466872"><ele>740.5</ele><time>2026-04-05T10:41:05.031Z</time></trkpt><trkpt lat="38.673171" lon="-0.4468164"><ele>740.0</ele><time>2026-04-05T10:41:06.031Z</time></trkpt><trkpt lat="38.6730657" lon="-0.4469166"><ele>740.0</ele><time>2026-04-05T10:41:07.03Z</time></trkpt><trkpt lat="38.6729323" lon="-0.4469805"><ele>740.0</ele><time>2026-04-05T10:41:08.03Z</time></trkpt><trkpt lat="38.6727861" lon="-0.447025"><ele>740.0</ele><time>2026-04-05T10:41:09.03Z</time></trkpt><trkpt lat="38.672635" lon="-0.447046"><ele>740.0</ele><time>2026-04-05T10:41:10.031Z</time></trkpt><trkpt lat="38.6724959" lon="-0.4470691"><ele>737.75</ele><time>2026-04-05T10:41:11.031Z</time></trkpt><trkpt lat="38.6723738" lon="-0.4471027"><ele>735.5</ele><time>2026-04-05T10:41:12.031Z</time></trkpt><trkpt lat="38.6722781" lon="-0.4471761"><ele>733.25</ele><time>2026-04-05T10:41:13.03Z</time></trkpt><trkpt lat="38.6722168" lon="-0.4472816"><ele>731.0</ele><time>2026-04-05T10:41:14.03Z</time></trkpt><trkpt lat="38.6721774" lon="-0.4474317"><ele>731.0</ele><time>2026-04-05T10:41:15.031Z</time></trkpt><trkpt lat="38.6722176" lon="-0.4476408"><ele>731.0</ele><time>2026-04-05T10:41:16.031Z</time></trkpt><trkpt lat="38.672268" lon="-0.4478437"><ele>731.0</ele><time>2026-04-05T10:41:17.031Z</time></trkpt><trkpt lat="38.6723176" lon="-0.4480669"><ele>730.6666666666666</ele><time>2026-04-05T10:41:18.03Z</time></trkpt><trkpt lat="38.67234" lon="-0.4483243"><ele>730.3333333333334</ele><time>2026-04-05T10:41:19.031Z</time></trkpt><trkpt lat="38.6723495" lon="-0.4485907"><ele>730.0</ele><time>2026-04-05T10:41:20.031Z</time></trkpt><trkpt lat="38.6723757" lon="-0.4488548"><ele>728.6666666666667</ele><time>2026-04-05T10:41:21.031Z</time></trkpt><trkpt lat="38.6724248" lon="-0.4491184"><ele>727.3333333333334</ele><time>2026-04-05T10:41:22.03Z</time></trkpt><trkpt lat="38.6724876" lon="-0.449378"><ele>726.0</ele><time>2026-04-05T10:41:23.031Z</time></trkpt><trkpt lat="38.6725518" lon="-0.4496365"><ele>723.3333333333334</ele><time>2026-04-05T10:41:24.031Z</time></trkpt><trkpt lat="38.6726155" lon="-0.4498908"><ele>720.6666666666667</ele><time>2026-04-05T10:41:25.03Z</time></trkpt><trkpt lat="38.6726764" lon="-0.450142"><ele>718.0</ele><time>2026-04-05T10:41:26.031Z</time></trkpt><trkpt lat="38.6727376" lon="-0.4503819"><ele>713.0</ele><time>2026-04-05T10:41:27.03Z</time></trkpt><trkpt lat="38.6728032" lon="-0.4506272"><ele>708.0</ele><time>2026-04-05T10:41:28.03Z</time></trkpt><trkpt lat="38.6728581" lon="-0.450889"><ele>703.0</ele><time>2026-04-05T10:41:29.03Z</time></trkpt><trkpt lat="38.6728925" lon="-0.4511672"><ele>701.6666666666667</ele><time>2026-04-05T10:41:30.03Z</time></trkpt><trkpt lat="38.6728868" lon="-0.4514419"><ele>700.3333333333334</ele><time>2026-04-05T10:41:31.03Z</time></trkpt><trkpt lat="38.6728449" lon="-0.4517051"><ele>699.0</ele><time>2026-04-05T10:41:32.031Z</time></trkpt><trkpt lat="38.6727992" lon="-0.4519618"><ele>697.0</ele><time>2026-04-05T10:41:33.03Z</time></trkpt><trkpt lat="38.6727684" lon="-0.4522205"><ele>695.0</ele><time>2026-04-05T10:41:34.031Z</time></trkpt><trkpt lat="38.6728166" lon="-0.4525156"><ele>693.0</ele><time>2026-04-05T10:41:35.03Z</time></trkpt><trkpt lat="38.6728745" lon="-0.4527936"><ele>692.3333333333334</ele><time>2026-04-05T10:41:36.031Z</time></trkpt><trkpt lat="38.6729236" lon="-0.4530601"><ele>691.6666666666667</ele><time>2026-04-05T10:41:37.03Z</time></trkpt><trkpt lat="38.6729751" lon="-0.4533124"><ele>691.0</ele><time>2026-04-05T10:41:38.03Z</time></trkpt><trkpt lat="38.6730251" lon="-0.4535747"><ele>691.0</ele><time>2026-04-05T10:41:39.03Z</time></trkpt><trkpt lat="38.6730766" lon="-0.4538345"><ele>691.0</ele><time>2026-04-05T10:41:40.031Z</time></trkpt><trkpt lat="38.6731362" lon="-0.4540981"><ele>691.0</ele><time>2026-04-05T10:41:41.03Z</time></trkpt><trkpt lat="38.6731958" lon="-0.4543613"><ele>691.0</ele><time>2026-04-05T10:41:42.031Z</time></trkpt><trkpt lat="38.6732496" lon="-0.4546098"><ele>691.0</ele><time>2026-04-05T10:41:43.03Z</time></trkpt><trkpt lat="38.6733006" lon="-0.4548493"><ele>691.0</ele><time>2026-04-05T10:41:44.031Z</time></trkpt><trkpt lat="38.6733505" lon="-0.4550782"><ele>691.6666666666667</ele><time>2026-04-05T10:41:45.031Z</time></trkpt><trkpt lat="38.6733982" lon="-0.4552888"><ele>692.3333333333334</ele><time>2026-04-05T10:41:46.03Z</time></trkpt><trkpt lat="38.6734417" lon="-0.4554984"><ele>693.0</ele><time>2026-04-05T10:41:47.03Z</time></trkpt><trkpt lat="38.6734881" lon="-0.4557028"><ele>694.0</ele><time>2026-04-05T10:41:48.03Z</time></trkpt><trkpt lat="38.673533" lon="-0.4558868"><ele>695.0</ele><time>2026-04-05T10:41:49.03Z</time></trkpt><trkpt lat="38.6735775" lon="-0.4560726"><ele>696.0</ele><time>2026-04-05T10:41:50.031Z</time></trkpt><trkpt lat="38.6736241" lon="-0.4562472"><ele>697.0</ele><time>2026-04-05T10:41:51.03Z</time></trkpt><trkpt lat="38.6736641" lon="-0.4564253"><ele>693.25</ele><time>2026-04-05T10:41:52.03Z</time></trkpt><trkpt lat="38.6736926" lon="-0.4565956"><ele>689.5</ele><time>2026-04-05T10:41:53.031Z</time></trkpt><trkpt lat="38.6737081" lon="-0.4567728"><ele>685.75</ele><time>2026-04-05T10:41:54.031Z</time></trkpt><trkpt lat="38.6737094" lon="-0.4569565"><ele>682.0</ele><time>2026-04-05T10:41:55.031Z</time></trkpt><trkpt lat="38.673703" lon="-0.4571393"><ele>681.6</ele><time>2026-04-05T10:41:56.03Z</time></trkpt><trkpt lat="38.6736991" lon="-0.4573024"><ele>681.2</ele><time>2026-04-05T10:41:57.031Z</time></trkpt><trkpt lat="38.6736895" lon="-0.4574483"><ele>680.8</ele><time>2026-04-05T10:41:58.03Z</time></trkpt><trkpt lat="38.6736786" lon="-0.4575763"><ele>680.4</ele><time>2026-04-05T10:41:59.031Z</time></trkpt><trkpt lat="38.6736632" lon="-0.4576876"><ele>680.0</ele><time>2026-04-05T10:42:00.031Z</time></trkpt><trkpt lat="38.673644" lon="-0.4577823"><ele>680.0</ele><time>2026-04-05T10:42:01.03Z</time></trkpt><trkpt lat="38.6736281" lon="-0.4578628"><ele>680.0</ele><time>2026-04-05T10:42:02.03Z</time></trkpt><trkpt lat="38.673603" lon="-0.4579797"><ele>680.0</ele><time>2026-04-05T10:42:04.03Z</time></trkpt><trkpt lat="38.6735891" lon="-0.4580836"><ele>680.0</ele><time>2026-04-05T10:42:07.031Z</time></trkpt><trkpt lat="38.6735865" lon="-0.4581716"><ele>680.0</ele><time>2026-04-05T10:42:10.03Z</time></trkpt><trkpt lat="38.6736609" lon="-0.4582268"><ele>680.0</ele><time>2026-04-05T10:42:12.03Z</time></trkpt><trkpt lat="38.6737265" lon="-0.458231"><ele>679.7142857142858</ele><time>2026-04-05T10:42:13.03Z</time></trkpt><trkpt lat="38.6738006" lon="-0.4582459"><ele>679.4285714285713</ele><time>2026-04-05T10:42:14.03Z</time></trkpt><trkpt lat="38.6738782" lon="-0.4582696"><ele>679.1428571428571</ele><time>2026-04-05T10:42:15.03Z</time></trkpt><trkpt lat="38.673954" lon="-0.4583037"><ele>678.8571428571429</ele><time>2026-04-05T10:42:16.031Z</time></trkpt><trkpt lat="38.6740236" lon="-0.4583424"><ele>678.5714285714287</ele><time>2026-04-05T10:42:17.031Z</time></trkpt><trkpt lat="38.6740872" lon="-0.4583863"><ele>678.2857142857142</ele><time>2026-04-05T10:42:18.031Z</time></trkpt><trkpt lat="38.6741391" lon="-0.4584352"><ele>678.0</ele><time>2026-04-05T10:42:19.03Z</time></trkpt><trkpt lat="38.6742271" lon="-0.4584361"><ele>678.0</ele><time>2026-04-05T10:42:21.03Z</time></trkpt><trkpt lat="38.6742961" lon="-0.4584313"><ele>678.0</ele><time>2026-04-05T10:42:24.03Z</time></trkpt><trkpt lat="38.6742766" lon="-0.4585181"><ele>678.0</ele><time>2026-04-05T10:49:43.031Z</time></trkpt><trkpt lat="38.6743037" lon="-0.4586188"><ele>678.0</ele><time>2026-04-05T10:49:45.03Z</time></trkpt><trkpt lat="38.6743707" lon="-0.4587625"><ele>678.0</ele><time>2026-04-05T10:49:47.031Z</time></trkpt><trkpt lat="38.6744084" lon="-0.4588595"><ele>678.0</ele><time>2026-04-05T10:49:48.031Z</time></trkpt><trkpt lat="38.6744351" lon="-0.4589737"><ele>683.5</ele><time>2026-04-05T10:49:49.031Z</time></trkpt><trkpt lat="38.6744575" lon="-0.4591066"><ele>689.0</ele><time>2026-04-05T10:49:50.031Z</time></trkpt><trkpt lat="38.6744727" lon="-0.459261"><ele>694.5</ele><time>2026-04-05T10:49:51.031Z</time></trkpt><trkpt lat="38.6744804" lon="-0.4594227"><ele>700.0</ele><time>2026-04-05T10:49:52.03Z</time></trkpt><trkpt lat="38.6744869" lon="-0.4595915"><ele>700.5</ele><time>2026-04-05T10:49:53.031Z</time></trkpt><trkpt lat="38.674496" lon="-0.4597768"><ele>701.0</ele><time>2026-04-05T10:49:54.03Z</time></trkpt><trkpt lat="38.6745011" lon="-0.4599576"><ele>701.5</ele><time>2026-04-05T10:49:55.031Z</time></trkpt><trkpt lat="38.6744959" lon="-0.4601429"><ele>702.0</ele><time>2026-04-05T10:49:56.03Z</time></trkpt><trkpt lat="38.674463" lon="-0.4603325"><ele>696.0</ele><time>2026-04-05T10:49:57.031Z</time></trkpt><trkpt lat="38.6743943" lon="-0.4605118"><ele>690.0</ele><time>2026-04-05T10:49:58.031Z</time></trkpt><trkpt lat="38.6742935" lon="-0.4606658"><ele>684.0</ele><time>2026-04-05T10:49:59.03Z</time></trkpt><trkpt lat="38.6741915" lon="-0.4607987"><ele>684.0</ele><time>2026-04-05T10:50:00.03Z</time></trkpt><trkpt lat="38.6740952" lon="-0.4609391"><ele>684.0</ele><time>2026-04-05T10:50:01.03Z</time></trkpt><trkpt lat="38.6740184" lon="-0.4610888"><ele>684.0</ele><time>2026-04-05T10:50:02.03Z</time></trkpt><trkpt lat="38.6739638" lon="-0.4612541"><ele>684.0</ele><time>2026-04-05T10:50:03.031Z</time></trkpt><trkpt lat="38.6739236" lon="-0.4614383"><ele>684.3333333333334</ele><time>2026-04-05T10:50:04.031Z</time></trkpt><trkpt lat="38.673893" lon="-0.4616315"><ele>684.6666666666667</ele><time>2026-04-05T10:50:05.03Z</time></trkpt><trkpt lat="38.673862" lon="-0.4618398"><ele>685.0</ele><time>2026-04-05T10:50:06.03Z</time></trkpt><trkpt lat="38.6738331" lon="-0.4620468"><ele>686.3333333333334</ele><time>2026-04-05T10:50:07.031Z</time></trkpt><trkpt lat="38.6738177" lon="-0.4622453"><ele>687.6666666666666</ele><time>2026-04-05T10:50:08.031Z</time></trkpt><trkpt lat="38.673841" lon="-0.4624389"><ele>689.0</ele><time>2026-04-05T10:50:09.031Z</time></trkpt><trkpt lat="38.6738941" lon="-0.4626183"><ele>689.0</ele><time>2026-04-05T10:50:10.03Z</time></trkpt><trkpt lat="38.6739773" lon="-0.4627745"><ele>689.0</ele><time>2026-04-05T10:50:11.031Z</time></trkpt><trkpt lat="38.6740713" lon="-0.4629357"><ele>689.0</ele><time>2026-04-05T10:50:12.031Z</time></trkpt><trkpt lat="38.6741727" lon="-0.4630997"><ele>684.3333333333333</ele><time>2026-04-05T10:50:13.031Z</time></trkpt><trkpt lat="38.6742712" lon="-0.4632661"><ele>679.6666666666666</ele><time>2026-04-05T10:50:14.031Z</time></trkpt><trkpt lat="38.6743605" lon="-0.4634349"><ele>675.0</ele><time>2026-04-05T10:50:15.03Z</time></trkpt><trkpt lat="38.6744291" lon="-0.4636178"><ele>681.3333333333334</ele><time>2026-04-05T10:50:16.03Z</time></trkpt><trkpt lat="38.6744722" lon="-0.4638111"><ele>687.6666666666667</ele><time>2026-04-05T10:50:17.03Z</time></trkpt><trkpt lat="38.6744949" lon="-0.4640092"><ele>694.0</ele><time>2026-04-05T10:50:18.03Z</time></trkpt><trkpt lat="38.6745131" lon="-0.4641997"><ele>694.0</ele><time>2026-04-05T10:50:19.031Z</time></trkpt><trkpt lat="38.67453" lon="-0.4643809"><ele>694.0</ele><time>2026-04-05T10:50:20.031Z</time></trkpt><trkpt lat="38.6745479" lon="-0.464565"><ele>694.0</ele><time>2026-04-05T10:50:21.031Z</time></trkpt><trkpt lat="38.6745579" lon="-0.4647505"><ele>694.0</ele><time>2026-04-05T10:50:22.03Z</time></trkpt><trkpt lat="38.6745726" lon="-0.4649484"><ele>690.6666666666667</ele><time>2026-04-05T10:50:23.03Z</time></trkpt><trkpt lat="38.6745876" lon="-0.4651517"><ele>687.3333333333334</ele><time>2026-04-05T10:50:24.031Z</time></trkpt><trkpt lat="38.6746408" lon="-0.4653167"><ele>684.0</ele><time>2026-04-05T10:50:25.03Z</time></trkpt><trkpt lat="38.6747602" lon="-0.4655583"><ele>674.0</ele><time>2026-04-05T10:50:27.175Z</time></trkpt><trkpt lat="38.6750174" lon="-0.4659089"><ele>664.0</ele><time>2026-04-05T10:50:29.029Z</time></trkpt><trkpt lat="38.6751356" lon="-0.466048"><ele>664.0</ele><time>2026-04-05T10:50:30.029Z</time></trkpt><trkpt lat="38.6752522" lon="-0.466175"><ele>664.0</ele><time>2026-04-05T10:50:31.03Z</time></trkpt><trkpt lat="38.6753465" lon="-0.466331"><ele>664.0</ele><time>2026-04-05T10:50:32.029Z</time></trkpt><trkpt lat="38.6754242" lon="-0.4664849"><ele>663.0</ele><time>2026-04-05T10:50:33.03Z</time></trkpt><trkpt lat="38.6755099" lon="-0.4666227"><ele>662.0</ele><time>2026-04-05T10:50:34.029Z</time></trkpt><trkpt lat="38.6756107" lon="-0.4667319"><ele>661.0</ele><time>2026-04-05T10:50:35.03Z</time></trkpt><trkpt lat="38.6757244" lon="-0.4667753"><ele>660.0</ele><time>2026-04-05T10:50:36.03Z</time></trkpt><trkpt lat="38.6758463" lon="-0.4668066"><ele>660.0</ele><time>2026-04-05T10:50:37.029Z</time></trkpt><trkpt lat="38.6759772" lon="-0.4667924"><ele>660.0</ele><time>2026-04-05T10:50:38.029Z</time></trkpt><trkpt lat="38.6760856" lon="-0.4666907"><ele>660.0</ele><time>2026-04-05T10:50:39.029Z</time></trkpt><trkpt lat="38.6761969" lon="-0.4666111"><ele>660.0</ele><time>2026-04-05T10:50:40.03Z</time></trkpt><trkpt lat="38.6763236" lon="-0.4665267"><ele>657.3333333333334</ele><time>2026-04-05T10:50:41.029Z</time></trkpt><trkpt lat="38.6764589" lon="-0.4664266"><ele>654.6666666666667</ele><time>2026-04-05T10:50:42.029Z</time></trkpt><trkpt lat="38.6765887" lon="-0.4663252"><ele>652.0</ele><time>2026-04-05T10:50:43.029Z</time></trkpt><trkpt lat="38.6767223" lon="-0.466207"><ele>650.6666666666667</ele><time>2026-04-05T10:50:44.029Z</time></trkpt><trkpt lat="38.6768484" lon="-0.4660616"><ele>649.3333333333334</ele><time>2026-04-05T10:50:45.029Z</time></trkpt><trkpt lat="38.6769591" lon="-0.4658947"><ele>648.0</ele><time>2026-04-05T10:50:46.03Z</time></trkpt><trkpt lat="38.6770669" lon="-0.4657243"><ele>648.0</ele><time>2026-04-05T10:50:47.03Z</time></trkpt><trkpt lat="38.6771736" lon="-0.4655559"><ele>648.0</ele><time>2026-04-05T10:50:48.029Z</time></trkpt><trkpt lat="38.6772826" lon="-0.4653946"><ele>648.0</ele><time>2026-04-05T10:50:49.03Z</time></trkpt><trkpt lat="38.6773949" lon="-0.4652476"><ele>647.0</ele><time>2026-04-05T10:50:50.03Z</time></trkpt><trkpt lat="38.6775028" lon="-0.4651256"><ele>646.0</ele><time>2026-04-05T10:50:51.03Z</time></trkpt><trkpt lat="38.6776085" lon="-0.4650159"><ele>645.0</ele><time>2026-04-05T10:50:52.03Z</time></trkpt><trkpt lat="38.6777121" lon="-0.4649183"><ele>644.0</ele><time>2026-04-05T10:50:53.029Z</time></trkpt><trkpt lat="38.6778043" lon="-0.4648534"><ele>644.0</ele><time>2026-04-05T10:50:54.03Z</time></trkpt><trkpt lat="38.6778943" lon="-0.464826"><ele>644.0</ele><time>2026-04-05T10:50:55.03Z</time></trkpt><trkpt lat="38.6779684" lon="-0.4648323"><ele>644.0</ele><time>2026-04-05T10:50:56.03Z</time></trkpt><trkpt lat="38.6780311" lon="-0.4648731"><ele>644.0</ele><time>2026-04-05T10:50:57.03Z</time></trkpt><trkpt lat="38.678067" lon="-0.464947"><ele>644.0</ele><time>2026-04-05T10:50:58.03Z</time></trkpt><trkpt lat="38.6780792" lon="-0.4650296"><ele>644.0</ele><time>2026-04-05T10:50:59.029Z</time></trkpt><trkpt lat="38.6780542" lon="-0.465122"><ele>644.0</ele><time>2026-04-05T10:51:00.029Z</time></trkpt><trkpt lat="38.6780045" lon="-0.4651993"><ele>644.0</ele><time>2026-04-05T10:51:01.029Z</time></trkpt><trkpt lat="38.6779339" lon="-0.465277"><ele>644.0</ele><time>2026-04-05T10:51:02.03Z</time></trkpt><trkpt lat="38.6778162" lon="-0.4653526"><ele>644.0</ele><time>2026-04-05T10:51:03.03Z</time></trkpt><trkpt lat="38.6776917" lon="-0.4654618"><ele>644.0</ele><time>2026-04-05T10:51:04.03Z</time></trkpt><trkpt lat="38.6775825" lon="-0.465606"><ele>645.0</ele><time>2026-04-05T10:51:05.03Z</time></trkpt><trkpt lat="38.6774938" lon="-0.4657557"><ele>646.0</ele><time>2026-04-05T10:51:06.03Z</time></trkpt><trkpt lat="38.6774155" lon="-0.4659183"><ele>647.0</ele><time>2026-04-05T10:51:07.029Z</time></trkpt><trkpt lat="38.6773414" lon="-0.4660881"><ele>648.0</ele><time>2026-04-05T10:51:08.03Z</time></trkpt><trkpt lat="38.6772666" lon="-0.4662755"><ele>644.3333333333334</ele><time>2026-04-05T10:51:09.03Z</time></trkpt><trkpt lat="38.6771774" lon="-0.4664794"><ele>640.6666666666667</ele><time>2026-04-05T10:51:10.029Z</time></trkpt><trkpt lat="38.6770712" lon="-0.4666782"><ele>637.0</ele><time>2026-04-05T10:51:11.03Z</time></trkpt><trkpt lat="38.6769735" lon="-0.46685"><ele>635.6666666666667</ele><time>2026-04-05T10:51:12.029Z</time></trkpt><trkpt lat="38.6768793" lon="-0.4670133"><ele>634.3333333333334</ele><time>2026-04-05T10:51:13.029Z</time></trkpt><trkpt lat="38.6767951" lon="-0.4671727"><ele>633.0</ele><time>2026-04-05T10:51:14.03Z</time></trkpt><trkpt lat="38.6767354" lon="-0.4673424"><ele>633.0</ele><time>2026-04-05T10:51:15.03Z</time></trkpt><trkpt lat="38.67671" lon="-0.4675184"><ele>633.0</ele><time>2026-04-05T10:51:16.029Z</time></trkpt><trkpt lat="38.6767194" lon="-0.4676787"><ele>633.0</ele><time>2026-04-05T10:51:17.03Z</time></trkpt><trkpt lat="38.67673" lon="-0.4678439"><ele>633.0</ele><time>2026-04-05T10:51:18.03Z</time></trkpt><trkpt lat="38.6767975" lon="-0.4679992"><ele>633.25</ele><time>2026-04-05T10:51:19.03Z</time></trkpt><trkpt lat="38.6768524" lon="-0.4681602"><ele>633.5</ele><time>2026-04-05T10:51:20.03Z</time></trkpt><trkpt lat="38.6769276" lon="-0.4683097"><ele>633.75</ele><time>2026-04-05T10:51:21.029Z</time></trkpt><trkpt lat="38.6770243" lon="-0.4684348"><ele>634.0</ele><time>2026-04-05T10:51:22.029Z</time></trkpt><trkpt lat="38.6771372" lon="-0.4685364"><ele>634.0</ele><time>2026-04-05T10:51:23.03Z</time></trkpt><trkpt lat="38.6772573" lon="-0.4686156"><ele>634.0</ele><time>2026-04-05T10:51:24.029Z</time></trkpt><trkpt lat="38.6773901" lon="-0.4686507"><ele>634.0</ele><time>2026-04-05T10:51:25.029Z</time></trkpt><trkpt lat="38.6775189" lon="-0.4686669"><ele>634.0</ele><time>2026-04-05T10:51:26.03Z</time></trkpt><trkpt lat="38.677641" lon="-0.4685985"><ele>634.0</ele><time>2026-04-05T10:51:27.029Z</time></trkpt><trkpt lat="38.6777222" lon="-0.4684815"><ele>634.0</ele><time>2026-04-05T10:51:28.03Z</time></trkpt><trkpt lat="38.6777953" lon="-0.4683826"><ele>634.0</ele><time>2026-04-05T10:51:29.03Z</time></trkpt><trkpt lat="38.6778653" lon="-0.468257"><ele>634.0</ele><time>2026-04-05T10:51:30.029Z</time></trkpt><trkpt lat="38.677935" lon="-0.4681149"><ele>634.75</ele><time>2026-04-05T10:51:31.029Z</time></trkpt><trkpt lat="38.6780031" lon="-0.4679643"><ele>635.5</ele><time>2026-04-05T10:51:32.03Z</time></trkpt><trkpt lat="38.6780685" lon="-0.467801"><ele>636.25</ele><time>2026-04-05T10:51:33.03Z</time></trkpt><trkpt lat="38.6781388" lon="-0.4676278"><ele>637.0</ele><time>2026-04-05T10:51:34.03Z</time></trkpt><trkpt lat="38.6782156" lon="-0.4674474"><ele>637.0</ele><time>2026-04-05T10:51:35.03Z</time></trkpt><trkpt lat="38.6783188" lon="-0.4672463"><ele>637.0</ele><time>2026-04-05T10:51:36.029Z</time></trkpt><trkpt lat="38.678436" lon="-0.4670296"><ele>637.0</ele><time>2026-04-05T10:51:37.029Z</time></trkpt><trkpt lat="38.6785497" lon="-0.4668313"><ele>638.0</ele><time>2026-04-05T10:51:38.029Z</time></trkpt><trkpt lat="38.6786605" lon="-0.4666527"><ele>639.0</ele><time>2026-04-05T10:51:39.029Z</time></trkpt><trkpt lat="38.6787693" lon="-0.4664967"><ele>640.0</ele><time>2026-04-05T10:51:40.029Z</time></trkpt><trkpt lat="38.678887" lon="-0.4663746"><ele>640.0</ele><time>2026-04-05T10:51:41.03Z</time></trkpt><trkpt lat="38.6790068" lon="-0.4663053"><ele>640.0</ele><time>2026-04-05T10:51:42.029Z</time></trkpt><trkpt lat="38.6791114" lon="-0.4662754"><ele>640.0</ele><time>2026-04-05T10:51:43.03Z</time></trkpt><trkpt lat="38.6792084" lon="-0.4662686"><ele>640.0</ele><time>2026-04-05T10:51:44.03Z</time></trkpt><trkpt lat="38.6792911" lon="-0.4662611"><ele>640.0</ele><time>2026-04-05T10:51:45.03Z</time></trkpt><trkpt lat="38.6793807" lon="-0.4662503"><ele>639.4</ele><time>2026-04-05T10:51:46.029Z</time></trkpt><trkpt lat="38.6794845" lon="-0.4662242"><ele>638.8</ele><time>2026-04-05T10:51:47.03Z</time></trkpt><trkpt lat="38.6795864" lon="-0.4661998"><ele>638.2</ele><time>2026-04-05T10:51:48.03Z</time></trkpt><trkpt lat="38.6796925" lon="-0.4662017"><ele>637.6</ele><time>2026-04-05T10:51:49.03Z</time></trkpt><trkpt lat="38.6797849" lon="-0.4662334"><ele>637.0</ele><time>2026-04-05T10:51:50.029Z</time></trkpt><trkpt lat="38.6798593" lon="-0.466299"><ele>637.0</ele><time>2026-04-05T10:51:51.03Z</time></trkpt><trkpt lat="38.6799094" lon="-0.4663924"><ele>637.0</ele><time>2026-04-05T10:51:52.029Z</time></trkpt><trkpt lat="38.6799407" lon="-0.4664982"><ele>637.0</ele><time>2026-04-05T10:51:53.03Z</time></trkpt><trkpt lat="38.6799757" lon="-0.4665944"><ele>637.0</ele><time>2026-04-05T10:51:54.029Z</time></trkpt><trkpt lat="38.680019" lon="-0.4666732"><ele>637.0</ele><time>2026-04-05T10:51:55.029Z</time></trkpt><trkpt lat="38.6800688" lon="-0.4667398"><ele>637.0</ele><time>2026-04-05T10:51:56.03Z</time></trkpt><trkpt lat="38.6801215" lon="-0.4667894"><ele>637.0</ele><time>2026-04-05T10:51:57.03Z</time></trkpt><trkpt lat="38.6801795" lon="-0.4668422"><ele>637.0</ele><time>2026-04-05T10:51:58.029Z</time></trkpt><trkpt lat="38.6802411" lon="-0.4668985"><ele>637.0</ele><time>2026-04-05T10:51:59.03Z</time></trkpt><trkpt lat="38.6803046" lon="-0.4669646"><ele>637.0</ele><time>2026-04-05T10:52:00.03Z</time></trkpt><trkpt lat="38.6803687" lon="-0.4670442"><ele>637.0</ele><time>2026-04-05T10:52:01.03Z</time></trkpt><trkpt lat="38.6804316" lon="-0.4671377"><ele>637.0</ele><time>2026-04-05T10:52:02.029Z</time></trkpt><trkpt lat="38.6804936" lon="-0.4672343"><ele>636.8000000000001</ele><time>2026-04-05T10:52:03.03Z</time></trkpt><trkpt lat="38.6805477" lon="-0.467342"><ele>636.6</ele><time>2026-04-05T10:52:04.029Z</time></trkpt><trkpt lat="38.6806009" lon="-0.4674557"><ele>636.4000000000001</ele><time>2026-04-05T10:52:05.029Z</time></trkpt><trkpt lat="38.6806513" lon="-0.4675733"><ele>636.2</ele><time>2026-04-05T10:52:06.029Z</time></trkpt><trkpt lat="38.6807038" lon="-0.4676892"><ele>636.0</ele><time>2026-04-05T10:52:07.029Z</time></trkpt><trkpt lat="38.6807529" lon="-0.4678077"><ele>636.0</ele><time>2026-04-05T10:52:08.03Z</time></trkpt><trkpt lat="38.6808048" lon="-0.4679289"><ele>636.0</ele><time>2026-04-05T10:52:09.03Z</time></trkpt><trkpt lat="38.6808629" lon="-0.4680449"><ele>636.0</ele><time>2026-04-05T10:52:10.029Z</time></trkpt><trkpt lat="38.6809302" lon="-0.4681559"><ele>636.0</ele><time>2026-04-05T10:52:11.029Z</time></trkpt><trkpt lat="38.6809935" lon="-0.46827"><ele>636.0</ele><time>2026-04-05T10:52:12.03Z</time></trkpt><trkpt lat="38.6810616" lon="-0.4683752"><ele>636.2</ele><time>2026-04-05T10:52:13.029Z</time></trkpt><trkpt lat="38.6811346" lon="-0.4684749"><ele>636.4000000000001</ele><time>2026-04-05T10:52:14.029Z</time></trkpt><trkpt lat="38.6812144" lon="-0.4685676"><ele>636.6</ele><time>2026-04-05T10:52:15.03Z</time></trkpt><trkpt lat="38.6812955" lon="-0.4686588"><ele>636.8000000000001</ele><time>2026-04-05T10:52:16.029Z</time></trkpt><trkpt lat="38.6813835" lon="-0.4687369"><ele>637.0</ele><time>2026-04-05T10:52:17.03Z</time></trkpt><trkpt lat="38.6814753" lon="-0.4688104"><ele>637.0</ele><time>2026-04-05T10:52:18.029Z</time></trkpt><trkpt lat="38.6815687" lon="-0.4688743"><ele>637.0</ele><time>2026-04-05T10:52:19.029Z</time></trkpt><trkpt lat="38.6816604" lon="-0.4689372"><ele>637.0</ele><time>2026-04-05T10:52:20.03Z</time></trkpt><trkpt lat="38.681753" lon="-0.4690098"><ele>637.0</ele><time>2026-04-05T10:52:21.03Z</time></trkpt><trkpt lat="38.6818656" lon="-0.4691039"><ele>629.6666666666667</ele><time>2026-04-05T10:52:22.029Z</time></trkpt><trkpt lat="38.682005" lon="-0.4692419"><ele>622.3333333333334</ele><time>2026-04-05T10:52:23.029Z</time></trkpt><trkpt lat="38.6821458" lon="-0.4693961"><ele>615.0</ele><time>2026-04-05T10:52:24.03Z</time></trkpt><trkpt lat="38.6822743" lon="-0.4695502"><ele>620.3333333333334</ele><time>2026-04-05T10:52:25.029Z</time></trkpt><trkpt lat="38.6824002" lon="-0.4697149"><ele>625.6666666666667</ele><time>2026-04-05T10:52:26.03Z</time></trkpt><trkpt lat="38.6825243" lon="-0.4698725"><ele>631.0</ele><time>2026-04-05T10:52:27.03Z</time></trkpt><trkpt lat="38.6826464" lon="-0.4700327"><ele>632.3333333333334</ele><time>2026-04-05T10:52:28.029Z</time></trkpt><trkpt lat="38.6827676" lon="-0.4701879"><ele>633.6666666666666</ele><time>2026-04-05T10:52:29.03Z</time></trkpt><trkpt lat="38.6828776" lon="-0.4703335"><ele>635.0</ele><time>2026-04-05T10:52:30.03Z</time></trkpt><trkpt lat="38.682996" lon="-0.4704943"><ele>635.0</ele><time>2026-04-05T10:52:31.029Z</time></trkpt><trkpt lat="38.6831176" lon="-0.4706542"><ele>635.0</ele><time>2026-04-05T10:52:32.029Z</time></trkpt><trkpt lat="38.6832124" lon="-0.4707803"><ele>635.0</ele><time>2026-04-05T10:52:33.03Z</time></trkpt><trkpt lat="38.6833093" lon="-0.4709105"><ele>635.0</ele><time>2026-04-05T10:52:34.029Z</time></trkpt><trkpt lat="38.6834078" lon="-0.4710395"><ele>635.0</ele><time>2026-04-05T10:52:35.029Z</time></trkpt><trkpt lat="38.6834982" lon="-0.4711621"><ele>635.0</ele><time>2026-04-05T10:52:36.03Z</time></trkpt><trkpt lat="38.6835947" lon="-0.4712805"><ele>635.0</ele><time>2026-04-05T10:52:37.029Z</time></trkpt><trkpt lat="38.6836851" lon="-0.4714069"><ele>636.0</ele><time>2026-04-05T10:52:38.03Z</time></trkpt><trkpt lat="38.683778" lon="-0.4715286"><ele>637.0</ele><time>2026-04-05T10:52:39.029Z</time></trkpt><trkpt lat="38.6838733" lon="-0.4716506"><ele>638.0</ele><time>2026-04-05T10:52:40.03Z</time></trkpt><trkpt lat="38.6839653" lon="-0.4717632"><ele>639.0</ele><time>2026-04-05T10:52:41.03Z</time></trkpt><trkpt lat="38.6840507" lon="-0.4718728"><ele>639.0</ele><time>2026-04-05T10:52:42.03Z</time></trkpt><trkpt lat="38.6841251" lon="-0.471977"><ele>639.0</ele><time>2026-04-05T10:52:43.029Z</time></trkpt><trkpt lat="38.6841941" lon="-0.4720599"><ele>639.0</ele><time>2026-04-05T10:52:44.03Z</time></trkpt><trkpt lat="38.6842531" lon="-0.472135"><ele>639.0</ele><time>2026-04-05T10:52:45.03Z</time></trkpt><trkpt lat="38.6843025" lon="-0.4722124"><ele>639.0</ele><time>2026-04-05T10:52:46.029Z</time></trkpt><trkpt lat="38.6843555" lon="-0.47229"><ele>639.0</ele><time>2026-04-05T10:52:47.03Z</time></trkpt><trkpt lat="38.6844102" lon="-0.4723537"><ele>638.7142857142858</ele><time>2026-04-05T10:52:48.029Z</time></trkpt><trkpt lat="38.6844586" lon="-0.472418"><ele>638.4285714285714</ele><time>2026-04-05T10:52:49.03Z</time></trkpt><trkpt lat="38.6844884" lon="-0.4724944"><ele>638.1428571428571</ele><time>2026-04-05T10:52:50.029Z</time></trkpt><trkpt lat="38.6845024" lon="-0.4725838"><ele>637.8571428571429</ele><time>2026-04-05T10:52:51.029Z</time></trkpt><trkpt lat="38.6845062" lon="-0.4726685"><ele>637.5714285714286</ele><time>2026-04-05T10:52:52.03Z</time></trkpt><trkpt lat="38.6845115" lon="-0.4727706"><ele>637.2857142857143</ele><time>2026-04-05T10:52:53.029Z</time></trkpt><trkpt lat="38.684519" lon="-0.4728758"><ele>637.0</ele><time>2026-04-05T10:52:54.029Z</time></trkpt><trkpt lat="38.6845484" lon="-0.4729865"><ele>636.0</ele><time>2026-04-05T10:52:55.03Z</time></trkpt><trkpt lat="38.6845792" lon="-0.4730953"><ele>635.0</ele><time>2026-04-05T10:52:56.03Z</time></trkpt><trkpt lat="38.6846126" lon="-0.4732153"><ele>634.0</ele><time>2026-04-05T10:52:57.03Z</time></trkpt><trkpt lat="38.6846459" lon="-0.4733393"><ele>633.0</ele><time>2026-04-05T10:52:58.029Z</time></trkpt><trkpt lat="38.684684" lon="-0.4734684"><ele>632.0</ele><time>2026-04-05T10:52:59.029Z</time></trkpt><trkpt lat="38.6847366" lon="-0.4735743"><ele>632.0</ele><time>2026-04-05T10:53:00.029Z</time></trkpt><trkpt lat="38.6847966" lon="-0.4736911"><ele>632.0</ele><time>2026-04-05T10:53:01.029Z</time></trkpt><trkpt lat="38.6848637" lon="-0.4737985"><ele>632.0</ele><time>2026-04-05T10:53:02.029Z</time></trkpt><trkpt lat="38.6849434" lon="-0.4738884"><ele>632.0</ele><time>2026-04-05T10:53:03.03Z</time></trkpt><trkpt lat="38.6850264" lon="-0.4739736"><ele>632.0</ele><time>2026-04-05T10:53:04.03Z</time></trkpt><trkpt lat="38.6851075" lon="-0.4740609"><ele>631.2</ele><time>2026-04-05T10:53:05.029Z</time></trkpt><trkpt lat="38.685194" lon="-0.4741527"><ele>630.4000000000001</ele><time>2026-04-05T10:53:06.03Z</time></trkpt><trkpt lat="38.6852755" lon="-0.4742283"><ele>629.5999999999999</ele><time>2026-04-05T10:53:07.029Z</time></trkpt><trkpt lat="38.6853527" lon="-0.4743002"><ele>628.8</ele><time>2026-04-05T10:53:08.03Z</time></trkpt><trkpt lat="38.6854266" lon="-0.4743686"><ele>628.0</ele><time>2026-04-05T10:53:09.029Z</time></trkpt><trkpt lat="38.6855006" lon="-0.474439"><ele>628.0</ele><time>2026-04-05T10:53:10.03Z</time></trkpt><trkpt lat="38.6855768" lon="-0.4745147"><ele>628.0</ele><time>2026-04-05T10:53:11.029Z</time></trkpt><trkpt lat="38.6856564" lon="-0.4745971"><ele>628.0</ele><time>2026-04-05T10:53:12.029Z</time></trkpt><trkpt lat="38.6857419" lon="-0.4746753"><ele>628.0</ele><time>2026-04-05T10:53:13.029Z</time></trkpt><trkpt lat="38.685829" lon="-0.4747606"><ele>628.0</ele><time>2026-04-05T10:53:14.029Z</time></trkpt><trkpt lat="38.685916" lon="-0.4748491"><ele>627.8</ele><time>2026-04-05T10:53:15.029Z</time></trkpt><trkpt lat="38.686005" lon="-0.4749387"><ele>627.5999999999999</ele><time>2026-04-05T10:53:16.03Z</time></trkpt><trkpt lat="38.6860865" lon="-0.4750225"><ele>627.4000000000001</ele><time>2026-04-05T10:53:17.029Z</time></trkpt><trkpt lat="38.6861651" lon="-0.4751056"><ele>627.2</ele><time>2026-04-05T10:53:18.029Z</time></trkpt><trkpt lat="38.6862335" lon="-0.475185"><ele>627.0</ele><time>2026-04-05T10:53:19.029Z</time></trkpt><trkpt lat="38.6862975" lon="-0.4752607"><ele>627.0</ele><time>2026-04-05T10:53:20.029Z</time></trkpt><trkpt lat="38.6863596" lon="-0.4753352"><ele>627.0</ele><time>2026-04-05T10:53:21.029Z</time></trkpt><trkpt lat="38.6864253" lon="-0.4754201"><ele>627.0</ele><time>2026-04-05T10:53:22.03Z</time></trkpt><trkpt lat="38.6864964" lon="-0.4755061"><ele>627.0</ele><time>2026-04-05T10:53:23.029Z</time></trkpt><trkpt lat="38.6865686" lon="-0.4755915"><ele>627.0</ele><time>2026-04-05T10:53:24.03Z</time></trkpt><trkpt lat="38.6866357" lon="-0.4756773"><ele>626.0</ele><time>2026-04-05T10:53:25.03Z</time></trkpt><trkpt lat="38.6867042" lon="-0.4757634"><ele>625.0</ele><time>2026-04-05T10:53:26.03Z</time></trkpt><trkpt lat="38.6867687" lon="-0.4758583"><ele>624.0</ele><time>2026-04-05T10:53:27.029Z</time></trkpt><trkpt lat="38.6868373" lon="-0.4759467"><ele>623.0</ele><time>2026-04-05T10:53:28.029Z</time></trkpt><trkpt lat="38.6869073" lon="-0.4760405"><ele>622.0</ele><time>2026-04-05T10:53:29.03Z</time></trkpt><trkpt lat="38.6869715" lon="-0.476142"><ele>622.0</ele><time>2026-04-05T10:53:30.03Z</time></trkpt><trkpt lat="38.6870304" lon="-0.4762503"><ele>622.0</ele><time>2026-04-05T10:53:31.03Z</time></trkpt><trkpt lat="38.6870866" lon="-0.4763743"><ele>622.0</ele><time>2026-04-05T10:53:32.029Z</time></trkpt><trkpt lat="38.6871366" lon="-0.4765"><ele>622.0</ele><time>2026-04-05T10:53:33.03Z</time></trkpt><trkpt lat="38.687185" lon="-0.4766273"><ele>622.0</ele><time>2026-04-05T10:53:34.03Z</time></trkpt><trkpt lat="38.6872284" lon="-0.4767618"><ele>619.4</ele><time>2026-04-05T10:53:35.029Z</time></trkpt><trkpt lat="38.6872666" lon="-0.4768917"><ele>616.8000000000001</ele><time>2026-04-05T10:53:36.03Z</time></trkpt><trkpt lat="38.6873041" lon="-0.4770101"><ele>614.2</ele><time>2026-04-05T10:53:37.03Z</time></trkpt><trkpt lat="38.6873396" lon="-0.4771255"><ele>611.6</ele><time>2026-04-05T10:53:38.03Z</time></trkpt><trkpt lat="38.6873711" lon="-0.477219"><ele>609.0</ele><time>2026-04-05T10:53:39.03Z</time></trkpt><trkpt lat="38.687402" lon="-0.4773243"><ele>608.0</ele><time>2026-04-05T10:53:40.029Z</time></trkpt><trkpt lat="38.6874355" lon="-0.4774342"><ele>607.0</ele><time>2026-04-05T10:53:41.03Z</time></trkpt><trkpt lat="38.6874759" lon="-0.4775532"><ele>606.0</ele><time>2026-04-05T10:53:42.029Z</time></trkpt><trkpt lat="38.6875144" lon="-0.4776735"><ele>605.0</ele><time>2026-04-05T10:53:43.03Z</time></trkpt><trkpt lat="38.6875571" lon="-0.4777901"><ele>604.0</ele><time>2026-04-05T10:53:44.03Z</time></trkpt><trkpt lat="38.6875942" lon="-0.4779025"><ele>602.5</ele><time>2026-04-05T10:53:45.03Z</time></trkpt><trkpt lat="38.6876323" lon="-0.4780251"><ele>601.0</ele><time>2026-04-05T10:53:46.03Z</time></trkpt><trkpt lat="38.6876751" lon="-0.4781613"><ele>599.5</ele><time>2026-04-05T10:53:47.03Z</time></trkpt><trkpt lat="38.687719" lon="-0.4783002"><ele>598.0</ele><time>2026-04-05T10:53:48.029Z</time></trkpt><trkpt lat="38.6877668" lon="-0.4784369"><ele>597.4</ele><time>2026-04-05T10:53:49.029Z</time></trkpt><trkpt lat="38.6878207" lon="-0.4785558"><ele>596.8</ele><time>2026-04-05T10:53:50.029Z</time></trkpt><trkpt lat="38.6878751" lon="-0.4786643"><ele>596.2</ele><time>2026-04-05T10:53:51.029Z</time></trkpt><trkpt lat="38.6879301" lon="-0.4787794"><ele>595.6</ele><time>2026-04-05T10:53:52.029Z</time></trkpt><trkpt lat="38.6879893" lon="-0.478871"><ele>595.0</ele><time>2026-04-05T10:53:53.03Z</time></trkpt><trkpt lat="38.6881009" lon="-0.4789547"><ele>595.0</ele><time>2026-04-05T10:53:54.029Z</time></trkpt><trkpt lat="38.688208" lon="-0.4790424"><ele>595.0</ele><time>2026-04-05T10:53:55.029Z</time></trkpt><trkpt lat="38.6883246" lon="-0.4791149"><ele>595.0</ele><time>2026-04-05T10:53:56.03Z</time></trkpt><trkpt lat="38.6884434" lon="-0.4791829"><ele>595.0</ele><time>2026-04-05T10:53:57.03Z</time></trkpt><trkpt lat="38.6885578" lon="-0.4792405"><ele>595.2</ele><time>2026-04-05T10:53:58.03Z</time></trkpt><trkpt lat="38.6886678" lon="-0.4792862"><ele>595.4</ele><time>2026-04-05T10:53:59.03Z</time></trkpt><trkpt lat="38.6887688" lon="-0.4793271"><ele>595.6</ele><time>2026-04-05T10:54:00.029Z</time></trkpt><trkpt lat="38.6888609" lon="-0.4793699"><ele>595.8</ele><time>2026-04-05T10:54:01.03Z</time></trkpt><trkpt lat="38.6889477" lon="-0.4794118"><ele>596.0</ele><time>2026-04-05T10:54:02.029Z</time></trkpt><trkpt lat="38.6890493" lon="-0.479454"><ele>596.0</ele><time>2026-04-05T10:54:03.029Z</time></trkpt><trkpt lat="38.6891483" lon="-0.479507"><ele>596.0</ele><time>2026-04-05T10:54:04.029Z</time></trkpt><trkpt lat="38.6892447" lon="-0.4795637"><ele>596.0</ele><time>2026-04-05T10:54:05.029Z</time></trkpt><trkpt lat="38.6893597" lon="-0.4796323"><ele>596.0</ele><time>2026-04-05T10:54:06.029Z</time></trkpt><trkpt lat="38.6894512" lon="-0.4797263"><ele>594.4</ele><time>2026-04-05T10:54:07.029Z</time></trkpt><trkpt lat="38.6895441" lon="-0.4798172"><ele>592.8</ele><time>2026-04-05T10:54:08.029Z</time></trkpt><trkpt lat="38.6896332" lon="-0.4799126"><ele>591.1999999999999</ele><time>2026-04-05T10:54:09.03Z</time></trkpt><trkpt lat="38.6897152" lon="-0.48001"><ele>589.6</ele><time>2026-04-05T10:54:10.029Z</time></trkpt><trkpt lat="38.6897927" lon="-0.4800941"><ele>588.0</ele><time>2026-04-05T10:54:11.03Z</time></trkpt><trkpt lat="38.6898669" lon="-0.480179"><ele>588.0</ele><time>2026-04-05T10:54:12.029Z</time></trkpt><trkpt lat="38.6899461" lon="-0.480262"><ele>588.0</ele><time>2026-04-05T10:54:13.03Z</time></trkpt><trkpt lat="38.6900327" lon="-0.4803401"><ele>588.0</ele><time>2026-04-05T10:54:14.029Z</time></trkpt><trkpt lat="38.6901178" lon="-0.480407"><ele>588.0</ele><time>2026-04-05T10:54:15.029Z</time></trkpt><trkpt lat="38.6901999" lon="-0.4804617"><ele>588.0</ele><time>2026-04-05T10:54:16.029Z</time></trkpt><trkpt lat="38.6902863" lon="-0.4804979"><ele>586.0</ele><time>2026-04-05T10:54:17.029Z</time></trkpt><trkpt lat="38.6903738" lon="-0.4805464"><ele>584.0</ele><time>2026-04-05T10:54:18.029Z</time></trkpt><trkpt lat="38.6904578" lon="-0.4805875"><ele>582.0</ele><time>2026-04-05T10:54:19.029Z</time></trkpt><trkpt lat="38.6905241" lon="-0.4806451"><ele>580.0</ele><time>2026-04-05T10:54:20.03Z</time></trkpt><trkpt lat="38.6905745" lon="-0.4807084"><ele>578.0</ele><time>2026-04-05T10:54:21.029Z</time></trkpt><trkpt lat="38.690608" lon="-0.480796"><ele>576.0</ele><time>2026-04-05T10:54:22.029Z</time></trkpt><trkpt lat="38.6906316" lon="-0.4809066"><ele>576.0</ele><time>2026-04-05T10:54:23.029Z</time></trkpt><trkpt lat="38.6906527" lon="-0.4810335"><ele>576.0</ele><time>2026-04-05T10:54:24.029Z</time></trkpt><trkpt lat="38.6906852" lon="-0.4811642"><ele>576.0</ele><time>2026-04-05T10:54:25.029Z</time></trkpt><trkpt lat="38.6907296" lon="-0.4812995"><ele>576.0</ele><time>2026-04-05T10:54:26.029Z</time></trkpt><trkpt lat="38.6907816" lon="-0.4814344"><ele>576.0</ele><time>2026-04-05T10:54:27.03Z</time></trkpt><trkpt lat="38.6908378" lon="-0.4815823"><ele>572.25</ele><time>2026-04-05T10:54:28.03Z</time></trkpt><trkpt lat="38.6908936" lon="-0.4817356"><ele>568.5</ele><time>2026-04-05T10:54:29.03Z</time></trkpt><trkpt lat="38.6909515" lon="-0.4818807"><ele>564.75</ele><time>2026-04-05T10:54:30.029Z</time></trkpt><trkpt lat="38.6910106" lon="-0.4820243"><ele>561.0</ele><time>2026-04-05T10:54:31.03Z</time></trkpt><trkpt lat="38.6910662" lon="-0.4821572"><ele>558.75</ele><time>2026-04-05T10:54:32.029Z</time></trkpt><trkpt lat="38.6911184" lon="-0.4822917"><ele>556.5</ele><time>2026-04-05T10:54:33.029Z</time></trkpt><trkpt lat="38.6911761" lon="-0.482434"><ele>554.25</ele><time>2026-04-05T10:54:34.03Z</time></trkpt><trkpt lat="38.6912323" lon="-0.4825782"><ele>552.0</ele><time>2026-04-05T10:54:35.029Z</time></trkpt><trkpt lat="38.6912834" lon="-0.4827112"><ele>552.0</ele><time>2026-04-05T10:54:36.029Z</time></trkpt><trkpt lat="38.6913329" lon="-0.4828395"><ele>552.0</ele><time>2026-04-05T10:54:37.029Z</time></trkpt><trkpt lat="38.6913855" lon="-0.4829731"><ele>552.0</ele><time>2026-04-05T10:54:38.03Z</time></trkpt><trkpt lat="38.6914415" lon="-0.483108"><ele>552.0</ele><time>2026-04-05T10:54:39.03Z</time></trkpt><trkpt lat="38.6914965" lon="-0.4832498"><ele>550.5</ele><time>2026-04-05T10:54:40.03Z</time></trkpt><trkpt lat="38.6915517" lon="-0.4833827"><ele>549.0</ele><time>2026-04-05T10:54:41.03Z</time></trkpt><trkpt lat="38.6916033" lon="-0.4835164"><ele>547.5</ele><time>2026-04-05T10:54:42.03Z</time></trkpt><trkpt lat="38.691657" lon="-0.4836385"><ele>546.0</ele><time>2026-04-05T10:54:43.03Z</time></trkpt><trkpt lat="38.6917098" lon="-0.4837756"><ele>549.0</ele><time>2026-04-05T10:54:44.03Z</time></trkpt><trkpt lat="38.6917633" lon="-0.483915"><ele>552.0</ele><time>2026-04-05T10:54:45.029Z</time></trkpt><trkpt lat="38.6918169" lon="-0.4840593"><ele>555.0</ele><time>2026-04-05T10:54:46.029Z</time></trkpt><trkpt lat="38.6918732" lon="-0.4842073"><ele>558.0</ele><time>2026-04-05T10:54:47.029Z</time></trkpt><trkpt lat="38.691928" lon="-0.4843523"><ele>560.5</ele><time>2026-04-05T10:54:48.029Z</time></trkpt><trkpt lat="38.6919814" lon="-0.4844958"><ele>563.0</ele><time>2026-04-05T10:54:49.029Z</time></trkpt><trkpt lat="38.6920416" lon="-0.4846332"><ele>565.5</ele><time>2026-04-05T10:54:50.03Z</time></trkpt><trkpt lat="38.6921162" lon="-0.4847553"><ele>568.0</ele><time>2026-04-05T10:54:51.03Z</time></trkpt><trkpt lat="38.6922061" lon="-0.48485"><ele>569.6</ele><time>2026-04-05T10:54:52.03Z</time></trkpt><trkpt lat="38.6922983" lon="-0.4849272"><ele>571.1999999999999</ele><time>2026-04-05T10:54:53.03Z</time></trkpt><trkpt lat="38.6924081" lon="-0.48496"><ele>572.8</ele><time>2026-04-05T10:54:54.029Z</time></trkpt><trkpt lat="38.6925067" lon="-0.4849963"><ele>574.4</ele><time>2026-04-05T10:54:55.029Z</time></trkpt><trkpt lat="38.6926132" lon="-0.4849943"><ele>576.0</ele><time>2026-04-05T10:54:56.03Z</time></trkpt><trkpt lat="38.6926985" lon="-0.4849753"><ele>576.5</ele><time>2026-04-05T10:54:57.03Z</time></trkpt><trkpt lat="38.6927889" lon="-0.4849513"><ele>577.0</ele><time>2026-04-05T10:54:58.029Z</time></trkpt><trkpt lat="38.6928747" lon="-0.4849269"><ele>577.5</ele><time>2026-04-05T10:54:59.03Z</time></trkpt><trkpt lat="38.6929435" lon="-0.4849049"><ele>578.0</ele><time>2026-04-05T10:55:00.03Z</time></trkpt><trkpt lat="38.6930524" lon="-0.4848794"><ele>578.5</ele><time>2026-04-05T10:55:02.03Z</time></trkpt><trkpt lat="38.6931326" lon="-0.4848586"><ele>579.0</ele><time>2026-04-05T10:55:04.03Z</time></trkpt><trkpt lat="38.6932183" lon="-0.4848361"><ele>579.0</ele><time>2026-04-05T10:55:06.029Z</time></trkpt><trkpt lat="38.6932898" lon="-0.4848276"><ele>579.0</ele><time>2026-04-05T10:55:08.029Z</time></trkpt><trkpt lat="38.6933579" lon="-0.4848136"><ele>579.0</ele><time>2026-04-05T10:55:10.029Z</time></trkpt><trkpt lat="38.6934415" lon="-0.4847884"><ele>579.0</ele><time>2026-04-05T10:55:12.03Z</time></trkpt><trkpt lat="38.6935055" lon="-0.4847439"><ele>579.0</ele><time>2026-04-05T10:55:13.029Z</time></trkpt><trkpt lat="38.6935671" lon="-0.4847176"><ele>579.0</ele><time>2026-04-05T10:55:14.03Z</time></trkpt><trkpt lat="38.693674" lon="-0.4847559"><ele>579.0</ele><time>2026-04-05T10:55:16.03Z</time></trkpt><trkpt lat="38.6937688" lon="-0.4848576"><ele>579.0</ele><time>2026-04-05T10:55:18.029Z</time></trkpt><trkpt lat="38.6937075" lon="-0.4849821"><ele>579.0</ele><time>2026-04-05T10:55:20.029Z</time></trkpt><trkpt lat="38.69364" lon="-0.485018"><ele>579.0</ele><time>2026-04-05T10:55:21.03Z</time></trkpt><trkpt lat="38.693579" lon="-0.4850496"><ele>579.0</ele><time>2026-04-05T10:55:22.03Z</time></trkpt><trkpt lat="38.6934828" lon="-0.4851141"><ele>579.0</ele><time>2026-04-05T10:55:24.029Z</time></trkpt><trkpt lat="38.6934266" lon="-0.4851907"><ele>579.0</ele><time>2026-04-05T10:55:26.029Z</time></trkpt><trkpt lat="38.693382" lon="-0.4852898"><ele>579.0</ele><time>2026-04-05T10:55:28.029Z</time></trkpt><trkpt lat="38.693327" lon="-0.4854215"><ele>579.0</ele><time>2026-04-05T10:55:30.029Z</time></trkpt><trkpt lat="38.6932885" lon="-0.4855353"><ele>579.0</ele><time>2026-04-05T10:55:32.029Z</time></trkpt><trkpt lat="38.6932423" lon="-0.4856375"><ele>579.3333333333334</ele><time>2026-04-05T10:55:34.029Z</time></trkpt><trkpt lat="38.6932066" lon="-0.4857219"><ele>579.6666666666666</ele><time>2026-04-05T10:55:36.03Z</time></trkpt><trkpt lat="38.6931643" lon="-0.4858012"><ele>580.0</ele><time>2026-04-05T10:55:38.029Z</time></trkpt><trkpt lat="38.693122" lon="-0.4858978"><ele>580.3333333333333</ele><time>2026-04-05T10:55:41.029Z</time></trkpt><trkpt lat="38.6930713" lon="-0.4859746"><ele>580.6666666666666</ele><time>2026-04-05T10:56:18.029Z</time></trkpt><trkpt lat="38.6930297" lon="-0.4860462"><ele>581.0</ele><time>2026-04-05T10:56:20.03Z</time></trkpt><trkpt lat="38.692987" lon="-0.4861898"><ele>582.4</ele><time>2026-04-05T10:56:22.029Z</time></trkpt><trkpt lat="38.6929286" lon="-0.4863216"><ele>583.8</ele><time>2026-04-05T10:56:24.029Z</time></trkpt><trkpt lat="38.6928957" lon="-0.4863965"><ele>585.1999999999999</ele><time>2026-04-05T10:56:25.029Z</time></trkpt><trkpt lat="38.692858" lon="-0.486491"><ele>586.6</ele><time>2026-04-05T10:56:26.03Z</time></trkpt><trkpt lat="38.6928214" lon="-0.4865979"><ele>588.0</ele><time>2026-04-05T10:56:27.029Z</time></trkpt><trkpt lat="38.6927712" lon="-0.4867115"><ele>588.4</ele><time>2026-04-05T10:56:28.029Z</time></trkpt><trkpt lat="38.6927227" lon="-0.4868303"><ele>588.8</ele><time>2026-04-05T10:56:29.029Z</time></trkpt><trkpt lat="38.6926868" lon="-0.4869383"><ele>589.2</ele><time>2026-04-05T10:56:30.029Z</time></trkpt><trkpt lat="38.6926448" lon="-0.4870589"><ele>589.6</ele><time>2026-04-05T10:56:31.029Z</time></trkpt><trkpt lat="38.6926078" lon="-0.4871644"><ele>590.0</ele><time>2026-04-05T10:56:32.029Z</time></trkpt><trkpt lat="38.692561" lon="-0.4872746"><ele>590.0</ele><time>2026-04-05T10:56:33.029Z</time></trkpt><trkpt lat="38.6925187" lon="-0.4873789"><ele>590.0</ele><time>2026-04-05T10:56:34.029Z</time></trkpt><trkpt lat="38.6924707" lon="-0.4874813"><ele>590.0</ele><time>2026-04-05T10:56:35.029Z</time></trkpt><trkpt lat="38.6924285" lon="-0.4875929"><ele>590.0</ele><time>2026-04-05T10:56:36.03Z</time></trkpt><trkpt lat="38.6923846" lon="-0.4877024"><ele>590.0</ele><time>2026-04-05T10:56:37.03Z</time></trkpt><trkpt lat="38.69234" lon="-0.487806"><ele>590.0</ele><time>2026-04-05T10:56:38.03Z</time></trkpt><trkpt lat="38.6922921" lon="-0.4879138"><ele>590.0</ele><time>2026-04-05T10:56:39.03Z</time></trkpt><trkpt lat="38.6922666" lon="-0.4879934"><ele>590.0</ele><time>2026-04-05T10:56:40.029Z</time></trkpt><trkpt lat="38.6922397" lon="-0.488074"><ele>590.0</ele><time>2026-04-05T10:56:41.03Z</time></trkpt><trkpt lat="38.6922161" lon="-0.4881562"><ele>590.0</ele><time>2026-04-05T10:56:42.03Z</time></trkpt><trkpt lat="38.6921893" lon="-0.4882438"><ele>590.0</ele><time>2026-04-05T10:56:43.03Z</time></trkpt><trkpt lat="38.6921458" lon="-0.4883317"><ele>590.0</ele><time>2026-04-05T10:56:44.03Z</time></trkpt><trkpt lat="38.692117" lon="-0.4884066"><ele>590.0</ele><time>2026-04-05T10:56:45.03Z</time></trkpt><trkpt lat="38.6920627" lon="-0.4885309"><ele>590.0</ele><time>2026-04-05T10:56:47.03Z</time></trkpt><trkpt lat="38.6920094" lon="-0.4886461"><ele>590.0</ele><time>2026-04-05T10:56:49.03Z</time></trkpt><trkpt lat="38.6919642" lon="-0.4887698"><ele>590.0</ele><time>2026-04-05T10:56:51.03Z</time></trkpt><trkpt lat="38.691927" lon="-0.4888953"><ele>590.6666666666666</ele><time>2026-04-05T10:56:53.03Z</time></trkpt><trkpt lat="38.6918948" lon="-0.4889952"><ele>591.3333333333333</ele><time>2026-04-05T10:56:55.03Z</time></trkpt><trkpt lat="38.6918681" lon="-0.4890933"><ele>592.0</ele><time>2026-04-05T10:56:57.029Z</time></trkpt><trkpt lat="38.6918676" lon="-0.4891894"><ele>592.6666666666666</ele><time>2026-04-05T10:56:59.03Z</time></trkpt><trkpt lat="38.6918168" lon="-0.4893342"><ele>593.3333333333334</ele><time>2026-04-05T10:57:01.029Z</time></trkpt><trkpt lat="38.6917936" lon="-0.4894129"><ele>594.0</ele><time>2026-04-05T10:57:02.029Z</time></trkpt><trkpt lat="38.691781" lon="-0.4894995"><ele>594.4285714285714</ele><time>2026-04-05T10:57:03.029Z</time></trkpt><trkpt lat="38.6917785" lon="-0.4895972"><ele>594.8571428571429</ele><time>2026-04-05T10:57:04.03Z</time></trkpt><trkpt lat="38.6917755" lon="-0.4896976"><ele>595.2857142857143</ele><time>2026-04-05T10:57:05.029Z</time></trkpt><trkpt lat="38.6917736" lon="-0.4897939"><ele>595.7142857142858</ele><time>2026-04-05T10:57:06.029Z</time></trkpt><trkpt lat="38.6917706" lon="-0.4898841"><ele>596.1428571428571</ele><time>2026-04-05T10:57:07.029Z</time></trkpt><trkpt lat="38.6917632" lon="-0.4899734"><ele>596.5714285714287</ele><time>2026-04-05T10:57:08.03Z</time></trkpt><trkpt lat="38.6917518" lon="-0.4900656"><ele>597.0</ele><time>2026-04-05T10:57:09.03Z</time></trkpt><trkpt lat="38.6917358" lon="-0.4901592"><ele>597.0</ele><time>2026-04-05T10:57:10.03Z</time></trkpt><trkpt lat="38.6917146" lon="-0.490256"><ele>597.0</ele><time>2026-04-05T10:57:11.029Z</time></trkpt><trkpt lat="38.6916913" lon="-0.4903523"><ele>597.0</ele><time>2026-04-05T10:57:12.029Z</time></trkpt><trkpt lat="38.6916631" lon="-0.4904423"><ele>597.0</ele><time>2026-04-05T10:57:13.03Z</time></trkpt><trkpt lat="38.6916241" lon="-0.4905858"><ele>597.0</ele><time>2026-04-05T10:57:15.029Z</time></trkpt><trkpt lat="38.6916067" lon="-0.490679"><ele>597.0</ele><time>2026-04-05T10:57:17.03Z</time></trkpt><trkpt lat="38.6915757" lon="-0.4907981"><ele>598.0</ele><time>2026-04-05T10:57:20.03Z</time></trkpt><trkpt lat="38.6915527" lon="-0.4908914"><ele>599.0</ele><time>2026-04-05T10:57:22.03Z</time></trkpt><trkpt lat="38.6915246" lon="-0.4910015"><ele>600.0</ele><time>2026-04-05T10:57:24.03Z</time></trkpt><trkpt lat="38.691488" lon="-0.4911472"><ele>601.0</ele><time>2026-04-05T10:57:26.03Z</time></trkpt><trkpt lat="38.6914659" lon="-0.4912368"><ele>602.0</ele><time>2026-04-05T10:57:27.029Z</time></trkpt><trkpt lat="38.6914404" lon="-0.4913408"><ele>603.0</ele><time>2026-04-05T10:57:28.029Z</time></trkpt><trkpt lat="38.691411" lon="-0.491452"><ele>604.0</ele><time>2026-04-05T10:57:29.03Z</time></trkpt><trkpt lat="38.6913803" lon="-0.4915725"><ele>605.0</ele><time>2026-04-05T10:57:30.029Z</time></trkpt><trkpt lat="38.6913511" lon="-0.4917046"><ele>606.0</ele><time>2026-04-05T10:57:31.029Z</time></trkpt><trkpt lat="38.691323" lon="-0.4918364"><ele>607.0</ele><time>2026-04-05T10:57:32.03Z</time></trkpt><trkpt lat="38.691293" lon="-0.4919677"><ele>608.0</ele><time>2026-04-05T10:57:33.029Z</time></trkpt><trkpt lat="38.691263" lon="-0.4920929"><ele>609.6</ele><time>2026-04-05T10:57:34.029Z</time></trkpt><trkpt lat="38.6912319" lon="-0.492214"><ele>611.1999999999999</ele><time>2026-04-05T10:57:35.029Z</time></trkpt><trkpt lat="38.6911995" lon="-0.492337"><ele>612.8</ele><time>2026-04-05T10:57:36.03Z</time></trkpt><trkpt lat="38.6911696" lon="-0.4924548"><ele>614.4</ele><time>2026-04-05T10:57:37.029Z</time></trkpt><trkpt lat="38.6911407" lon="-0.4925754"><ele>616.0</ele><time>2026-04-05T10:57:38.03Z</time></trkpt><trkpt lat="38.6911131" lon="-0.4926914"><ele>616.0</ele><time>2026-04-05T10:57:39.029Z</time></trkpt><trkpt lat="38.6910864" lon="-0.4928044"><ele>616.0</ele><time>2026-04-05T10:57:40.03Z</time></trkpt><trkpt lat="38.6910645" lon="-0.492901"><ele>616.0</ele><time>2026-04-05T10:57:41.03Z</time></trkpt><trkpt lat="38.6910452" lon="-0.4929874"><ele>616.0</ele><time>2026-04-05T10:57:42.029Z</time></trkpt><trkpt lat="38.6910115" lon="-0.4931364"><ele>616.0</ele><time>2026-04-05T10:57:44.029Z</time></trkpt><trkpt lat="38.6909936" lon="-0.493217"><ele>616.0</ele><time>2026-04-05T10:57:45.03Z</time></trkpt><trkpt lat="38.6909715" lon="-0.4933683"><ele>616.0</ele><time>2026-04-05T10:57:47.029Z</time></trkpt><trkpt lat="38.6909611" lon="-0.4934924"><ele>616.0</ele><time>2026-04-05T10:57:49.03Z</time></trkpt><trkpt lat="38.690979" lon="-0.4936526"><ele>616.0</ele><time>2026-04-05T10:57:51.03Z</time></trkpt><trkpt lat="38.6909951" lon="-0.493738"><ele>616.0</ele><time>2026-04-05T10:57:52.029Z</time></trkpt><trkpt lat="38.6909954" lon="-0.4938267"><ele>616.0</ele><time>2026-04-05T10:57:53.03Z</time></trkpt><trkpt lat="38.6909702" lon="-0.4939118"><ele>616.0</ele><time>2026-04-05T10:57:54.03Z</time></trkpt><trkpt lat="38.6909203" lon="-0.4939856"><ele>617.5</ele><time>2026-04-05T10:57:55.029Z</time></trkpt><trkpt lat="38.6908509" lon="-0.4940387"><ele>619.0</ele><time>2026-04-05T10:57:56.029Z</time></trkpt><trkpt lat="38.6907848" lon="-0.4940829"><ele>620.5</ele><time>2026-04-05T10:57:57.03Z</time></trkpt><trkpt lat="38.6907261" lon="-0.4941461"><ele>622.0</ele><time>2026-04-05T10:57:58.029Z</time></trkpt><trkpt lat="38.6906783" lon="-0.4942288"><ele>623.5</ele><time>2026-04-05T10:57:59.03Z</time></trkpt><trkpt lat="38.6906389" lon="-0.4943197"><ele>625.0</ele><time>2026-04-05T10:58:00.03Z</time></trkpt><trkpt lat="38.6906062" lon="-0.4944082"><ele>625.0</ele><time>2026-04-05T10:58:01.03Z</time></trkpt><trkpt lat="38.6905713" lon="-0.4944985"><ele>625.0</ele><time>2026-04-05T10:58:02.03Z</time></trkpt><trkpt lat="38.6905328" lon="-0.4945933"><ele>625.0</ele><time>2026-04-05T10:58:03.029Z</time></trkpt><trkpt lat="38.6904929" lon="-0.4946875"><ele>625.0</ele><time>2026-04-05T10:58:04.029Z</time></trkpt><trkpt lat="38.690458" lon="-0.4947757"><ele>625.0</ele><time>2026-04-05T10:58:05.029Z</time></trkpt><trkpt lat="38.6904219" lon="-0.4948643"><ele>625.0</ele><time>2026-04-05T10:58:06.03Z</time></trkpt><trkpt lat="38.6903864" lon="-0.4949573"><ele>625.1666666666667</ele><time>2026-04-05T10:58:07.029Z</time></trkpt><trkpt lat="38.6903489" lon="-0.4950609"><ele>625.3333333333334</ele><time>2026-04-05T10:58:08.03Z</time></trkpt><trkpt lat="38.690306" lon="-0.4951619"><ele>625.5</ele><time>2026-04-05T10:58:09.029Z</time></trkpt><trkpt lat="38.6902651" lon="-0.4952591"><ele>625.6666666666666</ele><time>2026-04-05T10:58:10.029Z</time></trkpt><trkpt lat="38.6902195" lon="-0.4953623"><ele>625.8333333333333</ele><time>2026-04-05T10:58:11.029Z</time></trkpt><trkpt lat="38.6901764" lon="-0.4954651"><ele>626.0</ele><time>2026-04-05T10:58:12.03Z</time></trkpt><trkpt lat="38.6901352" lon="-0.4955528"><ele>626.5</ele><time>2026-04-05T10:58:13.03Z</time></trkpt><trkpt lat="38.6900979" lon="-0.4956411"><ele>627.0</ele><time>2026-04-05T10:58:14.029Z</time></trkpt><trkpt lat="38.6900693" lon="-0.4957341"><ele>627.5</ele><time>2026-04-05T10:58:15.029Z</time></trkpt><trkpt lat="38.6900299" lon="-0.4958334"><ele>628.0</ele><time>2026-04-05T10:58:16.03Z</time></trkpt><trkpt lat="38.6899924" lon="-0.4959397"><ele>628.5</ele><time>2026-04-05T10:58:17.029Z</time></trkpt><trkpt lat="38.6899516" lon="-0.496044"><ele>629.0</ele><time>2026-04-05T10:58:18.03Z</time></trkpt><trkpt lat="38.6899147" lon="-0.4961482"><ele>629.0</ele><time>2026-04-05T10:58:19.029Z</time></trkpt><trkpt lat="38.689872" lon="-0.4962485"><ele>629.0</ele><time>2026-04-05T10:58:20.029Z</time></trkpt><trkpt lat="38.6898331" lon="-0.4963443"><ele>629.0</ele><time>2026-04-05T10:58:21.029Z</time></trkpt><trkpt lat="38.6898006" lon="-0.4964409"><ele>629.0</ele><time>2026-04-05T10:58:22.029Z</time></trkpt><trkpt lat="38.6897709" lon="-0.49653"><ele>629.0</ele><time>2026-04-05T10:58:23.03Z</time></trkpt><trkpt lat="38.6897408" lon="-0.4966135"><ele>629.0</ele><time>2026-04-05T10:58:24.03Z</time></trkpt><trkpt lat="38.689709" lon="-0.4966943"><ele>630.1666666666666</ele><time>2026-04-05T10:58:25.029Z</time></trkpt><trkpt lat="38.6896733" lon="-0.4967826"><ele>631.3333333333333</ele><time>2026-04-05T10:58:26.03Z</time></trkpt><trkpt lat="38.6896377" lon="-0.4968768"><ele>632.5</ele><time>2026-04-05T10:58:27.029Z</time></trkpt><trkpt lat="38.6895998" lon="-0.4969688"><ele>633.6666666666666</ele><time>2026-04-05T10:58:28.029Z</time></trkpt><trkpt lat="38.6895639" lon="-0.4970555"><ele>634.8333333333334</ele><time>2026-04-05T10:58:29.03Z</time></trkpt><trkpt lat="38.6895264" lon="-0.4971411"><ele>636.0</ele><time>2026-04-05T10:58:30.03Z</time></trkpt><trkpt lat="38.68949" lon="-0.4972293"><ele>635.8333333333334</ele><time>2026-04-05T10:58:31.029Z</time></trkpt><trkpt lat="38.6894704" lon="-0.4973227"><ele>635.6666666666666</ele><time>2026-04-05T10:58:32.029Z</time></trkpt><trkpt lat="38.6894752" lon="-0.4974264"><ele>635.5</ele><time>2026-04-05T10:58:33.029Z</time></trkpt><trkpt lat="38.6894888" lon="-0.4975318"><ele>635.3333333333333</ele><time>2026-04-05T10:58:34.029Z</time></trkpt><trkpt lat="38.6894854" lon="-0.4976333"><ele>635.1666666666666</ele><time>2026-04-05T10:58:35.03Z</time></trkpt><trkpt lat="38.6894554" lon="-0.4977244"><ele>635.0</ele><time>2026-04-05T10:58:36.03Z</time></trkpt><trkpt lat="38.6893926" lon="-0.4978039"><ele>635.0</ele><time>2026-04-05T10:58:37.03Z</time></trkpt><trkpt lat="38.6893151" lon="-0.4978603"><ele>635.0</ele><time>2026-04-05T10:58:38.03Z</time></trkpt><trkpt lat="38.6892403" lon="-0.4979336"><ele>635.0</ele><time>2026-04-05T10:58:39.029Z</time></trkpt><trkpt lat="38.689175" lon="-0.4980438"><ele>635.0</ele><time>2026-04-05T10:58:40.029Z</time></trkpt><trkpt lat="38.6890997" lon="-0.4982019"><ele>635.0</ele><time>2026-04-05T10:58:41.029Z</time></trkpt><trkpt lat="38.6890175" lon="-0.498419"><ele>637.3333333333333</ele><time>2026-04-05T10:58:42.03Z</time></trkpt><trkpt lat="38.6889406" lon="-0.4986345"><ele>639.6666666666666</ele><time>2026-04-05T10:58:43.029Z</time></trkpt><trkpt lat="38.6888715" lon="-0.4988316"><ele>642.0</ele><time>2026-04-05T10:58:44.03Z</time></trkpt><trkpt lat="38.6888043" lon="-0.4990106"><ele>643.6666666666666</ele><time>2026-04-05T10:58:45.03Z</time></trkpt><trkpt lat="38.6887399" lon="-0.4991884"><ele>645.3333333333333</ele><time>2026-04-05T10:58:46.029Z</time></trkpt><trkpt lat="38.688672" lon="-0.499368"><ele>647.0</ele><time>2026-04-05T10:58:47.029Z</time></trkpt><trkpt lat="38.6886032" lon="-0.4995483"><ele>645.3333333333333</ele><time>2026-04-05T10:58:48.029Z</time></trkpt><trkpt lat="38.6885288" lon="-0.499734"><ele>643.6666666666666</ele><time>2026-04-05T10:58:49.03Z</time></trkpt><trkpt lat="38.6884523" lon="-0.4999288"><ele>642.0</ele><time>2026-04-05T10:58:50.03Z</time></trkpt><trkpt lat="38.6883774" lon="-0.5001204"><ele>642.0</ele><time>2026-04-05T10:58:51.029Z</time></trkpt><trkpt lat="38.688303" lon="-0.5003097"><ele>642.0</ele><time>2026-04-05T10:58:52.029Z</time></trkpt><trkpt lat="38.6882306" lon="-0.5004943"><ele>642.0</ele><time>2026-04-05T10:58:53.03Z</time></trkpt><trkpt lat="38.6881611" lon="-0.5006715"><ele>644.5</ele><time>2026-04-05T10:58:54.03Z</time></trkpt><trkpt lat="38.6880936" lon="-0.5008358"><ele>647.0</ele><time>2026-04-05T10:58:55.03Z</time></trkpt><trkpt lat="38.6880273" lon="-0.5009948"><ele>649.5</ele><time>2026-04-05T10:58:56.03Z</time></trkpt><trkpt lat="38.6879637" lon="-0.5011556"><ele>652.0</ele><time>2026-04-05T10:58:57.03Z</time></trkpt><trkpt lat="38.6878934" lon="-0.5013311"><ele>650.3333333333334</ele><time>2026-04-05T10:58:58.03Z</time></trkpt><trkpt lat="38.6878192" lon="-0.5015195"><ele>648.6666666666666</ele><time>2026-04-05T10:58:59.03Z</time></trkpt><trkpt lat="38.6877449" lon="-0.5017105"><ele>647.0</ele><time>2026-04-05T10:59:00.029Z</time></trkpt><trkpt lat="38.6876765" lon="-0.5018763"><ele>647.0</ele><time>2026-04-05T10:59:01.03Z</time></trkpt><trkpt lat="38.6876124" lon="-0.5020376"><ele>647.0</ele><time>2026-04-05T10:59:02.029Z</time></trkpt><trkpt lat="38.6875513" lon="-0.502196"><ele>647.0</ele><time>2026-04-05T10:59:03.029Z</time></trkpt><trkpt lat="38.6874882" lon="-0.5023571"><ele>647.0</ele><time>2026-04-05T10:59:04.03Z</time></trkpt><trkpt lat="38.6874256" lon="-0.5025173"><ele>652.0</ele><time>2026-04-05T10:59:05.029Z</time></trkpt><trkpt lat="38.687372" lon="-0.5026935"><ele>657.0</ele><time>2026-04-05T10:59:06.029Z</time></trkpt><trkpt lat="38.6873358" lon="-0.5028849"><ele>662.0</ele><time>2026-04-05T10:59:07.029Z</time></trkpt><trkpt lat="38.6873275" lon="-0.5030888"><ele>662.6666666666666</ele><time>2026-04-05T10:59:08.029Z</time></trkpt><trkpt lat="38.6873435" lon="-0.5033021"><ele>663.3333333333334</ele><time>2026-04-05T10:59:09.029Z</time></trkpt><trkpt lat="38.6873916" lon="-0.5035105"><ele>664.0</ele><time>2026-04-05T10:59:10.029Z</time></trkpt><trkpt lat="38.6874691" lon="-0.5037095"><ele>662.0</ele><time>2026-04-05T10:59:11.029Z</time></trkpt><trkpt lat="38.6875708" lon="-0.5038882"><ele>660.0</ele><time>2026-04-05T10:59:12.029Z</time></trkpt><trkpt lat="38.6876828" lon="-0.5040511"><ele>658.0</ele><time>2026-04-05T10:59:13.029Z</time></trkpt><trkpt lat="38.6877993" lon="-0.50421"><ele>672.6666666666667</ele><time>2026-04-05T10:59:14.03Z</time></trkpt><trkpt lat="38.6879165" lon="-0.5043629"><ele>687.3333333333334</ele><time>2026-04-05T10:59:15.03Z</time></trkpt><trkpt lat="38.6880184" lon="-0.5045214"><ele>702.0</ele><time>2026-04-05T10:59:16.03Z</time></trkpt><trkpt lat="38.6881064" lon="-0.5046784"><ele>702.0</ele><time>2026-04-05T10:59:17.03Z</time></trkpt><trkpt lat="38.6881775" lon="-0.5048463"><ele>702.0</ele><time>2026-04-05T10:59:18.029Z</time></trkpt><trkpt lat="38.6882413" lon="-0.5050189"><ele>702.0</ele><time>2026-04-05T10:59:19.029Z</time></trkpt><trkpt lat="38.6882691" lon="-0.5052102"><ele>702.0</ele><time>2026-04-05T10:59:20.029Z</time></trkpt><trkpt lat="38.688291" lon="-0.5054039"><ele>702.0</ele><time>2026-04-05T10:59:21.029Z</time></trkpt><trkpt lat="38.6883061" lon="-0.5055872"><ele>702.0</ele><time>2026-04-05T10:59:22.03Z</time></trkpt><trkpt lat="38.6883116" lon="-0.5057655"><ele>702.0</ele><time>2026-04-05T10:59:23.029Z</time></trkpt><trkpt lat="38.6883239" lon="-0.5059395"><ele>700.75</ele><time>2026-04-05T10:59:24.03Z</time></trkpt><trkpt lat="38.6883355" lon="-0.5061202"><ele>699.5</ele><time>2026-04-05T10:59:25.029Z</time></trkpt><trkpt lat="38.6883524" lon="-0.5062976"><ele>698.25</ele><time>2026-04-05T10:59:26.029Z</time></trkpt><trkpt lat="38.6883667" lon="-0.506469"><ele>697.0</ele><time>2026-04-05T10:59:27.029Z</time></trkpt><trkpt lat="38.6883871" lon="-0.5066427"><ele>694.25</ele><time>2026-04-05T10:59:28.029Z</time></trkpt><trkpt lat="38.6884125" lon="-0.5068181"><ele>691.5</ele><time>2026-04-05T10:59:29.029Z</time></trkpt><trkpt lat="38.6884432" lon="-0.5069919"><ele>688.75</ele><time>2026-04-05T10:59:30.029Z</time></trkpt><trkpt lat="38.688481" lon="-0.507167"><ele>686.0</ele><time>2026-04-05T10:59:31.029Z</time></trkpt><trkpt lat="38.6885329" lon="-0.5073345"><ele>695.25</ele><time>2026-04-05T10:59:32.03Z</time></trkpt><trkpt lat="38.6885988" lon="-0.5074865"><ele>704.5</ele><time>2026-04-05T10:59:33.029Z</time></trkpt><trkpt lat="38.6886719" lon="-0.5076292"><ele>713.75</ele><time>2026-04-05T10:59:34.029Z</time></trkpt><trkpt lat="38.6887502" lon="-0.5077713"><ele>723.0</ele><time>2026-04-05T10:59:35.029Z</time></trkpt><trkpt lat="38.6888375" lon="-0.507909"><ele>722.0</ele><time>2026-04-05T10:59:36.029Z</time></trkpt><trkpt lat="38.6889206" lon="-0.5080572"><ele>721.0</ele><time>2026-04-05T10:59:37.03Z</time></trkpt><trkpt lat="38.6889964" lon="-0.5082186"><ele>720.0</ele><time>2026-04-05T10:59:38.029Z</time></trkpt><trkpt lat="38.6890609" lon="-0.5083859"><ele>719.0</ele><time>2026-04-05T10:59:39.03Z</time></trkpt><trkpt lat="38.6891076" lon="-0.5085611"><ele>719.0</ele><time>2026-04-05T10:59:40.03Z</time></trkpt><trkpt lat="38.6891483" lon="-0.5087299"><ele>719.0</ele><time>2026-04-05T10:59:41.029Z</time></trkpt><trkpt lat="38.6891744" lon="-0.5088972"><ele>719.0</ele><time>2026-04-05T10:59:42.03Z</time></trkpt><trkpt lat="38.6891752" lon="-0.5090545"><ele>719.0</ele><time>2026-04-05T10:59:43.03Z</time></trkpt><trkpt lat="38.6891601" lon="-0.509197"><ele>737.0</ele><time>2026-04-05T10:59:44.03Z</time></trkpt><trkpt lat="38.6874684" lon="-0.5122647"><ele>737.0</ele><time>2026-04-05T11:00:01.029Z</time></trkpt><trkpt lat="38.6873255" lon="-0.5124482"><ele>737.0</ele><time>2026-04-05T11:00:02.032Z</time></trkpt><trkpt lat="38.6872917" lon="-0.5126509"><ele>737.0</ele><time>2026-04-05T11:00:03.03Z</time></trkpt><trkpt lat="38.6872627" lon="-0.512842"><ele>737.3333333333333</ele><time>2026-04-05T11:00:04.03Z</time></trkpt><trkpt lat="38.6872431" lon="-0.5130554"><ele>737.6666666666666</ele><time>2026-04-05T11:00:05.031Z</time></trkpt><trkpt lat="38.6872382" lon="-0.5132521"><ele>738.0</ele><time>2026-04-05T11:00:06.031Z</time></trkpt><trkpt lat="38.6872478" lon="-0.513446"><ele>738.0</ele><time>2026-04-05T11:00:07.03Z</time></trkpt><trkpt lat="38.687273" lon="-0.5136525"><ele>738.0</ele><time>2026-04-05T11:00:08.03Z</time></trkpt><trkpt lat="38.6873113" lon="-0.513859"><ele>738.0</ele><time>2026-04-05T11:00:09.03Z</time></trkpt><trkpt lat="38.6873575" lon="-0.5140497"><ele>738.0</ele><time>2026-04-05T11:00:10.031Z</time></trkpt><trkpt lat="38.6874102" lon="-0.5142354"><ele>738.0</ele><time>2026-04-05T11:00:11.031Z</time></trkpt><trkpt lat="38.6874673" lon="-0.514411"><ele>738.0</ele><time>2026-04-05T11:00:12.031Z</time></trkpt><trkpt lat="38.6875296" lon="-0.514585"><ele>738.25</ele><time>2026-04-05T11:00:13.03Z</time></trkpt><trkpt lat="38.6875899" lon="-0.5147561"><ele>738.5</ele><time>2026-04-05T11:00:14.03Z</time></trkpt><trkpt lat="38.6876511" lon="-0.5149279"><ele>738.75</ele><time>2026-04-05T11:00:15.031Z</time></trkpt><trkpt lat="38.6877109" lon="-0.5150931"><ele>739.0</ele><time>2026-04-05T11:00:16.031Z</time></trkpt><trkpt lat="38.6877701" lon="-0.5152436"><ele>738.75</ele><time>2026-04-05T11:00:17.03Z</time></trkpt><trkpt lat="38.6878343" lon="-0.515379"><ele>738.5</ele><time>2026-04-05T11:00:18.031Z</time></trkpt><trkpt lat="38.6879091" lon="-0.5155114"><ele>738.25</ele><time>2026-04-05T11:00:19.031Z</time></trkpt><trkpt lat="38.6880068" lon="-0.5156405"><ele>738.0</ele><time>2026-04-05T11:00:20.03Z</time></trkpt><trkpt lat="38.6881208" lon="-0.5157593"><ele>738.0</ele><time>2026-04-05T11:00:21.031Z</time></trkpt><trkpt lat="38.688256" lon="-0.5158684"><ele>738.0</ele><time>2026-04-05T11:00:22.03Z</time></trkpt><trkpt lat="38.6884097" lon="-0.5159488"><ele>738.0</ele><time>2026-04-05T11:00:23.03Z</time></trkpt><trkpt lat="38.6885709" lon="-0.515997"><ele>739.3333333333334</ele><time>2026-04-05T11:00:24.031Z</time></trkpt><trkpt lat="38.6887317" lon="-0.5160184"><ele>740.6666666666667</ele><time>2026-04-05T11:00:25.031Z</time></trkpt><trkpt lat="38.6888948" lon="-0.5160333"><ele>742.0</ele><time>2026-04-05T11:00:26.03Z</time></trkpt><trkpt lat="38.6890578" lon="-0.5160502"><ele>742.0</ele><time>2026-04-05T11:00:27.03Z</time></trkpt><trkpt lat="38.6892198" lon="-0.5160698"><ele>742.0</ele><time>2026-04-05T11:00:28.031Z</time></trkpt><trkpt lat="38.6893841" lon="-0.5160991"><ele>742.0</ele><time>2026-04-05T11:00:29.03Z</time></trkpt><trkpt lat="38.6895482" lon="-0.5161406"><ele>742.6666666666667</ele><time>2026-04-05T11:00:30.03Z</time></trkpt><trkpt lat="38.689711" lon="-0.5162132"><ele>743.3333333333334</ele><time>2026-04-05T11:00:31.03Z</time></trkpt><trkpt lat="38.689869" lon="-0.5163179"><ele>744.0</ele><time>2026-04-05T11:00:32.03Z</time></trkpt><trkpt lat="38.6900094" lon="-0.5164569"><ele>743.6666666666666</ele><time>2026-04-05T11:00:33.031Z</time></trkpt><trkpt lat="38.6901365" lon="-0.5166314"><ele>743.3333333333333</ele><time>2026-04-05T11:00:34.031Z</time></trkpt><trkpt lat="38.6902396" lon="-0.5168294"><ele>743.0</ele><time>2026-04-05T11:00:35.03Z</time></trkpt><trkpt lat="38.6903182" lon="-0.5170435"><ele>741.6666666666666</ele><time>2026-04-05T11:00:36.031Z</time></trkpt><trkpt lat="38.6903751" lon="-0.5172685"><ele>740.3333333333334</ele><time>2026-04-05T11:00:37.03Z</time></trkpt><trkpt lat="38.6904142" lon="-0.517497"><ele>739.0</ele><time>2026-04-05T11:00:38.03Z</time></trkpt><trkpt lat="38.690449" lon="-0.5177218"><ele>739.3333333333334</ele><time>2026-04-05T11:00:39.03Z</time></trkpt><trkpt lat="38.690488" lon="-0.5179278"><ele>739.6666666666666</ele><time>2026-04-05T11:00:40.03Z</time></trkpt><trkpt lat="38.6905303" lon="-0.5181345"><ele>740.0</ele><time>2026-04-05T11:00:41.03Z</time></trkpt><trkpt lat="38.6905807" lon="-0.5183237"><ele>740.0</ele><time>2026-04-05T11:00:42.03Z</time></trkpt><trkpt lat="38.6906444" lon="-0.5185101"><ele>740.0</ele><time>2026-04-05T11:00:43.03Z</time></trkpt><trkpt lat="38.6907271" lon="-0.5186967"><ele>740.0</ele><time>2026-04-05T11:00:44.03Z</time></trkpt><trkpt lat="38.6908145" lon="-0.5188817"><ele>740.6666666666666</ele><time>2026-04-05T11:00:45.031Z</time></trkpt><trkpt lat="38.6909185" lon="-0.5190773"><ele>741.3333333333334</ele><time>2026-04-05T11:00:46.031Z</time></trkpt><trkpt lat="38.6910274" lon="-0.5192328"><ele>742.0</ele><time>2026-04-05T11:00:47.031Z</time></trkpt><trkpt lat="38.6912308" lon="-0.5193191"><ele>742.0</ele><time>2026-04-05T11:00:48.03Z</time></trkpt><trkpt lat="38.6913837" lon="-0.5194443"><ele>742.0</ele><time>2026-04-05T11:00:49.03Z</time></trkpt><trkpt lat="38.6915242" lon="-0.5195904"><ele>742.0</ele><time>2026-04-05T11:00:50.03Z</time></trkpt><trkpt lat="38.6916915" lon="-0.5197423"><ele>742.3333333333334</ele><time>2026-04-05T11:00:51.03Z</time></trkpt><trkpt lat="38.6918257" lon="-0.5199234"><ele>742.6666666666666</ele><time>2026-04-05T11:00:52.03Z</time></trkpt><trkpt lat="38.6919458" lon="-0.5201227"><ele>743.0</ele><time>2026-04-05T11:00:53.03Z</time></trkpt><trkpt lat="38.6920534" lon="-0.5203266"><ele>746.0</ele><time>2026-04-05T11:00:54.03Z</time></trkpt><trkpt lat="38.6921097" lon="-0.5206145"><ele>749.0</ele><time>2026-04-05T11:00:55.03Z</time></trkpt><trkpt lat="38.6921503" lon="-0.5208838"><ele>752.0</ele><time>2026-04-05T11:00:56.031Z</time></trkpt><trkpt lat="38.6921842" lon="-0.5211539"><ele>751.3333333333333</ele><time>2026-04-05T11:00:57.03Z</time></trkpt><trkpt lat="38.6922153" lon="-0.5214061"><ele>750.6666666666666</ele><time>2026-04-05T11:00:58.03Z</time></trkpt><trkpt lat="38.692251" lon="-0.521645"><ele>750.0</ele><time>2026-04-05T11:00:59.03Z</time></trkpt><trkpt lat="38.692297" lon="-0.5218804"><ele>749.0</ele><time>2026-04-05T11:01:00.03Z</time></trkpt><trkpt lat="38.6923433" lon="-0.5221208"><ele>748.0</ele><time>2026-04-05T11:01:01.031Z</time></trkpt><trkpt lat="38.6924274" lon="-0.522362"><ele>747.0</ele><time>2026-04-05T11:01:02.031Z</time></trkpt><trkpt lat="38.6925078" lon="-0.5225877"><ele>747.0</ele><time>2026-04-05T11:01:03.031Z</time></trkpt><trkpt lat="38.692597" lon="-0.5228233"><ele>747.0</ele><time>2026-04-05T11:01:04.03Z</time></trkpt><trkpt lat="38.6926941" lon="-0.5230451"><ele>747.0</ele><time>2026-04-05T11:01:05.03Z</time></trkpt><trkpt lat="38.6927828" lon="-0.5232665"><ele>748.6666666666666</ele><time>2026-04-05T11:01:06.03Z</time></trkpt><trkpt lat="38.6928759" lon="-0.5234943"><ele>750.3333333333333</ele><time>2026-04-05T11:01:07.03Z</time></trkpt><trkpt lat="38.6929677" lon="-0.5237061"><ele>752.0</ele><time>2026-04-05T11:01:08.03Z</time></trkpt><trkpt lat="38.6930664" lon="-0.5239321"><ele>752.0</ele><time>2026-04-05T11:01:09.03Z</time></trkpt><trkpt lat="38.6931658" lon="-0.5241517"><ele>752.0</ele><time>2026-04-05T11:01:10.03Z</time></trkpt><trkpt lat="38.6932688" lon="-0.524363"><ele>752.0</ele><time>2026-04-05T11:01:11.031Z</time></trkpt><trkpt lat="38.6933717" lon="-0.524586"><ele>752.3333333333333</ele><time>2026-04-05T11:01:12.031Z</time></trkpt><trkpt lat="38.6934728" lon="-0.5247967"><ele>752.6666666666666</ele><time>2026-04-05T11:01:13.031Z</time></trkpt><trkpt lat="38.6935752" lon="-0.5250072"><ele>753.0</ele><time>2026-04-05T11:01:14.03Z</time></trkpt><trkpt lat="38.6936817" lon="-0.5252282"><ele>753.6666666666666</ele><time>2026-04-05T11:01:15.031Z</time></trkpt><trkpt lat="38.6937917" lon="-0.5254497"><ele>754.3333333333333</ele><time>2026-04-05T11:01:16.031Z</time></trkpt><trkpt lat="38.6939044" lon="-0.5256762"><ele>755.0</ele><time>2026-04-05T11:01:17.03Z</time></trkpt><trkpt lat="38.6940127" lon="-0.525912"><ele>755.0</ele><time>2026-04-05T11:01:18.031Z</time></trkpt><trkpt lat="38.6941159" lon="-0.5261532"><ele>755.0</ele><time>2026-04-05T11:01:19.03Z</time></trkpt><trkpt lat="38.6942012" lon="-0.5264029"><ele>755.0</ele><time>2026-04-05T11:01:20.03Z</time></trkpt><trkpt lat="38.6942715" lon="-0.5266692"><ele>755.0</ele><time>2026-04-05T11:01:21.031Z</time></trkpt><trkpt lat="38.694327" lon="-0.5269419"><ele>755.0</ele><time>2026-04-05T11:01:22.031Z</time></trkpt><trkpt lat="38.6943653" lon="-0.5272125"><ele>755.0</ele><time>2026-04-05T11:01:23.03Z</time></trkpt><trkpt lat="38.6943935" lon="-0.5274891"><ele>755.0</ele><time>2026-04-05T11:01:24.031Z</time></trkpt><trkpt lat="38.6944205" lon="-0.5277767"><ele>755.0</ele><time>2026-04-05T11:01:25.03Z</time></trkpt><trkpt lat="38.6944464" lon="-0.5280653"><ele>754.5</ele><time>2026-04-05T11:01:26.03Z</time></trkpt><trkpt lat="38.6944714" lon="-0.5283564"><ele>754.0</ele><time>2026-04-05T11:01:27.03Z</time></trkpt><trkpt lat="38.6945004" lon="-0.5286452"><ele>756.0</ele><time>2026-04-05T11:01:28.031Z</time></trkpt><trkpt lat="38.6945252" lon="-0.5289388"><ele>758.0</ele><time>2026-04-05T11:01:29.03Z</time></trkpt><trkpt lat="38.6945526" lon="-0.5292211"><ele>758.0</ele><time>2026-04-05T11:01:30.03Z</time></trkpt><trkpt lat="38.6945814" lon="-0.5294919"><ele>758.0</ele><time>2026-04-05T11:01:31.031Z</time></trkpt><trkpt lat="38.6946223" lon="-0.5297458"><ele>758.0</ele><time>2026-04-05T11:01:32.03Z</time></trkpt><trkpt lat="38.694676" lon="-0.529986"><ele>759.0</ele><time>2026-04-05T11:01:33.03Z</time></trkpt><trkpt lat="38.6947421" lon="-0.5302172"><ele>760.0</ele><time>2026-04-05T11:01:34.03Z</time></trkpt><trkpt lat="38.6948227" lon="-0.5304478"><ele>761.0</ele><time>2026-04-05T11:01:35.03Z</time></trkpt><trkpt lat="38.6949142" lon="-0.5306818"><ele>761.0</ele><time>2026-04-05T11:01:36.031Z</time></trkpt><trkpt lat="38.6950092" lon="-0.5309227"><ele>761.0</ele><time>2026-04-05T11:01:37.031Z</time></trkpt><trkpt lat="38.695107" lon="-0.5311648"><ele>761.0</ele><time>2026-04-05T11:01:38.031Z</time></trkpt><trkpt lat="38.6952059" lon="-0.5314139"><ele>760.3333333333333</ele><time>2026-04-05T11:01:39.031Z</time></trkpt><trkpt lat="38.6953044" lon="-0.5316648"><ele>759.6666666666666</ele><time>2026-04-05T11:01:40.031Z</time></trkpt><trkpt lat="38.6954041" lon="-0.5319236"><ele>759.0</ele><time>2026-04-05T11:01:41.03Z</time></trkpt><trkpt lat="38.6954968" lon="-0.5321936"><ele>757.5</ele><time>2026-04-05T11:01:42.03Z</time></trkpt><trkpt lat="38.6955691" lon="-0.5324836"><ele>756.0</ele><time>2026-04-05T11:01:43.03Z</time></trkpt><trkpt lat="38.6956156" lon="-0.5327897"><ele>755.5</ele><time>2026-04-05T11:01:44.03Z</time></trkpt><trkpt lat="38.695636" lon="-0.5331055"><ele>755.0</ele><time>2026-04-05T11:01:45.03Z</time></trkpt><trkpt lat="38.6956361" lon="-0.5334192"><ele>754.0</ele><time>2026-04-05T11:01:46.03Z</time></trkpt><trkpt lat="38.6956247" lon="-0.5337268"><ele>753.0</ele><time>2026-04-05T11:01:47.031Z</time></trkpt><trkpt lat="38.6956094" lon="-0.5340407"><ele>753.0</ele><time>2026-04-05T11:01:48.031Z</time></trkpt><trkpt lat="38.6955917" lon="-0.5343557"><ele>753.0</ele><time>2026-04-05T11:01:49.031Z</time></trkpt><trkpt lat="38.6955774" lon="-0.5346576"><ele>751.5</ele><time>2026-04-05T11:01:50.031Z</time></trkpt><trkpt lat="38.6955628" lon="-0.5349557"><ele>750.0</ele><time>2026-04-05T11:01:51.03Z</time></trkpt><trkpt lat="38.69555" lon="-0.5352546"><ele>750.0</ele><time>2026-04-05T11:01:52.03Z</time></trkpt><trkpt lat="38.6955338" lon="-0.535549"><ele>750.0</ele><time>2026-04-05T11:01:53.03Z</time></trkpt><trkpt lat="38.6955177" lon="-0.5358458"><ele>750.0</ele><time>2026-04-05T11:01:54.031Z</time></trkpt><trkpt lat="38.6955008" lon="-0.5361414"><ele>750.0</ele><time>2026-04-05T11:01:55.03Z</time></trkpt><trkpt lat="38.6954803" lon="-0.5364337"><ele>749.5</ele><time>2026-04-05T11:01:56.03Z</time></trkpt><trkpt lat="38.6954555" lon="-0.5367175"><ele>749.0</ele><time>2026-04-05T11:01:57.03Z</time></trkpt><trkpt lat="38.6954174" lon="-0.5370038"><ele>748.6666666666666</ele><time>2026-04-05T11:01:58.03Z</time></trkpt><trkpt lat="38.6953691" lon="-0.5372784"><ele>748.3333333333334</ele><time>2026-04-05T11:01:59.031Z</time></trkpt><trkpt lat="38.6953147" lon="-0.5375541"><ele>748.0</ele><time>2026-04-05T11:02:00.03Z</time></trkpt><trkpt lat="38.6952607" lon="-0.5378276"><ele>745.0</ele><time>2026-04-05T11:02:01.03Z</time></trkpt><trkpt lat="38.6952049" lon="-0.5381042"><ele>742.0</ele><time>2026-04-05T11:02:02.03Z</time></trkpt><trkpt lat="38.6951361" lon="-0.5383836"><ele>742.0</ele><time>2026-04-05T11:02:03.031Z</time></trkpt><trkpt lat="38.6950467" lon="-0.5386611"><ele>742.0</ele><time>2026-04-05T11:02:04.03Z</time></trkpt><trkpt lat="38.6949388" lon="-0.5389269"><ele>742.0</ele><time>2026-04-05T11:02:05.031Z</time></trkpt><trkpt lat="38.6948214" lon="-0.5391786"><ele>742.0</ele><time>2026-04-05T11:02:06.03Z</time></trkpt><trkpt lat="38.6947064" lon="-0.5394131"><ele>742.0</ele><time>2026-04-05T11:02:07.03Z</time></trkpt><trkpt lat="38.6945973" lon="-0.5396452"><ele>742.0</ele><time>2026-04-05T11:02:08.03Z</time></trkpt><trkpt lat="38.6944898" lon="-0.5398875"><ele>742.0</ele><time>2026-04-05T11:02:09.03Z</time></trkpt><trkpt lat="38.6943817" lon="-0.5401223"><ele>742.0</ele><time>2026-04-05T11:02:10.031Z</time></trkpt><trkpt lat="38.6942735" lon="-0.5403534"><ele>741.3333333333334</ele><time>2026-04-05T11:02:11.031Z</time></trkpt><trkpt lat="38.6941696" lon="-0.5405876"><ele>740.6666666666666</ele><time>2026-04-05T11:02:12.031Z</time></trkpt><trkpt lat="38.6940766" lon="-0.5408283"><ele>740.0</ele><time>2026-04-05T11:02:13.031Z</time></trkpt><trkpt lat="38.6939908" lon="-0.5410716"><ele>740.6666666666666</ele><time>2026-04-05T11:02:14.031Z</time></trkpt><trkpt lat="38.6939045" lon="-0.5413124"><ele>741.3333333333334</ele><time>2026-04-05T11:02:15.03Z</time></trkpt><trkpt lat="38.6938192" lon="-0.5415583"><ele>742.0</ele><time>2026-04-05T11:02:16.03Z</time></trkpt><trkpt lat="38.6937312" lon="-0.5418046"><ele>741.6666666666667</ele><time>2026-04-05T11:02:17.031Z</time></trkpt><trkpt lat="38.6936404" lon="-0.5420547"><ele>741.3333333333334</ele><time>2026-04-05T11:02:18.03Z</time></trkpt><trkpt lat="38.6935509" lon="-0.5423013"><ele>741.0</ele><time>2026-04-05T11:02:19.031Z</time></trkpt><trkpt lat="38.6934654" lon="-0.5425436"><ele>741.0</ele><time>2026-04-05T11:02:20.031Z</time></trkpt><trkpt lat="38.6933849" lon="-0.5427755"><ele>741.0</ele><time>2026-04-05T11:02:21.03Z</time></trkpt><trkpt lat="38.6933096" lon="-0.543016"><ele>741.0</ele><time>2026-04-05T11:02:22.031Z</time></trkpt><trkpt lat="38.6932498" lon="-0.5432712"><ele>741.6666666666666</ele><time>2026-04-05T11:02:23.03Z</time></trkpt><trkpt lat="38.693209" lon="-0.5435303"><ele>742.3333333333333</ele><time>2026-04-05T11:02:24.031Z</time></trkpt><trkpt lat="38.6931751" lon="-0.5437883"><ele>743.0</ele><time>2026-04-05T11:02:25.03Z</time></trkpt><trkpt lat="38.6931338" lon="-0.5440459"><ele>743.0</ele><time>2026-04-05T11:02:26.03Z</time></trkpt><trkpt lat="38.6930715" lon="-0.5443036"><ele>743.0</ele><time>2026-04-05T11:02:27.031Z</time></trkpt><trkpt lat="38.6929909" lon="-0.5445516"><ele>743.0</ele><time>2026-04-05T11:02:28.031Z</time></trkpt><trkpt lat="38.6928922" lon="-0.5447927"><ele>742.6666666666666</ele><time>2026-04-05T11:02:29.03Z</time></trkpt><trkpt lat="38.692791" lon="-0.5450186"><ele>742.3333333333334</ele><time>2026-04-05T11:02:30.03Z</time></trkpt><trkpt lat="38.6926959" lon="-0.5452399"><ele>742.0</ele><time>2026-04-05T11:02:31.031Z</time></trkpt><trkpt lat="38.6926042" lon="-0.5454528"><ele>741.3333333333334</ele><time>2026-04-05T11:02:32.03Z</time></trkpt><trkpt lat="38.6925134" lon="-0.5456624"><ele>740.6666666666666</ele><time>2026-04-05T11:02:33.03Z</time></trkpt><trkpt lat="38.6924126" lon="-0.5458799"><ele>740.0</ele><time>2026-04-05T11:02:34.03Z</time></trkpt><trkpt lat="38.6923156" lon="-0.5461063"><ele>740.0</ele><time>2026-04-05T11:02:35.03Z</time></trkpt><trkpt lat="38.6922197" lon="-0.5463341"><ele>740.0</ele><time>2026-04-05T11:02:36.031Z</time></trkpt><trkpt lat="38.6921226" lon="-0.5465602"><ele>740.0</ele><time>2026-04-05T11:02:37.031Z</time></trkpt><trkpt lat="38.6920255" lon="-0.5467777"><ele>740.0</ele><time>2026-04-05T11:02:38.031Z</time></trkpt><trkpt lat="38.6919351" lon="-0.5469862"><ele>740.0</ele><time>2026-04-05T11:02:39.031Z</time></trkpt><trkpt lat="38.6918474" lon="-0.5471913"><ele>740.0</ele><time>2026-04-05T11:02:40.03Z</time></trkpt><trkpt lat="38.6917612" lon="-0.547401"><ele>739.6666666666666</ele><time>2026-04-05T11:02:41.03Z</time></trkpt><trkpt lat="38.6916663" lon="-0.5476135"><ele>739.3333333333334</ele><time>2026-04-05T11:02:42.03Z</time></trkpt><trkpt lat="38.6915671" lon="-0.5478241"><ele>739.0</ele><time>2026-04-05T11:02:43.031Z</time></trkpt><trkpt lat="38.6914457" lon="-0.5480273"><ele>739.0</ele><time>2026-04-05T11:02:44.03Z</time></trkpt><trkpt lat="38.6913156" lon="-0.5482194"><ele>739.0</ele><time>2026-04-05T11:02:45.031Z</time></trkpt><trkpt lat="38.6911823" lon="-0.548412"><ele>739.0</ele><time>2026-04-05T11:02:46.03Z</time></trkpt><trkpt lat="38.6910501" lon="-0.5486008"><ele>738.3333333333334</ele><time>2026-04-05T11:02:47.031Z</time></trkpt><trkpt lat="38.6909262" lon="-0.5487883"><ele>737.6666666666666</ele><time>2026-04-05T11:02:48.03Z</time></trkpt><trkpt lat="38.6908019" lon="-0.5489709"><ele>737.0</ele><time>2026-04-05T11:02:49.03Z</time></trkpt><trkpt lat="38.6906789" lon="-0.5491477"><ele>737.0</ele><time>2026-04-05T11:02:50.03Z</time></trkpt><trkpt lat="38.6905583" lon="-0.5493138"><ele>737.0</ele><time>2026-04-05T11:02:51.03Z</time></trkpt><trkpt lat="38.6904489" lon="-0.5494754"><ele>737.0</ele><time>2026-04-05T11:02:52.031Z</time></trkpt><trkpt lat="38.6903431" lon="-0.5496514"><ele>736.3333333333333</ele><time>2026-04-05T11:02:53.031Z</time></trkpt><trkpt lat="38.6902441" lon="-0.5498419"><ele>735.6666666666666</ele><time>2026-04-05T11:02:54.03Z</time></trkpt><trkpt lat="38.6901446" lon="-0.5500519"><ele>735.0</ele><time>2026-04-05T11:02:55.03Z</time></trkpt><trkpt lat="38.690047" lon="-0.550272"><ele>735.3333333333334</ele><time>2026-04-05T11:02:56.031Z</time></trkpt><trkpt lat="38.6899537" lon="-0.5505034"><ele>735.6666666666667</ele><time>2026-04-05T11:02:57.031Z</time></trkpt><trkpt lat="38.6898642" lon="-0.5507386"><ele>736.0</ele><time>2026-04-05T11:02:58.03Z</time></trkpt><trkpt lat="38.6897755" lon="-0.5509804"><ele>736.3333333333334</ele><time>2026-04-05T11:02:59.031Z</time></trkpt><trkpt lat="38.6896813" lon="-0.5512195"><ele>736.6666666666666</ele><time>2026-04-05T11:03:00.031Z</time></trkpt><trkpt lat="38.6895912" lon="-0.551464"><ele>737.0</ele><time>2026-04-05T11:03:01.03Z</time></trkpt><trkpt lat="38.6894971" lon="-0.551705"><ele>736.6666666666666</ele><time>2026-04-05T11:03:02.031Z</time></trkpt><trkpt lat="38.689412" lon="-0.551942"><ele>736.3333333333334</ele><time>2026-04-05T11:03:03.031Z</time></trkpt><trkpt lat="38.6893285" lon="-0.5521666"><ele>736.0</ele><time>2026-04-05T11:03:04.031Z</time></trkpt><trkpt lat="38.6892497" lon="-0.5523771"><ele>737.0</ele><time>2026-04-05T11:03:05.03Z</time></trkpt><trkpt lat="38.6891753" lon="-0.5525781"><ele>738.0</ele><time>2026-04-05T11:03:06.03Z</time></trkpt><trkpt lat="38.6891028" lon="-0.5527822"><ele>739.0</ele><time>2026-04-05T11:03:07.03Z</time></trkpt><trkpt lat="38.6890331" lon="-0.5529847"><ele>739.6666666666667</ele><time>2026-04-05T11:03:08.031Z</time></trkpt><trkpt lat="38.6889608" lon="-0.5531888"><ele>740.3333333333334</ele><time>2026-04-05T11:03:09.03Z</time></trkpt><trkpt lat="38.6888856" lon="-0.55339"><ele>741.0</ele><time>2026-04-05T11:03:10.03Z</time></trkpt><trkpt lat="38.6888075" lon="-0.5536039"><ele>741.3333333333334</ele><time>2026-04-05T11:03:11.031Z</time></trkpt><trkpt lat="38.6887309" lon="-0.5538227"><ele>741.6666666666667</ele><time>2026-04-05T11:03:12.03Z</time></trkpt><trkpt lat="38.6886607" lon="-0.5540408"><ele>742.0</ele><time>2026-04-05T11:03:13.031Z</time></trkpt><trkpt lat="38.6885822" lon="-0.5542633"><ele>742.6666666666667</ele><time>2026-04-05T11:03:14.031Z</time></trkpt><trkpt lat="38.6885068" lon="-0.5544818"><ele>743.3333333333334</ele><time>2026-04-05T11:03:15.03Z</time></trkpt><trkpt lat="38.6884296" lon="-0.5546975"><ele>744.0</ele><time>2026-04-05T11:03:16.031Z</time></trkpt><trkpt lat="38.6883548" lon="-0.5549114"><ele>744.0</ele><time>2026-04-05T11:03:17.03Z</time></trkpt><trkpt lat="38.6882812" lon="-0.5551294"><ele>744.0</ele><time>2026-04-05T11:03:18.031Z</time></trkpt><trkpt lat="38.6882061" lon="-0.555346"><ele>744.0</ele><time>2026-04-05T11:03:19.031Z</time></trkpt><trkpt lat="38.6881423" lon="-0.5555723"><ele>745.0</ele><time>2026-04-05T11:03:20.03Z</time></trkpt><trkpt lat="38.6880925" lon="-0.5558119"><ele>746.0</ele><time>2026-04-05T11:03:21.03Z</time></trkpt><trkpt lat="38.6880604" lon="-0.5560664"><ele>747.0</ele><time>2026-04-05T11:03:22.03Z</time></trkpt><trkpt lat="38.6880528" lon="-0.5563261"><ele>748.0</ele><time>2026-04-05T11:03:23.031Z</time></trkpt><trkpt lat="38.6880554" lon="-0.5565874"><ele>749.0</ele><time>2026-04-05T11:03:24.03Z</time></trkpt><trkpt lat="38.6880641" lon="-0.5568466"><ele>750.0</ele><time>2026-04-05T11:03:25.031Z</time></trkpt><trkpt lat="38.6880687" lon="-0.5571082"><ele>751.3333333333334</ele><time>2026-04-05T11:03:26.03Z</time></trkpt><trkpt lat="38.6880716" lon="-0.5573668"><ele>752.6666666666667</ele><time>2026-04-05T11:03:27.031Z</time></trkpt><trkpt lat="38.6880893" lon="-0.5576239"><ele>754.0</ele><time>2026-04-05T11:03:28.031Z</time></trkpt><trkpt lat="38.688089" lon="-0.5578747"><ele>755.3333333333334</ele><time>2026-04-05T11:03:29.03Z</time></trkpt><trkpt lat="38.6880946" lon="-0.5581234"><ele>756.6666666666666</ele><time>2026-04-05T11:03:30.03Z</time></trkpt><trkpt lat="38.6881082" lon="-0.5583643"><ele>758.0</ele><time>2026-04-05T11:03:31.03Z</time></trkpt><trkpt lat="38.6881195" lon="-0.5585931"><ele>759.0</ele><time>2026-04-05T11:03:32.03Z</time></trkpt><trkpt lat="38.6881299" lon="-0.5588315"><ele>760.0</ele><time>2026-04-05T11:03:33.031Z</time></trkpt><trkpt lat="38.6881253" lon="-0.5590722"><ele>761.0</ele><time>2026-04-05T11:03:34.03Z</time></trkpt><trkpt lat="38.6881431" lon="-0.5593031"><ele>762.3333333333333</ele><time>2026-04-05T11:03:35.031Z</time></trkpt><trkpt lat="38.6881734" lon="-0.559541"><ele>763.6666666666666</ele><time>2026-04-05T11:03:36.03Z</time></trkpt><trkpt lat="38.6882235" lon="-0.5597706"><ele>765.0</ele><time>2026-04-05T11:03:37.03Z</time></trkpt><trkpt lat="38.6882916" lon="-0.5600032"><ele>765.0</ele><time>2026-04-05T11:03:38.03Z</time></trkpt><trkpt lat="38.6883564" lon="-0.560226"><ele>765.0</ele><time>2026-04-05T11:03:39.031Z</time></trkpt><trkpt lat="38.6884362" lon="-0.560444"><ele>765.0</ele><time>2026-04-05T11:03:40.03Z</time></trkpt><trkpt lat="38.6884914" lon="-0.5606639"><ele>765.6666666666666</ele><time>2026-04-05T11:03:41.03Z</time></trkpt><trkpt lat="38.6885316" lon="-0.5608872"><ele>766.3333333333333</ele><time>2026-04-05T11:03:42.031Z</time></trkpt><trkpt lat="38.6885444" lon="-0.5611261"><ele>767.0</ele><time>2026-04-05T11:03:43.03Z</time></trkpt><trkpt lat="38.6885397" lon="-0.5613773"><ele>768.0</ele><time>2026-04-05T11:03:44.031Z</time></trkpt><trkpt lat="38.6885347" lon="-0.5616199"><ele>769.0</ele><time>2026-04-05T11:03:45.03Z</time></trkpt><trkpt lat="38.6885283" lon="-0.5618693"><ele>770.0</ele><time>2026-04-05T11:03:46.031Z</time></trkpt><trkpt lat="38.6885248" lon="-0.5621122"><ele>770.0</ele><time>2026-04-05T11:03:47.031Z</time></trkpt><trkpt lat="38.6885473" lon="-0.5623482"><ele>770.0</ele><time>2026-04-05T11:03:48.03Z</time></trkpt><trkpt lat="38.688578" lon="-0.5625983"><ele>770.0</ele><time>2026-04-05T11:03:49.03Z</time></trkpt><trkpt lat="38.6886005" lon="-0.5628581"><ele>772.0</ele><time>2026-04-05T11:03:50.03Z</time></trkpt><trkpt lat="38.6886224" lon="-0.5631259"><ele>774.0</ele><time>2026-04-05T11:03:51.031Z</time></trkpt><trkpt lat="38.6886461" lon="-0.5633862"><ele>776.0</ele><time>2026-04-05T11:03:52.031Z</time></trkpt><trkpt lat="38.6886606" lon="-0.5636509"><ele>775.6666666666667</ele><time>2026-04-05T11:03:53.031Z</time></trkpt><trkpt lat="38.6886561" lon="-0.5639153"><ele>775.3333333333333</ele><time>2026-04-05T11:03:54.031Z</time></trkpt><trkpt lat="38.6886356" lon="-0.5641731"><ele>775.0</ele><time>2026-04-05T11:03:55.03Z</time></trkpt><trkpt lat="38.6885846" lon="-0.5644397"><ele>775.6666666666666</ele><time>2026-04-05T11:03:56.031Z</time></trkpt><trkpt lat="38.6885254" lon="-0.5646996"><ele>776.3333333333333</ele><time>2026-04-05T11:03:57.03Z</time></trkpt><trkpt lat="38.6884443" lon="-0.564963"><ele>777.0</ele><time>2026-04-05T11:03:58.03Z</time></trkpt><trkpt lat="38.6883671" lon="-0.5652322"><ele>779.0</ele><time>2026-04-05T11:03:59.03Z</time></trkpt><trkpt lat="38.6882831" lon="-0.5655054"><ele>781.0</ele><time>2026-04-05T11:04:00.031Z</time></trkpt><trkpt lat="38.6882063" lon="-0.565772"><ele>781.0</ele><time>2026-04-05T11:04:01.031Z</time></trkpt><trkpt lat="38.6881207" lon="-0.5660593"><ele>781.0</ele><time>2026-04-05T11:04:02.031Z</time></trkpt><trkpt lat="38.6880392" lon="-0.5663288"><ele>783.0</ele><time>2026-04-05T11:04:03.03Z</time></trkpt><trkpt lat="38.6879509" lon="-0.5666105"><ele>785.0</ele><time>2026-04-05T11:04:04.031Z</time></trkpt><trkpt lat="38.6878669" lon="-0.5668863"><ele>784.3333333333334</ele><time>2026-04-05T11:04:05.031Z</time></trkpt><trkpt lat="38.6877849" lon="-0.5671436"><ele>783.6666666666667</ele><time>2026-04-05T11:04:06.031Z</time></trkpt><trkpt lat="38.6876988" lon="-0.5674146"><ele>783.0</ele><time>2026-04-05T11:04:07.031Z</time></trkpt><trkpt lat="38.6876174" lon="-0.5676707"><ele>783.6666666666667</ele><time>2026-04-05T11:04:08.03Z</time></trkpt><trkpt lat="38.6875391" lon="-0.5679271"><ele>784.3333333333334</ele><time>2026-04-05T11:04:09.03Z</time></trkpt><trkpt lat="38.6874635" lon="-0.5681794"><ele>785.0</ele><time>2026-04-05T11:04:10.03Z</time></trkpt><trkpt lat="38.6873956" lon="-0.5684127"><ele>785.0</ele><time>2026-04-05T11:04:11.031Z</time></trkpt><trkpt lat="38.687329" lon="-0.5686345"><ele>785.0</ele><time>2026-04-05T11:04:12.03Z</time></trkpt><trkpt lat="38.6872634" lon="-0.5688495"><ele>785.0</ele><time>2026-04-05T11:04:13.031Z</time></trkpt><trkpt lat="38.6871974" lon="-0.5690717"><ele>786.0</ele><time>2026-04-05T11:04:14.031Z</time></trkpt><trkpt lat="38.6871359" lon="-0.5692898"><ele>787.0</ele><time>2026-04-05T11:04:15.03Z</time></trkpt><trkpt lat="38.6870628" lon="-0.5695327"><ele>788.0</ele><time>2026-04-05T11:04:16.031Z</time></trkpt><trkpt lat="38.686993" lon="-0.5697717"><ele>789.6666666666667</ele><time>2026-04-05T11:04:17.031Z</time></trkpt><trkpt lat="38.6869146" lon="-0.5700195"><ele>791.3333333333333</ele><time>2026-04-05T11:04:18.031Z</time></trkpt><trkpt lat="38.6868086" lon="-0.5702721"><ele>793.0</ele><time>2026-04-05T11:04:19.03Z</time></trkpt><trkpt lat="38.6866872" lon="-0.5705083"><ele>795.0</ele><time>2026-04-05T11:04:20.031Z</time></trkpt><trkpt lat="38.6865286" lon="-0.5707293"><ele>797.0</ele><time>2026-04-05T11:04:21.031Z</time></trkpt><trkpt lat="38.6863671" lon="-0.5709357"><ele>797.0</ele><time>2026-04-05T11:04:22.031Z</time></trkpt><trkpt lat="38.6862051" lon="-0.5711314"><ele>797.0</ele><time>2026-04-05T11:04:23.031Z</time></trkpt><trkpt lat="38.6860455" lon="-0.5713222"><ele>797.0</ele><time>2026-04-05T11:04:24.031Z</time></trkpt><trkpt lat="38.6858818" lon="-0.5715075"><ele>797.3333333333334</ele><time>2026-04-05T11:04:25.031Z</time></trkpt><trkpt lat="38.6857373" lon="-0.5716815"><ele>797.6666666666667</ele><time>2026-04-05T11:04:26.03Z</time></trkpt><trkpt lat="38.6856059" lon="-0.571847"><ele>798.0</ele><time>2026-04-05T11:04:27.03Z</time></trkpt><trkpt lat="38.6854821" lon="-0.5720056"><ele>799.6666666666667</ele><time>2026-04-05T11:04:28.03Z</time></trkpt><trkpt lat="38.6853647" lon="-0.5721735"><ele>801.3333333333334</ele><time>2026-04-05T11:04:29.03Z</time></trkpt><trkpt lat="38.6852571" lon="-0.5723415"><ele>803.0</ele><time>2026-04-05T11:04:30.031Z</time></trkpt><trkpt lat="38.6851517" lon="-0.5725276"><ele>803.0</ele><time>2026-04-05T11:04:31.03Z</time></trkpt><trkpt lat="38.6850436" lon="-0.5727209"><ele>803.0</ele><time>2026-04-05T11:04:32.03Z</time></trkpt><trkpt lat="38.6849265" lon="-0.572935"><ele>803.0</ele><time>2026-04-05T11:04:33.03Z</time></trkpt><trkpt lat="38.6847956" lon="-0.5731792"><ele>803.0</ele><time>2026-04-05T11:04:34.03Z</time></trkpt><trkpt lat="38.6846543" lon="-0.5734529"><ele>803.0</ele><time>2026-04-05T11:04:35.031Z</time></trkpt><trkpt lat="38.684508" lon="-0.5737441"><ele>804.0</ele><time>2026-04-05T11:04:36.03Z</time></trkpt><trkpt lat="38.6843764" lon="-0.5740177"><ele>805.0</ele><time>2026-04-05T11:04:37.031Z</time></trkpt><trkpt lat="38.6842523" lon="-0.5742781"><ele>806.0</ele><time>2026-04-05T11:04:38.031Z</time></trkpt><trkpt lat="38.6841228" lon="-0.5745381"><ele>807.0</ele><time>2026-04-05T11:04:39.03Z</time></trkpt><trkpt lat="38.6839865" lon="-0.5748001"><ele>807.0</ele><time>2026-04-05T11:04:40.031Z</time></trkpt><trkpt lat="38.6838498" lon="-0.5750685"><ele>807.0</ele><time>2026-04-05T11:04:41.03Z</time></trkpt><trkpt lat="38.6837183" lon="-0.5753293"><ele>808.0</ele><time>2026-04-05T11:04:42.031Z</time></trkpt><trkpt lat="38.6835947" lon="-0.575572"><ele>809.0</ele><time>2026-04-05T11:04:43.031Z</time></trkpt><trkpt lat="38.6834824" lon="-0.5757946"><ele>810.0</ele><time>2026-04-05T11:04:44.031Z</time></trkpt><trkpt lat="38.6833716" lon="-0.5760095"><ele>811.3333333333333</ele><time>2026-04-05T11:04:45.031Z</time></trkpt><trkpt lat="38.6832618" lon="-0.5762221"><ele>812.6666666666666</ele><time>2026-04-05T11:04:46.031Z</time></trkpt><trkpt lat="38.6831539" lon="-0.5764342"><ele>814.0</ele><time>2026-04-05T11:04:47.03Z</time></trkpt><trkpt lat="38.6830432" lon="-0.5766502"><ele>814.0</ele><time>2026-04-05T11:04:48.03Z</time></trkpt><trkpt lat="38.6829359" lon="-0.5768664"><ele>814.0</ele><time>2026-04-05T11:04:49.031Z</time></trkpt><trkpt lat="38.6828294" lon="-0.5770824"><ele>814.0</ele><time>2026-04-05T11:04:50.03Z</time></trkpt><trkpt lat="38.6827277" lon="-0.5773104"><ele>813.3333333333333</ele><time>2026-04-05T11:04:51.03Z</time></trkpt><trkpt lat="38.6826302" lon="-0.5775499"><ele>812.6666666666667</ele><time>2026-04-05T11:04:52.031Z</time></trkpt><trkpt lat="38.6825309" lon="-0.5778013"><ele>812.0</ele><time>2026-04-05T11:04:53.03Z</time></trkpt><trkpt lat="38.6824332" lon="-0.5780659"><ele>812.0</ele><time>2026-04-05T11:04:54.03Z</time></trkpt><trkpt lat="38.6823304" lon="-0.5783355"><ele>812.0</ele><time>2026-04-05T11:04:55.031Z</time></trkpt><trkpt lat="38.6822316" lon="-0.5785953"><ele>811.6666666666667</ele><time>2026-04-05T11:04:56.031Z</time></trkpt><trkpt lat="38.6821394" lon="-0.5788433"><ele>811.3333333333333</ele><time>2026-04-05T11:04:57.03Z</time></trkpt><trkpt lat="38.6820509" lon="-0.5790791"><ele>811.0</ele><time>2026-04-05T11:04:58.031Z</time></trkpt><trkpt lat="38.6819651" lon="-0.5793054"><ele>808.3333333333333</ele><time>2026-04-05T11:04:59.03Z</time></trkpt><trkpt lat="38.681881" lon="-0.5795303"><ele>805.6666666666667</ele><time>2026-04-05T11:05:00.03Z</time></trkpt><trkpt lat="38.6817934" lon="-0.579759"><ele>803.0</ele><time>2026-04-05T11:05:01.03Z</time></trkpt><trkpt lat="38.6817036" lon="-0.5799923"><ele>803.0</ele><time>2026-04-05T11:05:02.03Z</time></trkpt><trkpt lat="38.6816127" lon="-0.5802318"><ele>803.0</ele><time>2026-04-05T11:05:03.03Z</time></trkpt><trkpt lat="38.6815191" lon="-0.5804797"><ele>803.0</ele><time>2026-04-05T11:05:04.03Z</time></trkpt><trkpt lat="38.6814252" lon="-0.5807365"><ele>803.5</ele><time>2026-04-05T11:05:05.03Z</time></trkpt><trkpt lat="38.68133" lon="-0.5809983"><ele>804.0</ele><time>2026-04-05T11:05:06.03Z</time></trkpt><trkpt lat="38.6812302" lon="-0.5812663"><ele>805.5</ele><time>2026-04-05T11:05:07.031Z</time></trkpt><trkpt lat="38.6811281" lon="-0.5815455"><ele>807.0</ele><time>2026-04-05T11:05:08.031Z</time></trkpt><trkpt lat="38.6810228" lon="-0.5818276"><ele>810.0</ele><time>2026-04-05T11:05:09.03Z</time></trkpt><trkpt lat="38.6809168" lon="-0.5821088"><ele>813.0</ele><time>2026-04-05T11:05:10.03Z</time></trkpt><trkpt lat="38.6808176" lon="-0.5823886"><ele>813.0</ele><time>2026-04-05T11:05:11.031Z</time></trkpt><trkpt lat="38.6807236" lon="-0.5826597"><ele>813.0</ele><time>2026-04-05T11:05:12.03Z</time></trkpt><trkpt lat="38.6806284" lon="-0.5829219"><ele>814.0</ele><time>2026-04-05T11:05:13.03Z</time></trkpt><trkpt lat="38.6805358" lon="-0.5831751"><ele>815.0</ele><time>2026-04-05T11:05:14.03Z</time></trkpt><trkpt lat="38.6804431" lon="-0.5834251"><ele>816.0</ele><time>2026-04-05T11:05:15.031Z</time></trkpt><trkpt lat="38.6803505" lon="-0.5836714"><ele>814.6666666666667</ele><time>2026-04-05T11:05:16.031Z</time></trkpt><trkpt lat="38.6802617" lon="-0.583925"><ele>813.3333333333334</ele><time>2026-04-05T11:05:17.031Z</time></trkpt><trkpt lat="38.6801702" lon="-0.5841857"><ele>812.0</ele><time>2026-04-05T11:05:18.03Z</time></trkpt><trkpt lat="38.680076" lon="-0.5844474"><ele>812.0</ele><time>2026-04-05T11:05:19.031Z</time></trkpt><trkpt lat="38.6799813" lon="-0.5847126"><ele>812.0</ele><time>2026-04-05T11:05:20.03Z</time></trkpt><trkpt lat="38.6798851" lon="-0.5849765"><ele>812.0</ele><time>2026-04-05T11:05:21.031Z</time></trkpt><trkpt lat="38.6797857" lon="-0.5852445"><ele>812.0</ele><time>2026-04-05T11:05:22.031Z</time></trkpt><trkpt lat="38.6796879" lon="-0.5855124"><ele>813.0</ele><time>2026-04-05T11:05:23.03Z</time></trkpt><trkpt lat="38.6795916" lon="-0.5857804"><ele>814.0</ele><time>2026-04-05T11:05:24.03Z</time></trkpt><trkpt lat="38.6794963" lon="-0.5860432"><ele>813.3333333333333</ele><time>2026-04-05T11:05:25.03Z</time></trkpt><trkpt lat="38.6794041" lon="-0.5863054"><ele>812.6666666666667</ele><time>2026-04-05T11:05:26.031Z</time></trkpt><trkpt lat="38.6793109" lon="-0.5865585"><ele>812.0</ele><time>2026-04-05T11:05:27.03Z</time></trkpt><trkpt lat="38.679215" lon="-0.5868119"><ele>813.0</ele><time>2026-04-05T11:05:28.031Z</time></trkpt><trkpt lat="38.6791252" lon="-0.5870616"><ele>814.0</ele><time>2026-04-05T11:05:29.031Z</time></trkpt><trkpt lat="38.679039" lon="-0.5873038"><ele>815.0</ele><time>2026-04-05T11:05:30.031Z</time></trkpt><trkpt lat="38.67895" lon="-0.5875507"><ele>815.0</ele><time>2026-04-05T11:05:31.03Z</time></trkpt><trkpt lat="38.6788672" lon="-0.5877904"><ele>815.0</ele><time>2026-04-05T11:05:32.03Z</time></trkpt><trkpt lat="38.6787814" lon="-0.5880244"><ele>815.0</ele><time>2026-04-05T11:05:33.03Z</time></trkpt><trkpt lat="38.6787002" lon="-0.588252"><ele>816.6666666666667</ele><time>2026-04-05T11:05:34.03Z</time></trkpt><trkpt lat="38.6786218" lon="-0.5884748"><ele>818.3333333333333</ele><time>2026-04-05T11:05:35.03Z</time></trkpt><trkpt lat="38.6785438" lon="-0.5886875"><ele>820.0</ele><time>2026-04-05T11:05:36.031Z</time></trkpt><trkpt lat="38.6784737" lon="-0.5888947"><ele>820.75</ele><time>2026-04-05T11:05:37.031Z</time></trkpt><trkpt lat="38.6784082" lon="-0.5890794"><ele>821.5</ele><time>2026-04-05T11:05:38.031Z</time></trkpt><trkpt lat="38.6783497" lon="-0.5892456"><ele>822.25</ele><time>2026-04-05T11:05:39.03Z</time></trkpt><trkpt lat="38.6782899" lon="-0.5894192"><ele>823.0</ele><time>2026-04-05T11:05:40.03Z</time></trkpt><trkpt lat="38.6782234" lon="-0.5896051"><ele>825.0</ele><time>2026-04-05T11:05:41.03Z</time></trkpt><trkpt lat="38.6781645" lon="-0.5897689"><ele>827.0</ele><time>2026-04-05T11:05:42.03Z</time></trkpt><trkpt lat="38.6781107" lon="-0.5899262"><ele>829.0</ele><time>2026-04-05T11:05:43.031Z</time></trkpt><trkpt lat="38.6780589" lon="-0.590069"><ele>831.0</ele><time>2026-04-05T11:05:44.03Z</time></trkpt><trkpt lat="38.678009" lon="-0.5902055"><ele>831.75</ele><time>2026-04-05T11:05:45.031Z</time></trkpt><trkpt lat="38.6779522" lon="-0.5903555"><ele>832.5</ele><time>2026-04-05T11:05:46.03Z</time></trkpt><trkpt lat="38.6778952" lon="-0.5905086"><ele>833.25</ele><time>2026-04-05T11:05:47.031Z</time></trkpt><trkpt lat="38.6778023" lon="-0.5906995"><ele>834.0</ele><time>2026-04-05T11:05:48.031Z</time></trkpt><trkpt lat="38.6777289" lon="-0.5908796"><ele>832.5</ele><time>2026-04-05T11:05:49.031Z</time></trkpt><trkpt lat="38.6776665" lon="-0.5910542"><ele>831.0</ele><time>2026-04-05T11:05:50.03Z</time></trkpt><trkpt lat="38.6776099" lon="-0.591215"><ele>829.5</ele><time>2026-04-05T11:05:51.031Z</time></trkpt><trkpt lat="38.6775574" lon="-0.5913617"><ele>828.0</ele><time>2026-04-05T11:05:52.03Z</time></trkpt><trkpt lat="38.6775108" lon="-0.5914874"><ele>828.0</ele><time>2026-04-05T11:05:53.03Z</time></trkpt><trkpt lat="38.6774757" lon="-0.5915901"><ele>828.0</ele><time>2026-04-05T11:05:54.031Z</time></trkpt><trkpt lat="38.6774442" lon="-0.5916767"><ele>828.0</ele><time>2026-04-05T11:05:55.031Z</time></trkpt><trkpt lat="38.6773584" lon="-0.5917719"><ele>828.0</ele><time>2026-04-05T11:05:57.03Z</time></trkpt><trkpt lat="38.6772445" lon="-0.5917627"><ele>828.0</ele><time>2026-04-05T11:05:59.03Z</time></trkpt><trkpt lat="38.6771751" lon="-0.5917157"><ele>828.0</ele><time>2026-04-05T11:06:00.031Z</time></trkpt><trkpt lat="38.6771099" lon="-0.5916368"><ele>828.0</ele><time>2026-04-05T11:06:01.03Z</time></trkpt><trkpt lat="38.6770316" lon="-0.5915422"><ele>828.0</ele><time>2026-04-05T11:06:02.031Z</time></trkpt><trkpt lat="38.6769315" lon="-0.5914396"><ele>828.0</ele><time>2026-04-05T11:06:03.031Z</time></trkpt><trkpt lat="38.6768123" lon="-0.5913347"><ele>827.0</ele><time>2026-04-05T11:06:04.03Z</time></trkpt><trkpt lat="38.6766792" lon="-0.5912311"><ele>826.0</ele><time>2026-04-05T11:06:05.03Z</time></trkpt><trkpt lat="38.6765421" lon="-0.591129"><ele>825.0</ele><time>2026-04-05T11:06:06.03Z</time></trkpt><trkpt lat="38.6764008" lon="-0.5910196"><ele>823.6666666666667</ele><time>2026-04-05T11:06:07.031Z</time></trkpt><trkpt lat="38.6762572" lon="-0.5909093"><ele>822.3333333333334</ele><time>2026-04-05T11:06:08.03Z</time></trkpt><trkpt lat="38.6761107" lon="-0.5907978"><ele>821.0</ele><time>2026-04-05T11:06:09.03Z</time></trkpt><trkpt lat="38.6759619" lon="-0.5906901"><ele>820.3333333333334</ele><time>2026-04-05T11:06:10.031Z</time></trkpt><trkpt lat="38.6758196" lon="-0.590585"><ele>819.6666666666667</ele><time>2026-04-05T11:06:11.031Z</time></trkpt><trkpt lat="38.6756819" lon="-0.5904763"><ele>819.0</ele><time>2026-04-05T11:06:12.03Z</time></trkpt><trkpt lat="38.6755515" lon="-0.5903784"><ele>818.3333333333333</ele><time>2026-04-05T11:06:13.031Z</time></trkpt><trkpt lat="38.6754183" lon="-0.5902801"><ele>817.6666666666666</ele><time>2026-04-05T11:06:14.03Z</time></trkpt><trkpt lat="38.6752894" lon="-0.5901802"><ele>817.0</ele><time>2026-04-05T11:06:15.031Z</time></trkpt><trkpt lat="38.6751633" lon="-0.5900876"><ele>816.3333333333333</ele><time>2026-04-05T11:06:16.031Z</time></trkpt><trkpt lat="38.6750312" lon="-0.5899935"><ele>815.6666666666667</ele><time>2026-04-05T11:06:17.03Z</time></trkpt><trkpt lat="38.674893" lon="-0.5899142"><ele>815.0</ele><time>2026-04-05T11:06:18.03Z</time></trkpt><trkpt lat="38.6747417" lon="-0.5898683"><ele>815.0</ele><time>2026-04-05T11:06:19.031Z</time></trkpt><trkpt lat="38.6745912" lon="-0.5899001"><ele>815.0</ele><time>2026-04-05T11:06:20.03Z</time></trkpt><trkpt lat="38.6744539" lon="-0.5899447"><ele>815.0</ele><time>2026-04-05T11:06:21.03Z</time></trkpt><trkpt lat="38.6743268" lon="-0.5899896"><ele>815.0</ele><time>2026-04-05T11:06:22.03Z</time></trkpt><trkpt lat="38.6742015" lon="-0.5900528"><ele>814.75</ele><time>2026-04-05T11:06:23.03Z</time></trkpt><trkpt lat="38.6740961" lon="-0.5901627"><ele>814.5</ele><time>2026-04-05T11:06:24.03Z</time></trkpt><trkpt lat="38.6740127" lon="-0.5903221"><ele>814.25</ele><time>2026-04-05T11:06:25.031Z</time></trkpt><trkpt lat="38.6739438" lon="-0.590492"><ele>814.0</ele><time>2026-04-05T11:06:26.031Z</time></trkpt><trkpt lat="38.6738783" lon="-0.5906486"><ele>814.0</ele><time>2026-04-05T11:06:27.03Z</time></trkpt><trkpt lat="38.67381" lon="-0.5907966"><ele>814.0</ele><time>2026-04-05T11:06:28.03Z</time></trkpt><trkpt lat="38.673731" lon="-0.5909187"><ele>814.0</ele><time>2026-04-05T11:06:29.031Z</time></trkpt><trkpt lat="38.6736267" lon="-0.591006"><ele>814.0</ele><time>2026-04-05T11:06:30.031Z</time></trkpt><trkpt lat="38.6735087" lon="-0.5910513"><ele>812.5</ele><time>2026-04-05T11:06:31.031Z</time></trkpt><trkpt lat="38.6733898" lon="-0.5910627"><ele>811.0</ele><time>2026-04-05T11:06:32.031Z</time></trkpt><trkpt lat="38.6732915" lon="-0.5909552"><ele>809.5</ele><time>2026-04-05T11:06:33.031Z</time></trkpt><trkpt lat="38.6732086" lon="-0.5908136"><ele>808.0</ele><time>2026-04-05T11:06:34.031Z</time></trkpt><trkpt lat="38.6731388" lon="-0.5906715"><ele>808.0</ele><time>2026-04-05T11:06:35.03Z</time></trkpt><trkpt lat="38.6731063" lon="-0.5904666"><ele>808.0</ele><time>2026-04-05T11:06:36.031Z</time></trkpt><trkpt lat="38.6730604" lon="-0.5902744"><ele>808.0</ele><time>2026-04-05T11:06:37.03Z</time></trkpt><trkpt lat="38.6730139" lon="-0.5900954"><ele>808.75</ele><time>2026-04-05T11:06:38.03Z</time></trkpt><trkpt lat="38.6729552" lon="-0.5899445"><ele>809.5</ele><time>2026-04-05T11:06:39.03Z</time></trkpt><trkpt lat="38.6728749" lon="-0.589818"><ele>810.25</ele><time>2026-04-05T11:06:40.03Z</time></trkpt><trkpt lat="38.6727672" lon="-0.5897369"><ele>811.0</ele><time>2026-04-05T11:06:41.03Z</time></trkpt><trkpt lat="38.6726543" lon="-0.5896955"><ele>812.5</ele><time>2026-04-05T11:06:42.03Z</time></trkpt><trkpt lat="38.6725332" lon="-0.5896945"><ele>814.0</ele><time>2026-04-05T11:06:43.03Z</time></trkpt><trkpt lat="38.6724074" lon="-0.5897158"><ele>815.5</ele><time>2026-04-05T11:06:44.031Z</time></trkpt><trkpt lat="38.6722792" lon="-0.589786"><ele>817.0</ele><time>2026-04-05T11:06:45.031Z</time></trkpt><trkpt lat="38.6721436" lon="-0.5899095"><ele>817.0</ele><time>2026-04-05T11:06:46.03Z</time></trkpt><trkpt lat="38.6720062" lon="-0.59009"><ele>817.0</ele><time>2026-04-05T11:06:47.03Z</time></trkpt><trkpt lat="38.6718794" lon="-0.5903133"><ele>817.0</ele><time>2026-04-05T11:06:48.031Z</time></trkpt><trkpt lat="38.671779" lon="-0.5905282"><ele>818.0</ele><time>2026-04-05T11:06:49.03Z</time></trkpt><trkpt lat="38.6716855" lon="-0.5907314"><ele>819.0</ele><time>2026-04-05T11:06:50.03Z</time></trkpt><trkpt lat="38.6716074" lon="-0.5909376"><ele>820.0</ele><time>2026-04-05T11:06:51.03Z</time></trkpt><trkpt lat="38.6715508" lon="-0.5911318"><ele>820.5</ele><time>2026-04-05T11:06:52.03Z</time></trkpt><trkpt lat="38.6715019" lon="-0.5913075"><ele>821.0</ele><time>2026-04-05T11:06:53.031Z</time></trkpt><trkpt lat="38.6714574" lon="-0.5914644"><ele>821.5</ele><time>2026-04-05T11:06:54.03Z</time></trkpt><trkpt lat="38.6714179" lon="-0.5915987"><ele>822.0</ele><time>2026-04-05T11:06:55.03Z</time></trkpt><trkpt lat="38.6713852" lon="-0.5917191"><ele>822.0</ele><time>2026-04-05T11:06:56.03Z</time></trkpt><trkpt lat="38.6713469" lon="-0.5918434"><ele>822.0</ele><time>2026-04-05T11:06:57.031Z</time></trkpt><trkpt lat="38.6712901" lon="-0.5919675"><ele>822.0</ele><time>2026-04-05T11:06:58.03Z</time></trkpt><trkpt lat="38.6712101" lon="-0.5920815"><ele>822.0</ele><time>2026-04-05T11:06:59.03Z</time></trkpt><trkpt lat="38.6710985" lon="-0.5921567"><ele>823.3333333333333</ele><time>2026-04-05T11:07:00.031Z</time></trkpt><trkpt lat="38.6709558" lon="-0.5921887"><ele>824.6666666666666</ele><time>2026-04-05T11:07:01.03Z</time></trkpt><trkpt lat="38.6707832" lon="-0.5921912"><ele>826.0</ele><time>2026-04-05T11:07:02.031Z</time></trkpt><trkpt lat="38.6705877" lon="-0.5921821"><ele>826.0</ele><time>2026-04-05T11:07:03.03Z</time></trkpt><trkpt lat="38.6703831" lon="-0.5921893"><ele>826.0</ele><time>2026-04-05T11:07:04.03Z</time></trkpt><trkpt lat="38.6701763" lon="-0.5922016"><ele>826.0</ele><time>2026-04-05T11:07:05.03Z</time></trkpt><trkpt lat="38.6699814" lon="-0.5922203"><ele>828.0</ele><time>2026-04-05T11:07:06.031Z</time></trkpt><trkpt lat="38.669762" lon="-0.5922459"><ele>830.0</ele><time>2026-04-05T11:07:07.03Z</time></trkpt><trkpt lat="38.6695109" lon="-0.5922735"><ele>831.5</ele><time>2026-04-05T11:07:08.03Z</time></trkpt><trkpt lat="38.6692755" lon="-0.5923089"><ele>833.0</ele><time>2026-04-05T11:07:09.03Z</time></trkpt><trkpt lat="38.6690638" lon="-0.5923428"><ele>833.0</ele><time>2026-04-05T11:07:10.03Z</time></trkpt><trkpt lat="38.6688959" lon="-0.5923631"><ele>833.0</ele><time>2026-04-05T11:07:11.03Z</time></trkpt><trkpt lat="38.6687579" lon="-0.5923751"><ele>833.0</ele><time>2026-04-05T11:07:12.031Z</time></trkpt><trkpt lat="38.6686336" lon="-0.5923766"><ele>833.0</ele><time>2026-04-05T11:07:13.031Z</time></trkpt><trkpt lat="38.668513" lon="-0.5923507"><ele>833.75</ele><time>2026-04-05T11:07:14.031Z</time></trkpt><trkpt lat="38.6683946" lon="-0.5922718"><ele>834.5</ele><time>2026-04-05T11:07:15.03Z</time></trkpt><trkpt lat="38.6683051" lon="-0.5921494"><ele>835.25</ele><time>2026-04-05T11:07:16.031Z</time></trkpt><trkpt lat="38.6682312" lon="-0.5920236"><ele>836.0</ele><time>2026-04-05T11:07:17.031Z</time></trkpt><trkpt lat="38.6682216" lon="-0.5917897"><ele>836.0</ele><time>2026-04-05T11:07:18.03Z</time></trkpt><trkpt lat="38.6682071" lon="-0.5916075"><ele>836.0</ele><time>2026-04-05T11:07:19.031Z</time></trkpt><trkpt lat="38.6681691" lon="-0.5914462"><ele>836.0</ele><time>2026-04-05T11:07:20.031Z</time></trkpt><trkpt lat="38.6681117" lon="-0.5912941"><ele>836.0</ele><time>2026-04-05T11:07:21.031Z</time></trkpt><trkpt lat="38.6680136" lon="-0.5912153"><ele>837.25</ele><time>2026-04-05T11:07:22.031Z</time></trkpt><trkpt lat="38.6679003" lon="-0.5911736"><ele>838.5</ele><time>2026-04-05T11:07:23.031Z</time></trkpt><trkpt lat="38.6677765" lon="-0.591209"><ele>839.75</ele><time>2026-04-05T11:07:24.03Z</time></trkpt><trkpt lat="38.6676385" lon="-0.5912582"><ele>841.0</ele><time>2026-04-05T11:07:25.031Z</time></trkpt><trkpt lat="38.6674986" lon="-0.5913522"><ele>841.6666666666666</ele><time>2026-04-05T11:07:26.03Z</time></trkpt><trkpt lat="38.6673905" lon="-0.591495"><ele>842.3333333333333</ele><time>2026-04-05T11:07:27.031Z</time></trkpt><trkpt lat="38.667277" lon="-0.5916544"><ele>843.0</ele><time>2026-04-05T11:07:28.031Z</time></trkpt><trkpt lat="38.6671846" lon="-0.5918557"><ele>842.3333333333333</ele><time>2026-04-05T11:07:29.03Z</time></trkpt><trkpt lat="38.6670806" lon="-0.5920311"><ele>841.6666666666666</ele><time>2026-04-05T11:07:30.03Z</time></trkpt><trkpt lat="38.6669182" lon="-0.5921864"><ele>841.0</ele><time>2026-04-05T11:07:31.03Z</time></trkpt><trkpt lat="38.6667403" lon="-0.5923292"><ele>845.0</ele><time>2026-04-05T11:07:32.03Z</time></trkpt><trkpt lat="38.6665577" lon="-0.5924715"><ele>849.0</ele><time>2026-04-05T11:07:33.03Z</time></trkpt><trkpt lat="38.6663849" lon="-0.5926014"><ele>853.0</ele><time>2026-04-05T11:07:34.031Z</time></trkpt><trkpt lat="38.6662265" lon="-0.5927223"><ele>854.6666666666666</ele><time>2026-04-05T11:07:35.031Z</time></trkpt><trkpt lat="38.6660628" lon="-0.5928447"><ele>856.3333333333333</ele><time>2026-04-05T11:07:36.031Z</time></trkpt><trkpt lat="38.6658922" lon="-0.592978"><ele>858.0</ele><time>2026-04-05T11:07:37.031Z</time></trkpt><trkpt lat="38.6657376" lon="-0.5930942"><ele>858.0</ele><time>2026-04-05T11:07:38.03Z</time></trkpt><trkpt lat="38.6655823" lon="-0.5932107"><ele>858.0</ele><time>2026-04-05T11:07:39.03Z</time></trkpt><trkpt lat="38.6654394" lon="-0.5933151"><ele>858.0</ele><time>2026-04-05T11:07:40.031Z</time></trkpt><trkpt lat="38.6652942" lon="-0.5934206"><ele>859.0</ele><time>2026-04-05T11:07:41.03Z</time></trkpt><trkpt lat="38.6651481" lon="-0.5935282"><ele>860.0</ele><time>2026-04-05T11:07:42.03Z</time></trkpt><trkpt lat="38.6649968" lon="-0.5936412"><ele>861.0</ele><time>2026-04-05T11:07:43.031Z</time></trkpt><trkpt lat="38.6648483" lon="-0.5937571"><ele>861.0</ele><time>2026-04-05T11:07:44.031Z</time></trkpt><trkpt lat="38.664699" lon="-0.5938897"><ele>861.0</ele><time>2026-04-05T11:07:45.031Z</time></trkpt><trkpt lat="38.6645401" lon="-0.594011"><ele>861.0</ele><time>2026-04-05T11:07:46.03Z</time></trkpt><trkpt lat="38.664363" lon="-0.5941081"><ele>865.0</ele><time>2026-04-05T11:07:47.03Z</time></trkpt><trkpt lat="38.6641593" lon="-0.5941648"><ele>869.0</ele><time>2026-04-05T11:07:48.031Z</time></trkpt><trkpt lat="38.6639534" lon="-0.5942128"><ele>873.0</ele><time>2026-04-05T11:07:49.03Z</time></trkpt><trkpt lat="38.6637462" lon="-0.5942337"><ele>874.0</ele><time>2026-04-05T11:07:50.03Z</time></trkpt><trkpt lat="38.6635459" lon="-0.5942703"><ele>875.0</ele><time>2026-04-05T11:07:51.031Z</time></trkpt><trkpt lat="38.6633586" lon="-0.5943318"><ele>876.0</ele><time>2026-04-05T11:07:52.03Z</time></trkpt><trkpt lat="38.6631621" lon="-0.5943998"><ele>876.0</ele><time>2026-04-05T11:07:53.03Z</time></trkpt><trkpt lat="38.662971" lon="-0.5944519"><ele>876.0</ele><time>2026-04-05T11:07:54.03Z</time></trkpt><trkpt lat="38.6627986" lon="-0.59448"><ele>876.0</ele><time>2026-04-05T11:07:55.031Z</time></trkpt><trkpt lat="38.6626403" lon="-0.5944791"><ele>877.5</ele><time>2026-04-05T11:07:56.03Z</time></trkpt><trkpt lat="38.6625052" lon="-0.5944327"><ele>879.0</ele><time>2026-04-05T11:07:57.03Z</time></trkpt><trkpt lat="38.6623852" lon="-0.5943566"><ele>880.5</ele><time>2026-04-05T11:07:58.031Z</time></trkpt><trkpt lat="38.6622808" lon="-0.5942555"><ele>882.0</ele><time>2026-04-05T11:07:59.031Z</time></trkpt><trkpt lat="38.6621527" lon="-0.594186"><ele>882.0</ele><time>2026-04-05T11:08:00.031Z</time></trkpt><trkpt lat="38.6620081" lon="-0.5941457"><ele>882.0</ele><time>2026-04-05T11:08:01.031Z</time></trkpt><trkpt lat="38.6618463" lon="-0.5941138"><ele>882.0</ele><time>2026-04-05T11:08:02.031Z</time></trkpt><trkpt lat="38.6616822" lon="-0.5940867"><ele>884.0</ele><time>2026-04-05T11:08:03.03Z</time></trkpt><trkpt lat="38.6615343" lon="-0.5940626"><ele>886.0</ele><time>2026-04-05T11:08:04.031Z</time></trkpt><trkpt lat="38.6613884" lon="-0.5940628"><ele>888.0</ele><time>2026-04-05T11:08:05.03Z</time></trkpt><trkpt lat="38.6612386" lon="-0.5940974"><ele>890.0</ele><time>2026-04-05T11:08:06.03Z</time></trkpt><trkpt lat="38.6610782" lon="-0.5941726"><ele>891.3333333333334</ele><time>2026-04-05T11:08:07.03Z</time></trkpt><trkpt lat="38.660909" lon="-0.5942787"><ele>892.6666666666667</ele><time>2026-04-05T11:08:08.03Z</time></trkpt><trkpt lat="38.6607464" lon="-0.5943611"><ele>894.0</ele><time>2026-04-05T11:08:09.03Z</time></trkpt><trkpt lat="38.6605691" lon="-0.5944049"><ele>894.0</ele><time>2026-04-05T11:08:10.031Z</time></trkpt><trkpt lat="38.660388" lon="-0.5944083"><ele>894.0</ele><time>2026-04-05T11:08:11.03Z</time></trkpt><trkpt lat="38.6602369" lon="-0.5944116"><ele>894.0</ele><time>2026-04-05T11:08:12.03Z</time></trkpt><trkpt lat="38.6601156" lon="-0.5944621"><ele>896.75</ele><time>2026-04-05T11:08:13.031Z</time></trkpt><trkpt lat="38.6600083" lon="-0.594573"><ele>899.5</ele><time>2026-04-05T11:08:14.031Z</time></trkpt><trkpt lat="38.6599202" lon="-0.5947336"><ele>902.25</ele><time>2026-04-05T11:08:15.03Z</time></trkpt><trkpt lat="38.6598686" lon="-0.5948955"><ele>905.0</ele><time>2026-04-05T11:08:16.031Z</time></trkpt><trkpt lat="38.659809" lon="-0.595039"><ele>905.0</ele><time>2026-04-05T11:08:17.031Z</time></trkpt><trkpt lat="38.6597076" lon="-0.595141"><ele>905.0</ele><time>2026-04-05T11:08:18.03Z</time></trkpt><trkpt lat="38.6595951" lon="-0.5952203"><ele>905.0</ele><time>2026-04-05T11:08:19.03Z</time></trkpt><trkpt lat="38.659464" lon="-0.5952658"><ele>905.0</ele><time>2026-04-05T11:08:20.031Z</time></trkpt><trkpt lat="38.6592481" lon="-0.595228"><ele>903.6666666666667</ele><time>2026-04-05T11:08:21.03Z</time></trkpt><trkpt lat="38.6590538" lon="-0.5952574"><ele>902.3333333333333</ele><time>2026-04-05T11:08:22.031Z</time></trkpt><trkpt lat="38.6588933" lon="-0.5953113"><ele>901.0</ele><time>2026-04-05T11:08:23.031Z</time></trkpt><trkpt lat="38.6587417" lon="-0.5954025"><ele>904.6666666666666</ele><time>2026-04-05T11:08:24.03Z</time></trkpt><trkpt lat="38.6585984" lon="-0.5955184"><ele>908.3333333333333</ele><time>2026-04-05T11:08:25.031Z</time></trkpt><trkpt lat="38.6584603" lon="-0.5956187"><ele>912.0</ele><time>2026-04-05T11:08:26.031Z</time></trkpt><trkpt lat="38.6583323" lon="-0.5957455"><ele>912.0</ele><time>2026-04-05T11:08:27.03Z</time></trkpt><trkpt lat="38.6582198" lon="-0.5959083"><ele>912.0</ele><time>2026-04-05T11:08:28.031Z</time></trkpt><trkpt lat="38.6581288" lon="-0.596103"><ele>912.0</ele><time>2026-04-05T11:08:29.03Z</time></trkpt><trkpt lat="38.6580568" lon="-0.5963094"><ele>916.0</ele><time>2026-04-05T11:08:30.031Z</time></trkpt><trkpt lat="38.6579977" lon="-0.5965086"><ele>920.0</ele><time>2026-04-05T11:08:31.031Z</time></trkpt><trkpt lat="38.6579193" lon="-0.5967164"><ele>924.0</ele><time>2026-04-05T11:08:32.03Z</time></trkpt><trkpt lat="38.657822" lon="-0.5969054"><ele>925.6666666666667</ele><time>2026-04-05T11:08:33.03Z</time></trkpt><trkpt lat="38.6577264" lon="-0.5970554"><ele>927.3333333333334</ele><time>2026-04-05T11:08:34.03Z</time></trkpt><trkpt lat="38.657616" lon="-0.5971909"><ele>929.0</ele><time>2026-04-05T11:08:35.031Z</time></trkpt><trkpt lat="38.6574913" lon="-0.597302"><ele>929.0</ele><time>2026-04-05T11:08:36.031Z</time></trkpt><trkpt lat="38.6573955" lon="-0.5974275"><ele>929.0</ele><time>2026-04-05T11:08:37.03Z</time></trkpt><trkpt lat="38.6573084" lon="-0.5975204"><ele>929.0</ele><time>2026-04-05T11:08:38.03Z</time></trkpt><trkpt lat="38.657203" lon="-0.597579"><ele>929.0</ele><time>2026-04-05T11:08:39.031Z</time></trkpt><trkpt lat="38.6570844" lon="-0.5975782"><ele>929.0</ele><time>2026-04-05T11:08:40.031Z</time></trkpt><trkpt lat="38.6569702" lon="-0.5975485"><ele>929.0</ele><time>2026-04-05T11:08:41.03Z</time></trkpt><trkpt lat="38.6568685" lon="-0.5974927"><ele>929.0</ele><time>2026-04-05T11:08:42.03Z</time></trkpt><trkpt lat="38.6567917" lon="-0.597407"><ele>929.0</ele><time>2026-04-05T11:08:43.03Z</time></trkpt><trkpt lat="38.6568282" lon="-0.597179"><ele>931.5</ele><time>2026-04-05T11:08:44.031Z</time></trkpt><trkpt lat="38.6568877" lon="-0.5969947"><ele>934.0</ele><time>2026-04-05T11:08:45.031Z</time></trkpt><trkpt lat="38.656961" lon="-0.5968479"><ele>936.5</ele><time>2026-04-05T11:08:46.03Z</time></trkpt><trkpt lat="38.6569982" lon="-0.5966926"><ele>939.0</ele><time>2026-04-05T11:08:47.03Z</time></trkpt><trkpt lat="38.6570027" lon="-0.5965014"><ele>939.0</ele><time>2026-04-05T11:08:48.03Z</time></trkpt><trkpt lat="38.6569771" lon="-0.5963282"><ele>939.0</ele><time>2026-04-05T11:08:49.031Z</time></trkpt><trkpt lat="38.6569275" lon="-0.5961762"><ele>939.0</ele><time>2026-04-05T11:08:50.03Z</time></trkpt><trkpt lat="38.656856" lon="-0.5960307"><ele>939.0</ele><time>2026-04-05T11:08:51.03Z</time></trkpt><trkpt lat="38.6567596" lon="-0.5958882"><ele>938.6666666666667</ele><time>2026-04-05T11:08:52.031Z</time></trkpt><trkpt lat="38.65663" lon="-0.5957354"><ele>938.3333333333334</ele><time>2026-04-05T11:08:53.03Z</time></trkpt><trkpt lat="38.6564818" lon="-0.5955983"><ele>938.0</ele><time>2026-04-05T11:08:54.031Z</time></trkpt><trkpt lat="38.6563249" lon="-0.5955084"><ele>938.0</ele><time>2026-04-05T11:08:55.03Z</time></trkpt><trkpt lat="38.6561756" lon="-0.5954567"><ele>938.0</ele><time>2026-04-05T11:08:56.03Z</time></trkpt><trkpt lat="38.6560323" lon="-0.5954431"><ele>938.0</ele><time>2026-04-05T11:08:57.031Z</time></trkpt><trkpt lat="38.6558911" lon="-0.595446"><ele>938.0</ele><time>2026-04-05T11:08:58.03Z</time></trkpt><trkpt lat="38.6557535" lon="-0.5954826"><ele>940.0</ele><time>2026-04-05T11:08:59.03Z</time></trkpt><trkpt lat="38.6556234" lon="-0.5954898"><ele>942.0</ele><time>2026-04-05T11:09:00.031Z</time></trkpt><trkpt lat="38.655496" lon="-0.5954476"><ele>944.0</ele><time>2026-04-05T11:09:01.031Z</time></trkpt><trkpt lat="38.6553725" lon="-0.5953467"><ele>946.0</ele><time>2026-04-05T11:09:02.031Z</time></trkpt><trkpt lat="38.6552614" lon="-0.5952033"><ele>946.0</ele><time>2026-04-05T11:09:03.031Z</time></trkpt><trkpt lat="38.6551947" lon="-0.5950384"><ele>946.0</ele><time>2026-04-05T11:09:04.031Z</time></trkpt><trkpt lat="38.6551527" lon="-0.5948793"><ele>946.0</ele><time>2026-04-05T11:09:05.03Z</time></trkpt><trkpt lat="38.6551709" lon="-0.5947166"><ele>946.0</ele><time>2026-04-05T11:09:06.031Z</time></trkpt><trkpt lat="38.6552593" lon="-0.5945628"><ele>944.5</ele><time>2026-04-05T11:09:07.031Z</time></trkpt><trkpt lat="38.6552818" lon="-0.5944104"><ele>943.0</ele><time>2026-04-05T11:09:08.03Z</time></trkpt><trkpt lat="38.6552545" lon="-0.5942782"><ele>941.5</ele><time>2026-04-05T11:09:09.03Z</time></trkpt><trkpt lat="38.6551891" lon="-0.5941621"><ele>940.0</ele><time>2026-04-05T11:09:10.03Z</time></trkpt><trkpt lat="38.6550801" lon="-0.59406"><ele>940.0</ele><time>2026-04-05T11:09:11.03Z</time></trkpt><trkpt lat="38.6549341" lon="-0.5939611"><ele>940.0</ele><time>2026-04-05T11:09:12.03Z</time></trkpt><trkpt lat="38.6547662" lon="-0.5938336"><ele>940.0</ele><time>2026-04-05T11:09:13.03Z</time></trkpt><trkpt lat="38.6545813" lon="-0.5936809"><ele>942.6666666666666</ele><time>2026-04-05T11:09:14.031Z</time></trkpt><trkpt lat="38.6544158" lon="-0.5935292"><ele>945.3333333333333</ele><time>2026-04-05T11:09:15.031Z</time></trkpt><trkpt lat="38.6542589" lon="-0.5933773"><ele>948.0</ele><time>2026-04-05T11:09:16.03Z</time></trkpt><trkpt lat="38.6541225" lon="-0.5932191"><ele>948.0</ele><time>2026-04-05T11:09:17.031Z</time></trkpt><trkpt lat="38.654009" lon="-0.5930379"><ele>948.0</ele><time>2026-04-05T11:09:18.03Z</time></trkpt><trkpt lat="38.6539097" lon="-0.5927953"><ele>948.0</ele><time>2026-04-05T11:09:19.03Z</time></trkpt><trkpt lat="38.653794" lon="-0.5925058"><ele>949.5</ele><time>2026-04-05T11:09:20.031Z</time></trkpt><trkpt lat="38.6536495" lon="-0.5922122"><ele>951.0</ele><time>2026-04-05T11:09:21.03Z</time></trkpt><trkpt lat="38.6535094" lon="-0.5919111"><ele>951.0</ele><time>2026-04-05T11:09:22.03Z</time></trkpt><trkpt lat="38.6533888" lon="-0.5916388"><ele>951.0</ele><time>2026-04-05T11:09:23.03Z</time></trkpt><trkpt lat="38.6532894" lon="-0.5914012"><ele>951.0</ele><time>2026-04-05T11:09:24.031Z</time></trkpt><trkpt lat="38.6532168" lon="-0.5912028"><ele>951.0</ele><time>2026-04-05T11:09:25.031Z</time></trkpt><trkpt lat="38.653193" lon="-0.5910033"><ele>951.0</ele><time>2026-04-05T11:09:26.03Z</time></trkpt><trkpt lat="38.653196" lon="-0.590809"><ele>952.0</ele><time>2026-04-05T11:09:27.031Z</time></trkpt><trkpt lat="38.6532293" lon="-0.5905994"><ele>953.0</ele><time>2026-04-05T11:09:28.03Z</time></trkpt><trkpt lat="38.6532934" lon="-0.5904452"><ele>954.0</ele><time>2026-04-05T11:09:29.03Z</time></trkpt><trkpt lat="38.6532875" lon="-0.5902952"><ele>955.0</ele><time>2026-04-05T11:09:30.031Z</time></trkpt><trkpt lat="38.6532219" lon="-0.5901688"><ele>957.25</ele><time>2026-04-05T11:09:31.031Z</time></trkpt><trkpt lat="38.6531413" lon="-0.5900475"><ele>959.5</ele><time>2026-04-05T11:09:32.03Z</time></trkpt><trkpt lat="38.6530319" lon="-0.5899437"><ele>961.75</ele><time>2026-04-05T11:09:33.031Z</time></trkpt><trkpt lat="38.6528917" lon="-0.5898717"><ele>964.0</ele><time>2026-04-05T11:09:34.03Z</time></trkpt><trkpt lat="38.652618" lon="-0.5897951"><ele>964.0</ele><time>2026-04-05T11:09:35.031Z</time></trkpt><trkpt lat="38.6524151" lon="-0.5897022"><ele>964.0</ele><time>2026-04-05T11:09:36.03Z</time></trkpt><trkpt lat="38.6522042" lon="-0.5895811"><ele>964.0</ele><time>2026-04-05T11:09:37.031Z</time></trkpt><trkpt lat="38.65199" lon="-0.5894381"><ele>960.0</ele><time>2026-04-05T11:09:38.03Z</time></trkpt><trkpt lat="38.6517453" lon="-0.5892268"><ele>956.0</ele><time>2026-04-05T11:09:39.03Z</time></trkpt><trkpt lat="38.6515148" lon="-0.5890416"><ele>956.0</ele><time>2026-04-05T11:09:40.03Z</time></trkpt><trkpt lat="38.6512922" lon="-0.5888612"><ele>956.0</ele><time>2026-04-05T11:09:41.031Z</time></trkpt><trkpt lat="38.6510616" lon="-0.5886704"><ele>953.5</ele><time>2026-04-05T11:09:42.03Z</time></trkpt><trkpt lat="38.650844" lon="-0.5884913"><ele>951.0</ele><time>2026-04-05T11:09:43.031Z</time></trkpt><trkpt lat="38.6506339" lon="-0.5883254"><ele>951.0</ele><time>2026-04-05T11:09:44.03Z</time></trkpt><trkpt lat="38.6504512" lon="-0.588177"><ele>951.0</ele><time>2026-04-05T11:09:45.03Z</time></trkpt><trkpt lat="38.6502896" lon="-0.5880646"><ele>951.0</ele><time>2026-04-05T11:09:46.03Z</time></trkpt><trkpt lat="38.6501175" lon="-0.5879769"><ele>950.0</ele><time>2026-04-05T11:09:47.031Z</time></trkpt><trkpt lat="38.6499049" lon="-0.5879211"><ele>949.0</ele><time>2026-04-05T11:09:48.03Z</time></trkpt><trkpt lat="38.6496991" lon="-0.5878868"><ele>948.0</ele><time>2026-04-05T11:09:49.031Z</time></trkpt><trkpt lat="38.6494682" lon="-0.5879033"><ele>945.5</ele><time>2026-04-05T11:09:50.03Z</time></trkpt><trkpt lat="38.6492543" lon="-0.5878548"><ele>943.0</ele><time>2026-04-05T11:09:51.031Z</time></trkpt><trkpt lat="38.6490346" lon="-0.5877431"><ele>940.5</ele><time>2026-04-05T11:09:52.03Z</time></trkpt><trkpt lat="38.6488084" lon="-0.5875762"><ele>938.0</ele><time>2026-04-05T11:09:53.031Z</time></trkpt><trkpt lat="38.6485768" lon="-0.5873744"><ele>936.0</ele><time>2026-04-05T11:09:54.031Z</time></trkpt><trkpt lat="38.6483396" lon="-0.5871565"><ele>934.0</ele><time>2026-04-05T11:09:55.03Z</time></trkpt><trkpt lat="38.6481045" lon="-0.5869399"><ele>934.0</ele><time>2026-04-05T11:09:56.03Z</time></trkpt><trkpt lat="38.6478847" lon="-0.5867363"><ele>934.0</ele><time>2026-04-05T11:09:57.03Z</time></trkpt><trkpt lat="38.6476795" lon="-0.5865495"><ele>933.5</ele><time>2026-04-05T11:09:58.031Z</time></trkpt><trkpt lat="38.6474631" lon="-0.5863579"><ele>933.0</ele><time>2026-04-05T11:09:59.03Z</time></trkpt><trkpt lat="38.6472392" lon="-0.5861449"><ele>933.0</ele><time>2026-04-05T11:10:00.03Z</time></trkpt><trkpt lat="38.6470194" lon="-0.5859202"><ele>933.0</ele><time>2026-04-05T11:10:01.031Z</time></trkpt><trkpt lat="38.646814" lon="-0.5857061"><ele>932.5</ele><time>2026-04-05T11:10:02.031Z</time></trkpt><trkpt lat="38.6466195" lon="-0.5855077"><ele>932.0</ele><time>2026-04-05T11:10:03.031Z</time></trkpt><trkpt lat="38.6464323" lon="-0.5853369"><ele>932.0</ele><time>2026-04-05T11:10:04.03Z</time></trkpt><trkpt lat="38.646231" lon="-0.5851927"><ele>932.0</ele><time>2026-04-05T11:10:05.031Z</time></trkpt><trkpt lat="38.6460143" lon="-0.5851271"><ele>929.3333333333334</ele><time>2026-04-05T11:10:06.031Z</time></trkpt><trkpt lat="38.6458015" lon="-0.5850702"><ele>926.6666666666667</ele><time>2026-04-05T11:10:07.03Z</time></trkpt><trkpt lat="38.6455899" lon="-0.5850534"><ele>924.0</ele><time>2026-04-05T11:10:08.03Z</time></trkpt><trkpt lat="38.6453579" lon="-0.5850979"><ele>924.5</ele><time>2026-04-05T11:10:09.031Z</time></trkpt><trkpt lat="38.64512" lon="-0.5851541"><ele>925.0</ele><time>2026-04-05T11:10:10.03Z</time></trkpt><trkpt lat="38.6449086" lon="-0.5852321"><ele>925.0</ele><time>2026-04-05T11:10:11.031Z</time></trkpt><trkpt lat="38.644701" lon="-0.5852978"><ele>925.0</ele><time>2026-04-05T11:10:12.031Z</time></trkpt><trkpt lat="38.6444805" lon="-0.5853404"><ele>925.0</ele><time>2026-04-05T11:10:13.03Z</time></trkpt><trkpt lat="38.644257" lon="-0.5853689"><ele>924.0</ele><time>2026-04-05T11:10:14.03Z</time></trkpt><trkpt lat="38.6440263" lon="-0.5853453"><ele>923.0</ele><time>2026-04-05T11:10:15.03Z</time></trkpt><trkpt lat="38.6437694" lon="-0.585273"><ele>921.5</ele><time>2026-04-05T11:10:16.031Z</time></trkpt><trkpt lat="38.6435054" lon="-0.5851947"><ele>920.0</ele><time>2026-04-05T11:10:17.031Z</time></trkpt><trkpt lat="38.643206" lon="-0.5851359"><ele>920.0</ele><time>2026-04-05T11:10:18.031Z</time></trkpt><trkpt lat="38.6429172" lon="-0.5851159"><ele>920.0</ele><time>2026-04-05T11:10:19.031Z</time></trkpt><trkpt lat="38.6426153" lon="-0.5851143"><ele>921.5</ele><time>2026-04-05T11:10:20.03Z</time></trkpt><trkpt lat="38.6423225" lon="-0.5851221"><ele>923.0</ele><time>2026-04-05T11:10:21.03Z</time></trkpt><trkpt lat="38.6420532" lon="-0.5851324"><ele>923.0</ele><time>2026-04-05T11:10:22.03Z</time></trkpt><trkpt lat="38.6418066" lon="-0.5851436"><ele>923.0</ele><time>2026-04-05T11:10:23.031Z</time></trkpt><trkpt lat="38.6415795" lon="-0.5851458"><ele>923.0</ele><time>2026-04-05T11:10:24.031Z</time></trkpt><trkpt lat="38.6413787" lon="-0.5851123"><ele>923.0</ele><time>2026-04-05T11:10:25.03Z</time></trkpt><trkpt lat="38.6411956" lon="-0.5850542"><ele>923.0</ele><time>2026-04-05T11:10:26.031Z</time></trkpt><trkpt lat="38.6410381" lon="-0.5849878"><ele>924.25</ele><time>2026-04-05T11:10:27.031Z</time></trkpt><trkpt lat="38.6408948" lon="-0.584921"><ele>925.5</ele><time>2026-04-05T11:10:28.031Z</time></trkpt><trkpt lat="38.6407718" lon="-0.5848725"><ele>926.75</ele><time>2026-04-05T11:10:29.03Z</time></trkpt><trkpt lat="38.6406647" lon="-0.5848401"><ele>928.0</ele><time>2026-04-05T11:10:30.03Z</time></trkpt><trkpt lat="38.6405664" lon="-0.584823"><ele>928.0</ele><time>2026-04-05T11:10:31.03Z</time></trkpt><trkpt lat="38.6404644" lon="-0.5848399"><ele>928.0</ele><time>2026-04-05T11:10:32.031Z</time></trkpt><trkpt lat="38.6403735" lon="-0.5848906"><ele>928.0</ele><time>2026-04-05T11:10:33.03Z</time></trkpt><trkpt lat="38.6402979" lon="-0.5849394"><ele>928.0</ele><time>2026-04-05T11:10:34.031Z</time></trkpt><trkpt lat="38.6402298" lon="-0.5849722"><ele>928.0</ele><time>2026-04-05T11:10:35.03Z</time></trkpt><trkpt lat="38.6401084" lon="-0.5849708"><ele>929.5</ele><time>2026-04-05T11:10:37.03Z</time></trkpt><trkpt lat="38.6399987" lon="-0.5849017"><ele>931.0</ele><time>2026-04-05T11:10:39.03Z</time></trkpt><trkpt lat="38.6399398" lon="-0.5848287"><ele>932.5</ele><time>2026-04-05T11:10:40.03Z</time></trkpt><trkpt lat="38.6398836" lon="-0.584705"><ele>934.0</ele><time>2026-04-05T11:10:41.03Z</time></trkpt><trkpt lat="38.6398263" lon="-0.5845431"><ele>933.0</ele><time>2026-04-05T11:10:42.03Z</time></trkpt><trkpt lat="38.6397652" lon="-0.5843829"><ele>932.0</ele><time>2026-04-05T11:10:43.03Z</time></trkpt><trkpt lat="38.6396725" lon="-0.584146"><ele>931.0</ele><time>2026-04-05T11:10:44.031Z</time></trkpt><trkpt lat="38.6396105" lon="-0.5839427"><ele>931.0</ele><time>2026-04-05T11:10:45.03Z</time></trkpt><trkpt lat="38.639547" lon="-0.5837385"><ele>931.0</ele><time>2026-04-05T11:10:46.031Z</time></trkpt><trkpt lat="38.639485" lon="-0.5835474"><ele>931.0</ele><time>2026-04-05T11:10:47.03Z</time></trkpt><trkpt lat="38.6393883" lon="-0.5833823"><ele>934.0</ele><time>2026-04-05T11:10:48.031Z</time></trkpt><trkpt lat="38.6392573" lon="-0.5832113"><ele>937.0</ele><time>2026-04-05T11:10:49.031Z</time></trkpt><trkpt lat="38.6390811" lon="-0.5830427"><ele>940.0</ele><time>2026-04-05T11:10:50.03Z</time></trkpt><trkpt lat="38.6389095" lon="-0.5828898"><ele>939.6666666666666</ele><time>2026-04-05T11:10:51.031Z</time></trkpt><trkpt lat="38.6387812" lon="-0.5827444"><ele>939.3333333333333</ele><time>2026-04-05T11:10:52.03Z</time></trkpt><trkpt lat="38.638669" lon="-0.582581"><ele>939.0</ele><time>2026-04-05T11:10:53.031Z</time></trkpt><trkpt lat="38.6386228" lon="-0.582357"><ele>939.0</ele><time>2026-04-05T11:10:54.03Z</time></trkpt><trkpt lat="38.6385882" lon="-0.5821256"><ele>939.0</ele><time>2026-04-05T11:10:55.031Z</time></trkpt><trkpt lat="38.6385792" lon="-0.5819153"><ele>939.0</ele><time>2026-04-05T11:10:56.03Z</time></trkpt><trkpt lat="38.6385771" lon="-0.5817592"><ele>936.5</ele><time>2026-04-05T11:10:57.031Z</time></trkpt><trkpt lat="38.6385484" lon="-0.5816148"><ele>934.0</ele><time>2026-04-05T11:10:58.03Z</time></trkpt><trkpt lat="38.6384654" lon="-0.5814743"><ele>931.5</ele><time>2026-04-05T11:10:59.03Z</time></trkpt><trkpt lat="38.6383339" lon="-0.581317"><ele>929.0</ele><time>2026-04-05T11:11:00.031Z</time></trkpt><trkpt lat="38.6381803" lon="-0.581132"><ele>928.0</ele><time>2026-04-05T11:11:01.03Z</time></trkpt><trkpt lat="38.6380113" lon="-0.5809387"><ele>927.0</ele><time>2026-04-05T11:11:02.031Z</time></trkpt><trkpt lat="38.6378449" lon="-0.5807586"><ele>926.0</ele><time>2026-04-05T11:11:03.031Z</time></trkpt><trkpt lat="38.6376838" lon="-0.5806052"><ele>926.0</ele><time>2026-04-05T11:11:04.03Z</time></trkpt><trkpt lat="38.6375183" lon="-0.5804542"><ele>926.0</ele><time>2026-04-05T11:11:05.03Z</time></trkpt><trkpt lat="38.6373845" lon="-0.5803575"><ele>926.0</ele><time>2026-04-05T11:11:06.031Z</time></trkpt><trkpt lat="38.6372385" lon="-0.5802943"><ele>918.3333333333334</ele><time>2026-04-05T11:11:07.031Z</time></trkpt><trkpt lat="38.6370743" lon="-0.5802527"><ele>910.6666666666667</ele><time>2026-04-05T11:11:08.03Z</time></trkpt><trkpt lat="38.6368907" lon="-0.5802215"><ele>903.0</ele><time>2026-04-05T11:11:09.031Z</time></trkpt><trkpt lat="38.6366985" lon="-0.5801441"><ele>903.0</ele><time>2026-04-05T11:11:10.03Z</time></trkpt><trkpt lat="38.6365218" lon="-0.5800434"><ele>903.0</ele><time>2026-04-05T11:11:11.031Z</time></trkpt><trkpt lat="38.6363789" lon="-0.5799659"><ele>903.0</ele><time>2026-04-05T11:11:12.031Z</time></trkpt><trkpt lat="38.6362671" lon="-0.5799114"><ele>903.0</ele><time>2026-04-05T11:11:13.03Z</time></trkpt><trkpt lat="38.6361707" lon="-0.5798842"><ele>903.0</ele><time>2026-04-05T11:11:14.031Z</time></trkpt><trkpt lat="38.6360806" lon="-0.5799208"><ele>903.0</ele><time>2026-04-05T11:11:15.031Z</time></trkpt><trkpt lat="38.6360075" lon="-0.5800059"><ele>903.0</ele><time>2026-04-05T11:11:16.03Z</time></trkpt><trkpt lat="38.6359638" lon="-0.580136"><ele>903.0</ele><time>2026-04-05T11:11:17.031Z</time></trkpt><trkpt lat="38.635934" lon="-0.580289"><ele>904.0</ele><time>2026-04-05T11:11:18.031Z</time></trkpt><trkpt lat="38.6358831" lon="-0.5804302"><ele>905.0</ele><time>2026-04-05T11:11:19.031Z</time></trkpt><trkpt lat="38.6357953" lon="-0.5805276"><ele>906.0</ele><time>2026-04-05T11:11:20.031Z</time></trkpt><trkpt lat="38.6356815" lon="-0.5805865"><ele>907.0</ele><time>2026-04-05T11:11:21.031Z</time></trkpt><trkpt lat="38.6355713" lon="-0.5806465"><ele>907.0</ele><time>2026-04-05T11:11:22.031Z</time></trkpt><trkpt lat="38.6354833" lon="-0.5807369"><ele>907.0</ele><time>2026-04-05T11:11:23.03Z</time></trkpt><trkpt lat="38.6354155" lon="-0.5808631"><ele>907.0</ele><time>2026-04-05T11:11:24.031Z</time></trkpt><trkpt lat="38.6353857" lon="-0.5810259"><ele>907.0</ele><time>2026-04-05T11:11:25.03Z</time></trkpt><trkpt lat="38.6353673" lon="-0.5811975"><ele>909.8</ele><time>2026-04-05T11:11:26.03Z</time></trkpt><trkpt lat="38.6353373" lon="-0.5813363"><ele>912.6</ele><time>2026-04-05T11:11:27.03Z</time></trkpt><trkpt lat="38.635286" lon="-0.5814624"><ele>915.3999999999999</ele><time>2026-04-05T11:11:28.03Z</time></trkpt><trkpt lat="38.6352185" lon="-0.5815401"><ele>918.1999999999999</ele><time>2026-04-05T11:11:29.03Z</time></trkpt><trkpt lat="38.6350997" lon="-0.5815995"><ele>921.0</ele><time>2026-04-05T11:11:30.03Z</time></trkpt><trkpt lat="38.6349498" lon="-0.5816196"><ele>915.75</ele><time>2026-04-05T11:11:31.03Z</time></trkpt><trkpt lat="38.6348466" lon="-0.5816911"><ele>910.5</ele><time>2026-04-05T11:11:32.031Z</time></trkpt><trkpt lat="38.6347579" lon="-0.5818319"><ele>905.25</ele><time>2026-04-05T11:11:33.03Z</time></trkpt><trkpt lat="38.6346777" lon="-0.5820401"><ele>900.0</ele><time>2026-04-05T11:11:34.031Z</time></trkpt><trkpt lat="38.6345997" lon="-0.5822965"><ele>900.0</ele><time>2026-04-05T11:11:35.03Z</time></trkpt><trkpt lat="38.6345232" lon="-0.5825407"><ele>900.0</ele><time>2026-04-05T11:11:36.03Z</time></trkpt><trkpt lat="38.6344644" lon="-0.5827659"><ele>900.0</ele><time>2026-04-05T11:11:37.031Z</time></trkpt><trkpt lat="38.6344374" lon="-0.5829884"><ele>890.6666666666667</ele><time>2026-04-05T11:11:38.03Z</time></trkpt><trkpt lat="38.6344277" lon="-0.5832011"><ele>881.3333333333334</ele><time>2026-04-05T11:11:39.031Z</time></trkpt><trkpt lat="38.634406" lon="-0.5833948"><ele>872.0</ele><time>2026-04-05T11:11:40.031Z</time></trkpt><trkpt lat="38.6343467" lon="-0.5835728"><ele>871.6666666666667</ele><time>2026-04-05T11:11:41.03Z</time></trkpt><trkpt lat="38.6342556" lon="-0.5837317"><ele>871.3333333333333</ele><time>2026-04-05T11:11:42.03Z</time></trkpt><trkpt lat="38.6341731" lon="-0.583894"><ele>871.0</ele><time>2026-04-05T11:11:43.03Z</time></trkpt><trkpt lat="38.634118" lon="-0.5840802"><ele>871.0</ele><time>2026-04-05T11:11:44.031Z</time></trkpt><trkpt lat="38.6340951" lon="-0.5842727"><ele>871.0</ele><time>2026-04-05T11:11:45.03Z</time></trkpt><trkpt lat="38.6340894" lon="-0.5844682"><ele>871.0</ele><time>2026-04-05T11:11:46.03Z</time></trkpt><trkpt lat="38.6341608" lon="-0.584714"><ele>869.5</ele><time>2026-04-05T11:11:47.03Z</time></trkpt><trkpt lat="38.6342039" lon="-0.5849371"><ele>868.0</ele><time>2026-04-05T11:11:48.03Z</time></trkpt><trkpt lat="38.6342358" lon="-0.5851068"><ele>866.5</ele><time>2026-04-05T11:11:49.031Z</time></trkpt><trkpt lat="38.6342662" lon="-0.5852632"><ele>865.0</ele><time>2026-04-05T11:11:50.031Z</time></trkpt><trkpt lat="38.6343394" lon="-0.5853311"><ele>863.4</ele><time>2026-04-05T11:11:51.03Z</time></trkpt><trkpt lat="38.634423" lon="-0.5854106"><ele>861.8</ele><time>2026-04-05T11:11:52.03Z</time></trkpt><trkpt lat="38.6345225" lon="-0.5854478"><ele>860.2</ele><time>2026-04-05T11:11:53.031Z</time></trkpt><trkpt lat="38.6345967" lon="-0.5855306"><ele>858.6</ele><time>2026-04-05T11:11:54.031Z</time></trkpt><trkpt lat="38.6346166" lon="-0.5856576"><ele>857.0</ele><time>2026-04-05T11:11:55.03Z</time></trkpt><trkpt lat="38.6345854" lon="-0.585797"><ele>857.0</ele><time>2026-04-05T11:11:56.03Z</time></trkpt><trkpt lat="38.6345163" lon="-0.5859476"><ele>857.0</ele><time>2026-04-05T11:11:57.031Z</time></trkpt><trkpt lat="38.6344308" lon="-0.5861119"><ele>857.0</ele><time>2026-04-05T11:11:58.03Z</time></trkpt><trkpt lat="38.6343275" lon="-0.5863219"><ele>857.6666666666667</ele><time>2026-04-05T11:11:59.03Z</time></trkpt><trkpt lat="38.6342636" lon="-0.586542"><ele>858.3333333333333</ele><time>2026-04-05T11:12:00.03Z</time></trkpt><trkpt lat="38.6342064" lon="-0.5867434"><ele>859.0</ele><time>2026-04-05T11:12:01.031Z</time></trkpt><trkpt lat="38.6341519" lon="-0.586914"><ele>857.2</ele><time>2026-04-05T11:12:02.03Z</time></trkpt><trkpt lat="38.6340923" lon="-0.5870405"><ele>855.4000000000001</ele><time>2026-04-05T11:12:03.031Z</time></trkpt><trkpt lat="38.6340104" lon="-0.5871168"><ele>853.6</ele><time>2026-04-05T11:12:04.031Z</time></trkpt><trkpt lat="38.6339173" lon="-0.5871368"><ele>851.8</ele><time>2026-04-05T11:12:05.031Z</time></trkpt><trkpt lat="38.6338151" lon="-0.5871256"><ele>850.0</ele><time>2026-04-05T11:12:06.03Z</time></trkpt><trkpt lat="38.6337302" lon="-0.5870493"><ele>853.0</ele><time>2026-04-05T11:12:07.031Z</time></trkpt><trkpt lat="38.6336781" lon="-0.5869376"><ele>856.0</ele><time>2026-04-05T11:12:08.03Z</time></trkpt><trkpt lat="38.6336866" lon="-0.5866907"><ele>859.0</ele><time>2026-04-05T11:12:09.03Z</time></trkpt><trkpt lat="38.6337032" lon="-0.5864878"><ele>859.0</ele><time>2026-04-05T11:12:10.03Z</time></trkpt><trkpt lat="38.6337638" lon="-0.5862991"><ele>859.0</ele><time>2026-04-05T11:12:11.031Z</time></trkpt><trkpt lat="38.6337605" lon="-0.5861429"><ele>859.0</ele><time>2026-04-05T11:12:12.03Z</time></trkpt><trkpt lat="38.6337063" lon="-0.5860071"><ele>859.0</ele><time>2026-04-05T11:12:13.03Z</time></trkpt><trkpt lat="38.6336198" lon="-0.5859067"><ele>854.75</ele><time>2026-04-05T11:12:14.031Z</time></trkpt><trkpt lat="38.6335222" lon="-0.5858195"><ele>850.5</ele><time>2026-04-05T11:12:15.03Z</time></trkpt><trkpt lat="38.633433" lon="-0.5856936"><ele>846.25</ele><time>2026-04-05T11:12:16.031Z</time></trkpt><trkpt lat="38.6333608" lon="-0.5855458"><ele>842.0</ele><time>2026-04-05T11:12:17.03Z</time></trkpt><trkpt lat="38.6333203" lon="-0.585345"><ele>842.0</ele><time>2026-04-05T11:12:18.031Z</time></trkpt><trkpt lat="38.6333621" lon="-0.5850426"><ele>842.0</ele><time>2026-04-05T11:12:19.03Z</time></trkpt><trkpt lat="38.6333356" lon="-0.5847652"><ele>842.0</ele><time>2026-04-05T11:12:20.03Z</time></trkpt><trkpt lat="38.6333023" lon="-0.5845227"><ele>842.0</ele><time>2026-04-05T11:12:21.031Z</time></trkpt><trkpt lat="38.6332729" lon="-0.5842977"><ele>842.0</ele><time>2026-04-05T11:12:22.03Z</time></trkpt><trkpt lat="38.6332336" lon="-0.5841043"><ele>842.8</ele><time>2026-04-05T11:12:23.03Z</time></trkpt><trkpt lat="38.6331756" lon="-0.5839517"><ele>843.6</ele><time>2026-04-05T11:12:24.03Z</time></trkpt><trkpt lat="38.6330943" lon="-0.5838683"><ele>844.4</ele><time>2026-04-05T11:12:25.031Z</time></trkpt><trkpt lat="38.6329925" lon="-0.5838419"><ele>845.1999999999999</ele><time>2026-04-05T11:12:26.03Z</time></trkpt><trkpt lat="38.6328894" lon="-0.5838832"><ele>846.0</ele><time>2026-04-05T11:12:27.03Z</time></trkpt><trkpt lat="38.6328049" lon="-0.5839873"><ele>843.3333333333334</ele><time>2026-04-05T11:12:28.03Z</time></trkpt><trkpt lat="38.6327427" lon="-0.584106"><ele>840.6666666666667</ele><time>2026-04-05T11:12:29.031Z</time></trkpt><trkpt lat="38.6326697" lon="-0.5841973"><ele>838.0</ele><time>2026-04-05T11:12:30.031Z</time></trkpt><trkpt lat="38.632593" lon="-0.5841938"><ele>835.3333333333334</ele><time>2026-04-05T11:12:31.031Z</time></trkpt><trkpt lat="38.6325147" lon="-0.5841422"><ele>832.6666666666667</ele><time>2026-04-05T11:12:32.03Z</time></trkpt><trkpt lat="38.6324625" lon="-0.5840828"><ele>830.0</ele><time>2026-04-05T11:12:33.031Z</time></trkpt><trkpt lat="38.6324359" lon="-0.5840083"><ele>830.0</ele><time>2026-04-05T11:12:34.031Z</time></trkpt><trkpt lat="38.6324561" lon="-0.5838343"><ele>830.0</ele><time>2026-04-05T11:12:35.03Z</time></trkpt><trkpt lat="38.6325152" lon="-0.5835749"><ele>830.0</ele><time>2026-04-05T11:12:36.03Z</time></trkpt><trkpt lat="38.632592" lon="-0.5831912"><ele>829.3333333333334</ele><time>2026-04-05T11:12:37.03Z</time></trkpt><trkpt lat="38.6326352" lon="-0.5829378"><ele>828.6666666666667</ele><time>2026-04-05T11:12:38.031Z</time></trkpt><trkpt lat="38.6326399" lon="-0.5827459"><ele>828.0</ele><time>2026-04-05T11:12:39.031Z</time></trkpt><trkpt lat="38.6326002" lon="-0.5825566"><ele>827.3333333333333</ele><time>2026-04-05T11:12:40.031Z</time></trkpt><trkpt lat="38.632557" lon="-0.5823425"><ele>826.6666666666666</ele><time>2026-04-05T11:12:41.031Z</time></trkpt><trkpt lat="38.6325638" lon="-0.5820888"><ele>826.0</ele><time>2026-04-05T11:12:42.031Z</time></trkpt><trkpt lat="38.6326001" lon="-0.5818616"><ele>824.3333333333333</ele><time>2026-04-05T11:12:43.03Z</time></trkpt><trkpt lat="38.6326673" lon="-0.5816634"><ele>822.6666666666667</ele><time>2026-04-05T11:12:44.03Z</time></trkpt><trkpt lat="38.6327617" lon="-0.581505"><ele>821.0</ele><time>2026-04-05T11:12:45.03Z</time></trkpt><trkpt lat="38.6328571" lon="-0.5813737"><ele>824.75</ele><time>2026-04-05T11:12:46.03Z</time></trkpt><trkpt lat="38.6329103" lon="-0.5812394"><ele>828.5</ele><time>2026-04-05T11:12:47.03Z</time></trkpt><trkpt lat="38.6329395" lon="-0.5810924"><ele>832.25</ele><time>2026-04-05T11:12:48.03Z</time></trkpt><trkpt lat="38.6329307" lon="-0.5809485"><ele>836.0</ele><time>2026-04-05T11:12:49.031Z</time></trkpt><trkpt lat="38.6329125" lon="-0.5807137"><ele>836.0</ele><time>2026-04-05T11:12:50.03Z</time></trkpt><trkpt lat="38.6329227" lon="-0.5804777"><ele>836.0</ele><time>2026-04-05T11:12:51.031Z</time></trkpt><trkpt lat="38.6329599" lon="-0.580223"><ele>836.0</ele><time>2026-04-05T11:12:52.031Z</time></trkpt><trkpt lat="38.6329511" lon="-0.5799743"><ele>836.0</ele><time>2026-04-05T11:12:53.031Z</time></trkpt><trkpt lat="38.6329072" lon="-0.5797343"><ele>836.0</ele><time>2026-04-05T11:12:54.03Z</time></trkpt><trkpt lat="38.6328463" lon="-0.5795011"><ele>836.0</ele><time>2026-04-05T11:12:55.031Z</time></trkpt><trkpt lat="38.6327773" lon="-0.5792774"><ele>826.6666666666667</ele><time>2026-04-05T11:12:56.03Z</time></trkpt><trkpt lat="38.6327104" lon="-0.5791519"><ele>817.3333333333333</ele><time>2026-04-05T11:12:57.03Z</time></trkpt><trkpt lat="38.6326901" lon="-0.5789325"><ele>808.0</ele><time>2026-04-05T11:12:58.03Z</time></trkpt><trkpt lat="38.6326949" lon="-0.5786855"><ele>806.0</ele><time>2026-04-05T11:12:59.03Z</time></trkpt><trkpt lat="38.6327461" lon="-0.578363"><ele>804.0</ele><time>2026-04-05T11:13:00.031Z</time></trkpt><trkpt lat="38.6328177" lon="-0.5780353"><ele>812.0</ele><time>2026-04-05T11:13:01.031Z</time></trkpt><trkpt lat="38.6329044" lon="-0.5777239"><ele>820.0</ele><time>2026-04-05T11:13:02.03Z</time></trkpt><trkpt lat="38.6330039" lon="-0.5774312"><ele>820.0</ele><time>2026-04-05T11:13:03.03Z</time></trkpt><trkpt lat="38.6331119" lon="-0.5771612"><ele>820.0</ele><time>2026-04-05T11:13:04.03Z</time></trkpt><trkpt lat="38.6332128" lon="-0.576923"><ele>820.0</ele><time>2026-04-05T11:13:05.03Z</time></trkpt><trkpt lat="38.6332975" lon="-0.5767166"><ele>815.0</ele><time>2026-04-05T11:13:06.03Z</time></trkpt><trkpt lat="38.6333897" lon="-0.5765406"><ele>810.0</ele><time>2026-04-05T11:13:07.03Z</time></trkpt><trkpt lat="38.6335008" lon="-0.5763931"><ele>805.0</ele><time>2026-04-05T11:13:08.031Z</time></trkpt><trkpt lat="38.6336356" lon="-0.5762542"><ele>803.6666666666666</ele><time>2026-04-05T11:13:09.031Z</time></trkpt><trkpt lat="38.6337904" lon="-0.5761082"><ele>802.3333333333333</ele><time>2026-04-05T11:13:10.03Z</time></trkpt><trkpt lat="38.6339442" lon="-0.5759625"><ele>801.0</ele><time>2026-04-05T11:13:11.031Z</time></trkpt><trkpt lat="38.6340778" lon="-0.5758374"><ele>801.0</ele><time>2026-04-05T11:13:12.03Z</time></trkpt><trkpt lat="38.6341867" lon="-0.5757362"><ele>801.0</ele><time>2026-04-05T11:13:13.03Z</time></trkpt><trkpt lat="38.6342583" lon="-0.5756292"><ele>801.0</ele><time>2026-04-05T11:13:14.03Z</time></trkpt><trkpt lat="38.6342809" lon="-0.5754874"><ele>801.0</ele><time>2026-04-05T11:13:15.031Z</time></trkpt><trkpt lat="38.6342562" lon="-0.5753276"><ele>800.6666666666667</ele><time>2026-04-05T11:13:16.03Z</time></trkpt><trkpt lat="38.6341838" lon="-0.5751427"><ele>800.3333333333334</ele><time>2026-04-05T11:13:17.031Z</time></trkpt><trkpt lat="38.6340933" lon="-0.5749376"><ele>800.0</ele><time>2026-04-05T11:13:18.03Z</time></trkpt><trkpt lat="38.6339615" lon="-0.5746687"><ele>803.0</ele><time>2026-04-05T11:13:19.03Z</time></trkpt><trkpt lat="38.6338093" lon="-0.5744189"><ele>806.0</ele><time>2026-04-05T11:13:20.031Z</time></trkpt><trkpt lat="38.6336502" lon="-0.5742057"><ele>802.6666666666667</ele><time>2026-04-05T11:13:21.031Z</time></trkpt><trkpt lat="38.633516" lon="-0.5740205"><ele>799.3333333333333</ele><time>2026-04-05T11:13:22.031Z</time></trkpt><trkpt lat="38.6333989" lon="-0.5738448"><ele>796.0</ele><time>2026-04-05T11:13:23.03Z</time></trkpt><trkpt lat="38.6332951" lon="-0.5736794"><ele>795.3333333333333</ele><time>2026-04-05T11:13:24.031Z</time></trkpt><trkpt lat="38.6331942" lon="-0.5735219"><ele>794.6666666666667</ele><time>2026-04-05T11:13:25.031Z</time></trkpt><trkpt lat="38.6330937" lon="-0.5733579"><ele>794.0</ele><time>2026-04-05T11:13:26.03Z</time></trkpt><trkpt lat="38.6329979" lon="-0.5731955"><ele>794.0</ele><time>2026-04-05T11:13:27.031Z</time></trkpt><trkpt lat="38.632901" lon="-0.57304"><ele>794.0</ele><time>2026-04-05T11:13:28.031Z</time></trkpt><trkpt lat="38.6328063" lon="-0.5728849"><ele>794.0</ele><time>2026-04-05T11:13:29.03Z</time></trkpt><trkpt lat="38.6327145" lon="-0.5727292"><ele>792.25</ele><time>2026-04-05T11:13:30.03Z</time></trkpt><trkpt lat="38.6326149" lon="-0.572593"><ele>790.5</ele><time>2026-04-05T11:13:31.031Z</time></trkpt><trkpt lat="38.632532" lon="-0.5724672"><ele>788.75</ele><time>2026-04-05T11:13:32.031Z</time></trkpt><trkpt lat="38.632484" lon="-0.5723307"><ele>787.0</ele><time>2026-04-05T11:13:33.03Z</time></trkpt><trkpt lat="38.6324666" lon="-0.5722049"><ele>787.0</ele><time>2026-04-05T11:13:34.031Z</time></trkpt><trkpt lat="38.6324644" lon="-0.5720838"><ele>787.0</ele><time>2026-04-05T11:13:35.031Z</time></trkpt><trkpt lat="38.6325013" lon="-0.5719528"><ele>787.0</ele><time>2026-04-05T11:13:36.031Z</time></trkpt><trkpt lat="38.6327184" lon="-0.571748"><ele>787.5</ele><time>2026-04-05T11:13:37.03Z</time></trkpt><trkpt lat="38.632824" lon="-0.5716087"><ele>788.0</ele><time>2026-04-05T11:13:38.03Z</time></trkpt><trkpt lat="38.6329089" lon="-0.57149"><ele>788.5</ele><time>2026-04-05T11:13:39.031Z</time></trkpt><trkpt lat="38.6329508" lon="-0.5713592"><ele>789.0</ele><time>2026-04-05T11:13:40.031Z</time></trkpt><trkpt lat="38.6329491" lon="-0.5712278"><ele>789.75</ele><time>2026-04-05T11:13:41.031Z</time></trkpt><trkpt lat="38.6328882" lon="-0.5711225"><ele>790.5</ele><time>2026-04-05T11:13:42.031Z</time></trkpt><trkpt lat="38.6327915" lon="-0.5710673"><ele>791.25</ele><time>2026-04-05T11:13:43.031Z</time></trkpt><trkpt lat="38.6326572" lon="-0.5710677"><ele>792.0</ele><time>2026-04-05T11:13:44.031Z</time></trkpt><trkpt lat="38.6325018" lon="-0.5710988"><ele>790.25</ele><time>2026-04-05T11:13:45.031Z</time></trkpt><trkpt lat="38.6323659" lon="-0.5711317"><ele>788.5</ele><time>2026-04-05T11:13:46.031Z</time></trkpt><trkpt lat="38.6322501" lon="-0.5711558"><ele>786.75</ele><time>2026-04-05T11:13:47.03Z</time></trkpt><trkpt lat="38.6321396" lon="-0.5711784"><ele>785.0</ele><time>2026-04-05T11:13:48.031Z</time></trkpt><trkpt lat="38.6320421" lon="-0.5711956"><ele>784.0000000000001</ele><time>2026-04-05T11:13:49.031Z</time></trkpt><trkpt lat="38.6319609" lon="-0.5712142"><ele>783.0</ele><time>2026-04-05T11:13:50.031Z</time></trkpt><trkpt lat="38.631888" lon="-0.5712316"><ele>782.0</ele><time>2026-04-05T11:13:51.03Z</time></trkpt><trkpt lat="38.6318198" lon="-0.5712438"><ele>781.0</ele><time>2026-04-05T11:13:52.031Z</time></trkpt><trkpt lat="38.6317506" lon="-0.5712599"><ele>780.0000000000001</ele><time>2026-04-05T11:13:53.03Z</time></trkpt><trkpt lat="38.6316513" lon="-0.5712797"><ele>779.0</ele><time>2026-04-05T11:13:55.031Z</time></trkpt><trkpt lat="38.6315847" lon="-0.571282"><ele>779.0</ele><time>2026-04-05T11:13:57.03Z</time></trkpt><trkpt lat="38.6314603" lon="-0.5712857"><ele>779.0</ele><time>2026-04-05T11:14:06.03Z</time></trkpt><trkpt lat="38.6313778" lon="-0.571295"><ele>779.0</ele><time>2026-04-05T11:14:07.03Z</time></trkpt><trkpt lat="38.6312987" lon="-0.5713121"><ele>779.0</ele><time>2026-04-05T11:14:08.03Z</time></trkpt><trkpt lat="38.6312311" lon="-0.5713305"><ele>779.0</ele><time>2026-04-05T11:14:09.03Z</time></trkpt><trkpt lat="38.6311348" lon="-0.571354"><ele>779.3333333333334</ele><time>2026-04-05T11:14:11.031Z</time></trkpt><trkpt lat="38.6310378" lon="-0.5713721"><ele>779.6666666666667</ele><time>2026-04-05T11:14:13.031Z</time></trkpt><trkpt lat="38.6309694" lon="-0.5713781"><ele>780.0</ele><time>2026-04-05T11:14:14.03Z</time></trkpt><trkpt lat="38.6309041" lon="-0.5713847"><ele>780.3333333333333</ele><time>2026-04-05T11:14:15.031Z</time></trkpt><trkpt lat="38.6307994" lon="-0.5713926"><ele>780.6666666666666</ele><time>2026-04-05T11:14:17.03Z</time></trkpt><trkpt lat="38.6306995" lon="-0.5714122"><ele>781.0</ele><time>2026-04-05T11:14:19.031Z</time></trkpt><trkpt lat="38.6305816" lon="-0.5714204"><ele>781.0</ele><time>2026-04-05T11:14:21.03Z</time></trkpt><trkpt lat="38.6304688" lon="-0.5714264"><ele>781.0</ele><time>2026-04-05T11:14:23.03Z</time></trkpt><trkpt lat="38.6304042" lon="-0.5714273"><ele>781.0</ele><time>2026-04-05T11:14:24.031Z</time></trkpt><trkpt lat="38.6302789" lon="-0.5714201"><ele>781.0</ele><time>2026-04-05T11:14:26.03Z</time></trkpt><trkpt lat="38.6302064" lon="-0.5714248"><ele>781.0</ele><time>2026-04-05T11:14:27.031Z</time></trkpt><trkpt lat="38.6300872" lon="-0.5714083"><ele>781.6666666666666</ele><time>2026-04-05T11:14:29.03Z</time></trkpt><trkpt lat="38.6300099" lon="-0.5714055"><ele>782.3333333333333</ele><time>2026-04-05T11:14:31.031Z</time></trkpt><trkpt lat="38.6300036" lon="-0.571486"><ele>783.0</ele><time>2026-04-05T11:17:17.03Z</time></trkpt><trkpt lat="38.629925" lon="-0.5714369"><ele>783.6666666666667</ele><time>2026-04-05T11:19:41.031Z</time></trkpt><trkpt lat="38.6298035" lon="-0.5714332"><ele>784.3333333333334</ele><time>2026-04-05T11:19:43.03Z</time></trkpt><trkpt lat="38.6297326" lon="-0.5714366"><ele>785.0</ele><time>2026-04-05T11:19:44.031Z</time></trkpt><trkpt lat="38.6296574" lon="-0.5714384"><ele>785.0000000000001</ele><time>2026-04-05T11:19:45.031Z</time></trkpt><trkpt lat="38.6295832" lon="-0.5714387"><ele>785.0</ele><time>2026-04-05T11:19:46.031Z</time></trkpt><trkpt lat="38.6295071" lon="-0.5714371"><ele>785.0</ele><time>2026-04-05T11:19:47.03Z</time></trkpt><trkpt lat="38.6294216" lon="-0.5714388"><ele>785.0</ele><time>2026-04-05T11:19:48.03Z</time></trkpt><trkpt lat="38.6293328" lon="-0.5714441"><ele>785.0000000000001</ele><time>2026-04-05T11:19:49.031Z</time></trkpt><trkpt lat="38.629242" lon="-0.5714531"><ele>785.0</ele><time>2026-04-05T11:19:50.03Z</time></trkpt><trkpt lat="38.629151" lon="-0.5714764"><ele>784.6</ele><time>2026-04-05T11:19:51.03Z</time></trkpt><trkpt lat="38.6290505" lon="-0.5715103"><ele>784.2</ele><time>2026-04-05T11:19:52.031Z</time></trkpt><trkpt lat="38.6289499" lon="-0.5715629"><ele>783.8</ele><time>2026-04-05T11:19:53.03Z</time></trkpt><trkpt lat="38.6288532" lon="-0.5716125"><ele>783.4</ele><time>2026-04-05T11:19:54.031Z</time></trkpt><trkpt lat="38.6287435" lon="-0.5716751"><ele>783.0</ele><time>2026-04-05T11:19:55.031Z</time></trkpt><trkpt lat="38.6286344" lon="-0.5717436"><ele>780.0</ele><time>2026-04-05T11:19:56.031Z</time></trkpt><trkpt lat="38.6285302" lon="-0.5718055"><ele>777.0</ele><time>2026-04-05T11:19:57.03Z</time></trkpt><trkpt lat="38.6284236" lon="-0.5718637"><ele>774.0</ele><time>2026-04-05T11:19:58.031Z</time></trkpt><trkpt lat="38.6283234" lon="-0.5719314"><ele>771.0</ele><time>2026-04-05T11:19:59.03Z</time></trkpt><trkpt lat="38.628223" lon="-0.5719809"><ele>772.0</ele><time>2026-04-05T11:20:00.031Z</time></trkpt><trkpt lat="38.6281111" lon="-0.5720422"><ele>773.0</ele><time>2026-04-05T11:20:01.03Z</time></trkpt><trkpt lat="38.6279975" lon="-0.5721018"><ele>774.0</ele><time>2026-04-05T11:20:02.031Z</time></trkpt><trkpt lat="38.6278825" lon="-0.5721596"><ele>775.0</ele><time>2026-04-05T11:20:03.031Z</time></trkpt><trkpt lat="38.6277733" lon="-0.57222"><ele>772.75</ele><time>2026-04-05T11:20:04.03Z</time></trkpt><trkpt lat="38.6276699" lon="-0.5722749"><ele>770.5</ele><time>2026-04-05T11:20:05.031Z</time></trkpt><trkpt lat="38.6275586" lon="-0.5723195"><ele>768.25</ele><time>2026-04-05T11:20:06.03Z</time></trkpt><trkpt lat="38.6274445" lon="-0.5723623"><ele>766.0</ele><time>2026-04-05T11:20:07.03Z</time></trkpt><trkpt lat="38.6273292" lon="-0.5724168"><ele>766.0</ele><time>2026-04-05T11:20:08.03Z</time></trkpt><trkpt lat="38.6272148" lon="-0.5724695"><ele>766.0</ele><time>2026-04-05T11:20:09.03Z</time></trkpt><trkpt lat="38.6271135" lon="-0.5725193"><ele>766.0</ele><time>2026-04-05T11:20:10.031Z</time></trkpt><trkpt lat="38.6270196" lon="-0.5725718"><ele>766.0</ele><time>2026-04-05T11:20:11.03Z</time></trkpt><trkpt lat="38.6269225" lon="-0.5726136"><ele>766.0</ele><time>2026-04-05T11:20:12.03Z</time></trkpt><trkpt lat="38.6268566" lon="-0.5726561"><ele>765.0</ele><time>2026-04-05T11:20:13.031Z</time></trkpt><trkpt lat="38.6267774" lon="-0.572688"><ele>764.0</ele><time>2026-04-05T11:20:15.031Z</time></trkpt><trkpt lat="38.6266992" lon="-0.5726477"><ele>763.0</ele><time>2026-04-05T11:20:18.03Z</time></trkpt><trkpt lat="38.6266541" lon="-0.5725149"><ele>762.0</ele><time>2026-04-05T11:20:20.03Z</time></trkpt><trkpt lat="38.6266389" lon="-0.5724193"><ele>761.0</ele><time>2026-04-05T11:20:21.03Z</time></trkpt><trkpt lat="38.6266235" lon="-0.5723203"><ele>760.0</ele><time>2026-04-05T11:20:22.03Z</time></trkpt><trkpt lat="38.6266035" lon="-0.5722159"><ele>760.0</ele><time>2026-04-05T11:20:23.031Z</time></trkpt><trkpt lat="38.6265843" lon="-0.5721114"><ele>760.0</ele><time>2026-04-05T11:20:24.031Z</time></trkpt><trkpt lat="38.6265713" lon="-0.5720009"><ele>760.0</ele><time>2026-04-05T11:20:25.031Z</time></trkpt><trkpt lat="38.6265687" lon="-0.5718752"><ele>760.0</ele><time>2026-04-05T11:20:26.031Z</time></trkpt><trkpt lat="38.6265767" lon="-0.5717542"><ele>760.0</ele><time>2026-04-05T11:20:27.03Z</time></trkpt><trkpt lat="38.6265838" lon="-0.5716294"><ele>760.2</ele><time>2026-04-05T11:20:28.03Z</time></trkpt><trkpt lat="38.6265893" lon="-0.5715081"><ele>760.4</ele><time>2026-04-05T11:20:29.03Z</time></trkpt><trkpt lat="38.6265923" lon="-0.5713895"><ele>760.5999999999999</ele><time>2026-04-05T11:20:30.031Z</time></trkpt><trkpt lat="38.6265938" lon="-0.5712699"><ele>760.8</ele><time>2026-04-05T11:20:31.03Z</time></trkpt><trkpt lat="38.6265977" lon="-0.571146"><ele>761.0</ele><time>2026-04-05T11:20:32.03Z</time></trkpt><trkpt lat="38.626598" lon="-0.5710162"><ele>761.0</ele><time>2026-04-05T11:20:33.031Z</time></trkpt><trkpt lat="38.626604" lon="-0.5708827"><ele>761.0</ele><time>2026-04-05T11:20:34.03Z</time></trkpt><trkpt lat="38.6266107" lon="-0.5707443"><ele>761.0</ele><time>2026-04-05T11:20:35.031Z</time></trkpt><trkpt lat="38.6266141" lon="-0.5706059"><ele>761.0</ele><time>2026-04-05T11:20:36.03Z</time></trkpt><trkpt lat="38.6266208" lon="-0.5704634"><ele>761.0</ele><time>2026-04-05T11:20:37.03Z</time></trkpt><trkpt lat="38.6266259" lon="-0.5703238"><ele>761.0</ele><time>2026-04-05T11:20:38.031Z</time></trkpt><trkpt lat="38.6266326" lon="-0.5701841"><ele>761.0</ele><time>2026-04-05T11:20:39.031Z</time></trkpt><trkpt lat="38.6266415" lon="-0.5700428"><ele>761.0</ele><time>2026-04-05T11:20:40.03Z</time></trkpt><trkpt lat="38.6266476" lon="-0.5699039"><ele>761.0</ele><time>2026-04-05T11:20:41.031Z</time></trkpt><trkpt lat="38.6266517" lon="-0.5697563"><ele>761.0</ele><time>2026-04-05T11:20:42.03Z</time></trkpt><trkpt lat="38.626656" lon="-0.5696096"><ele>760.75</ele><time>2026-04-05T11:20:43.031Z</time></trkpt><trkpt lat="38.62666" lon="-0.5694668"><ele>760.5</ele><time>2026-04-05T11:20:44.031Z</time></trkpt><trkpt lat="38.6266596" lon="-0.5693273"><ele>760.25</ele><time>2026-04-05T11:20:45.031Z</time></trkpt><trkpt lat="38.626668" lon="-0.5691647"><ele>760.0</ele><time>2026-04-05T11:20:46.031Z</time></trkpt><trkpt lat="38.6266818" lon="-0.5689743"><ele>760.0</ele><time>2026-04-05T11:20:47.03Z</time></trkpt><trkpt lat="38.626685" lon="-0.5688093"><ele>760.0</ele><time>2026-04-05T11:20:48.031Z</time></trkpt><trkpt lat="38.6266922" lon="-0.5686659"><ele>760.0</ele><time>2026-04-05T11:20:49.03Z</time></trkpt><trkpt lat="38.6266971" lon="-0.5685376"><ele>760.0</ele><time>2026-04-05T11:20:50.03Z</time></trkpt><trkpt lat="38.6267002" lon="-0.5684153"><ele>760.0</ele><time>2026-04-05T11:20:51.03Z</time></trkpt><trkpt lat="38.6267034" lon="-0.5682893"><ele>760.0</ele><time>2026-04-05T11:20:52.03Z</time></trkpt><trkpt lat="38.6267087" lon="-0.5681686"><ele>760.0</ele><time>2026-04-05T11:20:53.03Z</time></trkpt><trkpt lat="38.6267108" lon="-0.5680518"><ele>760.0</ele><time>2026-04-05T11:20:54.031Z</time></trkpt><trkpt lat="38.6267096" lon="-0.5679476"><ele>760.0</ele><time>2026-04-05T11:20:55.03Z</time></trkpt><trkpt lat="38.6267059" lon="-0.5678542"><ele>760.0</ele><time>2026-04-05T11:20:56.031Z</time></trkpt><trkpt lat="38.6266727" lon="-0.5677122"><ele>760.0</ele><time>2026-04-05T11:20:58.03Z</time></trkpt><trkpt lat="38.6265789" lon="-0.5677179"><ele>760.0</ele><time>2026-04-05T11:21:00.03Z</time></trkpt><trkpt lat="38.6265044" lon="-0.5678332"><ele>760.0</ele><time>2026-04-05T11:21:02.03Z</time></trkpt><trkpt lat="38.6264591" lon="-0.5679215"><ele>760.0</ele><time>2026-04-05T11:21:03.031Z</time></trkpt><trkpt lat="38.6264039" lon="-0.5680163"><ele>760.0</ele><time>2026-04-05T11:21:04.031Z</time></trkpt><trkpt lat="38.6263398" lon="-0.5681189"><ele>760.0</ele><time>2026-04-05T11:21:05.031Z</time></trkpt><trkpt lat="38.6262749" lon="-0.5682269"><ele>760.0</ele><time>2026-04-05T11:21:06.03Z</time></trkpt><trkpt lat="38.6262083" lon="-0.5683452"><ele>760.0</ele><time>2026-04-05T11:21:07.031Z</time></trkpt><trkpt lat="38.6261433" lon="-0.5684702"><ele>760.0</ele><time>2026-04-05T11:21:08.03Z</time></trkpt><trkpt lat="38.6260809" lon="-0.5685952"><ele>759.25</ele><time>2026-04-05T11:21:09.031Z</time></trkpt><trkpt lat="38.6260146" lon="-0.5687212"><ele>758.5</ele><time>2026-04-05T11:21:10.031Z</time></trkpt><trkpt lat="38.6259494" lon="-0.568852"><ele>757.75</ele><time>2026-04-05T11:21:11.03Z</time></trkpt><trkpt lat="38.6258808" lon="-0.5689792"><ele>757.0</ele><time>2026-04-05T11:21:12.031Z</time></trkpt><trkpt lat="38.6258123" lon="-0.5691085"><ele>757.0</ele><time>2026-04-05T11:21:13.031Z</time></trkpt><trkpt lat="38.6257447" lon="-0.5692335"><ele>757.0</ele><time>2026-04-05T11:21:14.03Z</time></trkpt><trkpt lat="38.6256784" lon="-0.5693592"><ele>757.0</ele><time>2026-04-05T11:21:15.031Z</time></trkpt><trkpt lat="38.6256095" lon="-0.5694822"><ele>757.0</ele><time>2026-04-05T11:21:16.031Z</time></trkpt><trkpt lat="38.6255437" lon="-0.5696062"><ele>757.2</ele><time>2026-04-05T11:21:17.03Z</time></trkpt><trkpt lat="38.6254798" lon="-0.5697274"><ele>757.4000000000001</ele><time>2026-04-05T11:21:18.031Z</time></trkpt><trkpt lat="38.625423" lon="-0.5698487"><ele>757.5999999999999</ele><time>2026-04-05T11:21:19.03Z</time></trkpt><trkpt lat="38.6253807" lon="-0.5699641"><ele>757.8</ele><time>2026-04-05T11:21:20.031Z</time></trkpt><trkpt lat="38.6253346" lon="-0.5700731"><ele>758.0</ele><time>2026-04-05T11:21:21.03Z</time></trkpt><trkpt lat="38.6252772" lon="-0.5701786"><ele>756.5999999999999</ele><time>2026-04-05T11:21:22.03Z</time></trkpt><trkpt lat="38.6252085" lon="-0.5702784"><ele>755.1999999999999</ele><time>2026-04-05T11:21:23.031Z</time></trkpt><trkpt lat="38.6251376" lon="-0.5703854"><ele>753.8</ele><time>2026-04-05T11:21:24.031Z</time></trkpt><trkpt lat="38.6250807" lon="-0.5704909"><ele>752.4</ele><time>2026-04-05T11:21:25.03Z</time></trkpt><trkpt lat="38.6250199" lon="-0.5706033"><ele>751.0</ele><time>2026-04-05T11:21:26.03Z</time></trkpt><trkpt lat="38.62496" lon="-0.5707104"><ele>750.8</ele><time>2026-04-05T11:21:27.031Z</time></trkpt><trkpt lat="38.6249113" lon="-0.5708055"><ele>750.5999999999999</ele><time>2026-04-05T11:21:28.03Z</time></trkpt><trkpt lat="38.6248576" lon="-0.5709017"><ele>750.4</ele><time>2026-04-05T11:21:29.031Z</time></trkpt><trkpt lat="38.6248015" lon="-0.5710034"><ele>750.2</ele><time>2026-04-05T11:21:30.03Z</time></trkpt><trkpt lat="38.6247491" lon="-0.5711027"><ele>750.0</ele><time>2026-04-05T11:21:31.03Z</time></trkpt><trkpt lat="38.6247015" lon="-0.5711997"><ele>749.8333333333334</ele><time>2026-04-05T11:21:32.03Z</time></trkpt><trkpt lat="38.6246558" lon="-0.5712872"><ele>749.6666666666666</ele><time>2026-04-05T11:21:33.03Z</time></trkpt><trkpt lat="38.6246102" lon="-0.571371"><ele>749.5</ele><time>2026-04-05T11:21:34.03Z</time></trkpt><trkpt lat="38.6245685" lon="-0.5714497"><ele>749.3333333333333</ele><time>2026-04-05T11:21:35.031Z</time></trkpt><trkpt lat="38.6245226" lon="-0.5715302"><ele>749.1666666666666</ele><time>2026-04-05T11:21:36.03Z</time></trkpt><trkpt lat="38.6244777" lon="-0.5716042"><ele>749.0</ele><time>2026-04-05T11:21:37.031Z</time></trkpt><trkpt lat="38.6244363" lon="-0.5716777"><ele>748.7142857142857</ele><time>2026-04-05T11:21:38.031Z</time></trkpt><trkpt lat="38.6243982" lon="-0.5717493"><ele>748.4285714285714</ele><time>2026-04-05T11:21:39.03Z</time></trkpt><trkpt lat="38.6243624" lon="-0.5718215"><ele>748.1428571428571</ele><time>2026-04-05T11:21:40.031Z</time></trkpt><trkpt lat="38.6243242" lon="-0.5718895"><ele>747.8571428571429</ele><time>2026-04-05T11:21:41.03Z</time></trkpt><trkpt lat="38.6242872" lon="-0.5719605"><ele>747.5714285714286</ele><time>2026-04-05T11:21:42.031Z</time></trkpt><trkpt lat="38.6242521" lon="-0.5720279"><ele>747.2857142857142</ele><time>2026-04-05T11:21:43.031Z</time></trkpt><trkpt lat="38.6242167" lon="-0.5720957"><ele>747.0</ele><time>2026-04-05T11:21:44.03Z</time></trkpt><trkpt lat="38.624183" lon="-0.5721651"><ele>747.0</ele><time>2026-04-05T11:21:45.03Z</time></trkpt><trkpt lat="38.6241126" lon="-0.5722752"><ele>747.0</ele><time>2026-04-05T11:21:47.031Z</time></trkpt><trkpt lat="38.6240734" lon="-0.5723571"><ele>747.0</ele><time>2026-04-05T11:21:49.03Z</time></trkpt><trkpt lat="38.6240378" lon="-0.5724259"><ele>747.0</ele><time>2026-04-05T11:21:53.03Z</time></trkpt><trkpt lat="38.6239791" lon="-0.5725393"><ele>747.0</ele><time>2026-04-05T11:22:10.03Z</time></trkpt><trkpt lat="38.6239221" lon="-0.5726313"><ele>747.0</ele><time>2026-04-05T11:22:12.03Z</time></trkpt><trkpt lat="38.623877" lon="-0.5727168"><ele>747.0</ele><time>2026-04-05T11:22:14.03Z</time></trkpt><trkpt lat="38.6238165" lon="-0.572818"><ele>747.0</ele><time>2026-04-05T11:22:16.031Z</time></trkpt><trkpt lat="38.6237371" lon="-0.5729471"><ele>747.0</ele><time>2026-04-05T11:22:18.03Z</time></trkpt><trkpt lat="38.623694" lon="-0.5730205"><ele>747.0</ele><time>2026-04-05T11:22:19.03Z</time></trkpt><trkpt lat="38.6236544" lon="-0.5730882"><ele>747.0</ele><time>2026-04-05T11:22:20.031Z</time></trkpt><trkpt lat="38.6236138" lon="-0.573165"><ele>747.0</ele><time>2026-04-05T11:22:21.03Z</time></trkpt><trkpt lat="38.6235514" lon="-0.5732842"><ele>747.0</ele><time>2026-04-05T11:22:23.031Z</time></trkpt><trkpt lat="38.6234867" lon="-0.5733953"><ele>747.0</ele><time>2026-04-05T11:22:25.03Z</time></trkpt><trkpt lat="38.6234304" lon="-0.5735069"><ele>747.0</ele><time>2026-04-05T11:22:27.03Z</time></trkpt><trkpt lat="38.6233518" lon="-0.5736407"><ele>747.0</ele><time>2026-04-05T11:22:29.03Z</time></trkpt><trkpt lat="38.623303" lon="-0.5737215"><ele>747.0</ele><time>2026-04-05T11:22:30.03Z</time></trkpt><trkpt lat="38.6232523" lon="-0.5738029"><ele>746.0</ele><time>2026-04-05T11:22:31.031Z</time></trkpt><trkpt lat="38.6232058" lon="-0.5738876"><ele>745.0</ele><time>2026-04-05T11:22:32.03Z</time></trkpt><trkpt lat="38.6231618" lon="-0.573966"><ele>744.0</ele><time>2026-04-05T11:22:33.03Z</time></trkpt><trkpt lat="38.6231218" lon="-0.5740326"><ele>743.0</ele><time>2026-04-05T11:22:34.03Z</time></trkpt><trkpt lat="38.6230501" lon="-0.5741518"><ele>742.0</ele><time>2026-04-05T11:22:36.03Z</time></trkpt><trkpt lat="38.6230007" lon="-0.5742348"><ele>741.0</ele><time>2026-04-05T11:22:38.03Z</time></trkpt><trkpt lat="38.6229572" lon="-0.574298"><ele>741.0</ele><time>2026-04-05T11:22:41.03Z</time></trkpt><trkpt lat="38.6229009" lon="-0.5743808"><ele>741.0</ele><time>2026-04-05T11:22:47.03Z</time></trkpt><trkpt lat="38.6228759" lon="-0.5744629"><ele>741.0</ele><time>2026-04-05T11:22:49.03Z</time></trkpt><trkpt lat="38.6228336" lon="-0.5745772"><ele>741.0</ele><time>2026-04-05T11:22:51.03Z</time></trkpt><trkpt lat="38.6227946" lon="-0.57465"><ele>741.0</ele><time>2026-04-05T11:22:52.031Z</time></trkpt><trkpt lat="38.6227442" lon="-0.5747316"><ele>741.0</ele><time>2026-04-05T11:22:53.03Z</time></trkpt><trkpt lat="38.6226902" lon="-0.5748202"><ele>740.1999999999999</ele><time>2026-04-05T11:22:54.03Z</time></trkpt><trkpt lat="38.6226375" lon="-0.574913"><ele>739.4</ele><time>2026-04-05T11:22:55.03Z</time></trkpt><trkpt lat="38.622585" lon="-0.5750067"><ele>738.6</ele><time>2026-04-05T11:22:56.031Z</time></trkpt><trkpt lat="38.6225296" lon="-0.5751019"><ele>737.8</ele><time>2026-04-05T11:22:57.03Z</time></trkpt><trkpt lat="38.6224754" lon="-0.5751958"><ele>737.0</ele><time>2026-04-05T11:22:58.031Z</time></trkpt><trkpt lat="38.6224157" lon="-0.5752859"><ele>736.8</ele><time>2026-04-05T11:22:59.031Z</time></trkpt><trkpt lat="38.6223569" lon="-0.5753747"><ele>736.6</ele><time>2026-04-05T11:23:00.031Z</time></trkpt><trkpt lat="38.6223011" lon="-0.5754589"><ele>736.4</ele><time>2026-04-05T11:23:01.03Z</time></trkpt><trkpt lat="38.622243" lon="-0.5755519"><ele>736.1999999999999</ele><time>2026-04-05T11:23:02.03Z</time></trkpt><trkpt lat="38.6221822" lon="-0.5756551"><ele>736.0</ele><time>2026-04-05T11:23:03.031Z</time></trkpt><trkpt lat="38.6221185" lon="-0.5757627"><ele>736.0</ele><time>2026-04-05T11:23:04.03Z</time></trkpt><trkpt lat="38.6220437" lon="-0.57588"><ele>736.0</ele><time>2026-04-05T11:23:05.031Z</time></trkpt><trkpt lat="38.6219746" lon="-0.575999"><ele>736.0</ele><time>2026-04-05T11:23:06.03Z</time></trkpt><trkpt lat="38.6219006" lon="-0.5761371"><ele>736.0</ele><time>2026-04-05T11:23:07.03Z</time></trkpt><trkpt lat="38.6218236" lon="-0.5762609"><ele>733.75</ele><time>2026-04-05T11:23:08.031Z</time></trkpt><trkpt lat="38.6217562" lon="-0.5763933"><ele>731.5</ele><time>2026-04-05T11:23:09.03Z</time></trkpt><trkpt lat="38.6216823" lon="-0.5765221"><ele>729.25</ele><time>2026-04-05T11:23:10.03Z</time></trkpt><trkpt lat="38.6216127" lon="-0.5766476"><ele>727.0</ele><time>2026-04-05T11:23:11.03Z</time></trkpt><trkpt lat="38.6215518" lon="-0.5767621"><ele>727.0</ele><time>2026-04-05T11:23:12.03Z</time></trkpt><trkpt lat="38.6214954" lon="-0.5768685"><ele>727.0</ele><time>2026-04-05T11:23:13.031Z</time></trkpt><trkpt lat="38.6214338" lon="-0.5769673"><ele>727.0</ele><time>2026-04-05T11:23:14.03Z</time></trkpt><trkpt lat="38.6213751" lon="-0.5770746"><ele>727.0</ele><time>2026-04-05T11:23:15.031Z</time></trkpt><trkpt lat="38.6213234" lon="-0.5771747"><ele>727.0</ele><time>2026-04-05T11:23:16.031Z</time></trkpt><trkpt lat="38.6212638" lon="-0.5772841"><ele>727.0</ele><time>2026-04-05T11:23:17.031Z</time></trkpt><trkpt lat="38.6211861" lon="-0.5774218"><ele>727.0</ele><time>2026-04-05T11:23:18.031Z</time></trkpt><trkpt lat="38.6211224" lon="-0.5775376"><ele>727.0</ele><time>2026-04-05T11:23:19.03Z</time></trkpt><trkpt lat="38.6210627" lon="-0.577639"><ele>727.0</ele><time>2026-04-05T11:23:20.03Z</time></trkpt><trkpt lat="38.6210173" lon="-0.5777173"><ele>727.0</ele><time>2026-04-05T11:23:21.031Z</time></trkpt><trkpt lat="38.6209585" lon="-0.5778189"><ele>726.5</ele><time>2026-04-05T11:23:23.03Z</time></trkpt><trkpt lat="38.6209154" lon="-0.5779295"><ele>726.0</ele><time>2026-04-05T11:23:26.03Z</time></trkpt><trkpt lat="38.6208606" lon="-0.57806"><ele>725.5</ele><time>2026-04-05T11:23:28.031Z</time></trkpt><trkpt lat="38.6208194" lon="-0.5781327"><ele>725.0</ele><time>2026-04-05T11:23:29.03Z</time></trkpt><trkpt lat="38.6207817" lon="-0.5782041"><ele>724.5</ele><time>2026-04-05T11:23:30.03Z</time></trkpt><trkpt lat="38.6207484" lon="-0.5782796"><ele>724.0</ele><time>2026-04-05T11:23:31.03Z</time></trkpt><trkpt lat="38.620721" lon="-0.5783529"><ele>724.0</ele><time>2026-04-05T11:23:32.031Z</time></trkpt><trkpt lat="38.6206773" lon="-0.5784928"><ele>724.0</ele><time>2026-04-05T11:23:34.03Z</time></trkpt><trkpt lat="38.6206422" lon="-0.5786386"><ele>724.0</ele><time>2026-04-05T11:23:36.03Z</time></trkpt><trkpt lat="38.6206251" lon="-0.5787297"><ele>724.0</ele><time>2026-04-05T11:23:37.03Z</time></trkpt><trkpt lat="38.6206145" lon="-0.5788303"><ele>724.0</ele><time>2026-04-05T11:23:38.03Z</time></trkpt><trkpt lat="38.6206106" lon="-0.5789303"><ele>723.5</ele><time>2026-04-05T11:23:39.031Z</time></trkpt><trkpt lat="38.6206122" lon="-0.5790274"><ele>723.0</ele><time>2026-04-05T11:23:40.031Z</time></trkpt><trkpt lat="38.6206189" lon="-0.5791259"><ele>722.5</ele><time>2026-04-05T11:23:41.031Z</time></trkpt><trkpt lat="38.6206309" lon="-0.579234"><ele>722.0</ele><time>2026-04-05T11:23:42.031Z</time></trkpt><trkpt lat="38.6206471" lon="-0.5793534"><ele>721.5</ele><time>2026-04-05T11:23:43.031Z</time></trkpt><trkpt lat="38.6206701" lon="-0.5794748"><ele>721.0</ele><time>2026-04-05T11:23:44.031Z</time></trkpt><trkpt lat="38.6206935" lon="-0.579599"><ele>720.5999999999999</ele><time>2026-04-05T11:23:45.03Z</time></trkpt><trkpt lat="38.6207148" lon="-0.5797256"><ele>720.2</ele><time>2026-04-05T11:23:46.031Z</time></trkpt><trkpt lat="38.6207389" lon="-0.5798512"><ele>719.8</ele><time>2026-04-05T11:23:47.031Z</time></trkpt><trkpt lat="38.6207647" lon="-0.5799804"><ele>719.4000000000001</ele><time>2026-04-05T11:23:48.031Z</time></trkpt><trkpt lat="38.6207937" lon="-0.5801285"><ele>719.0</ele><time>2026-04-05T11:23:49.03Z</time></trkpt><trkpt lat="38.620822" lon="-0.5802739"><ele>718.6666666666666</ele><time>2026-04-05T11:23:50.031Z</time></trkpt><trkpt lat="38.6208488" lon="-0.5804107"><ele>718.3333333333333</ele><time>2026-04-05T11:23:51.03Z</time></trkpt><trkpt lat="38.6208692" lon="-0.5805186"><ele>718.0</ele><time>2026-04-05T11:23:52.031Z</time></trkpt><trkpt lat="38.6208833" lon="-0.5806085"><ele>717.6666666666666</ele><time>2026-04-05T11:23:53.031Z</time></trkpt><trkpt lat="38.6209035" lon="-0.5806941"><ele>717.3333333333334</ele><time>2026-04-05T11:23:54.03Z</time></trkpt><trkpt lat="38.6209318" lon="-0.5807757"><ele>717.0</ele><time>2026-04-05T11:23:55.031Z</time></trkpt><trkpt lat="38.6209633" lon="-0.5808657"><ele>717.0</ele><time>2026-04-05T11:23:56.031Z</time></trkpt><trkpt lat="38.6209848" lon="-0.5809713"><ele>717.0</ele><time>2026-04-05T11:23:57.031Z</time></trkpt><trkpt lat="38.6209942" lon="-0.5811039"><ele>717.0</ele><time>2026-04-05T11:23:58.03Z</time></trkpt><trkpt lat="38.6210091" lon="-0.5812421"><ele>717.0</ele><time>2026-04-05T11:23:59.031Z</time></trkpt><trkpt lat="38.6210313" lon="-0.5813771"><ele>717.0</ele><time>2026-04-05T11:24:00.03Z</time></trkpt><trkpt lat="38.6210543" lon="-0.5815047"><ele>716.8</ele><time>2026-04-05T11:24:01.031Z</time></trkpt><trkpt lat="38.6210781" lon="-0.5816352"><ele>716.6</ele><time>2026-04-05T11:24:02.031Z</time></trkpt><trkpt lat="38.6211052" lon="-0.5817719"><ele>716.4</ele><time>2026-04-05T11:24:03.03Z</time></trkpt><trkpt lat="38.6211284" lon="-0.5819144"><ele>716.1999999999999</ele><time>2026-04-05T11:24:04.03Z</time></trkpt><trkpt lat="38.6211554" lon="-0.5820509"><ele>716.0</ele><time>2026-04-05T11:24:05.03Z</time></trkpt><trkpt lat="38.6211826" lon="-0.58219"><ele>716.4</ele><time>2026-04-05T11:24:06.031Z</time></trkpt><trkpt lat="38.621215" lon="-0.5823271"><ele>716.8</ele><time>2026-04-05T11:24:07.03Z</time></trkpt><trkpt lat="38.6212446" lon="-0.5824628"><ele>717.1999999999999</ele><time>2026-04-05T11:24:08.03Z</time></trkpt><trkpt lat="38.6212712" lon="-0.5825966"><ele>717.5999999999999</ele><time>2026-04-05T11:24:09.031Z</time></trkpt><trkpt lat="38.6212992" lon="-0.5827174"><ele>718.0</ele><time>2026-04-05T11:24:10.03Z</time></trkpt><trkpt lat="38.6213284" lon="-0.5828076"><ele>717.3333333333334</ele><time>2026-04-05T11:24:11.03Z</time></trkpt><trkpt lat="38.621371" lon="-0.5828753"><ele>716.6666666666667</ele><time>2026-04-05T11:24:12.03Z</time></trkpt><trkpt lat="38.621463" lon="-0.5829612"><ele>716.0</ele><time>2026-04-05T11:24:14.031Z</time></trkpt><trkpt lat="38.6215168" lon="-0.5830838"><ele>715.3333333333334</ele><time>2026-04-05T11:24:16.03Z</time></trkpt><trkpt lat="38.6215067" lon="-0.5831704"><ele>714.6666666666666</ele><time>2026-04-05T11:24:17.03Z</time></trkpt><trkpt lat="38.6214908" lon="-0.5832655"><ele>714.0</ele><time>2026-04-05T11:24:18.03Z</time></trkpt><trkpt lat="38.6214808" lon="-0.5833654"><ele>714.0</ele><time>2026-04-05T11:24:19.031Z</time></trkpt><trkpt lat="38.6214709" lon="-0.5834687"><ele>714.0</ele><time>2026-04-05T11:24:20.031Z</time></trkpt><trkpt lat="38.6214604" lon="-0.5835833"><ele>714.0</ele><time>2026-04-05T11:24:21.03Z</time></trkpt><trkpt lat="38.6214482" lon="-0.5837038"><ele>714.0</ele><time>2026-04-05T11:24:22.031Z</time></trkpt><trkpt lat="38.6214398" lon="-0.5838105"><ele>714.0</ele><time>2026-04-05T11:24:23.031Z</time></trkpt><trkpt lat="38.6214404" lon="-0.5839014"><ele>714.0</ele><time>2026-04-05T11:24:24.03Z</time></trkpt><trkpt lat="38.6214536" lon="-0.5839937"><ele>713.2</ele><time>2026-04-05T11:24:25.03Z</time></trkpt><trkpt lat="38.6214533" lon="-0.5840979"><ele>712.4000000000001</ele><time>2026-04-05T11:24:26.031Z</time></trkpt><trkpt lat="38.6214281" lon="-0.5842102"><ele>711.6</ele><time>2026-04-05T11:24:27.031Z</time></trkpt><trkpt lat="38.6213877" lon="-0.5843288"><ele>710.8</ele><time>2026-04-05T11:24:28.03Z</time></trkpt><trkpt lat="38.6213407" lon="-0.5844534"><ele>710.0</ele><time>2026-04-05T11:24:29.03Z</time></trkpt><trkpt lat="38.6213132" lon="-0.5845843"><ele>709.8</ele><time>2026-04-05T11:24:30.031Z</time></trkpt><trkpt lat="38.6212877" lon="-0.5847077"><ele>709.6</ele><time>2026-04-05T11:24:31.03Z</time></trkpt><trkpt lat="38.6212574" lon="-0.5848397"><ele>709.4000000000001</ele><time>2026-04-05T11:24:32.031Z</time></trkpt><trkpt lat="38.6212309" lon="-0.5849798"><ele>709.2</ele><time>2026-04-05T11:24:33.031Z</time></trkpt><trkpt lat="38.6212064" lon="-0.5851282"><ele>709.0</ele><time>2026-04-05T11:24:34.031Z</time></trkpt><trkpt lat="38.6211815" lon="-0.5852829"><ele>708.5</ele><time>2026-04-05T11:24:35.031Z</time></trkpt><trkpt lat="38.6211549" lon="-0.5854442"><ele>708.0</ele><time>2026-04-05T11:24:36.031Z</time></trkpt><trkpt lat="38.6211284" lon="-0.5856076"><ele>707.5</ele><time>2026-04-05T11:24:37.03Z</time></trkpt><trkpt lat="38.621103" lon="-0.5857681"><ele>707.0</ele><time>2026-04-05T11:24:38.03Z</time></trkpt><trkpt lat="38.6210776" lon="-0.5859315"><ele>707.0</ele><time>2026-04-05T11:24:39.03Z</time></trkpt><trkpt lat="38.6210495" lon="-0.5861001"><ele>707.0</ele><time>2026-04-05T11:24:40.031Z</time></trkpt><trkpt lat="38.6210187" lon="-0.5862787"><ele>707.0</ele><time>2026-04-05T11:24:41.031Z</time></trkpt><trkpt lat="38.6209873" lon="-0.5864672"><ele>707.0</ele><time>2026-04-05T11:24:42.03Z</time></trkpt><trkpt lat="38.6209557" lon="-0.5866623"><ele>706.6666666666666</ele><time>2026-04-05T11:24:43.031Z</time></trkpt><trkpt lat="38.6209254" lon="-0.5868548"><ele>706.3333333333334</ele><time>2026-04-05T11:24:44.031Z</time></trkpt><trkpt lat="38.6208948" lon="-0.587043"><ele>706.0</ele><time>2026-04-05T11:24:45.03Z</time></trkpt><trkpt lat="38.6208631" lon="-0.5872291"><ele>706.0</ele><time>2026-04-05T11:24:46.03Z</time></trkpt><trkpt lat="38.6208302" lon="-0.5874165"><ele>706.0</ele><time>2026-04-05T11:24:47.03Z</time></trkpt><trkpt lat="38.6207993" lon="-0.5876103"><ele>706.0</ele><time>2026-04-05T11:24:48.03Z</time></trkpt><trkpt lat="38.6207669" lon="-0.5878109"><ele>705.0</ele><time>2026-04-05T11:24:49.03Z</time></trkpt><trkpt lat="38.620735" lon="-0.5880188"><ele>704.0</ele><time>2026-04-05T11:24:50.031Z</time></trkpt><trkpt lat="38.6207026" lon="-0.588222"><ele>703.0</ele><time>2026-04-05T11:24:51.03Z</time></trkpt><trkpt lat="38.6206708" lon="-0.5884185"><ele>703.0</ele><time>2026-04-05T11:24:52.031Z</time></trkpt><trkpt lat="38.620643" lon="-0.5885834"><ele>703.0</ele><time>2026-04-05T11:24:53.03Z</time></trkpt><trkpt lat="38.6206187" lon="-0.5887291"><ele>703.0</ele><time>2026-04-05T11:24:54.031Z</time></trkpt><trkpt lat="38.6205974" lon="-0.5888664"><ele>703.0</ele><time>2026-04-05T11:24:55.03Z</time></trkpt><trkpt lat="38.6205731" lon="-0.5890124"><ele>702.5</ele><time>2026-04-05T11:24:56.03Z</time></trkpt><trkpt lat="38.6205449" lon="-0.589171"><ele>702.0</ele><time>2026-04-05T11:24:57.03Z</time></trkpt><trkpt lat="38.6205151" lon="-0.5893403"><ele>701.5</ele><time>2026-04-05T11:24:58.031Z</time></trkpt><trkpt lat="38.6204862" lon="-0.5895095"><ele>701.0</ele><time>2026-04-05T11:24:59.031Z</time></trkpt><trkpt lat="38.6204593" lon="-0.5896762"><ele>701.0</ele><time>2026-04-05T11:25:00.031Z</time></trkpt><trkpt lat="38.6204341" lon="-0.5898436"><ele>701.0</ele><time>2026-04-05T11:25:01.03Z</time></trkpt><trkpt lat="38.6204066" lon="-0.5900148"><ele>701.0</ele><time>2026-04-05T11:25:02.031Z</time></trkpt><trkpt lat="38.6203738" lon="-0.5901865"><ele>701.0</ele><time>2026-04-05T11:25:03.031Z</time></trkpt><trkpt lat="38.6203345" lon="-0.5903576"><ele>700.5</ele><time>2026-04-05T11:25:04.031Z</time></trkpt><trkpt lat="38.6202949" lon="-0.5905148"><ele>700.0</ele><time>2026-04-05T11:25:05.031Z</time></trkpt><trkpt lat="38.6202596" lon="-0.5906595"><ele>699.5</ele><time>2026-04-05T11:25:06.03Z</time></trkpt><trkpt lat="38.6202369" lon="-0.5907948"><ele>699.0</ele><time>2026-04-05T11:25:07.03Z</time></trkpt><trkpt lat="38.620203" lon="-0.5909283"><ele>699.0</ele><time>2026-04-05T11:25:08.03Z</time></trkpt><trkpt lat="38.6201421" lon="-0.5910564"><ele>699.0</ele><time>2026-04-05T11:25:09.031Z</time></trkpt><trkpt lat="38.6200732" lon="-0.5911934"><ele>699.0</ele><time>2026-04-05T11:25:10.03Z</time></trkpt><trkpt lat="38.6200188" lon="-0.5913173"><ele>699.0</ele><time>2026-04-05T11:25:11.03Z</time></trkpt><trkpt lat="38.6199732" lon="-0.5914304"><ele>699.25</ele><time>2026-04-05T11:25:12.03Z</time></trkpt><trkpt lat="38.619925" lon="-0.591558"><ele>699.5</ele><time>2026-04-05T11:25:13.03Z</time></trkpt><trkpt lat="38.6198712" lon="-0.5917"><ele>699.75</ele><time>2026-04-05T11:25:14.03Z</time></trkpt><trkpt lat="38.6198184" lon="-0.5918461"><ele>700.0</ele><time>2026-04-05T11:25:15.03Z</time></trkpt><trkpt lat="38.6197655" lon="-0.591989"><ele>700.0</ele><time>2026-04-05T11:25:16.031Z</time></trkpt><trkpt lat="38.6197124" lon="-0.5921331"><ele>700.0</ele><time>2026-04-05T11:25:17.03Z</time></trkpt><trkpt lat="38.6196596" lon="-0.5922781"><ele>700.0</ele><time>2026-04-05T11:25:18.031Z</time></trkpt><trkpt lat="38.6196072" lon="-0.5924265"><ele>700.0</ele><time>2026-04-05T11:25:19.031Z</time></trkpt><trkpt lat="38.6195524" lon="-0.5925773"><ele>700.0</ele><time>2026-04-05T11:25:20.03Z</time></trkpt><trkpt lat="38.6194962" lon="-0.592729"><ele>700.0</ele><time>2026-04-05T11:25:21.031Z</time></trkpt><trkpt lat="38.6194393" lon="-0.5928812"><ele>700.0</ele><time>2026-04-05T11:25:22.03Z</time></trkpt><trkpt lat="38.6193813" lon="-0.5930327"><ele>700.0</ele><time>2026-04-05T11:25:23.031Z</time></trkpt><trkpt lat="38.6193253" lon="-0.5931845"><ele>698.75</ele><time>2026-04-05T11:25:24.031Z</time></trkpt><trkpt lat="38.6192713" lon="-0.593335"><ele>697.5</ele><time>2026-04-05T11:25:25.031Z</time></trkpt><trkpt lat="38.6192179" lon="-0.5934847"><ele>696.25</ele><time>2026-04-05T11:25:26.031Z</time></trkpt><trkpt lat="38.619163" lon="-0.5936306"><ele>695.0</ele><time>2026-04-05T11:25:27.03Z</time></trkpt><trkpt lat="38.6191033" lon="-0.593787"><ele>694.0</ele><time>2026-04-05T11:25:28.031Z</time></trkpt><trkpt lat="38.6190418" lon="-0.5939507"><ele>693.0</ele><time>2026-04-05T11:25:29.031Z</time></trkpt><trkpt lat="38.6189832" lon="-0.594109"><ele>692.0</ele><time>2026-04-05T11:25:30.031Z</time></trkpt><trkpt lat="38.6189302" lon="-0.5942562"><ele>691.0</ele><time>2026-04-05T11:25:31.031Z</time></trkpt><trkpt lat="38.6188836" lon="-0.594389"><ele>690.5999999999999</ele><time>2026-04-05T11:25:32.03Z</time></trkpt><trkpt lat="38.6188429" lon="-0.5945089"><ele>690.2</ele><time>2026-04-05T11:25:33.031Z</time></trkpt><trkpt lat="38.6188112" lon="-0.5946238"><ele>689.8</ele><time>2026-04-05T11:25:34.031Z</time></trkpt><trkpt lat="38.6188033" lon="-0.5947497"><ele>689.4000000000001</ele><time>2026-04-05T11:25:35.031Z</time></trkpt><trkpt lat="38.6188217" lon="-0.594874"><ele>689.0</ele><time>2026-04-05T11:25:36.031Z</time></trkpt><trkpt lat="38.6188365" lon="-0.5950016"><ele>689.0</ele><time>2026-04-05T11:25:37.03Z</time></trkpt><trkpt lat="38.6188242" lon="-0.5951259"><ele>689.0</ele><time>2026-04-05T11:25:38.031Z</time></trkpt><trkpt lat="38.6187741" lon="-0.5952361"><ele>689.0</ele><time>2026-04-05T11:25:39.031Z</time></trkpt><trkpt lat="38.6186873" lon="-0.5953243"><ele>689.0</ele><time>2026-04-05T11:25:40.031Z</time></trkpt><trkpt lat="38.6185881" lon="-0.5954079"><ele>689.0</ele><time>2026-04-05T11:25:41.03Z</time></trkpt><trkpt lat="38.6185007" lon="-0.5955198"><ele>689.0</ele><time>2026-04-05T11:25:42.031Z</time></trkpt><trkpt lat="38.6184221" lon="-0.5956594"><ele>689.0</ele><time>2026-04-05T11:25:43.031Z</time></trkpt><trkpt lat="38.6183547" lon="-0.5958069"><ele>689.0</ele><time>2026-04-05T11:25:44.03Z</time></trkpt><trkpt lat="38.6182992" lon="-0.5959594"><ele>689.0</ele><time>2026-04-05T11:25:45.03Z</time></trkpt><trkpt lat="38.6182385" lon="-0.5961208"><ele>689.0</ele><time>2026-04-05T11:25:46.03Z</time></trkpt><trkpt lat="38.6181758" lon="-0.5962952"><ele>689.0</ele><time>2026-04-05T11:25:47.03Z</time></trkpt><trkpt lat="38.6181045" lon="-0.5964864"><ele>689.0</ele><time>2026-04-05T11:25:48.03Z</time></trkpt><trkpt lat="38.6180328" lon="-0.5966859"><ele>689.0</ele><time>2026-04-05T11:25:49.03Z</time></trkpt><trkpt lat="38.6179597" lon="-0.5968926"><ele>689.0</ele><time>2026-04-05T11:25:50.03Z</time></trkpt><trkpt lat="38.6178841" lon="-0.5971029"><ele>689.0</ele><time>2026-04-05T11:25:51.031Z</time></trkpt><trkpt lat="38.6178088" lon="-0.5973177"><ele>688.3333333333333</ele><time>2026-04-05T11:25:52.031Z</time></trkpt><trkpt lat="38.6177307" lon="-0.597536"><ele>687.6666666666666</ele><time>2026-04-05T11:25:53.031Z</time></trkpt><trkpt lat="38.6176548" lon="-0.597747"><ele>687.0</ele><time>2026-04-05T11:25:54.031Z</time></trkpt><trkpt lat="38.6175774" lon="-0.5979528"><ele>686.6666666666666</ele><time>2026-04-05T11:25:55.031Z</time></trkpt><trkpt lat="38.617502" lon="-0.5981529"><ele>686.3333333333333</ele><time>2026-04-05T11:25:56.031Z</time></trkpt><trkpt lat="38.6174286" lon="-0.5983591"><ele>686.0</ele><time>2026-04-05T11:25:57.03Z</time></trkpt><trkpt lat="38.6173507" lon="-0.5985758"><ele>686.0</ele><time>2026-04-05T11:25:58.03Z</time></trkpt><trkpt lat="38.617268" lon="-0.5987992"><ele>686.0</ele><time>2026-04-05T11:25:59.03Z</time></trkpt><trkpt lat="38.6171816" lon="-0.59903"><ele>686.0</ele><time>2026-04-05T11:26:00.03Z</time></trkpt><trkpt lat="38.6170933" lon="-0.5992672"><ele>686.6666666666666</ele><time>2026-04-05T11:26:01.031Z</time></trkpt><trkpt lat="38.6170006" lon="-0.5995137"><ele>687.3333333333334</ele><time>2026-04-05T11:26:02.031Z</time></trkpt><trkpt lat="38.6169073" lon="-0.5997723"><ele>688.0</ele><time>2026-04-05T11:26:03.031Z</time></trkpt><trkpt lat="38.6168103" lon="-0.6000376"><ele>688.0</ele><time>2026-04-05T11:26:04.031Z</time></trkpt><trkpt lat="38.6167158" lon="-0.6003003"><ele>688.0</ele><time>2026-04-05T11:26:05.03Z</time></trkpt><trkpt lat="38.6166215" lon="-0.6005565"><ele>688.0</ele><time>2026-04-05T11:26:06.031Z</time></trkpt><trkpt lat="38.6165326" lon="-0.6008013"><ele>687.6666666666667</ele><time>2026-04-05T11:26:07.03Z</time></trkpt><trkpt lat="38.6164492" lon="-0.6010354"><ele>687.3333333333334</ele><time>2026-04-05T11:26:08.03Z</time></trkpt><trkpt lat="38.6163676" lon="-0.6012643"><ele>687.0</ele><time>2026-04-05T11:26:09.03Z</time></trkpt><trkpt lat="38.6162848" lon="-0.601489"><ele>688.6666666666666</ele><time>2026-04-05T11:26:10.03Z</time></trkpt><trkpt lat="38.616204" lon="-0.6017158"><ele>690.3333333333333</ele><time>2026-04-05T11:26:11.03Z</time></trkpt><trkpt lat="38.616119" lon="-0.6019476"><ele>692.0</ele><time>2026-04-05T11:26:12.031Z</time></trkpt><trkpt lat="38.6160432" lon="-0.6021902"><ele>693.0</ele><time>2026-04-05T11:26:13.03Z</time></trkpt><trkpt lat="38.6159915" lon="-0.6024524"><ele>694.0</ele><time>2026-04-05T11:26:14.03Z</time></trkpt><trkpt lat="38.6159565" lon="-0.6027158"><ele>695.0</ele><time>2026-04-05T11:26:15.03Z</time></trkpt><trkpt lat="38.6159264" lon="-0.6029664"><ele>695.0</ele><time>2026-04-05T11:26:16.031Z</time></trkpt><trkpt lat="38.6158985" lon="-0.6032172"><ele>695.0</ele><time>2026-04-05T11:26:17.03Z</time></trkpt><trkpt lat="38.6158739" lon="-0.6034739"><ele>695.0</ele><time>2026-04-05T11:26:18.031Z</time></trkpt><trkpt lat="38.6158504" lon="-0.6037347"><ele>697.0</ele><time>2026-04-05T11:26:19.031Z</time></trkpt><trkpt lat="38.6158271" lon="-0.6039982"><ele>699.0</ele><time>2026-04-05T11:26:20.03Z</time></trkpt><trkpt lat="38.6158041" lon="-0.6042584"><ele>701.0</ele><time>2026-04-05T11:26:21.031Z</time></trkpt><trkpt lat="38.6157812" lon="-0.6045152"><ele>701.0</ele><time>2026-04-05T11:26:22.031Z</time></trkpt><trkpt lat="38.6157592" lon="-0.6047642"><ele>701.0</ele><time>2026-04-05T11:26:23.03Z</time></trkpt><trkpt lat="38.6157357" lon="-0.6050103"><ele>701.0</ele><time>2026-04-05T11:26:24.031Z</time></trkpt><trkpt lat="38.6157148" lon="-0.6052562"><ele>701.0</ele><time>2026-04-05T11:26:25.03Z</time></trkpt><trkpt lat="38.6156946" lon="-0.6055075"><ele>701.0</ele><time>2026-04-05T11:26:26.03Z</time></trkpt><trkpt lat="38.6156749" lon="-0.6057669"><ele>701.0</ele><time>2026-04-05T11:26:27.03Z</time></trkpt><trkpt lat="38.6156536" lon="-0.6060274"><ele>697.6666666666666</ele><time>2026-04-05T11:26:28.031Z</time></trkpt><trkpt lat="38.6156301" lon="-0.6062884"><ele>694.3333333333334</ele><time>2026-04-05T11:26:29.031Z</time></trkpt><trkpt lat="38.615605" lon="-0.6065485"><ele>691.0</ele><time>2026-04-05T11:26:30.03Z</time></trkpt><trkpt lat="38.6155812" lon="-0.6068102"><ele>690.3333333333334</ele><time>2026-04-05T11:26:31.031Z</time></trkpt><trkpt lat="38.6155604" lon="-0.6070733"><ele>689.6666666666666</ele><time>2026-04-05T11:26:32.031Z</time></trkpt><trkpt lat="38.6155385" lon="-0.6073436"><ele>689.0</ele><time>2026-04-05T11:26:33.031Z</time></trkpt><trkpt lat="38.6155158" lon="-0.6076188"><ele>688.3333333333333</ele><time>2026-04-05T11:26:34.031Z</time></trkpt><trkpt lat="38.615492" lon="-0.6078949"><ele>687.6666666666666</ele><time>2026-04-05T11:26:35.031Z</time></trkpt><trkpt lat="38.6154689" lon="-0.6081734"><ele>687.0</ele><time>2026-04-05T11:26:36.031Z</time></trkpt><trkpt lat="38.6154471" lon="-0.6084547"><ele>686.0</ele><time>2026-04-05T11:26:37.031Z</time></trkpt><trkpt lat="38.6154237" lon="-0.6087362"><ele>685.0</ele><time>2026-04-05T11:26:38.031Z</time></trkpt><trkpt lat="38.6154" lon="-0.6090182"><ele>684.0</ele><time>2026-04-05T11:26:39.031Z</time></trkpt><trkpt lat="38.6153756" lon="-0.6092976"><ele>682.3333333333334</ele><time>2026-04-05T11:26:40.031Z</time></trkpt><trkpt lat="38.6153511" lon="-0.609576"><ele>680.6666666666667</ele><time>2026-04-05T11:26:41.03Z</time></trkpt><trkpt lat="38.6153192" lon="-0.6098537"><ele>679.0</ele><time>2026-04-05T11:26:42.03Z</time></trkpt><trkpt lat="38.6152775" lon="-0.610126"><ele>678.0</ele><time>2026-04-05T11:26:43.031Z</time></trkpt><trkpt lat="38.6152227" lon="-0.6103924"><ele>677.0</ele><time>2026-04-05T11:26:44.031Z</time></trkpt><trkpt lat="38.6151511" lon="-0.6106498"><ele>676.0</ele><time>2026-04-05T11:26:45.03Z</time></trkpt><trkpt lat="38.6150639" lon="-0.6108973"><ele>676.0</ele><time>2026-04-05T11:26:46.031Z</time></trkpt><trkpt lat="38.6149613" lon="-0.6111367"><ele>676.0</ele><time>2026-04-05T11:26:47.03Z</time></trkpt><trkpt lat="38.614844" lon="-0.6113633"><ele>676.0</ele><time>2026-04-05T11:26:48.03Z</time></trkpt><trkpt lat="38.614714" lon="-0.6115789"><ele>676.3333333333334</ele><time>2026-04-05T11:26:49.03Z</time></trkpt><trkpt lat="38.6145714" lon="-0.6117826"><ele>676.6666666666666</ele><time>2026-04-05T11:26:50.03Z</time></trkpt><trkpt lat="38.614419" lon="-0.6119764"><ele>677.0</ele><time>2026-04-05T11:26:51.03Z</time></trkpt><trkpt lat="38.6142619" lon="-0.6121654"><ele>677.6666666666666</ele><time>2026-04-05T11:26:52.03Z</time></trkpt><trkpt lat="38.6141048" lon="-0.6123491"><ele>678.3333333333334</ele><time>2026-04-05T11:26:53.031Z</time></trkpt><trkpt lat="38.6139467" lon="-0.6125278"><ele>679.0</ele><time>2026-04-05T11:26:54.03Z</time></trkpt><trkpt lat="38.6137898" lon="-0.6127057"><ele>680.0</ele><time>2026-04-05T11:26:55.03Z</time></trkpt><trkpt lat="38.6136333" lon="-0.6128863"><ele>681.0</ele><time>2026-04-05T11:26:56.03Z</time></trkpt><trkpt lat="38.61348" lon="-0.6130636"><ele>682.0</ele><time>2026-04-05T11:26:57.031Z</time></trkpt><trkpt lat="38.6133319" lon="-0.6132347"><ele>682.0</ele><time>2026-04-05T11:26:58.03Z</time></trkpt><trkpt lat="38.6131948" lon="-0.6133985"><ele>682.0</ele><time>2026-04-05T11:26:59.031Z</time></trkpt><trkpt lat="38.6130724" lon="-0.6135707"><ele>682.0</ele><time>2026-04-05T11:27:00.03Z</time></trkpt><trkpt lat="38.6129725" lon="-0.6137659"><ele>682.6666666666667</ele><time>2026-04-05T11:27:01.031Z</time></trkpt><trkpt lat="38.6128901" lon="-0.6139858"><ele>683.3333333333334</ele><time>2026-04-05T11:27:02.03Z</time></trkpt><trkpt lat="38.6128124" lon="-0.6142231"><ele>684.0</ele><time>2026-04-05T11:27:03.03Z</time></trkpt><trkpt lat="38.6127359" lon="-0.6144661"><ele>681.6666666666666</ele><time>2026-04-05T11:27:04.03Z</time></trkpt><trkpt lat="38.6126596" lon="-0.6147106"><ele>679.3333333333333</ele><time>2026-04-05T11:27:05.031Z</time></trkpt><trkpt lat="38.612582" lon="-0.6149536"><ele>677.0</ele><time>2026-04-05T11:27:06.031Z</time></trkpt><trkpt lat="38.6125032" lon="-0.6151969"><ele>677.0</ele><time>2026-04-05T11:27:07.031Z</time></trkpt><trkpt lat="38.6124247" lon="-0.6154425"><ele>677.0</ele><time>2026-04-05T11:27:08.031Z</time></trkpt><trkpt lat="38.6123466" lon="-0.6156948"><ele>677.0</ele><time>2026-04-05T11:27:09.03Z</time></trkpt><trkpt lat="38.6122669" lon="-0.6159516"><ele>678.0</ele><time>2026-04-05T11:27:10.03Z</time></trkpt><trkpt lat="38.6121838" lon="-0.6162137"><ele>679.0</ele><time>2026-04-05T11:27:11.03Z</time></trkpt><trkpt lat="38.6120992" lon="-0.6164787"><ele>680.0</ele><time>2026-04-05T11:27:12.03Z</time></trkpt><trkpt lat="38.6120151" lon="-0.6167428"><ele>681.0</ele><time>2026-04-05T11:27:13.03Z</time></trkpt><trkpt lat="38.6119288" lon="-0.6170073"><ele>682.0</ele><time>2026-04-05T11:27:14.031Z</time></trkpt><trkpt lat="38.6118419" lon="-0.6172681"><ele>683.0</ele><time>2026-04-05T11:27:15.03Z</time></trkpt><trkpt lat="38.6117476" lon="-0.617529"><ele>683.0</ele><time>2026-04-05T11:27:16.031Z</time></trkpt><trkpt lat="38.6116473" lon="-0.6177859"><ele>683.0</ele><time>2026-04-05T11:27:17.03Z</time></trkpt><trkpt lat="38.6115431" lon="-0.6180381"><ele>683.0</ele><time>2026-04-05T11:27:18.03Z</time></trkpt><trkpt lat="38.6114362" lon="-0.6182933"><ele>682.5</ele><time>2026-04-05T11:27:19.03Z</time></trkpt><trkpt lat="38.6113291" lon="-0.6185514"><ele>682.0</ele><time>2026-04-05T11:27:20.031Z</time></trkpt><trkpt lat="38.6112213" lon="-0.6188173"><ele>680.0</ele><time>2026-04-05T11:27:21.03Z</time></trkpt><trkpt lat="38.611113" lon="-0.6190881"><ele>678.0</ele><time>2026-04-05T11:27:22.03Z</time></trkpt><trkpt lat="38.6110028" lon="-0.6193631"><ele>680.0</ele><time>2026-04-05T11:27:23.031Z</time></trkpt><trkpt lat="38.6108919" lon="-0.619635"><ele>682.0</ele><time>2026-04-05T11:27:24.03Z</time></trkpt><trkpt lat="38.6107812" lon="-0.6199039"><ele>682.0</ele><time>2026-04-05T11:27:25.03Z</time></trkpt><trkpt lat="38.6106717" lon="-0.62017"><ele>682.0</ele><time>2026-04-05T11:27:26.031Z</time></trkpt><trkpt lat="38.6105629" lon="-0.6204325"><ele>682.0</ele><time>2026-04-05T11:27:27.031Z</time></trkpt><trkpt lat="38.6104552" lon="-0.6206946"><ele>682.0</ele><time>2026-04-05T11:27:28.03Z</time></trkpt><trkpt lat="38.6103472" lon="-0.6209537"><ele>680.5</ele><time>2026-04-05T11:27:29.03Z</time></trkpt><trkpt lat="38.6102385" lon="-0.6212141"><ele>679.0</ele><time>2026-04-05T11:27:30.03Z</time></trkpt><trkpt lat="38.610131" lon="-0.6214746"><ele>679.0</ele><time>2026-04-05T11:27:31.031Z</time></trkpt><trkpt lat="38.610024" lon="-0.6217375"><ele>679.0</ele><time>2026-04-05T11:27:32.03Z</time></trkpt><trkpt lat="38.6099203" lon="-0.6220015"><ele>679.5</ele><time>2026-04-05T11:27:33.03Z</time></trkpt><trkpt lat="38.6098179" lon="-0.6222648"><ele>680.0</ele><time>2026-04-05T11:27:34.03Z</time></trkpt><trkpt lat="38.609714" lon="-0.6225306"><ele>680.0</ele><time>2026-04-05T11:27:35.031Z</time></trkpt><trkpt lat="38.6096138" lon="-0.6227987"><ele>680.0</ele><time>2026-04-05T11:27:36.031Z</time></trkpt><trkpt lat="38.6095243" lon="-0.6230721"><ele>678.0</ele><time>2026-04-05T11:27:37.03Z</time></trkpt><trkpt lat="38.6094526" lon="-0.6233487"><ele>676.0</ele><time>2026-04-05T11:27:38.03Z</time></trkpt><trkpt lat="38.6093938" lon="-0.6236268"><ele>676.0</ele><time>2026-04-05T11:27:39.03Z</time></trkpt><trkpt lat="38.6093399" lon="-0.6239023"><ele>676.0</ele><time>2026-04-05T11:27:40.03Z</time></trkpt><trkpt lat="38.6092847" lon="-0.6241746"><ele>676.0</ele><time>2026-04-05T11:27:41.031Z</time></trkpt><trkpt lat="38.6092285" lon="-0.6244485"><ele>676.5</ele><time>2026-04-05T11:27:42.03Z</time></trkpt><trkpt lat="38.6091725" lon="-0.6247248"><ele>677.0</ele><time>2026-04-05T11:27:43.03Z</time></trkpt><trkpt lat="38.6091155" lon="-0.6250078"><ele>677.0</ele><time>2026-04-05T11:27:44.03Z</time></trkpt><trkpt lat="38.609056" lon="-0.6252935"><ele>677.0</ele><time>2026-04-05T11:27:45.03Z</time></trkpt><trkpt lat="38.6089953" lon="-0.625583"><ele>677.0</ele><time>2026-04-05T11:27:46.03Z</time></trkpt><trkpt lat="38.6089359" lon="-0.6258727"><ele>677.0</ele><time>2026-04-05T11:27:47.031Z</time></trkpt><trkpt lat="38.6088755" lon="-0.6261646"><ele>678.0</ele><time>2026-04-05T11:27:48.031Z</time></trkpt><trkpt lat="38.6088158" lon="-0.6264564"><ele>679.0</ele><time>2026-04-05T11:27:49.03Z</time></trkpt><trkpt lat="38.6087558" lon="-0.6267521"><ele>681.0</ele><time>2026-04-05T11:27:50.03Z</time></trkpt><trkpt lat="38.6086952" lon="-0.6270507"><ele>683.0</ele><time>2026-04-05T11:27:51.031Z</time></trkpt><trkpt lat="38.6086332" lon="-0.6273532"><ele>678.5</ele><time>2026-04-05T11:27:52.03Z</time></trkpt><trkpt lat="38.60857" lon="-0.6276589"><ele>674.0</ele><time>2026-04-05T11:27:53.03Z</time></trkpt><trkpt lat="38.6085096" lon="-0.6279621"><ele>674.0</ele><time>2026-04-05T11:27:54.031Z</time></trkpt><trkpt lat="38.608448" lon="-0.6282609"><ele>674.0</ele><time>2026-04-05T11:27:55.03Z</time></trkpt><trkpt lat="38.6083854" lon="-0.6285626"><ele>674.0</ele><time>2026-04-05T11:27:56.03Z</time></trkpt><trkpt lat="38.6083216" lon="-0.6288722"><ele>674.0</ele><time>2026-04-05T11:27:57.031Z</time></trkpt><trkpt lat="38.6082572" lon="-0.6291863"><ele>674.5</ele><time>2026-04-05T11:27:58.031Z</time></trkpt><trkpt lat="38.6081924" lon="-0.6295046"><ele>675.0</ele><time>2026-04-05T11:27:59.031Z</time></trkpt><trkpt lat="38.6081276" lon="-0.6298252"><ele>675.0</ele><time>2026-04-05T11:28:00.03Z</time></trkpt><trkpt lat="38.6080615" lon="-0.6301436"><ele>675.0</ele><time>2026-04-05T11:28:01.03Z</time></trkpt><trkpt lat="38.6079954" lon="-0.6304625"><ele>674.5</ele><time>2026-04-05T11:28:02.03Z</time></trkpt><trkpt lat="38.6079303" lon="-0.6307791"><ele>674.0</ele><time>2026-04-05T11:28:03.031Z</time></trkpt><trkpt lat="38.6078679" lon="-0.6310904"><ele>672.0</ele><time>2026-04-05T11:28:04.03Z</time></trkpt><trkpt lat="38.6078048" lon="-0.6314014"><ele>670.0</ele><time>2026-04-05T11:28:05.031Z</time></trkpt><trkpt lat="38.607741" lon="-0.6317128"><ele>671.0</ele><time>2026-04-05T11:28:06.03Z</time></trkpt><trkpt lat="38.607677" lon="-0.6320224"><ele>672.0</ele><time>2026-04-05T11:28:07.03Z</time></trkpt><trkpt lat="38.6076131" lon="-0.6323318"><ele>672.0</ele><time>2026-04-05T11:28:08.031Z</time></trkpt><trkpt lat="38.6075494" lon="-0.6326347"><ele>672.0</ele><time>2026-04-05T11:28:09.03Z</time></trkpt><trkpt lat="38.6074857" lon="-0.6329372"><ele>674.0</ele><time>2026-04-05T11:28:10.03Z</time></trkpt><trkpt lat="38.6074247" lon="-0.6332464"><ele>676.0</ele><time>2026-04-05T11:28:11.03Z</time></trkpt><trkpt lat="38.6073788" lon="-0.6335629"><ele>677.0</ele><time>2026-04-05T11:28:12.03Z</time></trkpt><trkpt lat="38.6073448" lon="-0.6338934"><ele>678.0</ele><time>2026-04-05T11:28:13.031Z</time></trkpt><trkpt lat="38.6073224" lon="-0.6342242"><ele>679.0</ele><time>2026-04-05T11:28:14.03Z</time></trkpt><trkpt lat="38.6072983" lon="-0.6345501"><ele>680.0</ele><time>2026-04-05T11:28:15.03Z</time></trkpt><trkpt lat="38.6072725" lon="-0.6348728"><ele>680.0</ele><time>2026-04-05T11:28:16.03Z</time></trkpt><trkpt lat="38.6072483" lon="-0.6351905"><ele>680.0</ele><time>2026-04-05T11:28:17.031Z</time></trkpt><trkpt lat="38.6072251" lon="-0.6355012"><ele>681.5</ele><time>2026-04-05T11:28:18.03Z</time></trkpt><trkpt lat="38.6072001" lon="-0.6358139"><ele>683.0</ele><time>2026-04-05T11:28:19.031Z</time></trkpt><trkpt lat="38.6071746" lon="-0.636128"><ele>681.0</ele><time>2026-04-05T11:28:20.03Z</time></trkpt><trkpt lat="38.6071516" lon="-0.6364454"><ele>679.0</ele><time>2026-04-05T11:28:21.03Z</time></trkpt><trkpt lat="38.6071389" lon="-0.6367622"><ele>679.0</ele><time>2026-04-05T11:28:22.03Z</time></trkpt><trkpt lat="38.6071414" lon="-0.6370825"><ele>679.0</ele><time>2026-04-05T11:28:23.03Z</time></trkpt><trkpt lat="38.6071603" lon="-0.6374003"><ele>679.0</ele><time>2026-04-05T11:28:24.03Z</time></trkpt><trkpt lat="38.6071814" lon="-0.6377181"><ele>679.0</ele><time>2026-04-05T11:28:25.031Z</time></trkpt><trkpt lat="38.6072021" lon="-0.6380282"><ele>680.5</ele><time>2026-04-05T11:28:26.03Z</time></trkpt><trkpt lat="38.607221" lon="-0.6383307"><ele>682.0</ele><time>2026-04-05T11:28:27.03Z</time></trkpt><trkpt lat="38.6072381" lon="-0.6386331"><ele>682.5</ele><time>2026-04-05T11:28:28.03Z</time></trkpt><trkpt lat="38.6072564" lon="-0.6389335"><ele>683.0</ele><time>2026-04-05T11:28:29.031Z</time></trkpt><trkpt lat="38.6072756" lon="-0.6392278"><ele>681.6666666666666</ele><time>2026-04-05T11:28:30.03Z</time></trkpt><trkpt lat="38.6073007" lon="-0.6395053"><ele>680.3333333333334</ele><time>2026-04-05T11:28:31.03Z</time></trkpt><trkpt lat="38.6073395" lon="-0.6397749"><ele>679.0</ele><time>2026-04-05T11:28:32.03Z</time></trkpt><trkpt lat="38.6074053" lon="-0.6400376"><ele>679.0</ele><time>2026-04-05T11:28:33.031Z</time></trkpt><trkpt lat="38.6074953" lon="-0.6402981"><ele>679.0</ele><time>2026-04-05T11:28:34.031Z</time></trkpt><trkpt lat="38.6075922" lon="-0.6405567"><ele>679.0</ele><time>2026-04-05T11:28:35.031Z</time></trkpt><trkpt lat="38.6076912" lon="-0.640816"><ele>679.0</ele><time>2026-04-05T11:28:36.03Z</time></trkpt><trkpt lat="38.6077879" lon="-0.6410739"><ele>679.0</ele><time>2026-04-05T11:28:37.03Z</time></trkpt><trkpt lat="38.6078851" lon="-0.6413247"><ele>679.0</ele><time>2026-04-05T11:28:38.03Z</time></trkpt><trkpt lat="38.6079824" lon="-0.6415744"><ele>679.6666666666667</ele><time>2026-04-05T11:28:39.03Z</time></trkpt><trkpt lat="38.6080766" lon="-0.6418189"><ele>680.3333333333334</ele><time>2026-04-05T11:28:40.031Z</time></trkpt><trkpt lat="38.6081718" lon="-0.6420666"><ele>681.0</ele><time>2026-04-05T11:28:41.03Z</time></trkpt><trkpt lat="38.6082565" lon="-0.6423278"><ele>681.5</ele><time>2026-04-05T11:28:42.03Z</time></trkpt><trkpt lat="38.608319" lon="-0.6426172"><ele>682.0</ele><time>2026-04-05T11:28:43.03Z</time></trkpt><trkpt lat="38.608354" lon="-0.6429261"><ele>681.0</ele><time>2026-04-05T11:28:44.03Z</time></trkpt><trkpt lat="38.6083703" lon="-0.6432356"><ele>680.0</ele><time>2026-04-05T11:28:45.03Z</time></trkpt><trkpt lat="38.6083771" lon="-0.6435365"><ele>679.5</ele><time>2026-04-05T11:28:46.031Z</time></trkpt><trkpt lat="38.6083831" lon="-0.6438339"><ele>679.0</ele><time>2026-04-05T11:28:47.031Z</time></trkpt><trkpt lat="38.6083882" lon="-0.6441292"><ele>679.0</ele><time>2026-04-05T11:28:48.03Z</time></trkpt><trkpt lat="38.6083928" lon="-0.6444191"><ele>679.0</ele><time>2026-04-05T11:28:49.031Z</time></trkpt><trkpt lat="38.6083997" lon="-0.6447053"><ele>679.0</ele><time>2026-04-05T11:28:50.031Z</time></trkpt><trkpt lat="38.6084088" lon="-0.6449902"><ele>679.0</ele><time>2026-04-05T11:28:51.031Z</time></trkpt><trkpt lat="38.6084157" lon="-0.645278"><ele>679.0</ele><time>2026-04-05T11:28:52.031Z</time></trkpt><trkpt lat="38.6084219" lon="-0.6455647"><ele>678.5</ele><time>2026-04-05T11:28:53.03Z</time></trkpt><trkpt lat="38.6084291" lon="-0.6458532"><ele>678.0</ele><time>2026-04-05T11:28:54.03Z</time></trkpt><trkpt lat="38.6084365" lon="-0.6461409"><ele>676.0</ele><time>2026-04-05T11:28:55.03Z</time></trkpt><trkpt lat="38.6084434" lon="-0.6464318"><ele>674.0</ele><time>2026-04-05T11:28:56.03Z</time></trkpt><trkpt lat="38.6084491" lon="-0.6467238"><ele>674.0</ele><time>2026-04-05T11:28:57.03Z</time></trkpt><trkpt lat="38.608452" lon="-0.6470219"><ele>674.0</ele><time>2026-04-05T11:28:58.031Z</time></trkpt><trkpt lat="38.6084583" lon="-0.6473167"><ele>674.0</ele><time>2026-04-05T11:28:59.03Z</time></trkpt><trkpt lat="38.6084655" lon="-0.6476141"><ele>674.0</ele><time>2026-04-05T11:29:00.03Z</time></trkpt><trkpt lat="38.6084722" lon="-0.6479085"><ele>672.5</ele><time>2026-04-05T11:29:01.03Z</time></trkpt><trkpt lat="38.6084792" lon="-0.6482004"><ele>671.0</ele><time>2026-04-05T11:29:02.03Z</time></trkpt><trkpt lat="38.6084856" lon="-0.6484938"><ele>670.5</ele><time>2026-04-05T11:29:03.03Z</time></trkpt><trkpt lat="38.6084921" lon="-0.6487881"><ele>670.0</ele><time>2026-04-05T11:29:04.031Z</time></trkpt><trkpt lat="38.6084999" lon="-0.6490854"><ele>670.0</ele><time>2026-04-05T11:29:05.03Z</time></trkpt><trkpt lat="38.6085078" lon="-0.6493834"><ele>670.0</ele><time>2026-04-05T11:29:06.03Z</time></trkpt><trkpt lat="38.6085151" lon="-0.6496831"><ele>667.0</ele><time>2026-04-05T11:29:07.031Z</time></trkpt><trkpt lat="38.6085224" lon="-0.6499854"><ele>664.0</ele><time>2026-04-05T11:29:08.03Z</time></trkpt><trkpt lat="38.6085296" lon="-0.6502883"><ele>664.0</ele><time>2026-04-05T11:29:09.03Z</time></trkpt><trkpt lat="38.6085359" lon="-0.6505919"><ele>664.0</ele><time>2026-04-05T11:29:10.031Z</time></trkpt><trkpt lat="38.6085426" lon="-0.6508943"><ele>664.0</ele><time>2026-04-05T11:29:11.03Z</time></trkpt><trkpt lat="38.6085475" lon="-0.6512006"><ele>664.0</ele><time>2026-04-05T11:29:12.03Z</time></trkpt><trkpt lat="38.6085533" lon="-0.6515101"><ele>664.0</ele><time>2026-04-05T11:29:13.031Z</time></trkpt><trkpt lat="38.6085611" lon="-0.6518218"><ele>664.0</ele><time>2026-04-05T11:29:14.03Z</time></trkpt><trkpt lat="38.6085696" lon="-0.6521356"><ele>664.0</ele><time>2026-04-05T11:29:15.03Z</time></trkpt><trkpt lat="38.6085771" lon="-0.6524487"><ele>664.0</ele><time>2026-04-05T11:29:16.031Z</time></trkpt><trkpt lat="38.6085839" lon="-0.6527639"><ele>662.5</ele><time>2026-04-05T11:29:17.03Z</time></trkpt><trkpt lat="38.6085912" lon="-0.6530796"><ele>661.0</ele><time>2026-04-05T11:29:18.03Z</time></trkpt><trkpt lat="38.608598" lon="-0.6533971"><ele>661.0</ele><time>2026-04-05T11:29:19.03Z</time></trkpt><trkpt lat="38.6086043" lon="-0.653714"><ele>661.0</ele><time>2026-04-05T11:29:20.03Z</time></trkpt><trkpt lat="38.6086109" lon="-0.6540289"><ele>661.0</ele><time>2026-04-05T11:29:21.03Z</time></trkpt><trkpt lat="38.6086179" lon="-0.6543423"><ele>661.0</ele><time>2026-04-05T11:29:22.031Z</time></trkpt><trkpt lat="38.6086264" lon="-0.6546528"><ele>660.5</ele><time>2026-04-05T11:29:23.03Z</time></trkpt><trkpt lat="38.6086337" lon="-0.6549661"><ele>660.0</ele><time>2026-04-05T11:29:24.03Z</time></trkpt><trkpt lat="38.6086401" lon="-0.6552787"><ele>659.0</ele><time>2026-04-05T11:29:25.031Z</time></trkpt><trkpt lat="38.608647" lon="-0.6555883"><ele>658.0</ele><time>2026-04-05T11:29:26.031Z</time></trkpt><trkpt lat="38.6086535" lon="-0.6558924"><ele>657.5</ele><time>2026-04-05T11:29:27.03Z</time></trkpt><trkpt lat="38.6086603" lon="-0.6561898"><ele>657.0</ele><time>2026-04-05T11:29:28.03Z</time></trkpt><trkpt lat="38.6086667" lon="-0.6564864"><ele>657.0</ele><time>2026-04-05T11:29:29.031Z</time></trkpt><trkpt lat="38.6086726" lon="-0.6567782"><ele>657.0</ele><time>2026-04-05T11:29:30.03Z</time></trkpt><trkpt lat="38.608679" lon="-0.6570664"><ele>656.0</ele><time>2026-04-05T11:29:31.03Z</time></trkpt><trkpt lat="38.6086851" lon="-0.6573513"><ele>655.0</ele><time>2026-04-05T11:29:32.03Z</time></trkpt><trkpt lat="38.6086914" lon="-0.6576255"><ele>654.0</ele><time>2026-04-05T11:29:33.03Z</time></trkpt><trkpt lat="38.6086971" lon="-0.6578859"><ele>653.6666666666666</ele><time>2026-04-05T11:29:34.031Z</time></trkpt><trkpt lat="38.6087053" lon="-0.658142"><ele>653.3333333333333</ele><time>2026-04-05T11:29:35.031Z</time></trkpt><trkpt lat="38.6087121" lon="-0.6583943"><ele>653.0</ele><time>2026-04-05T11:29:36.031Z</time></trkpt><trkpt lat="38.608718" lon="-0.6586383"><ele>652.6666666666666</ele><time>2026-04-05T11:29:37.03Z</time></trkpt><trkpt lat="38.6087224" lon="-0.6588677"><ele>652.3333333333334</ele><time>2026-04-05T11:29:38.03Z</time></trkpt><trkpt lat="38.6087287" lon="-0.6590673"><ele>652.0</ele><time>2026-04-05T11:29:39.031Z</time></trkpt><trkpt lat="38.6087373" lon="-0.6592408"><ele>652.0</ele><time>2026-04-05T11:29:40.03Z</time></trkpt><trkpt lat="38.6087472" lon="-0.6593908"><ele>652.0</ele><time>2026-04-05T11:29:41.03Z</time></trkpt><trkpt lat="38.6087593" lon="-0.6595225"><ele>652.0</ele><time>2026-04-05T11:29:42.031Z</time></trkpt><trkpt lat="38.6087792" lon="-0.6596412"><ele>652.0</ele><time>2026-04-05T11:29:43.03Z</time></trkpt><trkpt lat="38.6088154" lon="-0.6597484"><ele>652.0</ele><time>2026-04-05T11:29:44.03Z</time></trkpt><trkpt lat="38.6088778" lon="-0.6598445"><ele>651.8</ele><time>2026-04-05T11:29:45.03Z</time></trkpt><trkpt lat="38.6089456" lon="-0.6599435"><ele>651.6</ele><time>2026-04-05T11:29:46.031Z</time></trkpt><trkpt lat="38.608996" lon="-0.6600519"><ele>651.4</ele><time>2026-04-05T11:29:47.03Z</time></trkpt><trkpt lat="38.6090049" lon="-0.6601812"><ele>651.1999999999999</ele><time>2026-04-05T11:29:48.03Z</time></trkpt><trkpt lat="38.608978" lon="-0.6602978"><ele>651.0</ele><time>2026-04-05T11:29:49.03Z</time></trkpt><trkpt lat="38.6089167" lon="-0.6604085"><ele>650.75</ele><time>2026-04-05T11:29:50.031Z</time></trkpt><trkpt lat="38.6088516" lon="-0.660533"><ele>650.5</ele><time>2026-04-05T11:29:51.031Z</time></trkpt><trkpt lat="38.6088146" lon="-0.6606823"><ele>650.25</ele><time>2026-04-05T11:29:52.03Z</time></trkpt><trkpt lat="38.6088036" lon="-0.6608534"><ele>650.0</ele><time>2026-04-05T11:29:53.03Z</time></trkpt><trkpt lat="38.6087988" lon="-0.6610354"><ele>650.0</ele><time>2026-04-05T11:29:54.031Z</time></trkpt><trkpt lat="38.6088021" lon="-0.6612117"><ele>650.0</ele><time>2026-04-05T11:29:55.03Z</time></trkpt><trkpt lat="38.6088015" lon="-0.6614026"><ele>650.0</ele><time>2026-04-05T11:29:56.03Z</time></trkpt><trkpt lat="38.6087986" lon="-0.6616003"><ele>650.0</ele><time>2026-04-05T11:29:57.031Z</time></trkpt><trkpt lat="38.6087984" lon="-0.6618021"><ele>649.3333333333333</ele><time>2026-04-05T11:29:58.031Z</time></trkpt><trkpt lat="38.6088006" lon="-0.6620053"><ele>648.6666666666666</ele><time>2026-04-05T11:29:59.031Z</time></trkpt><trkpt lat="38.6088032" lon="-0.6622087"><ele>648.0</ele><time>2026-04-05T11:30:00.03Z</time></trkpt><trkpt lat="38.6088071" lon="-0.6624114"><ele>648.0</ele><time>2026-04-05T11:30:01.031Z</time></trkpt><trkpt lat="38.6088107" lon="-0.6626165"><ele>648.0</ele><time>2026-04-05T11:30:02.031Z</time></trkpt><trkpt lat="38.6088159" lon="-0.6628233"><ele>648.0</ele><time>2026-04-05T11:30:03.031Z</time></trkpt><trkpt lat="38.6088212" lon="-0.6630312"><ele>648.3333333333334</ele><time>2026-04-05T11:30:04.031Z</time></trkpt><trkpt lat="38.6088262" lon="-0.6632476"><ele>648.6666666666667</ele><time>2026-04-05T11:30:05.031Z</time></trkpt><trkpt lat="38.6088329" lon="-0.6634816"><ele>649.0</ele><time>2026-04-05T11:30:06.03Z</time></trkpt><trkpt lat="38.6088386" lon="-0.6637475"><ele>649.0</ele><time>2026-04-05T11:30:07.03Z</time></trkpt><trkpt lat="38.6088446" lon="-0.6640382"><ele>649.0</ele><time>2026-04-05T11:30:08.03Z</time></trkpt><trkpt lat="38.6088498" lon="-0.6643206"><ele>649.0</ele><time>2026-04-05T11:30:09.031Z</time></trkpt><trkpt lat="38.6088561" lon="-0.6645856"><ele>648.6666666666667</ele><time>2026-04-05T11:30:10.03Z</time></trkpt><trkpt lat="38.6088604" lon="-0.6648331"><ele>648.3333333333334</ele><time>2026-04-05T11:30:11.03Z</time></trkpt><trkpt lat="38.6088641" lon="-0.6650798"><ele>648.0</ele><time>2026-04-05T11:30:12.031Z</time></trkpt><trkpt lat="38.6088706" lon="-0.6653287"><ele>648.6666666666666</ele><time>2026-04-05T11:30:13.031Z</time></trkpt><trkpt lat="38.6088779" lon="-0.6655878"><ele>649.3333333333333</ele><time>2026-04-05T11:30:14.031Z</time></trkpt><trkpt lat="38.6088834" lon="-0.6658484"><ele>650.0</ele><time>2026-04-05T11:30:15.03Z</time></trkpt><trkpt lat="38.6088872" lon="-0.6661071"><ele>650.3333333333333</ele><time>2026-04-05T11:30:16.03Z</time></trkpt><trkpt lat="38.6088902" lon="-0.6663577"><ele>650.6666666666666</ele><time>2026-04-05T11:30:17.031Z</time></trkpt><trkpt lat="38.6088946" lon="-0.6665948"><ele>651.0</ele><time>2026-04-05T11:30:18.03Z</time></trkpt><trkpt lat="38.6088987" lon="-0.6668175"><ele>651.0</ele><time>2026-04-05T11:30:19.03Z</time></trkpt><trkpt lat="38.6089021" lon="-0.6670306"><ele>651.0</ele><time>2026-04-05T11:30:20.031Z</time></trkpt><trkpt lat="38.6089063" lon="-0.6672329"><ele>651.0</ele><time>2026-04-05T11:30:21.031Z</time></trkpt><trkpt lat="38.6089124" lon="-0.6674227"><ele>651.0</ele><time>2026-04-05T11:30:22.03Z</time></trkpt><trkpt lat="38.6089274" lon="-0.6675985"><ele>651.0</ele><time>2026-04-05T11:30:23.031Z</time></trkpt><trkpt lat="38.6089586" lon="-0.6677556"><ele>651.0</ele><time>2026-04-05T11:30:24.03Z</time></trkpt><trkpt lat="38.6089994" lon="-0.667895"><ele>651.0</ele><time>2026-04-05T11:30:25.03Z</time></trkpt><trkpt lat="38.6090396" lon="-0.6680256"><ele>650.0</ele><time>2026-04-05T11:30:26.031Z</time></trkpt><trkpt lat="38.6090654" lon="-0.6681625"><ele>649.0</ele><time>2026-04-05T11:30:27.03Z</time></trkpt><trkpt lat="38.6090708" lon="-0.668305"><ele>648.0</ele><time>2026-04-05T11:30:28.03Z</time></trkpt><trkpt lat="38.6090522" lon="-0.6684439"><ele>647.0</ele><time>2026-04-05T11:30:29.03Z</time></trkpt><trkpt lat="38.6090171" lon="-0.6685709"><ele>646.0</ele><time>2026-04-05T11:30:30.031Z</time></trkpt><trkpt lat="38.6089694" lon="-0.6686822"><ele>646.0</ele><time>2026-04-05T11:30:31.03Z</time></trkpt><trkpt lat="38.6089099" lon="-0.6687763"><ele>646.0</ele><time>2026-04-05T11:30:32.031Z</time></trkpt><trkpt lat="38.6088411" lon="-0.6688533"><ele>646.0</ele><time>2026-04-05T11:30:33.031Z</time></trkpt><trkpt lat="38.6087667" lon="-0.668911"><ele>646.0</ele><time>2026-04-05T11:30:34.031Z</time></trkpt><trkpt lat="38.6086835" lon="-0.668952"><ele>646.0</ele><time>2026-04-05T11:30:35.03Z</time></trkpt><trkpt lat="38.6085923" lon="-0.6689724"><ele>646.4</ele><time>2026-04-05T11:30:36.031Z</time></trkpt><trkpt lat="38.6084965" lon="-0.6689659"><ele>646.8</ele><time>2026-04-05T11:30:37.03Z</time></trkpt><trkpt lat="38.6084039" lon="-0.6689419"><ele>647.1999999999999</ele><time>2026-04-05T11:30:38.031Z</time></trkpt><trkpt lat="38.608297" lon="-0.668892"><ele>647.5999999999999</ele><time>2026-04-05T11:30:39.03Z</time></trkpt><trkpt lat="38.6082129" lon="-0.6688244"><ele>648.0</ele><time>2026-04-05T11:30:40.031Z</time></trkpt><trkpt lat="38.608148" lon="-0.6687458"><ele>648.0</ele><time>2026-04-05T11:30:41.031Z</time></trkpt><trkpt lat="38.6080961" lon="-0.668666"><ele>648.0</ele><time>2026-04-05T11:30:42.031Z</time></trkpt><trkpt lat="38.6080449" lon="-0.6685854"><ele>648.0</ele><time>2026-04-05T11:30:43.03Z</time></trkpt><trkpt lat="38.6079785" lon="-0.6685054"><ele>648.0</ele><time>2026-04-05T11:30:44.03Z</time></trkpt><trkpt lat="38.6078885" lon="-0.668442"><ele>648.0</ele><time>2026-04-05T11:30:45.03Z</time></trkpt><trkpt lat="38.6077787" lon="-0.6684094"><ele>648.25</ele><time>2026-04-05T11:30:46.03Z</time></trkpt><trkpt lat="38.6076583" lon="-0.6684013"><ele>648.5</ele><time>2026-04-05T11:30:47.03Z</time></trkpt><trkpt lat="38.6075419" lon="-0.6684126"><ele>648.75</ele><time>2026-04-05T11:30:48.031Z</time></trkpt><trkpt lat="38.607431" lon="-0.6684317"><ele>649.0</ele><time>2026-04-05T11:30:49.03Z</time></trkpt><trkpt lat="38.6073181" lon="-0.6684547"><ele>649.0</ele><time>2026-04-05T11:30:50.031Z</time></trkpt><trkpt lat="38.6071956" lon="-0.6684821"><ele>649.0</ele><time>2026-04-05T11:30:51.03Z</time></trkpt><trkpt lat="38.6070717" lon="-0.6685103"><ele>649.0</ele><time>2026-04-05T11:30:52.03Z</time></trkpt><trkpt lat="38.6069509" lon="-0.6685402"><ele>649.0</ele><time>2026-04-05T11:30:53.03Z</time></trkpt><trkpt lat="38.6068342" lon="-0.668567"><ele>649.5</ele><time>2026-04-05T11:30:54.031Z</time></trkpt><trkpt lat="38.6067186" lon="-0.6685929"><ele>650.0</ele><time>2026-04-05T11:30:55.03Z</time></trkpt><trkpt lat="38.6065938" lon="-0.6686206"><ele>650.5</ele><time>2026-04-05T11:30:56.031Z</time></trkpt><trkpt lat="38.6064639" lon="-0.6686496"><ele>651.0</ele><time>2026-04-05T11:30:57.031Z</time></trkpt><trkpt lat="38.6063313" lon="-0.6686791"><ele>651.0</ele><time>2026-04-05T11:30:58.03Z</time></trkpt><trkpt lat="38.6062033" lon="-0.6687117"><ele>651.0</ele><time>2026-04-05T11:30:59.03Z</time></trkpt><trkpt lat="38.6060811" lon="-0.6687413"><ele>651.0</ele><time>2026-04-05T11:31:00.031Z</time></trkpt><trkpt lat="38.6059605" lon="-0.6687663"><ele>651.0</ele><time>2026-04-05T11:31:01.031Z</time></trkpt><trkpt lat="38.6058394" lon="-0.6687924"><ele>651.0</ele><time>2026-04-05T11:31:02.03Z</time></trkpt><trkpt lat="38.6057212" lon="-0.6688175"><ele>651.0</ele><time>2026-04-05T11:31:03.031Z</time></trkpt><trkpt lat="38.6056101" lon="-0.6688403"><ele>651.0</ele><time>2026-04-05T11:31:04.031Z</time></trkpt><trkpt lat="38.6054971" lon="-0.6688638"><ele>651.0</ele><time>2026-04-05T11:31:05.03Z</time></trkpt><trkpt lat="38.6053867" lon="-0.6688855"><ele>650.8</ele><time>2026-04-05T11:31:06.03Z</time></trkpt><trkpt lat="38.6052774" lon="-0.6689077"><ele>650.5999999999999</ele><time>2026-04-05T11:31:07.031Z</time></trkpt><trkpt lat="38.6051725" lon="-0.668929"><ele>650.4</ele><time>2026-04-05T11:31:08.031Z</time></trkpt><trkpt lat="38.6050771" lon="-0.6689516"><ele>650.2</ele><time>2026-04-05T11:31:09.03Z</time></trkpt><trkpt lat="38.6049749" lon="-0.6689749"><ele>650.0</ele><time>2026-04-05T11:31:10.031Z</time></trkpt><trkpt lat="38.6048733" lon="-0.6689967"><ele>650.0</ele><time>2026-04-05T11:31:11.031Z</time></trkpt><trkpt lat="38.6047762" lon="-0.6690167"><ele>650.0</ele><time>2026-04-05T11:31:12.03Z</time></trkpt><trkpt lat="38.6046895" lon="-0.6690342"><ele>650.0</ele><time>2026-04-05T11:31:13.03Z</time></trkpt><trkpt lat="38.604608" lon="-0.6690561"><ele>650.0</ele><time>2026-04-05T11:31:14.031Z</time></trkpt><trkpt lat="38.6045276" lon="-0.6690854"><ele>650.0</ele><time>2026-04-05T11:31:15.031Z</time></trkpt><trkpt lat="38.6044463" lon="-0.6691257"><ele>650.0</ele><time>2026-04-05T11:31:16.031Z</time></trkpt><trkpt lat="38.6043564" lon="-0.6691599"><ele>649.75</ele><time>2026-04-05T11:31:17.03Z</time></trkpt><trkpt lat="38.6042531" lon="-0.6691803"><ele>649.5</ele><time>2026-04-05T11:31:18.031Z</time></trkpt><trkpt lat="38.6041339" lon="-0.6691917"><ele>649.25</ele><time>2026-04-05T11:31:19.03Z</time></trkpt><trkpt lat="38.6040108" lon="-0.6692011"><ele>649.0</ele><time>2026-04-05T11:31:20.03Z</time></trkpt><trkpt lat="38.6038867" lon="-0.6692174"><ele>649.0</ele><time>2026-04-05T11:31:21.03Z</time></trkpt><trkpt lat="38.603764" lon="-0.6692396"><ele>649.0</ele><time>2026-04-05T11:31:22.03Z</time></trkpt><trkpt lat="38.6036439" lon="-0.6692623"><ele>649.0</ele><time>2026-04-05T11:31:23.03Z</time></trkpt><trkpt lat="38.6035329" lon="-0.6692848"><ele>649.0</ele><time>2026-04-05T11:31:24.031Z</time></trkpt><trkpt lat="38.6034328" lon="-0.669305"><ele>649.2</ele><time>2026-04-05T11:31:25.03Z</time></trkpt><trkpt lat="38.6033399" lon="-0.6693242"><ele>649.4000000000001</ele><time>2026-04-05T11:31:26.03Z</time></trkpt><trkpt lat="38.6032496" lon="-0.6693433"><ele>649.6</ele><time>2026-04-05T11:31:27.031Z</time></trkpt><trkpt lat="38.6031615" lon="-0.6693627"><ele>649.8</ele><time>2026-04-05T11:31:28.03Z</time></trkpt><trkpt lat="38.6030686" lon="-0.6693821"><ele>650.0</ele><time>2026-04-05T11:31:29.031Z</time></trkpt><trkpt lat="38.6029669" lon="-0.6694048"><ele>650.0</ele><time>2026-04-05T11:31:30.031Z</time></trkpt><trkpt lat="38.6028596" lon="-0.6694283"><ele>650.0</ele><time>2026-04-05T11:31:31.03Z</time></trkpt><trkpt lat="38.6027501" lon="-0.6694503"><ele>650.0</ele><time>2026-04-05T11:31:32.031Z</time></trkpt><trkpt lat="38.6026401" lon="-0.6694733"><ele>650.0</ele><time>2026-04-05T11:31:33.03Z</time></trkpt><trkpt lat="38.6025295" lon="-0.6694975"><ele>650.0</ele><time>2026-04-05T11:31:34.031Z</time></trkpt><trkpt lat="38.6024161" lon="-0.6695216"><ele>650.2</ele><time>2026-04-05T11:31:35.03Z</time></trkpt><trkpt lat="38.6023071" lon="-0.669544"><ele>650.4</ele><time>2026-04-05T11:31:36.03Z</time></trkpt><trkpt lat="38.6022045" lon="-0.6695666"><ele>650.5999999999999</ele><time>2026-04-05T11:31:37.03Z</time></trkpt><trkpt lat="38.6021121" lon="-0.6695865"><ele>650.8</ele><time>2026-04-05T11:31:38.03Z</time></trkpt><trkpt lat="38.602021" lon="-0.6696044"><ele>651.0</ele><time>2026-04-05T11:31:39.03Z</time></trkpt><trkpt lat="38.6019362" lon="-0.6696231"><ele>651.1666666666666</ele><time>2026-04-05T11:31:40.03Z</time></trkpt><trkpt lat="38.6018537" lon="-0.6696403"><ele>651.3333333333334</ele><time>2026-04-05T11:31:41.031Z</time></trkpt><trkpt lat="38.6017729" lon="-0.6696573"><ele>651.5</ele><time>2026-04-05T11:31:42.03Z</time></trkpt><trkpt lat="38.6016876" lon="-0.669675"><ele>651.6666666666667</ele><time>2026-04-05T11:31:43.03Z</time></trkpt><trkpt lat="38.6016039" lon="-0.6696932"><ele>651.8333333333334</ele><time>2026-04-05T11:31:44.03Z</time></trkpt><trkpt lat="38.6015151" lon="-0.6697103"><ele>652.0</ele><time>2026-04-05T11:31:45.031Z</time></trkpt><trkpt lat="38.6014218" lon="-0.6697257"><ele>652.0</ele><time>2026-04-05T11:31:46.03Z</time></trkpt><trkpt lat="38.6013269" lon="-0.6697432"><ele>652.0</ele><time>2026-04-05T11:31:47.03Z</time></trkpt><trkpt lat="38.6012341" lon="-0.6697605"><ele>652.0</ele><time>2026-04-05T11:31:48.03Z</time></trkpt><trkpt lat="38.6011436" lon="-0.6697774"><ele>652.0</ele><time>2026-04-05T11:31:49.031Z</time></trkpt><trkpt lat="38.6010539" lon="-0.6697947"><ele>652.0</ele><time>2026-04-05T11:31:50.03Z</time></trkpt><trkpt lat="38.6009621" lon="-0.6698136"><ele>652.0</ele><time>2026-04-05T11:31:51.03Z</time></trkpt><trkpt lat="38.600867" lon="-0.6698322"><ele>652.0</ele><time>2026-04-05T11:31:52.03Z</time></trkpt><trkpt lat="38.6007722" lon="-0.6698511"><ele>652.0</ele><time>2026-04-05T11:31:53.03Z</time></trkpt><trkpt lat="38.6006755" lon="-0.6698701"><ele>652.0</ele><time>2026-04-05T11:31:54.031Z</time></trkpt><trkpt lat="38.600576" lon="-0.6698887"><ele>652.0</ele><time>2026-04-05T11:31:55.03Z</time></trkpt><trkpt lat="38.6004743" lon="-0.6699104"><ele>652.0</ele><time>2026-04-05T11:31:56.031Z</time></trkpt><trkpt lat="38.600369" lon="-0.6699325"><ele>652.0</ele><time>2026-04-05T11:31:57.03Z</time></trkpt><trkpt lat="38.6002614" lon="-0.669954"><ele>652.0</ele><time>2026-04-05T11:31:58.03Z</time></trkpt><trkpt lat="38.600155" lon="-0.6699751"><ele>652.0</ele><time>2026-04-05T11:31:59.031Z</time></trkpt><trkpt lat="38.6000532" lon="-0.6699945"><ele>652.0</ele><time>2026-04-05T11:32:00.03Z</time></trkpt><trkpt lat="38.5999528" lon="-0.6700165"><ele>652.8</ele><time>2026-04-05T11:32:01.03Z</time></trkpt><trkpt lat="38.5998529" lon="-0.6700438"><ele>653.6</ele><time>2026-04-05T11:32:02.031Z</time></trkpt><trkpt lat="38.5997517" lon="-0.6700739"><ele>654.4</ele><time>2026-04-05T11:32:03.03Z</time></trkpt><trkpt lat="38.5996559" lon="-0.670102"><ele>655.1999999999999</ele><time>2026-04-05T11:32:04.03Z</time></trkpt><trkpt lat="38.5995589" lon="-0.6701305"><ele>656.0</ele><time>2026-04-05T11:32:05.03Z</time></trkpt><trkpt lat="38.5994575" lon="-0.6701551"><ele>656.5999999999999</ele><time>2026-04-05T11:32:06.03Z</time></trkpt><trkpt lat="38.5993533" lon="-0.6701737"><ele>657.2</ele><time>2026-04-05T11:32:07.03Z</time></trkpt><trkpt lat="38.5992488" lon="-0.6701878"><ele>657.8</ele><time>2026-04-05T11:32:08.031Z</time></trkpt><trkpt lat="38.5991439" lon="-0.6702021"><ele>658.4000000000001</ele><time>2026-04-05T11:32:09.031Z</time></trkpt><trkpt lat="38.5990452" lon="-0.6702178"><ele>659.0</ele><time>2026-04-05T11:32:10.03Z</time></trkpt><trkpt lat="38.5989422" lon="-0.6702371"><ele>659.0</ele><time>2026-04-05T11:32:11.03Z</time></trkpt><trkpt lat="38.598841" lon="-0.670256"><ele>659.0</ele><time>2026-04-05T11:32:12.03Z</time></trkpt><trkpt lat="38.5987418" lon="-0.6702748"><ele>659.0</ele><time>2026-04-05T11:32:13.031Z</time></trkpt><trkpt lat="38.5986469" lon="-0.6702932"><ele>659.0</ele><time>2026-04-05T11:32:14.031Z</time></trkpt><trkpt lat="38.598557" lon="-0.6703101"><ele>659.0</ele><time>2026-04-05T11:32:15.031Z</time></trkpt><trkpt lat="38.5984776" lon="-0.6703258"><ele>661.3333333333333</ele><time>2026-04-05T11:32:16.03Z</time></trkpt><trkpt lat="38.5984085" lon="-0.6703399"><ele>663.6666666666666</ele><time>2026-04-05T11:32:17.03Z</time></trkpt><trkpt lat="38.5983321" lon="-0.6703598"><ele>666.0</ele><time>2026-04-05T11:32:18.03Z</time></trkpt><trkpt lat="38.5982635" lon="-0.6703883"><ele>668.3333333333334</ele><time>2026-04-05T11:32:19.031Z</time></trkpt><trkpt lat="38.5982039" lon="-0.6704292"><ele>670.6666666666667</ele><time>2026-04-05T11:32:20.03Z</time></trkpt><trkpt lat="38.5981012" lon="-0.670489"><ele>673.0</ele><time>2026-04-05T11:32:22.03Z</time></trkpt><trkpt lat="38.5979776" lon="-0.6704388"><ele>673.0</ele><time>2026-04-05T11:32:24.03Z</time></trkpt><trkpt lat="38.5979031" lon="-0.6703808"><ele>673.0</ele><time>2026-04-05T11:32:25.03Z</time></trkpt><trkpt lat="38.597825" lon="-0.6703408"><ele>673.0</ele><time>2026-04-05T11:32:26.031Z</time></trkpt><trkpt lat="38.5977475" lon="-0.6703138"><ele>673.0</ele><time>2026-04-05T11:32:27.03Z</time></trkpt><trkpt lat="38.5976754" lon="-0.670294"><ele>673.0</ele><time>2026-04-05T11:32:28.03Z</time></trkpt><trkpt lat="38.5975973" lon="-0.6702714"><ele>673.0</ele><time>2026-04-05T11:32:29.03Z</time></trkpt><trkpt lat="38.5975072" lon="-0.6702507"><ele>672.4</ele><time>2026-04-05T11:32:30.03Z</time></trkpt><trkpt lat="38.5974099" lon="-0.6702147"><ele>671.8</ele><time>2026-04-05T11:32:31.03Z</time></trkpt><trkpt lat="38.5973066" lon="-0.6701847"><ele>671.2</ele><time>2026-04-05T11:32:32.03Z</time></trkpt><trkpt lat="38.5972004" lon="-0.6701444"><ele>670.6</ele><time>2026-04-05T11:32:33.031Z</time></trkpt><trkpt lat="38.5970949" lon="-0.670109"><ele>670.0</ele><time>2026-04-05T11:32:34.03Z</time></trkpt><trkpt lat="38.5969974" lon="-0.6700773"><ele>669.8</ele><time>2026-04-05T11:32:35.03Z</time></trkpt><trkpt lat="38.5969086" lon="-0.6700507"><ele>669.6</ele><time>2026-04-05T11:32:36.03Z</time></trkpt><trkpt lat="38.5968169" lon="-0.6700217"><ele>669.4000000000001</ele><time>2026-04-05T11:32:37.03Z</time></trkpt><trkpt lat="38.5967226" lon="-0.6699944"><ele>669.2</ele><time>2026-04-05T11:32:38.03Z</time></trkpt><trkpt lat="38.5966271" lon="-0.6699666"><ele>669.0</ele><time>2026-04-05T11:32:39.03Z</time></trkpt><trkpt lat="38.5965292" lon="-0.6699356"><ele>669.0</ele><time>2026-04-05T11:32:40.03Z</time></trkpt><trkpt lat="38.596429" lon="-0.6699033"><ele>669.0</ele><time>2026-04-05T11:32:41.03Z</time></trkpt><trkpt lat="38.5963276" lon="-0.6698735"><ele>669.0</ele><time>2026-04-05T11:32:42.031Z</time></trkpt><trkpt lat="38.5962307" lon="-0.6698432"><ele>669.0</ele><time>2026-04-05T11:32:43.03Z</time></trkpt><trkpt lat="38.5961327" lon="-0.669811"><ele>669.0</ele><time>2026-04-05T11:32:44.031Z</time></trkpt><trkpt lat="38.5960431" lon="-0.6697712"><ele>668.6666666666666</ele><time>2026-04-05T11:32:45.031Z</time></trkpt><trkpt lat="38.5959542" lon="-0.6697236"><ele>668.3333333333334</ele><time>2026-04-05T11:32:46.03Z</time></trkpt><trkpt lat="38.5958726" lon="-0.6696761"><ele>668.0</ele><time>2026-04-05T11:32:47.03Z</time></trkpt><trkpt lat="38.5958083" lon="-0.669641"><ele>667.6666666666667</ele><time>2026-04-05T11:32:48.031Z</time></trkpt><trkpt lat="38.5957234" lon="-0.6696013"><ele>667.3333333333334</ele><time>2026-04-05T11:32:50.03Z</time></trkpt><trkpt lat="38.595665" lon="-0.6695534"><ele>667.0</ele><time>2026-04-05T11:32:52.03Z</time></trkpt><trkpt lat="38.5956119" lon="-0.6695067"><ele>667.0</ele><time>2026-04-05T11:32:54.03Z</time></trkpt><trkpt lat="38.5955593" lon="-0.6694574"><ele>667.0</ele><time>2026-04-05T11:32:56.03Z</time></trkpt><trkpt lat="38.595498" lon="-0.669407"><ele>667.0</ele><time>2026-04-05T11:32:58.03Z</time></trkpt><trkpt lat="38.5954163" lon="-0.6693306"><ele>667.0</ele><time>2026-04-05T11:33:00.03Z</time></trkpt><trkpt lat="38.595328" lon="-0.6692525"><ele>667.0</ele><time>2026-04-05T11:33:02.031Z</time></trkpt><trkpt lat="38.5952409" lon="-0.6691716"><ele>667.4000000000001</ele><time>2026-04-05T11:33:04.03Z</time></trkpt><trkpt lat="38.5951532" lon="-0.6690949"><ele>667.8000000000001</ele><time>2026-04-05T11:33:06.031Z</time></trkpt><trkpt lat="38.5950672" lon="-0.6690209"><ele>668.2</ele><time>2026-04-05T11:33:08.031Z</time></trkpt><trkpt lat="38.5949758" lon="-0.6689479"><ele>668.6</ele><time>2026-04-05T11:33:10.03Z</time></trkpt><trkpt lat="38.5948789" lon="-0.668866"><ele>669.0</ele><time>2026-04-05T11:33:12.031Z</time></trkpt><trkpt lat="38.5947715" lon="-0.6687743"><ele>669.0</ele><time>2026-04-05T11:33:14.03Z</time></trkpt><trkpt lat="38.5947184" lon="-0.6687237"><ele>669.0</ele><time>2026-04-05T11:33:15.031Z</time></trkpt><trkpt lat="38.594664" lon="-0.6686743"><ele>669.0</ele><time>2026-04-05T11:33:16.03Z</time></trkpt><trkpt lat="38.5945766" lon="-0.6685974"><ele>669.0</ele><time>2026-04-05T11:33:18.031Z</time></trkpt><trkpt lat="38.594506" lon="-0.6685318"><ele>669.0</ele><time>2026-04-05T11:33:21.031Z</time></trkpt><trkpt lat="38.5944468" lon="-0.6684803"><ele>669.0</ele><time>2026-04-05T11:33:24.031Z</time></trkpt><trkpt lat="38.5943797" lon="-0.6684199"><ele>669.1428571428571</ele><time>2026-04-05T11:33:27.03Z</time></trkpt><trkpt lat="38.594323" lon="-0.6683703"><ele>669.2857142857142</ele><time>2026-04-05T11:33:29.03Z</time></trkpt><trkpt lat="38.5942644" lon="-0.6683203"><ele>669.4285714285713</ele><time>2026-04-05T11:33:31.03Z</time></trkpt><trkpt lat="38.5942056" lon="-0.6682698"><ele>669.5714285714286</ele><time>2026-04-05T11:33:33.03Z</time></trkpt><trkpt lat="38.5941467" lon="-0.6682181"><ele>669.7142857142857</ele><time>2026-04-05T11:33:36.031Z</time></trkpt><trkpt lat="38.5940882" lon="-0.6681669"><ele>669.8571428571428</ele><time>2026-04-05T11:33:43.031Z</time></trkpt><trkpt lat="38.5940283" lon="-0.6681212"><ele>670.0</ele><time>2026-04-05T11:33:44.031Z</time></trkpt><trkpt lat="38.5939664" lon="-0.6680757"><ele>670.0</ele><time>2026-04-05T11:33:45.03Z</time></trkpt><trkpt lat="38.593903" lon="-0.6680276"><ele>670.0</ele><time>2026-04-05T11:33:46.03Z</time></trkpt><trkpt lat="38.5938362" lon="-0.6679781"><ele>670.0</ele><time>2026-04-05T11:33:47.03Z</time></trkpt><trkpt lat="38.5937603" lon="-0.6679239"><ele>670.0</ele><time>2026-04-05T11:33:48.031Z</time></trkpt><trkpt lat="38.5936846" lon="-0.6678612"><ele>670.0</ele><time>2026-04-05T11:33:49.03Z</time></trkpt><trkpt lat="38.5936106" lon="-0.6677983"><ele>670.0</ele><time>2026-04-05T11:33:50.031Z</time></trkpt><trkpt lat="38.5935409" lon="-0.6677356"><ele>669.3333333333334</ele><time>2026-04-05T11:33:51.03Z</time></trkpt><trkpt lat="38.5934758" lon="-0.6676709"><ele>668.6666666666667</ele><time>2026-04-05T11:33:52.031Z</time></trkpt><trkpt lat="38.5934125" lon="-0.6676125"><ele>668.0</ele><time>2026-04-05T11:33:53.03Z</time></trkpt><trkpt lat="38.5933485" lon="-0.6675533"><ele>667.3333333333334</ele><time>2026-04-05T11:33:54.031Z</time></trkpt><trkpt lat="38.5932806" lon="-0.6674922"><ele>666.6666666666666</ele><time>2026-04-05T11:33:55.03Z</time></trkpt><trkpt lat="38.5932104" lon="-0.6674306"><ele>666.0</ele><time>2026-04-05T11:33:56.031Z</time></trkpt><trkpt lat="38.5931397" lon="-0.6673686"><ele>666.0</ele><time>2026-04-05T11:33:57.031Z</time></trkpt><trkpt lat="38.5930664" lon="-0.6673062"><ele>666.0</ele><time>2026-04-05T11:33:58.031Z</time></trkpt><trkpt lat="38.5929894" lon="-0.6672403"><ele>666.0</ele><time>2026-04-05T11:33:59.031Z</time></trkpt><trkpt lat="38.5929106" lon="-0.6671742"><ele>666.0</ele><time>2026-04-05T11:34:00.03Z</time></trkpt><trkpt lat="38.5928314" lon="-0.6671068"><ele>666.0</ele><time>2026-04-05T11:34:01.03Z</time></trkpt><trkpt lat="38.592752" lon="-0.6670399"><ele>666.1999999999999</ele><time>2026-04-05T11:34:02.03Z</time></trkpt><trkpt lat="38.5926726" lon="-0.6669731"><ele>666.4</ele><time>2026-04-05T11:34:03.031Z</time></trkpt><trkpt lat="38.5925918" lon="-0.6669036"><ele>666.6</ele><time>2026-04-05T11:34:04.03Z</time></trkpt><trkpt lat="38.5925091" lon="-0.6668316"><ele>666.8</ele><time>2026-04-05T11:34:05.031Z</time></trkpt><trkpt lat="38.5924241" lon="-0.6667585"><ele>667.0</ele><time>2026-04-05T11:34:06.03Z</time></trkpt><trkpt lat="38.5923365" lon="-0.666684"><ele>667.0</ele><time>2026-04-05T11:34:07.03Z</time></trkpt><trkpt lat="38.5922475" lon="-0.6666106"><ele>667.0</ele><time>2026-04-05T11:34:08.031Z</time></trkpt><trkpt lat="38.5921576" lon="-0.6665369"><ele>667.0</ele><time>2026-04-05T11:34:09.03Z</time></trkpt><trkpt lat="38.5920737" lon="-0.6664645"><ele>667.0</ele><time>2026-04-05T11:34:10.031Z</time></trkpt><trkpt lat="38.5919919" lon="-0.6663957"><ele>667.0</ele><time>2026-04-05T11:34:11.031Z</time></trkpt><trkpt lat="38.5919132" lon="-0.6663318"><ele>666.8333333333334</ele><time>2026-04-05T11:34:12.031Z</time></trkpt><trkpt lat="38.5918383" lon="-0.6662667"><ele>666.6666666666667</ele><time>2026-04-05T11:34:13.031Z</time></trkpt><trkpt lat="38.5917666" lon="-0.6662069"><ele>666.5</ele><time>2026-04-05T11:34:14.03Z</time></trkpt><trkpt lat="38.5916891" lon="-0.6661433"><ele>666.3333333333334</ele><time>2026-04-05T11:34:15.03Z</time></trkpt><trkpt lat="38.5916136" lon="-0.6660807"><ele>666.1666666666666</ele><time>2026-04-05T11:34:16.03Z</time></trkpt><trkpt lat="38.5915441" lon="-0.6660254"><ele>666.0</ele><time>2026-04-05T11:34:17.031Z</time></trkpt><trkpt lat="38.591486" lon="-0.6659804"><ele>666.0</ele><time>2026-04-05T11:34:18.03Z</time></trkpt><trkpt lat="38.5913773" lon="-0.6659063"><ele>666.0</ele><time>2026-04-05T11:34:20.03Z</time></trkpt><trkpt lat="38.5913019" lon="-0.6658829"><ele>666.0</ele><time>2026-04-05T11:34:21.031Z</time></trkpt><trkpt lat="38.5912217" lon="-0.6658648"><ele>666.0</ele><time>2026-04-05T11:34:22.031Z</time></trkpt><trkpt lat="38.5911367" lon="-0.6658248"><ele>666.0</ele><time>2026-04-05T11:34:23.031Z</time></trkpt><trkpt lat="38.5910632" lon="-0.6657473"><ele>665.5</ele><time>2026-04-05T11:34:24.031Z</time></trkpt><trkpt lat="38.5910034" lon="-0.665631"><ele>665.0</ele><time>2026-04-05T11:34:25.031Z</time></trkpt><trkpt lat="38.5909302" lon="-0.6655051"><ele>664.5</ele><time>2026-04-05T11:34:26.03Z</time></trkpt><trkpt lat="38.590829" lon="-0.6653977"><ele>664.0</ele><time>2026-04-05T11:34:27.03Z</time></trkpt><trkpt lat="38.5907068" lon="-0.6652917"><ele>664.0</ele><time>2026-04-05T11:34:28.03Z</time></trkpt><trkpt lat="38.5905919" lon="-0.6651975"><ele>664.0</ele><time>2026-04-05T11:34:29.031Z</time></trkpt><trkpt lat="38.5904816" lon="-0.6651069"><ele>664.0</ele><time>2026-04-05T11:34:30.03Z</time></trkpt><trkpt lat="38.5903805" lon="-0.665027"><ele>664.0</ele><time>2026-04-05T11:34:31.031Z</time></trkpt><trkpt lat="38.5902839" lon="-0.6649456"><ele>664.25</ele><time>2026-04-05T11:34:32.031Z</time></trkpt><trkpt lat="38.5901892" lon="-0.6648652"><ele>664.5</ele><time>2026-04-05T11:34:33.03Z</time></trkpt><trkpt lat="38.5900893" lon="-0.6647832"><ele>664.75</ele><time>2026-04-05T11:34:34.03Z</time></trkpt><trkpt lat="38.5899777" lon="-0.664692"><ele>665.0</ele><time>2026-04-05T11:34:35.031Z</time></trkpt><trkpt lat="38.5898532" lon="-0.6645894"><ele>665.0</ele><time>2026-04-05T11:34:36.031Z</time></trkpt><trkpt lat="38.5897157" lon="-0.6644743"><ele>665.0</ele><time>2026-04-05T11:34:37.03Z</time></trkpt><trkpt lat="38.5895732" lon="-0.6643485"><ele>665.0</ele><time>2026-04-05T11:34:38.03Z</time></trkpt><trkpt lat="38.5894293" lon="-0.664224"><ele>664.3333333333333</ele><time>2026-04-05T11:34:39.03Z</time></trkpt><trkpt lat="38.5892854" lon="-0.6641013"><ele>663.6666666666666</ele><time>2026-04-05T11:34:40.03Z</time></trkpt><trkpt lat="38.5891387" lon="-0.6639744"><ele>663.0</ele><time>2026-04-05T11:34:41.03Z</time></trkpt><trkpt lat="38.5889918" lon="-0.6638478"><ele>663.0</ele><time>2026-04-05T11:34:42.031Z</time></trkpt><trkpt lat="38.5888366" lon="-0.6637169"><ele>663.0</ele><time>2026-04-05T11:34:43.031Z</time></trkpt><trkpt lat="38.5886725" lon="-0.6635765"><ele>663.0</ele><time>2026-04-05T11:34:44.031Z</time></trkpt><trkpt lat="38.5885036" lon="-0.6634324"><ele>663.0</ele><time>2026-04-05T11:34:45.03Z</time></trkpt><trkpt lat="38.5883305" lon="-0.6632847"><ele>663.0</ele><time>2026-04-05T11:34:46.03Z</time></trkpt><trkpt lat="38.5881604" lon="-0.663139"><ele>663.0</ele><time>2026-04-05T11:34:47.03Z</time></trkpt><trkpt lat="38.5879926" lon="-0.6629949"><ele>663.0</ele><time>2026-04-05T11:34:48.03Z</time></trkpt><trkpt lat="38.5878267" lon="-0.6628525"><ele>663.0</ele><time>2026-04-05T11:34:49.03Z</time></trkpt><trkpt lat="38.5876562" lon="-0.6627063"><ele>663.0</ele><time>2026-04-05T11:34:50.031Z</time></trkpt><trkpt lat="38.5874806" lon="-0.6625601"><ele>663.0</ele><time>2026-04-05T11:34:51.031Z</time></trkpt><trkpt lat="38.5873062" lon="-0.6624135"><ele>663.0</ele><time>2026-04-05T11:34:52.03Z</time></trkpt><trkpt lat="38.5871396" lon="-0.6622688"><ele>663.0</ele><time>2026-04-05T11:34:53.031Z</time></trkpt><trkpt lat="38.586978" lon="-0.6621259"><ele>663.0</ele><time>2026-04-05T11:34:54.031Z</time></trkpt><trkpt lat="38.5868138" lon="-0.6619827"><ele>663.0</ele><time>2026-04-05T11:34:55.031Z</time></trkpt><trkpt lat="38.5866439" lon="-0.6618373"><ele>663.0</ele><time>2026-04-05T11:34:56.031Z</time></trkpt><trkpt lat="38.5864751" lon="-0.6616912"><ele>663.0</ele><time>2026-04-05T11:34:57.031Z</time></trkpt><trkpt lat="38.58631" lon="-0.661546"><ele>663.0</ele><time>2026-04-05T11:34:58.03Z</time></trkpt><trkpt lat="38.5861437" lon="-0.6614005"><ele>663.0</ele><time>2026-04-05T11:34:59.031Z</time></trkpt><trkpt lat="38.5859798" lon="-0.6612577"><ele>663.0</ele><time>2026-04-05T11:35:00.031Z</time></trkpt><trkpt lat="38.5858119" lon="-0.6611143"><ele>663.0</ele><time>2026-04-05T11:35:01.031Z</time></trkpt><trkpt lat="38.5856418" lon="-0.6609701"><ele>663.0</ele><time>2026-04-05T11:35:02.031Z</time></trkpt><trkpt lat="38.5854729" lon="-0.6608239"><ele>664.6666666666666</ele><time>2026-04-05T11:35:03.03Z</time></trkpt><trkpt lat="38.5853119" lon="-0.6606771"><ele>666.3333333333333</ele><time>2026-04-05T11:35:04.031Z</time></trkpt><trkpt lat="38.5851284" lon="-0.6605278"><ele>668.0</ele><time>2026-04-05T11:35:05.031Z</time></trkpt><trkpt lat="38.584953" lon="-0.6603784"><ele>667.0</ele><time>2026-04-05T11:35:06.03Z</time></trkpt><trkpt lat="38.584775" lon="-0.6602283"><ele>666.0</ele><time>2026-04-05T11:35:07.03Z</time></trkpt><trkpt lat="38.5845972" lon="-0.660079"><ele>665.0</ele><time>2026-04-05T11:35:08.03Z</time></trkpt><trkpt lat="38.5844182" lon="-0.6599254"><ele>665.0</ele><time>2026-04-05T11:35:09.03Z</time></trkpt><trkpt lat="38.5842353" lon="-0.6597709"><ele>665.0</ele><time>2026-04-05T11:35:10.03Z</time></trkpt><trkpt lat="38.5840483" lon="-0.6596122"><ele>665.0</ele><time>2026-04-05T11:35:11.031Z</time></trkpt><trkpt lat="38.5838592" lon="-0.6594516"><ele>663.5</ele><time>2026-04-05T11:35:12.03Z</time></trkpt><trkpt lat="38.5836688" lon="-0.6592884"><ele>662.0</ele><time>2026-04-05T11:35:13.031Z</time></trkpt><trkpt lat="38.5834757" lon="-0.6591221"><ele>662.0</ele><time>2026-04-05T11:35:14.03Z</time></trkpt><trkpt lat="38.5832835" lon="-0.6589558"><ele>662.0</ele><time>2026-04-05T11:35:15.03Z</time></trkpt><trkpt lat="38.5830884" lon="-0.6587886"><ele>662.0</ele><time>2026-04-05T11:35:16.03Z</time></trkpt><trkpt lat="38.5828947" lon="-0.6586222"><ele>662.0</ele><time>2026-04-05T11:35:17.03Z</time></trkpt><trkpt lat="38.5827016" lon="-0.6584576"><ele>662.0</ele><time>2026-04-05T11:35:18.031Z</time></trkpt><trkpt lat="38.5825146" lon="-0.6582954"><ele>662.0</ele><time>2026-04-05T11:35:19.03Z</time></trkpt><trkpt lat="38.5823344" lon="-0.6581402"><ele>662.0</ele><time>2026-04-05T11:35:20.03Z</time></trkpt><trkpt lat="38.582161" lon="-0.657993"><ele>661.6666666666666</ele><time>2026-04-05T11:35:21.031Z</time></trkpt><trkpt lat="38.5819871" lon="-0.6578483"><ele>661.3333333333334</ele><time>2026-04-05T11:35:22.031Z</time></trkpt><trkpt lat="38.5818146" lon="-0.6577027"><ele>661.0</ele><time>2026-04-05T11:35:23.03Z</time></trkpt><trkpt lat="38.5816395" lon="-0.6575544"><ele>660.3333333333334</ele><time>2026-04-05T11:35:24.03Z</time></trkpt><trkpt lat="38.581462" lon="-0.6574022"><ele>659.6666666666666</ele><time>2026-04-05T11:35:25.03Z</time></trkpt><trkpt lat="38.5812808" lon="-0.6572474"><ele>659.0</ele><time>2026-04-05T11:35:26.031Z</time></trkpt><trkpt lat="38.5810941" lon="-0.6570892"><ele>657.0</ele><time>2026-04-05T11:35:27.031Z</time></trkpt><trkpt lat="38.5809038" lon="-0.6569272"><ele>655.0</ele><time>2026-04-05T11:35:28.03Z</time></trkpt><trkpt lat="38.5807117" lon="-0.656763"><ele>655.0</ele><time>2026-04-05T11:35:29.03Z</time></trkpt><trkpt lat="38.5805205" lon="-0.656602"><ele>655.0</ele><time>2026-04-05T11:35:30.031Z</time></trkpt><trkpt lat="38.5803315" lon="-0.6564398"><ele>656.0</ele><time>2026-04-05T11:35:31.03Z</time></trkpt><trkpt lat="38.5801397" lon="-0.6562772"><ele>657.0</ele><time>2026-04-05T11:35:32.03Z</time></trkpt><trkpt lat="38.5799488" lon="-0.6561173"><ele>656.3333333333334</ele><time>2026-04-05T11:35:33.03Z</time></trkpt><trkpt lat="38.5797637" lon="-0.6559597"><ele>655.6666666666667</ele><time>2026-04-05T11:35:34.03Z</time></trkpt><trkpt lat="38.5795896" lon="-0.6558065"><ele>655.0</ele><time>2026-04-05T11:35:35.03Z</time></trkpt><trkpt lat="38.5794262" lon="-0.6556641"><ele>655.0</ele><time>2026-04-05T11:35:36.031Z</time></trkpt><trkpt lat="38.5792744" lon="-0.6555333"><ele>655.0</ele><time>2026-04-05T11:35:37.031Z</time></trkpt><trkpt lat="38.579133" lon="-0.6554125"><ele>655.0</ele><time>2026-04-05T11:35:38.03Z</time></trkpt><trkpt lat="38.5790029" lon="-0.6553018"><ele>655.0</ele><time>2026-04-05T11:35:39.031Z</time></trkpt><trkpt lat="38.5788833" lon="-0.6552"><ele>655.0</ele><time>2026-04-05T11:35:40.031Z</time></trkpt><trkpt lat="38.5787734" lon="-0.6551053"><ele>655.0</ele><time>2026-04-05T11:35:41.031Z</time></trkpt><trkpt lat="38.5786724" lon="-0.6550152"><ele>655.0</ele><time>2026-04-05T11:35:42.031Z</time></trkpt><trkpt lat="38.5785801" lon="-0.654934"><ele>656.0</ele><time>2026-04-05T11:35:43.031Z</time></trkpt><trkpt lat="38.5784945" lon="-0.6548602"><ele>657.0</ele><time>2026-04-05T11:35:44.031Z</time></trkpt><trkpt lat="38.5784145" lon="-0.6547939"><ele>658.0</ele><time>2026-04-05T11:35:45.031Z</time></trkpt><trkpt lat="38.5783384" lon="-0.6547393"><ele>659.0</ele><time>2026-04-05T11:35:46.03Z</time></trkpt><trkpt lat="38.5782609" lon="-0.6546901"><ele>660.0</ele><time>2026-04-05T11:35:47.03Z</time></trkpt><trkpt lat="38.5781812" lon="-0.6546587"><ele>660.0</ele><time>2026-04-05T11:35:48.031Z</time></trkpt><trkpt lat="38.5780966" lon="-0.6546534"><ele>660.0</ele><time>2026-04-05T11:35:49.03Z</time></trkpt><trkpt lat="38.57801" lon="-0.6546817"><ele>660.0</ele><time>2026-04-05T11:35:50.031Z</time></trkpt><trkpt lat="38.5779184" lon="-0.654718"><ele>660.0</ele><time>2026-04-05T11:35:51.03Z</time></trkpt><trkpt lat="38.5778314" lon="-0.6547292"><ele>660.0</ele><time>2026-04-05T11:35:52.03Z</time></trkpt><trkpt lat="38.5777513" lon="-0.6547031"><ele>660.0</ele><time>2026-04-05T11:35:53.031Z</time></trkpt><trkpt lat="38.5776829" lon="-0.6546453"><ele>660.4</ele><time>2026-04-05T11:35:54.03Z</time></trkpt><trkpt lat="38.5776345" lon="-0.6545616"><ele>660.8</ele><time>2026-04-05T11:35:55.031Z</time></trkpt><trkpt lat="38.5776117" lon="-0.6544537"><ele>661.2</ele><time>2026-04-05T11:35:56.031Z</time></trkpt><trkpt lat="38.5775986" lon="-0.6543305"><ele>661.6</ele><time>2026-04-05T11:35:57.031Z</time></trkpt><trkpt lat="38.5775651" lon="-0.6542016"><ele>662.0</ele><time>2026-04-05T11:35:58.03Z</time></trkpt><trkpt lat="38.5775087" lon="-0.6540991"><ele>660.5</ele><time>2026-04-05T11:35:59.031Z</time></trkpt><trkpt lat="38.5774256" lon="-0.6540315"><ele>659.0</ele><time>2026-04-05T11:36:00.031Z</time></trkpt><trkpt lat="38.5773226" lon="-0.6539854"><ele>657.5</ele><time>2026-04-05T11:36:01.031Z</time></trkpt><trkpt lat="38.5772064" lon="-0.6539567"><ele>656.0</ele><time>2026-04-05T11:36:02.031Z</time></trkpt><trkpt lat="38.577081" lon="-0.6539364"><ele>656.25</ele><time>2026-04-05T11:36:03.03Z</time></trkpt><trkpt lat="38.5769561" lon="-0.6539192"><ele>656.5</ele><time>2026-04-05T11:36:04.03Z</time></trkpt><trkpt lat="38.5768386" lon="-0.6538969"><ele>656.75</ele><time>2026-04-05T11:36:05.031Z</time></trkpt><trkpt lat="38.5767306" lon="-0.6538695"><ele>657.0</ele><time>2026-04-05T11:36:06.031Z</time></trkpt><trkpt lat="38.5766324" lon="-0.6538346"><ele>657.0</ele><time>2026-04-05T11:36:07.03Z</time></trkpt><trkpt lat="38.5765432" lon="-0.6537908"><ele>657.0</ele><time>2026-04-05T11:36:08.03Z</time></trkpt><trkpt lat="38.5764652" lon="-0.6537426"><ele>657.0</ele><time>2026-04-05T11:36:09.03Z</time></trkpt><trkpt lat="38.5763885" lon="-0.6536822"><ele>657.0</ele><time>2026-04-05T11:36:10.03Z</time></trkpt><trkpt lat="38.576316" lon="-0.6536101"><ele>657.0</ele><time>2026-04-05T11:36:11.031Z</time></trkpt><trkpt lat="38.5762479" lon="-0.6535317"><ele>655.8333333333334</ele><time>2026-04-05T11:36:12.031Z</time></trkpt><trkpt lat="38.5761834" lon="-0.6534595"><ele>654.6666666666666</ele><time>2026-04-05T11:36:13.031Z</time></trkpt><trkpt lat="38.5761135" lon="-0.6534024"><ele>653.5</ele><time>2026-04-05T11:36:14.03Z</time></trkpt><trkpt lat="38.576035" lon="-0.6533685"><ele>652.3333333333333</ele><time>2026-04-05T11:36:15.031Z</time></trkpt><trkpt lat="38.5759458" lon="-0.6533552"><ele>651.1666666666666</ele><time>2026-04-05T11:36:16.031Z</time></trkpt><trkpt lat="38.5758481" lon="-0.6533418"><ele>650.0</ele><time>2026-04-05T11:36:17.03Z</time></trkpt><trkpt lat="38.5757433" lon="-0.6533045"><ele>650.0</ele><time>2026-04-05T11:36:18.031Z</time></trkpt><trkpt lat="38.5756457" lon="-0.6532396"><ele>650.0</ele><time>2026-04-05T11:36:19.03Z</time></trkpt><trkpt lat="38.5755707" lon="-0.6531563"><ele>650.0</ele><time>2026-04-05T11:36:20.031Z</time></trkpt><trkpt lat="38.57552" lon="-0.6530595"><ele>650.0</ele><time>2026-04-05T11:36:21.031Z</time></trkpt><trkpt lat="38.5754873" lon="-0.6529515"><ele>650.0</ele><time>2026-04-05T11:36:22.03Z</time></trkpt><trkpt lat="38.5754732" lon="-0.6528463"><ele>649.6666666666666</ele><time>2026-04-05T11:36:23.031Z</time></trkpt><trkpt lat="38.5754757" lon="-0.6527462"><ele>649.3333333333333</ele><time>2026-04-05T11:36:24.031Z</time></trkpt><trkpt lat="38.575485" lon="-0.6526386"><ele>649.0</ele><time>2026-04-05T11:36:25.031Z</time></trkpt><trkpt lat="38.5755101" lon="-0.6525464"><ele>648.6666666666666</ele><time>2026-04-05T11:36:26.03Z</time></trkpt><trkpt lat="38.5755499" lon="-0.6524561"><ele>648.3333333333334</ele><time>2026-04-05T11:36:27.031Z</time></trkpt><trkpt lat="38.5755954" lon="-0.6523572"><ele>648.0</ele><time>2026-04-05T11:36:28.031Z</time></trkpt><trkpt lat="38.5756226" lon="-0.6522445"><ele>648.0</ele><time>2026-04-05T11:36:29.031Z</time></trkpt><trkpt lat="38.5756238" lon="-0.6521324"><ele>648.0</ele><time>2026-04-05T11:36:30.031Z</time></trkpt><trkpt lat="38.575601" lon="-0.6520238"><ele>648.0</ele><time>2026-04-05T11:36:31.031Z</time></trkpt><trkpt lat="38.5755543" lon="-0.6519235"><ele>648.0</ele><time>2026-04-05T11:36:32.03Z</time></trkpt><trkpt lat="38.5754839" lon="-0.6518405"><ele>648.0</ele><time>2026-04-05T11:36:33.03Z</time></trkpt><trkpt lat="38.5753901" lon="-0.6517883"><ele>648.5</ele><time>2026-04-05T11:36:34.031Z</time></trkpt><trkpt lat="38.575281" lon="-0.6517736"><ele>649.0</ele><time>2026-04-05T11:36:35.03Z</time></trkpt><trkpt lat="38.5751624" lon="-0.6517895"><ele>649.5</ele><time>2026-04-05T11:36:36.03Z</time></trkpt><trkpt lat="38.5750427" lon="-0.651799"><ele>650.0</ele><time>2026-04-05T11:36:37.03Z</time></trkpt><trkpt lat="38.5749303" lon="-0.6517802"><ele>650.0</ele><time>2026-04-05T11:36:38.031Z</time></trkpt><trkpt lat="38.5748293" lon="-0.6517322"><ele>650.0</ele><time>2026-04-05T11:36:39.03Z</time></trkpt><trkpt lat="38.5747303" lon="-0.6516604"><ele>650.0</ele><time>2026-04-05T11:36:40.031Z</time></trkpt><trkpt lat="38.5746248" lon="-0.6515733"><ele>650.0</ele><time>2026-04-05T11:36:41.031Z</time></trkpt><trkpt lat="38.5745103" lon="-0.6514745"><ele>649.5</ele><time>2026-04-05T11:36:42.03Z</time></trkpt><trkpt lat="38.5743864" lon="-0.6513686"><ele>649.0</ele><time>2026-04-05T11:36:43.03Z</time></trkpt><trkpt lat="38.5742656" lon="-0.6512648"><ele>648.5</ele><time>2026-04-05T11:36:44.03Z</time></trkpt><trkpt lat="38.5741435" lon="-0.6511593"><ele>648.0</ele><time>2026-04-05T11:36:45.031Z</time></trkpt><trkpt lat="38.5740208" lon="-0.6510532"><ele>648.0</ele><time>2026-04-05T11:36:46.031Z</time></trkpt><trkpt lat="38.5738983" lon="-0.6509464"><ele>648.0</ele><time>2026-04-05T11:36:47.03Z</time></trkpt><trkpt lat="38.5737761" lon="-0.6508427"><ele>648.0</ele><time>2026-04-05T11:36:48.031Z</time></trkpt><trkpt lat="38.5736568" lon="-0.6507414"><ele>648.0</ele><time>2026-04-05T11:36:49.031Z</time></trkpt><trkpt lat="38.5735375" lon="-0.6506403"><ele>647.75</ele><time>2026-04-05T11:36:50.03Z</time></trkpt><trkpt lat="38.5734155" lon="-0.6505409"><ele>647.5</ele><time>2026-04-05T11:36:51.031Z</time></trkpt><trkpt lat="38.5732906" lon="-0.6504489"><ele>647.25</ele><time>2026-04-05T11:36:52.03Z</time></trkpt><trkpt lat="38.573161" lon="-0.6503613"><ele>647.0</ele><time>2026-04-05T11:36:53.03Z</time></trkpt><trkpt lat="38.5730324" lon="-0.650272"><ele>647.5</ele><time>2026-04-05T11:36:54.03Z</time></trkpt><trkpt lat="38.5729145" lon="-0.650164"><ele>648.0</ele><time>2026-04-05T11:36:55.031Z</time></trkpt><trkpt lat="38.5728222" lon="-0.6500247"><ele>648.5</ele><time>2026-04-05T11:36:56.03Z</time></trkpt><trkpt lat="38.5727561" lon="-0.6498517"><ele>649.0</ele><time>2026-04-05T11:36:57.03Z</time></trkpt><trkpt lat="38.5727113" lon="-0.6496674"><ele>645.6666666666667</ele><time>2026-04-05T11:36:58.03Z</time></trkpt><trkpt lat="38.5726751" lon="-0.649472"><ele>642.3333333333334</ele><time>2026-04-05T11:36:59.03Z</time></trkpt><trkpt lat="38.5726425" lon="-0.6492704"><ele>639.0</ele><time>2026-04-05T11:37:00.031Z</time></trkpt><trkpt lat="38.5726105" lon="-0.6490699"><ele>639.0</ele><time>2026-04-05T11:37:01.03Z</time></trkpt><trkpt lat="38.5725758" lon="-0.6488692"><ele>639.0</ele><time>2026-04-05T11:37:02.031Z</time></trkpt><trkpt lat="38.5725405" lon="-0.6486731"><ele>639.0</ele><time>2026-04-05T11:37:03.03Z</time></trkpt><trkpt lat="38.572496" lon="-0.6484904"><ele>638.6666666666666</ele><time>2026-04-05T11:37:04.031Z</time></trkpt><trkpt lat="38.5724349" lon="-0.6483181"><ele>638.3333333333333</ele><time>2026-04-05T11:37:05.031Z</time></trkpt><trkpt lat="38.5723554" lon="-0.6481561"><ele>638.0</ele><time>2026-04-05T11:37:06.031Z</time></trkpt><trkpt lat="38.5722565" lon="-0.6480024"><ele>638.0</ele><time>2026-04-05T11:37:07.031Z</time></trkpt><trkpt lat="38.572141" lon="-0.6478555"><ele>638.0</ele><time>2026-04-05T11:37:08.03Z</time></trkpt><trkpt lat="38.5720116" lon="-0.6477169"><ele>638.0</ele><time>2026-04-05T11:37:09.031Z</time></trkpt><trkpt lat="38.5718749" lon="-0.6475801"><ele>633.3333333333333</ele><time>2026-04-05T11:37:10.031Z</time></trkpt><trkpt lat="38.5717335" lon="-0.6474404"><ele>628.6666666666666</ele><time>2026-04-05T11:37:11.03Z</time></trkpt><trkpt lat="38.5715875" lon="-0.6472938"><ele>624.0</ele><time>2026-04-05T11:37:12.03Z</time></trkpt><trkpt lat="38.5714423" lon="-0.6471456"><ele>624.0</ele><time>2026-04-05T11:37:13.031Z</time></trkpt><trkpt lat="38.5712953" lon="-0.6469924"><ele>624.0</ele><time>2026-04-05T11:37:14.03Z</time></trkpt><trkpt lat="38.5711456" lon="-0.6468339"><ele>624.0</ele><time>2026-04-05T11:37:15.03Z</time></trkpt><trkpt lat="38.5709908" lon="-0.6466778"><ele>622.6666666666666</ele><time>2026-04-05T11:37:16.03Z</time></trkpt><trkpt lat="38.5708312" lon="-0.6465192"><ele>621.3333333333333</ele><time>2026-04-05T11:37:17.031Z</time></trkpt><trkpt lat="38.5706715" lon="-0.6463622"><ele>620.0</ele><time>2026-04-05T11:37:18.031Z</time></trkpt><trkpt lat="38.5705091" lon="-0.6462002"><ele>619.6666666666666</ele><time>2026-04-05T11:37:19.03Z</time></trkpt><trkpt lat="38.5703449" lon="-0.6460359"><ele>619.3333333333334</ele><time>2026-04-05T11:37:20.031Z</time></trkpt><trkpt lat="38.5701814" lon="-0.6458726"><ele>619.0</ele><time>2026-04-05T11:37:21.03Z</time></trkpt><trkpt lat="38.570023" lon="-0.6457155"><ele>619.0</ele><time>2026-04-05T11:37:22.031Z</time></trkpt><trkpt lat="38.5698698" lon="-0.645564"><ele>619.0</ele><time>2026-04-05T11:37:23.03Z</time></trkpt><trkpt lat="38.5697206" lon="-0.645416"><ele>619.0</ele><time>2026-04-05T11:37:24.031Z</time></trkpt><trkpt lat="38.5695745" lon="-0.6452698"><ele>619.0</ele><time>2026-04-05T11:37:25.03Z</time></trkpt><trkpt lat="38.569429" lon="-0.6451253"><ele>619.0</ele><time>2026-04-05T11:37:26.03Z</time></trkpt><trkpt lat="38.5692822" lon="-0.6449817"><ele>619.0</ele><time>2026-04-05T11:37:27.03Z</time></trkpt><trkpt lat="38.5691307" lon="-0.6448362"><ele>619.0</ele><time>2026-04-05T11:37:28.031Z</time></trkpt><trkpt lat="38.5689765" lon="-0.6446877"><ele>619.0</ele><time>2026-04-05T11:37:29.03Z</time></trkpt><trkpt lat="38.5688193" lon="-0.644533"><ele>619.0</ele><time>2026-04-05T11:37:30.03Z</time></trkpt><trkpt lat="38.5686625" lon="-0.6443644"><ele>617.5</ele><time>2026-04-05T11:37:31.03Z</time></trkpt><trkpt lat="38.5685061" lon="-0.6441665"><ele>616.0</ele><time>2026-04-05T11:37:32.031Z</time></trkpt><trkpt lat="38.5683473" lon="-0.6439247"><ele>616.0</ele><time>2026-04-05T11:37:33.03Z</time></trkpt><trkpt lat="38.5681775" lon="-0.6436461"><ele>616.0</ele><time>2026-04-05T11:37:34.031Z</time></trkpt><trkpt lat="38.5679925" lon="-0.643336"><ele>615.5</ele><time>2026-04-05T11:37:35.03Z</time></trkpt><trkpt lat="38.5677923" lon="-0.6430034"><ele>615.0</ele><time>2026-04-05T11:37:36.031Z</time></trkpt><trkpt lat="38.5675775" lon="-0.642649"><ele>615.0</ele><time>2026-04-05T11:37:37.031Z</time></trkpt><trkpt lat="38.5673491" lon="-0.6422799"><ele>615.0</ele><time>2026-04-05T11:37:38.031Z</time></trkpt><trkpt lat="38.5671206" lon="-0.641918"><ele>612.0</ele><time>2026-04-05T11:37:39.03Z</time></trkpt><trkpt lat="38.5669006" lon="-0.6415784"><ele>609.0</ele><time>2026-04-05T11:37:40.03Z</time></trkpt><trkpt lat="38.5666933" lon="-0.6412623"><ele>610.5</ele><time>2026-04-05T11:37:41.031Z</time></trkpt><trkpt lat="38.5665021" lon="-0.6409621"><ele>612.0</ele><time>2026-04-05T11:37:42.031Z</time></trkpt><trkpt lat="38.5663272" lon="-0.6406766"><ele>606.5</ele><time>2026-04-05T11:37:43.03Z</time></trkpt><trkpt lat="38.5661639" lon="-0.6404042"><ele>601.0</ele><time>2026-04-05T11:37:44.03Z</time></trkpt><trkpt lat="38.5660099" lon="-0.6401465"><ele>601.0</ele><time>2026-04-05T11:37:45.03Z</time></trkpt><trkpt lat="38.5658545" lon="-0.6398921"><ele>601.0</ele><time>2026-04-05T11:37:46.03Z</time></trkpt><trkpt lat="38.5656887" lon="-0.6396451"><ele>602.5</ele><time>2026-04-05T11:37:47.031Z</time></trkpt><trkpt lat="38.5655084" lon="-0.6394143"><ele>604.0</ele><time>2026-04-05T11:37:48.03Z</time></trkpt><trkpt lat="38.5653125" lon="-0.6391965"><ele>604.0</ele><time>2026-04-05T11:37:49.031Z</time></trkpt><trkpt lat="38.5651152" lon="-0.638982"><ele>604.0</ele><time>2026-04-05T11:37:50.03Z</time></trkpt><trkpt lat="38.5649223" lon="-0.6387705"><ele>607.0</ele><time>2026-04-05T11:37:51.031Z</time></trkpt><trkpt lat="38.5647368" lon="-0.6385659"><ele>610.0</ele><time>2026-04-05T11:37:52.031Z</time></trkpt><trkpt lat="38.5645549" lon="-0.6383657"><ele>609.3333333333334</ele><time>2026-04-05T11:37:53.03Z</time></trkpt><trkpt lat="38.5643864" lon="-0.6381708"><ele>608.6666666666666</ele><time>2026-04-05T11:37:54.031Z</time></trkpt><trkpt lat="38.564226" lon="-0.6379874"><ele>608.0</ele><time>2026-04-05T11:37:55.031Z</time></trkpt><trkpt lat="38.564069" lon="-0.6378133"><ele>609.0</ele><time>2026-04-05T11:37:56.031Z</time></trkpt><trkpt lat="38.5639161" lon="-0.6376458"><ele>610.0</ele><time>2026-04-05T11:37:57.03Z</time></trkpt><trkpt lat="38.5637648" lon="-0.6374848"><ele>611.0</ele><time>2026-04-05T11:37:58.03Z</time></trkpt><trkpt lat="38.5636179" lon="-0.6373512"><ele>609.0</ele><time>2026-04-05T11:37:59.03Z</time></trkpt><trkpt lat="38.5634712" lon="-0.6372645"><ele>607.0</ele><time>2026-04-05T11:38:00.031Z</time></trkpt><trkpt lat="38.5633208" lon="-0.6372317"><ele>605.0</ele><time>2026-04-05T11:38:01.031Z</time></trkpt><trkpt lat="38.5631513" lon="-0.6372498"><ele>605.0</ele><time>2026-04-05T11:38:02.03Z</time></trkpt><trkpt lat="38.5629598" lon="-0.6373137"><ele>605.0</ele><time>2026-04-05T11:38:03.03Z</time></trkpt><trkpt lat="38.5627577" lon="-0.6373949"><ele>605.0</ele><time>2026-04-05T11:38:04.03Z</time></trkpt><trkpt lat="38.5625628" lon="-0.6374756"><ele>603.3333333333333</ele><time>2026-04-05T11:38:05.031Z</time></trkpt><trkpt lat="38.5623938" lon="-0.6375381"><ele>601.6666666666666</ele><time>2026-04-05T11:38:06.031Z</time></trkpt><trkpt lat="38.5622381" lon="-0.637579"><ele>600.0</ele><time>2026-04-05T11:38:07.031Z</time></trkpt><trkpt lat="38.5620812" lon="-0.6375797"><ele>598.3333333333334</ele><time>2026-04-05T11:38:08.031Z</time></trkpt><trkpt lat="38.5619125" lon="-0.6375322"><ele>596.6666666666667</ele><time>2026-04-05T11:38:09.031Z</time></trkpt><trkpt lat="38.561728" lon="-0.6374569"><ele>595.0</ele><time>2026-04-05T11:38:10.031Z</time></trkpt><trkpt lat="38.5615507" lon="-0.6373756"><ele>595.0</ele><time>2026-04-05T11:38:11.031Z</time></trkpt><trkpt lat="38.5613853" lon="-0.6372764"><ele>595.0</ele><time>2026-04-05T11:38:12.03Z</time></trkpt><trkpt lat="38.5612436" lon="-0.63716"><ele>595.0</ele><time>2026-04-05T11:38:13.03Z</time></trkpt><trkpt lat="38.5611051" lon="-0.6370072"><ele>591.3333333333334</ele><time>2026-04-05T11:38:14.031Z</time></trkpt><trkpt lat="38.5609717" lon="-0.6368274"><ele>587.6666666666666</ele><time>2026-04-05T11:38:15.03Z</time></trkpt><trkpt lat="38.5608407" lon="-0.6366329"><ele>584.0</ele><time>2026-04-05T11:38:16.031Z</time></trkpt><trkpt lat="38.5607251" lon="-0.6364598"><ele>584.0</ele><time>2026-04-05T11:38:17.031Z</time></trkpt><trkpt lat="38.5606169" lon="-0.636309"><ele>584.0</ele><time>2026-04-05T11:38:18.031Z</time></trkpt><trkpt lat="38.5605043" lon="-0.6361831"><ele>584.0</ele><time>2026-04-05T11:38:19.03Z</time></trkpt><trkpt lat="38.5603829" lon="-0.6360866"><ele>581.0</ele><time>2026-04-05T11:38:20.03Z</time></trkpt><trkpt lat="38.5602426" lon="-0.6360147"><ele>578.0</ele><time>2026-04-05T11:38:21.031Z</time></trkpt><trkpt lat="38.5600848" lon="-0.6359694"><ele>575.0</ele><time>2026-04-05T11:38:22.031Z</time></trkpt><trkpt lat="38.5599045" lon="-0.6359419"><ele>575.0</ele><time>2026-04-05T11:38:23.03Z</time></trkpt><trkpt lat="38.5597083" lon="-0.6359348"><ele>575.0</ele><time>2026-04-05T11:38:24.03Z</time></trkpt><trkpt lat="38.5594936" lon="-0.635935"><ele>575.0</ele><time>2026-04-05T11:38:25.03Z</time></trkpt><trkpt lat="38.5592776" lon="-0.6359432"><ele>577.3333333333333</ele><time>2026-04-05T11:38:26.03Z</time></trkpt><trkpt lat="38.5590557" lon="-0.6359708"><ele>579.6666666666666</ele><time>2026-04-05T11:38:27.031Z</time></trkpt><trkpt lat="38.5588334" lon="-0.6360111"><ele>582.0</ele><time>2026-04-05T11:38:28.031Z</time></trkpt><trkpt lat="38.5586145" lon="-0.6360576"><ele>582.6666666666666</ele><time>2026-04-05T11:38:29.03Z</time></trkpt><trkpt lat="38.5584077" lon="-0.6360955"><ele>583.3333333333333</ele><time>2026-04-05T11:38:30.03Z</time></trkpt><trkpt lat="38.5582072" lon="-0.6361081"><ele>584.0</ele><time>2026-04-05T11:38:31.031Z</time></trkpt><trkpt lat="38.5580076" lon="-0.636088"><ele>584.6666666666666</ele><time>2026-04-05T11:38:32.031Z</time></trkpt><trkpt lat="38.5578088" lon="-0.6360216"><ele>585.3333333333334</ele><time>2026-04-05T11:38:33.03Z</time></trkpt><trkpt lat="38.5576068" lon="-0.6359144"><ele>586.0</ele><time>2026-04-05T11:38:34.031Z</time></trkpt><trkpt lat="38.5573987" lon="-0.635785"><ele>586.0</ele><time>2026-04-05T11:38:35.031Z</time></trkpt><trkpt lat="38.5571967" lon="-0.6356553"><ele>586.0</ele><time>2026-04-05T11:38:36.031Z</time></trkpt><trkpt lat="38.5570092" lon="-0.6355383"><ele>586.0</ele><time>2026-04-05T11:38:37.03Z</time></trkpt><trkpt lat="38.5568366" lon="-0.6354328"><ele>587.6666666666667</ele><time>2026-04-05T11:38:38.03Z</time></trkpt><trkpt lat="38.5566838" lon="-0.6353493"><ele>589.3333333333334</ele><time>2026-04-05T11:38:39.03Z</time></trkpt><trkpt lat="38.5565435" lon="-0.6352899"><ele>591.0</ele><time>2026-04-05T11:38:40.031Z</time></trkpt><trkpt lat="38.556409" lon="-0.6352566"><ele>591.0</ele><time>2026-04-05T11:38:41.03Z</time></trkpt><trkpt lat="38.5562656" lon="-0.6352484"><ele>591.0</ele><time>2026-04-05T11:38:42.031Z</time></trkpt><trkpt lat="38.5561044" lon="-0.6352644"><ele>591.0</ele><time>2026-04-05T11:38:43.031Z</time></trkpt><trkpt lat="38.5559282" lon="-0.6353126"><ele>593.0</ele><time>2026-04-05T11:38:44.03Z</time></trkpt><trkpt lat="38.555737" lon="-0.6353841"><ele>595.0</ele><time>2026-04-05T11:38:45.03Z</time></trkpt><trkpt lat="38.5555449" lon="-0.6354613"><ele>597.0</ele><time>2026-04-05T11:38:46.031Z</time></trkpt><trkpt lat="38.555366" lon="-0.6355373"><ele>598.3333333333334</ele><time>2026-04-05T11:38:47.03Z</time></trkpt><trkpt lat="38.5552051" lon="-0.6356195"><ele>599.6666666666667</ele><time>2026-04-05T11:38:48.03Z</time></trkpt><trkpt lat="38.5550669" lon="-0.6357247"><ele>601.0</ele><time>2026-04-05T11:38:49.031Z</time></trkpt><trkpt lat="38.5549515" lon="-0.6358541"><ele>601.0</ele><time>2026-04-05T11:38:50.031Z</time></trkpt><trkpt lat="38.5548612" lon="-0.6360137"><ele>601.0</ele><time>2026-04-05T11:38:51.031Z</time></trkpt><trkpt lat="38.5548098" lon="-0.6361911"><ele>601.0</ele><time>2026-04-05T11:38:52.03Z</time></trkpt><trkpt lat="38.554798" lon="-0.6363757"><ele>601.0</ele><time>2026-04-05T11:38:53.03Z</time></trkpt><trkpt lat="38.5548201" lon="-0.6365768"><ele>602.3333333333334</ele><time>2026-04-05T11:38:54.03Z</time></trkpt><trkpt lat="38.5548431" lon="-0.6367936"><ele>603.6666666666666</ele><time>2026-04-05T11:38:55.03Z</time></trkpt><trkpt lat="38.5548427" lon="-0.6370138"><ele>605.0</ele><time>2026-04-05T11:38:56.031Z</time></trkpt><trkpt lat="38.5548127" lon="-0.6372145"><ele>606.0</ele><time>2026-04-05T11:38:57.031Z</time></trkpt><trkpt lat="38.5547423" lon="-0.637391"><ele>607.0</ele><time>2026-04-05T11:38:58.031Z</time></trkpt><trkpt lat="38.5546367" lon="-0.6375413"><ele>608.0</ele><time>2026-04-05T11:38:59.031Z</time></trkpt><trkpt lat="38.5544979" lon="-0.6376936"><ele>609.3333333333333</ele><time>2026-04-05T11:39:00.03Z</time></trkpt><trkpt lat="38.5543442" lon="-0.6378559"><ele>610.6666666666666</ele><time>2026-04-05T11:39:01.031Z</time></trkpt><trkpt lat="38.5541963" lon="-0.6380073"><ele>612.0</ele><time>2026-04-05T11:39:02.031Z</time></trkpt><trkpt lat="38.5540606" lon="-0.6381466"><ele>612.0</ele><time>2026-04-05T11:39:03.031Z</time></trkpt><trkpt lat="38.5539299" lon="-0.6382811"><ele>612.0</ele><time>2026-04-05T11:39:04.031Z</time></trkpt><trkpt lat="38.5538036" lon="-0.6384132"><ele>612.0</ele><time>2026-04-05T11:39:05.03Z</time></trkpt><trkpt lat="38.55368" lon="-0.638545"><ele>614.3333333333334</ele><time>2026-04-05T11:39:06.03Z</time></trkpt><trkpt lat="38.5535503" lon="-0.6386713"><ele>616.6666666666667</ele><time>2026-04-05T11:39:07.03Z</time></trkpt><trkpt lat="38.5533974" lon="-0.6387781"><ele>619.0</ele><time>2026-04-05T11:39:08.031Z</time></trkpt><trkpt lat="38.5532254" lon="-0.6388499"><ele>619.0</ele><time>2026-04-05T11:39:09.03Z</time></trkpt><trkpt lat="38.5530492" lon="-0.6388764"><ele>619.0</ele><time>2026-04-05T11:39:10.031Z</time></trkpt><trkpt lat="38.5528784" lon="-0.6388573"><ele>619.0</ele><time>2026-04-05T11:39:11.03Z</time></trkpt><trkpt lat="38.5526995" lon="-0.6387963"><ele>619.3333333333334</ele><time>2026-04-05T11:39:12.03Z</time></trkpt><trkpt lat="38.552505" lon="-0.6387129"><ele>619.6666666666666</ele><time>2026-04-05T11:39:13.03Z</time></trkpt><trkpt lat="38.5523084" lon="-0.6386224"><ele>620.0</ele><time>2026-04-05T11:39:14.03Z</time></trkpt><trkpt lat="38.5521244" lon="-0.6385345"><ele>620.0</ele><time>2026-04-05T11:39:15.031Z</time></trkpt><trkpt lat="38.5519535" lon="-0.638451"><ele>620.0</ele><time>2026-04-05T11:39:16.031Z</time></trkpt><trkpt lat="38.5517816" lon="-0.6383676"><ele>620.0</ele><time>2026-04-05T11:39:17.031Z</time></trkpt><trkpt lat="38.5516017" lon="-0.6382636"><ele>620.0</ele><time>2026-04-05T11:39:18.031Z</time></trkpt><trkpt lat="38.5513994" lon="-0.6381211"><ele>620.0</ele><time>2026-04-05T11:39:19.03Z</time></trkpt><trkpt lat="38.5511893" lon="-0.6379562"><ele>617.5</ele><time>2026-04-05T11:39:20.03Z</time></trkpt><trkpt lat="38.5509515" lon="-0.6377885"><ele>615.0</ele><time>2026-04-05T11:39:21.03Z</time></trkpt><trkpt lat="38.5506919" lon="-0.6376129"><ele>615.0</ele><time>2026-04-05T11:39:22.031Z</time></trkpt><trkpt lat="38.5504273" lon="-0.6374337"><ele>615.0</ele><time>2026-04-05T11:39:23.03Z</time></trkpt><trkpt lat="38.5501765" lon="-0.6372636"><ele>615.5</ele><time>2026-04-05T11:39:24.03Z</time></trkpt><trkpt lat="38.549943" lon="-0.6370887"><ele>616.0</ele><time>2026-04-05T11:39:25.03Z</time></trkpt><trkpt lat="38.5497123" lon="-0.6369253"><ele>619.0</ele><time>2026-04-05T11:39:26.03Z</time></trkpt><trkpt lat="38.549488" lon="-0.6367369"><ele>622.0</ele><time>2026-04-05T11:39:27.03Z</time></trkpt><trkpt lat="38.5492663" lon="-0.6365696"><ele>622.0</ele><time>2026-04-05T11:39:28.03Z</time></trkpt><trkpt lat="38.549043" lon="-0.6364071"><ele>622.0</ele><time>2026-04-05T11:39:29.03Z</time></trkpt><trkpt lat="38.5488236" lon="-0.6362437"><ele>623.5</ele><time>2026-04-05T11:39:30.03Z</time></trkpt><trkpt lat="38.548611" lon="-0.6360785"><ele>625.0</ele><time>2026-04-05T11:39:31.031Z</time></trkpt><trkpt lat="38.5483908" lon="-0.6359075"><ele>625.0</ele><time>2026-04-05T11:39:32.03Z</time></trkpt><trkpt lat="38.5481561" lon="-0.6357295"><ele>625.0</ele><time>2026-04-05T11:39:33.031Z</time></trkpt><trkpt lat="38.5479319" lon="-0.6355619"><ele>625.0</ele><time>2026-04-05T11:39:34.03Z</time></trkpt><trkpt lat="38.5477223" lon="-0.6354012"><ele>625.0</ele><time>2026-04-05T11:39:35.031Z</time></trkpt><trkpt lat="38.5475123" lon="-0.6352408"><ele>623.5</ele><time>2026-04-05T11:39:36.03Z</time></trkpt><trkpt lat="38.5473006" lon="-0.6350852"><ele>622.0</ele><time>2026-04-05T11:39:37.03Z</time></trkpt><trkpt lat="38.5470791" lon="-0.6349195"><ele>622.5</ele><time>2026-04-05T11:39:38.031Z</time></trkpt><trkpt lat="38.5468436" lon="-0.6347509"><ele>623.0</ele><time>2026-04-05T11:39:39.03Z</time></trkpt><trkpt lat="38.5466182" lon="-0.6345863"><ele>623.0</ele><time>2026-04-05T11:39:40.031Z</time></trkpt><trkpt lat="38.5463957" lon="-0.6344213"><ele>623.0</ele><time>2026-04-05T11:39:41.03Z</time></trkpt><trkpt lat="38.5461833" lon="-0.6342613"><ele>624.5</ele><time>2026-04-05T11:39:42.03Z</time></trkpt><trkpt lat="38.5459836" lon="-0.6341106"><ele>626.0</ele><time>2026-04-05T11:39:43.031Z</time></trkpt><trkpt lat="38.5457918" lon="-0.6339677"><ele>626.0</ele><time>2026-04-05T11:39:44.031Z</time></trkpt><trkpt lat="38.5455963" lon="-0.6338175"><ele>626.0</ele><time>2026-04-05T11:39:45.031Z</time></trkpt><trkpt lat="38.5453915" lon="-0.6336549"><ele>626.5</ele><time>2026-04-05T11:39:46.031Z</time></trkpt><trkpt lat="38.5451724" lon="-0.633487"><ele>627.0</ele><time>2026-04-05T11:39:47.03Z</time></trkpt><trkpt lat="38.5449571" lon="-0.6333287"><ele>627.0</ele><time>2026-04-05T11:39:48.031Z</time></trkpt><trkpt lat="38.544738" lon="-0.6331691"><ele>627.0</ele><time>2026-04-05T11:39:49.031Z</time></trkpt><trkpt lat="38.5445126" lon="-0.6330025"><ele>628.5</ele><time>2026-04-05T11:39:50.03Z</time></trkpt><trkpt lat="38.544283" lon="-0.6328291"><ele>630.0</ele><time>2026-04-05T11:39:51.03Z</time></trkpt><trkpt lat="38.5440527" lon="-0.632654"><ele>628.0</ele><time>2026-04-05T11:39:52.03Z</time></trkpt><trkpt lat="38.5438245" lon="-0.6324775"><ele>626.0</ele><time>2026-04-05T11:39:53.031Z</time></trkpt><trkpt lat="38.5436054" lon="-0.6323139"><ele>626.0</ele><time>2026-04-05T11:39:54.03Z</time></trkpt><trkpt lat="38.5433894" lon="-0.6321516"><ele>626.0</ele><time>2026-04-05T11:39:55.031Z</time></trkpt><trkpt lat="38.5431709" lon="-0.6319848"><ele>625.0</ele><time>2026-04-05T11:39:56.031Z</time></trkpt><trkpt lat="38.542961" lon="-0.6318259"><ele>624.0</ele><time>2026-04-05T11:39:57.031Z</time></trkpt><trkpt lat="38.5427655" lon="-0.6316779"><ele>623.6666666666666</ele><time>2026-04-05T11:39:58.03Z</time></trkpt><trkpt lat="38.542579" lon="-0.6315377"><ele>623.3333333333333</ele><time>2026-04-05T11:39:59.031Z</time></trkpt><trkpt lat="38.5424094" lon="-0.6314129"><ele>623.0</ele><time>2026-04-05T11:40:00.03Z</time></trkpt><trkpt lat="38.5422604" lon="-0.6312966"><ele>623.0</ele><time>2026-04-05T11:40:01.03Z</time></trkpt><trkpt lat="38.5421341" lon="-0.6311702"><ele>623.0</ele><time>2026-04-05T11:40:02.03Z</time></trkpt><trkpt lat="38.5420279" lon="-0.6310369"><ele>623.0</ele><time>2026-04-05T11:40:03.03Z</time></trkpt><trkpt lat="38.5419309" lon="-0.6309107"><ele>623.0</ele><time>2026-04-05T11:40:04.031Z</time></trkpt><trkpt lat="38.5418293" lon="-0.6308127"><ele>624.3333333333333</ele><time>2026-04-05T11:40:05.03Z</time></trkpt><trkpt lat="38.5417119" lon="-0.6307445"><ele>625.6666666666666</ele><time>2026-04-05T11:40:06.031Z</time></trkpt><trkpt lat="38.5415666" lon="-0.630685"><ele>627.0</ele><time>2026-04-05T11:40:07.031Z</time></trkpt><trkpt lat="38.5413994" lon="-0.6306238"><ele>627.0</ele><time>2026-04-05T11:40:08.031Z</time></trkpt><trkpt lat="38.5412305" lon="-0.6305586"><ele>627.0</ele><time>2026-04-05T11:40:09.031Z</time></trkpt><trkpt lat="38.5410656" lon="-0.6304935"><ele>627.0</ele><time>2026-04-05T11:40:10.03Z</time></trkpt><trkpt lat="38.5409104" lon="-0.6304318"><ele>626.3333333333334</ele><time>2026-04-05T11:40:11.03Z</time></trkpt><trkpt lat="38.5407623" lon="-0.630371"><ele>625.6666666666667</ele><time>2026-04-05T11:40:12.031Z</time></trkpt><trkpt lat="38.5406152" lon="-0.6303034"><ele>625.0</ele><time>2026-04-05T11:40:13.031Z</time></trkpt><trkpt lat="38.5404838" lon="-0.6302285"><ele>627.3333333333334</ele><time>2026-04-05T11:40:14.03Z</time></trkpt><trkpt lat="38.5403478" lon="-0.6301027"><ele>629.6666666666666</ele><time>2026-04-05T11:40:15.031Z</time></trkpt><trkpt lat="38.5402196" lon="-0.6299391"><ele>632.0</ele><time>2026-04-05T11:40:16.031Z</time></trkpt><trkpt lat="38.5400878" lon="-0.6297833"><ele>632.0</ele><time>2026-04-05T11:40:17.03Z</time></trkpt><trkpt lat="38.5399387" lon="-0.6296542"><ele>632.0</ele><time>2026-04-05T11:40:18.03Z</time></trkpt><trkpt lat="38.5397806" lon="-0.6295662"><ele>632.0</ele><time>2026-04-05T11:40:19.03Z</time></trkpt><trkpt lat="38.5396338" lon="-0.6294974"><ele>632.4</ele><time>2026-04-05T11:40:20.03Z</time></trkpt><trkpt lat="38.5395215" lon="-0.6294265"><ele>632.8000000000001</ele><time>2026-04-05T11:40:21.03Z</time></trkpt><trkpt lat="38.5394449" lon="-0.6293419"><ele>633.2</ele><time>2026-04-05T11:40:22.03Z</time></trkpt><trkpt lat="38.5394004" lon="-0.6292355"><ele>633.6</ele><time>2026-04-05T11:40:23.03Z</time></trkpt><trkpt lat="38.5393912" lon="-0.6291099"><ele>634.0</ele><time>2026-04-05T11:40:24.03Z</time></trkpt><trkpt lat="38.5394251" lon="-0.6289637"><ele>634.0</ele><time>2026-04-05T11:40:25.031Z</time></trkpt><trkpt lat="38.5394709" lon="-0.628823"><ele>634.0</ele><time>2026-04-05T11:40:26.031Z</time></trkpt><trkpt lat="38.5394986" lon="-0.6286825"><ele>634.0</ele><time>2026-04-05T11:40:27.03Z</time></trkpt><trkpt lat="38.5394884" lon="-0.6285373"><ele>634.0</ele><time>2026-04-05T11:40:28.031Z</time></trkpt><trkpt lat="38.5394371" lon="-0.6283871"><ele>635.3333333333334</ele><time>2026-04-05T11:40:29.031Z</time></trkpt><trkpt lat="38.539349" lon="-0.6282409"><ele>636.6666666666666</ele><time>2026-04-05T11:40:30.031Z</time></trkpt><trkpt lat="38.5392309" lon="-0.6281115"><ele>638.0</ele><time>2026-04-05T11:40:31.031Z</time></trkpt><trkpt lat="38.5390963" lon="-0.6280021"><ele>638.0</ele><time>2026-04-05T11:40:32.031Z</time></trkpt><trkpt lat="38.5389672" lon="-0.6278762"><ele>638.0</ele><time>2026-04-05T11:40:33.031Z</time></trkpt><trkpt lat="38.5388591" lon="-0.6277094"><ele>638.0</ele><time>2026-04-05T11:40:34.031Z</time></trkpt><trkpt lat="38.5387823" lon="-0.6275119"><ele>640.6666666666666</ele><time>2026-04-05T11:40:35.031Z</time></trkpt><trkpt lat="38.538711" lon="-0.6273315"><ele>643.3333333333334</ele><time>2026-04-05T11:40:36.03Z</time></trkpt><trkpt lat="38.5386184" lon="-0.6271535"><ele>646.0</ele><time>2026-04-05T11:40:37.03Z</time></trkpt><trkpt lat="38.5384992" lon="-0.6270077"><ele>643.3333333333334</ele><time>2026-04-05T11:40:38.03Z</time></trkpt><trkpt lat="38.5383719" lon="-0.6269106"><ele>640.6666666666666</ele><time>2026-04-05T11:40:39.03Z</time></trkpt><trkpt lat="38.5382338" lon="-0.626841"><ele>638.0</ele><time>2026-04-05T11:40:40.03Z</time></trkpt><trkpt lat="38.538081" lon="-0.6267663"><ele>638.0</ele><time>2026-04-05T11:40:41.03Z</time></trkpt><trkpt lat="38.5379325" lon="-0.6266465"><ele>638.0</ele><time>2026-04-05T11:40:42.03Z</time></trkpt><trkpt lat="38.5378081" lon="-0.6264768"><ele>638.0</ele><time>2026-04-05T11:40:43.03Z</time></trkpt><trkpt lat="38.5377057" lon="-0.626284"><ele>639.3333333333333</ele><time>2026-04-05T11:40:44.031Z</time></trkpt><trkpt lat="38.5376039" lon="-0.6260848"><ele>640.6666666666666</ele><time>2026-04-05T11:40:45.031Z</time></trkpt><trkpt lat="38.5375066" lon="-0.6259101"><ele>642.0</ele><time>2026-04-05T11:40:46.031Z</time></trkpt><trkpt lat="38.5373872" lon="-0.6257676"><ele>642.0</ele><time>2026-04-05T11:40:47.597Z</time></trkpt><trkpt lat="38.5371604" lon="-0.6255703"><ele>642.0</ele><time>2026-04-05T11:40:49.034Z</time></trkpt><trkpt lat="38.5370181" lon="-0.6254908"><ele>642.0</ele><time>2026-04-05T11:40:50.037Z</time></trkpt><trkpt lat="38.5368697" lon="-0.6254736"><ele>643.5</ele><time>2026-04-05T11:40:51.036Z</time></trkpt><trkpt lat="38.5367313" lon="-0.6254492"><ele>645.0</ele><time>2026-04-05T11:40:52.037Z</time></trkpt><trkpt lat="38.5366042" lon="-0.6253854"><ele>646.5</ele><time>2026-04-05T11:40:53.036Z</time></trkpt><trkpt lat="38.5364998" lon="-0.6252748"><ele>648.0</ele><time>2026-04-05T11:40:54.037Z</time></trkpt><trkpt lat="38.5364334" lon="-0.6251338"><ele>647.5</ele><time>2026-04-05T11:40:55.037Z</time></trkpt><trkpt lat="38.5363803" lon="-0.6249843"><ele>647.0</ele><time>2026-04-05T11:40:56.037Z</time></trkpt><trkpt lat="38.5363043" lon="-0.6248574"><ele>646.5</ele><time>2026-04-05T11:40:57.037Z</time></trkpt><trkpt lat="38.5362021" lon="-0.624747"><ele>646.0</ele><time>2026-04-05T11:40:58.036Z</time></trkpt><trkpt lat="38.5360698" lon="-0.6246497"><ele>646.0</ele><time>2026-04-05T11:40:59.036Z</time></trkpt><trkpt lat="38.5359096" lon="-0.6245598"><ele>646.0</ele><time>2026-04-05T11:41:00.036Z</time></trkpt><trkpt lat="38.5357524" lon="-0.6244766"><ele>646.0</ele><time>2026-04-05T11:41:01.037Z</time></trkpt><trkpt lat="38.5356098" lon="-0.6244208"><ele>644.75</ele><time>2026-04-05T11:41:02.037Z</time></trkpt><trkpt lat="38.5354824" lon="-0.6243983"><ele>643.5</ele><time>2026-04-05T11:41:03.037Z</time></trkpt><trkpt lat="38.5353703" lon="-0.6244288"><ele>642.25</ele><time>2026-04-05T11:41:04.036Z</time></trkpt><trkpt lat="38.5352715" lon="-0.6245083"><ele>641.0</ele><time>2026-04-05T11:41:05.036Z</time></trkpt><trkpt lat="38.5351945" lon="-0.6246266"><ele>641.0</ele><time>2026-04-05T11:41:06.037Z</time></trkpt><trkpt lat="38.5351306" lon="-0.6247732"><ele>641.0</ele><time>2026-04-05T11:41:07.037Z</time></trkpt><trkpt lat="38.5350835" lon="-0.6249254"><ele>641.0</ele><time>2026-04-05T11:41:08.036Z</time></trkpt><trkpt lat="38.5350295" lon="-0.6250597"><ele>641.0</ele><time>2026-04-05T11:41:09.036Z</time></trkpt><trkpt lat="38.5349553" lon="-0.6251577"><ele>641.0</ele><time>2026-04-05T11:41:10.036Z</time></trkpt><trkpt lat="38.5348551" lon="-0.625207"><ele>641.0</ele><time>2026-04-05T11:41:11.037Z</time></trkpt><trkpt lat="38.5347463" lon="-0.6251966"><ele>641.0</ele><time>2026-04-05T11:41:12.036Z</time></trkpt><trkpt lat="38.5346273" lon="-0.6251247"><ele>641.0</ele><time>2026-04-05T11:41:13.037Z</time></trkpt><trkpt lat="38.5344957" lon="-0.6250074"><ele>640.6666666666666</ele><time>2026-04-05T11:41:14.036Z</time></trkpt><trkpt lat="38.5343302" lon="-0.6248755"><ele>640.3333333333334</ele><time>2026-04-05T11:41:15.037Z</time></trkpt><trkpt lat="38.5341427" lon="-0.6247528"><ele>640.0</ele><time>2026-04-05T11:41:16.037Z</time></trkpt><trkpt lat="38.533933" lon="-0.6246271"><ele>641.0</ele><time>2026-04-05T11:41:17.037Z</time></trkpt><trkpt lat="38.5337042" lon="-0.6244856"><ele>642.0</ele><time>2026-04-05T11:41:18.037Z</time></trkpt><trkpt lat="38.5334591" lon="-0.624342"><ele>638.0</ele><time>2026-04-05T11:41:19.036Z</time></trkpt><trkpt lat="38.5332194" lon="-0.6242027"><ele>634.0</ele><time>2026-04-05T11:41:20.037Z</time></trkpt><trkpt lat="38.5329959" lon="-0.6240753"><ele>636.0</ele><time>2026-04-05T11:41:21.036Z</time></trkpt><trkpt lat="38.5327858" lon="-0.6239592"><ele>638.0</ele><time>2026-04-05T11:41:22.037Z</time></trkpt><trkpt lat="38.5325914" lon="-0.6238509"><ele>640.0</ele><time>2026-04-05T11:41:23.037Z</time></trkpt><trkpt lat="38.5324134" lon="-0.6237445"><ele>637.6666666666667</ele><time>2026-04-05T11:41:24.036Z</time></trkpt><trkpt lat="38.5322469" lon="-0.6236427"><ele>635.3333333333334</ele><time>2026-04-05T11:41:25.036Z</time></trkpt><trkpt lat="38.5320917" lon="-0.6235552"><ele>633.0</ele><time>2026-04-05T11:41:26.037Z</time></trkpt><trkpt lat="38.5319307" lon="-0.6234602"><ele>633.0</ele><time>2026-04-05T11:41:27.037Z</time></trkpt><trkpt lat="38.5317549" lon="-0.6233579"><ele>633.0</ele><time>2026-04-05T11:41:28.037Z</time></trkpt><trkpt lat="38.5315631" lon="-0.6232464"><ele>633.0</ele><time>2026-04-05T11:41:29.037Z</time></trkpt><trkpt lat="38.5313666" lon="-0.6231354"><ele>634.0</ele><time>2026-04-05T11:41:30.036Z</time></trkpt><trkpt lat="38.5311634" lon="-0.6230192"><ele>635.0</ele><time>2026-04-05T11:41:31.037Z</time></trkpt><trkpt lat="38.5309779" lon="-0.6229089"><ele>636.0</ele><time>2026-04-05T11:41:32.037Z</time></trkpt><trkpt lat="38.5308125" lon="-0.6227945"><ele>634.0</ele><time>2026-04-05T11:41:33.036Z</time></trkpt><trkpt lat="38.5306604" lon="-0.6226492"><ele>632.0</ele><time>2026-04-05T11:41:34.037Z</time></trkpt><trkpt lat="38.5305306" lon="-0.6224648"><ele>630.0</ele><time>2026-04-05T11:41:35.036Z</time></trkpt><trkpt lat="38.5304166" lon="-0.6222537"><ele>629.3333333333334</ele><time>2026-04-05T11:41:36.036Z</time></trkpt><trkpt lat="38.5303067" lon="-0.6220473"><ele>628.6666666666667</ele><time>2026-04-05T11:41:37.037Z</time></trkpt><trkpt lat="38.5301805" lon="-0.6218522"><ele>628.0</ele><time>2026-04-05T11:41:38.037Z</time></trkpt><trkpt lat="38.5300416" lon="-0.6216731"><ele>628.0</ele><time>2026-04-05T11:41:39.036Z</time></trkpt><trkpt lat="38.5299044" lon="-0.6215127"><ele>628.0</ele><time>2026-04-05T11:41:40.037Z</time></trkpt><trkpt lat="38.5297749" lon="-0.6213684"><ele>628.0</ele><time>2026-04-05T11:41:41.037Z</time></trkpt><trkpt lat="38.5296481" lon="-0.6212552"><ele>629.0</ele><time>2026-04-05T11:41:42.037Z</time></trkpt><trkpt lat="38.5295082" lon="-0.6211659"><ele>630.0</ele><time>2026-04-05T11:41:43.037Z</time></trkpt><trkpt lat="38.5293627" lon="-0.6210964"><ele>631.0</ele><time>2026-04-05T11:41:44.037Z</time></trkpt><trkpt lat="38.5292073" lon="-0.6210415"><ele>627.6666666666667</ele><time>2026-04-05T11:41:45.037Z</time></trkpt><trkpt lat="38.5290435" lon="-0.6210141"><ele>624.3333333333334</ele><time>2026-04-05T11:41:46.037Z</time></trkpt><trkpt lat="38.528869" lon="-0.6210139"><ele>621.0</ele><time>2026-04-05T11:41:47.037Z</time></trkpt><trkpt lat="38.5286845" lon="-0.6210414"><ele>620.0</ele><time>2026-04-05T11:41:48.036Z</time></trkpt><trkpt lat="38.5284924" lon="-0.6210944"><ele>619.0</ele><time>2026-04-05T11:41:49.036Z</time></trkpt><trkpt lat="38.5283034" lon="-0.6211621"><ele>618.0</ele><time>2026-04-05T11:41:50.036Z</time></trkpt><trkpt lat="38.5281238" lon="-0.6212348"><ele>620.3333333333334</ele><time>2026-04-05T11:41:51.037Z</time></trkpt><trkpt lat="38.527939" lon="-0.6212906"><ele>622.6666666666667</ele><time>2026-04-05T11:41:52.036Z</time></trkpt><trkpt lat="38.5277403" lon="-0.6213168"><ele>625.0</ele><time>2026-04-05T11:41:53.037Z</time></trkpt><trkpt lat="38.5275345" lon="-0.6212972"><ele>625.0</ele><time>2026-04-05T11:41:54.036Z</time></trkpt><trkpt lat="38.5273303" lon="-0.621226"><ele>625.0</ele><time>2026-04-05T11:41:55.037Z</time></trkpt><trkpt lat="38.5271284" lon="-0.6211297"><ele>625.0</ele><time>2026-04-05T11:41:56.036Z</time></trkpt><trkpt lat="38.5269214" lon="-0.6210017"><ele>623.0</ele><time>2026-04-05T11:41:57.036Z</time></trkpt><trkpt lat="38.5267277" lon="-0.6208406"><ele>621.0</ele><time>2026-04-05T11:41:58.036Z</time></trkpt><trkpt lat="38.5265481" lon="-0.6206444"><ele>621.0</ele><time>2026-04-05T11:41:59.036Z</time></trkpt><trkpt lat="38.5263818" lon="-0.6204348"><ele>621.0</ele><time>2026-04-05T11:42:00.036Z</time></trkpt><trkpt lat="38.526215" lon="-0.6202226"><ele>623.5</ele><time>2026-04-05T11:42:01.036Z</time></trkpt><trkpt lat="38.5260475" lon="-0.6200015"><ele>626.0</ele><time>2026-04-05T11:42:02.036Z</time></trkpt><trkpt lat="38.5258844" lon="-0.6197842"><ele>626.0</ele><time>2026-04-05T11:42:03.036Z</time></trkpt><trkpt lat="38.5257325" lon="-0.6195788"><ele>626.0</ele><time>2026-04-05T11:42:04.037Z</time></trkpt><trkpt lat="38.5255928" lon="-0.6193916"><ele>626.0</ele><time>2026-04-05T11:42:05.037Z</time></trkpt><trkpt lat="38.5254532" lon="-0.619222"><ele>626.3333333333333</ele><time>2026-04-05T11:42:06.037Z</time></trkpt><trkpt lat="38.5253134" lon="-0.6190822"><ele>626.6666666666666</ele><time>2026-04-05T11:42:07.036Z</time></trkpt><trkpt lat="38.5251664" lon="-0.6189672"><ele>627.0</ele><time>2026-04-05T11:42:08.037Z</time></trkpt><trkpt lat="38.5250159" lon="-0.6188825"><ele>627.0</ele><time>2026-04-05T11:42:09.036Z</time></trkpt><trkpt lat="38.5248706" lon="-0.618822"><ele>627.0</ele><time>2026-04-05T11:42:10.036Z</time></trkpt><trkpt lat="38.5247291" lon="-0.6187648"><ele>627.0</ele><time>2026-04-05T11:42:11.037Z</time></trkpt><trkpt lat="38.5245902" lon="-0.6187072"><ele>627.0</ele><time>2026-04-05T11:42:12.037Z</time></trkpt><trkpt lat="38.5244536" lon="-0.6186539"><ele>627.0</ele><time>2026-04-05T11:42:13.036Z</time></trkpt><trkpt lat="38.5243154" lon="-0.6186051"><ele>627.0</ele><time>2026-04-05T11:42:14.037Z</time></trkpt><trkpt lat="38.5241768" lon="-0.618553"><ele>627.0</ele><time>2026-04-05T11:42:15.036Z</time></trkpt><trkpt lat="38.5240293" lon="-0.6184884"><ele>627.0</ele><time>2026-04-05T11:42:16.036Z</time></trkpt><trkpt lat="38.5238651" lon="-0.6184109"><ele>628.6666666666666</ele><time>2026-04-05T11:42:17.036Z</time></trkpt><trkpt lat="38.5236811" lon="-0.6183276"><ele>630.3333333333333</ele><time>2026-04-05T11:42:18.037Z</time></trkpt><trkpt lat="38.5235" lon="-0.6182457"><ele>632.0</ele><time>2026-04-05T11:42:19.037Z</time></trkpt><trkpt lat="38.5233295" lon="-0.6181738"><ele>632.0</ele><time>2026-04-05T11:42:20.036Z</time></trkpt><trkpt lat="38.5231685" lon="-0.6181165"><ele>632.0</ele><time>2026-04-05T11:42:21.036Z</time></trkpt><trkpt lat="38.523022" lon="-0.6180719"><ele>632.0</ele><time>2026-04-05T11:42:22.037Z</time></trkpt><trkpt lat="38.5228908" lon="-0.6180401"><ele>633.2</ele><time>2026-04-05T11:42:23.036Z</time></trkpt><trkpt lat="38.5227746" lon="-0.6180213"><ele>634.4000000000001</ele><time>2026-04-05T11:42:24.036Z</time></trkpt><trkpt lat="38.5226729" lon="-0.6180056"><ele>635.5999999999999</ele><time>2026-04-05T11:42:25.037Z</time></trkpt><trkpt lat="38.522583" lon="-0.6179884"><ele>636.8</ele><time>2026-04-05T11:42:26.036Z</time></trkpt><trkpt lat="38.5225074" lon="-0.6179739"><ele>638.0</ele><time>2026-04-05T11:42:27.036Z</time></trkpt><trkpt lat="38.5224357" lon="-0.6179541"><ele>638.0</ele><time>2026-04-05T11:42:28.036Z</time></trkpt><trkpt lat="38.5223608" lon="-0.6179285"><ele>638.0</ele><time>2026-04-05T11:42:29.036Z</time></trkpt><trkpt lat="38.5222811" lon="-0.6179"><ele>638.0</ele><time>2026-04-05T11:42:30.036Z</time></trkpt><trkpt lat="38.5221921" lon="-0.6178645"><ele>638.0</ele><time>2026-04-05T11:42:31.036Z</time></trkpt><trkpt lat="38.5221033" lon="-0.6178259"><ele>638.0</ele><time>2026-04-05T11:42:32.036Z</time></trkpt><trkpt lat="38.5220183" lon="-0.617785"><ele>638.0</ele><time>2026-04-05T11:42:33.037Z</time></trkpt><trkpt lat="38.5219387" lon="-0.6177421"><ele>636.8</ele><time>2026-04-05T11:42:34.036Z</time></trkpt><trkpt lat="38.521864" lon="-0.6176975"><ele>635.5999999999999</ele><time>2026-04-05T11:42:35.036Z</time></trkpt><trkpt lat="38.521789" lon="-0.6176505"><ele>634.4000000000001</ele><time>2026-04-05T11:42:36.036Z</time></trkpt><trkpt lat="38.5217097" lon="-0.6175971"><ele>633.2</ele><time>2026-04-05T11:42:37.036Z</time></trkpt><trkpt lat="38.5216246" lon="-0.6175369"><ele>632.0</ele><time>2026-04-05T11:42:38.037Z</time></trkpt><trkpt lat="38.5215355" lon="-0.6174657"><ele>632.0</ele><time>2026-04-05T11:42:39.036Z</time></trkpt><trkpt lat="38.5214374" lon="-0.6173749"><ele>632.0</ele><time>2026-04-05T11:42:40.036Z</time></trkpt><trkpt lat="38.5213368" lon="-0.6172685"><ele>632.0</ele><time>2026-04-05T11:42:41.036Z</time></trkpt><trkpt lat="38.521234" lon="-0.6171409"><ele>632.0</ele><time>2026-04-05T11:42:42.036Z</time></trkpt><trkpt lat="38.5211282" lon="-0.6169982"><ele>632.6666666666666</ele><time>2026-04-05T11:42:43.036Z</time></trkpt><trkpt lat="38.5210146" lon="-0.6168566"><ele>633.3333333333334</ele><time>2026-04-05T11:42:44.036Z</time></trkpt><trkpt lat="38.5208946" lon="-0.6167146"><ele>634.0</ele><time>2026-04-05T11:42:45.037Z</time></trkpt><trkpt lat="38.5207676" lon="-0.6165843"><ele>634.0</ele><time>2026-04-05T11:42:46.036Z</time></trkpt><trkpt lat="38.5206256" lon="-0.6164605"><ele>634.0</ele><time>2026-04-05T11:42:47.037Z</time></trkpt><trkpt lat="38.5204673" lon="-0.6163472"><ele>634.0</ele><time>2026-04-05T11:42:48.036Z</time></trkpt><trkpt lat="38.5202865" lon="-0.6162349"><ele>634.0</ele><time>2026-04-05T11:42:49.037Z</time></trkpt><trkpt lat="38.5201067" lon="-0.6161277"><ele>634.0</ele><time>2026-04-05T11:42:50.037Z</time></trkpt><trkpt lat="38.5199326" lon="-0.616019"><ele>634.0</ele><time>2026-04-05T11:42:51.037Z</time></trkpt><trkpt lat="38.5197668" lon="-0.61591"><ele>634.0</ele><time>2026-04-05T11:42:52.036Z</time></trkpt><trkpt lat="38.5196129" lon="-0.6158054"><ele>634.0</ele><time>2026-04-05T11:42:53.037Z</time></trkpt><trkpt lat="38.5194551" lon="-0.6156953"><ele>634.0</ele><time>2026-04-05T11:42:54.037Z</time></trkpt><trkpt lat="38.5193072" lon="-0.6155854"><ele>633.3333333333334</ele><time>2026-04-05T11:42:55.037Z</time></trkpt><trkpt lat="38.5191674" lon="-0.6154671"><ele>632.6666666666666</ele><time>2026-04-05T11:42:56.037Z</time></trkpt><trkpt lat="38.5190334" lon="-0.6153346"><ele>632.0</ele><time>2026-04-05T11:42:57.037Z</time></trkpt><trkpt lat="38.5189117" lon="-0.6152015"><ele>632.0</ele><time>2026-04-05T11:42:58.036Z</time></trkpt><trkpt lat="38.5188002" lon="-0.6150736"><ele>632.0</ele><time>2026-04-05T11:42:59.036Z</time></trkpt><trkpt lat="38.5186907" lon="-0.6149448"><ele>632.0</ele><time>2026-04-05T11:43:00.036Z</time></trkpt><trkpt lat="38.5185878" lon="-0.6148271"><ele>632.0</ele><time>2026-04-05T11:43:01.036Z</time></trkpt><trkpt lat="38.5184871" lon="-0.6147141"><ele>632.25</ele><time>2026-04-05T11:43:02.037Z</time></trkpt><trkpt lat="38.5183856" lon="-0.6146115"><ele>632.5</ele><time>2026-04-05T11:43:03.037Z</time></trkpt><trkpt lat="38.5182843" lon="-0.6145147"><ele>632.75</ele><time>2026-04-05T11:43:04.037Z</time></trkpt><trkpt lat="38.5181814" lon="-0.6144081"><ele>633.0</ele><time>2026-04-05T11:43:05.036Z</time></trkpt><trkpt lat="38.5180774" lon="-0.614288"><ele>633.0</ele><time>2026-04-05T11:43:06.036Z</time></trkpt><trkpt lat="38.5179735" lon="-0.6141471"><ele>633.0</ele><time>2026-04-05T11:43:07.036Z</time></trkpt><trkpt lat="38.5178678" lon="-0.6139592"><ele>633.0</ele><time>2026-04-05T11:43:08.037Z</time></trkpt><trkpt lat="38.5177584" lon="-0.6137268"><ele>635.5</ele><time>2026-04-05T11:43:09.036Z</time></trkpt><trkpt lat="38.5176357" lon="-0.6134538"><ele>638.0</ele><time>2026-04-05T11:43:10.036Z</time></trkpt><trkpt lat="38.5175085" lon="-0.6131786"><ele>638.0</ele><time>2026-04-05T11:43:11.036Z</time></trkpt><trkpt lat="38.517371" lon="-0.6128918"><ele>638.0</ele><time>2026-04-05T11:43:12.037Z</time></trkpt><trkpt lat="38.5172321" lon="-0.6126295"><ele>636.6666666666666</ele><time>2026-04-05T11:43:13.036Z</time></trkpt><trkpt lat="38.5171062" lon="-0.6123822"><ele>635.3333333333334</ele><time>2026-04-05T11:43:14.037Z</time></trkpt><trkpt lat="38.5169965" lon="-0.61215"><ele>634.0</ele><time>2026-04-05T11:43:15.036Z</time></trkpt><trkpt lat="38.5168937" lon="-0.6119154"><ele>638.0</ele><time>2026-04-05T11:43:16.036Z</time></trkpt><trkpt lat="38.5167872" lon="-0.6116734"><ele>642.0</ele><time>2026-04-05T11:43:17.036Z</time></trkpt><trkpt lat="38.5166793" lon="-0.6114359"><ele>646.0</ele><time>2026-04-05T11:43:18.037Z</time></trkpt><trkpt lat="38.5165542" lon="-0.6111991"><ele>641.0</ele><time>2026-04-05T11:43:19.036Z</time></trkpt><trkpt lat="38.5164104" lon="-0.6109677"><ele>636.0</ele><time>2026-04-05T11:43:20.036Z</time></trkpt><trkpt lat="38.5162576" lon="-0.6107509"><ele>645.5</ele><time>2026-04-05T11:43:21.037Z</time></trkpt><trkpt lat="38.5160948" lon="-0.6105437"><ele>655.0</ele><time>2026-04-05T11:43:22.036Z</time></trkpt><trkpt lat="38.5159272" lon="-0.610359"><ele>650.3333333333334</ele><time>2026-04-05T11:43:23.037Z</time></trkpt><trkpt lat="38.5157653" lon="-0.6101944"><ele>645.6666666666666</ele><time>2026-04-05T11:43:24.037Z</time></trkpt><trkpt lat="38.5156127" lon="-0.6100585"><ele>641.0</ele><time>2026-04-05T11:43:25.036Z</time></trkpt><trkpt lat="38.5154528" lon="-0.6099305"><ele>646.0</ele><time>2026-04-05T11:43:26.037Z</time></trkpt><trkpt lat="38.5152907" lon="-0.6098122"><ele>651.0</ele><time>2026-04-05T11:43:27.037Z</time></trkpt><trkpt lat="38.5151224" lon="-0.6096991"><ele>656.0</ele><time>2026-04-05T11:43:28.037Z</time></trkpt><trkpt lat="38.5149529" lon="-0.6095803"><ele>658.6666666666666</ele><time>2026-04-05T11:43:29.037Z</time></trkpt><trkpt lat="38.5147909" lon="-0.6094336"><ele>661.3333333333334</ele><time>2026-04-05T11:43:30.036Z</time></trkpt><trkpt lat="38.5146378" lon="-0.6092503"><ele>664.0</ele><time>2026-04-05T11:43:31.036Z</time></trkpt><trkpt lat="38.514491" lon="-0.6090351"><ele>664.0</ele><time>2026-04-05T11:43:32.036Z</time></trkpt><trkpt lat="38.5143475" lon="-0.608811"><ele>664.0</ele><time>2026-04-05T11:43:33.037Z</time></trkpt><trkpt lat="38.5142021" lon="-0.6085846"><ele>659.5</ele><time>2026-04-05T11:43:34.037Z</time></trkpt><trkpt lat="38.5140575" lon="-0.6083564"><ele>655.0</ele><time>2026-04-05T11:43:35.036Z</time></trkpt><trkpt lat="38.5139167" lon="-0.6081317"><ele>655.0</ele><time>2026-04-05T11:43:36.037Z</time></trkpt><trkpt lat="38.5137827" lon="-0.607914"><ele>655.0</ele><time>2026-04-05T11:43:37.037Z</time></trkpt><trkpt lat="38.5136587" lon="-0.6077124"><ele>655.0</ele><time>2026-04-05T11:43:38.036Z</time></trkpt><trkpt lat="38.5135406" lon="-0.6075298"><ele>658.3333333333334</ele><time>2026-04-05T11:43:39.037Z</time></trkpt><trkpt lat="38.5134138" lon="-0.6073657"><ele>661.6666666666666</ele><time>2026-04-05T11:43:40.036Z</time></trkpt><trkpt lat="38.5132665" lon="-0.6072167"><ele>665.0</ele><time>2026-04-05T11:43:41.037Z</time></trkpt><trkpt lat="38.5131006" lon="-0.6070602"><ele>663.0</ele><time>2026-04-05T11:43:42.036Z</time></trkpt><trkpt lat="38.5129188" lon="-0.6068976"><ele>661.0</ele><time>2026-04-05T11:43:43.037Z</time></trkpt><trkpt lat="38.512726" lon="-0.6067272"><ele>666.0</ele><time>2026-04-05T11:43:44.037Z</time></trkpt><trkpt lat="38.5125334" lon="-0.6065649"><ele>671.0</ele><time>2026-04-05T11:43:45.037Z</time></trkpt><trkpt lat="38.5123465" lon="-0.6063977"><ele>671.0</ele><time>2026-04-05T11:43:46.036Z</time></trkpt><trkpt lat="38.5121757" lon="-0.6062047"><ele>671.0</ele><time>2026-04-05T11:43:47.036Z</time></trkpt><trkpt lat="38.5120335" lon="-0.6059872"><ele>671.0</ele><time>2026-04-05T11:43:48.037Z</time></trkpt><trkpt lat="38.5119127" lon="-0.6057679"><ele>671.0</ele><time>2026-04-05T11:43:49.037Z</time></trkpt><trkpt lat="38.5117968" lon="-0.6055642"><ele>671.0</ele><time>2026-04-05T11:43:50.036Z</time></trkpt><trkpt lat="38.5116745" lon="-0.6053873"><ele>668.3333333333333</ele><time>2026-04-05T11:43:51.037Z</time></trkpt><trkpt lat="38.5115433" lon="-0.6052448"><ele>665.6666666666666</ele><time>2026-04-05T11:43:52.036Z</time></trkpt><trkpt lat="38.5114076" lon="-0.6051178"><ele>663.0</ele><time>2026-04-05T11:43:53.037Z</time></trkpt><trkpt lat="38.5112751" lon="-0.6049896"><ele>665.6666666666666</ele><time>2026-04-05T11:43:54.037Z</time></trkpt><trkpt lat="38.5111586" lon="-0.6048443"><ele>668.3333333333333</ele><time>2026-04-05T11:43:55.037Z</time></trkpt><trkpt lat="38.5110734" lon="-0.6046665"><ele>671.0</ele><time>2026-04-05T11:43:56.037Z</time></trkpt><trkpt lat="38.5110378" lon="-0.6044702"><ele>671.0</ele><time>2026-04-05T11:43:57.037Z</time></trkpt><trkpt lat="38.5110521" lon="-0.6042644"><ele>671.0</ele><time>2026-04-05T11:43:58.036Z</time></trkpt><trkpt lat="38.511094" lon="-0.6040414"><ele>671.0</ele><time>2026-04-05T11:43:59.036Z</time></trkpt><trkpt lat="38.5111438" lon="-0.6038202"><ele>670.3333333333333</ele><time>2026-04-05T11:44:00.036Z</time></trkpt><trkpt lat="38.5111952" lon="-0.6036092"><ele>669.6666666666666</ele><time>2026-04-05T11:44:01.036Z</time></trkpt><trkpt lat="38.5112393" lon="-0.6034113"><ele>669.0</ele><time>2026-04-05T11:44:02.036Z</time></trkpt><trkpt lat="38.5112672" lon="-0.6032368"><ele>666.75</ele><time>2026-04-05T11:44:03.036Z</time></trkpt><trkpt lat="38.5112731" lon="-0.60307"><ele>664.5</ele><time>2026-04-05T11:44:04.037Z</time></trkpt><trkpt lat="38.5112549" lon="-0.602907"><ele>662.25</ele><time>2026-04-05T11:44:05.036Z</time></trkpt><trkpt lat="38.5112004" lon="-0.6027494"><ele>660.0</ele><time>2026-04-05T11:44:06.037Z</time></trkpt><trkpt lat="38.5111086" lon="-0.6026002"><ele>660.0</ele><time>2026-04-05T11:44:07.037Z</time></trkpt><trkpt lat="38.5109892" lon="-0.6024711"><ele>660.0</ele><time>2026-04-05T11:44:08.036Z</time></trkpt><trkpt lat="38.5108522" lon="-0.6023677"><ele>660.0</ele><time>2026-04-05T11:44:09.037Z</time></trkpt><trkpt lat="38.5107022" lon="-0.6022958"><ele>660.0</ele><time>2026-04-05T11:44:10.037Z</time></trkpt><trkpt lat="38.5105378" lon="-0.6022442"><ele>660.0</ele><time>2026-04-05T11:44:11.036Z</time></trkpt><trkpt lat="38.5103715" lon="-0.6022055"><ele>660.0</ele><time>2026-04-05T11:44:12.037Z</time></trkpt><trkpt lat="38.5102193" lon="-0.602181"><ele>659.5</ele><time>2026-04-05T11:44:13.036Z</time></trkpt><trkpt lat="38.5100883" lon="-0.6021806"><ele>659.0</ele><time>2026-04-05T11:44:14.036Z</time></trkpt><trkpt lat="38.5099752" lon="-0.6022227"><ele>658.5</ele><time>2026-04-05T11:44:15.037Z</time></trkpt><trkpt lat="38.5098745" lon="-0.6023101"><ele>658.0</ele><time>2026-04-05T11:44:16.036Z</time></trkpt><trkpt lat="38.5098047" lon="-0.6024308"><ele>658.0</ele><time>2026-04-05T11:44:17.036Z</time></trkpt><trkpt lat="38.5097698" lon="-0.6025647"><ele>658.0</ele><time>2026-04-05T11:44:18.036Z</time></trkpt><trkpt lat="38.5097574" lon="-0.602722"><ele>658.0</ele><time>2026-04-05T11:44:19.037Z</time></trkpt><trkpt lat="38.5097422" lon="-0.6029115"><ele>658.0</ele><time>2026-04-05T11:44:20.037Z</time></trkpt><trkpt lat="38.5097182" lon="-0.603105"><ele>659.25</ele><time>2026-04-05T11:44:21.037Z</time></trkpt><trkpt lat="38.5096806" lon="-0.6032755"><ele>660.5</ele><time>2026-04-05T11:44:22.037Z</time></trkpt><trkpt lat="38.5096186" lon="-0.6034172"><ele>661.75</ele><time>2026-04-05T11:44:23.037Z</time></trkpt><trkpt lat="38.5095294" lon="-0.6035164"><ele>663.0</ele><time>2026-04-05T11:44:24.036Z</time></trkpt><trkpt lat="38.5094162" lon="-0.6035664"><ele>659.75</ele><time>2026-04-05T11:44:25.036Z</time></trkpt><trkpt lat="38.5092898" lon="-0.6035586"><ele>656.5</ele><time>2026-04-05T11:44:26.036Z</time></trkpt><trkpt lat="38.5091634" lon="-0.6034946"><ele>653.25</ele><time>2026-04-05T11:44:27.037Z</time></trkpt><trkpt lat="38.5090447" lon="-0.6033817"><ele>650.0</ele><time>2026-04-05T11:44:28.037Z</time></trkpt><trkpt lat="38.5089277" lon="-0.6032255"><ele>650.0</ele><time>2026-04-05T11:44:29.037Z</time></trkpt><trkpt lat="38.5087888" lon="-0.6030721"><ele>650.0</ele><time>2026-04-05T11:44:30.037Z</time></trkpt><trkpt lat="38.5086186" lon="-0.6029417"><ele>650.0</ele><time>2026-04-05T11:44:31.036Z</time></trkpt><trkpt lat="38.5084297" lon="-0.6028353"><ele>648.0</ele><time>2026-04-05T11:44:32.036Z</time></trkpt><trkpt lat="38.508243" lon="-0.6027186"><ele>646.0</ele><time>2026-04-05T11:44:33.036Z</time></trkpt><trkpt lat="38.508055" lon="-0.6025905"><ele>644.0</ele><time>2026-04-05T11:44:34.037Z</time></trkpt><trkpt lat="38.5078837" lon="-0.602465"><ele>648.3333333333333</ele><time>2026-04-05T11:44:35.036Z</time></trkpt><trkpt lat="38.5077283" lon="-0.6023282"><ele>652.6666666666666</ele><time>2026-04-05T11:44:36.037Z</time></trkpt><trkpt lat="38.5075839" lon="-0.6022193"><ele>657.0</ele><time>2026-04-05T11:44:37.037Z</time></trkpt><trkpt lat="38.5074289" lon="-0.602155"><ele>657.0</ele><time>2026-04-05T11:44:38.037Z</time></trkpt><trkpt lat="38.5072514" lon="-0.6021303"><ele>657.0</ele><time>2026-04-05T11:44:39.036Z</time></trkpt><trkpt lat="38.5070545" lon="-0.6021118"><ele>657.0</ele><time>2026-04-05T11:44:40.036Z</time></trkpt><trkpt lat="38.5068398" lon="-0.6020666"><ele>648.5</ele><time>2026-04-05T11:44:41.037Z</time></trkpt><trkpt lat="38.5066208" lon="-0.6019757"><ele>640.0</ele><time>2026-04-05T11:44:42.036Z</time></trkpt><trkpt lat="38.5064009" lon="-0.6018625"><ele>645.5</ele><time>2026-04-05T11:44:43.037Z</time></trkpt><trkpt lat="38.5061844" lon="-0.6017402"><ele>651.0</ele><time>2026-04-05T11:44:44.037Z</time></trkpt><trkpt lat="38.5059811" lon="-0.6016152"><ele>651.0</ele><time>2026-04-05T11:44:45.036Z</time></trkpt><trkpt lat="38.5057839" lon="-0.601493"><ele>651.0</ele><time>2026-04-05T11:44:46.037Z</time></trkpt><trkpt lat="38.5055951" lon="-0.6013947"><ele>651.0</ele><time>2026-04-05T11:44:47.037Z</time></trkpt><trkpt lat="38.5054014" lon="-0.6013156"><ele>654.3333333333334</ele><time>2026-04-05T11:44:48.037Z</time></trkpt><trkpt lat="38.5051903" lon="-0.6012417"><ele>657.6666666666667</ele><time>2026-04-05T11:44:49.036Z</time></trkpt><trkpt lat="38.5049729" lon="-0.6011537"><ele>661.0</ele><time>2026-04-05T11:44:50.037Z</time></trkpt><trkpt lat="38.504765" lon="-0.6010759"><ele>654.3333333333334</ele><time>2026-04-05T11:44:51.036Z</time></trkpt><trkpt lat="38.5045685" lon="-0.6010142"><ele>647.6666666666666</ele><time>2026-04-05T11:44:52.036Z</time></trkpt><trkpt lat="38.5043879" lon="-0.6009671"><ele>641.0</ele><time>2026-04-05T11:44:53.036Z</time></trkpt><trkpt lat="38.5042256" lon="-0.6009388"><ele>641.0</ele><time>2026-04-05T11:44:54.036Z</time></trkpt><trkpt lat="38.5040812" lon="-0.6009506"><ele>641.0</ele><time>2026-04-05T11:44:55.036Z</time></trkpt><trkpt lat="38.5039475" lon="-0.6010056"><ele>641.0</ele><time>2026-04-05T11:44:56.036Z</time></trkpt><trkpt lat="38.5038049" lon="-0.6011056"><ele>641.0</ele><time>2026-04-05T11:44:57.036Z</time></trkpt><trkpt lat="38.503658" lon="-0.6012374"><ele>643.3333333333333</ele><time>2026-04-05T11:44:58.036Z</time></trkpt><trkpt lat="38.503496" lon="-0.6013829"><ele>645.6666666666666</ele><time>2026-04-05T11:44:59.036Z</time></trkpt><trkpt lat="38.503317" lon="-0.6015415"><ele>648.0</ele><time>2026-04-05T11:45:00.037Z</time></trkpt><trkpt lat="38.5031323" lon="-0.601707"><ele>648.0</ele><time>2026-04-05T11:45:01.036Z</time></trkpt><trkpt lat="38.502949" lon="-0.6018685"><ele>648.0</ele><time>2026-04-05T11:45:02.037Z</time></trkpt><trkpt lat="38.5027595" lon="-0.6020328"><ele>647.0</ele><time>2026-04-05T11:45:03.037Z</time></trkpt><trkpt lat="38.5025791" lon="-0.6021918"><ele>646.0</ele><time>2026-04-05T11:45:04.036Z</time></trkpt><trkpt lat="38.5024061" lon="-0.6023417"><ele>645.0</ele><time>2026-04-05T11:45:05.037Z</time></trkpt><trkpt lat="38.5022443" lon="-0.6024824"><ele>645.0</ele><time>2026-04-05T11:45:06.037Z</time></trkpt><trkpt lat="38.502092" lon="-0.6026156"><ele>645.0</ele><time>2026-04-05T11:45:07.036Z</time></trkpt><trkpt lat="38.5019482" lon="-0.602746"><ele>645.0</ele><time>2026-04-05T11:45:08.036Z</time></trkpt><trkpt lat="38.5017976" lon="-0.6028766"><ele>645.3333333333334</ele><time>2026-04-05T11:45:09.036Z</time></trkpt><trkpt lat="38.501639" lon="-0.603022"><ele>645.6666666666667</ele><time>2026-04-05T11:45:10.036Z</time></trkpt><trkpt lat="38.5014743" lon="-0.6031719"><ele>646.0</ele><time>2026-04-05T11:45:11.037Z</time></trkpt><trkpt lat="38.5013055" lon="-0.6033185"><ele>643.6666666666667</ele><time>2026-04-05T11:45:12.036Z</time></trkpt><trkpt lat="38.5011411" lon="-0.6034588"><ele>641.3333333333334</ele><time>2026-04-05T11:45:13.036Z</time></trkpt><trkpt lat="38.5009901" lon="-0.6035887"><ele>639.0</ele><time>2026-04-05T11:45:14.037Z</time></trkpt><trkpt lat="38.5008604" lon="-0.6037096"><ele>639.0</ele><time>2026-04-05T11:45:15.036Z</time></trkpt><trkpt lat="38.5007485" lon="-0.6038414"><ele>639.0</ele><time>2026-04-05T11:45:16.036Z</time></trkpt><trkpt lat="38.5006599" lon="-0.6039713"><ele>639.0</ele><time>2026-04-05T11:45:17.036Z</time></trkpt><trkpt lat="38.5006019" lon="-0.6040956"><ele>639.0</ele><time>2026-04-05T11:45:18.036Z</time></trkpt><trkpt lat="38.5005725" lon="-0.6042099"><ele>639.0</ele><time>2026-04-05T11:45:19.037Z</time></trkpt><trkpt lat="38.5005446" lon="-0.6043035"><ele>639.0</ele><time>2026-04-05T11:45:20.036Z</time></trkpt><trkpt lat="38.5004559" lon="-0.6043968"><ele>639.0</ele><time>2026-04-05T11:45:22.036Z</time></trkpt><trkpt lat="38.5003516" lon="-0.6043909"><ele>639.0</ele><time>2026-04-05T11:45:24.036Z</time></trkpt><trkpt lat="38.5002811" lon="-0.6043711"><ele>639.0</ele><time>2026-04-05T11:45:26.036Z</time></trkpt><trkpt lat="38.5002132" lon="-0.604383"><ele>639.0</ele><time>2026-04-05T11:47:57.037Z</time></trkpt><trkpt lat="38.5001491" lon="-0.6044467"><ele>638.6</ele><time>2026-04-05T11:48:00.036Z</time></trkpt><trkpt lat="38.500104" lon="-0.6045078"><ele>638.2</ele><time>2026-04-05T11:48:01.036Z</time></trkpt><trkpt lat="38.5000495" lon="-0.6045994"><ele>637.8000000000001</ele><time>2026-04-05T11:48:02.036Z</time></trkpt><trkpt lat="38.4999803" lon="-0.604712"><ele>637.4</ele><time>2026-04-05T11:48:03.036Z</time></trkpt><trkpt lat="38.499908" lon="-0.6048244"><ele>637.0</ele><time>2026-04-05T11:48:04.037Z</time></trkpt><trkpt lat="38.499845" lon="-0.6049298"><ele>637.0</ele><time>2026-04-05T11:48:05.037Z</time></trkpt><trkpt lat="38.4997829" lon="-0.6050448"><ele>637.0</ele><time>2026-04-05T11:48:06.036Z</time></trkpt><trkpt lat="38.4997188" lon="-0.605163"><ele>637.0</ele><time>2026-04-05T11:48:07.037Z</time></trkpt><trkpt lat="38.4996514" lon="-0.6052809"><ele>637.0</ele><time>2026-04-05T11:48:08.036Z</time></trkpt><trkpt lat="38.4995801" lon="-0.6054113"><ele>634.0</ele><time>2026-04-05T11:48:09.037Z</time></trkpt><trkpt lat="38.4995031" lon="-0.6055577"><ele>631.0</ele><time>2026-04-05T11:48:10.036Z</time></trkpt><trkpt lat="38.4994098" lon="-0.6057295"><ele>628.0</ele><time>2026-04-05T11:48:11.036Z</time></trkpt><trkpt lat="38.4993049" lon="-0.6059245"><ele>628.0</ele><time>2026-04-05T11:48:12.037Z</time></trkpt><trkpt lat="38.4991975" lon="-0.6061163"><ele>628.0</ele><time>2026-04-05T11:48:13.036Z</time></trkpt><trkpt lat="38.4990859" lon="-0.60631"><ele>628.0</ele><time>2026-04-05T11:48:14.036Z</time></trkpt><trkpt lat="38.4989749" lon="-0.6065019"><ele>626.6666666666667</ele><time>2026-04-05T11:48:15.037Z</time></trkpt><trkpt lat="38.498866" lon="-0.6067041"><ele>625.3333333333334</ele><time>2026-04-05T11:48:16.037Z</time></trkpt><trkpt lat="38.498759" lon="-0.6069083"><ele>624.0</ele><time>2026-04-05T11:48:17.036Z</time></trkpt><trkpt lat="38.4986547" lon="-0.6071033"><ele>624.0</ele><time>2026-04-05T11:48:18.036Z</time></trkpt><trkpt lat="38.4985488" lon="-0.607294"><ele>624.0</ele><time>2026-04-05T11:48:19.037Z</time></trkpt><trkpt lat="38.4984453" lon="-0.6074815"><ele>624.0</ele><time>2026-04-05T11:48:20.036Z</time></trkpt><trkpt lat="38.4983386" lon="-0.6076701"><ele>627.0</ele><time>2026-04-05T11:48:21.036Z</time></trkpt><trkpt lat="38.4982286" lon="-0.6078637"><ele>630.0</ele><time>2026-04-05T11:48:22.037Z</time></trkpt><trkpt lat="38.4981117" lon="-0.6080598"><ele>633.0</ele><time>2026-04-05T11:48:23.036Z</time></trkpt><trkpt lat="38.497999" lon="-0.6082628"><ele>632.0</ele><time>2026-04-05T11:48:24.036Z</time></trkpt><trkpt lat="38.4978815" lon="-0.6084712"><ele>631.0</ele><time>2026-04-05T11:48:25.036Z</time></trkpt><trkpt lat="38.4977583" lon="-0.6086638"><ele>630.0</ele><time>2026-04-05T11:48:26.036Z</time></trkpt><trkpt lat="38.4976342" lon="-0.6089014"><ele>630.0</ele><time>2026-04-05T11:48:27.037Z</time></trkpt><trkpt lat="38.4975015" lon="-0.6091356"><ele>630.0</ele><time>2026-04-05T11:48:28.037Z</time></trkpt><trkpt lat="38.497367" lon="-0.6093729"><ele>634.0</ele><time>2026-04-05T11:48:29.036Z</time></trkpt><trkpt lat="38.4972314" lon="-0.6096123"><ele>638.0</ele><time>2026-04-05T11:48:30.037Z</time></trkpt><trkpt lat="38.4970966" lon="-0.6098621"><ele>635.5</ele><time>2026-04-05T11:48:31.036Z</time></trkpt><trkpt lat="38.4969508" lon="-0.6101266"><ele>633.0</ele><time>2026-04-05T11:48:32.036Z</time></trkpt><trkpt lat="38.4967934" lon="-0.6104064"><ele>633.0</ele><time>2026-04-05T11:48:33.037Z</time></trkpt><trkpt lat="38.4966401" lon="-0.6106721"><ele>633.0</ele><time>2026-04-05T11:48:34.037Z</time></trkpt><trkpt lat="38.4965028" lon="-0.6109213"><ele>635.5</ele><time>2026-04-05T11:48:35.037Z</time></trkpt><trkpt lat="38.4963719" lon="-0.6111601"><ele>638.0</ele><time>2026-04-05T11:48:36.037Z</time></trkpt><trkpt lat="38.4962282" lon="-0.6113942"><ele>632.5</ele><time>2026-04-05T11:48:37.037Z</time></trkpt><trkpt lat="38.4960633" lon="-0.6116113"><ele>627.0</ele><time>2026-04-05T11:48:38.037Z</time></trkpt><trkpt lat="38.4958714" lon="-0.6117982"><ele>627.0</ele><time>2026-04-05T11:48:39.036Z</time></trkpt><trkpt lat="38.4956692" lon="-0.6119797"><ele>627.0</ele><time>2026-04-05T11:48:40.036Z</time></trkpt><trkpt lat="38.4954643" lon="-0.6121526"><ele>628.0</ele><time>2026-04-05T11:48:41.037Z</time></trkpt><trkpt lat="38.4952527" lon="-0.612322"><ele>629.0</ele><time>2026-04-05T11:48:42.037Z</time></trkpt><trkpt lat="38.495041" lon="-0.6125042"><ele>629.0</ele><time>2026-04-05T11:48:43.036Z</time></trkpt><trkpt lat="38.4948285" lon="-0.6126865"><ele>629.0</ele><time>2026-04-05T11:48:44.036Z</time></trkpt><trkpt lat="38.4946152" lon="-0.6128748"><ele>630.5</ele><time>2026-04-05T11:48:45.036Z</time></trkpt><trkpt lat="38.4944031" lon="-0.6130486"><ele>632.0</ele><time>2026-04-05T11:48:46.036Z</time></trkpt><trkpt lat="38.4941946" lon="-0.6132346"><ele>632.0</ele><time>2026-04-05T11:48:47.036Z</time></trkpt><trkpt lat="38.4939793" lon="-0.6134198"><ele>632.0</ele><time>2026-04-05T11:48:48.036Z</time></trkpt><trkpt lat="38.4937586" lon="-0.6135966"><ele>632.5</ele><time>2026-04-05T11:48:49.036Z</time></trkpt><trkpt lat="38.4935487" lon="-0.613786"><ele>633.0</ele><time>2026-04-05T11:48:50.036Z</time></trkpt><trkpt lat="38.4933273" lon="-0.6139758"><ele>633.0</ele><time>2026-04-05T11:48:51.036Z</time></trkpt><trkpt lat="38.4930955" lon="-0.6141713"><ele>633.0</ele><time>2026-04-05T11:48:52.036Z</time></trkpt><trkpt lat="38.4928671" lon="-0.614368"><ele>636.0</ele><time>2026-04-05T11:48:53.036Z</time></trkpt><trkpt lat="38.4926381" lon="-0.6145722"><ele>639.0</ele><time>2026-04-05T11:48:54.037Z</time></trkpt><trkpt lat="38.4924075" lon="-0.6147707"><ele>639.0</ele><time>2026-04-05T11:48:55.037Z</time></trkpt><trkpt lat="38.4921686" lon="-0.6149778"><ele>639.0</ele><time>2026-04-05T11:48:56.036Z</time></trkpt><trkpt lat="38.4919332" lon="-0.6151801"><ele>640.5</ele><time>2026-04-05T11:48:57.036Z</time></trkpt><trkpt lat="38.4917012" lon="-0.615382"><ele>642.0</ele><time>2026-04-05T11:48:58.036Z</time></trkpt><trkpt lat="38.491464" lon="-0.6155833"><ele>641.0</ele><time>2026-04-05T11:48:59.036Z</time></trkpt><trkpt lat="38.4912272" lon="-0.615781"><ele>640.0</ele><time>2026-04-05T11:49:00.036Z</time></trkpt><trkpt lat="38.4910009" lon="-0.6159716"><ele>644.0</ele><time>2026-04-05T11:49:01.037Z</time></trkpt><trkpt lat="38.4907889" lon="-0.6161552"><ele>648.0</ele><time>2026-04-05T11:49:02.037Z</time></trkpt><trkpt lat="38.490588" lon="-0.6163294"><ele>645.0</ele><time>2026-04-05T11:49:03.037Z</time></trkpt><trkpt lat="38.4903891" lon="-0.6165037"><ele>642.0</ele><time>2026-04-05T11:49:04.036Z</time></trkpt><trkpt lat="38.490184" lon="-0.6166824"><ele>642.0</ele><time>2026-04-05T11:49:05.037Z</time></trkpt><trkpt lat="38.4899732" lon="-0.6168612"><ele>642.0</ele><time>2026-04-05T11:49:06.036Z</time></trkpt><trkpt lat="38.4897631" lon="-0.6170401"><ele>643.0</ele><time>2026-04-05T11:49:07.037Z</time></trkpt><trkpt lat="38.4895519" lon="-0.6172227"><ele>644.0</ele><time>2026-04-05T11:49:08.037Z</time></trkpt><trkpt lat="38.489342" lon="-0.6174062"><ele>644.0</ele><time>2026-04-05T11:49:09.037Z</time></trkpt><trkpt lat="38.4891418" lon="-0.6175707"><ele>644.0</ele><time>2026-04-05T11:49:10.036Z</time></trkpt><trkpt lat="38.488945" lon="-0.6177115"><ele>643.3333333333333</ele><time>2026-04-05T11:49:11.036Z</time></trkpt><trkpt lat="38.4887456" lon="-0.6178264"><ele>642.6666666666666</ele><time>2026-04-05T11:49:12.037Z</time></trkpt><trkpt lat="38.4885428" lon="-0.6179267"><ele>642.0</ele><time>2026-04-05T11:49:13.036Z</time></trkpt><trkpt lat="38.4883365" lon="-0.6180337"><ele>642.0</ele><time>2026-04-05T11:49:14.037Z</time></trkpt><trkpt lat="38.4881274" lon="-0.6181458"><ele>642.0</ele><time>2026-04-05T11:49:15.037Z</time></trkpt><trkpt lat="38.4879174" lon="-0.6182574"><ele>640.0</ele><time>2026-04-05T11:49:16.036Z</time></trkpt><trkpt lat="38.4877015" lon="-0.6183853"><ele>638.0</ele><time>2026-04-05T11:49:17.036Z</time></trkpt><trkpt lat="38.4874886" lon="-0.6185421"><ele>638.0</ele><time>2026-04-05T11:49:18.036Z</time></trkpt><trkpt lat="38.4872799" lon="-0.6187311"><ele>638.0</ele><time>2026-04-05T11:49:19.036Z</time></trkpt><trkpt lat="38.487076" lon="-0.6189248"><ele>634.5</ele><time>2026-04-05T11:49:20.036Z</time></trkpt><trkpt lat="38.4868756" lon="-0.619118"><ele>631.0</ele><time>2026-04-05T11:49:21.037Z</time></trkpt><trkpt lat="38.4866778" lon="-0.619301"><ele>631.0</ele><time>2026-04-05T11:49:22.037Z</time></trkpt><trkpt lat="38.4864891" lon="-0.6194774"><ele>631.0</ele><time>2026-04-05T11:49:23.036Z</time></trkpt><trkpt lat="38.4863018" lon="-0.6196474"><ele>629.0</ele><time>2026-04-05T11:49:24.037Z</time></trkpt><trkpt lat="38.4861222" lon="-0.6198061"><ele>627.0</ele><time>2026-04-05T11:49:25.037Z</time></trkpt><trkpt lat="38.4859545" lon="-0.6199653"><ele>625.0</ele><time>2026-04-05T11:49:26.036Z</time></trkpt><trkpt lat="38.4858035" lon="-0.620131"><ele>625.0</ele><time>2026-04-05T11:49:27.037Z</time></trkpt><trkpt lat="38.4856827" lon="-0.6203158"><ele>625.0</ele><time>2026-04-05T11:49:28.037Z</time></trkpt><trkpt lat="38.4855825" lon="-0.6205105"><ele>625.0</ele><time>2026-04-05T11:49:29.036Z</time></trkpt><trkpt lat="38.4855095" lon="-0.6207336"><ele>621.0</ele><time>2026-04-05T11:49:30.036Z</time></trkpt><trkpt lat="38.4854281" lon="-0.62097"><ele>617.0</ele><time>2026-04-05T11:49:31.036Z</time></trkpt><trkpt lat="38.4853401" lon="-0.6212194"><ele>613.0</ele><time>2026-04-05T11:49:32.036Z</time></trkpt><trkpt lat="38.4852504" lon="-0.6214809"><ele>612.6666666666667</ele><time>2026-04-05T11:49:33.036Z</time></trkpt><trkpt lat="38.4851631" lon="-0.6217293"><ele>612.3333333333334</ele><time>2026-04-05T11:49:34.036Z</time></trkpt><trkpt lat="38.4850739" lon="-0.6219603"><ele>612.0</ele><time>2026-04-05T11:49:35.036Z</time></trkpt><trkpt lat="38.4849696" lon="-0.6221563"><ele>609.0</ele><time>2026-04-05T11:49:36.036Z</time></trkpt><trkpt lat="38.4848485" lon="-0.6223188"><ele>606.0</ele><time>2026-04-05T11:49:37.037Z</time></trkpt><trkpt lat="38.484711" lon="-0.6224464"><ele>603.0</ele><time>2026-04-05T11:49:38.037Z</time></trkpt><trkpt lat="38.4845628" lon="-0.6225397"><ele>603.0</ele><time>2026-04-05T11:49:39.037Z</time></trkpt><trkpt lat="38.4844431" lon="-0.6226686"><ele>603.0</ele><time>2026-04-05T11:49:40.036Z</time></trkpt><trkpt lat="38.4843645" lon="-0.6228256"><ele>603.0</ele><time>2026-04-05T11:49:41.037Z</time></trkpt><trkpt lat="38.4843146" lon="-0.622998"><ele>603.0</ele><time>2026-04-05T11:49:42.036Z</time></trkpt><trkpt lat="38.4842939" lon="-0.6231704"><ele>602.6666666666666</ele><time>2026-04-05T11:49:43.036Z</time></trkpt><trkpt lat="38.4842979" lon="-0.6233589"><ele>602.3333333333333</ele><time>2026-04-05T11:49:44.037Z</time></trkpt><trkpt lat="38.4842908" lon="-0.6235718"><ele>602.0</ele><time>2026-04-05T11:49:45.037Z</time></trkpt><trkpt lat="38.4842614" lon="-0.6238297"><ele>603.3333333333333</ele><time>2026-04-05T11:49:46.036Z</time></trkpt><trkpt lat="38.484219" lon="-0.6241086"><ele>604.6666666666666</ele><time>2026-04-05T11:49:47.037Z</time></trkpt><trkpt lat="38.4841749" lon="-0.6243761"><ele>606.0</ele><time>2026-04-05T11:49:48.036Z</time></trkpt><trkpt lat="38.4841094" lon="-0.6246535"><ele>611.5</ele><time>2026-04-05T11:49:49.037Z</time></trkpt><trkpt lat="38.4840254" lon="-0.6249392"><ele>617.0</ele><time>2026-04-05T11:49:50.036Z</time></trkpt><trkpt lat="38.4839409" lon="-0.6252132"><ele>618.6666666666666</ele><time>2026-04-05T11:49:51.037Z</time></trkpt><trkpt lat="38.4838644" lon="-0.6254768"><ele>620.3333333333334</ele><time>2026-04-05T11:49:52.037Z</time></trkpt><trkpt lat="38.4837793" lon="-0.6257119"><ele>622.0</ele><time>2026-04-05T11:49:53.036Z</time></trkpt><trkpt lat="38.4836997" lon="-0.6259195"><ele>610.0</ele><time>2026-04-05T11:49:54.036Z</time></trkpt><trkpt lat="38.4836422" lon="-0.6261196"><ele>598.0</ele><time>2026-04-05T11:49:55.036Z</time></trkpt><trkpt lat="38.4836181" lon="-0.6263258"><ele>586.0</ele><time>2026-04-05T11:49:56.036Z</time></trkpt><trkpt lat="38.4836373" lon="-0.6265541"><ele>585.6666666666667</ele><time>2026-04-05T11:49:57.036Z</time></trkpt><trkpt lat="38.4836356" lon="-0.6268141"><ele>585.3333333333334</ele><time>2026-04-05T11:49:58.036Z</time></trkpt><trkpt lat="38.4836284" lon="-0.6270882"><ele>585.0</ele><time>2026-04-05T11:49:59.036Z</time></trkpt><trkpt lat="38.4836239" lon="-0.6273645"><ele>585.3333333333334</ele><time>2026-04-05T11:50:00.037Z</time></trkpt><trkpt lat="38.4836185" lon="-0.6275988"><ele>585.6666666666667</ele><time>2026-04-05T11:50:01.036Z</time></trkpt><trkpt lat="38.4835675" lon="-0.6278434"><ele>586.0</ele><time>2026-04-05T11:50:02.036Z</time></trkpt><trkpt lat="38.4834892" lon="-0.6280994"><ele>586.0</ele><time>2026-04-05T11:50:03.037Z</time></trkpt><trkpt lat="38.483387" lon="-0.628382"><ele>586.0</ele><time>2026-04-05T11:50:04.036Z</time></trkpt><trkpt lat="38.4832823" lon="-0.6286787"><ele>591.5</ele><time>2026-04-05T11:50:05.037Z</time></trkpt><trkpt lat="38.4831935" lon="-0.6289019"><ele>597.0</ele><time>2026-04-05T11:50:06.28Z</time></trkpt><trkpt lat="38.4830676" lon="-0.6292474"><ele>575.0</ele><time>2026-04-05T11:50:07.421Z</time></trkpt><trkpt lat="38.4828418" lon="-0.6298695"><ele>575.0</ele><time>2026-04-05T11:50:09.038Z</time></trkpt><trkpt lat="38.4827471" lon="-0.6301392"><ele>575.0</ele><time>2026-04-05T11:50:10.036Z</time></trkpt><trkpt lat="38.4826586" lon="-0.63036"><ele>575.0</ele><time>2026-04-05T11:50:11.035Z</time></trkpt><trkpt lat="38.4825624" lon="-0.6305414"><ele>576.0</ele><time>2026-04-05T11:50:12.036Z</time></trkpt><trkpt lat="38.4824444" lon="-0.6307072"><ele>577.0</ele><time>2026-04-05T11:50:13.036Z</time></trkpt><trkpt lat="38.4822879" lon="-0.6308306"><ele>578.0</ele><time>2026-04-05T11:50:14.036Z</time></trkpt><trkpt lat="38.4821347" lon="-0.6309425"><ele>579.3333333333333</ele><time>2026-04-05T11:50:15.036Z</time></trkpt><trkpt lat="38.4820014" lon="-0.6310453"><ele>580.6666666666666</ele><time>2026-04-05T11:50:16.037Z</time></trkpt><trkpt lat="38.4818846" lon="-0.6311741"><ele>582.0</ele><time>2026-04-05T11:50:17.036Z</time></trkpt><trkpt lat="38.4817967" lon="-0.6313434"><ele>582.0</ele><time>2026-04-05T11:50:18.037Z</time></trkpt><trkpt lat="38.4817213" lon="-0.6314881"><ele>582.0</ele><time>2026-04-05T11:50:19.036Z</time></trkpt><trkpt lat="38.4816089" lon="-0.6316074"><ele>582.0</ele><time>2026-04-05T11:50:20.037Z</time></trkpt><trkpt lat="38.4814737" lon="-0.6316666"><ele>582.0</ele><time>2026-04-05T11:50:21.036Z</time></trkpt><trkpt lat="38.4813298" lon="-0.6316652"><ele>580.5</ele><time>2026-04-05T11:50:22.036Z</time></trkpt><trkpt lat="38.4811985" lon="-0.6316415"><ele>579.0</ele><time>2026-04-05T11:50:23.036Z</time></trkpt><trkpt lat="38.4810775" lon="-0.631624"><ele>577.5</ele><time>2026-04-05T11:50:24.036Z</time></trkpt><trkpt lat="38.4809689" lon="-0.6316094"><ele>576.0</ele><time>2026-04-05T11:50:25.036Z</time></trkpt><trkpt lat="38.4808663" lon="-0.6316006"><ele>576.0</ele><time>2026-04-05T11:50:26.036Z</time></trkpt><trkpt lat="38.4807586" lon="-0.6315928"><ele>576.0</ele><time>2026-04-05T11:50:27.036Z</time></trkpt><trkpt lat="38.4806526" lon="-0.6315967"><ele>576.0</ele><time>2026-04-05T11:50:28.036Z</time></trkpt><trkpt lat="38.4805526" lon="-0.6316065"><ele>576.0</ele><time>2026-04-05T11:50:29.036Z</time></trkpt><trkpt lat="38.4804502" lon="-0.6316835"><ele>576.0</ele><time>2026-04-05T11:50:30.036Z</time></trkpt><trkpt lat="38.4803712" lon="-0.6317775"><ele>571.5</ele><time>2026-04-05T11:50:31.036Z</time></trkpt><trkpt lat="38.4803047" lon="-0.6318732"><ele>567.0</ele><time>2026-04-05T11:50:32.036Z</time></trkpt><trkpt lat="38.4802536" lon="-0.6320448"><ele>562.5</ele><time>2026-04-05T11:50:33.037Z</time></trkpt><trkpt lat="38.4802213" lon="-0.6321957"><ele>558.0</ele><time>2026-04-05T11:50:34.037Z</time></trkpt><trkpt lat="38.4802114" lon="-0.6323545"><ele>558.0</ele><time>2026-04-05T11:50:35.037Z</time></trkpt><trkpt lat="38.4802065" lon="-0.6324885"><ele>558.0</ele><time>2026-04-05T11:50:36.037Z</time></trkpt><trkpt lat="38.4802297" lon="-0.6326098"><ele>558.0</ele><time>2026-04-05T11:50:37.037Z</time></trkpt><trkpt lat="38.4802897" lon="-0.632711"><ele>558.0</ele><time>2026-04-05T11:50:38.037Z</time></trkpt><trkpt lat="38.4803901" lon="-0.632753"><ele>558.0</ele><time>2026-04-05T11:50:39.036Z</time></trkpt><trkpt lat="38.4804968" lon="-0.6327746"><ele>559.75</ele><time>2026-04-05T11:50:40.036Z</time></trkpt><trkpt lat="38.4806027" lon="-0.6327637"><ele>561.5</ele><time>2026-04-05T11:50:41.036Z</time></trkpt><trkpt lat="38.4807106" lon="-0.63277"><ele>563.25</ele><time>2026-04-05T11:50:42.036Z</time></trkpt><trkpt lat="38.4808245" lon="-0.6327685"><ele>565.0</ele><time>2026-04-05T11:50:43.037Z</time></trkpt><trkpt lat="38.4809419" lon="-0.6328427"><ele>565.0</ele><time>2026-04-05T11:50:45.036Z</time></trkpt><trkpt lat="38.4809868" lon="-0.6329332"><ele>565.0</ele><time>2026-04-05T11:50:46.036Z</time></trkpt><trkpt lat="38.4810119" lon="-0.6330574"><ele>565.0</ele><time>2026-04-05T11:50:47.036Z</time></trkpt><trkpt lat="38.4810094" lon="-0.6331968"><ele>565.0</ele><time>2026-04-05T11:50:48.037Z</time></trkpt><trkpt lat="38.4809726" lon="-0.6333409"><ele>565.0</ele><time>2026-04-05T11:50:49.036Z</time></trkpt><trkpt lat="38.4809184" lon="-0.6334955"><ele>563.0</ele><time>2026-04-05T11:50:50.036Z</time></trkpt><trkpt lat="38.4808708" lon="-0.6336457"><ele>561.0</ele><time>2026-04-05T11:50:51.036Z</time></trkpt><trkpt lat="38.4808215" lon="-0.6337877"><ele>559.0</ele><time>2026-04-05T11:50:52.036Z</time></trkpt><trkpt lat="38.4807812" lon="-0.6339267"><ele>557.0</ele><time>2026-04-05T11:50:53.036Z</time></trkpt><trkpt lat="38.4807555" lon="-0.6340582"><ele>557.0</ele><time>2026-04-05T11:50:54.037Z</time></trkpt><trkpt lat="38.4807607" lon="-0.6341867"><ele>557.0</ele><time>2026-04-05T11:50:55.037Z</time></trkpt><trkpt lat="38.4808062" lon="-0.6342983"><ele>557.0</ele><time>2026-04-05T11:50:56.036Z</time></trkpt><trkpt lat="38.4808978" lon="-0.634384"><ele>557.0</ele><time>2026-04-05T11:50:57.036Z</time></trkpt><trkpt lat="38.4810218" lon="-0.6344668"><ele>553.0</ele><time>2026-04-05T11:50:58.036Z</time></trkpt><trkpt lat="38.4811759" lon="-0.6345498"><ele>549.0</ele><time>2026-04-05T11:50:59.036Z</time></trkpt><trkpt lat="38.481337" lon="-0.6346209"><ele>545.0</ele><time>2026-04-05T11:51:00.037Z</time></trkpt><trkpt lat="38.4814915" lon="-0.6346507"><ele>545.0</ele><time>2026-04-05T11:51:01.036Z</time></trkpt><trkpt lat="38.4816497" lon="-0.6346262"><ele>545.0</ele><time>2026-04-05T11:51:02.036Z</time></trkpt><trkpt lat="38.4817925" lon="-0.6345927"><ele>545.0</ele><time>2026-04-05T11:51:03.036Z</time></trkpt><trkpt lat="38.4819247" lon="-0.6345167"><ele>545.0</ele><time>2026-04-05T11:51:04.036Z</time></trkpt><trkpt lat="38.4820608" lon="-0.6344681"><ele>546.5</ele><time>2026-04-05T11:51:05.037Z</time></trkpt><trkpt lat="38.4821619" lon="-0.6345258"><ele>548.0</ele><time>2026-04-05T11:51:06.036Z</time></trkpt><trkpt lat="38.482257" lon="-0.6345955"><ele>549.5</ele><time>2026-04-05T11:51:07.036Z</time></trkpt><trkpt lat="38.4823396" lon="-0.6347311"><ele>551.0</ele><time>2026-04-05T11:51:08.037Z</time></trkpt><trkpt lat="38.4823784" lon="-0.6348747"><ele>551.0</ele><time>2026-04-05T11:51:09.036Z</time></trkpt><trkpt lat="38.4823709" lon="-0.6350488"><ele>551.0</ele><time>2026-04-05T11:51:10.037Z</time></trkpt><trkpt lat="38.4822961" lon="-0.6352528"><ele>551.0</ele><time>2026-04-05T11:51:11.037Z</time></trkpt><trkpt lat="38.4822276" lon="-0.6354064"><ele>554.0</ele><time>2026-04-05T11:51:12.036Z</time></trkpt><trkpt lat="38.482117" lon="-0.6355538"><ele>557.0</ele><time>2026-04-05T11:51:13.036Z</time></trkpt><trkpt lat="38.4819802" lon="-0.6356784"><ele>560.0</ele><time>2026-04-05T11:51:14.036Z</time></trkpt><trkpt lat="38.481723" lon="-0.6358317"><ele>560.0</ele><time>2026-04-05T11:51:15.036Z</time></trkpt><trkpt lat="38.4815321" lon="-0.6359291"><ele>560.0</ele><time>2026-04-05T11:51:16.037Z</time></trkpt><trkpt lat="38.4813484" lon="-0.6359579"><ele>560.0</ele><time>2026-04-05T11:51:17.037Z</time></trkpt><trkpt lat="38.4811053" lon="-0.6358358"><ele>558.6666666666666</ele><time>2026-04-05T11:51:18.036Z</time></trkpt><trkpt lat="38.480907" lon="-0.6358121"><ele>557.3333333333334</ele><time>2026-04-05T11:51:19.037Z</time></trkpt><trkpt lat="38.4807359" lon="-0.6358011"><ele>556.0</ele><time>2026-04-05T11:51:20.037Z</time></trkpt><trkpt lat="38.4805782" lon="-0.6358098"><ele>554.5</ele><time>2026-04-05T11:51:21.036Z</time></trkpt><trkpt lat="38.4804293" lon="-0.6358349"><ele>553.0</ele><time>2026-04-05T11:51:22.037Z</time></trkpt><trkpt lat="38.4802879" lon="-0.6358735"><ele>551.5</ele><time>2026-04-05T11:51:23.036Z</time></trkpt><trkpt lat="38.4801695" lon="-0.6359303"><ele>550.0</ele><time>2026-04-05T11:51:24.037Z</time></trkpt><trkpt lat="38.4800631" lon="-0.6359797"><ele>550.0</ele><time>2026-04-05T11:51:25.037Z</time></trkpt><trkpt lat="38.4799478" lon="-0.636024"><ele>550.0</ele><time>2026-04-05T11:51:26.036Z</time></trkpt><trkpt lat="38.47983" lon="-0.63607"><ele>550.0</ele><time>2026-04-05T11:51:27.037Z</time></trkpt><trkpt lat="38.4797157" lon="-0.636116"><ele>550.0</ele><time>2026-04-05T11:51:28.036Z</time></trkpt><trkpt lat="38.4796035" lon="-0.636172"><ele>550.5</ele><time>2026-04-05T11:51:29.037Z</time></trkpt><trkpt lat="38.4794963" lon="-0.6362559"><ele>551.0</ele><time>2026-04-05T11:51:30.037Z</time></trkpt><trkpt lat="38.4794192" lon="-0.6363911"><ele>551.5</ele><time>2026-04-05T11:51:31.036Z</time></trkpt><trkpt lat="38.4793777" lon="-0.6365639"><ele>552.0</ele><time>2026-04-05T11:51:32.037Z</time></trkpt><trkpt lat="38.4793451" lon="-0.6367589"><ele>552.0</ele><time>2026-04-05T11:51:33.036Z</time></trkpt><trkpt lat="38.4792861" lon="-0.6369649"><ele>552.0</ele><time>2026-04-05T11:51:34.036Z</time></trkpt><trkpt lat="38.4791922" lon="-0.6371615"><ele>552.0</ele><time>2026-04-05T11:51:35.036Z</time></trkpt><trkpt lat="38.4790971" lon="-0.6373381"><ele>552.0</ele><time>2026-04-05T11:51:36.037Z</time></trkpt><trkpt lat="38.4790072" lon="-0.6375066"><ele>552.0</ele><time>2026-04-05T11:51:37.037Z</time></trkpt><trkpt lat="38.4789289" lon="-0.6376849"><ele>552.0</ele><time>2026-04-05T11:51:38.037Z</time></trkpt><trkpt lat="38.4788615" lon="-0.6378652"><ele>550.0</ele><time>2026-04-05T11:51:39.036Z</time></trkpt><trkpt lat="38.4788036" lon="-0.6380399"><ele>548.0</ele><time>2026-04-05T11:51:40.036Z</time></trkpt><trkpt lat="38.4787479" lon="-0.638211"><ele>546.0</ele><time>2026-04-05T11:51:41.036Z</time></trkpt><trkpt lat="38.4786777" lon="-0.6383772"><ele>544.0</ele><time>2026-04-05T11:51:42.036Z</time></trkpt><trkpt lat="38.4785993" lon="-0.6385386"><ele>544.3333333333334</ele><time>2026-04-05T11:51:43.037Z</time></trkpt><trkpt lat="38.4785195" lon="-0.6387085"><ele>544.6666666666666</ele><time>2026-04-05T11:51:44.036Z</time></trkpt><trkpt lat="38.4784635" lon="-0.6388892"><ele>545.0</ele><time>2026-04-05T11:51:45.037Z</time></trkpt><trkpt lat="38.4784334" lon="-0.6390788"><ele>545.0</ele><time>2026-04-05T11:51:46.036Z</time></trkpt><trkpt lat="38.4784178" lon="-0.6392723"><ele>545.0</ele><time>2026-04-05T11:51:47.037Z</time></trkpt><trkpt lat="38.4784054" lon="-0.6394728"><ele>545.0</ele><time>2026-04-05T11:51:48.037Z</time></trkpt><trkpt lat="38.4783948" lon="-0.63967"><ele>544.5</ele><time>2026-04-05T11:51:49.037Z</time></trkpt><trkpt lat="38.4783932" lon="-0.639861"><ele>544.0</ele><time>2026-04-05T11:51:50.037Z</time></trkpt><trkpt lat="38.4783878" lon="-0.6400227"><ele>543.5</ele><time>2026-04-05T11:51:51.036Z</time></trkpt><trkpt lat="38.478368" lon="-0.6401619"><ele>543.0</ele><time>2026-04-05T11:51:52.036Z</time></trkpt><trkpt lat="38.4783187" lon="-0.6402844"><ele>542.5</ele><time>2026-04-05T11:51:53.036Z</time></trkpt><trkpt lat="38.4782311" lon="-0.6403883"><ele>542.0</ele><time>2026-04-05T11:51:54.036Z</time></trkpt><trkpt lat="38.4781141" lon="-0.6404482"><ele>541.5</ele><time>2026-04-05T11:51:55.037Z</time></trkpt><trkpt lat="38.4779752" lon="-0.6404767"><ele>541.0</ele><time>2026-04-05T11:51:56.036Z</time></trkpt><trkpt lat="38.4778313" lon="-0.6405031"><ele>541.0</ele><time>2026-04-05T11:51:57.037Z</time></trkpt><trkpt lat="38.4776995" lon="-0.6405583"><ele>541.0</ele><time>2026-04-05T11:51:58.036Z</time></trkpt><trkpt lat="38.4775794" lon="-0.6406328"><ele>541.0</ele><time>2026-04-05T11:51:59.037Z</time></trkpt><trkpt lat="38.4774597" lon="-0.6407142"><ele>541.0</ele><time>2026-04-05T11:52:00.036Z</time></trkpt><trkpt lat="38.4773483" lon="-0.6407979"><ele>541.0</ele><time>2026-04-05T11:52:01.036Z</time></trkpt><trkpt lat="38.477244" lon="-0.6408924"><ele>541.0</ele><time>2026-04-05T11:52:02.036Z</time></trkpt><trkpt lat="38.4771522" lon="-0.6410175"><ele>541.0</ele><time>2026-04-05T11:52:03.036Z</time></trkpt><trkpt lat="38.4770805" lon="-0.641178"><ele>541.0</ele><time>2026-04-05T11:52:04.037Z</time></trkpt><trkpt lat="38.4770257" lon="-0.6413665"><ele>535.3333333333334</ele><time>2026-04-05T11:52:05.036Z</time></trkpt><trkpt lat="38.4769819" lon="-0.641565"><ele>529.6666666666666</ele><time>2026-04-05T11:52:06.036Z</time></trkpt><trkpt lat="38.4769449" lon="-0.6417562"><ele>524.0</ele><time>2026-04-05T11:52:07.036Z</time></trkpt><trkpt lat="38.4769081" lon="-0.6419309"><ele>523.6</ele><time>2026-04-05T11:52:08.037Z</time></trkpt><trkpt lat="38.476872" lon="-0.6420887"><ele>523.2</ele><time>2026-04-05T11:52:09.037Z</time></trkpt><trkpt lat="38.4768402" lon="-0.6422346"><ele>522.8000000000001</ele><time>2026-04-05T11:52:10.037Z</time></trkpt><trkpt lat="38.4768179" lon="-0.6423584"><ele>522.4</ele><time>2026-04-05T11:52:11.036Z</time></trkpt><trkpt lat="38.4768004" lon="-0.642481"><ele>522.0</ele><time>2026-04-05T11:52:12.036Z</time></trkpt><trkpt lat="38.4767979" lon="-0.642607"><ele>522.0</ele><time>2026-04-05T11:52:13.036Z</time></trkpt><trkpt lat="38.4768203" lon="-0.6427376"><ele>522.0</ele><time>2026-04-05T11:52:14.036Z</time></trkpt><trkpt lat="38.4768726" lon="-0.6428693"><ele>522.0</ele><time>2026-04-05T11:52:15.037Z</time></trkpt><trkpt lat="38.4769356" lon="-0.6429923"><ele>522.0</ele><time>2026-04-05T11:52:16.036Z</time></trkpt><trkpt lat="38.4769936" lon="-0.6431066"><ele>522.0</ele><time>2026-04-05T11:52:17.037Z</time></trkpt><trkpt lat="38.477034" lon="-0.6432366"><ele>521.2</ele><time>2026-04-05T11:52:18.037Z</time></trkpt><trkpt lat="38.477044" lon="-0.6433773"><ele>520.4000000000001</ele><time>2026-04-05T11:52:19.037Z</time></trkpt><trkpt lat="38.4770191" lon="-0.6435177"><ele>519.5999999999999</ele><time>2026-04-05T11:52:20.036Z</time></trkpt><trkpt lat="38.4769639" lon="-0.6436396"><ele>518.8</ele><time>2026-04-05T11:52:21.036Z</time></trkpt><trkpt lat="38.476891" lon="-0.6437338"><ele>518.0</ele><time>2026-04-05T11:52:22.036Z</time></trkpt><trkpt lat="38.4768058" lon="-0.6437867"><ele>518.0</ele><time>2026-04-05T11:52:23.036Z</time></trkpt><trkpt lat="38.4767055" lon="-0.6438101"><ele>518.0</ele><time>2026-04-05T11:52:24.036Z</time></trkpt><trkpt lat="38.4765959" lon="-0.6437629"><ele>518.0</ele><time>2026-04-05T11:52:25.036Z</time></trkpt><trkpt lat="38.4764954" lon="-0.6437178"><ele>518.0</ele><time>2026-04-05T11:52:26.036Z</time></trkpt><trkpt lat="38.4763063" lon="-0.643534"><ele>519.0</ele><time>2026-04-05T11:52:27.036Z</time></trkpt><trkpt lat="38.4761082" lon="-0.643367"><ele>520.0</ele><time>2026-04-05T11:52:28.037Z</time></trkpt><trkpt lat="38.4758955" lon="-0.6431826"><ele>520.0</ele><time>2026-04-05T11:52:29.036Z</time></trkpt><trkpt lat="38.4756809" lon="-0.6429963"><ele>520.0</ele><time>2026-04-05T11:52:30.036Z</time></trkpt><trkpt lat="38.4754582" lon="-0.6427904"><ele>515.0</ele><time>2026-04-05T11:52:31.036Z</time></trkpt><trkpt lat="38.475243" lon="-0.6425934"><ele>510.0</ele><time>2026-04-05T11:52:32.036Z</time></trkpt><trkpt lat="38.475047" lon="-0.6424298"><ele>510.0</ele><time>2026-04-05T11:52:33.036Z</time></trkpt><trkpt lat="38.4748442" lon="-0.6422741"><ele>510.0</ele><time>2026-04-05T11:52:34.036Z</time></trkpt><trkpt lat="38.4746319" lon="-0.6421309"><ele>510.0</ele><time>2026-04-05T11:52:35.037Z</time></trkpt><trkpt lat="38.4744336" lon="-0.6420141"><ele>510.0</ele><time>2026-04-05T11:52:36.036Z</time></trkpt><trkpt lat="38.4742464" lon="-0.6419217"><ele>510.0</ele><time>2026-04-05T11:52:37.036Z</time></trkpt><trkpt lat="38.4740655" lon="-0.6418567"><ele>505.66666666666663</ele><time>2026-04-05T11:52:38.036Z</time></trkpt><trkpt lat="38.4738988" lon="-0.6418116"><ele>501.3333333333333</ele><time>2026-04-05T11:52:39.037Z</time></trkpt><trkpt lat="38.4737515" lon="-0.6418093"><ele>497.0</ele><time>2026-04-05T11:52:40.037Z</time></trkpt><trkpt lat="38.4736144" lon="-0.6418531"><ele>496.0</ele><time>2026-04-05T11:52:41.037Z</time></trkpt><trkpt lat="38.4734917" lon="-0.6419212"><ele>495.0</ele><time>2026-04-05T11:52:42.036Z</time></trkpt><trkpt lat="38.4733738" lon="-0.6419587"><ele>494.0</ele><time>2026-04-05T11:52:43.037Z</time></trkpt><trkpt lat="38.4732525" lon="-0.6419253"><ele>493.0</ele><time>2026-04-05T11:52:44.036Z</time></trkpt><trkpt lat="38.473148" lon="-0.641838"><ele>493.0</ele><time>2026-04-05T11:52:45.037Z</time></trkpt><trkpt lat="38.4730497" lon="-0.6417001"><ele>493.0</ele><time>2026-04-05T11:52:46.037Z</time></trkpt><trkpt lat="38.4729363" lon="-0.6415225"><ele>493.0</ele><time>2026-04-05T11:52:47.036Z</time></trkpt><trkpt lat="38.4727737" lon="-0.6413253"><ele>491.5</ele><time>2026-04-05T11:52:48.036Z</time></trkpt><trkpt lat="38.4725904" lon="-0.641136"><ele>490.0</ele><time>2026-04-05T11:52:49.036Z</time></trkpt><trkpt lat="38.4724227" lon="-0.6409557"><ele>487.6666666666667</ele><time>2026-04-05T11:52:50.037Z</time></trkpt><trkpt lat="38.4722647" lon="-0.6407861"><ele>485.33333333333337</ele><time>2026-04-05T11:52:51.037Z</time></trkpt><trkpt lat="38.4721248" lon="-0.6406365"><ele>483.0</ele><time>2026-04-05T11:52:52.036Z</time></trkpt><trkpt lat="38.472007" lon="-0.6405267"><ele>482.5</ele><time>2026-04-05T11:52:53.037Z</time></trkpt><trkpt lat="38.4718873" lon="-0.6404682"><ele>482.0</ele><time>2026-04-05T11:52:54.036Z</time></trkpt><trkpt lat="38.4717467" lon="-0.6404589"><ele>481.5</ele><time>2026-04-05T11:52:55.037Z</time></trkpt><trkpt lat="38.4716006" lon="-0.6405158"><ele>481.0</ele><time>2026-04-05T11:52:56.036Z</time></trkpt><trkpt lat="38.4714755" lon="-0.6406284"><ele>481.0</ele><time>2026-04-05T11:52:57.036Z</time></trkpt><trkpt lat="38.4713842" lon="-0.6408057"><ele>481.0</ele><time>2026-04-05T11:52:58.036Z</time></trkpt><trkpt lat="38.4713113" lon="-0.6410463"><ele>481.0</ele><time>2026-04-05T11:52:59.036Z</time></trkpt><trkpt lat="38.4712338" lon="-0.6413205"><ele>479.6666666666667</ele><time>2026-04-05T11:53:00.036Z</time></trkpt><trkpt lat="38.4711582" lon="-0.641574"><ele>478.33333333333337</ele><time>2026-04-05T11:53:01.036Z</time></trkpt><trkpt lat="38.4710865" lon="-0.6418181"><ele>477.0</ele><time>2026-04-05T11:53:02.036Z</time></trkpt><trkpt lat="38.4710219" lon="-0.6420403"><ele>477.0</ele><time>2026-04-05T11:53:03.037Z</time></trkpt><trkpt lat="38.4709645" lon="-0.6422245"><ele>477.0</ele><time>2026-04-05T11:53:04.037Z</time></trkpt><trkpt lat="38.470906" lon="-0.6423672"><ele>477.0</ele><time>2026-04-05T11:53:05.036Z</time></trkpt><trkpt lat="38.4708389" lon="-0.6424565"><ele>477.0</ele><time>2026-04-05T11:53:06.037Z</time></trkpt><trkpt lat="38.470743" lon="-0.6424673"><ele>477.0</ele><time>2026-04-05T11:53:07.037Z</time></trkpt><trkpt lat="38.4706432" lon="-0.6424362"><ele>477.0</ele><time>2026-04-05T11:53:08.036Z</time></trkpt><trkpt lat="38.4705232" lon="-0.6423587"><ele>477.0</ele><time>2026-04-05T11:53:09.036Z</time></trkpt><trkpt lat="38.470395" lon="-0.6422998"><ele>477.0</ele><time>2026-04-05T11:53:10.037Z</time></trkpt><trkpt lat="38.4701969" lon="-0.6422128"><ele>479.33333333333337</ele><time>2026-04-05T11:53:11.037Z</time></trkpt><trkpt lat="38.4700276" lon="-0.6421581"><ele>481.6666666666667</ele><time>2026-04-05T11:53:12.037Z</time></trkpt><trkpt lat="38.4698714" lon="-0.6421224"><ele>484.0</ele><time>2026-04-05T11:53:13.036Z</time></trkpt><trkpt lat="38.4697048" lon="-0.642116"><ele>480.33333333333337</ele><time>2026-04-05T11:53:14.037Z</time></trkpt><trkpt lat="38.4695325" lon="-0.6421384"><ele>476.66666666666663</ele><time>2026-04-05T11:53:15.036Z</time></trkpt><trkpt lat="38.4693574" lon="-0.6422063"><ele>473.0</ele><time>2026-04-05T11:53:16.037Z</time></trkpt><trkpt lat="38.4691161" lon="-0.6423372"><ele>473.0</ele><time>2026-04-05T11:53:17.036Z</time></trkpt><trkpt lat="38.4689104" lon="-0.6424402"><ele>473.0</ele><time>2026-04-05T11:53:18.037Z</time></trkpt><trkpt lat="38.4687091" lon="-0.6424928"><ele>473.0</ele><time>2026-04-05T11:53:19.036Z</time></trkpt><trkpt lat="38.4685143" lon="-0.6425226"><ele>467.0</ele><time>2026-04-05T11:53:20.036Z</time></trkpt><trkpt lat="38.4683132" lon="-0.6425194"><ele>461.0</ele><time>2026-04-05T11:53:21.036Z</time></trkpt><trkpt lat="38.4680151" lon="-0.6423552"><ele>461.0</ele><time>2026-04-05T11:53:22.036Z</time></trkpt><trkpt lat="38.4677501" lon="-0.6422492"><ele>461.0</ele><time>2026-04-05T11:53:23.036Z</time></trkpt><trkpt lat="38.4674836" lon="-0.6421489"><ele>461.0</ele><time>2026-04-05T11:53:24.037Z</time></trkpt><trkpt lat="38.4672319" lon="-0.6420433"><ele>461.0</ele><time>2026-04-05T11:53:25.037Z</time></trkpt><trkpt lat="38.4670149" lon="-0.6419565"><ele>458.3333333333333</ele><time>2026-04-05T11:53:26.036Z</time></trkpt><trkpt lat="38.4668316" lon="-0.6418827"><ele>455.66666666666663</ele><time>2026-04-05T11:53:27.036Z</time></trkpt><trkpt lat="38.4666718" lon="-0.6417797"><ele>453.0</ele><time>2026-04-05T11:53:28.036Z</time></trkpt><trkpt lat="38.4665269" lon="-0.6416181"><ele>453.0</ele><time>2026-04-05T11:53:29.037Z</time></trkpt><trkpt lat="38.4664023" lon="-0.6413962"><ele>453.0</ele><time>2026-04-05T11:53:30.037Z</time></trkpt><trkpt lat="38.4662824" lon="-0.6411216"><ele>451.5</ele><time>2026-04-05T11:53:31.036Z</time></trkpt><trkpt lat="38.4661592" lon="-0.6408293"><ele>450.0</ele><time>2026-04-05T11:53:32.037Z</time></trkpt><trkpt lat="38.4660546" lon="-0.6405769"><ele>450.0</ele><time>2026-04-05T11:53:33.037Z</time></trkpt><trkpt lat="38.4659652" lon="-0.6403555"><ele>450.0</ele><time>2026-04-05T11:53:34.036Z</time></trkpt><trkpt lat="38.4658716" lon="-0.6401727"><ele>450.0</ele><time>2026-04-05T11:53:35.036Z</time></trkpt><trkpt lat="38.4657628" lon="-0.6400349"><ele>450.0</ele><time>2026-04-05T11:53:36.036Z</time></trkpt><trkpt lat="38.4656318" lon="-0.6399288"><ele>450.0</ele><time>2026-04-05T11:53:37.037Z</time></trkpt><trkpt lat="38.4654669" lon="-0.6398495"><ele>450.0</ele><time>2026-04-05T11:53:38.036Z</time></trkpt><trkpt lat="38.4652643" lon="-0.6398062"><ele>450.0</ele><time>2026-04-05T11:53:39.037Z</time></trkpt><trkpt lat="38.4650841" lon="-0.6397142"><ele>450.0</ele><time>2026-04-05T11:53:40.036Z</time></trkpt><trkpt lat="38.4648883" lon="-0.6395176"><ele>450.0</ele><time>2026-04-05T11:53:41.036Z</time></trkpt><trkpt lat="38.46473" lon="-0.6393031"><ele>448.0</ele><time>2026-04-05T11:53:42.037Z</time></trkpt><trkpt lat="38.4645998" lon="-0.6390894"><ele>446.0</ele><time>2026-04-05T11:53:43.036Z</time></trkpt><trkpt lat="38.4645005" lon="-0.6388764"><ele>444.0</ele><time>2026-04-05T11:53:44.037Z</time></trkpt><trkpt lat="38.4643966" lon="-0.6386611"><ele>442.0</ele><time>2026-04-05T11:53:45.037Z</time></trkpt><trkpt lat="38.4642804" lon="-0.638505"><ele>440.0</ele><time>2026-04-05T11:53:46.036Z</time></trkpt><trkpt lat="38.4641" lon="-0.6383582"><ele>438.0</ele><time>2026-04-05T11:53:47.036Z</time></trkpt><trkpt lat="38.4638631" lon="-0.6381828"><ele>439.0</ele><time>2026-04-05T11:53:48.036Z</time></trkpt><trkpt lat="38.4636477" lon="-0.6379936"><ele>440.0</ele><time>2026-04-05T11:53:49.036Z</time></trkpt><trkpt lat="38.4634344" lon="-0.637769"><ele>436.5</ele><time>2026-04-05T11:53:50.037Z</time></trkpt><trkpt lat="38.4632101" lon="-0.6375353"><ele>433.0</ele><time>2026-04-05T11:53:51.037Z</time></trkpt><trkpt lat="38.46298" lon="-0.637294"><ele>432.0</ele><time>2026-04-05T11:53:52.036Z</time></trkpt><trkpt lat="38.4627634" lon="-0.6370669"><ele>431.0</ele><time>2026-04-05T11:53:53.036Z</time></trkpt><trkpt lat="38.4625557" lon="-0.6368534"><ele>428.0</ele><time>2026-04-05T11:53:54.037Z</time></trkpt><trkpt lat="38.4623617" lon="-0.6366495"><ele>425.0</ele><time>2026-04-05T11:53:55.036Z</time></trkpt><trkpt lat="38.4621691" lon="-0.6364615"><ele>422.5</ele><time>2026-04-05T11:53:56.036Z</time></trkpt><trkpt lat="38.4619616" lon="-0.6363107"><ele>420.0</ele><time>2026-04-05T11:53:57.036Z</time></trkpt><trkpt lat="38.4617249" lon="-0.6361832"><ele>418.5</ele><time>2026-04-05T11:53:58.036Z</time></trkpt><trkpt lat="38.4615033" lon="-0.6360601"><ele>417.0</ele><time>2026-04-05T11:53:59.036Z</time></trkpt><trkpt lat="38.4613056" lon="-0.6359456"><ele>416.66666666666663</ele><time>2026-04-05T11:54:00.037Z</time></trkpt><trkpt lat="38.4611383" lon="-0.635845"><ele>416.3333333333333</ele><time>2026-04-05T11:54:01.037Z</time></trkpt><trkpt lat="38.4609797" lon="-0.6357874"><ele>416.0</ele><time>2026-04-05T11:54:02.037Z</time></trkpt><trkpt lat="38.4608189" lon="-0.6357864"><ele>416.0</ele><time>2026-04-05T11:54:03.036Z</time></trkpt><trkpt lat="38.4606568" lon="-0.6358217"><ele>416.0</ele><time>2026-04-05T11:54:04.036Z</time></trkpt><trkpt lat="38.4604992" lon="-0.6359318"><ele>416.0</ele><time>2026-04-05T11:54:05.037Z</time></trkpt><trkpt lat="38.4603659" lon="-0.6360889"><ele>414.3333333333333</ele><time>2026-04-05T11:54:06.036Z</time></trkpt><trkpt lat="38.4602542" lon="-0.6362517"><ele>412.66666666666663</ele><time>2026-04-05T11:54:07.036Z</time></trkpt><trkpt lat="38.4601603" lon="-0.6364279"><ele>411.0</ele><time>2026-04-05T11:54:08.036Z</time></trkpt><trkpt lat="38.4600844" lon="-0.6366417"><ele>411.0</ele><time>2026-04-05T11:54:09.037Z</time></trkpt><trkpt lat="38.4600597" lon="-0.636962"><ele>411.0</ele><time>2026-04-05T11:54:10.036Z</time></trkpt><trkpt lat="38.46002" lon="-0.6372575"><ele>410.33333333333337</ele><time>2026-04-05T11:54:11.036Z</time></trkpt><trkpt lat="38.4599804" lon="-0.6375317"><ele>409.6666666666667</ele><time>2026-04-05T11:54:12.036Z</time></trkpt><trkpt lat="38.4599371" lon="-0.6377724"><ele>409.0</ele><time>2026-04-05T11:54:13.037Z</time></trkpt><trkpt lat="38.4598664" lon="-0.6379752"><ele>410.33333333333337</ele><time>2026-04-05T11:54:14.037Z</time></trkpt><trkpt lat="38.4597566" lon="-0.6381315"><ele>411.66666666666663</ele><time>2026-04-05T11:54:15.036Z</time></trkpt><trkpt lat="38.4596391" lon="-0.6382571"><ele>413.0</ele><time>2026-04-05T11:54:16.036Z</time></trkpt><trkpt lat="38.4594756" lon="-0.6383333"><ele>409.3333333333333</ele><time>2026-04-05T11:54:17.037Z</time></trkpt><trkpt lat="38.4593249" lon="-0.6384084"><ele>405.66666666666663</ele><time>2026-04-05T11:54:18.036Z</time></trkpt><trkpt lat="38.4591749" lon="-0.6384798"><ele>402.0</ele><time>2026-04-05T11:54:19.037Z</time></trkpt><trkpt lat="38.4590199" lon="-0.6385266"><ele>402.0</ele><time>2026-04-05T11:54:20.037Z</time></trkpt><trkpt lat="38.4588581" lon="-0.6385185"><ele>402.0</ele><time>2026-04-05T11:54:21.036Z</time></trkpt><trkpt lat="38.4587074" lon="-0.6384924"><ele>402.0</ele><time>2026-04-05T11:54:22.037Z</time></trkpt><trkpt lat="38.4584867" lon="-0.6383758"><ele>401.0</ele><time>2026-04-05T11:54:23.037Z</time></trkpt><trkpt lat="38.4582362" lon="-0.6383123"><ele>400.0</ele><time>2026-04-05T11:54:24.037Z</time></trkpt><trkpt lat="38.4580016" lon="-0.6382898"><ele>399.33333333333337</ele><time>2026-04-05T11:54:25.036Z</time></trkpt><trkpt lat="38.4577849" lon="-0.6382684"><ele>398.66666666666663</ele><time>2026-04-05T11:54:26.036Z</time></trkpt><trkpt lat="38.4575916" lon="-0.6382185"><ele>398.0</ele><time>2026-04-05T11:54:27.036Z</time></trkpt><trkpt lat="38.4574176" lon="-0.638136"><ele>398.0</ele><time>2026-04-05T11:54:28.036Z</time></trkpt><trkpt lat="38.457251" lon="-0.6379569"><ele>398.0</ele><time>2026-04-05T11:54:29.037Z</time></trkpt><trkpt lat="38.4570751" lon="-0.637758"><ele>397.0</ele><time>2026-04-05T11:54:30.036Z</time></trkpt><trkpt lat="38.4568919" lon="-0.6375266"><ele>396.0</ele><time>2026-04-05T11:54:31.036Z</time></trkpt><trkpt lat="38.4567129" lon="-0.6373129"><ele>396.0</ele><time>2026-04-05T11:54:32.037Z</time></trkpt><trkpt lat="38.4565485" lon="-0.6371039"><ele>396.0</ele><time>2026-04-05T11:54:33.036Z</time></trkpt><trkpt lat="38.4563932" lon="-0.6369068"><ele>397.33333333333337</ele><time>2026-04-05T11:54:34.036Z</time></trkpt><trkpt lat="38.4562412" lon="-0.6367104"><ele>398.6666666666667</ele><time>2026-04-05T11:54:35.037Z</time></trkpt><trkpt lat="38.4560957" lon="-0.6365386"><ele>400.0</ele><time>2026-04-05T11:54:36.036Z</time></trkpt><trkpt lat="38.455953" lon="-0.636376"><ele>400.0</ele><time>2026-04-05T11:54:37.037Z</time></trkpt><trkpt lat="38.4558088" lon="-0.6362332"><ele>400.0</ele><time>2026-04-05T11:54:38.037Z</time></trkpt><trkpt lat="38.4556589" lon="-0.6360964"><ele>400.0</ele><time>2026-04-05T11:54:39.036Z</time></trkpt><trkpt lat="38.4554994" lon="-0.6359825"><ele>395.0</ele><time>2026-04-05T11:54:40.036Z</time></trkpt><trkpt lat="38.4553229" lon="-0.6359395"><ele>390.0</ele><time>2026-04-05T11:54:41.036Z</time></trkpt><trkpt lat="38.4551499" lon="-0.6358968"><ele>385.0</ele><time>2026-04-05T11:54:42.036Z</time></trkpt><trkpt lat="38.4549664" lon="-0.6359263"><ele>385.0</ele><time>2026-04-05T11:54:43.036Z</time></trkpt><trkpt lat="38.4547699" lon="-0.6359708"><ele>385.0</ele><time>2026-04-05T11:54:44.037Z</time></trkpt><trkpt lat="38.4545121" lon="-0.6360861"><ele>389.5</ele><time>2026-04-05T11:54:45.036Z</time></trkpt><trkpt lat="38.4542964" lon="-0.6361746"><ele>394.0</ele><time>2026-04-05T11:54:46.037Z</time></trkpt><trkpt lat="38.4540781" lon="-0.6362577"><ele>394.0</ele><time>2026-04-05T11:54:47.036Z</time></trkpt><trkpt lat="38.4538579" lon="-0.6363385"><ele>394.0</ele><time>2026-04-05T11:54:48.037Z</time></trkpt><trkpt lat="38.453643" lon="-0.6364142"><ele>391.0</ele><time>2026-04-05T11:54:49.036Z</time></trkpt><trkpt lat="38.4534412" lon="-0.6364643"><ele>388.0</ele><time>2026-04-05T11:54:50.037Z</time></trkpt><trkpt lat="38.4532417" lon="-0.6364699"><ele>385.0</ele><time>2026-04-05T11:54:51.036Z</time></trkpt><trkpt lat="38.4530629" lon="-0.6364568"><ele>384.75</ele><time>2026-04-05T11:54:52.037Z</time></trkpt><trkpt lat="38.4529079" lon="-0.636449"><ele>384.5</ele><time>2026-04-05T11:54:53.037Z</time></trkpt><trkpt lat="38.4527673" lon="-0.6364519"><ele>384.25</ele><time>2026-04-05T11:54:54.037Z</time></trkpt><trkpt lat="38.4526397" lon="-0.6364708"><ele>384.0</ele><time>2026-04-05T11:54:55.036Z</time></trkpt><trkpt lat="38.4525157" lon="-0.6365065"><ele>384.0</ele><time>2026-04-05T11:54:56.036Z</time></trkpt><trkpt lat="38.4524018" lon="-0.636573"><ele>384.0</ele><time>2026-04-05T11:54:57.036Z</time></trkpt><trkpt lat="38.4522953" lon="-0.6366404"><ele>384.0</ele><time>2026-04-05T11:54:58.037Z</time></trkpt><trkpt lat="38.452184" lon="-0.6366935"><ele>384.0</ele><time>2026-04-05T11:54:59.037Z</time></trkpt><trkpt lat="38.4520514" lon="-0.6367117"><ele>387.0</ele><time>2026-04-05T11:55:00.037Z</time></trkpt><trkpt lat="38.4519152" lon="-0.6366664"><ele>390.0</ele><time>2026-04-05T11:55:01.036Z</time></trkpt><trkpt lat="38.4518021" lon="-0.6366004"><ele>393.0</ele><time>2026-04-05T11:55:02.036Z</time></trkpt><trkpt lat="38.4517057" lon="-0.6365225"><ele>396.0</ele><time>2026-04-05T11:55:03.036Z</time></trkpt><trkpt lat="38.4516211" lon="-0.6364163"><ele>396.0</ele><time>2026-04-05T11:55:04.036Z</time></trkpt><trkpt lat="38.4515494" lon="-0.6362915"><ele>396.0</ele><time>2026-04-05T11:55:05.036Z</time></trkpt><trkpt lat="38.4514864" lon="-0.6361478"><ele>396.0</ele><time>2026-04-05T11:55:06.037Z</time></trkpt><trkpt lat="38.4514134" lon="-0.6360005"><ele>396.0</ele><time>2026-04-05T11:55:07.036Z</time></trkpt><trkpt lat="38.4513109" lon="-0.6358947"><ele>392.25</ele><time>2026-04-05T11:55:08.036Z</time></trkpt><trkpt lat="38.4511951" lon="-0.6358385"><ele>388.5</ele><time>2026-04-05T11:55:09.036Z</time></trkpt><trkpt lat="38.4510639" lon="-0.6358185"><ele>384.75</ele><time>2026-04-05T11:55:10.037Z</time></trkpt><trkpt lat="38.4509174" lon="-0.6358056"><ele>381.0</ele><time>2026-04-05T11:55:11.036Z</time></trkpt><trkpt lat="38.4507778" lon="-0.6357629"><ele>381.0</ele><time>2026-04-05T11:55:12.036Z</time></trkpt><trkpt lat="38.4506367" lon="-0.635745"><ele>381.0</ele><time>2026-04-05T11:55:13.037Z</time></trkpt><trkpt lat="38.4505042" lon="-0.6357198"><ele>381.0</ele><time>2026-04-05T11:55:14.036Z</time></trkpt><trkpt lat="38.4503872" lon="-0.6357081"><ele>381.0</ele><time>2026-04-05T11:55:15.036Z</time></trkpt><trkpt lat="38.450255" lon="-0.6356912"><ele>379.6666666666667</ele><time>2026-04-05T11:55:16.036Z</time></trkpt><trkpt lat="38.4501" lon="-0.6356887"><ele>378.33333333333337</ele><time>2026-04-05T11:55:17.036Z</time></trkpt><trkpt lat="38.4499259" lon="-0.6357111"><ele>377.0</ele><time>2026-04-05T11:55:18.037Z</time></trkpt><trkpt lat="38.4497041" lon="-0.6357498"><ele>372.0</ele><time>2026-04-05T11:55:19.037Z</time></trkpt><trkpt lat="38.4494452" lon="-0.6357952"><ele>367.0</ele><time>2026-04-05T11:55:20.036Z</time></trkpt><trkpt lat="38.4491573" lon="-0.6358455"><ele>367.0</ele><time>2026-04-05T11:55:21.036Z</time></trkpt><trkpt lat="38.4488805" lon="-0.6359008"><ele>367.0</ele><time>2026-04-05T11:55:22.036Z</time></trkpt><trkpt lat="38.4486347" lon="-0.6359502"><ele>362.5</ele><time>2026-04-05T11:55:23.037Z</time></trkpt><trkpt lat="38.4483988" lon="-0.6360047"><ele>358.0</ele><time>2026-04-05T11:55:24.036Z</time></trkpt><trkpt lat="38.4481915" lon="-0.6360881"><ele>359.66666666666663</ele><time>2026-04-05T11:55:25.037Z</time></trkpt><trkpt lat="38.4480089" lon="-0.6361727"><ele>361.3333333333333</ele><time>2026-04-05T11:55:26.036Z</time></trkpt><trkpt lat="38.447828" lon="-0.6362251"><ele>363.0</ele><time>2026-04-05T11:55:27.037Z</time></trkpt><trkpt lat="38.4476405" lon="-0.636221"><ele>363.0</ele><time>2026-04-05T11:55:28.036Z</time></trkpt><trkpt lat="38.4474379" lon="-0.636168"><ele>363.0</ele><time>2026-04-05T11:55:29.037Z</time></trkpt><trkpt lat="38.4472461" lon="-0.6361184"><ele>363.0</ele><time>2026-04-05T11:55:30.036Z</time></trkpt><trkpt lat="38.4470614" lon="-0.6360989"><ele>361.0</ele><time>2026-04-05T11:55:31.036Z</time></trkpt><trkpt lat="38.4468771" lon="-0.6361289"><ele>359.0</ele><time>2026-04-05T11:55:32.036Z</time></trkpt><trkpt lat="38.4466827" lon="-0.6362217"><ele>357.0</ele><time>2026-04-05T11:55:33.037Z</time></trkpt><trkpt lat="38.4464719" lon="-0.6363456"><ele>355.0</ele><time>2026-04-05T11:55:34.037Z</time></trkpt><trkpt lat="38.4462638" lon="-0.6364699"><ele>353.0</ele><time>2026-04-05T11:55:35.037Z</time></trkpt><trkpt lat="38.446066" lon="-0.6365836"><ele>351.0</ele><time>2026-04-05T11:55:36.036Z</time></trkpt><trkpt lat="38.4458698" lon="-0.6366953"><ele>351.0</ele><time>2026-04-05T11:55:37.037Z</time></trkpt><trkpt lat="38.4456708" lon="-0.6368118"><ele>351.0</ele><time>2026-04-05T11:55:38.037Z</time></trkpt><trkpt lat="38.4454663" lon="-0.6369348"><ele>351.0</ele><time>2026-04-05T11:55:39.036Z</time></trkpt><trkpt lat="38.4452525" lon="-0.637058"><ele>350.6666666666667</ele><time>2026-04-05T11:55:40.037Z</time></trkpt><trkpt lat="38.4450503" lon="-0.637174"><ele>350.33333333333337</ele><time>2026-04-05T11:55:41.036Z</time></trkpt><trkpt lat="38.4448621" lon="-0.6372828"><ele>350.0</ele><time>2026-04-05T11:55:42.037Z</time></trkpt><trkpt lat="38.4446843" lon="-0.6373852"><ele>348.6666666666667</ele><time>2026-04-05T11:55:43.036Z</time></trkpt><trkpt lat="38.4445161" lon="-0.6374839"><ele>347.3333333333333</ele><time>2026-04-05T11:55:44.036Z</time></trkpt><trkpt lat="38.4443535" lon="-0.637581"><ele>346.0</ele><time>2026-04-05T11:55:45.037Z</time></trkpt><trkpt lat="38.4442014" lon="-0.6376721"><ele>346.0</ele><time>2026-04-05T11:55:46.036Z</time></trkpt><trkpt lat="38.4440571" lon="-0.637753"><ele>346.0</ele><time>2026-04-05T11:55:47.037Z</time></trkpt><trkpt lat="38.4439135" lon="-0.637827"><ele>346.0</ele><time>2026-04-05T11:55:48.037Z</time></trkpt><trkpt lat="38.4437854" lon="-0.6378975"><ele>344.8</ele><time>2026-04-05T11:55:49.036Z</time></trkpt><trkpt lat="38.4436665" lon="-0.6379635"><ele>343.6</ele><time>2026-04-05T11:55:50.036Z</time></trkpt><trkpt lat="38.4435558" lon="-0.638028"><ele>342.4</ele><time>2026-04-05T11:55:51.036Z</time></trkpt><trkpt lat="38.4434738" lon="-0.6380785"><ele>341.2</ele><time>2026-04-05T11:55:52.036Z</time></trkpt><trkpt lat="38.443411" lon="-0.6381219"><ele>340.0</ele><time>2026-04-05T11:55:53.037Z</time></trkpt><trkpt lat="38.4433533" lon="-0.6381567"><ele>340.0</ele><time>2026-04-05T11:55:54.036Z</time></trkpt><trkpt lat="38.4432574" lon="-0.6382103"><ele>340.0</ele><time>2026-04-05T11:55:56.037Z</time></trkpt><trkpt lat="38.44316" lon="-0.6382607"><ele>340.0</ele><time>2026-04-05T11:55:58.036Z</time></trkpt><trkpt lat="38.4430617" lon="-0.6383332"><ele>340.0</ele><time>2026-04-05T11:56:00.036Z</time></trkpt><trkpt lat="38.4430023" lon="-0.6383744"><ele>340.0</ele><time>2026-04-05T11:56:01.037Z</time></trkpt><trkpt lat="38.4429401" lon="-0.6384107"><ele>339.2857142857143</ele><time>2026-04-05T11:56:02.036Z</time></trkpt><trkpt lat="38.4428816" lon="-0.6384404"><ele>338.57142857142856</ele><time>2026-04-05T11:56:03.036Z</time></trkpt><trkpt lat="38.4427948" lon="-0.6384987"><ele>337.85714285714283</ele><time>2026-04-05T11:56:05.037Z</time></trkpt><trkpt lat="38.4427356" lon="-0.6385435"><ele>337.1428571428571</ele><time>2026-04-05T11:56:07.037Z</time></trkpt><trkpt lat="38.4426652" lon="-0.6384974"><ele>336.42857142857144</ele><time>2026-04-05T11:56:38.037Z</time></trkpt><trkpt lat="38.4425935" lon="-0.6385053"><ele>335.71428571428567</ele><time>2026-04-05T11:56:40.037Z</time></trkpt><trkpt lat="38.4425298" lon="-0.6385313"><ele>335.0</ele><time>2026-04-05T11:56:44.036Z</time></trkpt><trkpt lat="38.4424538" lon="-0.638558"><ele>334.5</ele><time>2026-04-05T11:58:57.036Z</time></trkpt><trkpt lat="38.44237" lon="-0.6386693"><ele>334.0</ele><time>2026-04-05T11:58:59.037Z</time></trkpt><trkpt lat="38.4422867" lon="-0.6387413"><ele>333.5</ele><time>2026-04-05T11:59:01.036Z</time></trkpt><trkpt lat="38.4421969" lon="-0.6388185"><ele>333.0</ele><time>2026-04-05T11:59:03.036Z</time></trkpt><trkpt lat="38.4420931" lon="-0.6388963"><ele>333.0</ele><time>2026-04-05T11:59:05.037Z</time></trkpt><trkpt lat="38.4420343" lon="-0.6389411"><ele>333.0</ele><time>2026-04-05T11:59:06.037Z</time></trkpt><trkpt lat="38.4419692" lon="-0.6389854"><ele>333.0</ele><time>2026-04-05T11:59:07.037Z</time></trkpt><trkpt lat="38.4419072" lon="-0.6390316"><ele>333.0</ele><time>2026-04-05T11:59:08.037Z</time></trkpt><trkpt lat="38.4418485" lon="-0.6390779"><ele>333.0</ele><time>2026-04-05T11:59:09.036Z</time></trkpt><trkpt lat="38.4417882" lon="-0.6391254"><ele>333.0</ele><time>2026-04-05T11:59:10.036Z</time></trkpt><trkpt lat="38.4417279" lon="-0.63917"><ele>333.0</ele><time>2026-04-05T11:59:11.037Z</time></trkpt><trkpt lat="38.441668" lon="-0.639212"><ele>333.0</ele><time>2026-04-05T11:59:12.036Z</time></trkpt><trkpt lat="38.4416115" lon="-0.6392552"><ele>333.0</ele><time>2026-04-05T11:59:13.037Z</time></trkpt><trkpt lat="38.4415514" lon="-0.6393048"><ele>333.0</ele><time>2026-04-05T11:59:14.036Z</time></trkpt><trkpt lat="38.4414896" lon="-0.6393548"><ele>333.0</ele><time>2026-04-05T11:59:15.036Z</time></trkpt><trkpt lat="38.4414306" lon="-0.6394"><ele>333.0</ele><time>2026-04-05T11:59:16.037Z</time></trkpt><trkpt lat="38.4413745" lon="-0.6394417"><ele>333.0</ele><time>2026-04-05T11:59:17.036Z</time></trkpt><trkpt lat="38.4412747" lon="-0.6394971"><ele>331.8333333333333</ele><time>2026-04-05T11:59:19.036Z</time></trkpt><trkpt lat="38.4411703" lon="-0.6395213"><ele>330.6666666666667</ele><time>2026-04-05T11:59:21.036Z</time></trkpt><trkpt lat="38.4410569" lon="-0.6395379"><ele>329.5</ele><time>2026-04-05T11:59:23.037Z</time></trkpt><trkpt lat="38.4409888" lon="-0.639566"><ele>328.33333333333337</ele><time>2026-04-05T11:59:24.036Z</time></trkpt><trkpt lat="38.440921" lon="-0.6395907"><ele>327.1666666666667</ele><time>2026-04-05T11:59:25.036Z</time></trkpt><trkpt lat="38.4408495" lon="-0.6396102"><ele>326.0</ele><time>2026-04-05T11:59:26.037Z</time></trkpt><trkpt lat="38.4407767" lon="-0.639627"><ele>326.0</ele><time>2026-04-05T11:59:27.036Z</time></trkpt><trkpt lat="38.440701" lon="-0.6396489"><ele>326.0</ele><time>2026-04-05T11:59:28.037Z</time></trkpt><trkpt lat="38.4406323" lon="-0.6396738"><ele>326.0</ele><time>2026-04-05T11:59:29.036Z</time></trkpt><trkpt lat="38.4405622" lon="-0.6396996"><ele>326.0</ele><time>2026-04-05T11:59:30.036Z</time></trkpt><trkpt lat="38.4404936" lon="-0.6397227"><ele>326.0</ele><time>2026-04-05T11:59:31.036Z</time></trkpt><trkpt lat="38.440428" lon="-0.6397396"><ele>326.0</ele><time>2026-04-05T11:59:32.037Z</time></trkpt><trkpt lat="38.4403129" lon="-0.6397719"><ele>325.8571428571429</ele><time>2026-04-05T11:59:34.036Z</time></trkpt><trkpt lat="38.4402108" lon="-0.639794"><ele>325.71428571428567</ele><time>2026-04-05T11:59:36.037Z</time></trkpt><trkpt lat="38.4401471" lon="-0.6398056"><ele>325.57142857142856</ele><time>2026-04-05T11:59:37.037Z</time></trkpt><trkpt lat="38.440081" lon="-0.6398183"><ele>325.42857142857144</ele><time>2026-04-05T11:59:38.036Z</time></trkpt><trkpt lat="38.4400128" lon="-0.6398308"><ele>325.28571428571433</ele><time>2026-04-05T11:59:39.037Z</time></trkpt><trkpt lat="38.4399462" lon="-0.6398383"><ele>325.1428571428571</ele><time>2026-04-05T11:59:40.036Z</time></trkpt><trkpt lat="38.4398807" lon="-0.6398451"><ele>325.0</ele><time>2026-04-05T11:59:41.036Z</time></trkpt><trkpt lat="38.4397997" lon="-0.6398474"><ele>325.0</ele><time>2026-04-05T11:59:42.037Z</time></trkpt><trkpt lat="38.4397159" lon="-0.6398468"><ele>325.0</ele><time>2026-04-05T11:59:43.036Z</time></trkpt><trkpt lat="38.4396233" lon="-0.6398461"><ele>325.0</ele><time>2026-04-05T11:59:44.037Z</time></trkpt><trkpt lat="38.4395257" lon="-0.639835"><ele>325.0</ele><time>2026-04-05T11:59:45.036Z</time></trkpt><trkpt lat="38.4394345" lon="-0.6398184"><ele>325.0</ele><time>2026-04-05T11:59:46.036Z</time></trkpt><trkpt lat="38.4393268" lon="-0.6398022"><ele>324.0</ele><time>2026-04-05T11:59:47.036Z</time></trkpt><trkpt lat="38.439222" lon="-0.6398031"><ele>323.0</ele><time>2026-04-05T11:59:48.037Z</time></trkpt><trkpt lat="38.4391298" lon="-0.6397947"><ele>322.0</ele><time>2026-04-05T11:59:49.037Z</time></trkpt><trkpt lat="38.4390504" lon="-0.6397981"><ele>321.0</ele><time>2026-04-05T11:59:50.036Z</time></trkpt><trkpt lat="38.4389723" lon="-0.6397865"><ele>320.0</ele><time>2026-04-05T11:59:51.037Z</time></trkpt><trkpt lat="38.4388941" lon="-0.6397668"><ele>319.0</ele><time>2026-04-05T11:59:52.036Z</time></trkpt><trkpt lat="38.4388034" lon="-0.6397533"><ele>318.8571428571429</ele><time>2026-04-05T11:59:53.037Z</time></trkpt><trkpt lat="38.4387319" lon="-0.6397371"><ele>318.71428571428567</ele><time>2026-04-05T11:59:54.037Z</time></trkpt><trkpt lat="38.4386534" lon="-0.6397324"><ele>318.57142857142856</ele><time>2026-04-05T11:59:55.036Z</time></trkpt><trkpt lat="38.4385736" lon="-0.6397358"><ele>318.42857142857144</ele><time>2026-04-05T11:59:56.036Z</time></trkpt><trkpt lat="38.4385003" lon="-0.6397292"><ele>318.28571428571433</ele><time>2026-04-05T11:59:57.036Z</time></trkpt><trkpt lat="38.438435" lon="-0.6397232"><ele>318.1428571428571</ele><time>2026-04-05T11:59:58.037Z</time></trkpt><trkpt lat="38.4383711" lon="-0.6397232"><ele>318.0</ele><time>2026-04-05T11:59:59.036Z</time></trkpt><trkpt lat="38.438256" lon="-0.639738"><ele>318.0</ele><time>2026-04-05T12:00:01.036Z</time></trkpt><trkpt lat="38.4381929" lon="-0.6397312"><ele>318.0</ele><time>2026-04-05T12:00:02.036Z</time></trkpt><trkpt lat="38.4380741" lon="-0.6397656"><ele>318.0</ele><time>2026-04-05T12:00:04.036Z</time></trkpt><trkpt lat="38.4379975" lon="-0.6397981"><ele>318.0</ele><time>2026-04-05T12:00:05.037Z</time></trkpt><trkpt lat="38.4378879" lon="-0.6398614"><ele>318.0</ele><time>2026-04-05T12:00:06.037Z</time></trkpt><trkpt lat="38.4377497" lon="-0.6399236"><ele>316.8</ele><time>2026-04-05T12:00:07.036Z</time></trkpt><trkpt lat="38.4375854" lon="-0.6399312"><ele>315.6</ele><time>2026-04-05T12:00:08.036Z</time></trkpt><trkpt lat="38.4374627" lon="-0.6399426"><ele>314.4</ele><time>2026-04-05T12:00:09.037Z</time></trkpt><trkpt lat="38.4373854" lon="-0.6399495"><ele>313.2</ele><time>2026-04-05T12:00:10.037Z</time></trkpt><trkpt lat="38.4373228" lon="-0.6399593"><ele>312.0</ele><time>2026-04-05T12:00:11.037Z</time></trkpt><trkpt lat="38.4372537" lon="-0.6399767"><ele>312.0</ele><time>2026-04-05T12:00:12.036Z</time></trkpt><trkpt lat="38.4371854" lon="-0.6400128"><ele>312.0</ele><time>2026-04-05T12:00:13.037Z</time></trkpt><trkpt lat="38.4371166" lon="-0.6401414"><ele>312.0</ele><time>2026-04-05T12:00:14.036Z</time></trkpt><trkpt lat="38.4370519" lon="-0.6402688"><ele>312.0</ele><time>2026-04-05T12:00:15.036Z</time></trkpt><trkpt lat="38.4369955" lon="-0.6404106"><ele>312.0</ele><time>2026-04-05T12:00:16.037Z</time></trkpt><trkpt lat="38.4369469" lon="-0.6405428"><ele>310.0</ele><time>2026-04-05T12:00:17.037Z</time></trkpt><trkpt lat="38.4368858" lon="-0.6406764"><ele>308.0</ele><time>2026-04-05T12:00:18.037Z</time></trkpt><trkpt lat="38.4368269" lon="-0.6408363"><ele>306.0</ele><time>2026-04-05T12:00:19.036Z</time></trkpt><trkpt lat="38.4367528" lon="-0.6409822"><ele>304.0</ele><time>2026-04-05T12:00:20.037Z</time></trkpt><trkpt lat="38.4366767" lon="-0.6410997"><ele>303.5</ele><time>2026-04-05T12:00:21.036Z</time></trkpt><trkpt lat="38.4365955" lon="-0.641203"><ele>303.0</ele><time>2026-04-05T12:00:22.037Z</time></trkpt><trkpt lat="38.4365173" lon="-0.6413141"><ele>302.5</ele><time>2026-04-05T12:00:23.036Z</time></trkpt><trkpt lat="38.4364349" lon="-0.6414394"><ele>302.0</ele><time>2026-04-05T12:00:24.037Z</time></trkpt><trkpt lat="38.4363541" lon="-0.6415822"><ele>301.6666666666667</ele><time>2026-04-05T12:00:25.036Z</time></trkpt><trkpt lat="38.4362738" lon="-0.6417286"><ele>301.3333333333333</ele><time>2026-04-05T12:00:26.036Z</time></trkpt><trkpt lat="38.4361707" lon="-0.6419033"><ele>301.0</ele><time>2026-04-05T12:00:27.036Z</time></trkpt><trkpt lat="38.4360407" lon="-0.6421104"><ele>302.0</ele><time>2026-04-05T12:00:28.036Z</time></trkpt><trkpt lat="38.4359061" lon="-0.642338"><ele>303.0</ele><time>2026-04-05T12:00:29.037Z</time></trkpt><trkpt lat="38.4357474" lon="-0.6425968"><ele>303.5</ele><time>2026-04-05T12:00:30.036Z</time></trkpt><trkpt lat="38.435583" lon="-0.6428653"><ele>304.0</ele><time>2026-04-05T12:00:31.037Z</time></trkpt><trkpt lat="38.4354058" lon="-0.6431422"><ele>304.5</ele><time>2026-04-05T12:00:32.036Z</time></trkpt><trkpt lat="38.4352174" lon="-0.6434176"><ele>305.0</ele><time>2026-04-05T12:00:33.037Z</time></trkpt><trkpt lat="38.4350324" lon="-0.6436797"><ele>303.5</ele><time>2026-04-05T12:00:34.036Z</time></trkpt><trkpt lat="38.4348551" lon="-0.6439263"><ele>302.0</ele><time>2026-04-05T12:00:35.036Z</time></trkpt><trkpt lat="38.4346731" lon="-0.6441704"><ele>302.5</ele><time>2026-04-05T12:00:36.037Z</time></trkpt><trkpt lat="38.4344877" lon="-0.6444193"><ele>303.0</ele><time>2026-04-05T12:00:37.037Z</time></trkpt><trkpt lat="38.4342958" lon="-0.6446988"><ele>304.0</ele><time>2026-04-05T12:00:38.036Z</time></trkpt><trkpt lat="38.4341163" lon="-0.6450112"><ele>305.0</ele><time>2026-04-05T12:00:39.036Z</time></trkpt><trkpt lat="38.4339516" lon="-0.6453169"><ele>305.5</ele><time>2026-04-05T12:00:40.036Z</time></trkpt><trkpt lat="38.4337957" lon="-0.6456024"><ele>306.0</ele><time>2026-04-05T12:00:41.036Z</time></trkpt><trkpt lat="38.4336537" lon="-0.6458671"><ele>306.0</ele><time>2026-04-05T12:00:42.037Z</time></trkpt><trkpt lat="38.4335351" lon="-0.6461339"><ele>306.0</ele><time>2026-04-05T12:00:43.036Z</time></trkpt><trkpt lat="38.43345" lon="-0.6464187"><ele>306.0</ele><time>2026-04-05T12:00:44.037Z</time></trkpt><trkpt lat="38.4334012" lon="-0.6467237"><ele>306.0</ele><time>2026-04-05T12:00:45.036Z</time></trkpt><trkpt lat="38.4333788" lon="-0.6470411"><ele>308.5</ele><time>2026-04-05T12:00:46.036Z</time></trkpt><trkpt lat="38.4333504" lon="-0.6473464"><ele>311.0</ele><time>2026-04-05T12:00:47.036Z</time></trkpt><trkpt lat="38.4332925" lon="-0.6476466"><ele>312.5</ele><time>2026-04-05T12:00:48.036Z</time></trkpt><trkpt lat="38.4332004" lon="-0.6479582"><ele>314.0</ele><time>2026-04-05T12:00:49.036Z</time></trkpt><trkpt lat="38.4330997" lon="-0.6482967"><ele>314.0</ele><time>2026-04-05T12:00:50.036Z</time></trkpt><trkpt lat="38.4330019" lon="-0.6486647"><ele>314.0</ele><time>2026-04-05T12:00:51.036Z</time></trkpt><trkpt lat="38.4328982" lon="-0.6490043"><ele>314.0</ele><time>2026-04-05T12:00:52.037Z</time></trkpt><trkpt lat="38.4328003" lon="-0.6493181"><ele>314.0</ele><time>2026-04-05T12:00:53.037Z</time></trkpt><trkpt lat="38.4327115" lon="-0.649599"><ele>314.0</ele><time>2026-04-05T12:00:54.036Z</time></trkpt><trkpt lat="38.4326351" lon="-0.6498576"><ele>314.0</ele><time>2026-04-05T12:00:55.036Z</time></trkpt><trkpt lat="38.4325658" lon="-0.6500884"><ele>314.0</ele><time>2026-04-05T12:00:56.036Z</time></trkpt><trkpt lat="38.4325026" lon="-0.6503049"><ele>313.33333333333337</ele><time>2026-04-05T12:00:57.037Z</time></trkpt><trkpt lat="38.432442" lon="-0.6505098"><ele>312.6666666666667</ele><time>2026-04-05T12:00:58.036Z</time></trkpt><trkpt lat="38.4323906" lon="-0.6506996"><ele>312.0</ele><time>2026-04-05T12:00:59.036Z</time></trkpt><trkpt lat="38.4323408" lon="-0.6508764"><ele>312.0</ele><time>2026-04-05T12:01:00.037Z</time></trkpt><trkpt lat="38.432299" lon="-0.651049"><ele>312.0</ele><time>2026-04-05T12:01:01.036Z</time></trkpt><trkpt lat="38.4322579" lon="-0.651213"><ele>312.0</ele><time>2026-04-05T12:01:02.037Z</time></trkpt><trkpt lat="38.4322232" lon="-0.6513718"><ele>312.0</ele><time>2026-04-05T12:01:03.036Z</time></trkpt><trkpt lat="38.4321848" lon="-0.6515318"><ele>311.75</ele><time>2026-04-05T12:01:04.037Z</time></trkpt><trkpt lat="38.4321423" lon="-0.6516976"><ele>311.5</ele><time>2026-04-05T12:01:05.036Z</time></trkpt><trkpt lat="38.4321042" lon="-0.6518573"><ele>311.25</ele><time>2026-04-05T12:01:06.036Z</time></trkpt><trkpt lat="38.4320677" lon="-0.6520018"><ele>311.0</ele><time>2026-04-05T12:01:07.037Z</time></trkpt><trkpt lat="38.4320391" lon="-0.6521384"><ele>311.0</ele><time>2026-04-05T12:01:08.036Z</time></trkpt><trkpt lat="38.4320119" lon="-0.652266"><ele>311.0</ele><time>2026-04-05T12:01:09.036Z</time></trkpt><trkpt lat="38.4319795" lon="-0.6523893"><ele>311.0</ele><time>2026-04-05T12:01:10.036Z</time></trkpt><trkpt lat="38.4319528" lon="-0.6525046"><ele>311.0</ele><time>2026-04-05T12:01:11.037Z</time></trkpt><trkpt lat="38.4319246" lon="-0.6526167"><ele>311.0</ele><time>2026-04-05T12:01:12.036Z</time></trkpt><trkpt lat="38.431899" lon="-0.6527159"><ele>311.0</ele><time>2026-04-05T12:01:13.036Z</time></trkpt><trkpt lat="38.4318683" lon="-0.6528011"><ele>311.0</ele><time>2026-04-05T12:01:14.036Z</time></trkpt><trkpt lat="38.4318429" lon="-0.6528834"><ele>311.0</ele><time>2026-04-05T12:01:15.036Z</time></trkpt><trkpt lat="38.4318107" lon="-0.6529767"><ele>311.0</ele><time>2026-04-05T12:01:16.036Z</time></trkpt><trkpt lat="38.4317714" lon="-0.6530874"><ele>311.0</ele><time>2026-04-05T12:01:17.037Z</time></trkpt><trkpt lat="38.4317238" lon="-0.6532052"><ele>311.0</ele><time>2026-04-05T12:01:18.036Z</time></trkpt><trkpt lat="38.4316745" lon="-0.6533313"><ele>311.0</ele><time>2026-04-05T12:01:19.036Z</time></trkpt><trkpt lat="38.4316191" lon="-0.6534757"><ele>311.0</ele><time>2026-04-05T12:01:20.037Z</time></trkpt><trkpt lat="38.4315586" lon="-0.6536337"><ele>311.0</ele><time>2026-04-05T12:01:21.036Z</time></trkpt><trkpt lat="38.4314946" lon="-0.6537925"><ele>311.0</ele><time>2026-04-05T12:01:22.036Z</time></trkpt><trkpt lat="38.4314293" lon="-0.6539583"><ele>310.75</ele><time>2026-04-05T12:01:23.037Z</time></trkpt><trkpt lat="38.4313626" lon="-0.6541279"><ele>310.5</ele><time>2026-04-05T12:01:24.036Z</time></trkpt><trkpt lat="38.4312961" lon="-0.6542909"><ele>310.25</ele><time>2026-04-05T12:01:25.036Z</time></trkpt><trkpt lat="38.4312375" lon="-0.654448"><ele>310.0</ele><time>2026-04-05T12:01:26.036Z</time></trkpt><trkpt lat="38.4311776" lon="-0.6546048"><ele>310.5</ele><time>2026-04-05T12:01:27.036Z</time></trkpt><trkpt lat="38.431128" lon="-0.6547632"><ele>311.0</ele><time>2026-04-05T12:01:28.037Z</time></trkpt><trkpt lat="38.4310854" lon="-0.6549332"><ele>311.5</ele><time>2026-04-05T12:01:29.036Z</time></trkpt><trkpt lat="38.4310524" lon="-0.655099"><ele>312.0</ele><time>2026-04-05T12:01:30.037Z</time></trkpt><trkpt lat="38.4310274" lon="-0.6552609"><ele>312.0</ele><time>2026-04-05T12:01:31.037Z</time></trkpt><trkpt lat="38.4310071" lon="-0.6554157"><ele>312.0</ele><time>2026-04-05T12:01:32.036Z</time></trkpt><trkpt lat="38.4309888" lon="-0.6555573"><ele>312.0</ele><time>2026-04-05T12:01:33.037Z</time></trkpt><trkpt lat="38.4309683" lon="-0.6557037"><ele>312.0</ele><time>2026-04-05T12:01:34.037Z</time></trkpt><trkpt lat="38.4309442" lon="-0.6558678"><ele>312.0</ele><time>2026-04-05T12:01:35.036Z</time></trkpt><trkpt lat="38.4309162" lon="-0.6560574"><ele>312.0</ele><time>2026-04-05T12:01:36.036Z</time></trkpt><trkpt lat="38.4308858" lon="-0.6562688"><ele>312.0</ele><time>2026-04-05T12:01:37.036Z</time></trkpt><trkpt lat="38.4308526" lon="-0.6564989"><ele>311.6666666666667</ele><time>2026-04-05T12:01:38.037Z</time></trkpt><trkpt lat="38.4308213" lon="-0.6567316"><ele>311.33333333333337</ele><time>2026-04-05T12:01:39.037Z</time></trkpt><trkpt lat="38.4307927" lon="-0.6569557"><ele>311.0</ele><time>2026-04-05T12:01:40.036Z</time></trkpt><trkpt lat="38.4307669" lon="-0.6571776"><ele>311.0</ele><time>2026-04-05T12:01:41.037Z</time></trkpt><trkpt lat="38.4307383" lon="-0.6573982"><ele>311.0</ele><time>2026-04-05T12:01:42.036Z</time></trkpt><trkpt lat="38.4307083" lon="-0.6576146"><ele>311.0</ele><time>2026-04-05T12:01:43.036Z</time></trkpt><trkpt lat="38.4306762" lon="-0.6578265"><ele>311.0</ele><time>2026-04-05T12:01:44.036Z</time></trkpt><trkpt lat="38.4306431" lon="-0.6580402"><ele>311.0</ele><time>2026-04-05T12:01:45.037Z</time></trkpt><trkpt lat="38.430611" lon="-0.6582466"><ele>311.0</ele><time>2026-04-05T12:01:46.036Z</time></trkpt><trkpt lat="38.430572" lon="-0.6584526"><ele>311.0</ele><time>2026-04-05T12:01:47.037Z</time></trkpt><trkpt lat="38.43053" lon="-0.658656"><ele>311.0</ele><time>2026-04-05T12:01:48.036Z</time></trkpt><trkpt lat="38.4304827" lon="-0.6588557"><ele>311.0</ele><time>2026-04-05T12:01:49.036Z</time></trkpt><trkpt lat="38.4304363" lon="-0.6590602"><ele>311.0</ele><time>2026-04-05T12:01:50.037Z</time></trkpt><trkpt lat="38.4303891" lon="-0.659258"><ele>311.0</ele><time>2026-04-05T12:01:51.036Z</time></trkpt><trkpt lat="38.4303374" lon="-0.6594512"><ele>311.0</ele><time>2026-04-05T12:01:52.036Z</time></trkpt><trkpt lat="38.4302883" lon="-0.6596473"><ele>310.6666666666667</ele><time>2026-04-05T12:01:53.037Z</time></trkpt><trkpt lat="38.4302395" lon="-0.6598402"><ele>310.3333333333333</ele><time>2026-04-05T12:01:54.036Z</time></trkpt><trkpt lat="38.4301936" lon="-0.6600236"><ele>310.0</ele><time>2026-04-05T12:01:55.037Z</time></trkpt><trkpt lat="38.4301481" lon="-0.6601964"><ele>310.6</ele><time>2026-04-05T12:01:56.036Z</time></trkpt><trkpt lat="38.4301058" lon="-0.6603516"><ele>311.2</ele><time>2026-04-05T12:01:57.036Z</time></trkpt><trkpt lat="38.4300642" lon="-0.6604935"><ele>311.8</ele><time>2026-04-05T12:01:58.037Z</time></trkpt><trkpt lat="38.4300279" lon="-0.6606181"><ele>312.4</ele><time>2026-04-05T12:01:59.036Z</time></trkpt><trkpt lat="38.4300022" lon="-0.6607193"><ele>313.0</ele><time>2026-04-05T12:02:00.037Z</time></trkpt><trkpt lat="38.4299813" lon="-0.660817"><ele>313.0</ele><time>2026-04-05T12:02:01.037Z</time></trkpt><trkpt lat="38.4299747" lon="-0.6609091"><ele>313.0</ele><time>2026-04-05T12:02:02.036Z</time></trkpt><trkpt lat="38.429983" lon="-0.6610046"><ele>313.0</ele><time>2026-04-05T12:02:03.037Z</time></trkpt><trkpt lat="38.430006" lon="-0.6611063"><ele>313.0</ele><time>2026-04-05T12:02:04.037Z</time></trkpt><trkpt lat="38.4300082" lon="-0.6612166"><ele>313.0</ele><time>2026-04-05T12:02:05.036Z</time></trkpt><trkpt lat="38.4299788" lon="-0.6613238"><ele>313.0</ele><time>2026-04-05T12:02:06.037Z</time></trkpt><trkpt lat="38.4299225" lon="-0.6614156"><ele>312.75</ele><time>2026-04-05T12:02:07.037Z</time></trkpt><trkpt lat="38.4298462" lon="-0.6615118"><ele>312.5</ele><time>2026-04-05T12:02:08.036Z</time></trkpt><trkpt lat="38.4297806" lon="-0.6616432"><ele>312.25</ele><time>2026-04-05T12:02:09.036Z</time></trkpt><trkpt lat="38.429732" lon="-0.6618016"><ele>312.0</ele><time>2026-04-05T12:02:10.037Z</time></trkpt><trkpt lat="38.4296854" lon="-0.6619795"><ele>311.3333333333333</ele><time>2026-04-05T12:02:11.036Z</time></trkpt><trkpt lat="38.4296389" lon="-0.6621734"><ele>310.66666666666663</ele><time>2026-04-05T12:02:12.036Z</time></trkpt><trkpt lat="38.4295891" lon="-0.6623849"><ele>310.0</ele><time>2026-04-05T12:02:13.036Z</time></trkpt><trkpt lat="38.4295365" lon="-0.6625987"><ele>309.66666666666663</ele><time>2026-04-05T12:02:14.036Z</time></trkpt><trkpt lat="38.4294819" lon="-0.6628203"><ele>309.3333333333333</ele><time>2026-04-05T12:02:15.037Z</time></trkpt><trkpt lat="38.4294268" lon="-0.6630428"><ele>309.0</ele><time>2026-04-05T12:02:16.036Z</time></trkpt><trkpt lat="38.429371" lon="-0.6632598"><ele>309.0</ele><time>2026-04-05T12:02:17.037Z</time></trkpt><trkpt lat="38.4293085" lon="-0.6634705"><ele>309.0</ele><time>2026-04-05T12:02:18.036Z</time></trkpt><trkpt lat="38.4292329" lon="-0.6636749"><ele>309.0</ele><time>2026-04-05T12:02:19.037Z</time></trkpt><trkpt lat="38.4291516" lon="-0.663878"><ele>308.3333333333333</ele><time>2026-04-05T12:02:20.037Z</time></trkpt><trkpt lat="38.4290648" lon="-0.6640871"><ele>307.66666666666663</ele><time>2026-04-05T12:02:21.037Z</time></trkpt><trkpt lat="38.4289743" lon="-0.6643048"><ele>307.0</ele><time>2026-04-05T12:02:22.037Z</time></trkpt><trkpt lat="38.4288873" lon="-0.66452"><ele>307.0</ele><time>2026-04-05T12:02:23.036Z</time></trkpt><trkpt lat="38.4287957" lon="-0.6647306"><ele>307.0</ele><time>2026-04-05T12:02:24.036Z</time></trkpt><trkpt lat="38.4287097" lon="-0.6649394"><ele>307.0</ele><time>2026-04-05T12:02:25.036Z</time></trkpt><trkpt lat="38.4286191" lon="-0.6651543"><ele>308.3333333333333</ele><time>2026-04-05T12:02:26.036Z</time></trkpt><trkpt lat="38.4285261" lon="-0.6653747"><ele>309.6666666666667</ele><time>2026-04-05T12:02:27.036Z</time></trkpt><trkpt lat="38.4284344" lon="-0.6655956"><ele>311.0</ele><time>2026-04-05T12:02:28.037Z</time></trkpt><trkpt lat="38.4283405" lon="-0.6658163"><ele>311.0</ele><time>2026-04-05T12:02:29.036Z</time></trkpt><trkpt lat="38.4282501" lon="-0.6660427"><ele>311.0</ele><time>2026-04-05T12:02:30.036Z</time></trkpt><trkpt lat="38.4281533" lon="-0.6662721"><ele>311.0</ele><time>2026-04-05T12:02:31.037Z</time></trkpt><trkpt lat="38.4280507" lon="-0.6665068"><ele>311.0</ele><time>2026-04-05T12:02:32.036Z</time></trkpt><trkpt lat="38.4279454" lon="-0.6667506"><ele>311.0</ele><time>2026-04-05T12:02:33.036Z</time></trkpt><trkpt lat="38.4278454" lon="-0.6669937"><ele>311.0</ele><time>2026-04-05T12:02:34.037Z</time></trkpt><trkpt lat="38.4277372" lon="-0.6672435"><ele>311.0</ele><time>2026-04-05T12:02:35.036Z</time></trkpt><trkpt lat="38.427631" lon="-0.6674866"><ele>311.0</ele><time>2026-04-05T12:02:36.037Z</time></trkpt><trkpt lat="38.4275307" lon="-0.6677281"><ele>311.0</ele><time>2026-04-05T12:02:37.036Z</time></trkpt><trkpt lat="38.4274262" lon="-0.6679611"><ele>311.6666666666667</ele><time>2026-04-05T12:02:38.037Z</time></trkpt><trkpt lat="38.4273135" lon="-0.668187"><ele>312.3333333333333</ele><time>2026-04-05T12:02:39.037Z</time></trkpt><trkpt lat="38.4271873" lon="-0.6684138"><ele>313.0</ele><time>2026-04-05T12:02:40.036Z</time></trkpt><trkpt lat="38.4270551" lon="-0.6686499"><ele>313.0</ele><time>2026-04-05T12:02:41.037Z</time></trkpt><trkpt lat="38.4269314" lon="-0.6688997"><ele>313.0</ele><time>2026-04-05T12:02:42.036Z</time></trkpt><trkpt lat="38.4268177" lon="-0.6691616"><ele>313.0</ele><time>2026-04-05T12:02:43.036Z</time></trkpt><trkpt lat="38.4267077" lon="-0.6694263"><ele>313.0</ele><time>2026-04-05T12:02:44.037Z</time></trkpt><trkpt lat="38.4265966" lon="-0.6696871"><ele>312.5</ele><time>2026-04-05T12:02:45.037Z</time></trkpt><trkpt lat="38.4264882" lon="-0.6699502"><ele>312.0</ele><time>2026-04-05T12:02:46.036Z</time></trkpt><trkpt lat="38.4263813" lon="-0.6702072"><ele>312.3333333333333</ele><time>2026-04-05T12:02:47.036Z</time></trkpt><trkpt lat="38.4262775" lon="-0.6704515"><ele>312.66666666666663</ele><time>2026-04-05T12:02:48.037Z</time></trkpt><trkpt lat="38.4261776" lon="-0.6706834"><ele>313.0</ele><time>2026-04-05T12:02:49.037Z</time></trkpt><trkpt lat="38.4260803" lon="-0.6709047"><ele>312.66666666666663</ele><time>2026-04-05T12:02:50.036Z</time></trkpt><trkpt lat="38.4259896" lon="-0.6711424"><ele>312.3333333333333</ele><time>2026-04-05T12:02:51.037Z</time></trkpt><trkpt lat="38.4259185" lon="-0.6713963"><ele>312.0</ele><time>2026-04-05T12:02:52.037Z</time></trkpt><trkpt lat="38.4258646" lon="-0.6716697"><ele>312.6666666666667</ele><time>2026-04-05T12:02:53.036Z</time></trkpt><trkpt lat="38.4258318" lon="-0.6719501"><ele>313.33333333333337</ele><time>2026-04-05T12:02:54.036Z</time></trkpt><trkpt lat="38.4258078" lon="-0.6722246"><ele>314.0</ele><time>2026-04-05T12:02:55.037Z</time></trkpt><trkpt lat="38.4257684" lon="-0.6724898"><ele>314.0</ele><time>2026-04-05T12:02:56.036Z</time></trkpt><trkpt lat="38.4256923" lon="-0.6727439"><ele>314.0</ele><time>2026-04-05T12:02:57.036Z</time></trkpt><trkpt lat="38.4255872" lon="-0.6729824"><ele>314.0</ele><time>2026-04-05T12:02:58.037Z</time></trkpt><trkpt lat="38.4254732" lon="-0.6732207"><ele>314.0</ele><time>2026-04-05T12:02:59.036Z</time></trkpt><trkpt lat="38.4253683" lon="-0.6734613"><ele>314.0</ele><time>2026-04-05T12:03:00.037Z</time></trkpt><trkpt lat="38.4252855" lon="-0.6737048"><ele>314.0</ele><time>2026-04-05T12:03:01.036Z</time></trkpt><trkpt lat="38.4252149" lon="-0.6739594"><ele>314.0</ele><time>2026-04-05T12:03:02.037Z</time></trkpt><trkpt lat="38.4251472" lon="-0.6742204"><ele>314.0</ele><time>2026-04-05T12:03:03.036Z</time></trkpt><trkpt lat="38.425081" lon="-0.6744852"><ele>314.0</ele><time>2026-04-05T12:03:04.036Z</time></trkpt><trkpt lat="38.4250111" lon="-0.6747507"><ele>314.0</ele><time>2026-04-05T12:03:05.037Z</time></trkpt><trkpt lat="38.4249281" lon="-0.6750163"><ele>314.0</ele><time>2026-04-05T12:03:06.036Z</time></trkpt><trkpt lat="38.4248293" lon="-0.6752759"><ele>314.0</ele><time>2026-04-05T12:03:07.036Z</time></trkpt><trkpt lat="38.4247156" lon="-0.6755286"><ele>314.0</ele><time>2026-04-05T12:03:08.036Z</time></trkpt><trkpt lat="38.4245937" lon="-0.6757786"><ele>314.0</ele><time>2026-04-05T12:03:09.037Z</time></trkpt><trkpt lat="38.4244675" lon="-0.6760358"><ele>314.0</ele><time>2026-04-05T12:03:10.037Z</time></trkpt><trkpt lat="38.4243382" lon="-0.6762922"><ele>314.0</ele><time>2026-04-05T12:03:11.036Z</time></trkpt><trkpt lat="38.4242052" lon="-0.6765528"><ele>314.0</ele><time>2026-04-05T12:03:12.037Z</time></trkpt><trkpt lat="38.4240791" lon="-0.6768089"><ele>315.5</ele><time>2026-04-05T12:03:13.036Z</time></trkpt><trkpt lat="38.4239537" lon="-0.6770588"><ele>317.0</ele><time>2026-04-05T12:03:14.036Z</time></trkpt><trkpt lat="38.4238271" lon="-0.6773066"><ele>316.33333333333337</ele><time>2026-04-05T12:03:15.036Z</time></trkpt><trkpt lat="38.4237046" lon="-0.6775489"><ele>315.6666666666667</ele><time>2026-04-05T12:03:16.037Z</time></trkpt><trkpt lat="38.4235888" lon="-0.6777908"><ele>315.0</ele><time>2026-04-05T12:03:17.037Z</time></trkpt><trkpt lat="38.4234735" lon="-0.6780247"><ele>315.0</ele><time>2026-04-05T12:03:18.036Z</time></trkpt><trkpt lat="38.4233597" lon="-0.6782573"><ele>315.0</ele><time>2026-04-05T12:03:19.036Z</time></trkpt><trkpt lat="38.4232457" lon="-0.6784892"><ele>315.0</ele><time>2026-04-05T12:03:20.037Z</time></trkpt><trkpt lat="38.4231286" lon="-0.6787261"><ele>316.5</ele><time>2026-04-05T12:03:21.037Z</time></trkpt><trkpt lat="38.423012" lon="-0.6789792"><ele>318.0</ele><time>2026-04-05T12:03:22.037Z</time></trkpt><trkpt lat="38.4229043" lon="-0.679238"><ele>316.5</ele><time>2026-04-05T12:03:23.037Z</time></trkpt><trkpt lat="38.4228114" lon="-0.6795056"><ele>315.0</ele><time>2026-04-05T12:03:24.037Z</time></trkpt><trkpt lat="38.4227201" lon="-0.6797772"><ele>315.0</ele><time>2026-04-05T12:03:25.037Z</time></trkpt><trkpt lat="38.4226269" lon="-0.6800535"><ele>315.0</ele><time>2026-04-05T12:03:26.036Z</time></trkpt><trkpt lat="38.4225379" lon="-0.6803337"><ele>313.0</ele><time>2026-04-05T12:03:27.036Z</time></trkpt><trkpt lat="38.4224481" lon="-0.6806194"><ele>311.0</ele><time>2026-04-05T12:03:28.036Z</time></trkpt><trkpt lat="38.4223533" lon="-0.6809081"><ele>309.5</ele><time>2026-04-05T12:03:29.037Z</time></trkpt><trkpt lat="38.4222567" lon="-0.6811982"><ele>308.0</ele><time>2026-04-05T12:03:30.037Z</time></trkpt><trkpt lat="38.4221693" lon="-0.6814888"><ele>306.5</ele><time>2026-04-05T12:03:31.036Z</time></trkpt><trkpt lat="38.4220782" lon="-0.6817806"><ele>305.0</ele><time>2026-04-05T12:03:32.036Z</time></trkpt><trkpt lat="38.4219822" lon="-0.6820737"><ele>305.0</ele><time>2026-04-05T12:03:33.037Z</time></trkpt><trkpt lat="38.4218922" lon="-0.6823663"><ele>305.0</ele><time>2026-04-05T12:03:34.037Z</time></trkpt><trkpt lat="38.4218029" lon="-0.6826621"><ele>307.5</ele><time>2026-04-05T12:03:35.037Z</time></trkpt><trkpt lat="38.4217054" lon="-0.6829625"><ele>310.0</ele><time>2026-04-05T12:03:36.036Z</time></trkpt><trkpt lat="38.4216094" lon="-0.6832592"><ele>310.0</ele><time>2026-04-05T12:03:37.036Z</time></trkpt><trkpt lat="38.4215146" lon="-0.6835514"><ele>310.0</ele><time>2026-04-05T12:03:38.036Z</time></trkpt><trkpt lat="38.4214176" lon="-0.6838471"><ele>311.5</ele><time>2026-04-05T12:03:39.036Z</time></trkpt><trkpt lat="38.4213192" lon="-0.6841476"><ele>313.0</ele><time>2026-04-05T12:03:40.037Z</time></trkpt><trkpt lat="38.421222" lon="-0.6844465"><ele>313.0</ele><time>2026-04-05T12:03:41.037Z</time></trkpt><trkpt lat="38.4211273" lon="-0.6847409"><ele>313.0</ele><time>2026-04-05T12:03:42.037Z</time></trkpt><trkpt lat="38.4210322" lon="-0.6850292"><ele>312.5</ele><time>2026-04-05T12:03:43.036Z</time></trkpt><trkpt lat="38.4209399" lon="-0.6853157"><ele>312.0</ele><time>2026-04-05T12:03:44.036Z</time></trkpt><trkpt lat="38.4208478" lon="-0.6855982"><ele>312.0</ele><time>2026-04-05T12:03:45.037Z</time></trkpt><trkpt lat="38.4207593" lon="-0.6858841"><ele>312.0</ele><time>2026-04-05T12:03:46.037Z</time></trkpt><trkpt lat="38.4206744" lon="-0.6861749"><ele>313.5</ele><time>2026-04-05T12:03:47.036Z</time></trkpt><trkpt lat="38.420584" lon="-0.6864626"><ele>315.0</ele><time>2026-04-05T12:03:48.036Z</time></trkpt><trkpt lat="38.4204951" lon="-0.6867527"><ele>316.5</ele><time>2026-04-05T12:03:49.036Z</time></trkpt><trkpt lat="38.4204101" lon="-0.6870266"><ele>318.0</ele><time>2026-04-05T12:03:50.037Z</time></trkpt><trkpt lat="38.4203236" lon="-0.687299"><ele>318.0</ele><time>2026-04-05T12:03:51.036Z</time></trkpt><trkpt lat="38.4202392" lon="-0.6875651"><ele>318.0</ele><time>2026-04-05T12:03:52.037Z</time></trkpt><trkpt lat="38.4201543" lon="-0.6878306"><ele>319.0</ele><time>2026-04-05T12:03:53.036Z</time></trkpt><trkpt lat="38.4200705" lon="-0.6881027"><ele>320.0</ele><time>2026-04-05T12:03:54.036Z</time></trkpt><trkpt lat="38.4199844" lon="-0.6883757"><ele>321.0</ele><time>2026-04-05T12:03:55.037Z</time></trkpt><trkpt lat="38.4198959" lon="-0.6886506"><ele>322.0</ele><time>2026-04-05T12:03:56.036Z</time></trkpt><trkpt lat="38.419804" lon="-0.6889261"><ele>322.0</ele><time>2026-04-05T12:03:57.036Z</time></trkpt><trkpt lat="38.4197004" lon="-0.6891929"><ele>322.0</ele><time>2026-04-05T12:03:58.036Z</time></trkpt><trkpt lat="38.4195807" lon="-0.689452"><ele>322.5</ele><time>2026-04-05T12:03:59.037Z</time></trkpt><trkpt lat="38.4194462" lon="-0.6897097"><ele>323.0</ele><time>2026-04-05T12:04:00.037Z</time></trkpt><trkpt lat="38.4193033" lon="-0.68997"><ele>323.0</ele><time>2026-04-05T12:04:01.036Z</time></trkpt><trkpt lat="38.4191632" lon="-0.6902268"><ele>323.0</ele><time>2026-04-05T12:04:02.036Z</time></trkpt><trkpt lat="38.4190229" lon="-0.6904848"><ele>322.0</ele><time>2026-04-05T12:04:03.036Z</time></trkpt><trkpt lat="38.4188907" lon="-0.6907249"><ele>321.0</ele><time>2026-04-05T12:04:04.036Z</time></trkpt><trkpt lat="38.4187623" lon="-0.6909535"><ele>319.3333333333333</ele><time>2026-04-05T12:04:05.036Z</time></trkpt><trkpt lat="38.4186355" lon="-0.6911756"><ele>317.66666666666663</ele><time>2026-04-05T12:04:06.037Z</time></trkpt><trkpt lat="38.4185034" lon="-0.6914044"><ele>316.0</ele><time>2026-04-05T12:04:07.036Z</time></trkpt><trkpt lat="38.4183634" lon="-0.6916416"><ele>316.0</ele><time>2026-04-05T12:04:08.037Z</time></trkpt><trkpt lat="38.4182143" lon="-0.6918856"><ele>316.0</ele><time>2026-04-05T12:04:09.036Z</time></trkpt><trkpt lat="38.4180588" lon="-0.6921331"><ele>315.0</ele><time>2026-04-05T12:04:10.037Z</time></trkpt><trkpt lat="38.4179016" lon="-0.6923836"><ele>314.0</ele><time>2026-04-05T12:04:11.036Z</time></trkpt><trkpt lat="38.4177499" lon="-0.6926277"><ele>314.0</ele><time>2026-04-05T12:04:12.036Z</time></trkpt><trkpt lat="38.4175979" lon="-0.6928732"><ele>314.0</ele><time>2026-04-05T12:04:13.037Z</time></trkpt><trkpt lat="38.4174564" lon="-0.6931283"><ele>314.0</ele><time>2026-04-05T12:04:14.037Z</time></trkpt><trkpt lat="38.4173387" lon="-0.6933948"><ele>314.0</ele><time>2026-04-05T12:04:15.037Z</time></trkpt><trkpt lat="38.4172357" lon="-0.6936721"><ele>310.5</ele><time>2026-04-05T12:04:16.036Z</time></trkpt><trkpt lat="38.4171395" lon="-0.6939602"><ele>307.0</ele><time>2026-04-05T12:04:17.037Z</time></trkpt><trkpt lat="38.4170502" lon="-0.6942415"><ele>306.5</ele><time>2026-04-05T12:04:18.037Z</time></trkpt><trkpt lat="38.4169569" lon="-0.6945159"><ele>306.0</ele><time>2026-04-05T12:04:19.036Z</time></trkpt><trkpt lat="38.4168591" lon="-0.6947739"><ele>306.0</ele><time>2026-04-05T12:04:20.036Z</time></trkpt><trkpt lat="38.416778" lon="-0.6950228"><ele>306.0</ele><time>2026-04-05T12:04:21.036Z</time></trkpt><trkpt lat="38.4166967" lon="-0.6952637"><ele>306.0</ele><time>2026-04-05T12:04:22.037Z</time></trkpt><trkpt lat="38.4166284" lon="-0.6954748"><ele>306.3333333333333</ele><time>2026-04-05T12:04:23.037Z</time></trkpt><trkpt lat="38.4165521" lon="-0.6956916"><ele>306.66666666666663</ele><time>2026-04-05T12:04:24.036Z</time></trkpt><trkpt lat="38.4164835" lon="-0.6959022"><ele>307.0</ele><time>2026-04-05T12:04:25.036Z</time></trkpt><trkpt lat="38.4164132" lon="-0.6961067"><ele>307.0</ele><time>2026-04-05T12:04:26.037Z</time></trkpt><trkpt lat="38.4163474" lon="-0.6962896"><ele>307.0</ele><time>2026-04-05T12:04:27.036Z</time></trkpt><trkpt lat="38.416283" lon="-0.6964649"><ele>307.0</ele><time>2026-04-05T12:04:28.036Z</time></trkpt><trkpt lat="38.4162256" lon="-0.6966224"><ele>307.0</ele><time>2026-04-05T12:04:29.037Z</time></trkpt><trkpt lat="38.4161636" lon="-0.6967669"><ele>306.75</ele><time>2026-04-05T12:04:30.036Z</time></trkpt><trkpt lat="38.41611" lon="-0.6968999"><ele>306.5</ele><time>2026-04-05T12:04:31.036Z</time></trkpt><trkpt lat="38.4160604" lon="-0.6970339"><ele>306.25</ele><time>2026-04-05T12:04:32.037Z</time></trkpt><trkpt lat="38.4160156" lon="-0.6971953"><ele>306.0</ele><time>2026-04-05T12:04:33.036Z</time></trkpt><trkpt lat="38.415957" lon="-0.6973835"><ele>306.0</ele><time>2026-04-05T12:04:34.037Z</time></trkpt><trkpt lat="38.4158683" lon="-0.6975953"><ele>306.0</ele><time>2026-04-05T12:04:35.037Z</time></trkpt><trkpt lat="38.4157538" lon="-0.6978282"><ele>306.0</ele><time>2026-04-05T12:04:36.037Z</time></trkpt><trkpt lat="38.4156315" lon="-0.6980648"><ele>306.0</ele><time>2026-04-05T12:04:37.036Z</time></trkpt><trkpt lat="38.415494" lon="-0.6982981"><ele>306.0</ele><time>2026-04-05T12:04:38.036Z</time></trkpt><trkpt lat="38.4153632" lon="-0.6985219"><ele>306.0</ele><time>2026-04-05T12:04:39.036Z</time></trkpt><trkpt lat="38.4152379" lon="-0.698734"><ele>305.0</ele><time>2026-04-05T12:04:40.036Z</time></trkpt><trkpt lat="38.4151091" lon="-0.6989456"><ele>304.0</ele><time>2026-04-05T12:04:41.037Z</time></trkpt><trkpt lat="38.4149822" lon="-0.6991545"><ele>303.0</ele><time>2026-04-05T12:04:42.036Z</time></trkpt><trkpt lat="38.4148578" lon="-0.699362"><ele>303.3333333333333</ele><time>2026-04-05T12:04:43.036Z</time></trkpt><trkpt lat="38.4147367" lon="-0.6995694"><ele>303.66666666666663</ele><time>2026-04-05T12:04:44.036Z</time></trkpt><trkpt lat="38.4146182" lon="-0.6997739"><ele>304.0</ele><time>2026-04-05T12:04:45.036Z</time></trkpt><trkpt lat="38.4144932" lon="-0.6999854"><ele>303.3333333333333</ele><time>2026-04-05T12:04:46.037Z</time></trkpt><trkpt lat="38.4143654" lon="-0.7001936"><ele>302.6666666666667</ele><time>2026-04-05T12:04:47.036Z</time></trkpt><trkpt lat="38.41424" lon="-0.7004118"><ele>302.0</ele><time>2026-04-05T12:04:48.037Z</time></trkpt><trkpt lat="38.414117" lon="-0.7006513"><ele>302.0</ele><time>2026-04-05T12:04:49.036Z</time></trkpt><trkpt lat="38.4140209" lon="-0.7009047"><ele>302.0</ele><time>2026-04-05T12:04:50.037Z</time></trkpt><trkpt lat="38.4139465" lon="-0.7011793"><ele>302.0</ele><time>2026-04-05T12:04:51.036Z</time></trkpt><trkpt lat="38.4138858" lon="-0.7014546"><ele>301.0</ele><time>2026-04-05T12:04:52.037Z</time></trkpt><trkpt lat="38.4138218" lon="-0.7017311"><ele>300.0</ele><time>2026-04-05T12:04:53.037Z</time></trkpt><trkpt lat="38.4137618" lon="-0.7020122"><ele>300.0</ele><time>2026-04-05T12:04:54.037Z</time></trkpt><trkpt lat="38.4136962" lon="-0.7022902"><ele>300.0</ele><time>2026-04-05T12:04:55.036Z</time></trkpt><trkpt lat="38.4136421" lon="-0.7025636"><ele>300.0</ele><time>2026-04-05T12:04:56.036Z</time></trkpt><trkpt lat="38.4135823" lon="-0.7028345"><ele>300.0</ele><time>2026-04-05T12:04:57.037Z</time></trkpt><trkpt lat="38.4135196" lon="-0.7031101"><ele>300.0</ele><time>2026-04-05T12:04:58.036Z</time></trkpt><trkpt lat="38.4134523" lon="-0.703387"><ele>300.5</ele><time>2026-04-05T12:04:59.037Z</time></trkpt><trkpt lat="38.4133872" lon="-0.7036674"><ele>301.0</ele><time>2026-04-05T12:05:00.036Z</time></trkpt><trkpt lat="38.4133223" lon="-0.7039478"><ele>301.0</ele><time>2026-04-05T12:05:01.037Z</time></trkpt><trkpt lat="38.4132614" lon="-0.7042296"><ele>301.0</ele><time>2026-04-05T12:05:02.037Z</time></trkpt><trkpt lat="38.4131981" lon="-0.7045116"><ele>301.66666666666663</ele><time>2026-04-05T12:05:03.036Z</time></trkpt><trkpt lat="38.4131289" lon="-0.7047851"><ele>302.3333333333333</ele><time>2026-04-05T12:05:04.037Z</time></trkpt><trkpt lat="38.413059" lon="-0.7050539"><ele>303.0</ele><time>2026-04-05T12:05:05.036Z</time></trkpt><trkpt lat="38.4129904" lon="-0.7053215"><ele>303.0</ele><time>2026-04-05T12:05:06.036Z</time></trkpt><trkpt lat="38.4129256" lon="-0.7055889"><ele>303.0</ele><time>2026-04-05T12:05:07.037Z</time></trkpt><trkpt lat="38.4128588" lon="-0.705857"><ele>303.0</ele><time>2026-04-05T12:05:08.037Z</time></trkpt><trkpt lat="38.4127901" lon="-0.706131"><ele>303.0</ele><time>2026-04-05T12:05:09.036Z</time></trkpt><trkpt lat="38.4127282" lon="-0.7064088"><ele>303.0</ele><time>2026-04-05T12:05:10.037Z</time></trkpt><trkpt lat="38.4126751" lon="-0.7066967"><ele>303.0</ele><time>2026-04-05T12:05:11.037Z</time></trkpt><trkpt lat="38.4126437" lon="-0.7070034"><ele>303.0</ele><time>2026-04-05T12:05:12.037Z</time></trkpt><trkpt lat="38.4125947" lon="-0.7073052"><ele>303.0</ele><time>2026-04-05T12:05:13.037Z</time></trkpt><trkpt lat="38.4125833" lon="-0.7076299"><ele>303.0</ele><time>2026-04-05T12:05:14.036Z</time></trkpt><trkpt lat="38.4125428" lon="-0.7079434"><ele>303.0</ele><time>2026-04-05T12:05:15.036Z</time></trkpt><trkpt lat="38.412535" lon="-0.7082503"><ele>303.0</ele><time>2026-04-05T12:05:16.036Z</time></trkpt><trkpt lat="38.4125073" lon="-0.7085563"><ele>304.0</ele><time>2026-04-05T12:05:17.037Z</time></trkpt><trkpt lat="38.4124591" lon="-0.7088546"><ele>305.0</ele><time>2026-04-05T12:05:18.037Z</time></trkpt><trkpt lat="38.4123733" lon="-0.7091626"><ele>305.5</ele><time>2026-04-05T12:05:19.037Z</time></trkpt><trkpt lat="38.4122749" lon="-0.7094738"><ele>306.0</ele><time>2026-04-05T12:05:20.036Z</time></trkpt><trkpt lat="38.4121743" lon="-0.7097709"><ele>304.5</ele><time>2026-04-05T12:05:21.037Z</time></trkpt><trkpt lat="38.4120814" lon="-0.7100474"><ele>303.0</ele><time>2026-04-05T12:05:22.036Z</time></trkpt><trkpt lat="38.4119893" lon="-0.7103058"><ele>303.0</ele><time>2026-04-05T12:05:23.036Z</time></trkpt><trkpt lat="38.4119053" lon="-0.7105521"><ele>303.0</ele><time>2026-04-05T12:05:24.036Z</time></trkpt><trkpt lat="38.4118104" lon="-0.710786"><ele>303.0</ele><time>2026-04-05T12:05:25.036Z</time></trkpt><trkpt lat="38.4116883" lon="-0.7110163"><ele>302.0</ele><time>2026-04-05T12:05:26.037Z</time></trkpt><trkpt lat="38.4115327" lon="-0.7112381"><ele>301.0</ele><time>2026-04-05T12:05:27.036Z</time></trkpt><trkpt lat="38.411359" lon="-0.7114608"><ele>302.5</ele><time>2026-04-05T12:05:28.037Z</time></trkpt><trkpt lat="38.4111898" lon="-0.7116672"><ele>304.0</ele><time>2026-04-05T12:05:29.036Z</time></trkpt><trkpt lat="38.4110157" lon="-0.711871"><ele>302.0</ele><time>2026-04-05T12:05:30.037Z</time></trkpt><trkpt lat="38.4108564" lon="-0.7120702"><ele>300.0</ele><time>2026-04-05T12:05:31.036Z</time></trkpt><trkpt lat="38.4107064" lon="-0.7122615"><ele>298.0</ele><time>2026-04-05T12:05:32.036Z</time></trkpt><trkpt lat="38.4105581" lon="-0.7124396"><ele>299.3333333333333</ele><time>2026-04-05T12:05:33.037Z</time></trkpt><trkpt lat="38.4104092" lon="-0.712598"><ele>300.6666666666667</ele><time>2026-04-05T12:05:34.036Z</time></trkpt><trkpt lat="38.4102543" lon="-0.7127426"><ele>302.0</ele><time>2026-04-05T12:05:35.036Z</time></trkpt><trkpt lat="38.4101127" lon="-0.7128807"><ele>301.0</ele><time>2026-04-05T12:05:36.036Z</time></trkpt><trkpt lat="38.4099518" lon="-0.7130262"><ele>300.0</ele><time>2026-04-05T12:05:37.036Z</time></trkpt><trkpt lat="38.4097883" lon="-0.71318"><ele>299.0</ele><time>2026-04-05T12:05:38.036Z</time></trkpt><trkpt lat="38.4096199" lon="-0.7133423"><ele>299.0</ele><time>2026-04-05T12:05:39.036Z</time></trkpt><trkpt lat="38.409458" lon="-0.7134904"><ele>299.0</ele><time>2026-04-05T12:05:40.037Z</time></trkpt><trkpt lat="38.4093038" lon="-0.7136294"><ele>299.0</ele><time>2026-04-05T12:05:41.036Z</time></trkpt><trkpt lat="38.4091554" lon="-0.7137756"><ele>296.0</ele><time>2026-04-05T12:05:42.036Z</time></trkpt><trkpt lat="38.4090091" lon="-0.7139482"><ele>293.0</ele><time>2026-04-05T12:05:43.036Z</time></trkpt><trkpt lat="38.4088839" lon="-0.71415"><ele>290.0</ele><time>2026-04-05T12:05:44.036Z</time></trkpt><trkpt lat="38.4087743" lon="-0.71445"><ele>289.0</ele><time>2026-04-05T12:05:45.036Z</time></trkpt><trkpt lat="38.4086644" lon="-0.7147338"><ele>288.0</ele><time>2026-04-05T12:05:46.036Z</time></trkpt><trkpt lat="38.4085641" lon="-0.7149957"><ele>287.6666666666667</ele><time>2026-04-05T12:05:47.037Z</time></trkpt><trkpt lat="38.4084641" lon="-0.7152491"><ele>287.33333333333337</ele><time>2026-04-05T12:05:48.036Z</time></trkpt><trkpt lat="38.4083608" lon="-0.7155023"><ele>287.0</ele><time>2026-04-05T12:05:49.037Z</time></trkpt><trkpt lat="38.4082502" lon="-0.7157574"><ele>287.0</ele><time>2026-04-05T12:05:50.036Z</time></trkpt><trkpt lat="38.4081186" lon="-0.7160095"><ele>287.0</ele><time>2026-04-05T12:05:51.036Z</time></trkpt><trkpt lat="38.4079702" lon="-0.7162486"><ele>287.0</ele><time>2026-04-05T12:05:52.036Z</time></trkpt><trkpt lat="38.4078216" lon="-0.7164731"><ele>287.0</ele><time>2026-04-05T12:05:53.036Z</time></trkpt><trkpt lat="38.4076772" lon="-0.7166867"><ele>287.0</ele><time>2026-04-05T12:05:54.037Z</time></trkpt><trkpt lat="38.4075374" lon="-0.716893"><ele>287.0</ele><time>2026-04-05T12:05:55.037Z</time></trkpt><trkpt lat="38.4073981" lon="-0.717102"><ele>287.0</ele><time>2026-04-05T12:05:56.037Z</time></trkpt><trkpt lat="38.4072567" lon="-0.7173171"><ele>284.5</ele><time>2026-04-05T12:05:57.037Z</time></trkpt><trkpt lat="38.4071066" lon="-0.7175359"><ele>282.0</ele><time>2026-04-05T12:05:58.037Z</time></trkpt><trkpt lat="38.4069587" lon="-0.7177571"><ele>282.0</ele><time>2026-04-05T12:05:59.036Z</time></trkpt><trkpt lat="38.4068155" lon="-0.7179738"><ele>282.0</ele><time>2026-04-05T12:06:00.036Z</time></trkpt><trkpt lat="38.4066731" lon="-0.7181845"><ele>282.0</ele><time>2026-04-05T12:06:01.037Z</time></trkpt><trkpt lat="38.4065288" lon="-0.7184049"><ele>282.5</ele><time>2026-04-05T12:06:02.037Z</time></trkpt><trkpt lat="38.4063819" lon="-0.718623"><ele>283.0</ele><time>2026-04-05T12:06:03.036Z</time></trkpt><trkpt lat="38.4062342" lon="-0.7188446"><ele>282.0</ele><time>2026-04-05T12:06:04.037Z</time></trkpt><trkpt lat="38.4060908" lon="-0.7190559"><ele>281.0</ele><time>2026-04-05T12:06:05.036Z</time></trkpt><trkpt lat="38.4059458" lon="-0.719272"><ele>280.0</ele><time>2026-04-05T12:06:06.037Z</time></trkpt><trkpt lat="38.4058018" lon="-0.7194887"><ele>280.0</ele><time>2026-04-05T12:06:07.036Z</time></trkpt><trkpt lat="38.405655" lon="-0.7197057"><ele>280.0</ele><time>2026-04-05T12:06:08.036Z</time></trkpt><trkpt lat="38.4055095" lon="-0.7199256"><ele>279.5</ele><time>2026-04-05T12:06:09.037Z</time></trkpt><trkpt lat="38.4053582" lon="-0.7201479"><ele>279.0</ele><time>2026-04-05T12:06:10.036Z</time></trkpt><trkpt lat="38.4052078" lon="-0.7203773"><ele>279.0</ele><time>2026-04-05T12:06:11.037Z</time></trkpt><trkpt lat="38.4050628" lon="-0.7206132"><ele>279.0</ele><time>2026-04-05T12:06:12.036Z</time></trkpt><trkpt lat="38.4049174" lon="-0.7208537"><ele>279.0</ele><time>2026-04-05T12:06:13.037Z</time></trkpt><trkpt lat="38.4047848" lon="-0.7211007"><ele>279.0</ele><time>2026-04-05T12:06:14.036Z</time></trkpt><trkpt lat="38.4046564" lon="-0.7213393"><ele>277.5</ele><time>2026-04-05T12:06:15.037Z</time></trkpt><trkpt lat="38.4045226" lon="-0.7215803"><ele>276.0</ele><time>2026-04-05T12:06:16.036Z</time></trkpt><trkpt lat="38.4043909" lon="-0.721818"><ele>277.0</ele><time>2026-04-05T12:06:17.036Z</time></trkpt><trkpt lat="38.4042587" lon="-0.7220525"><ele>278.0</ele><time>2026-04-05T12:06:18.036Z</time></trkpt><trkpt lat="38.4041101" lon="-0.7223011"><ele>278.0</ele><time>2026-04-05T12:06:19.036Z</time></trkpt><trkpt lat="38.4039569" lon="-0.7225351"><ele>278.0</ele><time>2026-04-05T12:06:20.036Z</time></trkpt><trkpt lat="38.403793" lon="-0.7227492"><ele>277.0</ele><time>2026-04-05T12:06:21.037Z</time></trkpt><trkpt lat="38.4036093" lon="-0.7229265"><ele>276.0</ele><time>2026-04-05T12:06:22.037Z</time></trkpt><trkpt lat="38.4034192" lon="-0.7230858"><ele>276.0</ele><time>2026-04-05T12:06:23.036Z</time></trkpt><trkpt lat="38.4032212" lon="-0.7232178"><ele>276.0</ele><time>2026-04-05T12:06:24.037Z</time></trkpt><trkpt lat="38.4030175" lon="-0.7233306"><ele>276.0</ele><time>2026-04-05T12:06:25.037Z</time></trkpt><trkpt lat="38.4028177" lon="-0.7234291"><ele>276.0</ele><time>2026-04-05T12:06:26.037Z</time></trkpt><trkpt lat="38.4026109" lon="-0.7235334"><ele>276.0</ele><time>2026-04-05T12:06:27.037Z</time></trkpt><trkpt lat="38.4024033" lon="-0.7236481"><ele>276.0</ele><time>2026-04-05T12:06:28.036Z</time></trkpt><trkpt lat="38.4021972" lon="-0.7237895"><ele>274.5</ele><time>2026-04-05T12:06:29.036Z</time></trkpt><trkpt lat="38.4020018" lon="-0.7239589"><ele>273.0</ele><time>2026-04-05T12:06:30.037Z</time></trkpt><trkpt lat="38.4018229" lon="-0.7241537"><ele>271.0</ele><time>2026-04-05T12:06:31.036Z</time></trkpt><trkpt lat="38.4015021" lon="-0.7245852"><ele>271.0</ele><time>2026-04-05T12:06:33.039Z</time></trkpt><trkpt lat="38.401395" lon="-0.7248859"><ele>271.0</ele><time>2026-04-05T12:06:34.039Z</time></trkpt><trkpt lat="38.4012989" lon="-0.7251684"><ele>270.0</ele><time>2026-04-05T12:06:35.039Z</time></trkpt><trkpt lat="38.4012278" lon="-0.7254673"><ele>269.0</ele><time>2026-04-05T12:06:36.041Z</time></trkpt><trkpt lat="38.4011827" lon="-0.7257776"><ele>269.5</ele><time>2026-04-05T12:06:37.063Z</time></trkpt><trkpt lat="38.401167" lon="-0.7260946"><ele>270.0</ele><time>2026-04-05T12:06:38.032Z</time></trkpt><trkpt lat="38.401169" lon="-0.7264128"><ele>270.0</ele><time>2026-04-05T12:06:39.032Z</time></trkpt><trkpt lat="38.4011687" lon="-0.7267274"><ele>270.0</ele><time>2026-04-05T12:06:40.033Z</time></trkpt><trkpt lat="38.401163" lon="-0.7270247"><ele>269.5</ele><time>2026-04-05T12:06:41.033Z</time></trkpt><trkpt lat="38.4011632" lon="-0.7273154"><ele>269.0</ele><time>2026-04-05T12:06:42.033Z</time></trkpt><trkpt lat="38.4011621" lon="-0.7276079"><ele>268.0</ele><time>2026-04-05T12:06:43.033Z</time></trkpt><trkpt lat="38.4011801" lon="-0.7278914"><ele>267.0</ele><time>2026-04-05T12:06:44.033Z</time></trkpt><trkpt lat="38.4011926" lon="-0.7281846"><ele>267.0</ele><time>2026-04-05T12:06:45.033Z</time></trkpt><trkpt lat="38.4012046" lon="-0.728471"><ele>267.0</ele><time>2026-04-05T12:06:46.032Z</time></trkpt><trkpt lat="38.4012083" lon="-0.7287654"><ele>267.0</ele><time>2026-04-05T12:06:47.033Z</time></trkpt><trkpt lat="38.4012064" lon="-0.7290531"><ele>267.0</ele><time>2026-04-05T12:06:48.032Z</time></trkpt><trkpt lat="38.4011841" lon="-0.7293444"><ele>265.0</ele><time>2026-04-05T12:06:49.032Z</time></trkpt><trkpt lat="38.4011457" lon="-0.7296309"><ele>263.0</ele><time>2026-04-05T12:06:50.032Z</time></trkpt><trkpt lat="38.4010961" lon="-0.7299274"><ele>263.0</ele><time>2026-04-05T12:06:51.032Z</time></trkpt><trkpt lat="38.4010287" lon="-0.7302183"><ele>263.0</ele><time>2026-04-05T12:06:52.032Z</time></trkpt><trkpt lat="38.4009465" lon="-0.730496"><ele>263.5</ele><time>2026-04-05T12:06:53.032Z</time></trkpt><trkpt lat="38.4008484" lon="-0.7307814"><ele>264.0</ele><time>2026-04-05T12:06:54.032Z</time></trkpt><trkpt lat="38.4007337" lon="-0.7310636"><ele>264.0</ele><time>2026-04-05T12:06:55.032Z</time></trkpt><trkpt lat="38.400612" lon="-0.7313303"><ele>264.0</ele><time>2026-04-05T12:06:56.032Z</time></trkpt><trkpt lat="38.4004944" lon="-0.7315866"><ele>264.0</ele><time>2026-04-05T12:06:57.032Z</time></trkpt><trkpt lat="38.4003839" lon="-0.7318331"><ele>264.0</ele><time>2026-04-05T12:06:58.033Z</time></trkpt><trkpt lat="38.4002879" lon="-0.7320693"><ele>264.0</ele><time>2026-04-05T12:06:59.033Z</time></trkpt><trkpt lat="38.4001908" lon="-0.7322908"><ele>262.3333333333333</ele><time>2026-04-05T12:07:00.032Z</time></trkpt><trkpt lat="38.4000967" lon="-0.7325033"><ele>260.66666666666663</ele><time>2026-04-05T12:07:01.032Z</time></trkpt><trkpt lat="38.4000026" lon="-0.7327057"><ele>259.0</ele><time>2026-04-05T12:07:02.032Z</time></trkpt><trkpt lat="38.3999109" lon="-0.7329052"><ele>257.66666666666663</ele><time>2026-04-05T12:07:03.032Z</time></trkpt><trkpt lat="38.3998137" lon="-0.7331083"><ele>256.3333333333333</ele><time>2026-04-05T12:07:04.033Z</time></trkpt><trkpt lat="38.3997376" lon="-0.7332846"><ele>255.0</ele><time>2026-04-05T12:07:05.033Z</time></trkpt><trkpt lat="38.3996549" lon="-0.7334567"><ele>254.5</ele><time>2026-04-05T12:07:06.033Z</time></trkpt><trkpt lat="38.3995842" lon="-0.7336256"><ele>254.0</ele><time>2026-04-05T12:07:07.032Z</time></trkpt><trkpt lat="38.3995146" lon="-0.7337834"><ele>253.5</ele><time>2026-04-05T12:07:08.032Z</time></trkpt><trkpt lat="38.3994478" lon="-0.7339371"><ele>253.0</ele><time>2026-04-05T12:07:09.033Z</time></trkpt><trkpt lat="38.399386" lon="-0.7340798"><ele>253.0</ele><time>2026-04-05T12:07:10.033Z</time></trkpt><trkpt lat="38.3993262" lon="-0.7342105"><ele>253.0</ele><time>2026-04-05T12:07:11.033Z</time></trkpt><trkpt lat="38.3992687" lon="-0.7343428"><ele>253.0</ele><time>2026-04-05T12:07:12.032Z</time></trkpt><trkpt lat="38.3992182" lon="-0.7344666"><ele>253.0</ele><time>2026-04-05T12:07:13.033Z</time></trkpt><trkpt lat="38.399168" lon="-0.7345787"><ele>253.0</ele><time>2026-04-05T12:07:14.032Z</time></trkpt><trkpt lat="38.3991192" lon="-0.7346826"><ele>253.0</ele><time>2026-04-05T12:07:15.033Z</time></trkpt><trkpt lat="38.3990785" lon="-0.734787"><ele>253.0</ele><time>2026-04-05T12:07:16.032Z</time></trkpt><trkpt lat="38.3990366" lon="-0.734887"><ele>253.0</ele><time>2026-04-05T12:07:17.033Z</time></trkpt><trkpt lat="38.3989953" lon="-0.7349796"><ele>253.0</ele><time>2026-04-05T12:07:18.032Z</time></trkpt><trkpt lat="38.3989593" lon="-0.7350556"><ele>253.0</ele><time>2026-04-05T12:07:19.032Z</time></trkpt><trkpt lat="38.3988971" lon="-0.7351932"><ele>253.0</ele><time>2026-04-05T12:07:21.032Z</time></trkpt><trkpt lat="38.3988649" lon="-0.7352634"><ele>253.0</ele><time>2026-04-05T12:07:22.033Z</time></trkpt><trkpt lat="38.3988303" lon="-0.7353313"><ele>253.0</ele><time>2026-04-05T12:07:23.033Z</time></trkpt><trkpt lat="38.398755" lon="-0.7354611"><ele>253.0</ele><time>2026-04-05T12:07:25.033Z</time></trkpt><trkpt lat="38.3986825" lon="-0.735584"><ele>253.0</ele><time>2026-04-05T12:07:27.032Z</time></trkpt><trkpt lat="38.3986088" lon="-0.7356963"><ele>252.66666666666666</ele><time>2026-04-05T12:07:29.033Z</time></trkpt><trkpt lat="38.3985392" lon="-0.7358094"><ele>252.33333333333331</ele><time>2026-04-05T12:07:31.033Z</time></trkpt><trkpt lat="38.3984813" lon="-0.7358943"><ele>252.0</ele><time>2026-04-05T12:07:33.032Z</time></trkpt><trkpt lat="38.3984412" lon="-0.7359838"><ele>251.66666666666669</ele><time>2026-04-05T12:10:34.032Z</time></trkpt><trkpt lat="38.3983997" lon="-0.7360469"><ele>251.33333333333334</ele><time>2026-04-05T12:10:35.033Z</time></trkpt><trkpt lat="38.3983526" lon="-0.7361265"><ele>251.0</ele><time>2026-04-05T12:10:36.033Z</time></trkpt><trkpt lat="38.3982892" lon="-0.7362226"><ele>251.0</ele><time>2026-04-05T12:10:37.033Z</time></trkpt><trkpt lat="38.3982192" lon="-0.7363283"><ele>251.0</ele><time>2026-04-05T12:10:38.032Z</time></trkpt><trkpt lat="38.39815" lon="-0.7364469"><ele>251.0</ele><time>2026-04-05T12:10:39.033Z</time></trkpt><trkpt lat="38.3980834" lon="-0.7365868"><ele>251.0</ele><time>2026-04-05T12:10:40.033Z</time></trkpt><trkpt lat="38.3980172" lon="-0.7367358"><ele>249.33333333333334</ele><time>2026-04-05T12:10:41.032Z</time></trkpt><trkpt lat="38.3979547" lon="-0.7369002"><ele>247.66666666666669</ele><time>2026-04-05T12:10:42.032Z</time></trkpt><trkpt lat="38.397875" lon="-0.7370838"><ele>246.0</ele><time>2026-04-05T12:10:43.032Z</time></trkpt><trkpt lat="38.3977963" lon="-0.7372723"><ele>246.0</ele><time>2026-04-05T12:10:44.032Z</time></trkpt><trkpt lat="38.3977144" lon="-0.7374753"><ele>246.0</ele><time>2026-04-05T12:10:45.033Z</time></trkpt><trkpt lat="38.3976283" lon="-0.7376899"><ele>246.0</ele><time>2026-04-05T12:10:46.033Z</time></trkpt><trkpt lat="38.3975398" lon="-0.737913"><ele>246.66666666666669</ele><time>2026-04-05T12:10:47.032Z</time></trkpt><trkpt lat="38.3974423" lon="-0.7381365"><ele>247.33333333333334</ele><time>2026-04-05T12:10:48.033Z</time></trkpt><trkpt lat="38.3973315" lon="-0.7383536"><ele>248.0</ele><time>2026-04-05T12:10:49.033Z</time></trkpt><trkpt lat="38.397201" lon="-0.7385611"><ele>248.0</ele><time>2026-04-05T12:10:50.032Z</time></trkpt><trkpt lat="38.397059" lon="-0.7387733"><ele>248.0</ele><time>2026-04-05T12:10:51.032Z</time></trkpt><trkpt lat="38.3969166" lon="-0.7389854"><ele>248.0</ele><time>2026-04-05T12:10:52.032Z</time></trkpt><trkpt lat="38.3967514" lon="-0.7392143"><ele>247.0</ele><time>2026-04-05T12:10:53.032Z</time></trkpt><trkpt lat="38.396588" lon="-0.7394367"><ele>246.0</ele><time>2026-04-05T12:10:54.032Z</time></trkpt><trkpt lat="38.3964303" lon="-0.7396217"><ele>245.5</ele><time>2026-04-05T12:10:55.033Z</time></trkpt><trkpt lat="38.3962493" lon="-0.7397914"><ele>245.0</ele><time>2026-04-05T12:10:56.032Z</time></trkpt><trkpt lat="38.3960459" lon="-0.7399405"><ele>245.0</ele><time>2026-04-05T12:10:57.032Z</time></trkpt><trkpt lat="38.395829" lon="-0.7400877"><ele>245.0</ele><time>2026-04-05T12:10:58.032Z</time></trkpt><trkpt lat="38.395607" lon="-0.7402572"><ele>243.5</ele><time>2026-04-05T12:10:59.032Z</time></trkpt><trkpt lat="38.3953893" lon="-0.7404194"><ele>242.0</ele><time>2026-04-05T12:11:00.032Z</time></trkpt><trkpt lat="38.3951922" lon="-0.7406714"><ele>242.0</ele><time>2026-04-05T12:11:01.032Z</time></trkpt><trkpt lat="38.3950023" lon="-0.7409416"><ele>242.0</ele><time>2026-04-05T12:11:02.033Z</time></trkpt><trkpt lat="38.3948202" lon="-0.7412262"><ele>241.0</ele><time>2026-04-05T12:11:03.032Z</time></trkpt><trkpt lat="38.394639" lon="-0.7415074"><ele>240.0</ele><time>2026-04-05T12:11:04.033Z</time></trkpt><trkpt lat="38.3944621" lon="-0.7417681"><ele>240.5</ele><time>2026-04-05T12:11:05.032Z</time></trkpt><trkpt lat="38.3942986" lon="-0.7420047"><ele>241.0</ele><time>2026-04-05T12:11:06.032Z</time></trkpt><trkpt lat="38.3941457" lon="-0.7422358"><ele>241.0</ele><time>2026-04-05T12:11:07.033Z</time></trkpt><trkpt lat="38.3939922" lon="-0.7424638"><ele>241.0</ele><time>2026-04-05T12:11:08.033Z</time></trkpt><trkpt lat="38.3938533" lon="-0.7426759"><ele>240.0</ele><time>2026-04-05T12:11:09.033Z</time></trkpt><trkpt lat="38.3937271" lon="-0.742881"><ele>239.0</ele><time>2026-04-05T12:11:10.033Z</time></trkpt><trkpt lat="38.3936049" lon="-0.7430839"><ele>238.0</ele><time>2026-04-05T12:11:11.033Z</time></trkpt><trkpt lat="38.3934902" lon="-0.743288"><ele>238.0</ele><time>2026-04-05T12:11:12.033Z</time></trkpt><trkpt lat="38.3933793" lon="-0.743489"><ele>238.0</ele><time>2026-04-05T12:11:13.032Z</time></trkpt><trkpt lat="38.3932829" lon="-0.7436859"><ele>238.0</ele><time>2026-04-05T12:11:14.032Z</time></trkpt><trkpt lat="38.3931892" lon="-0.7438717"><ele>238.5</ele><time>2026-04-05T12:11:15.032Z</time></trkpt><trkpt lat="38.3931088" lon="-0.7440403"><ele>239.0</ele><time>2026-04-05T12:11:16.033Z</time></trkpt><trkpt lat="38.3930261" lon="-0.7441938"><ele>239.5</ele><time>2026-04-05T12:11:17.033Z</time></trkpt><trkpt lat="38.392958" lon="-0.7443328"><ele>240.0</ele><time>2026-04-05T12:11:18.032Z</time></trkpt><trkpt lat="38.3929102" lon="-0.7444576"><ele>240.0</ele><time>2026-04-05T12:11:19.032Z</time></trkpt><trkpt lat="38.392888" lon="-0.7445816"><ele>240.0</ele><time>2026-04-05T12:11:20.033Z</time></trkpt><trkpt lat="38.392876" lon="-0.744711"><ele>240.0</ele><time>2026-04-05T12:11:21.032Z</time></trkpt><trkpt lat="38.3928448" lon="-0.7448227"><ele>240.0</ele><time>2026-04-05T12:11:22.033Z</time></trkpt><trkpt lat="38.3927807" lon="-0.7449202"><ele>240.0</ele><time>2026-04-05T12:11:23.033Z</time></trkpt><trkpt lat="38.3926979" lon="-0.7450093"><ele>240.0</ele><time>2026-04-05T12:11:24.032Z</time></trkpt><trkpt lat="38.3926253" lon="-0.7451286"><ele>240.0</ele><time>2026-04-05T12:11:25.033Z</time></trkpt><trkpt lat="38.392563" lon="-0.7452803"><ele>240.0</ele><time>2026-04-05T12:11:26.033Z</time></trkpt><trkpt lat="38.3924984" lon="-0.7454128"><ele>240.0</ele><time>2026-04-05T12:11:27.033Z</time></trkpt><trkpt lat="38.3924414" lon="-0.7455425"><ele>240.0</ele><time>2026-04-05T12:11:28.032Z</time></trkpt><trkpt lat="38.39243" lon="-0.7456505"><ele>240.0</ele><time>2026-04-05T12:11:29.032Z</time></trkpt><trkpt lat="38.3924189" lon="-0.745777"><ele>240.0</ele><time>2026-04-05T12:11:30.033Z</time></trkpt><trkpt lat="38.3924005" lon="-0.745901"><ele>240.0</ele><time>2026-04-05T12:11:31.032Z</time></trkpt><trkpt lat="38.392353" lon="-0.7460094"><ele>240.0</ele><time>2026-04-05T12:11:32.032Z</time></trkpt><trkpt lat="38.392298" lon="-0.7460948"><ele>240.4</ele><time>2026-04-05T12:11:33.033Z</time></trkpt><trkpt lat="38.3921855" lon="-0.7461065"><ele>240.8</ele><time>2026-04-05T12:11:34.032Z</time></trkpt><trkpt lat="38.3920895" lon="-0.7460837"><ele>241.2</ele><time>2026-04-05T12:11:35.032Z</time></trkpt><trkpt lat="38.3919939" lon="-0.7460266"><ele>241.6</ele><time>2026-04-05T12:11:36.032Z</time></trkpt><trkpt lat="38.3918755" lon="-0.7460073"><ele>242.0</ele><time>2026-04-05T12:11:37.032Z</time></trkpt><trkpt lat="38.3917422" lon="-0.7460317"><ele>240.33333333333334</ele><time>2026-04-05T12:11:38.033Z</time></trkpt><trkpt lat="38.3915882" lon="-0.7460625"><ele>238.66666666666669</ele><time>2026-04-05T12:11:39.033Z</time></trkpt><trkpt lat="38.3913994" lon="-0.7461045"><ele>237.0</ele><time>2026-04-05T12:11:40.032Z</time></trkpt><trkpt lat="38.3912036" lon="-0.7461474"><ele>236.0</ele><time>2026-04-05T12:11:41.033Z</time></trkpt><trkpt lat="38.3909843" lon="-0.746174"><ele>235.0</ele><time>2026-04-05T12:11:42.032Z</time></trkpt><trkpt lat="38.3907553" lon="-0.7461981"><ele>233.0</ele><time>2026-04-05T12:11:43.033Z</time></trkpt><trkpt lat="38.3904958" lon="-0.7461825"><ele>231.0</ele><time>2026-04-05T12:11:44.032Z</time></trkpt><trkpt lat="38.3902316" lon="-0.7461461"><ele>231.0</ele><time>2026-04-05T12:11:45.033Z</time></trkpt><trkpt lat="38.3899476" lon="-0.7460847"><ele>231.0</ele><time>2026-04-05T12:11:46.032Z</time></trkpt><trkpt lat="38.3896495" lon="-0.7459858"><ele>229.5</ele><time>2026-04-05T12:11:47.032Z</time></trkpt><trkpt lat="38.3893624" lon="-0.7458539"><ele>228.0</ele><time>2026-04-05T12:11:48.032Z</time></trkpt><trkpt lat="38.3890724" lon="-0.7456872"><ele>228.5</ele><time>2026-04-05T12:11:49.032Z</time></trkpt><trkpt lat="38.388782" lon="-0.7454779"><ele>229.0</ele><time>2026-04-05T12:11:50.032Z</time></trkpt><trkpt lat="38.3884941" lon="-0.7452525"><ele>228.5</ele><time>2026-04-05T12:11:51.032Z</time></trkpt><trkpt lat="38.3882074" lon="-0.7450116"><ele>228.0</ele><time>2026-04-05T12:11:52.032Z</time></trkpt><trkpt lat="38.3879374" lon="-0.7447916"><ele>229.0</ele><time>2026-04-05T12:11:53.033Z</time></trkpt><trkpt lat="38.3876918" lon="-0.7445894"><ele>230.0</ele><time>2026-04-05T12:11:54.032Z</time></trkpt><trkpt lat="38.3874425" lon="-0.7443692"><ele>230.0</ele><time>2026-04-05T12:11:55.033Z</time></trkpt><trkpt lat="38.3872656" lon="-0.7442338"><ele>230.0</ele><time>2026-04-05T12:11:56.033Z</time></trkpt><trkpt lat="38.387093" lon="-0.7440894"><ele>230.0</ele><time>2026-04-05T12:11:57.033Z</time></trkpt><trkpt lat="38.3869449" lon="-0.7439765"><ele>229.4</ele><time>2026-04-05T12:11:58.032Z</time></trkpt><trkpt lat="38.3868172" lon="-0.7438905"><ele>228.8</ele><time>2026-04-05T12:11:59.033Z</time></trkpt><trkpt lat="38.3867229" lon="-0.7438378"><ele>228.2</ele><time>2026-04-05T12:12:00.033Z</time></trkpt><trkpt lat="38.3866349" lon="-0.7438309"><ele>227.6</ele><time>2026-04-05T12:12:01.032Z</time></trkpt><trkpt lat="38.3865509" lon="-0.7438694"><ele>227.0</ele><time>2026-04-05T12:12:02.032Z</time></trkpt><trkpt lat="38.386455" lon="-0.7439486"><ele>227.0</ele><time>2026-04-05T12:12:03.033Z</time></trkpt><trkpt lat="38.3863513" lon="-0.7440345"><ele>227.0</ele><time>2026-04-05T12:12:04.033Z</time></trkpt><trkpt lat="38.3862255" lon="-0.7440933"><ele>227.0</ele><time>2026-04-05T12:12:05.032Z</time></trkpt><trkpt lat="38.3860865" lon="-0.7441083"><ele>227.0</ele><time>2026-04-05T12:12:06.032Z</time></trkpt><trkpt lat="38.3859464" lon="-0.744083"><ele>227.0</ele><time>2026-04-05T12:12:07.033Z</time></trkpt><trkpt lat="38.3857952" lon="-0.7440504"><ele>227.0</ele><time>2026-04-05T12:12:08.032Z</time></trkpt><trkpt lat="38.3856572" lon="-0.7440647"><ele>227.0</ele><time>2026-04-05T12:12:09.033Z</time></trkpt><trkpt lat="38.3855251" lon="-0.7441421"><ele>227.0</ele><time>2026-04-05T12:12:10.032Z</time></trkpt><trkpt lat="38.3853884" lon="-0.7442778"><ele>227.0</ele><time>2026-04-05T12:12:11.032Z</time></trkpt><trkpt lat="38.3852376" lon="-0.7444573"><ele>227.0</ele><time>2026-04-05T12:12:12.033Z</time></trkpt><trkpt lat="38.3850833" lon="-0.7446641"><ele>227.0</ele><time>2026-04-05T12:12:13.033Z</time></trkpt><trkpt lat="38.3849188" lon="-0.7448964"><ele>227.0</ele><time>2026-04-05T12:12:14.032Z</time></trkpt><trkpt lat="38.3847448" lon="-0.7451499"><ele>227.0</ele><time>2026-04-05T12:12:15.032Z</time></trkpt><trkpt lat="38.3845657" lon="-0.7454061"><ele>225.0</ele><time>2026-04-05T12:12:16.032Z</time></trkpt><trkpt lat="38.3843769" lon="-0.7456719"><ele>223.0</ele><time>2026-04-05T12:12:17.033Z</time></trkpt><trkpt lat="38.3841859" lon="-0.7459451"><ele>223.5</ele><time>2026-04-05T12:12:18.033Z</time></trkpt><trkpt lat="38.3839959" lon="-0.7462211"><ele>224.0</ele><time>2026-04-05T12:12:19.032Z</time></trkpt><trkpt lat="38.3838011" lon="-0.7464898"><ele>224.0</ele><time>2026-04-05T12:12:20.032Z</time></trkpt><trkpt lat="38.3836089" lon="-0.7467623"><ele>224.0</ele><time>2026-04-05T12:12:21.032Z</time></trkpt><trkpt lat="38.383415" lon="-0.747039"><ele>223.5</ele><time>2026-04-05T12:12:22.033Z</time></trkpt><trkpt lat="38.3832153" lon="-0.7473148"><ele>223.0</ele><time>2026-04-05T12:12:23.033Z</time></trkpt><trkpt lat="38.3830195" lon="-0.7475913"><ele>224.0</ele><time>2026-04-05T12:12:24.032Z</time></trkpt><trkpt lat="38.3828271" lon="-0.7478636"><ele>225.0</ele><time>2026-04-05T12:12:25.032Z</time></trkpt><trkpt lat="38.3826438" lon="-0.7481306"><ele>225.0</ele><time>2026-04-05T12:12:26.033Z</time></trkpt><trkpt lat="38.3824647" lon="-0.7483922"><ele>225.0</ele><time>2026-04-05T12:12:27.033Z</time></trkpt><trkpt lat="38.3822935" lon="-0.7486619"><ele>226.5</ele><time>2026-04-05T12:12:28.032Z</time></trkpt><trkpt lat="38.3821264" lon="-0.7489333"><ele>228.0</ele><time>2026-04-05T12:12:29.033Z</time></trkpt><trkpt lat="38.3819689" lon="-0.7491306"><ele>228.0</ele><time>2026-04-05T12:12:30.032Z</time></trkpt><trkpt lat="38.3818277" lon="-0.7493258"><ele>228.0</ele><time>2026-04-05T12:12:31.032Z</time></trkpt><trkpt lat="38.3817019" lon="-0.7495027"><ele>228.0</ele><time>2026-04-05T12:12:32.033Z</time></trkpt><trkpt lat="38.3816028" lon="-0.7496454"><ele>228.2</ele><time>2026-04-05T12:12:33.032Z</time></trkpt><trkpt lat="38.3815326" lon="-0.7497708"><ele>228.4</ele><time>2026-04-05T12:12:34.033Z</time></trkpt><trkpt lat="38.3814874" lon="-0.7498794"><ele>228.59999999999997</ele><time>2026-04-05T12:12:35.032Z</time></trkpt><trkpt lat="38.3814674" lon="-0.7499761"><ele>228.79999999999998</ele><time>2026-04-05T12:12:36.032Z</time></trkpt><trkpt lat="38.3814764" lon="-0.7500905"><ele>229.0</ele><time>2026-04-05T12:12:37.033Z</time></trkpt><trkpt lat="38.3815067" lon="-0.7502047"><ele>229.0</ele><time>2026-04-05T12:12:38.033Z</time></trkpt><trkpt lat="38.3815126" lon="-0.7503255"><ele>228.99999999999997</ele><time>2026-04-05T12:12:39.032Z</time></trkpt><trkpt lat="38.3814959" lon="-0.7504423"><ele>228.99999999999997</ele><time>2026-04-05T12:12:40.032Z</time></trkpt><trkpt lat="38.3814471" lon="-0.7505637"><ele>229.0</ele><time>2026-04-05T12:12:41.032Z</time></trkpt><trkpt lat="38.3813687" lon="-0.7506589"><ele>229.0</ele><time>2026-04-05T12:12:42.032Z</time></trkpt><trkpt lat="38.3812595" lon="-0.7507219"><ele>228.75</ele><time>2026-04-05T12:12:43.032Z</time></trkpt><trkpt lat="38.3811333" lon="-0.7507632"><ele>228.5</ele><time>2026-04-05T12:12:44.033Z</time></trkpt><trkpt lat="38.3810163" lon="-0.750838"><ele>228.25</ele><time>2026-04-05T12:12:45.032Z</time></trkpt><trkpt lat="38.3809293" lon="-0.7509708"><ele>228.0</ele><time>2026-04-05T12:12:46.033Z</time></trkpt><trkpt lat="38.3808916" lon="-0.7511397"><ele>227.66666666666669</ele><time>2026-04-05T12:12:47.033Z</time></trkpt><trkpt lat="38.3808809" lon="-0.7513425"><ele>227.33333333333334</ele><time>2026-04-05T12:12:48.032Z</time></trkpt><trkpt lat="38.3808844" lon="-0.7515556"><ele>227.0</ele><time>2026-04-05T12:12:49.033Z</time></trkpt><trkpt lat="38.3808972" lon="-0.7517946"><ele>227.33333333333334</ele><time>2026-04-05T12:12:50.032Z</time></trkpt><trkpt lat="38.3809091" lon="-0.7520649"><ele>227.66666666666669</ele><time>2026-04-05T12:12:51.033Z</time></trkpt><trkpt lat="38.3809153" lon="-0.7523505"><ele>228.0</ele><time>2026-04-05T12:12:52.033Z</time></trkpt><trkpt lat="38.3809047" lon="-0.7526484"><ele>228.0</ele><time>2026-04-05T12:12:53.032Z</time></trkpt><trkpt lat="38.3808762" lon="-0.7529641"><ele>228.0</ele><time>2026-04-05T12:12:54.033Z</time></trkpt><trkpt lat="38.3808348" lon="-0.753305"><ele>229.0</ele><time>2026-04-05T12:12:55.033Z</time></trkpt><trkpt lat="38.3807796" lon="-0.7536495"><ele>230.0</ele><time>2026-04-05T12:12:56.033Z</time></trkpt><trkpt lat="38.3807102" lon="-0.7540092"><ele>230.0</ele><time>2026-04-05T12:12:57.032Z</time></trkpt><trkpt lat="38.3806155" lon="-0.7543823"><ele>230.0</ele><time>2026-04-05T12:12:58.032Z</time></trkpt><trkpt lat="38.3805026" lon="-0.7547409"><ele>230.0</ele><time>2026-04-05T12:12:59.032Z</time></trkpt><trkpt lat="38.3803692" lon="-0.7550935"><ele>230.0</ele><time>2026-04-05T12:13:00.032Z</time></trkpt><trkpt lat="38.3802289" lon="-0.755417"><ele>229.5</ele><time>2026-04-05T12:13:01.032Z</time></trkpt><trkpt lat="38.3800852" lon="-0.7557104"><ele>229.0</ele><time>2026-04-05T12:13:02.032Z</time></trkpt><trkpt lat="38.3799399" lon="-0.7559772"><ele>229.0</ele><time>2026-04-05T12:13:03.033Z</time></trkpt><trkpt lat="38.3797843" lon="-0.7562306"><ele>229.0</ele><time>2026-04-05T12:13:04.032Z</time></trkpt><trkpt lat="38.3796247" lon="-0.7564774"><ele>229.0</ele><time>2026-04-05T12:13:05.032Z</time></trkpt><trkpt lat="38.37946" lon="-0.7567127"><ele>229.0</ele><time>2026-04-05T12:13:06.032Z</time></trkpt><trkpt lat="38.3793" lon="-0.7569281"><ele>229.0</ele><time>2026-04-05T12:13:07.032Z</time></trkpt><trkpt lat="38.3791426" lon="-0.7571374"><ele>229.0</ele><time>2026-04-05T12:13:08.033Z</time></trkpt><trkpt lat="38.3790019" lon="-0.7573329"><ele>229.0</ele><time>2026-04-05T12:13:09.032Z</time></trkpt><trkpt lat="38.3788738" lon="-0.7575196"><ele>228.33333333333331</ele><time>2026-04-05T12:13:10.032Z</time></trkpt><trkpt lat="38.3787661" lon="-0.7576961"><ele>227.66666666666669</ele><time>2026-04-05T12:13:11.032Z</time></trkpt><trkpt lat="38.378679" lon="-0.7578592"><ele>227.0</ele><time>2026-04-05T12:13:12.032Z</time></trkpt><trkpt lat="38.3786068" lon="-0.7580161"><ele>227.75</ele><time>2026-04-05T12:13:13.032Z</time></trkpt><trkpt lat="38.3785676" lon="-0.7581704"><ele>228.5</ele><time>2026-04-05T12:13:14.032Z</time></trkpt><trkpt lat="38.3785522" lon="-0.7583247"><ele>229.25</ele><time>2026-04-05T12:13:15.032Z</time></trkpt><trkpt lat="38.3785481" lon="-0.758481"><ele>230.0</ele><time>2026-04-05T12:13:16.033Z</time></trkpt><trkpt lat="38.3785209" lon="-0.7586314"><ele>230.0</ele><time>2026-04-05T12:13:17.033Z</time></trkpt><trkpt lat="38.3784691" lon="-0.7587622"><ele>230.0</ele><time>2026-04-05T12:13:18.033Z</time></trkpt><trkpt lat="38.378358" lon="-0.7588384"><ele>230.0</ele><time>2026-04-05T12:13:19.032Z</time></trkpt><trkpt lat="38.378233" lon="-0.758881"><ele>230.0</ele><time>2026-04-05T12:13:20.033Z</time></trkpt><trkpt lat="38.378098" lon="-0.7589053"><ele>230.33333333333334</ele><time>2026-04-05T12:13:21.032Z</time></trkpt><trkpt lat="38.3779564" lon="-0.7589703"><ele>230.66666666666669</ele><time>2026-04-05T12:13:22.032Z</time></trkpt><trkpt lat="38.37781" lon="-0.759086"><ele>231.0</ele><time>2026-04-05T12:13:23.032Z</time></trkpt><trkpt lat="38.3776474" lon="-0.7592457"><ele>230.5</ele><time>2026-04-05T12:13:24.033Z</time></trkpt><trkpt lat="38.3774742" lon="-0.7594471"><ele>230.0</ele><time>2026-04-05T12:13:25.033Z</time></trkpt><trkpt lat="38.3772992" lon="-0.7596743"><ele>229.0</ele><time>2026-04-05T12:13:26.033Z</time></trkpt><trkpt lat="38.3771206" lon="-0.7599202"><ele>228.0</ele><time>2026-04-05T12:13:27.033Z</time></trkpt><trkpt lat="38.3769434" lon="-0.7601967"><ele>229.0</ele><time>2026-04-05T12:13:28.032Z</time></trkpt><trkpt lat="38.3767771" lon="-0.7604895"><ele>230.0</ele><time>2026-04-05T12:13:29.032Z</time></trkpt><trkpt lat="38.3766226" lon="-0.7607883"><ele>230.0</ele><time>2026-04-05T12:13:30.032Z</time></trkpt><trkpt lat="38.3764721" lon="-0.7611299"><ele>230.0</ele><time>2026-04-05T12:13:31.033Z</time></trkpt><trkpt lat="38.3763356" lon="-0.7614679"><ele>230.0</ele><time>2026-04-05T12:13:32.032Z</time></trkpt><trkpt lat="38.3762183" lon="-0.7618224"><ele>230.0</ele><time>2026-04-05T12:13:33.033Z</time></trkpt><trkpt lat="38.3761059" lon="-0.7621938"><ele>230.0</ele><time>2026-04-05T12:13:34.032Z</time></trkpt><trkpt lat="38.3760073" lon="-0.7625816"><ele>230.0</ele><time>2026-04-05T12:13:35.032Z</time></trkpt><trkpt lat="38.3759198" lon="-0.7629808"><ele>228.5</ele><time>2026-04-05T12:13:36.033Z</time></trkpt><trkpt lat="38.3758439" lon="-0.7633852"><ele>227.0</ele><time>2026-04-05T12:13:37.032Z</time></trkpt><trkpt lat="38.3757801" lon="-0.7637782"><ele>227.0</ele><time>2026-04-05T12:13:38.033Z</time></trkpt><trkpt lat="38.375725" lon="-0.7641479"><ele>227.0</ele><time>2026-04-05T12:13:39.032Z</time></trkpt><trkpt lat="38.3756706" lon="-0.7644946"><ele>228.0</ele><time>2026-04-05T12:13:40.033Z</time></trkpt><trkpt lat="38.3756175" lon="-0.764825"><ele>229.0</ele><time>2026-04-05T12:13:41.032Z</time></trkpt><trkpt lat="38.3755643" lon="-0.7651431"><ele>229.0</ele><time>2026-04-05T12:13:42.033Z</time></trkpt><trkpt lat="38.3755134" lon="-0.7654614"><ele>229.0</ele><time>2026-04-05T12:13:43.032Z</time></trkpt><trkpt lat="38.3754672" lon="-0.7657722"><ele>228.5</ele><time>2026-04-05T12:13:44.033Z</time></trkpt><trkpt lat="38.3754138" lon="-0.766079"><ele>228.0</ele><time>2026-04-05T12:13:45.033Z</time></trkpt><trkpt lat="38.3753619" lon="-0.7663838"><ele>228.0</ele><time>2026-04-05T12:13:46.033Z</time></trkpt><trkpt lat="38.375312" lon="-0.7666799"><ele>228.0</ele><time>2026-04-05T12:13:47.033Z</time></trkpt><trkpt lat="38.37526" lon="-0.7669703"><ele>229.0</ele><time>2026-04-05T12:13:48.033Z</time></trkpt><trkpt lat="38.3751997" lon="-0.7672603"><ele>230.0</ele><time>2026-04-05T12:13:49.033Z</time></trkpt><trkpt lat="38.3751662" lon="-0.7675325"><ele>229.66666666666669</ele><time>2026-04-05T12:13:50.033Z</time></trkpt><trkpt lat="38.3751144" lon="-0.7678052"><ele>229.33333333333331</ele><time>2026-04-05T12:13:51.033Z</time></trkpt><trkpt lat="38.3750812" lon="-0.768056"><ele>229.0</ele><time>2026-04-05T12:13:52.033Z</time></trkpt><trkpt lat="38.3750411" lon="-0.7683021"><ele>230.0</ele><time>2026-04-05T12:13:53.033Z</time></trkpt><trkpt lat="38.3750066" lon="-0.7685505"><ele>231.0</ele><time>2026-04-05T12:13:54.033Z</time></trkpt><trkpt lat="38.374965" lon="-0.7687587"><ele>232.0</ele><time>2026-04-05T12:13:55.032Z</time></trkpt><trkpt lat="38.3749329" lon="-0.7689749"><ele>232.0</ele><time>2026-04-05T12:13:56.033Z</time></trkpt><trkpt lat="38.374901" lon="-0.7691869"><ele>232.0</ele><time>2026-04-05T12:13:57.033Z</time></trkpt><trkpt lat="38.3748633" lon="-0.769389"><ele>232.0</ele><time>2026-04-05T12:13:58.033Z</time></trkpt><trkpt lat="38.3748348" lon="-0.7695825"><ele>232.25</ele><time>2026-04-05T12:13:59.032Z</time></trkpt><trkpt lat="38.3748036" lon="-0.76978"><ele>232.5</ele><time>2026-04-05T12:14:00.032Z</time></trkpt><trkpt lat="38.3747689" lon="-0.7699647"><ele>232.75</ele><time>2026-04-05T12:14:01.033Z</time></trkpt><trkpt lat="38.3747361" lon="-0.7701402"><ele>233.0</ele><time>2026-04-05T12:14:02.032Z</time></trkpt><trkpt lat="38.3747089" lon="-0.7702557"><ele>233.33333333333334</ele><time>2026-04-05T12:14:03.032Z</time></trkpt><trkpt lat="38.3746767" lon="-0.7703687"><ele>233.66666666666669</ele><time>2026-04-05T12:14:04.033Z</time></trkpt><trkpt lat="38.3746563" lon="-0.7704664"><ele>234.0</ele><time>2026-04-05T12:14:05.032Z</time></trkpt><trkpt lat="38.3746394" lon="-0.77056"><ele>234.33333333333331</ele><time>2026-04-05T12:14:06.033Z</time></trkpt><trkpt lat="38.3746243" lon="-0.7706487"><ele>234.66666666666666</ele><time>2026-04-05T12:14:07.032Z</time></trkpt><trkpt lat="38.3746229" lon="-0.7707482"><ele>235.0</ele><time>2026-04-05T12:14:08.033Z</time></trkpt><trkpt lat="38.3746425" lon="-0.7708462"><ele>234.83333333333331</ele><time>2026-04-05T12:14:09.033Z</time></trkpt><trkpt lat="38.3746928" lon="-0.7709323"><ele>234.66666666666666</ele><time>2026-04-05T12:14:10.032Z</time></trkpt><trkpt lat="38.3747539" lon="-0.7710064"><ele>234.5</ele><time>2026-04-05T12:14:11.033Z</time></trkpt><trkpt lat="38.374807" lon="-0.7710964"><ele>234.33333333333331</ele><time>2026-04-05T12:14:12.033Z</time></trkpt><trkpt lat="38.3748389" lon="-0.7711988"><ele>234.16666666666666</ele><time>2026-04-05T12:14:13.032Z</time></trkpt><trkpt lat="38.3748401" lon="-0.7713118"><ele>234.0</ele><time>2026-04-05T12:14:14.032Z</time></trkpt><trkpt lat="38.3748165" lon="-0.7714229"><ele>234.16666666666666</ele><time>2026-04-05T12:14:15.032Z</time></trkpt><trkpt lat="38.3747699" lon="-0.7715136"><ele>234.33333333333331</ele><time>2026-04-05T12:14:16.033Z</time></trkpt><trkpt lat="38.3747017" lon="-0.7715854"><ele>234.5</ele><time>2026-04-05T12:14:17.032Z</time></trkpt><trkpt lat="38.3746248" lon="-0.7716231"><ele>234.66666666666666</ele><time>2026-04-05T12:14:18.033Z</time></trkpt><trkpt lat="38.3745411" lon="-0.7716271"><ele>234.83333333333331</ele><time>2026-04-05T12:14:19.032Z</time></trkpt><trkpt lat="38.3744561" lon="-0.7716003"><ele>235.0</ele><time>2026-04-05T12:14:20.032Z</time></trkpt><trkpt lat="38.3743736" lon="-0.7715325"><ele>235.0</ele><time>2026-04-05T12:14:21.033Z</time></trkpt><trkpt lat="38.3742841" lon="-0.7714476"><ele>235.0</ele><time>2026-04-05T12:14:22.032Z</time></trkpt><trkpt lat="38.3741827" lon="-0.7713849"><ele>235.0</ele><time>2026-04-05T12:14:23.032Z</time></trkpt><trkpt lat="38.374066" lon="-0.7713614"><ele>235.0</ele><time>2026-04-05T12:14:24.032Z</time></trkpt><trkpt lat="38.3739445" lon="-0.7713544"><ele>235.0</ele><time>2026-04-05T12:14:25.033Z</time></trkpt><trkpt lat="38.3738076" lon="-0.7713769"><ele>235.0</ele><time>2026-04-05T12:14:26.033Z</time></trkpt><trkpt lat="38.3736164" lon="-0.7713984"><ele>235.0</ele><time>2026-04-05T12:14:27.032Z</time></trkpt><trkpt lat="38.3733935" lon="-0.7714294"><ele>235.0</ele><time>2026-04-05T12:14:28.032Z</time></trkpt><trkpt lat="38.373143" lon="-0.7714697"><ele>235.0</ele><time>2026-04-05T12:14:29.033Z</time></trkpt><trkpt lat="38.3728876" lon="-0.7715013"><ele>236.0</ele><time>2026-04-05T12:14:30.032Z</time></trkpt><trkpt lat="38.3726372" lon="-0.7715252"><ele>237.0</ele><time>2026-04-05T12:14:31.033Z</time></trkpt><trkpt lat="38.3724048" lon="-0.7715446"><ele>237.0</ele><time>2026-04-05T12:14:32.032Z</time></trkpt><trkpt lat="38.3721917" lon="-0.7715621"><ele>237.0</ele><time>2026-04-05T12:14:33.033Z</time></trkpt><trkpt lat="38.3719883" lon="-0.7715766"><ele>237.0</ele><time>2026-04-05T12:14:34.033Z</time></trkpt><trkpt lat="38.3717895" lon="-0.7715971"><ele>237.33333333333331</ele><time>2026-04-05T12:14:35.032Z</time></trkpt><trkpt lat="38.3716001" lon="-0.7716157"><ele>237.66666666666666</ele><time>2026-04-05T12:14:36.033Z</time></trkpt><trkpt lat="38.371422" lon="-0.7716312"><ele>238.0</ele><time>2026-04-05T12:14:37.033Z</time></trkpt><trkpt lat="38.3712599" lon="-0.7716438"><ele>238.0</ele><time>2026-04-05T12:14:38.033Z</time></trkpt><trkpt lat="38.3711163" lon="-0.7716626"><ele>238.0</ele><time>2026-04-05T12:14:39.032Z</time></trkpt><trkpt lat="38.3709819" lon="-0.7716927"><ele>238.0</ele><time>2026-04-05T12:14:40.033Z</time></trkpt><trkpt lat="38.3708675" lon="-0.771751"><ele>238.0</ele><time>2026-04-05T12:14:41.033Z</time></trkpt><trkpt lat="38.3707651" lon="-0.7718327"><ele>237.75</ele><time>2026-04-05T12:14:42.032Z</time></trkpt><trkpt lat="38.3706571" lon="-0.7718974"><ele>237.5</ele><time>2026-04-05T12:14:43.033Z</time></trkpt><trkpt lat="38.3705327" lon="-0.7719143"><ele>237.25</ele><time>2026-04-05T12:14:44.032Z</time></trkpt><trkpt lat="38.3703965" lon="-0.7718805"><ele>237.0</ele><time>2026-04-05T12:14:45.033Z</time></trkpt><trkpt lat="38.370243" lon="-0.7718273"><ele>237.0</ele><time>2026-04-05T12:14:46.032Z</time></trkpt><trkpt lat="38.3700635" lon="-0.7717847"><ele>237.0</ele><time>2026-04-05T12:14:47.032Z</time></trkpt><trkpt lat="38.3698548" lon="-0.7717744"><ele>237.0</ele><time>2026-04-05T12:14:48.032Z</time></trkpt><trkpt lat="38.3696308" lon="-0.7717813"><ele>237.5</ele><time>2026-04-05T12:14:49.033Z</time></trkpt><trkpt lat="38.3694012" lon="-0.7717876"><ele>238.0</ele><time>2026-04-05T12:14:50.032Z</time></trkpt><trkpt lat="38.3691563" lon="-0.7718061"><ele>238.0</ele><time>2026-04-05T12:14:51.032Z</time></trkpt><trkpt lat="38.3689033" lon="-0.7718379"><ele>238.0</ele><time>2026-04-05T12:14:52.033Z</time></trkpt><trkpt lat="38.3686482" lon="-0.7718826"><ele>237.0</ele><time>2026-04-05T12:14:53.032Z</time></trkpt><trkpt lat="38.3684042" lon="-0.7719203"><ele>236.0</ele><time>2026-04-05T12:14:54.032Z</time></trkpt><trkpt lat="38.3681734" lon="-0.7719353"><ele>235.33333333333334</ele><time>2026-04-05T12:14:55.032Z</time></trkpt><trkpt lat="38.3679612" lon="-0.7719496"><ele>234.66666666666669</ele><time>2026-04-05T12:14:56.033Z</time></trkpt><trkpt lat="38.3677644" lon="-0.7719639"><ele>234.0</ele><time>2026-04-05T12:14:57.032Z</time></trkpt><trkpt lat="38.3675827" lon="-0.7719795"><ele>234.0</ele><time>2026-04-05T12:14:58.032Z</time></trkpt><trkpt lat="38.3674218" lon="-0.7719986"><ele>234.0</ele><time>2026-04-05T12:14:59.032Z</time></trkpt><trkpt lat="38.3672819" lon="-0.7720228"><ele>234.0</ele><time>2026-04-05T12:15:00.033Z</time></trkpt><trkpt lat="38.3671592" lon="-0.7720742"><ele>234.0</ele><time>2026-04-05T12:15:01.032Z</time></trkpt><trkpt lat="38.3670483" lon="-0.7721436"><ele>233.75</ele><time>2026-04-05T12:15:02.032Z</time></trkpt><trkpt lat="38.366937" lon="-0.7722173"><ele>233.5</ele><time>2026-04-05T12:15:03.033Z</time></trkpt><trkpt lat="38.3668219" lon="-0.7722533"><ele>233.25</ele><time>2026-04-05T12:15:04.033Z</time></trkpt><trkpt lat="38.366695" lon="-0.7722436"><ele>233.0</ele><time>2026-04-05T12:15:05.032Z</time></trkpt><trkpt lat="38.3665647" lon="-0.7722022"><ele>233.0</ele><time>2026-04-05T12:15:06.032Z</time></trkpt><trkpt lat="38.3663835" lon="-0.772152"><ele>233.0</ele><time>2026-04-05T12:15:07.032Z</time></trkpt><trkpt lat="38.3661843" lon="-0.7721305"><ele>233.0</ele><time>2026-04-05T12:15:08.033Z</time></trkpt><trkpt lat="38.3659579" lon="-0.7721359"><ele>233.0</ele><time>2026-04-05T12:15:09.032Z</time></trkpt><trkpt lat="38.3656943" lon="-0.7721467"><ele>233.0</ele><time>2026-04-05T12:15:10.032Z</time></trkpt><trkpt lat="38.3654078" lon="-0.7721575"><ele>233.5</ele><time>2026-04-05T12:15:11.033Z</time></trkpt><trkpt lat="38.3650908" lon="-0.7721786"><ele>234.0</ele><time>2026-04-05T12:15:12.032Z</time></trkpt><trkpt lat="38.3647702" lon="-0.7722128"><ele>233.0</ele><time>2026-04-05T12:15:13.032Z</time></trkpt><trkpt lat="38.3644255" lon="-0.7722593"><ele>232.0</ele><time>2026-04-05T12:15:14.033Z</time></trkpt><trkpt lat="38.3640766" lon="-0.7723131"><ele>231.5</ele><time>2026-04-05T12:15:15.033Z</time></trkpt><trkpt lat="38.3637253" lon="-0.7723513"><ele>231.0</ele><time>2026-04-05T12:15:16.033Z</time></trkpt><trkpt lat="38.3633969" lon="-0.7723842"><ele>231.0</ele><time>2026-04-05T12:15:17.032Z</time></trkpt><trkpt lat="38.363087" lon="-0.7724097"><ele>231.0</ele><time>2026-04-05T12:15:18.033Z</time></trkpt><trkpt lat="38.3627976" lon="-0.7724388"><ele>231.5</ele><time>2026-04-05T12:15:19.033Z</time></trkpt><trkpt lat="38.362513" lon="-0.7724658"><ele>232.0</ele><time>2026-04-05T12:15:20.033Z</time></trkpt><trkpt lat="38.3622412" lon="-0.7724974"><ele>230.5</ele><time>2026-04-05T12:15:21.032Z</time></trkpt><trkpt lat="38.3619715" lon="-0.7725307"><ele>229.0</ele><time>2026-04-05T12:15:22.032Z</time></trkpt><trkpt lat="38.3617068" lon="-0.7725748"><ele>229.0</ele><time>2026-04-05T12:15:23.032Z</time></trkpt><trkpt lat="38.3614475" lon="-0.7726312"><ele>229.0</ele><time>2026-04-05T12:15:24.032Z</time></trkpt><trkpt lat="38.3611906" lon="-0.7726913"><ele>229.0</ele><time>2026-04-05T12:15:25.032Z</time></trkpt><trkpt lat="38.3609441" lon="-0.7727504"><ele>229.0</ele><time>2026-04-05T12:15:26.032Z</time></trkpt><trkpt lat="38.3607142" lon="-0.7728084"><ele>229.0</ele><time>2026-04-05T12:15:27.032Z</time></trkpt><trkpt lat="38.360503" lon="-0.7728602"><ele>229.0</ele><time>2026-04-05T12:15:28.032Z</time></trkpt><trkpt lat="38.3603015" lon="-0.7729025"><ele>229.0</ele><time>2026-04-05T12:15:29.033Z</time></trkpt><trkpt lat="38.360112" lon="-0.7729426"><ele>229.0</ele><time>2026-04-05T12:15:30.033Z</time></trkpt><trkpt lat="38.3599317" lon="-0.7729723"><ele>229.0</ele><time>2026-04-05T12:15:31.032Z</time></trkpt><trkpt lat="38.3597505" lon="-0.7730016"><ele>229.0</ele><time>2026-04-05T12:15:32.032Z</time></trkpt><trkpt lat="38.3595772" lon="-0.773018"><ele>229.5</ele><time>2026-04-05T12:15:33.032Z</time></trkpt><trkpt lat="38.3594153" lon="-0.7730198"><ele>230.0</ele><time>2026-04-05T12:15:34.032Z</time></trkpt><trkpt lat="38.3592695" lon="-0.7730192"><ele>230.5</ele><time>2026-04-05T12:15:35.033Z</time></trkpt><trkpt lat="38.3591347" lon="-0.7730243"><ele>231.0</ele><time>2026-04-05T12:15:36.033Z</time></trkpt><trkpt lat="38.3590078" lon="-0.7730458"><ele>231.0</ele><time>2026-04-05T12:15:37.033Z</time></trkpt><trkpt lat="38.3588855" lon="-0.7730945"><ele>231.0</ele><time>2026-04-05T12:15:38.032Z</time></trkpt><trkpt lat="38.3587651" lon="-0.7731358"><ele>231.0</ele><time>2026-04-05T12:15:39.033Z</time></trkpt><trkpt lat="38.358639" lon="-0.7731507"><ele>231.0</ele><time>2026-04-05T12:15:40.033Z</time></trkpt><trkpt lat="38.3585224" lon="-0.7731104"><ele>231.0</ele><time>2026-04-05T12:15:41.032Z</time></trkpt><trkpt lat="38.3584169" lon="-0.7730173"><ele>231.0</ele><time>2026-04-05T12:15:42.032Z</time></trkpt><trkpt lat="38.3582966" lon="-0.7729096"><ele>231.0</ele><time>2026-04-05T12:15:43.033Z</time></trkpt><trkpt lat="38.3581599" lon="-0.772818"><ele>231.0</ele><time>2026-04-05T12:15:44.032Z</time></trkpt><trkpt lat="38.3580106" lon="-0.7727548"><ele>231.0</ele><time>2026-04-05T12:15:45.033Z</time></trkpt><trkpt lat="38.3577847" lon="-0.7726952"><ele>231.0</ele><time>2026-04-05T12:15:46.032Z</time></trkpt><trkpt lat="38.3575421" lon="-0.7726718"><ele>231.0</ele><time>2026-04-05T12:15:47.032Z</time></trkpt><trkpt lat="38.3572657" lon="-0.7726985"><ele>231.0</ele><time>2026-04-05T12:15:48.033Z</time></trkpt><trkpt lat="38.3569586" lon="-0.7727316"><ele>231.5</ele><time>2026-04-05T12:15:49.033Z</time></trkpt><trkpt lat="38.3566134" lon="-0.7727609"><ele>232.0</ele><time>2026-04-05T12:15:50.033Z</time></trkpt><trkpt lat="38.3562548" lon="-0.7727963"><ele>232.5</ele><time>2026-04-05T12:15:51.033Z</time></trkpt><trkpt lat="38.35593" lon="-0.7728456"><ele>233.0</ele><time>2026-04-05T12:15:52.033Z</time></trkpt><trkpt lat="38.3556377" lon="-0.772892"><ele>232.5</ele><time>2026-04-05T12:15:53.032Z</time></trkpt><trkpt lat="38.3553801" lon="-0.7729173"><ele>232.0</ele><time>2026-04-05T12:15:54.033Z</time></trkpt><trkpt lat="38.3551365" lon="-0.7729369"><ele>232.0</ele><time>2026-04-05T12:15:55.032Z</time></trkpt><trkpt lat="38.3549409" lon="-0.772945"><ele>232.0</ele><time>2026-04-05T12:15:56.033Z</time></trkpt><trkpt lat="38.354792" lon="-0.7729683"><ele>232.0</ele><time>2026-04-05T12:15:57.033Z</time></trkpt><trkpt lat="38.354733" lon="-0.7730642"><ele>232.0</ele><time>2026-04-05T12:15:59.033Z</time></trkpt><trkpt lat="38.3546464" lon="-0.773144"><ele>232.25</ele><time>2026-04-05T12:16:00.033Z</time></trkpt><trkpt lat="38.3545377" lon="-0.7731993"><ele>232.5</ele><time>2026-04-05T12:16:01.033Z</time></trkpt><trkpt lat="38.3544023" lon="-0.7732263"><ele>232.75</ele><time>2026-04-05T12:16:02.033Z</time></trkpt><trkpt lat="38.3542502" lon="-0.7732835"><ele>233.0</ele><time>2026-04-05T12:16:03.033Z</time></trkpt><trkpt lat="38.3540813" lon="-0.7733749"><ele>233.0</ele><time>2026-04-05T12:16:04.032Z</time></trkpt><trkpt lat="38.3538955" lon="-0.7734974"><ele>233.0</ele><time>2026-04-05T12:16:05.032Z</time></trkpt><trkpt lat="38.3536947" lon="-0.7736499"><ele>233.0</ele><time>2026-04-05T12:16:06.032Z</time></trkpt><trkpt lat="38.3534678" lon="-0.7738432"><ele>232.0</ele><time>2026-04-05T12:16:07.032Z</time></trkpt><trkpt lat="38.3532342" lon="-0.7740528"><ele>231.0</ele><time>2026-04-05T12:16:08.033Z</time></trkpt><trkpt lat="38.3529995" lon="-0.7742768"><ele>232.0</ele><time>2026-04-05T12:16:09.032Z</time></trkpt><trkpt lat="38.3527299" lon="-0.7745209"><ele>233.0</ele><time>2026-04-05T12:16:10.033Z</time></trkpt><trkpt lat="38.3524558" lon="-0.7747718"><ele>232.5</ele><time>2026-04-05T12:16:11.032Z</time></trkpt><trkpt lat="38.3521733" lon="-0.7750299"><ele>232.0</ele><time>2026-04-05T12:16:12.033Z</time></trkpt><trkpt lat="38.3518945" lon="-0.7752871"><ele>232.0</ele><time>2026-04-05T12:16:13.033Z</time></trkpt><trkpt lat="38.3516226" lon="-0.7755364"><ele>232.0</ele><time>2026-04-05T12:16:14.032Z</time></trkpt><trkpt lat="38.3513578" lon="-0.7757826"><ele>231.0</ele><time>2026-04-05T12:16:15.032Z</time></trkpt><trkpt lat="38.3511049" lon="-0.7760146"><ele>230.0</ele><time>2026-04-05T12:16:16.033Z</time></trkpt><trkpt lat="38.3508607" lon="-0.7762348"><ele>232.0</ele><time>2026-04-05T12:16:17.033Z</time></trkpt><trkpt lat="38.350626" lon="-0.7764545"><ele>234.0</ele><time>2026-04-05T12:16:18.033Z</time></trkpt><trkpt lat="38.3503914" lon="-0.7766738"><ele>236.5</ele><time>2026-04-05T12:16:19.032Z</time></trkpt><trkpt lat="38.3501526" lon="-0.7768951"><ele>239.0</ele><time>2026-04-05T12:16:20.032Z</time></trkpt><trkpt lat="38.3499103" lon="-0.777116"><ele>237.5</ele><time>2026-04-05T12:16:21.032Z</time></trkpt><trkpt lat="38.3496667" lon="-0.777339"><ele>236.0</ele><time>2026-04-05T12:16:22.032Z</time></trkpt><trkpt lat="38.3494225" lon="-0.7775661"><ele>238.0</ele><time>2026-04-05T12:16:23.033Z</time></trkpt><trkpt lat="38.3491737" lon="-0.7777935"><ele>240.0</ele><time>2026-04-05T12:16:24.033Z</time></trkpt><trkpt lat="38.3489248" lon="-0.7780233"><ele>239.0</ele><time>2026-04-05T12:16:25.033Z</time></trkpt><trkpt lat="38.3486769" lon="-0.7782491"><ele>238.0</ele><time>2026-04-05T12:16:26.032Z</time></trkpt><trkpt lat="38.3484332" lon="-0.7784731"><ele>239.0</ele><time>2026-04-05T12:16:27.032Z</time></trkpt><trkpt lat="38.3481764" lon="-0.7787063"><ele>240.0</ele><time>2026-04-05T12:16:28.032Z</time></trkpt><trkpt lat="38.3479328" lon="-0.7789278"><ele>240.5</ele><time>2026-04-05T12:16:29.032Z</time></trkpt><trkpt lat="38.3476872" lon="-0.7791439"><ele>241.0</ele><time>2026-04-05T12:16:30.032Z</time></trkpt><trkpt lat="38.34743" lon="-0.7793572"><ele>242.5</ele><time>2026-04-05T12:16:31.033Z</time></trkpt><trkpt lat="38.347163" lon="-0.7795627"><ele>244.0</ele><time>2026-04-05T12:16:32.032Z</time></trkpt><trkpt lat="38.3468864" lon="-0.7797474"><ele>244.0</ele><time>2026-04-05T12:16:33.032Z</time></trkpt><trkpt lat="38.3466214" lon="-0.7799116"><ele>244.0</ele><time>2026-04-05T12:16:34.033Z</time></trkpt><trkpt lat="38.3463693" lon="-0.7800577"><ele>244.5</ele><time>2026-04-05T12:16:35.032Z</time></trkpt><trkpt lat="38.3461232" lon="-0.7801895"><ele>245.0</ele><time>2026-04-05T12:16:36.033Z</time></trkpt><trkpt lat="38.3458824" lon="-0.780302"><ele>245.0</ele><time>2026-04-05T12:16:37.033Z</time></trkpt><trkpt lat="38.3456383" lon="-0.7804005"><ele>245.0</ele><time>2026-04-05T12:16:38.032Z</time></trkpt><trkpt lat="38.3453956" lon="-0.7804814"><ele>245.5</ele><time>2026-04-05T12:16:39.033Z</time></trkpt><trkpt lat="38.3451621" lon="-0.7805505"><ele>246.0</ele><time>2026-04-05T12:16:40.033Z</time></trkpt><trkpt lat="38.3449397" lon="-0.7806052"><ele>246.0</ele><time>2026-04-05T12:16:41.032Z</time></trkpt><trkpt lat="38.3447209" lon="-0.7806524"><ele>246.0</ele><time>2026-04-05T12:16:42.032Z</time></trkpt><trkpt lat="38.3445118" lon="-0.7806909"><ele>246.0</ele><time>2026-04-05T12:16:43.032Z</time></trkpt><trkpt lat="38.3442998" lon="-0.7807307"><ele>246.33333333333331</ele><time>2026-04-05T12:16:44.032Z</time></trkpt><trkpt lat="38.3440815" lon="-0.7807563"><ele>246.66666666666666</ele><time>2026-04-05T12:16:45.032Z</time></trkpt><trkpt lat="38.343855" lon="-0.7807691"><ele>247.0</ele><time>2026-04-05T12:16:46.033Z</time></trkpt><trkpt lat="38.3436089" lon="-0.7807531"><ele>247.0</ele><time>2026-04-05T12:16:47.033Z</time></trkpt><trkpt lat="38.3433363" lon="-0.7807252"><ele>247.0</ele><time>2026-04-05T12:16:48.033Z</time></trkpt><trkpt lat="38.3430414" lon="-0.780713"><ele>248.5</ele><time>2026-04-05T12:16:49.032Z</time></trkpt><trkpt lat="38.3427274" lon="-0.7807031"><ele>250.0</ele><time>2026-04-05T12:16:50.032Z</time></trkpt><trkpt lat="38.3423852" lon="-0.7806737"><ele>249.5</ele><time>2026-04-05T12:16:51.033Z</time></trkpt><trkpt lat="38.3420527" lon="-0.7806373"><ele>249.0</ele><time>2026-04-05T12:16:52.032Z</time></trkpt><trkpt lat="38.3417242" lon="-0.7806143"><ele>249.5</ele><time>2026-04-05T12:16:53.033Z</time></trkpt><trkpt lat="38.3413806" lon="-0.7805597"><ele>250.0</ele><time>2026-04-05T12:16:54.032Z</time></trkpt><trkpt lat="38.341048" lon="-0.7805202"><ele>250.0</ele><time>2026-04-05T12:16:55.033Z</time></trkpt><trkpt lat="38.3407317" lon="-0.7804868"><ele>250.0</ele><time>2026-04-05T12:16:56.033Z</time></trkpt><trkpt lat="38.3404142" lon="-0.7804511"><ele>249.5</ele><time>2026-04-05T12:16:57.032Z</time></trkpt><trkpt lat="38.3400988" lon="-0.7804099"><ele>249.0</ele><time>2026-04-05T12:16:58.032Z</time></trkpt><trkpt lat="38.3397813" lon="-0.7803619"><ele>248.5</ele><time>2026-04-05T12:16:59.033Z</time></trkpt><trkpt lat="38.3394627" lon="-0.7803134"><ele>248.0</ele><time>2026-04-05T12:17:00.032Z</time></trkpt><trkpt lat="38.3391273" lon="-0.7802302"><ele>248.0</ele><time>2026-04-05T12:17:01.033Z</time></trkpt><trkpt lat="38.3388022" lon="-0.7801589"><ele>248.0</ele><time>2026-04-05T12:17:02.032Z</time></trkpt><trkpt lat="38.3384985" lon="-0.7800742"><ele>248.0</ele><time>2026-04-05T12:17:03.033Z</time></trkpt><trkpt lat="38.3381875" lon="-0.7799742"><ele>248.0</ele><time>2026-04-05T12:17:04.033Z</time></trkpt><trkpt lat="38.3378724" lon="-0.7798638"><ele>248.0</ele><time>2026-04-05T12:17:05.032Z</time></trkpt><trkpt lat="38.3375581" lon="-0.7797408"><ele>248.0</ele><time>2026-04-05T12:17:06.032Z</time></trkpt><trkpt lat="38.3372423" lon="-0.7796081"><ele>248.5</ele><time>2026-04-05T12:17:07.032Z</time></trkpt><trkpt lat="38.3369296" lon="-0.7794554"><ele>249.0</ele><time>2026-04-05T12:17:08.033Z</time></trkpt><trkpt lat="38.3366194" lon="-0.7792839"><ele>251.0</ele><time>2026-04-05T12:17:09.032Z</time></trkpt><trkpt lat="38.3363111" lon="-0.7790954"><ele>253.0</ele><time>2026-04-05T12:17:10.033Z</time></trkpt><trkpt lat="38.3360072" lon="-0.7788869"><ele>253.0</ele><time>2026-04-05T12:17:11.032Z</time></trkpt><trkpt lat="38.3357126" lon="-0.7786549"><ele>253.0</ele><time>2026-04-05T12:17:12.032Z</time></trkpt><trkpt lat="38.335421" lon="-0.7784078"><ele>257.0</ele><time>2026-04-05T12:17:13.033Z</time></trkpt><trkpt lat="38.3351295" lon="-0.7781516"><ele>261.0</ele><time>2026-04-05T12:17:14.033Z</time></trkpt><trkpt lat="38.3348375" lon="-0.7778977"><ele>264.0</ele><time>2026-04-05T12:17:15.032Z</time></trkpt><trkpt lat="38.3345411" lon="-0.7776446"><ele>267.0</ele><time>2026-04-05T12:17:16.033Z</time></trkpt><trkpt lat="38.3342319" lon="-0.77739"><ele>267.0</ele><time>2026-04-05T12:17:17.033Z</time></trkpt><trkpt lat="38.3339091" lon="-0.7771302"><ele>267.0</ele><time>2026-04-05T12:17:18.032Z</time></trkpt><trkpt lat="38.3335777" lon="-0.7768617"><ele>269.0</ele><time>2026-04-05T12:17:19.033Z</time></trkpt><trkpt lat="38.3332426" lon="-0.7765812"><ele>271.0</ele><time>2026-04-05T12:17:20.033Z</time></trkpt><trkpt lat="38.3329065" lon="-0.7762993"><ele>273.0</ele><time>2026-04-05T12:17:21.033Z</time></trkpt><trkpt lat="38.3325663" lon="-0.7760223"><ele>275.0</ele><time>2026-04-05T12:17:22.033Z</time></trkpt><trkpt lat="38.3322325" lon="-0.7757576"><ele>277.0</ele><time>2026-04-05T12:17:23.032Z</time></trkpt><trkpt lat="38.3319317" lon="-0.7755092"><ele>279.0</ele><time>2026-04-05T12:17:24.032Z</time></trkpt><trkpt lat="38.3316418" lon="-0.77527"><ele>282.5</ele><time>2026-04-05T12:17:25.032Z</time></trkpt><trkpt lat="38.3313772" lon="-0.7750545"><ele>286.0</ele><time>2026-04-05T12:17:26.032Z</time></trkpt><trkpt lat="38.3311245" lon="-0.7748478"><ele>286.0</ele><time>2026-04-05T12:17:27.032Z</time></trkpt><trkpt lat="38.3308712" lon="-0.7746476"><ele>286.0</ele><time>2026-04-05T12:17:28.033Z</time></trkpt><trkpt lat="38.3306204" lon="-0.774446"><ele>290.5</ele><time>2026-04-05T12:17:29.032Z</time></trkpt><trkpt lat="38.3303707" lon="-0.7742462"><ele>295.0</ele><time>2026-04-05T12:17:30.033Z</time></trkpt><trkpt lat="38.330131" lon="-0.7740448"><ele>295.0</ele><time>2026-04-05T12:17:31.032Z</time></trkpt><trkpt lat="38.329903" lon="-0.773835"><ele>295.0</ele><time>2026-04-05T12:17:32.033Z</time></trkpt><trkpt lat="38.3296839" lon="-0.7736012"><ele>295.0</ele><time>2026-04-05T12:17:33.033Z</time></trkpt><trkpt lat="38.3294713" lon="-0.7733447"><ele>295.0</ele><time>2026-04-05T12:17:34.033Z</time></trkpt><trkpt lat="38.3292683" lon="-0.7730698"><ele>295.0</ele><time>2026-04-05T12:17:35.032Z</time></trkpt><trkpt lat="38.3290837" lon="-0.7727686"><ele>295.0</ele><time>2026-04-05T12:17:36.032Z</time></trkpt><trkpt lat="38.3289192" lon="-0.7723616"><ele>293.5</ele><time>2026-04-05T12:17:37.033Z</time></trkpt><trkpt lat="38.3287567" lon="-0.7719718"><ele>292.0</ele><time>2026-04-05T12:17:38.032Z</time></trkpt><trkpt lat="38.3285947" lon="-0.771578"><ele>290.5</ele><time>2026-04-05T12:17:39.032Z</time></trkpt><trkpt lat="38.3284374" lon="-0.7711708"><ele>289.0</ele><time>2026-04-05T12:17:40.032Z</time></trkpt><trkpt lat="38.3282849" lon="-0.7707589"><ele>289.0</ele><time>2026-04-05T12:17:41.033Z</time></trkpt><trkpt lat="38.3281317" lon="-0.770359"><ele>289.0</ele><time>2026-04-05T12:17:42.032Z</time></trkpt><trkpt lat="38.3279948" lon="-0.7699969"><ele>289.0</ele><time>2026-04-05T12:17:43.033Z</time></trkpt><trkpt lat="38.3278673" lon="-0.7696581"><ele>289.0</ele><time>2026-04-05T12:17:44.032Z</time></trkpt><trkpt lat="38.3277513" lon="-0.7693435"><ele>292.0</ele><time>2026-04-05T12:17:45.033Z</time></trkpt><trkpt lat="38.3276366" lon="-0.7690517"><ele>295.0</ele><time>2026-04-05T12:17:46.032Z</time></trkpt><trkpt lat="38.3275291" lon="-0.768768"><ele>297.0</ele><time>2026-04-05T12:17:47.033Z</time></trkpt><trkpt lat="38.3274146" lon="-0.76848"><ele>299.0</ele><time>2026-04-05T12:17:48.032Z</time></trkpt><trkpt lat="38.3273033" lon="-0.7682109"><ele>295.33333333333337</ele><time>2026-04-05T12:17:49.032Z</time></trkpt><trkpt lat="38.3271917" lon="-0.7679564"><ele>291.6666666666667</ele><time>2026-04-05T12:17:50.032Z</time></trkpt><trkpt lat="38.3270824" lon="-0.7677195"><ele>288.0</ele><time>2026-04-05T12:17:51.032Z</time></trkpt><trkpt lat="38.326981" lon="-0.7674966"><ele>288.0</ele><time>2026-04-05T12:17:52.033Z</time></trkpt><trkpt lat="38.3268867" lon="-0.7672978"><ele>288.0</ele><time>2026-04-05T12:17:53.033Z</time></trkpt><trkpt lat="38.3267938" lon="-0.7671285"><ele>288.0</ele><time>2026-04-05T12:17:54.032Z</time></trkpt><trkpt lat="38.3267053" lon="-0.7669753"><ele>288.25</ele><time>2026-04-05T12:17:55.032Z</time></trkpt><trkpt lat="38.3266154" lon="-0.7668361"><ele>288.5</ele><time>2026-04-05T12:17:56.032Z</time></trkpt><trkpt lat="38.3265206" lon="-0.7667264"><ele>288.75</ele><time>2026-04-05T12:17:57.033Z</time></trkpt><trkpt lat="38.3264219" lon="-0.7666258"><ele>289.0</ele><time>2026-04-05T12:17:58.032Z</time></trkpt><trkpt lat="38.3263155" lon="-0.7665301"><ele>289.0</ele><time>2026-04-05T12:17:59.033Z</time></trkpt><trkpt lat="38.3262314" lon="-0.7664179"><ele>289.0</ele><time>2026-04-05T12:18:00.033Z</time></trkpt><trkpt lat="38.3261667" lon="-0.7662444"><ele>289.0</ele><time>2026-04-05T12:18:01.032Z</time></trkpt><trkpt lat="38.3261109" lon="-0.7660413"><ele>289.0</ele><time>2026-04-05T12:18:02.033Z</time></trkpt><trkpt lat="38.3260262" lon="-0.7657962"><ele>289.5</ele><time>2026-04-05T12:18:03.032Z</time></trkpt><trkpt lat="38.3259113" lon="-0.765552"><ele>290.0</ele><time>2026-04-05T12:18:04.033Z</time></trkpt><trkpt lat="38.3257679" lon="-0.7653099"><ele>290.5</ele><time>2026-04-05T12:18:05.033Z</time></trkpt><trkpt lat="38.3256028" lon="-0.765055"><ele>291.0</ele><time>2026-04-05T12:18:06.032Z</time></trkpt><trkpt lat="38.3254411" lon="-0.7647754"><ele>291.0</ele><time>2026-04-05T12:18:07.032Z</time></trkpt><trkpt lat="38.3252899" lon="-0.7644837"><ele>291.0</ele><time>2026-04-05T12:18:08.032Z</time></trkpt><trkpt lat="38.32515" lon="-0.7641666"><ele>291.5</ele><time>2026-04-05T12:18:09.032Z</time></trkpt><trkpt lat="38.3250166" lon="-0.7638295"><ele>292.0</ele><time>2026-04-05T12:18:10.032Z</time></trkpt><trkpt lat="38.3249001" lon="-0.7634998"><ele>292.5</ele><time>2026-04-05T12:18:11.032Z</time></trkpt><trkpt lat="38.3247955" lon="-0.7631597"><ele>293.0</ele><time>2026-04-05T12:18:12.033Z</time></trkpt><trkpt lat="38.3247048" lon="-0.7628261"><ele>298.0</ele><time>2026-04-05T12:18:13.032Z</time></trkpt><trkpt lat="38.3246198" lon="-0.7624884"><ele>303.0</ele><time>2026-04-05T12:18:14.032Z</time></trkpt><trkpt lat="38.3245347" lon="-0.7621494"><ele>298.5</ele><time>2026-04-05T12:18:15.033Z</time></trkpt><trkpt lat="38.3244449" lon="-0.7618113"><ele>294.0</ele><time>2026-04-05T12:18:16.032Z</time></trkpt><trkpt lat="38.3243444" lon="-0.7614704"><ele>294.0</ele><time>2026-04-05T12:18:17.032Z</time></trkpt><trkpt lat="38.3242338" lon="-0.7611345"><ele>294.0</ele><time>2026-04-05T12:18:18.032Z</time></trkpt><trkpt lat="38.3240983" lon="-0.7608073"><ele>290.0</ele><time>2026-04-05T12:18:19.032Z</time></trkpt><trkpt lat="38.3239396" lon="-0.7604961"><ele>286.0</ele><time>2026-04-05T12:18:20.033Z</time></trkpt><trkpt lat="38.3237638" lon="-0.7602012"><ele>292.5</ele><time>2026-04-05T12:18:21.032Z</time></trkpt><trkpt lat="38.3235735" lon="-0.7599181"><ele>299.0</ele><time>2026-04-05T12:18:22.032Z</time></trkpt><trkpt lat="38.323394" lon="-0.7596511"><ele>299.0</ele><time>2026-04-05T12:18:23.033Z</time></trkpt><trkpt lat="38.3232193" lon="-0.7594071"><ele>299.0</ele><time>2026-04-05T12:18:24.033Z</time></trkpt><trkpt lat="38.3230539" lon="-0.7591818"><ele>295.0</ele><time>2026-04-05T12:18:25.032Z</time></trkpt><trkpt lat="38.3228973" lon="-0.7589615"><ele>291.0</ele><time>2026-04-05T12:18:26.033Z</time></trkpt><trkpt lat="38.3227345" lon="-0.7587232"><ele>284.0</ele><time>2026-04-05T12:18:27.033Z</time></trkpt><trkpt lat="38.3225697" lon="-0.7584468"><ele>277.0</ele><time>2026-04-05T12:18:28.032Z</time></trkpt><trkpt lat="38.3224098" lon="-0.7581375"><ele>277.0</ele><time>2026-04-05T12:18:29.033Z</time></trkpt><trkpt lat="38.3222598" lon="-0.7578019"><ele>277.0</ele><time>2026-04-05T12:18:30.033Z</time></trkpt><trkpt lat="38.3221173" lon="-0.7574532"><ele>275.5</ele><time>2026-04-05T12:18:31.033Z</time></trkpt><trkpt lat="38.3219869" lon="-0.7570888"><ele>274.0</ele><time>2026-04-05T12:18:32.032Z</time></trkpt><trkpt lat="38.3218519" lon="-0.7567285"><ele>272.5</ele><time>2026-04-05T12:18:33.032Z</time></trkpt><trkpt lat="38.3217047" lon="-0.7563943"><ele>271.0</ele><time>2026-04-05T12:18:34.032Z</time></trkpt><trkpt lat="38.3215436" lon="-0.7560719"><ele>276.5</ele><time>2026-04-05T12:18:35.032Z</time></trkpt><trkpt lat="38.3213447" lon="-0.7557887"><ele>282.0</ele><time>2026-04-05T12:18:36.033Z</time></trkpt><trkpt lat="38.321124" lon="-0.7555365"><ele>282.0</ele><time>2026-04-05T12:18:37.032Z</time></trkpt><trkpt lat="38.3208778" lon="-0.7553184"><ele>282.0</ele><time>2026-04-05T12:18:38.032Z</time></trkpt><trkpt lat="38.3206144" lon="-0.7551285"><ele>275.0</ele><time>2026-04-05T12:18:39.033Z</time></trkpt><trkpt lat="38.3203476" lon="-0.7549473"><ele>268.0</ele><time>2026-04-05T12:18:40.032Z</time></trkpt><trkpt lat="38.320089" lon="-0.7547522"><ele>268.0</ele><time>2026-04-05T12:18:41.033Z</time></trkpt><trkpt lat="38.3198457" lon="-0.7545298"><ele>268.0</ele><time>2026-04-05T12:18:42.032Z</time></trkpt><trkpt lat="38.3196252" lon="-0.7542905"><ele>267.0</ele><time>2026-04-05T12:18:43.032Z</time></trkpt><trkpt lat="38.3194294" lon="-0.754051"><ele>266.0</ele><time>2026-04-05T12:18:44.032Z</time></trkpt><trkpt lat="38.3192518" lon="-0.7538069"><ele>266.0</ele><time>2026-04-05T12:18:45.033Z</time></trkpt><trkpt lat="38.3190822" lon="-0.7535778"><ele>266.0</ele><time>2026-04-05T12:18:46.032Z</time></trkpt><trkpt lat="38.3189103" lon="-0.7533786"><ele>265.0</ele><time>2026-04-05T12:18:47.032Z</time></trkpt><trkpt lat="38.3187362" lon="-0.7532061"><ele>264.0</ele><time>2026-04-05T12:18:48.032Z</time></trkpt><trkpt lat="38.3185554" lon="-0.7530745"><ele>263.0</ele><time>2026-04-05T12:18:49.032Z</time></trkpt><trkpt lat="38.3183786" lon="-0.7529687"><ele>263.0</ele><time>2026-04-05T12:18:50.032Z</time></trkpt><trkpt lat="38.3182181" lon="-0.7529097"><ele>263.0</ele><time>2026-04-05T12:18:51.033Z</time></trkpt><trkpt lat="38.3180669" lon="-0.7528746"><ele>263.0</ele><time>2026-04-05T12:18:52.032Z</time></trkpt><trkpt lat="38.3179225" lon="-0.7528644"><ele>261.25</ele><time>2026-04-05T12:18:53.032Z</time></trkpt><trkpt lat="38.3177794" lon="-0.7528741"><ele>259.5</ele><time>2026-04-05T12:18:54.032Z</time></trkpt><trkpt lat="38.3176387" lon="-0.7529207"><ele>257.75</ele><time>2026-04-05T12:18:55.032Z</time></trkpt><trkpt lat="38.3175025" lon="-0.7529611"><ele>256.0</ele><time>2026-04-05T12:18:56.033Z</time></trkpt><trkpt lat="38.3173704" lon="-0.7529595"><ele>253.33333333333331</ele><time>2026-04-05T12:18:57.032Z</time></trkpt><trkpt lat="38.3172101" lon="-0.7529078"><ele>250.66666666666669</ele><time>2026-04-05T12:18:58.032Z</time></trkpt><trkpt lat="38.3170318" lon="-0.7528219"><ele>248.0</ele><time>2026-04-05T12:18:59.032Z</time></trkpt><trkpt lat="38.3168191" lon="-0.7527492"><ele>245.0</ele><time>2026-04-05T12:19:00.033Z</time></trkpt><trkpt lat="38.3165864" lon="-0.7526989"><ele>242.0</ele><time>2026-04-05T12:19:01.032Z</time></trkpt><trkpt lat="38.3163423" lon="-0.7526469"><ele>241.5</ele><time>2026-04-05T12:19:02.033Z</time></trkpt><trkpt lat="38.3160848" lon="-0.7525753"><ele>241.0</ele><time>2026-04-05T12:19:03.033Z</time></trkpt><trkpt lat="38.3158194" lon="-0.7524876"><ele>245.0</ele><time>2026-04-05T12:19:04.033Z</time></trkpt><trkpt lat="38.3155553" lon="-0.7523954"><ele>249.0</ele><time>2026-04-05T12:19:05.033Z</time></trkpt><trkpt lat="38.3152887" lon="-0.7522987"><ele>249.0</ele><time>2026-04-05T12:19:06.033Z</time></trkpt><trkpt lat="38.31502" lon="-0.7522035"><ele>249.0</ele><time>2026-04-05T12:19:07.033Z</time></trkpt><trkpt lat="38.3147507" lon="-0.752109"><ele>248.0</ele><time>2026-04-05T12:19:08.032Z</time></trkpt><trkpt lat="38.3144841" lon="-0.7520169"><ele>247.0</ele><time>2026-04-05T12:19:09.033Z</time></trkpt><trkpt lat="38.3142246" lon="-0.7519072"><ele>244.0</ele><time>2026-04-05T12:19:10.033Z</time></trkpt><trkpt lat="38.313969" lon="-0.7517768"><ele>241.0</ele><time>2026-04-05T12:19:11.032Z</time></trkpt><trkpt lat="38.3137285" lon="-0.751615"><ele>241.0</ele><time>2026-04-05T12:19:12.033Z</time></trkpt><trkpt lat="38.3134962" lon="-0.7514428"><ele>241.0</ele><time>2026-04-05T12:19:13.033Z</time></trkpt><trkpt lat="38.3132779" lon="-0.7512805"><ele>238.5</ele><time>2026-04-05T12:19:14.032Z</time></trkpt><trkpt lat="38.3130545" lon="-0.7511478"><ele>236.0</ele><time>2026-04-05T12:19:15.032Z</time></trkpt><trkpt lat="38.3128148" lon="-0.7510574"><ele>230.5</ele><time>2026-04-05T12:19:16.033Z</time></trkpt><trkpt lat="38.3125598" lon="-0.751011"><ele>225.0</ele><time>2026-04-05T12:19:17.032Z</time></trkpt><trkpt lat="38.3122959" lon="-0.7510041"><ele>224.5</ele><time>2026-04-05T12:19:18.032Z</time></trkpt><trkpt lat="38.312027" lon="-0.7510114"><ele>224.0</ele><time>2026-04-05T12:19:19.032Z</time></trkpt><trkpt lat="38.3117579" lon="-0.7510046"><ele>224.0</ele><time>2026-04-05T12:19:20.032Z</time></trkpt><trkpt lat="38.3114888" lon="-0.7509662"><ele>224.0</ele><time>2026-04-05T12:19:21.033Z</time></trkpt><trkpt lat="38.3112077" lon="-0.7508631"><ele>223.5</ele><time>2026-04-05T12:19:22.032Z</time></trkpt><trkpt lat="38.3109482" lon="-0.7507075"><ele>223.0</ele><time>2026-04-05T12:19:23.032Z</time></trkpt><trkpt lat="38.3107032" lon="-0.7504961"><ele>225.0</ele><time>2026-04-05T12:19:24.033Z</time></trkpt><trkpt lat="38.3104831" lon="-0.7502347"><ele>227.0</ele><time>2026-04-05T12:19:25.032Z</time></trkpt><trkpt lat="38.3102829" lon="-0.7499339"><ele>222.0</ele><time>2026-04-05T12:19:26.032Z</time></trkpt><trkpt lat="38.3100944" lon="-0.7496346"><ele>217.0</ele><time>2026-04-05T12:19:27.033Z</time></trkpt><trkpt lat="38.3099168" lon="-0.7493376"><ele>216.5</ele><time>2026-04-05T12:19:28.033Z</time></trkpt><trkpt lat="38.3097542" lon="-0.749062"><ele>216.0</ele><time>2026-04-05T12:19:29.032Z</time></trkpt><trkpt lat="38.3095919" lon="-0.7488061"><ele>217.0</ele><time>2026-04-05T12:19:30.032Z</time></trkpt><trkpt lat="38.3094158" lon="-0.7485755"><ele>218.0</ele><time>2026-04-05T12:19:31.032Z</time></trkpt><trkpt lat="38.3092344" lon="-0.7483845"><ele>218.33333333333334</ele><time>2026-04-05T12:19:32.032Z</time></trkpt><trkpt lat="38.3090511" lon="-0.74824"><ele>218.66666666666669</ele><time>2026-04-05T12:19:33.033Z</time></trkpt><trkpt lat="38.3088713" lon="-0.7481328"><ele>219.0</ele><time>2026-04-05T12:19:34.033Z</time></trkpt><trkpt lat="38.3086929" lon="-0.7480459"><ele>216.66666666666669</ele><time>2026-04-05T12:19:35.032Z</time></trkpt><trkpt lat="38.3085269" lon="-0.7479927"><ele>214.33333333333334</ele><time>2026-04-05T12:19:36.033Z</time></trkpt><trkpt lat="38.3083698" lon="-0.7479604"><ele>212.0</ele><time>2026-04-05T12:19:37.032Z</time></trkpt><trkpt lat="38.3082429" lon="-0.7479689"><ele>212.0</ele><time>2026-04-05T12:19:38.033Z</time></trkpt><trkpt lat="38.3081217" lon="-0.7480072"><ele>212.0</ele><time>2026-04-05T12:19:39.033Z</time></trkpt><trkpt lat="38.308007" lon="-0.7480486"><ele>212.0</ele><time>2026-04-05T12:19:40.033Z</time></trkpt><trkpt lat="38.3078955" lon="-0.74807"><ele>212.0</ele><time>2026-04-05T12:19:41.032Z</time></trkpt><trkpt lat="38.3077872" lon="-0.7480396"><ele>211.0</ele><time>2026-04-05T12:19:42.033Z</time></trkpt><trkpt lat="38.3076881" lon="-0.7479684"><ele>210.0</ele><time>2026-04-05T12:19:43.033Z</time></trkpt><trkpt lat="38.3076107" lon="-0.7478399"><ele>209.0</ele><time>2026-04-05T12:19:44.033Z</time></trkpt><trkpt lat="38.3075376" lon="-0.747661"><ele>208.0</ele><time>2026-04-05T12:19:45.032Z</time></trkpt><trkpt lat="38.3074385" lon="-0.7474535"><ele>208.0</ele><time>2026-04-05T12:19:46.032Z</time></trkpt><trkpt lat="38.3073146" lon="-0.7472181"><ele>208.0</ele><time>2026-04-05T12:19:47.032Z</time></trkpt><trkpt lat="38.3071941" lon="-0.7469688"><ele>206.0</ele><time>2026-04-05T12:19:48.033Z</time></trkpt><trkpt lat="38.3070906" lon="-0.7466567"><ele>204.0</ele><time>2026-04-05T12:19:49.033Z</time></trkpt><trkpt lat="38.3070088" lon="-0.7463287"><ele>205.5</ele><time>2026-04-05T12:19:50.033Z</time></trkpt><trkpt lat="38.3069405" lon="-0.7459981"><ele>207.0</ele><time>2026-04-05T12:19:51.033Z</time></trkpt><trkpt lat="38.3068647" lon="-0.7456794"><ele>207.0</ele><time>2026-04-05T12:19:52.032Z</time></trkpt><trkpt lat="38.3067756" lon="-0.7453744"><ele>207.0</ele><time>2026-04-05T12:19:53.032Z</time></trkpt><trkpt lat="38.3066574" lon="-0.7450948"><ele>206.5</ele><time>2026-04-05T12:19:54.033Z</time></trkpt><trkpt lat="38.3065193" lon="-0.7448338"><ele>206.0</ele><time>2026-04-05T12:19:55.033Z</time></trkpt><trkpt lat="38.3063538" lon="-0.7445929"><ele>204.5</ele><time>2026-04-05T12:19:56.033Z</time></trkpt><trkpt lat="38.3061745" lon="-0.7443664"><ele>203.0</ele><time>2026-04-05T12:19:57.032Z</time></trkpt><trkpt lat="38.3059919" lon="-0.7441412"><ele>203.0</ele><time>2026-04-05T12:19:58.032Z</time></trkpt><trkpt lat="38.3058008" lon="-0.7439109"><ele>203.0</ele><time>2026-04-05T12:19:59.033Z</time></trkpt><trkpt lat="38.3055994" lon="-0.7436706"><ele>204.5</ele><time>2026-04-05T12:20:00.032Z</time></trkpt><trkpt lat="38.3053985" lon="-0.7434172"><ele>206.0</ele><time>2026-04-05T12:20:01.033Z</time></trkpt><trkpt lat="38.3051864" lon="-0.7431834"><ele>206.0</ele><time>2026-04-05T12:20:02.032Z</time></trkpt><trkpt lat="38.3049632" lon="-0.7429672"><ele>206.0</ele><time>2026-04-05T12:20:03.033Z</time></trkpt><trkpt lat="38.3047195" lon="-0.7427841"><ele>202.5</ele><time>2026-04-05T12:20:04.033Z</time></trkpt><trkpt lat="38.3044607" lon="-0.7426398"><ele>199.0</ele><time>2026-04-05T12:20:05.032Z</time></trkpt><trkpt lat="38.3041802" lon="-0.7425296"><ele>195.5</ele><time>2026-04-05T12:20:06.033Z</time></trkpt><trkpt lat="38.3038825" lon="-0.7424422"><ele>192.0</ele><time>2026-04-05T12:20:07.032Z</time></trkpt><trkpt lat="38.3035736" lon="-0.742369"><ele>192.0</ele><time>2026-04-05T12:20:08.033Z</time></trkpt><trkpt lat="38.3032671" lon="-0.7422888"><ele>192.0</ele><time>2026-04-05T12:20:09.032Z</time></trkpt><trkpt lat="38.3029854" lon="-0.7422185"><ele>191.0</ele><time>2026-04-05T12:20:10.032Z</time></trkpt><trkpt lat="38.3027056" lon="-0.7421036"><ele>190.0</ele><time>2026-04-05T12:20:11.033Z</time></trkpt><trkpt lat="38.3024537" lon="-0.7419437"><ele>190.5</ele><time>2026-04-05T12:20:12.033Z</time></trkpt><trkpt lat="38.3022202" lon="-0.7417404"><ele>191.0</ele><time>2026-04-05T12:20:13.032Z</time></trkpt><trkpt lat="38.3019981" lon="-0.7414982"><ele>191.0</ele><time>2026-04-05T12:20:14.032Z</time></trkpt><trkpt lat="38.3018021" lon="-0.7412264"><ele>191.0</ele><time>2026-04-05T12:20:15.033Z</time></trkpt><trkpt lat="38.3016127" lon="-0.7409445"><ele>190.5</ele><time>2026-04-05T12:20:16.033Z</time></trkpt><trkpt lat="38.3014254" lon="-0.7406925"><ele>190.0</ele><time>2026-04-05T12:20:17.033Z</time></trkpt><trkpt lat="38.3012252" lon="-0.7404655"><ele>188.0</ele><time>2026-04-05T12:20:18.032Z</time></trkpt><trkpt lat="38.3010263" lon="-0.7402678"><ele>186.0</ele><time>2026-04-05T12:20:19.033Z</time></trkpt><trkpt lat="38.3008297" lon="-0.7400926"><ele>185.33333333333334</ele><time>2026-04-05T12:20:20.032Z</time></trkpt><trkpt lat="38.3006375" lon="-0.7399426"><ele>184.66666666666669</ele><time>2026-04-05T12:20:21.033Z</time></trkpt><trkpt lat="38.300452" lon="-0.7397988"><ele>184.0</ele><time>2026-04-05T12:20:22.032Z</time></trkpt><trkpt lat="38.3002784" lon="-0.7396738"><ele>182.66666666666669</ele><time>2026-04-05T12:20:23.032Z</time></trkpt><trkpt lat="38.3001229" lon="-0.7395616"><ele>181.33333333333334</ele><time>2026-04-05T12:20:24.033Z</time></trkpt><trkpt lat="38.2999847" lon="-0.7394633"><ele>180.0</ele><time>2026-04-05T12:20:25.033Z</time></trkpt><trkpt lat="38.2998574" lon="-0.7393885"><ele>178.75</ele><time>2026-04-05T12:20:26.032Z</time></trkpt><trkpt lat="38.2997251" lon="-0.7393342"><ele>177.5</ele><time>2026-04-05T12:20:27.032Z</time></trkpt><trkpt lat="38.2995951" lon="-0.7393027"><ele>176.25</ele><time>2026-04-05T12:20:28.033Z</time></trkpt><trkpt lat="38.2994632" lon="-0.739277"><ele>175.0</ele><time>2026-04-05T12:20:29.032Z</time></trkpt><trkpt lat="38.2993361" lon="-0.7392429"><ele>175.0</ele><time>2026-04-05T12:20:30.032Z</time></trkpt><trkpt lat="38.2992186" lon="-0.7391529"><ele>175.0</ele><time>2026-04-05T12:20:31.033Z</time></trkpt><trkpt lat="38.2990928" lon="-0.7390238"><ele>175.0</ele><time>2026-04-05T12:20:32.032Z</time></trkpt><trkpt lat="38.2989562" lon="-0.7388443"><ele>175.0</ele><time>2026-04-05T12:20:33.033Z</time></trkpt><trkpt lat="38.2987875" lon="-0.7386648"><ele>175.0</ele><time>2026-04-05T12:20:34.032Z</time></trkpt><trkpt lat="38.298595" lon="-0.7384995"><ele>178.0</ele><time>2026-04-05T12:20:35.033Z</time></trkpt><trkpt lat="38.298391" lon="-0.7383472"><ele>181.0</ele><time>2026-04-05T12:20:36.032Z</time></trkpt><trkpt lat="38.2981613" lon="-0.738186"><ele>180.0</ele><time>2026-04-05T12:20:37.032Z</time></trkpt><trkpt lat="38.2979133" lon="-0.7380197"><ele>179.0</ele><time>2026-04-05T12:20:38.032Z</time></trkpt><trkpt lat="38.2976616" lon="-0.7378462"><ele>178.0</ele><time>2026-04-05T12:20:39.032Z</time></trkpt><trkpt lat="38.297405" lon="-0.7376742"><ele>177.0</ele><time>2026-04-05T12:20:40.032Z</time></trkpt><trkpt lat="38.2971605" lon="-0.7375052"><ele>175.5</ele><time>2026-04-05T12:20:41.032Z</time></trkpt><trkpt lat="38.2969126" lon="-0.737328"><ele>174.0</ele><time>2026-04-05T12:20:42.032Z</time></trkpt><trkpt lat="38.2966717" lon="-0.7371369"><ele>172.5</ele><time>2026-04-05T12:20:43.032Z</time></trkpt><trkpt lat="38.2964163" lon="-0.7369175"><ele>171.0</ele><time>2026-04-05T12:20:44.032Z</time></trkpt><trkpt lat="38.2961772" lon="-0.7366853"><ele>171.0</ele><time>2026-04-05T12:20:45.032Z</time></trkpt><trkpt lat="38.2959473" lon="-0.7364263"><ele>171.0</ele><time>2026-04-05T12:20:46.033Z</time></trkpt><trkpt lat="38.2957307" lon="-0.7361429"><ele>170.0</ele><time>2026-04-05T12:20:47.032Z</time></trkpt><trkpt lat="38.2955319" lon="-0.7358271"><ele>169.0</ele><time>2026-04-05T12:20:48.032Z</time></trkpt><trkpt lat="38.2953589" lon="-0.7355024"><ele>166.0</ele><time>2026-04-05T12:20:49.032Z</time></trkpt><trkpt lat="38.295214" lon="-0.7351754"><ele>163.0</ele><time>2026-04-05T12:20:50.032Z</time></trkpt><trkpt lat="38.2950907" lon="-0.7348384"><ele>163.0</ele><time>2026-04-05T12:20:51.033Z</time></trkpt><trkpt lat="38.2949881" lon="-0.7345044"><ele>163.0</ele><time>2026-04-05T12:20:52.032Z</time></trkpt><trkpt lat="38.294905" lon="-0.7341761"><ele>161.5</ele><time>2026-04-05T12:20:53.032Z</time></trkpt><trkpt lat="38.2948374" lon="-0.7338576"><ele>160.0</ele><time>2026-04-05T12:20:54.032Z</time></trkpt><trkpt lat="38.2947785" lon="-0.733554"><ele>158.33333333333334</ele><time>2026-04-05T12:20:55.032Z</time></trkpt><trkpt lat="38.2947248" lon="-0.7332771"><ele>156.66666666666666</ele><time>2026-04-05T12:20:56.032Z</time></trkpt><trkpt lat="38.2946767" lon="-0.7330293"><ele>155.0</ele><time>2026-04-05T12:20:57.032Z</time></trkpt><trkpt lat="38.2946248" lon="-0.7328146"><ele>154.0</ele><time>2026-04-05T12:20:58.032Z</time></trkpt><trkpt lat="38.2945759" lon="-0.7326389"><ele>153.0</ele><time>2026-04-05T12:20:59.033Z</time></trkpt><trkpt lat="38.2945176" lon="-0.7324809"><ele>152.0</ele><time>2026-04-05T12:21:00.032Z</time></trkpt><trkpt lat="38.2944424" lon="-0.7323332"><ele>151.0</ele><time>2026-04-05T12:21:01.032Z</time></trkpt><trkpt lat="38.2943508" lon="-0.7321817"><ele>151.0</ele><time>2026-04-05T12:21:02.032Z</time></trkpt><trkpt lat="38.2942727" lon="-0.7319736"><ele>151.0</ele><time>2026-04-05T12:21:03.033Z</time></trkpt><trkpt lat="38.29419" lon="-0.7317201"><ele>151.0</ele><time>2026-04-05T12:21:04.033Z</time></trkpt><trkpt lat="38.2940665" lon="-0.7314687"><ele>150.5</ele><time>2026-04-05T12:21:05.033Z</time></trkpt><trkpt lat="38.2939076" lon="-0.731207"><ele>150.0</ele><time>2026-04-05T12:21:06.033Z</time></trkpt><trkpt lat="38.2937101" lon="-0.7309481"><ele>150.0</ele><time>2026-04-05T12:21:07.032Z</time></trkpt><trkpt lat="38.2934782" lon="-0.7306966"><ele>150.0</ele><time>2026-04-05T12:21:08.033Z</time></trkpt><trkpt lat="38.2932215" lon="-0.7304489"><ele>151.5</ele><time>2026-04-05T12:21:09.032Z</time></trkpt><trkpt lat="38.292947" lon="-0.7301864"><ele>153.0</ele><time>2026-04-05T12:21:10.033Z</time></trkpt><trkpt lat="38.2926609" lon="-0.7299536"><ele>153.0</ele><time>2026-04-05T12:21:11.033Z</time></trkpt><trkpt lat="38.2923222" lon="-0.7296632"><ele>153.0</ele><time>2026-04-05T12:21:12.033Z</time></trkpt><trkpt lat="38.291998" lon="-0.7293778"><ele>151.0</ele><time>2026-04-05T12:21:13.033Z</time></trkpt><trkpt lat="38.2916911" lon="-0.7290866"><ele>149.0</ele><time>2026-04-05T12:21:14.033Z</time></trkpt><trkpt lat="38.2914127" lon="-0.728803"><ele>151.5</ele><time>2026-04-05T12:21:15.033Z</time></trkpt><trkpt lat="38.2911618" lon="-0.7285368"><ele>154.0</ele><time>2026-04-05T12:21:16.033Z</time></trkpt><trkpt lat="38.2909239" lon="-0.7282903"><ele>154.0</ele><time>2026-04-05T12:21:17.033Z</time></trkpt><trkpt lat="38.290696" lon="-0.7280526"><ele>154.0</ele><time>2026-04-05T12:21:18.032Z</time></trkpt><trkpt lat="38.2904723" lon="-0.7278194"><ele>154.5</ele><time>2026-04-05T12:21:19.032Z</time></trkpt><trkpt lat="38.2902617" lon="-0.7276058"><ele>155.0</ele><time>2026-04-05T12:21:20.032Z</time></trkpt><trkpt lat="38.2900639" lon="-0.7273977"><ele>155.0</ele><time>2026-04-05T12:21:21.033Z</time></trkpt><trkpt lat="38.2898852" lon="-0.7272142"><ele>155.0</ele><time>2026-04-05T12:21:22.033Z</time></trkpt><trkpt lat="38.2897438" lon="-0.7270635"><ele>155.0</ele><time>2026-04-05T12:21:23.032Z</time></trkpt><trkpt lat="38.2896198" lon="-0.7269372"><ele>155.5</ele><time>2026-04-05T12:21:24.033Z</time></trkpt><trkpt lat="38.2895071" lon="-0.7268179"><ele>156.0</ele><time>2026-04-05T12:21:25.033Z</time></trkpt><trkpt lat="38.289403" lon="-0.7267157"><ele>156.5</ele><time>2026-04-05T12:21:26.032Z</time></trkpt><trkpt lat="38.2892956" lon="-0.7266242"><ele>157.0</ele><time>2026-04-05T12:21:27.033Z</time></trkpt><trkpt lat="38.289178" lon="-0.7265455"><ele>157.0</ele><time>2026-04-05T12:21:28.032Z</time></trkpt><trkpt lat="38.2890667" lon="-0.7264865"><ele>157.0</ele><time>2026-04-05T12:21:29.032Z</time></trkpt><trkpt lat="38.2889808" lon="-0.7263986"><ele>157.0</ele><time>2026-04-05T12:21:30.033Z</time></trkpt><trkpt lat="38.2889039" lon="-0.7262642"><ele>157.0</ele><time>2026-04-05T12:21:31.032Z</time></trkpt><trkpt lat="38.2888188" lon="-0.7260984"><ele>157.66666666666669</ele><time>2026-04-05T12:21:32.032Z</time></trkpt><trkpt lat="38.2886946" lon="-0.7259531"><ele>158.33333333333334</ele><time>2026-04-05T12:21:33.033Z</time></trkpt><trkpt lat="38.288539" lon="-0.7258132"><ele>159.0</ele><time>2026-04-05T12:21:34.033Z</time></trkpt><trkpt lat="38.2883653" lon="-0.7256553"><ele>159.0</ele><time>2026-04-05T12:21:35.033Z</time></trkpt><trkpt lat="38.2881908" lon="-0.7254982"><ele>159.0</ele><time>2026-04-05T12:21:36.032Z</time></trkpt><trkpt lat="38.2880092" lon="-0.7253112"><ele>159.0</ele><time>2026-04-05T12:21:37.033Z</time></trkpt><trkpt lat="38.2878412" lon="-0.7251055"><ele>157.5</ele><time>2026-04-05T12:21:38.032Z</time></trkpt><trkpt lat="38.2876817" lon="-0.7248816"><ele>156.0</ele><time>2026-04-05T12:21:39.033Z</time></trkpt><trkpt lat="38.2875139" lon="-0.7246663"><ele>156.0</ele><time>2026-04-05T12:21:40.032Z</time></trkpt><trkpt lat="38.287361" lon="-0.7244512"><ele>156.0</ele><time>2026-04-05T12:21:41.033Z</time></trkpt><trkpt lat="38.287187" lon="-0.7242789"><ele>156.0</ele><time>2026-04-05T12:21:42.033Z</time></trkpt><trkpt lat="38.2870013" lon="-0.7241362"><ele>158.0</ele><time>2026-04-05T12:21:43.033Z</time></trkpt><trkpt lat="38.2867924" lon="-0.7240353"><ele>160.0</ele><time>2026-04-05T12:21:44.033Z</time></trkpt><trkpt lat="38.2865739" lon="-0.7239928"><ele>162.0</ele><time>2026-04-05T12:21:45.033Z</time></trkpt><trkpt lat="38.2863261" lon="-0.7240646"><ele>163.5</ele><time>2026-04-05T12:21:46.032Z</time></trkpt><trkpt lat="38.2860952" lon="-0.7241299"><ele>165.0</ele><time>2026-04-05T12:21:47.032Z</time></trkpt><trkpt lat="38.2858705" lon="-0.7242018"><ele>165.0</ele><time>2026-04-05T12:21:48.032Z</time></trkpt><trkpt lat="38.2856557" lon="-0.7242755"><ele>165.0</ele><time>2026-04-05T12:21:49.032Z</time></trkpt><trkpt lat="38.2854455" lon="-0.7243478"><ele>165.0</ele><time>2026-04-05T12:21:50.033Z</time></trkpt><trkpt lat="38.2852461" lon="-0.7244158"><ele>162.66666666666666</ele><time>2026-04-05T12:21:51.032Z</time></trkpt><trkpt lat="38.2850582" lon="-0.7244776"><ele>160.33333333333331</ele><time>2026-04-05T12:21:52.033Z</time></trkpt><trkpt lat="38.2848804" lon="-0.7245282"><ele>158.0</ele><time>2026-04-05T12:21:53.033Z</time></trkpt><trkpt lat="38.2847084" lon="-0.724578"><ele>157.66666666666666</ele><time>2026-04-05T12:21:54.032Z</time></trkpt><trkpt lat="38.2845288" lon="-0.7246247"><ele>157.33333333333334</ele><time>2026-04-05T12:21:55.032Z</time></trkpt><trkpt lat="38.284326" lon="-0.7246776"><ele>157.0</ele><time>2026-04-05T12:21:56.032Z</time></trkpt><trkpt lat="38.2841252" lon="-0.7247516"><ele>157.0</ele><time>2026-04-05T12:21:57.033Z</time></trkpt><trkpt lat="38.2839446" lon="-0.7248467"><ele>157.0</ele><time>2026-04-05T12:21:58.033Z</time></trkpt><trkpt lat="38.2837783" lon="-0.7249591"><ele>157.0</ele><time>2026-04-05T12:21:59.032Z</time></trkpt><trkpt lat="38.2836229" lon="-0.7250781"><ele>155.66666666666669</ele><time>2026-04-05T12:22:00.033Z</time></trkpt><trkpt lat="38.2834714" lon="-0.725187"><ele>154.33333333333334</ele><time>2026-04-05T12:22:01.032Z</time></trkpt><trkpt lat="38.2833228" lon="-0.7252823"><ele>153.0</ele><time>2026-04-05T12:22:02.032Z</time></trkpt><trkpt lat="38.2831679" lon="-0.7253659"><ele>152.33333333333334</ele><time>2026-04-05T12:22:03.033Z</time></trkpt><trkpt lat="38.2830065" lon="-0.7254203"><ele>151.66666666666669</ele><time>2026-04-05T12:22:04.033Z</time></trkpt><trkpt lat="38.2828409" lon="-0.7254397"><ele>151.0</ele><time>2026-04-05T12:22:05.032Z</time></trkpt><trkpt lat="38.2826599" lon="-0.7254448"><ele>151.0</ele><time>2026-04-05T12:22:06.032Z</time></trkpt><trkpt lat="38.2824668" lon="-0.7254244"><ele>151.0</ele><time>2026-04-05T12:22:07.033Z</time></trkpt><trkpt lat="38.2822717" lon="-0.7254007"><ele>151.0</ele><time>2026-04-05T12:22:08.033Z</time></trkpt><trkpt lat="38.2820527" lon="-0.7253653"><ele>148.0</ele><time>2026-04-05T12:22:09.032Z</time></trkpt><trkpt lat="38.2818088" lon="-0.7253386"><ele>145.0</ele><time>2026-04-05T12:22:10.032Z</time></trkpt><trkpt lat="38.2815277" lon="-0.725286"><ele>146.0</ele><time>2026-04-05T12:22:11.033Z</time></trkpt><trkpt lat="38.2812202" lon="-0.7251969"><ele>147.0</ele><time>2026-04-05T12:22:12.032Z</time></trkpt><trkpt lat="38.2808821" lon="-0.7251174"><ele>146.0</ele><time>2026-04-05T12:22:13.032Z</time></trkpt><trkpt lat="38.2805312" lon="-0.7250409"><ele>145.0</ele><time>2026-04-05T12:22:14.033Z</time></trkpt><trkpt lat="38.2801998" lon="-0.724971"><ele>145.0</ele><time>2026-04-05T12:22:15.033Z</time></trkpt><trkpt lat="38.2798929" lon="-0.7249115"><ele>145.0</ele><time>2026-04-05T12:22:16.032Z</time></trkpt><trkpt lat="38.279606" lon="-0.7248526"><ele>142.5</ele><time>2026-04-05T12:22:17.032Z</time></trkpt><trkpt lat="38.2793205" lon="-0.7248149"><ele>140.0</ele><time>2026-04-05T12:22:18.032Z</time></trkpt><trkpt lat="38.2790472" lon="-0.7247706"><ele>136.0</ele><time>2026-04-05T12:22:19.033Z</time></trkpt><trkpt lat="38.2787936" lon="-0.7247224"><ele>132.0</ele><time>2026-04-05T12:22:20.032Z</time></trkpt><trkpt lat="38.2785574" lon="-0.7246736"><ele>132.0</ele><time>2026-04-05T12:22:21.032Z</time></trkpt><trkpt lat="38.2783353" lon="-0.7246245"><ele>132.0</ele><time>2026-04-05T12:22:22.033Z</time></trkpt><trkpt lat="38.278125" lon="-0.724582"><ele>132.0</ele><time>2026-04-05T12:22:23.032Z</time></trkpt><trkpt lat="38.2779345" lon="-0.7245322"><ele>129.66666666666666</ele><time>2026-04-05T12:22:24.032Z</time></trkpt><trkpt lat="38.2777537" lon="-0.724476"><ele>127.33333333333333</ele><time>2026-04-05T12:22:25.033Z</time></trkpt><trkpt lat="38.2775899" lon="-0.7244188"><ele>125.0</ele><time>2026-04-05T12:22:26.032Z</time></trkpt><trkpt lat="38.2774384" lon="-0.7243628"><ele>126.0</ele><time>2026-04-05T12:22:27.033Z</time></trkpt><trkpt lat="38.2773028" lon="-0.7243138"><ele>127.0</ele><time>2026-04-05T12:22:28.033Z</time></trkpt><trkpt lat="38.2771812" lon="-0.724276"><ele>128.0</ele><time>2026-04-05T12:22:29.033Z</time></trkpt><trkpt lat="38.2770728" lon="-0.7242556"><ele>129.0</ele><time>2026-04-05T12:22:30.032Z</time></trkpt><trkpt lat="38.276973" lon="-0.7242599"><ele>129.0</ele><time>2026-04-05T12:22:31.033Z</time></trkpt><trkpt lat="38.2768738" lon="-0.7242844"><ele>129.0</ele><time>2026-04-05T12:22:32.032Z</time></trkpt><trkpt lat="38.2767631" lon="-0.7242882"><ele>129.0</ele><time>2026-04-05T12:22:33.032Z</time></trkpt><trkpt lat="38.2766366" lon="-0.7242395"><ele>129.0</ele><time>2026-04-05T12:22:34.033Z</time></trkpt><trkpt lat="38.2764868" lon="-0.7241858"><ele>129.33333333333334</ele><time>2026-04-05T12:22:35.033Z</time></trkpt><trkpt lat="38.2762912" lon="-0.7241597"><ele>129.66666666666669</ele><time>2026-04-05T12:22:36.032Z</time></trkpt><trkpt lat="38.2760569" lon="-0.7241313"><ele>130.0</ele><time>2026-04-05T12:22:37.032Z</time></trkpt><trkpt lat="38.275791" lon="-0.7240885"><ele>128.5</ele><time>2026-04-05T12:22:38.033Z</time></trkpt><trkpt lat="38.2755054" lon="-0.7240357"><ele>127.0</ele><time>2026-04-05T12:22:39.033Z</time></trkpt><trkpt lat="38.2752008" lon="-0.7239739"><ele>127.0</ele><time>2026-04-05T12:22:40.033Z</time></trkpt><trkpt lat="38.2748905" lon="-0.7239051"><ele>127.0</ele><time>2026-04-05T12:22:41.033Z</time></trkpt><trkpt lat="38.2745711" lon="-0.7238355"><ele>124.5</ele><time>2026-04-05T12:22:42.032Z</time></trkpt><trkpt lat="38.2742456" lon="-0.7237542"><ele>122.0</ele><time>2026-04-05T12:22:43.033Z</time></trkpt><trkpt lat="38.2739218" lon="-0.7236741"><ele>122.0</ele><time>2026-04-05T12:22:44.033Z</time></trkpt><trkpt lat="38.2735964" lon="-0.7235981"><ele>122.0</ele><time>2026-04-05T12:22:45.033Z</time></trkpt><trkpt lat="38.2732791" lon="-0.7235296"><ele>121.0</ele><time>2026-04-05T12:22:46.033Z</time></trkpt><trkpt lat="38.2729581" lon="-0.7234762"><ele>120.0</ele><time>2026-04-05T12:22:47.032Z</time></trkpt><trkpt lat="38.2726357" lon="-0.7234329"><ele>120.0</ele><time>2026-04-05T12:22:48.033Z</time></trkpt><trkpt lat="38.2723123" lon="-0.7234064"><ele>120.0</ele><time>2026-04-05T12:22:49.033Z</time></trkpt><trkpt lat="38.2720015" lon="-0.7233869"><ele>118.0</ele><time>2026-04-05T12:22:50.033Z</time></trkpt><trkpt lat="38.2717027" lon="-0.7233828"><ele>116.0</ele><time>2026-04-05T12:22:51.032Z</time></trkpt><trkpt lat="38.2714006" lon="-0.72339"><ele>115.0</ele><time>2026-04-05T12:22:52.033Z</time></trkpt><trkpt lat="38.2710949" lon="-0.7234061"><ele>114.0</ele><time>2026-04-05T12:22:53.032Z</time></trkpt><trkpt lat="38.2707954" lon="-0.7234317"><ele>113.0</ele><time>2026-04-05T12:22:54.033Z</time></trkpt><trkpt lat="38.270504" lon="-0.7234672"><ele>112.0</ele><time>2026-04-05T12:22:55.032Z</time></trkpt><trkpt lat="38.2702178" lon="-0.723504"><ele>112.0</ele><time>2026-04-05T12:22:56.032Z</time></trkpt><trkpt lat="38.2699315" lon="-0.7235472"><ele>112.0</ele><time>2026-04-05T12:22:57.032Z</time></trkpt><trkpt lat="38.2696503" lon="-0.7235924"><ele>110.0</ele><time>2026-04-05T12:22:58.033Z</time></trkpt><trkpt lat="38.2693726" lon="-0.7236299"><ele>108.0</ele><time>2026-04-05T12:22:59.032Z</time></trkpt><trkpt lat="38.2691015" lon="-0.7236652"><ele>106.5</ele><time>2026-04-05T12:23:00.033Z</time></trkpt><trkpt lat="38.268834" lon="-0.7236939"><ele>105.0</ele><time>2026-04-05T12:23:01.033Z</time></trkpt><trkpt lat="38.2685796" lon="-0.7237151"><ele>105.0</ele><time>2026-04-05T12:23:02.032Z</time></trkpt><trkpt lat="38.2683481" lon="-0.7237281"><ele>105.0</ele><time>2026-04-05T12:23:03.032Z</time></trkpt><trkpt lat="38.2681299" lon="-0.7237385"><ele>104.33333333333334</ele><time>2026-04-05T12:23:04.033Z</time></trkpt><trkpt lat="38.2679189" lon="-0.7237404"><ele>103.66666666666667</ele><time>2026-04-05T12:23:05.032Z</time></trkpt><trkpt lat="38.267729" lon="-0.7237347"><ele>103.0</ele><time>2026-04-05T12:23:06.032Z</time></trkpt><trkpt lat="38.2675514" lon="-0.7237253"><ele>103.0</ele><time>2026-04-05T12:23:07.032Z</time></trkpt><trkpt lat="38.2673773" lon="-0.7237147"><ele>103.0</ele><time>2026-04-05T12:23:08.033Z</time></trkpt><trkpt lat="38.2672234" lon="-0.7237098"><ele>103.0</ele><time>2026-04-05T12:23:09.033Z</time></trkpt><trkpt lat="38.2670799" lon="-0.7237066"><ele>102.80000000000001</ele><time>2026-04-05T12:23:10.032Z</time></trkpt><trkpt lat="38.2669488" lon="-0.7237143"><ele>102.6</ele><time>2026-04-05T12:23:11.032Z</time></trkpt><trkpt lat="38.2668491" lon="-0.7237344"><ele>102.4</ele><time>2026-04-05T12:23:12.032Z</time></trkpt><trkpt lat="38.2667605" lon="-0.7237597"><ele>102.19999999999999</ele><time>2026-04-05T12:23:13.033Z</time></trkpt><trkpt lat="38.2666974" lon="-0.7237759"><ele>102.0</ele><time>2026-04-05T12:23:14.033Z</time></trkpt><trkpt lat="38.2666195" lon="-0.7237786"><ele>102.0</ele><time>2026-04-05T12:23:38.033Z</time></trkpt><trkpt lat="38.266497" lon="-0.7238111"><ele>102.0</ele><time>2026-04-05T12:23:40.033Z</time></trkpt><trkpt lat="38.2664092" lon="-0.7238262"><ele>102.0</ele><time>2026-04-05T12:23:41.032Z</time></trkpt><trkpt lat="38.2663098" lon="-0.7238303"><ele>102.0</ele><time>2026-04-05T12:23:42.032Z</time></trkpt><trkpt lat="38.2662096" lon="-0.7238203"><ele>102.0</ele><time>2026-04-05T12:23:43.032Z</time></trkpt><trkpt lat="38.2661111" lon="-0.7238005"><ele>101.83333333333333</ele><time>2026-04-05T12:23:44.033Z</time></trkpt><trkpt lat="38.2660356" lon="-0.7237683"><ele>101.66666666666666</ele><time>2026-04-05T12:23:45.032Z</time></trkpt><trkpt lat="38.265978" lon="-0.7237315"><ele>101.5</ele><time>2026-04-05T12:23:46.033Z</time></trkpt><trkpt lat="38.2659153" lon="-0.7236456"><ele>101.33333333333333</ele><time>2026-04-05T12:23:48.032Z</time></trkpt><trkpt lat="38.2659121" lon="-0.7235178"><ele>101.16666666666666</ele><time>2026-04-05T12:24:31.033Z</time></trkpt><trkpt lat="38.2659242" lon="-0.7234288"><ele>101.0</ele><time>2026-04-05T12:24:32.033Z</time></trkpt><trkpt lat="38.2659615" lon="-0.7233361"><ele>101.0</ele><time>2026-04-05T12:24:33.033Z</time></trkpt><trkpt lat="38.266026" lon="-0.7232493"><ele>101.0</ele><time>2026-04-05T12:24:34.032Z</time></trkpt><trkpt lat="38.2661154" lon="-0.7231783"><ele>101.0</ele><time>2026-04-05T12:24:35.032Z</time></trkpt><trkpt lat="38.266228" lon="-0.7231291"><ele>101.0</ele><time>2026-04-05T12:24:36.033Z</time></trkpt><trkpt lat="38.2663597" lon="-0.723084"><ele>101.33333333333333</ele><time>2026-04-05T12:24:37.032Z</time></trkpt><trkpt lat="38.2664987" lon="-0.7230202"><ele>101.66666666666666</ele><time>2026-04-05T12:24:38.033Z</time></trkpt><trkpt lat="38.2666241" lon="-0.7229086"><ele>102.0</ele><time>2026-04-05T12:24:39.033Z</time></trkpt><trkpt lat="38.2667212" lon="-0.7227524"><ele>101.66666666666666</ele><time>2026-04-05T12:24:40.032Z</time></trkpt><trkpt lat="38.2667974" lon="-0.7225602"><ele>101.33333333333333</ele><time>2026-04-05T12:24:41.033Z</time></trkpt><trkpt lat="38.2668671" lon="-0.7223396"><ele>101.0</ele><time>2026-04-05T12:24:42.032Z</time></trkpt><trkpt lat="38.2669315" lon="-0.7221081"><ele>102.0</ele><time>2026-04-05T12:24:43.032Z</time></trkpt><trkpt lat="38.2670024" lon="-0.7218753"><ele>103.0</ele><time>2026-04-05T12:24:44.033Z</time></trkpt><trkpt lat="38.2670873" lon="-0.7216098"><ele>104.0</ele><time>2026-04-05T12:24:45.032Z</time></trkpt><trkpt lat="38.2671775" lon="-0.7213277"><ele>103.0</ele><time>2026-04-05T12:24:46.032Z</time></trkpt><trkpt lat="38.267265" lon="-0.7210146"><ele>102.0</ele><time>2026-04-05T12:24:47.033Z</time></trkpt><trkpt lat="38.2673604" lon="-0.7206855"><ele>102.0</ele><time>2026-04-05T12:24:48.032Z</time></trkpt><trkpt lat="38.2674504" lon="-0.7203763"><ele>102.0</ele><time>2026-04-05T12:24:49.033Z</time></trkpt><trkpt lat="38.2675397" lon="-0.720093"><ele>100.66666666666666</ele><time>2026-04-05T12:24:50.032Z</time></trkpt><trkpt lat="38.2676214" lon="-0.719802"><ele>99.33333333333333</ele><time>2026-04-05T12:24:51.032Z</time></trkpt><trkpt lat="38.2676901" lon="-0.7195805"><ele>98.0</ele><time>2026-04-05T12:24:52.033Z</time></trkpt><trkpt lat="38.2677596" lon="-0.7193545"><ele>96.66666666666666</ele><time>2026-04-05T12:24:53.032Z</time></trkpt><trkpt lat="38.2678254" lon="-0.7191403"><ele>95.33333333333333</ele><time>2026-04-05T12:24:54.032Z</time></trkpt><trkpt lat="38.2678757" lon="-0.7189622"><ele>94.0</ele><time>2026-04-05T12:24:55.032Z</time></trkpt><trkpt lat="38.2679186" lon="-0.7188116"><ele>94.0</ele><time>2026-04-05T12:24:56.033Z</time></trkpt><trkpt lat="38.2679522" lon="-0.7187001"><ele>94.0</ele><time>2026-04-05T12:24:57.032Z</time></trkpt><trkpt lat="38.2679773" lon="-0.7186118"><ele>94.0</ele><time>2026-04-05T12:24:58.032Z</time></trkpt><trkpt lat="38.2679843" lon="-0.7185287"><ele>94.0</ele><time>2026-04-05T12:24:59.032Z</time></trkpt><trkpt lat="38.2679692" lon="-0.7184358"><ele>94.0</ele><time>2026-04-05T12:25:00.033Z</time></trkpt><trkpt lat="38.2679376" lon="-0.7183339"><ele>94.0</ele><time>2026-04-05T12:25:01.033Z</time></trkpt><trkpt lat="38.2679206" lon="-0.7182148"><ele>94.0</ele><time>2026-04-05T12:25:02.033Z</time></trkpt><trkpt lat="38.2679375" lon="-0.7180947"><ele>94.0</ele><time>2026-04-05T12:25:03.033Z</time></trkpt><trkpt lat="38.2679914" lon="-0.7179973"><ele>94.0</ele><time>2026-04-05T12:25:04.032Z</time></trkpt><trkpt lat="38.268068" lon="-0.7179236"><ele>94.0</ele><time>2026-04-05T12:25:05.032Z</time></trkpt><trkpt lat="38.2681504" lon="-0.7178847"><ele>94.0</ele><time>2026-04-05T12:25:06.032Z</time></trkpt><trkpt lat="38.2682294" lon="-0.7178807"><ele>95.0</ele><time>2026-04-05T12:25:07.033Z</time></trkpt><trkpt lat="38.2682983" lon="-0.7179164"><ele>96.0</ele><time>2026-04-05T12:25:08.033Z</time></trkpt><trkpt lat="38.2683584" lon="-0.7179759"><ele>97.0</ele><time>2026-04-05T12:25:09.032Z</time></trkpt><trkpt lat="38.2684158" lon="-0.7180517"><ele>98.0</ele><time>2026-04-05T12:25:10.032Z</time></trkpt><trkpt lat="38.268488" lon="-0.7180906"><ele>99.00000000000001</ele><time>2026-04-05T12:25:11.033Z</time></trkpt><trkpt lat="38.2685746" lon="-0.7180946"><ele>100.0</ele><time>2026-04-05T12:25:12.033Z</time></trkpt><trkpt lat="38.2686849" lon="-0.7180752"><ele>100.0</ele><time>2026-04-05T12:25:13.033Z</time></trkpt><trkpt lat="38.2688244" lon="-0.7180408"><ele>100.0</ele><time>2026-04-05T12:25:14.032Z</time></trkpt><trkpt lat="38.2689991" lon="-0.7179994"><ele>100.0</ele><time>2026-04-05T12:25:15.033Z</time></trkpt><trkpt lat="38.2691709" lon="-0.7179632"><ele>101.33333333333334</ele><time>2026-04-05T12:25:16.032Z</time></trkpt><trkpt lat="38.2693353" lon="-0.7179308"><ele>102.66666666666666</ele><time>2026-04-05T12:25:17.033Z</time></trkpt><trkpt lat="38.2694924" lon="-0.7178948"><ele>104.0</ele><time>2026-04-05T12:25:18.032Z</time></trkpt><trkpt lat="38.2696499" lon="-0.7178567"><ele>105.33333333333333</ele><time>2026-04-05T12:25:19.032Z</time></trkpt><trkpt lat="38.2698074" lon="-0.7178224"><ele>106.66666666666666</ele><time>2026-04-05T12:25:20.032Z</time></trkpt><trkpt lat="38.2699893" lon="-0.7177829"><ele>108.0</ele><time>2026-04-05T12:25:21.033Z</time></trkpt><trkpt lat="38.270204" lon="-0.7177336"><ele>108.0</ele><time>2026-04-05T12:25:22.032Z</time></trkpt><trkpt lat="38.2704402" lon="-0.7176767"><ele>108.0</ele><time>2026-04-05T12:25:23.032Z</time></trkpt><trkpt lat="38.2706602" lon="-0.7176266"><ele>108.0</ele><time>2026-04-05T12:25:24.032Z</time></trkpt><trkpt lat="38.2708588" lon="-0.7175918"><ele>108.0</ele><time>2026-04-05T12:25:25.032Z</time></trkpt><trkpt lat="38.271047" lon="-0.7175597"><ele>108.0</ele><time>2026-04-05T12:25:26.032Z</time></trkpt><trkpt lat="38.2711829" lon="-0.7175459"><ele>108.0</ele><time>2026-04-05T12:25:27.033Z</time></trkpt><trkpt lat="38.2713219" lon="-0.7175214"><ele>108.00000000000001</ele><time>2026-04-05T12:25:28.032Z</time></trkpt><trkpt lat="38.2714101" lon="-0.7175257"><ele>108.00000000000001</ele><time>2026-04-05T12:25:30.033Z</time></trkpt><trkpt lat="38.2714128" lon="-0.7176323"><ele>108.0</ele><time>2026-04-05T12:25:33.032Z</time></trkpt><trkpt lat="38.2714072" lon="-0.7177279"><ele>108.0</ele><time>2026-04-05T12:25:35.032Z</time></trkpt><trkpt lat="38.2714156" lon="-0.7178276"><ele>108.4</ele><time>2026-04-05T12:25:37.032Z</time></trkpt><trkpt lat="38.2714305" lon="-0.7179132"><ele>108.80000000000001</ele><time>2026-04-05T12:25:39.032Z</time></trkpt><trkpt lat="38.2714969" lon="-0.7179832"><ele>109.2</ele><time>2026-04-05T12:26:31.032Z</time></trkpt><trkpt lat="38.2716225" lon="-0.7178688"><ele>109.6</ele><time>2026-04-05T12:26:50.981Z</time></trkpt><trkpt lat="38.2717101" lon="-0.7179548"><ele>110.0</ele><time>2026-04-05T12:29:24.416Z</time></trkpt><trkpt lat="38.2717921" lon="-0.7179783"><ele>110.49999999999999</ele><time>2026-04-05T12:29:34.689Z</time></trkpt><trkpt lat="38.2718572" lon="-0.7179739"><ele>111.0</ele><time>2026-04-05T12:29:40.854Z</time></trkpt><trkpt lat="38.271918" lon="-0.7179299"><ele>111.5</ele><time>2026-04-05T12:29:44.991Z</time></trkpt><trkpt lat="38.2719873" lon="-0.7179006"><ele>112.0</ele><time>2026-04-05T12:29:51.136Z</time></trkpt><trkpt lat="38.2720579" lon="-0.7179007"><ele>112.49999999999999</ele><time>2026-04-05T12:29:57.309Z</time></trkpt><trkpt lat="38.272051" lon="-0.7180618"><ele>113.0</ele><time>2026-04-05T12:30:12.877Z</time></trkpt><trkpt lat="38.271983" lon="-0.7181068"><ele>113.0</ele><time>2026-04-05T12:30:17.968Z</time></trkpt><trkpt lat="38.2718301" lon="-0.7181006"><ele>113.0</ele><time>2026-04-05T12:30:31.514Z</time></trkpt><trkpt lat="38.2727213" lon="-0.71572"><ele>111.0</ele><time>2026-04-05T12:30:59.187Z</time></trkpt><trkpt lat="38.2717272" lon="-0.7166104"><ele>113.0</ele><time>2026-04-05T12:31:18.245Z</time></trkpt><trkpt lat="38.2716228" lon="-0.7179644"><ele>112.99999999999999</ele><time>2026-04-05T12:31:35.094Z</time></trkpt><trkpt lat="38.2716348" lon="-0.7181074"><ele>113.0</ele><time>2026-04-05T12:31:37.071Z</time></trkpt><trkpt lat="38.271639" lon="-0.7181926"><ele>113.0</ele><time>2026-04-05T12:31:38.06Z</time></trkpt><trkpt lat="38.2716551" lon="-0.718327"><ele>113.0</ele><time>2026-04-05T12:31:40.053Z</time></trkpt><trkpt lat="38.2716943" lon="-0.7184083"><ele>112.99999999999999</ele><time>2026-04-05T12:31:42.053Z</time></trkpt><trkpt lat="38.2717527" lon="-0.7184744"><ele>113.0</ele><time>2026-04-05T12:31:45.052Z</time></trkpt><trkpt lat="38.2718169" lon="-0.7185409"><ele>112.99999999999999</ele><time>2026-04-05T12:31:48.052Z</time></trkpt><trkpt lat="38.2719222" lon="-0.7185346"><ele>113.0</ele><time>2026-04-05T12:31:50.052Z</time></trkpt><trkpt lat="38.2719914" lon="-0.7185166"><ele>113.0</ele><time>2026-04-05T12:31:51.052Z</time></trkpt><trkpt lat="38.2720675" lon="-0.718501"><ele>113.0</ele><time>2026-04-05T12:31:52.053Z</time></trkpt><trkpt lat="38.2721643" lon="-0.7184694"><ele>112.99999999999999</ele><time>2026-04-05T12:31:53.053Z</time></trkpt><trkpt lat="38.2722488" lon="-0.7184501"><ele>113.0</ele><time>2026-04-05T12:31:54.052Z</time></trkpt><trkpt lat="38.2723464" lon="-0.7184157"><ele>112.80000000000001</ele><time>2026-04-05T12:31:55.052Z</time></trkpt><trkpt lat="38.2724414" lon="-0.7183841"><ele>112.60000000000001</ele><time>2026-04-05T12:31:56.052Z</time></trkpt><trkpt lat="38.2725318" lon="-0.718359"><ele>112.39999999999999</ele><time>2026-04-05T12:31:57.053Z</time></trkpt><trkpt lat="38.2726218" lon="-0.7183346"><ele>112.19999999999999</ele><time>2026-04-05T12:31:58.052Z</time></trkpt><trkpt lat="38.2726631" lon="-0.7181836"><ele>112.0</ele><time>2026-04-05T12:32:00.053Z</time></trkpt><trkpt lat="38.2726533" lon="-0.7181039"><ele>112.0</ele><time>2026-04-05T12:32:01.052Z</time></trkpt><trkpt lat="38.2726366" lon="-0.718023"><ele>111.99999999999999</ele><time>2026-04-05T12:32:02.053Z</time></trkpt><trkpt lat="38.2726241" lon="-0.7179422"><ele>111.99999999999999</ele><time>2026-04-05T12:32:03.052Z</time></trkpt><trkpt lat="38.2725997" lon="-0.717783"><ele>112.0</ele><time>2026-04-05T12:32:05.052Z</time></trkpt><trkpt lat="38.2725822" lon="-0.7176367"><ele>112.0</ele><time>2026-04-05T12:32:07.053Z</time></trkpt><trkpt lat="38.2725747" lon="-0.717536"><ele>112.0</ele><time>2026-04-05T12:32:09.052Z</time></trkpt><trkpt lat="38.2725585" lon="-0.7174287"><ele>111.99999999999999</ele><time>2026-04-05T12:32:32.053Z</time></trkpt><trkpt lat="38.2725373" lon="-0.7173044"><ele>111.99999999999999</ele><time>2026-04-05T12:32:34.052Z</time></trkpt><trkpt lat="38.272514" lon="-0.71715"><ele>112.0</ele><time>2026-04-05T12:32:36.052Z</time></trkpt><trkpt lat="38.2725044" lon="-0.7170603"><ele>112.0</ele><time>2026-04-05T12:32:37.053Z</time></trkpt><trkpt lat="38.2724935" lon="-0.7169677"><ele>112.33333333333334</ele><time>2026-04-05T12:32:38.052Z</time></trkpt><trkpt lat="38.2724811" lon="-0.7168712"><ele>112.66666666666667</ele><time>2026-04-05T12:32:39.052Z</time></trkpt><trkpt lat="38.272469" lon="-0.7167734"><ele>113.0</ele><time>2026-04-05T12:32:40.052Z</time></trkpt><trkpt lat="38.2724546" lon="-0.7166788"><ele>113.33333333333334</ele><time>2026-04-05T12:32:41.052Z</time></trkpt><trkpt lat="38.2724458" lon="-0.7165826"><ele>113.66666666666667</ele><time>2026-04-05T12:32:42.053Z</time></trkpt><trkpt lat="38.2724324" lon="-0.7164905"><ele>114.0</ele><time>2026-04-05T12:32:43.052Z</time></trkpt><trkpt lat="38.2724255" lon="-0.7163816"><ele>114.0</ele><time>2026-04-05T12:32:45.052Z</time></trkpt><trkpt lat="38.2724289" lon="-0.7162534"><ele>114.0</ele><time>2026-04-05T12:32:47.053Z</time></trkpt><trkpt lat="38.2723723" lon="-0.7161167"><ele>114.0</ele><time>2026-04-05T12:32:49.052Z</time></trkpt><trkpt lat="38.2723306" lon="-0.7160534"><ele>114.0</ele><time>2026-04-05T12:32:50.053Z</time></trkpt><trkpt lat="38.2722762" lon="-0.7159734"><ele>114.0</ele><time>2026-04-05T12:32:51.053Z</time></trkpt><trkpt lat="38.2722224" lon="-0.7158917"><ele>113.5</ele><time>2026-04-05T12:32:52.053Z</time></trkpt><trkpt lat="38.2721764" lon="-0.7158124"><ele>113.0</ele><time>2026-04-05T12:32:53.052Z</time></trkpt><trkpt lat="38.2721325" lon="-0.7157325"><ele>112.5</ele><time>2026-04-05T12:32:54.052Z</time></trkpt><trkpt lat="38.2720856" lon="-0.7156553"><ele>112.0</ele><time>2026-04-05T12:32:55.052Z</time></trkpt><trkpt lat="38.272035" lon="-0.7155721"><ele>111.5</ele><time>2026-04-05T12:32:56.052Z</time></trkpt><trkpt lat="38.2719904" lon="-0.715507"><ele>111.0</ele><time>2026-04-05T12:32:57.052Z</time></trkpt><trkpt lat="38.2719225" lon="-0.7154175"><ele>111.0</ele><time>2026-04-05T12:32:58.972Z</time></trkpt><trkpt lat="38.27186" lon="-0.7153234"><ele>111.0</ele><time>2026-04-05T12:33:00.061Z</time></trkpt><trkpt lat="38.2717981" lon="-0.7152081"><ele>111.0</ele><time>2026-04-05T12:33:02.052Z</time></trkpt><trkpt lat="38.2717722" lon="-0.7151148"><ele>111.0</ele><time>2026-04-05T12:33:04.057Z</time></trkpt><trkpt lat="38.2718378" lon="-0.7151157"><ele>111.0</ele><time>2026-04-05T12:33:16.056Z</time></trkpt><trkpt lat="38.2717769" lon="-0.7151669"><ele>111.0</ele><time>2026-04-05T12:34:04.041Z</time></trkpt><trkpt lat="38.2718391" lon="-0.7151401"><ele>111.33333333333333</ele><time>2026-04-05T12:34:33.041Z</time></trkpt><trkpt lat="38.2718854" lon="-0.7150849"><ele>111.66666666666666</ele><time>2026-04-05T12:34:38.041Z</time></trkpt><trkpt lat="38.271822" lon="-0.7150728"><ele>112.0</ele><time>2026-04-05T12:35:20.041Z</time></trkpt><trkpt lat="38.2717587" lon="-0.7150934"><ele>112.33333333333333</ele><time>2026-04-05T12:35:56.222Z</time></trkpt><trkpt lat="38.2716742" lon="-0.7149995"><ele>112.66666666666666</ele><time>2026-04-05T12:35:58.071Z</time></trkpt><trkpt lat="38.2716316" lon="-0.7149187"><ele>113.0</ele><time>2026-04-05T12:36:01.07Z</time></trkpt><trkpt lat="38.2715764" lon="-0.7148277"><ele>112.99999999999999</ele><time>2026-04-05T12:36:19.071Z</time></trkpt><trkpt lat="38.2715031" lon="-0.7147655"><ele>113.0</ele><time>2026-04-05T12:36:21.071Z</time></trkpt><trkpt lat="38.27144" lon="-0.7147744"><ele>113.0</ele><time>2026-04-05T12:36:22.071Z</time></trkpt><trkpt lat="38.2713594" lon="-0.7148542"><ele>113.0</ele><time>2026-04-05T12:36:24.071Z</time></trkpt><trkpt lat="38.2712766" lon="-0.7149425"><ele>112.99999999999999</ele><time>2026-04-05T12:36:26.07Z</time></trkpt><trkpt lat="38.2712243" lon="-0.7150028"><ele>113.0</ele><time>2026-04-05T12:36:28.071Z</time></trkpt><trkpt lat="38.2711677" lon="-0.7150531"><ele>112.83333333333333</ele><time>2026-04-05T12:36:34.07Z</time></trkpt><trkpt lat="38.2711022" lon="-0.7151217"><ele>112.66666666666666</ele><time>2026-04-05T12:36:38.07Z</time></trkpt><trkpt lat="38.2710438" lon="-0.7151869"><ele>112.5</ele><time>2026-04-05T12:36:40.071Z</time></trkpt><trkpt lat="38.2709851" lon="-0.7152496"><ele>112.33333333333334</ele><time>2026-04-05T12:36:42.071Z</time></trkpt><trkpt lat="38.2709333" lon="-0.7153105"><ele>112.16666666666667</ele><time>2026-04-05T12:36:44.071Z</time></trkpt><trkpt lat="38.2708809" lon="-0.7153627"><ele>112.0</ele><time>2026-04-05T12:36:46.07Z</time></trkpt><trkpt lat="38.2708066" lon="-0.7154343"><ele>112.00000000000001</ele><time>2026-04-05T12:36:49.071Z</time></trkpt><trkpt lat="38.2707479" lon="-0.7154939"><ele>112.0</ele><time>2026-04-05T12:36:52.07Z</time></trkpt><trkpt lat="38.2706973" lon="-0.7155417"><ele>112.0</ele><time>2026-04-05T12:37:19.071Z</time></trkpt><trkpt lat="38.2706379" lon="-0.7156021"><ele>112.0</ele><time>2026-04-05T12:37:21.071Z</time></trkpt><trkpt lat="38.2705896" lon="-0.7156579"><ele>112.00000000000001</ele><time>2026-04-05T12:37:22.071Z</time></trkpt><trkpt lat="38.2705193" lon="-0.7157499"><ele>112.0</ele><time>2026-04-05T12:37:24.071Z</time></trkpt><trkpt lat="38.270439" lon="-0.7158364"><ele>111.83333333333334</ele><time>2026-04-05T12:37:26.071Z</time></trkpt><trkpt lat="38.2703632" lon="-0.7159053"><ele>111.66666666666667</ele><time>2026-04-05T12:37:28.07Z</time></trkpt><trkpt lat="38.2702914" lon="-0.7159714"><ele>111.5</ele><time>2026-04-05T12:37:30.07Z</time></trkpt><trkpt lat="38.2702328" lon="-0.7160299"><ele>111.33333333333334</ele><time>2026-04-05T12:37:32.07Z</time></trkpt><trkpt lat="38.2701682" lon="-0.7160866"><ele>111.16666666666667</ele><time>2026-04-05T12:37:35.07Z</time></trkpt><trkpt lat="38.2701163" lon="-0.7161496"><ele>111.0</ele><time>2026-04-05T12:37:38.071Z</time></trkpt><trkpt lat="38.270056" lon="-0.7162012"><ele>111.4</ele><time>2026-04-05T12:37:43.071Z</time></trkpt><trkpt lat="38.2699644" lon="-0.716292"><ele>111.8</ele><time>2026-04-05T12:37:45.07Z</time></trkpt><trkpt lat="38.2698713" lon="-0.716407"><ele>112.20000000000002</ele><time>2026-04-05T12:37:47.07Z</time></trkpt><trkpt lat="38.2698129" lon="-0.7164711"><ele>112.60000000000001</ele><time>2026-04-05T12:37:48.07Z</time></trkpt><trkpt lat="38.2697541" lon="-0.7165321"><ele>113.0</ele><time>2026-04-05T12:37:49.071Z</time></trkpt><trkpt lat="38.2696893" lon="-0.7166045"><ele>111.80000000000001</ele><time>2026-04-05T12:37:50.07Z</time></trkpt><trkpt lat="38.2696225" lon="-0.7166779"><ele>110.60000000000001</ele><time>2026-04-05T12:37:51.071Z</time></trkpt><trkpt lat="38.2695477" lon="-0.7167541"><ele>109.39999999999999</ele><time>2026-04-05T12:37:52.07Z</time></trkpt><trkpt lat="38.2694757" lon="-0.7168292"><ele>108.19999999999999</ele><time>2026-04-05T12:37:53.071Z</time></trkpt><trkpt lat="38.2694039" lon="-0.716914"><ele>107.0</ele><time>2026-04-05T12:37:54.071Z</time></trkpt><trkpt lat="38.2693314" lon="-0.716993"><ele>106.8</ele><time>2026-04-05T12:37:55.07Z</time></trkpt><trkpt lat="38.26925" lon="-0.7170831"><ele>106.6</ele><time>2026-04-05T12:37:56.07Z</time></trkpt><trkpt lat="38.2691729" lon="-0.7171655"><ele>106.39999999999999</ele><time>2026-04-05T12:37:57.07Z</time></trkpt><trkpt lat="38.2690914" lon="-0.7172562"><ele>106.19999999999999</ele><time>2026-04-05T12:37:58.07Z</time></trkpt><trkpt lat="38.2690025" lon="-0.7173432"><ele>106.0</ele><time>2026-04-05T12:37:59.07Z</time></trkpt><trkpt lat="38.2689169" lon="-0.7174301"><ele>105.4</ele><time>2026-04-05T12:38:00.071Z</time></trkpt><trkpt lat="38.2688368" lon="-0.7175145"><ele>104.8</ele><time>2026-04-05T12:38:01.071Z</time></trkpt><trkpt lat="38.2687532" lon="-0.7176015"><ele>104.2</ele><time>2026-04-05T12:38:02.071Z</time></trkpt><trkpt lat="38.2686665" lon="-0.717692"><ele>103.60000000000001</ele><time>2026-04-05T12:38:03.07Z</time></trkpt><trkpt lat="38.2685791" lon="-0.7177778"><ele>103.0</ele><time>2026-04-05T12:38:04.071Z</time></trkpt><trkpt lat="38.2685049" lon="-0.7178603"><ele>102.50000000000001</ele><time>2026-04-05T12:38:05.071Z</time></trkpt><trkpt lat="38.2684414" lon="-0.7179372"><ele>102.0</ele><time>2026-04-05T12:38:06.07Z</time></trkpt><trkpt lat="38.268397" lon="-0.7180089"><ele>101.5</ele><time>2026-04-05T12:38:07.071Z</time></trkpt><trkpt lat="38.2683745" lon="-0.7180904"><ele>101.0</ele><time>2026-04-05T12:38:08.07Z</time></trkpt><trkpt lat="38.2683672" lon="-0.7181906"><ele>100.50000000000001</ele><time>2026-04-05T12:38:09.071Z</time></trkpt><trkpt lat="38.2683609" lon="-0.7182943"><ele>100.0</ele><time>2026-04-05T12:38:10.07Z</time></trkpt><trkpt lat="38.2683195" lon="-0.7183892"><ele>100.00000000000001</ele><time>2026-04-05T12:38:11.071Z</time></trkpt><trkpt lat="38.268251" lon="-0.718469"><ele>100.0</ele><time>2026-04-05T12:38:12.071Z</time></trkpt><trkpt lat="38.2681693" lon="-0.7185245"><ele>100.0</ele><time>2026-04-05T12:38:13.07Z</time></trkpt><trkpt lat="38.2680849" lon="-0.7185686"><ele>100.0</ele><time>2026-04-05T12:38:14.071Z</time></trkpt><trkpt lat="38.2680052" lon="-0.7186166"><ele>100.00000000000001</ele><time>2026-04-05T12:38:15.07Z</time></trkpt><trkpt lat="38.2679677" lon="-0.7187071"><ele>100.0</ele><time>2026-04-05T12:38:16.07Z</time></trkpt><trkpt lat="38.2679337" lon="-0.7188108"><ele>99.6</ele><time>2026-04-05T12:38:17.07Z</time></trkpt><trkpt lat="38.2679001" lon="-0.7189511"><ele>99.2</ele><time>2026-04-05T12:38:18.07Z</time></trkpt><trkpt lat="38.2678631" lon="-0.7190748"><ele>98.80000000000001</ele><time>2026-04-05T12:38:19.07Z</time></trkpt><trkpt lat="38.2678223" lon="-0.719199"><ele>98.4</ele><time>2026-04-05T12:38:20.07Z</time></trkpt><trkpt lat="38.2677809" lon="-0.7193364"><ele>98.0</ele><time>2026-04-05T12:38:21.071Z</time></trkpt><trkpt lat="38.2677394" lon="-0.7194689"><ele>98.0</ele><time>2026-04-05T12:38:22.068Z</time></trkpt><trkpt lat="38.2677033" lon="-0.7195972"><ele>98.0</ele><time>2026-04-05T12:38:23.07Z</time></trkpt><trkpt lat="38.267661" lon="-0.71974"><ele>98.0</ele><time>2026-04-05T12:38:24.071Z</time></trkpt><trkpt lat="38.2676187" lon="-0.7198913"><ele>98.0</ele><time>2026-04-05T12:38:25.071Z</time></trkpt><trkpt lat="38.2675759" lon="-0.720035"><ele>98.0</ele><time>2026-04-05T12:38:26.071Z</time></trkpt><trkpt lat="38.2675359" lon="-0.7201866"><ele>98.0</ele><time>2026-04-05T12:38:27.071Z</time></trkpt><trkpt lat="38.2674925" lon="-0.7203365"><ele>98.0</ele><time>2026-04-05T12:38:28.071Z</time></trkpt><trkpt lat="38.2674538" lon="-0.720484"><ele>98.0</ele><time>2026-04-05T12:38:29.07Z</time></trkpt><trkpt lat="38.267412" lon="-0.7206289"><ele>99.0</ele><time>2026-04-05T12:38:30.07Z</time></trkpt><trkpt lat="38.2673723" lon="-0.7207711"><ele>100.0</ele><time>2026-04-05T12:38:31.07Z</time></trkpt><trkpt lat="38.2673293" lon="-0.7209109"><ele>101.0</ele><time>2026-04-05T12:38:32.071Z</time></trkpt><trkpt lat="38.2672898" lon="-0.7210515"><ele>102.0</ele><time>2026-04-05T12:38:33.07Z</time></trkpt><trkpt lat="38.2672516" lon="-0.7211916"><ele>102.39999999999999</ele><time>2026-04-05T12:38:34.07Z</time></trkpt><trkpt lat="38.2672179" lon="-0.7213111"><ele>102.8</ele><time>2026-04-05T12:38:35.07Z</time></trkpt><trkpt lat="38.2671858" lon="-0.7214067"><ele>103.2</ele><time>2026-04-05T12:38:36.07Z</time></trkpt><trkpt lat="38.2671476" lon="-0.7214768"><ele>103.6</ele><time>2026-04-05T12:38:37.07Z</time></trkpt><trkpt lat="38.2670429" lon="-0.7214908"><ele>104.0</ele><time>2026-04-05T12:38:39.071Z</time></trkpt><trkpt lat="38.2669392" lon="-0.7214513"><ele>103.99999999999999</ele><time>2026-04-05T12:38:41.071Z</time></trkpt><trkpt lat="38.2668258" lon="-0.7214225"><ele>104.0</ele><time>2026-04-05T12:38:43.07Z</time></trkpt><trkpt lat="38.2667527" lon="-0.7213838"><ele>104.0</ele><time>2026-04-05T12:38:44.071Z</time></trkpt><trkpt lat="38.2666754" lon="-0.7213413"><ele>104.0</ele><time>2026-04-05T12:38:45.071Z</time></trkpt><trkpt lat="38.2665987" lon="-0.7213034"><ele>103.99999999999999</ele><time>2026-04-05T12:38:46.07Z</time></trkpt><trkpt lat="38.2665222" lon="-0.7212678"><ele>104.0</ele><time>2026-04-05T12:38:47.07Z</time></trkpt><trkpt lat="38.2664626" lon="-0.7212262"><ele>103.2</ele><time>2026-04-05T12:38:48.071Z</time></trkpt><trkpt lat="38.2663674" lon="-0.7211876"><ele>102.4</ele><time>2026-04-05T12:38:50.07Z</time></trkpt><trkpt lat="38.2663167" lon="-0.7212368"><ele>101.6</ele><time>2026-04-05T12:38:51.967Z</time></trkpt><trkpt lat="38.2662854" lon="-0.7213559"><ele>100.8</ele><time>2026-04-05T12:38:53.042Z</time></trkpt><trkpt lat="38.2662346" lon="-0.7215123"><ele>100.0</ele><time>2026-04-05T12:38:55.041Z</time></trkpt><trkpt lat="38.2662092" lon="-0.7215944"><ele>100.00000000000001</ele><time>2026-04-05T12:38:56.052Z</time></trkpt><trkpt lat="38.2661851" lon="-0.7216832"><ele>100.0</ele><time>2026-04-05T12:38:57.049Z</time></trkpt><trkpt lat="38.266157" lon="-0.7217647"><ele>100.0</ele><time>2026-04-05T12:38:58.049Z</time></trkpt><trkpt lat="38.2661381" lon="-0.7218514"><ele>100.0</ele><time>2026-04-05T12:38:59.05Z</time></trkpt><trkpt lat="38.2661256" lon="-0.7219544"><ele>100.0</ele><time>2026-04-05T12:39:01.049Z</time></trkpt><trkpt lat="38.2661499" lon="-0.7218774"><ele>100.00000000000001</ele><time>2026-04-05T12:39:12.049Z</time></trkpt><trkpt lat="38.2662214" lon="-0.7218474"><ele>100.0</ele><time>2026-04-05T12:40:23.036Z</time></trkpt><trkpt lat="38.2662796" lon="-0.7218004"><ele>100.00000000000001</ele><time>2026-04-05T12:40:30.039Z</time></trkpt><trkpt lat="38.2663013" lon="-0.7218769"><ele>100.0</ele><time>2026-04-05T12:40:38.039Z</time></trkpt><trkpt lat="38.266232" lon="-0.7218605"><ele>100.0</ele><time>2026-04-05T12:41:52.039Z</time></trkpt><trkpt lat="38.2661649" lon="-0.72182"><ele>100.0</ele><time>2026-04-05T12:46:03.053Z</time></trkpt><trkpt lat="38.2662303" lon="-0.7218063"><ele>100.00000000000001</ele><time>2026-04-05T12:46:15.038Z</time></trkpt><trkpt lat="38.2663749" lon="-0.7218198"><ele>100.0</ele><time>2026-04-05T12:46:41.038Z</time></trkpt><trkpt lat="38.2664644" lon="-0.7218279"><ele>104.0</ele><time>2026-04-05T12:46:43.038Z</time></trkpt><trkpt lat="38.2664005" lon="-0.721828"><ele>100.0</ele><time>2026-04-05T12:47:11.045Z</time></trkpt></trkseg></trk></gpx>